<?xml version="1.0" encoding="UTF-8"?>
<gpx xmlns="http://www.topografix.com/GPX/1/1" xmlns:gpsies="https://www.gpsies.com/GPX/1/0" creator="AllTrails https://www.alltrails.com/ - Ascoli_l-appignano-offida-ripaberarda_ascoli_course" version="1.1" xmlns:xsi="http://www.w3.org/2001/XMLSchema-instance" xsi:schemaLocation="http://www.topografix.com/GPX/1/1 http://www.topografix.com/GPX/1/1/gpx.xsd https://www.gpsies.com/GPX/1/0 https://www.gpsies.com/gpsies.xsd">
  <metadata>
    <name>Ascoli_l-appignano-offida-ripaberarda_ascoli_course</name>
    <link href="https://www.gpsies.com/">
      <text>Ascoli_l-appignano-offida-ripaberarda_ascoli_course on AllTrails</text>
    </link>
    <time>2024-05-14T08:50:37Z</time>
  </metadata>
  <trk>
    <name>Ascoli_l-appignano-offida-ripaberarda_ascoli_course on AllTrails</name>
    <trkseg>
      <trkpt lat="42.84530505" lon="13.64205820">
        <ele>107.00000</ele>
        <time>2024-04-19T10:55:40Z</time>
      </trkpt>
      <trkpt lat="42.84532768" lon="13.64209659">
        <ele>107.00000</ele>
        <time>2024-04-19T10:55:41Z</time>
      </trkpt>
      <trkpt lat="42.84535543" lon="13.64213766">
        <ele>107.00000</ele>
        <time>2024-04-19T10:55:42Z</time>
      </trkpt>
      <trkpt lat="42.84538619" lon="13.64217965">
        <ele>107.00000</ele>
        <time>2024-04-19T10:55:43Z</time>
      </trkpt>
      <trkpt lat="42.84542022" lon="13.64222508">
        <ele>108.00000</ele>
        <time>2024-04-19T10:55:44Z</time>
      </trkpt>
      <trkpt lat="42.84545592" lon="13.64227546">
        <ele>108.00000</ele>
        <time>2024-04-19T10:55:45Z</time>
      </trkpt>
      <trkpt lat="42.84549071" lon="13.64233070">
        <ele>108.00000</ele>
        <time>2024-04-19T10:55:46Z</time>
      </trkpt>
      <trkpt lat="42.84552977" lon="13.64238627">
        <ele>109.00000</ele>
        <time>2024-04-19T10:55:47Z</time>
      </trkpt>
      <trkpt lat="42.84556992" lon="13.64244486">
        <ele>109.00000</ele>
        <time>2024-04-19T10:55:48Z</time>
      </trkpt>
      <trkpt lat="42.84560990" lon="13.64250739">
        <ele>109.00000</ele>
        <time>2024-04-19T10:55:49Z</time>
      </trkpt>
      <trkpt lat="42.84565189" lon="13.64257251">
        <ele>109.00000</ele>
        <time>2024-04-19T10:55:50Z</time>
      </trkpt>
      <trkpt lat="42.84569129" lon="13.64264359">
        <ele>109.00000</ele>
        <time>2024-04-19T10:55:51Z</time>
      </trkpt>
      <trkpt lat="42.84573026" lon="13.64271710">
        <ele>109.00000</ele>
        <time>2024-04-19T10:55:52Z</time>
      </trkpt>
      <trkpt lat="42.84576941" lon="13.64279304">
        <ele>109.00000</ele>
        <time>2024-04-19T10:55:53Z</time>
      </trkpt>
      <trkpt lat="42.84580914" lon="13.64287032">
        <ele>108.00000</ele>
        <time>2024-04-19T10:55:54Z</time>
      </trkpt>
      <trkpt lat="42.84585080" lon="13.64294668">
        <ele>107.00000</ele>
        <time>2024-04-19T10:55:55Z</time>
      </trkpt>
      <trkpt lat="42.84589639" lon="13.64302229">
        <ele>105.00000</ele>
        <time>2024-04-19T10:55:56Z</time>
      </trkpt>
      <trkpt lat="42.84594140" lon="13.64310183">
        <ele>104.00000</ele>
        <time>2024-04-19T10:55:57Z</time>
      </trkpt>
      <trkpt lat="42.84598214" lon="13.64318942">
        <ele>103.00000</ele>
        <time>2024-04-19T10:55:58Z</time>
      </trkpt>
      <trkpt lat="42.84601391" lon="13.64328615">
        <ele>101.00000</ele>
        <time>2024-04-19T10:55:59Z</time>
      </trkpt>
      <trkpt lat="42.84603344" lon="13.64339092">
        <ele>100.00000</ele>
        <time>2024-04-19T10:56:00Z</time>
      </trkpt>
      <trkpt lat="42.84604266" lon="13.64350131">
        <ele>98.000000</ele>
        <time>2024-04-19T10:56:01Z</time>
      </trkpt>
      <trkpt lat="42.84604098" lon="13.64361195">
        <ele>97.000000</ele>
        <time>2024-04-19T10:56:02Z</time>
      </trkpt>
      <trkpt lat="42.84602757" lon="13.64372058">
        <ele>96.000000</ele>
        <time>2024-04-19T10:56:03Z</time>
      </trkpt>
      <trkpt lat="42.84600787" lon="13.64383181">
        <ele>96.000000</ele>
        <time>2024-04-19T10:56:04Z</time>
      </trkpt>
      <trkpt lat="42.84599027" lon="13.64394580">
        <ele>95.000000</ele>
        <time>2024-04-19T10:56:05Z</time>
      </trkpt>
      <trkpt lat="42.84597191" lon="13.64406005">
        <ele>95.000000</ele>
        <time>2024-04-19T10:56:06Z</time>
      </trkpt>
      <trkpt lat="42.84594585" lon="13.64419634">
        <ele>95.000000</ele>
        <time>2024-04-19T10:56:07Z</time>
      </trkpt>
      <trkpt lat="42.84592900" lon="13.64428888">
        <ele>95.000000</ele>
        <time>2024-04-19T10:56:08Z</time>
      </trkpt>
      <trkpt lat="42.84590930" lon="13.64440555">
        <ele>95.000000</ele>
        <time>2024-04-19T10:56:09Z</time>
      </trkpt>
      <trkpt lat="42.84588743" lon="13.64452147">
        <ele>94.000000</ele>
        <time>2024-04-19T10:56:10Z</time>
      </trkpt>
      <trkpt lat="42.84586261" lon="13.64463773">
        <ele>94.000000</ele>
        <time>2024-04-19T10:56:11Z</time>
      </trkpt>
      <trkpt lat="42.84583671" lon="13.64475407">
        <ele>94.000000</ele>
        <time>2024-04-19T10:56:12Z</time>
      </trkpt>
      <trkpt lat="42.84581475" lon="13.64486798">
        <ele>95.000000</ele>
        <time>2024-04-19T10:56:13Z</time>
      </trkpt>
      <trkpt lat="42.84579271" lon="13.64498055">
        <ele>95.000000</ele>
        <time>2024-04-19T10:56:14Z</time>
      </trkpt>
      <trkpt lat="42.84576941" lon="13.64509069">
        <ele>94.000000</ele>
        <time>2024-04-19T10:56:15Z</time>
      </trkpt>
      <trkpt lat="42.84574560" lon="13.64520007">
        <ele>94.000000</ele>
        <time>2024-04-19T10:56:16Z</time>
      </trkpt>
      <trkpt lat="42.84572482" lon="13.64530912">
        <ele>93.000000</ele>
        <time>2024-04-19T10:56:17Z</time>
      </trkpt>
      <trkpt lat="42.84570604" lon="13.64541733">
        <ele>93.000000</ele>
        <time>2024-04-19T10:56:18Z</time>
      </trkpt>
      <trkpt lat="42.84569682" lon="13.64552588">
        <ele>92.000000</ele>
        <time>2024-04-19T10:56:19Z</time>
      </trkpt>
      <trkpt lat="42.84569984" lon="13.64563610">
        <ele>92.000000</ele>
        <time>2024-04-19T10:56:20Z</time>
      </trkpt>
      <trkpt lat="42.84571459" lon="13.64574406">
        <ele>92.000000</ele>
        <time>2024-04-19T10:56:21Z</time>
      </trkpt>
      <trkpt lat="42.84574401" lon="13.64584456">
        <ele>91.000000</ele>
        <time>2024-04-19T10:56:22Z</time>
      </trkpt>
      <trkpt lat="42.84578408" lon="13.64594011">
        <ele>91.000000</ele>
        <time>2024-04-19T10:56:23Z</time>
      </trkpt>
      <trkpt lat="42.84583328" lon="13.64602485">
        <ele>91.000000</ele>
        <time>2024-04-19T10:56:24Z</time>
      </trkpt>
      <trkpt lat="42.84589212" lon="13.64609945">
        <ele>92.000000</ele>
        <time>2024-04-19T10:56:25Z</time>
      </trkpt>
      <trkpt lat="42.84595792" lon="13.64617128">
        <ele>92.000000</ele>
        <time>2024-04-19T10:56:26Z</time>
      </trkpt>
      <trkpt lat="42.84601936" lon="13.64624597">
        <ele>93.000000</ele>
        <time>2024-04-19T10:56:27Z</time>
      </trkpt>
      <trkpt lat="42.84608314" lon="13.64631051">
        <ele>93.000000</ele>
        <time>2024-04-19T10:56:28Z</time>
      </trkpt>
      <trkpt lat="42.84615078" lon="13.64636491">
        <ele>93.000000</ele>
        <time>2024-04-19T10:56:29Z</time>
      </trkpt>
      <trkpt lat="42.84622178" lon="13.64641696">
        <ele>93.000000</ele>
        <time>2024-04-19T10:56:30Z</time>
      </trkpt>
      <trkpt lat="42.84629403" lon="13.64646960">
        <ele>92.000000</ele>
        <time>2024-04-19T10:56:31Z</time>
      </trkpt>
      <trkpt lat="42.84636746" lon="13.64652383">
        <ele>92.000000</ele>
        <time>2024-04-19T10:56:32Z</time>
      </trkpt>
      <trkpt lat="42.84644474" lon="13.64658007">
        <ele>92.000000</ele>
        <time>2024-04-19T10:56:33Z</time>
      </trkpt>
      <trkpt lat="42.84652462" lon="13.64663765">
        <ele>91.000000</ele>
        <time>2024-04-19T10:56:34Z</time>
      </trkpt>
      <trkpt lat="42.84660383" lon="13.64669675">
        <ele>91.000000</ele>
        <time>2024-04-19T10:56:35Z</time>
      </trkpt>
      <trkpt lat="42.84668295" lon="13.64675642">
        <ele>90.000000</ele>
        <time>2024-04-19T10:56:36Z</time>
      </trkpt>
      <trkpt lat="42.84676174" lon="13.64681359">
        <ele>90.000000</ele>
        <time>2024-04-19T10:56:37Z</time>
      </trkpt>
      <trkpt lat="42.84684011" lon="13.64687008">
        <ele>90.000000</ele>
        <time>2024-04-19T10:56:38Z</time>
      </trkpt>
      <trkpt lat="42.84691932" lon="13.64692725">
        <ele>90.000000</ele>
        <time>2024-04-19T10:56:39Z</time>
      </trkpt>
      <trkpt lat="42.84699778" lon="13.64698701">
        <ele>90.000000</ele>
        <time>2024-04-19T10:56:40Z</time>
      </trkpt>
      <trkpt lat="42.84707405" lon="13.64704719">
        <ele>90.000000</ele>
        <time>2024-04-19T10:56:41Z</time>
      </trkpt>
      <trkpt lat="42.84715167" lon="13.64710679">
        <ele>90.000000</ele>
        <time>2024-04-19T10:56:42Z</time>
      </trkpt>
      <trkpt lat="42.84723071" lon="13.64716513">
        <ele>90.000000</ele>
        <time>2024-04-19T10:56:43Z</time>
      </trkpt>
      <trkpt lat="42.84730967" lon="13.64722330">
        <ele>90.000000</ele>
        <time>2024-04-19T10:56:44Z</time>
      </trkpt>
      <trkpt lat="42.84738829" lon="13.64728163">
        <ele>90.000000</ele>
        <time>2024-04-19T10:56:45Z</time>
      </trkpt>
      <trkpt lat="42.84746699" lon="13.64734031">
        <ele>89.000000</ele>
        <time>2024-04-19T10:56:46Z</time>
      </trkpt>
      <trkpt lat="42.84754310" lon="13.64740024">
        <ele>89.000000</ele>
        <time>2024-04-19T10:56:47Z</time>
      </trkpt>
      <trkpt lat="42.84762063" lon="13.64745791">
        <ele>88.000000</ele>
        <time>2024-04-19T10:56:48Z</time>
      </trkpt>
      <trkpt lat="42.84777637" lon="13.64757064">
        <ele>87.000000</ele>
        <time>2024-04-19T10:56:49Z</time>
      </trkpt>
      <trkpt lat="42.84785700" lon="13.64762571">
        <ele>86.000000</ele>
        <time>2024-04-19T10:56:50Z</time>
      </trkpt>
      <trkpt lat="42.84793621" lon="13.64768028">
        <ele>85.000000</ele>
        <time>2024-04-19T10:56:51Z</time>
      </trkpt>
      <trkpt lat="42.84801492" lon="13.64773635">
        <ele>85.000000</ele>
        <time>2024-04-19T10:56:52Z</time>
      </trkpt>
      <trkpt lat="42.84809287" lon="13.64779192">
        <ele>84.000000</ele>
        <time>2024-04-19T10:56:53Z</time>
      </trkpt>
      <trkpt lat="42.84817133" lon="13.64784808">
        <ele>83.000000</ele>
        <time>2024-04-19T10:56:54Z</time>
      </trkpt>
      <trkpt lat="42.84824869" lon="13.64790483">
        <ele>83.000000</ele>
        <time>2024-04-19T10:56:55Z</time>
      </trkpt>
      <trkpt lat="42.84832731" lon="13.64796065">
        <ele>82.000000</ele>
        <time>2024-04-19T10:56:56Z</time>
      </trkpt>
      <trkpt lat="42.84840418" lon="13.64801446">
        <ele>82.000000</ele>
        <time>2024-04-19T10:56:57Z</time>
      </trkpt>
      <trkpt lat="42.84847961" lon="13.64807113">
        <ele>82.000000</ele>
        <time>2024-04-19T10:56:58Z</time>
      </trkpt>
      <trkpt lat="42.84855564" lon="13.64812980">
        <ele>82.000000</ele>
        <time>2024-04-19T10:56:59Z</time>
      </trkpt>
      <trkpt lat="42.84871187" lon="13.64824874">
        <ele>82.000000</ele>
        <time>2024-04-19T10:57:01Z</time>
      </trkpt>
      <trkpt lat="42.84879066" lon="13.64831085">
        <ele>82.000000</ele>
        <time>2024-04-19T10:57:02Z</time>
      </trkpt>
      <trkpt lat="42.84886971" lon="13.64837388">
        <ele>81.000000</ele>
        <time>2024-04-19T10:57:03Z</time>
      </trkpt>
      <trkpt lat="42.84894984" lon="13.64844060">
        <ele>81.000000</ele>
        <time>2024-04-19T10:57:04Z</time>
      </trkpt>
      <trkpt lat="42.84902888" lon="13.64851285">
        <ele>81.000000</ele>
        <time>2024-04-19T10:57:05Z</time>
      </trkpt>
      <trkpt lat="42.84910365" lon="13.64859508">
        <ele>81.000000</ele>
        <time>2024-04-19T10:57:06Z</time>
      </trkpt>
      <trkpt lat="42.84917489" lon="13.64868460">
        <ele>82.000000</ele>
        <time>2024-04-19T10:57:07Z</time>
      </trkpt>
      <trkpt lat="42.84923859" lon="13.64878208">
        <ele>82.000000</ele>
        <time>2024-04-19T10:57:08Z</time>
      </trkpt>
      <trkpt lat="42.84929475" lon="13.64888836">
        <ele>82.000000</ele>
        <time>2024-04-19T10:57:09Z</time>
      </trkpt>
      <trkpt lat="42.84934622" lon="13.64899808">
        <ele>81.000000</ele>
        <time>2024-04-19T10:57:10Z</time>
      </trkpt>
      <trkpt lat="42.84939500" lon="13.64910897">
        <ele>81.000000</ele>
        <time>2024-04-19T10:57:11Z</time>
      </trkpt>
      <trkpt lat="42.84944152" lon="13.64922045">
        <ele>81.000000</ele>
        <time>2024-04-19T10:57:12Z</time>
      </trkpt>
      <trkpt lat="42.84948728" lon="13.64933336">
        <ele>81.000000</ele>
        <time>2024-04-19T10:57:13Z</time>
      </trkpt>
      <trkpt lat="42.84953305" lon="13.64944710">
        <ele>81.000000</ele>
        <time>2024-04-19T10:57:14Z</time>
      </trkpt>
      <trkpt lat="42.84957655" lon="13.64955992">
        <ele>81.000000</ele>
        <time>2024-04-19T10:57:15Z</time>
      </trkpt>
      <trkpt lat="42.84962005" lon="13.64967366">
        <ele>81.000000</ele>
        <time>2024-04-19T10:57:16Z</time>
      </trkpt>
      <trkpt lat="42.84966339" lon="13.64978916">
        <ele>81.000000</ele>
        <time>2024-04-19T10:57:17Z</time>
      </trkpt>
      <trkpt lat="42.84970538" lon="13.64990349">
        <ele>81.000000</ele>
        <time>2024-04-19T10:57:18Z</time>
      </trkpt>
      <trkpt lat="42.84974754" lon="13.65001774">
        <ele>80.000000</ele>
        <time>2024-04-19T10:57:19Z</time>
      </trkpt>
      <trkpt lat="42.84979021" lon="13.65013056">
        <ele>80.000000</ele>
        <time>2024-04-19T10:57:20Z</time>
      </trkpt>
      <trkpt lat="42.84983438" lon="13.65024254">
        <ele>80.000000</ele>
        <time>2024-04-19T10:57:21Z</time>
      </trkpt>
      <trkpt lat="42.84987771" lon="13.65035360">
        <ele>80.000000</ele>
        <time>2024-04-19T10:57:22Z</time>
      </trkpt>
      <trkpt lat="42.84991937" lon="13.65046508">
        <ele>80.000000</ele>
        <time>2024-04-19T10:57:23Z</time>
      </trkpt>
      <trkpt lat="42.84996195" lon="13.65057715">
        <ele>80.000000</ele>
        <time>2024-04-19T10:57:24Z</time>
      </trkpt>
      <trkpt lat="42.85000428" lon="13.65068888">
        <ele>80.000000</ele>
        <time>2024-04-19T10:57:25Z</time>
      </trkpt>
      <trkpt lat="42.85004644" lon="13.65079977">
        <ele>80.000000</ele>
        <time>2024-04-19T10:57:26Z</time>
      </trkpt>
      <trkpt lat="42.85008952" lon="13.65090890">
        <ele>81.000000</ele>
        <time>2024-04-19T10:57:27Z</time>
      </trkpt>
      <trkpt lat="42.85013118" lon="13.65101384">
        <ele>81.000000</ele>
        <time>2024-04-19T10:57:28Z</time>
      </trkpt>
      <trkpt lat="42.85021425" lon="13.65121836">
        <ele>80.000000</ele>
        <time>2024-04-19T10:57:30Z</time>
      </trkpt>
      <trkpt lat="42.85025498" lon="13.65131819">
        <ele>80.000000</ele>
        <time>2024-04-19T10:57:31Z</time>
      </trkpt>
      <trkpt lat="42.85029656" lon="13.65141374">
        <ele>79.000000</ele>
        <time>2024-04-19T10:57:32Z</time>
      </trkpt>
      <trkpt lat="42.85033998" lon="13.65150712">
        <ele>79.000000</ele>
        <time>2024-04-19T10:57:33Z</time>
      </trkpt>
      <trkpt lat="42.85038909" lon="13.65159572">
        <ele>79.000000</ele>
        <time>2024-04-19T10:57:34Z</time>
      </trkpt>
      <trkpt lat="42.85044215" lon="13.65167719">
        <ele>79.000000</ele>
        <time>2024-04-19T10:57:35Z</time>
      </trkpt>
      <trkpt lat="42.85056411" lon="13.65180719">
        <ele>80.000000</ele>
        <time>2024-04-19T10:57:37Z</time>
      </trkpt>
      <trkpt lat="42.85063393" lon="13.65185287">
        <ele>80.000000</ele>
        <time>2024-04-19T10:57:38Z</time>
      </trkpt>
      <trkpt lat="42.85070677" lon="13.65188632">
        <ele>80.000000</ele>
        <time>2024-04-19T10:57:39Z</time>
      </trkpt>
      <trkpt lat="42.85078070" lon="13.65190710">
        <ele>80.000000</ele>
        <time>2024-04-19T10:57:40Z</time>
      </trkpt>
      <trkpt lat="42.85085764" lon="13.65191590">
        <ele>81.000000</ele>
        <time>2024-04-19T10:57:41Z</time>
      </trkpt>
      <trkpt lat="42.85100969" lon="13.65192730">
        <ele>81.000000</ele>
        <time>2024-04-19T10:57:43Z</time>
      </trkpt>
      <trkpt lat="42.85108387" lon="13.65192722">
        <ele>81.000000</ele>
        <time>2024-04-19T10:57:44Z</time>
      </trkpt>
      <trkpt lat="42.85115662" lon="13.65191632">
        <ele>81.000000</ele>
        <time>2024-04-19T10:57:45Z</time>
      </trkpt>
      <trkpt lat="42.85123022" lon="13.65189386">
        <ele>81.000000</ele>
        <time>2024-04-19T10:57:46Z</time>
      </trkpt>
      <trkpt lat="42.85130130" lon="13.65186813">
        <ele>81.000000</ele>
        <time>2024-04-19T10:57:47Z</time>
      </trkpt>
      <trkpt lat="42.85137120" lon="13.65184240">
        <ele>81.000000</ele>
        <time>2024-04-19T10:57:48Z</time>
      </trkpt>
      <trkpt lat="42.85144362" lon="13.65181708">
        <ele>80.000000</ele>
        <time>2024-04-19T10:57:49Z</time>
      </trkpt>
      <trkpt lat="42.85151512" lon="13.65179403">
        <ele>80.000000</ele>
        <time>2024-04-19T10:57:50Z</time>
      </trkpt>
      <trkpt lat="42.85158636" lon="13.65177123">
        <ele>80.000000</ele>
        <time>2024-04-19T10:57:51Z</time>
      </trkpt>
      <trkpt lat="42.85165661" lon="13.65174885">
        <ele>80.000000</ele>
        <time>2024-04-19T10:57:52Z</time>
      </trkpt>
      <trkpt lat="42.85172827" lon="13.65172681">
        <ele>79.000000</ele>
        <time>2024-04-19T10:57:53Z</time>
      </trkpt>
      <trkpt lat="42.85180077" lon="13.65170401">
        <ele>79.000000</ele>
        <time>2024-04-19T10:57:54Z</time>
      </trkpt>
      <trkpt lat="42.85187403" lon="13.65168096">
        <ele>79.000000</ele>
        <time>2024-04-19T10:57:55Z</time>
      </trkpt>
      <trkpt lat="42.85194771" lon="13.65165850">
        <ele>78.000000</ele>
        <time>2024-04-19T10:57:56Z</time>
      </trkpt>
      <trkpt lat="42.85201921" lon="13.65163645">
        <ele>78.000000</ele>
        <time>2024-04-19T10:57:57Z</time>
      </trkpt>
      <trkpt lat="42.85216522" lon="13.65158742">
        <ele>78.000000</ele>
        <time>2024-04-19T10:57:59Z</time>
      </trkpt>
      <trkpt lat="42.85224074" lon="13.65156252">
        <ele>78.000000</ele>
        <time>2024-04-19T10:58:00Z</time>
      </trkpt>
      <trkpt lat="42.85231643" lon="13.65154174">
        <ele>78.000000</ele>
        <time>2024-04-19T10:58:01Z</time>
      </trkpt>
      <trkpt lat="42.85239178" lon="13.65152020">
        <ele>78.000000</ele>
        <time>2024-04-19T10:58:02Z</time>
      </trkpt>
      <trkpt lat="42.85246646" lon="13.65149631">
        <ele>78.000000</ele>
        <time>2024-04-19T10:58:03Z</time>
      </trkpt>
      <trkpt lat="42.85255691" lon="13.65146898">
        <ele>79.000000</ele>
        <time>2024-04-19T10:58:04Z</time>
      </trkpt>
      <trkpt lat="42.85263335" lon="13.65144459">
        <ele>79.000000</ele>
        <time>2024-04-19T10:58:05Z</time>
      </trkpt>
      <trkpt lat="42.85271021" lon="13.65142104">
        <ele>79.000000</ele>
        <time>2024-04-19T10:58:06Z</time>
      </trkpt>
      <trkpt lat="42.85277224" lon="13.65140109">
        <ele>79.000000</ele>
        <time>2024-04-19T10:58:07Z</time>
      </trkpt>
      <trkpt lat="42.85284935" lon="13.65137695">
        <ele>80.000000</ele>
        <time>2024-04-19T10:58:08Z</time>
      </trkpt>
      <trkpt lat="42.85302160" lon="13.65132582">
        <ele>82.000000</ele>
        <time>2024-04-19T10:58:10Z</time>
      </trkpt>
      <trkpt lat="42.85308673" lon="13.65131190">
        <ele>83.000000</ele>
        <time>2024-04-19T10:58:11Z</time>
      </trkpt>
      <trkpt lat="42.85316744" lon="13.65130922">
        <ele>83.000000</ele>
        <time>2024-04-19T10:58:12Z</time>
      </trkpt>
      <trkpt lat="42.85324481" lon="13.65133227">
        <ele>84.000000</ele>
        <time>2024-04-19T10:58:13Z</time>
      </trkpt>
      <trkpt lat="42.85333123" lon="13.65138374">
        <ele>84.000000</ele>
        <time>2024-04-19T10:58:14Z</time>
      </trkpt>
      <trkpt lat="42.85338059" lon="13.65143889">
        <ele>83.000000</ele>
        <time>2024-04-19T10:58:15Z</time>
      </trkpt>
      <trkpt lat="42.85344220" lon="13.65153964">
        <ele>83.000000</ele>
        <time>2024-04-19T10:58:16Z</time>
      </trkpt>
      <trkpt lat="42.85346676" lon="13.65162287">
        <ele>82.000000</ele>
        <time>2024-04-19T10:58:17Z</time>
      </trkpt>
      <trkpt lat="42.85348914" lon="13.65172949">
        <ele>82.000000</ele>
        <time>2024-04-19T10:58:18Z</time>
      </trkpt>
      <trkpt lat="42.85351521" lon="13.65196603">
        <ele>84.000000</ele>
        <time>2024-04-19T10:58:20Z</time>
      </trkpt>
      <trkpt lat="42.85351999" lon="13.65205253">
        <ele>84.000000</ele>
        <time>2024-04-19T10:58:21Z</time>
      </trkpt>
      <trkpt lat="42.85352837" lon="13.65218178">
        <ele>85.000000</ele>
        <time>2024-04-19T10:58:22Z</time>
      </trkpt>
      <trkpt lat="42.85353373" lon="13.65226769">
        <ele>86.000000</ele>
        <time>2024-04-19T10:58:23Z</time>
      </trkpt>
      <trkpt lat="42.85354354" lon="13.65237222">
        <ele>86.000000</ele>
        <time>2024-04-19T10:58:24Z</time>
      </trkpt>
      <trkpt lat="42.85355226" lon="13.65247313">
        <ele>87.000000</ele>
        <time>2024-04-19T10:58:25Z</time>
      </trkpt>
      <trkpt lat="42.85356131" lon="13.65258964">
        <ele>88.000000</ele>
        <time>2024-04-19T10:58:26Z</time>
      </trkpt>
      <trkpt lat="42.85356659" lon="13.65266634">
        <ele>88.000000</ele>
        <time>2024-04-19T10:58:27Z</time>
      </trkpt>
      <trkpt lat="42.85357321" lon="13.65276223">
        <ele>89.000000</ele>
        <time>2024-04-19T10:58:28Z</time>
      </trkpt>
      <trkpt lat="42.85357749" lon="13.65285510">
        <ele>89.000000</ele>
        <time>2024-04-19T10:58:29Z</time>
      </trkpt>
      <trkpt lat="42.85358335" lon="13.65296415">
        <ele>89.000000</ele>
        <time>2024-04-19T10:58:30Z</time>
      </trkpt>
      <trkpt lat="42.85358847" lon="13.65303690">
        <ele>89.000000</ele>
        <time>2024-04-19T10:58:31Z</time>
      </trkpt>
      <trkpt lat="42.85359509" lon="13.65314167">
        <ele>89.000000</ele>
        <time>2024-04-19T10:58:32Z</time>
      </trkpt>
      <trkpt lat="42.85360246" lon="13.65328836">
        <ele>89.000000</ele>
        <time>2024-04-19T10:58:34Z</time>
      </trkpt>
      <trkpt lat="42.85361277" lon="13.65336463">
        <ele>89.000000</ele>
        <time>2024-04-19T10:58:35Z</time>
      </trkpt>
      <trkpt lat="42.85362275" lon="13.65344200">
        <ele>89.000000</ele>
        <time>2024-04-19T10:58:36Z</time>
      </trkpt>
      <trkpt lat="42.85363021" lon="13.65352104">
        <ele>89.000000</ele>
        <time>2024-04-19T10:58:37Z</time>
      </trkpt>
      <trkpt lat="42.85363331" lon="13.65359958">
        <ele>89.000000</ele>
        <time>2024-04-19T10:58:38Z</time>
      </trkpt>
      <trkpt lat="42.85363700" lon="13.65367694">
        <ele>89.000000</ele>
        <time>2024-04-19T10:58:39Z</time>
      </trkpt>
      <trkpt lat="42.85364840" lon="13.65383268">
        <ele>89.000000</ele>
        <time>2024-04-19T10:58:41Z</time>
      </trkpt>
      <trkpt lat="42.85365410" lon="13.65391046">
        <ele>89.000000</ele>
        <time>2024-04-19T10:58:42Z</time>
      </trkpt>
      <trkpt lat="42.85366089" lon="13.65398950">
        <ele>89.000000</ele>
        <time>2024-04-19T10:58:43Z</time>
      </trkpt>
      <trkpt lat="42.85366625" lon="13.65406662">
        <ele>89.000000</ele>
        <time>2024-04-19T10:58:44Z</time>
      </trkpt>
      <trkpt lat="42.85367187" lon="13.65414063">
        <ele>90.000000</ele>
        <time>2024-04-19T10:58:45Z</time>
      </trkpt>
      <trkpt lat="42.85367849" lon="13.65421908">
        <ele>90.000000</ele>
        <time>2024-04-19T10:58:46Z</time>
      </trkpt>
      <trkpt lat="42.85370338" lon="13.65436912">
        <ele>91.000000</ele>
        <time>2024-04-19T10:58:48Z</time>
      </trkpt>
      <trkpt lat="42.85371830" lon="13.65444120">
        <ele>92.000000</ele>
        <time>2024-04-19T10:58:49Z</time>
      </trkpt>
      <trkpt lat="42.85373113" lon="13.65451723">
        <ele>93.000000</ele>
        <time>2024-04-19T10:58:50Z</time>
      </trkpt>
      <trkpt lat="42.85373942" lon="13.65459862">
        <ele>93.000000</ele>
        <time>2024-04-19T10:58:51Z</time>
      </trkpt>
      <trkpt lat="42.85374462" lon="13.65468336">
        <ele>94.000000</ele>
        <time>2024-04-19T10:58:52Z</time>
      </trkpt>
      <trkpt lat="42.85374764" lon="13.65476986">
        <ele>94.000000</ele>
        <time>2024-04-19T10:58:53Z</time>
      </trkpt>
      <trkpt lat="42.85373431" lon="13.65494797">
        <ele>94.000000</ele>
        <time>2024-04-19T10:58:55Z</time>
      </trkpt>
      <trkpt lat="42.85372308" lon="13.65505652">
        <ele>93.000000</ele>
        <time>2024-04-19T10:58:56Z</time>
      </trkpt>
      <trkpt lat="42.85371654" lon="13.65513380">
        <ele>93.000000</ele>
        <time>2024-04-19T10:58:57Z</time>
      </trkpt>
      <trkpt lat="42.85370749" lon="13.65525165">
        <ele>92.000000</ele>
        <time>2024-04-19T10:58:58Z</time>
      </trkpt>
      <trkpt lat="42.85370246" lon="13.65533220">
        <ele>91.000000</ele>
        <time>2024-04-19T10:58:59Z</time>
      </trkpt>
      <trkpt lat="42.85369726" lon="13.65543362">
        <ele>90.000000</ele>
        <time>2024-04-19T10:59:00Z</time>
      </trkpt>
      <trkpt lat="42.85366801" lon="13.65565977">
        <ele>88.000000</ele>
        <time>2024-04-19T10:59:02Z</time>
      </trkpt>
      <trkpt lat="42.85364764" lon="13.65574124">
        <ele>87.000000</ele>
        <time>2024-04-19T10:59:03Z</time>
      </trkpt>
      <trkpt lat="42.85361889" lon="13.65584274">
        <ele>86.000000</ele>
        <time>2024-04-19T10:59:04Z</time>
      </trkpt>
      <trkpt lat="42.85358645" lon="13.65594299">
        <ele>86.000000</ele>
        <time>2024-04-19T10:59:05Z</time>
      </trkpt>
      <trkpt lat="42.85351345" lon="13.65614080">
        <ele>86.000000</ele>
        <time>2024-04-19T10:59:07Z</time>
      </trkpt>
      <trkpt lat="42.85347925" lon="13.65624273">
        <ele>86.000000</ele>
        <time>2024-04-19T10:59:08Z</time>
      </trkpt>
      <trkpt lat="42.85344539" lon="13.65636988">
        <ele>87.000000</ele>
        <time>2024-04-19T10:59:09Z</time>
      </trkpt>
      <trkpt lat="42.85342988" lon="13.65645940">
        <ele>87.000000</ele>
        <time>2024-04-19T10:59:10Z</time>
      </trkpt>
      <trkpt lat="42.85341965" lon="13.65657255">
        <ele>88.000000</ele>
        <time>2024-04-19T10:59:11Z</time>
      </trkpt>
      <trkpt lat="42.85341630" lon="13.65668931">
        <ele>89.000000</ele>
        <time>2024-04-19T10:59:12Z</time>
      </trkpt>
      <trkpt lat="42.85341999" lon="13.65680909">
        <ele>89.000000</ele>
        <time>2024-04-19T10:59:13Z</time>
      </trkpt>
      <trkpt lat="42.85342703" lon="13.65693021">
        <ele>90.000000</ele>
        <time>2024-04-19T10:59:14Z</time>
      </trkpt>
      <trkpt lat="42.85343273" lon="13.65705158">
        <ele>91.000000</ele>
        <time>2024-04-19T10:59:15Z</time>
      </trkpt>
      <trkpt lat="42.85343801" lon="13.65717203">
        <ele>92.000000</ele>
        <time>2024-04-19T10:59:16Z</time>
      </trkpt>
      <trkpt lat="42.85345318" lon="13.65741862">
        <ele>92.000000</ele>
        <time>2024-04-19T10:59:18Z</time>
      </trkpt>
      <trkpt lat="42.85345871" lon="13.65754284">
        <ele>92.000000</ele>
        <time>2024-04-19T10:59:19Z</time>
      </trkpt>
      <trkpt lat="42.85346425" lon="13.65769179">
        <ele>92.000000</ele>
        <time>2024-04-19T10:59:20Z</time>
      </trkpt>
      <trkpt lat="42.85347087" lon="13.65779405">
        <ele>92.000000</ele>
        <time>2024-04-19T10:59:21Z</time>
      </trkpt>
      <trkpt lat="42.85347942" lon="13.65792045">
        <ele>93.000000</ele>
        <time>2024-04-19T10:59:22Z</time>
      </trkpt>
      <trkpt lat="42.85348428" lon="13.65804836">
        <ele>93.000000</ele>
        <time>2024-04-19T10:59:23Z</time>
      </trkpt>
      <trkpt lat="42.85348797" lon="13.65817585">
        <ele>92.000000</ele>
        <time>2024-04-19T10:59:24Z</time>
      </trkpt>
      <trkpt lat="42.85349576" lon="13.65830141">
        <ele>92.000000</ele>
        <time>2024-04-19T10:59:25Z</time>
      </trkpt>
      <trkpt lat="42.85350859" lon="13.65842789">
        <ele>92.000000</ele>
        <time>2024-04-19T10:59:26Z</time>
      </trkpt>
      <trkpt lat="42.85352359" lon="13.65855546">
        <ele>92.000000</ele>
        <time>2024-04-19T10:59:27Z</time>
      </trkpt>
      <trkpt lat="42.85354530" lon="13.65868111">
        <ele>92.000000</ele>
        <time>2024-04-19T10:59:28Z</time>
      </trkpt>
      <trkpt lat="42.85357455" lon="13.65880491">
        <ele>92.000000</ele>
        <time>2024-04-19T10:59:29Z</time>
      </trkpt>
      <trkpt lat="42.85361537" lon="13.65895151">
        <ele>92.000000</ele>
        <time>2024-04-19T10:59:30Z</time>
      </trkpt>
      <trkpt lat="42.85369374" lon="13.65915938">
        <ele>92.000000</ele>
        <time>2024-04-19T10:59:32Z</time>
      </trkpt>
      <trkpt lat="42.85380153" lon="13.65941159">
        <ele>91.000000</ele>
        <time>2024-04-19T10:59:34Z</time>
      </trkpt>
      <trkpt lat="42.85384948" lon="13.65953044">
        <ele>90.000000</ele>
        <time>2024-04-19T10:59:35Z</time>
      </trkpt>
      <trkpt lat="42.85388368" lon="13.65962809">
        <ele>90.000000</ele>
        <time>2024-04-19T10:59:36Z</time>
      </trkpt>
      <trkpt lat="42.85392383" lon="13.65975206">
        <ele>89.000000</ele>
        <time>2024-04-19T10:59:37Z</time>
      </trkpt>
      <trkpt lat="42.85398904" lon="13.66000997">
        <ele>88.000000</ele>
        <time>2024-04-19T10:59:39Z</time>
      </trkpt>
      <trkpt lat="42.85401519" lon="13.66014408">
        <ele>88.000000</ele>
        <time>2024-04-19T10:59:40Z</time>
      </trkpt>
      <trkpt lat="42.85403849" lon="13.66028046">
        <ele>88.000000</ele>
        <time>2024-04-19T10:59:41Z</time>
      </trkpt>
      <trkpt lat="42.85405701" lon="13.66041800">
        <ele>89.000000</ele>
        <time>2024-04-19T10:59:42Z</time>
      </trkpt>
      <trkpt lat="42.85407420" lon="13.66055304">
        <ele>89.000000</ele>
        <time>2024-04-19T10:59:43Z</time>
      </trkpt>
      <trkpt lat="42.85408920" lon="13.66068589">
        <ele>89.000000</ele>
        <time>2024-04-19T10:59:44Z</time>
      </trkpt>
      <trkpt lat="42.85410538" lon="13.66081648">
        <ele>89.000000</ele>
        <time>2024-04-19T10:59:45Z</time>
      </trkpt>
      <trkpt lat="42.85412357" lon="13.66094732">
        <ele>88.000000</ele>
        <time>2024-04-19T10:59:46Z</time>
      </trkpt>
      <trkpt lat="42.85414234" lon="13.66107900">
        <ele>87.000000</ele>
        <time>2024-04-19T10:59:47Z</time>
      </trkpt>
      <trkpt lat="42.85416422" lon="13.66121085">
        <ele>87.000000</ele>
        <time>2024-04-19T10:59:48Z</time>
      </trkpt>
      <trkpt lat="42.85420009" lon="13.66136642">
        <ele>87.000000</ele>
        <time>2024-04-19T10:59:49Z</time>
      </trkpt>
      <trkpt lat="42.85423991" lon="13.66149391">
        <ele>86.000000</ele>
        <time>2024-04-19T10:59:50Z</time>
      </trkpt>
      <trkpt lat="42.85428291" lon="13.66161921">
        <ele>86.000000</ele>
        <time>2024-04-19T10:59:51Z</time>
      </trkpt>
      <trkpt lat="42.85431593" lon="13.66171896">
        <ele>85.000000</ele>
        <time>2024-04-19T10:59:52Z</time>
      </trkpt>
      <trkpt lat="42.85435918" lon="13.66184142">
        <ele>84.000000</ele>
        <time>2024-04-19T10:59:53Z</time>
      </trkpt>
      <trkpt lat="42.85440335" lon="13.66196338">
        <ele>84.000000</ele>
        <time>2024-04-19T10:59:54Z</time>
      </trkpt>
      <trkpt lat="42.85445809" lon="13.66210771">
        <ele>84.000000</ele>
        <time>2024-04-19T10:59:55Z</time>
      </trkpt>
      <trkpt lat="42.85450469" lon="13.66222900">
        <ele>84.000000</ele>
        <time>2024-04-19T10:59:56Z</time>
      </trkpt>
      <trkpt lat="42.85459027" lon="13.66244592">
        <ele>84.000000</ele>
        <time>2024-04-19T10:59:58Z</time>
      </trkpt>
      <trkpt lat="42.85464769" lon="13.66258674">
        <ele>84.000000</ele>
        <time>2024-04-19T10:59:59Z</time>
      </trkpt>
      <trkpt lat="42.85468884" lon="13.66267953">
        <ele>84.000000</ele>
        <time>2024-04-19T11:00:00Z</time>
      </trkpt>
      <trkpt lat="42.85475338" lon="13.66281330">
        <ele>84.000000</ele>
        <time>2024-04-19T11:00:01Z</time>
      </trkpt>
      <trkpt lat="42.85480032" lon="13.66289796">
        <ele>84.000000</ele>
        <time>2024-04-19T11:00:02Z</time>
      </trkpt>
      <trkpt lat="42.85487509" lon="13.66302302">
        <ele>85.000000</ele>
        <time>2024-04-19T11:00:03Z</time>
      </trkpt>
      <trkpt lat="42.85492488" lon="13.66310583">
        <ele>85.000000</ele>
        <time>2024-04-19T11:00:04Z</time>
      </trkpt>
      <trkpt lat="42.85498422" lon="13.66321412">
        <ele>86.000000</ele>
        <time>2024-04-19T11:00:05Z</time>
      </trkpt>
      <trkpt lat="42.85503778" lon="13.66332711">
        <ele>86.000000</ele>
        <time>2024-04-19T11:00:06Z</time>
      </trkpt>
      <trkpt lat="42.85508044" lon="13.66344982">
        <ele>85.000000</ele>
        <time>2024-04-19T11:00:07Z</time>
      </trkpt>
      <trkpt lat="42.85510794" lon="13.66357907">
        <ele>85.000000</ele>
        <time>2024-04-19T11:00:08Z</time>
      </trkpt>
      <trkpt lat="42.85512126" lon="13.66370933">
        <ele>85.000000</ele>
        <time>2024-04-19T11:00:09Z</time>
      </trkpt>
      <trkpt lat="42.85512856" lon="13.66384008">
        <ele>85.000000</ele>
        <time>2024-04-19T11:00:10Z</time>
      </trkpt>
      <trkpt lat="42.85513191" lon="13.66397059">
        <ele>85.000000</ele>
        <time>2024-04-19T11:00:11Z</time>
      </trkpt>
      <trkpt lat="42.85513350" lon="13.66410118">
        <ele>85.000000</ele>
        <time>2024-04-19T11:00:12Z</time>
      </trkpt>
      <trkpt lat="42.85513660" lon="13.66423345">
        <ele>86.000000</ele>
        <time>2024-04-19T11:00:13Z</time>
      </trkpt>
      <trkpt lat="42.85513987" lon="13.66436580">
        <ele>86.000000</ele>
        <time>2024-04-19T11:00:14Z</time>
      </trkpt>
      <trkpt lat="42.85514339" lon="13.66452338">
        <ele>86.000000</ele>
        <time>2024-04-19T11:00:15Z</time>
      </trkpt>
      <trkpt lat="42.85514507" lon="13.66462547">
        <ele>86.000000</ele>
        <time>2024-04-19T11:00:16Z</time>
      </trkpt>
      <trkpt lat="42.85514691" lon="13.66478095">
        <ele>86.000000</ele>
        <time>2024-04-19T11:00:17Z</time>
      </trkpt>
      <trkpt lat="42.85514708" lon="13.66488531">
        <ele>86.000000</ele>
        <time>2024-04-19T11:00:18Z</time>
      </trkpt>
      <trkpt lat="42.85514792" lon="13.66501464">
        <ele>86.000000</ele>
        <time>2024-04-19T11:00:19Z</time>
      </trkpt>
      <trkpt lat="42.85514934" lon="13.66514272">
        <ele>86.000000</ele>
        <time>2024-04-19T11:00:20Z</time>
      </trkpt>
      <trkpt lat="42.85514825" lon="13.66527515">
        <ele>86.000000</ele>
        <time>2024-04-19T11:00:21Z</time>
      </trkpt>
      <trkpt lat="42.85515236" lon="13.66543441">
        <ele>86.000000</ele>
        <time>2024-04-19T11:00:22Z</time>
      </trkpt>
      <trkpt lat="42.85515789" lon="13.66554228">
        <ele>86.000000</ele>
        <time>2024-04-19T11:00:23Z</time>
      </trkpt>
      <trkpt lat="42.85517265" lon="13.66567413">
        <ele>86.000000</ele>
        <time>2024-04-19T11:00:24Z</time>
      </trkpt>
      <trkpt lat="42.85519788" lon="13.66580053">
        <ele>86.000000</ele>
        <time>2024-04-19T11:00:25Z</time>
      </trkpt>
      <trkpt lat="42.85523400" lon="13.66592081">
        <ele>85.000000</ele>
        <time>2024-04-19T11:00:26Z</time>
      </trkpt>
      <trkpt lat="42.85527658" lon="13.66603706">
        <ele>85.000000</ele>
        <time>2024-04-19T11:00:27Z</time>
      </trkpt>
      <trkpt lat="42.85532017" lon="13.66615005">
        <ele>85.000000</ele>
        <time>2024-04-19T11:00:28Z</time>
      </trkpt>
      <trkpt lat="42.85535973" lon="13.66626405">
        <ele>85.000000</ele>
        <time>2024-04-19T11:00:29Z</time>
      </trkpt>
      <trkpt lat="42.85543609" lon="13.66652112">
        <ele>85.000000</ele>
        <time>2024-04-19T11:00:31Z</time>
      </trkpt>
      <trkpt lat="42.85546484" lon="13.66661433">
        <ele>85.000000</ele>
        <time>2024-04-19T11:00:32Z</time>
      </trkpt>
      <trkpt lat="42.85549979" lon="13.66673218">
        <ele>85.000000</ele>
        <time>2024-04-19T11:00:33Z</time>
      </trkpt>
      <trkpt lat="42.85553164" lon="13.66685304">
        <ele>85.000000</ele>
        <time>2024-04-19T11:00:34Z</time>
      </trkpt>
      <trkpt lat="42.85555880" lon="13.66697827">
        <ele>85.000000</ele>
        <time>2024-04-19T11:00:35Z</time>
      </trkpt>
      <trkpt lat="42.85558193" lon="13.66710576">
        <ele>85.000000</ele>
        <time>2024-04-19T11:00:36Z</time>
      </trkpt>
      <trkpt lat="42.85560188" lon="13.66723316">
        <ele>84.000000</ele>
        <time>2024-04-19T11:00:37Z</time>
      </trkpt>
      <trkpt lat="42.85562074" lon="13.66735998">
        <ele>83.000000</ele>
        <time>2024-04-19T11:00:38Z</time>
      </trkpt>
      <trkpt lat="42.85563608" lon="13.66748604">
        <ele>82.000000</ele>
        <time>2024-04-19T11:00:39Z</time>
      </trkpt>
      <trkpt lat="42.85565293" lon="13.66761320">
        <ele>83.000000</ele>
        <time>2024-04-19T11:00:40Z</time>
      </trkpt>
      <trkpt lat="42.85567749" lon="13.66774094">
        <ele>83.000000</ele>
        <time>2024-04-19T11:00:41Z</time>
      </trkpt>
      <trkpt lat="42.85571051" lon="13.66786667">
        <ele>83.000000</ele>
        <time>2024-04-19T11:00:42Z</time>
      </trkpt>
      <trkpt lat="42.85574739" lon="13.66799315">
        <ele>84.000000</ele>
        <time>2024-04-19T11:00:43Z</time>
      </trkpt>
      <trkpt lat="42.85578578" lon="13.66812382">
        <ele>84.000000</ele>
        <time>2024-04-19T11:00:44Z</time>
      </trkpt>
      <trkpt lat="42.85582099" lon="13.66825936">
        <ele>84.000000</ele>
        <time>2024-04-19T11:00:45Z</time>
      </trkpt>
      <trkpt lat="42.85584689" lon="13.66840235">
        <ele>83.000000</ele>
        <time>2024-04-19T11:00:46Z</time>
      </trkpt>
      <trkpt lat="42.85586206" lon="13.66855256">
        <ele>83.000000</ele>
        <time>2024-04-19T11:00:47Z</time>
      </trkpt>
      <trkpt lat="42.85586457" lon="13.66870167">
        <ele>83.000000</ele>
        <time>2024-04-19T11:00:48Z</time>
      </trkpt>
      <trkpt lat="42.85585518" lon="13.66887710">
        <ele>83.000000</ele>
        <time>2024-04-19T11:00:49Z</time>
      </trkpt>
      <trkpt lat="42.85583968" lon="13.66899093">
        <ele>82.000000</ele>
        <time>2024-04-19T11:00:50Z</time>
      </trkpt>
      <trkpt lat="42.85581688" lon="13.66913015">
        <ele>81.000000</ele>
        <time>2024-04-19T11:00:51Z</time>
      </trkpt>
      <trkpt lat="42.85579081" lon="13.66926753">
        <ele>81.000000</ele>
        <time>2024-04-19T11:00:52Z</time>
      </trkpt>
      <trkpt lat="42.85576047" lon="13.66943408">
        <ele>80.000000</ele>
        <time>2024-04-19T11:00:53Z</time>
      </trkpt>
      <trkpt lat="42.85574739" lon="13.66954531">
        <ele>80.000000</ele>
        <time>2024-04-19T11:00:54Z</time>
      </trkpt>
      <trkpt lat="42.85573356" lon="13.66968696">
        <ele>79.000000</ele>
        <time>2024-04-19T11:00:55Z</time>
      </trkpt>
      <trkpt lat="42.85572309" lon="13.66982971">
        <ele>79.000000</ele>
        <time>2024-04-19T11:00:56Z</time>
      </trkpt>
      <trkpt lat="42.85571529" lon="13.66999927">
        <ele>79.000000</ele>
        <time>2024-04-19T11:00:57Z</time>
      </trkpt>
      <trkpt lat="42.85571646" lon="13.67011134">
        <ele>79.000000</ele>
        <time>2024-04-19T11:00:58Z</time>
      </trkpt>
      <trkpt lat="42.85572015" lon="13.67028149">
        <ele>79.000000</ele>
        <time>2024-04-19T11:00:59Z</time>
      </trkpt>
      <trkpt lat="42.85572133" lon="13.67039398">
        <ele>80.000000</ele>
        <time>2024-04-19T11:01:00Z</time>
      </trkpt>
      <trkpt lat="42.85572258" lon="13.67053287">
        <ele>80.000000</ele>
        <time>2024-04-19T11:01:01Z</time>
      </trkpt>
      <trkpt lat="42.85571940" lon="13.67070042">
        <ele>81.000000</ele>
        <time>2024-04-19T11:01:02Z</time>
      </trkpt>
      <trkpt lat="42.85571579" lon="13.67081073">
        <ele>81.000000</ele>
        <time>2024-04-19T11:01:03Z</time>
      </trkpt>
      <trkpt lat="42.85571353" lon="13.67094869">
        <ele>80.000000</ele>
        <time>2024-04-19T11:01:04Z</time>
      </trkpt>
      <trkpt lat="42.85571018" lon="13.67108574">
        <ele>80.000000</ele>
        <time>2024-04-19T11:01:05Z</time>
      </trkpt>
      <trkpt lat="42.85570431" lon="13.67122379">
        <ele>79.000000</ele>
        <time>2024-04-19T11:01:06Z</time>
      </trkpt>
      <trkpt lat="42.85567732" lon="13.67151414">
        <ele>78.000000</ele>
        <time>2024-04-19T11:01:08Z</time>
      </trkpt>
      <trkpt lat="42.85566173" lon="13.67161908">
        <ele>78.000000</ele>
        <time>2024-04-19T11:01:09Z</time>
      </trkpt>
      <trkpt lat="42.85563935" lon="13.67174942">
        <ele>77.000000</ele>
        <time>2024-04-19T11:01:10Z</time>
      </trkpt>
      <trkpt lat="42.85561270" lon="13.67188001">
        <ele>77.000000</ele>
        <time>2024-04-19T11:01:11Z</time>
      </trkpt>
      <trkpt lat="42.85558512" lon="13.67200716">
        <ele>77.000000</ele>
        <time>2024-04-19T11:01:12Z</time>
      </trkpt>
      <trkpt lat="42.85555419" lon="13.67213222">
        <ele>78.000000</ele>
        <time>2024-04-19T11:01:13Z</time>
      </trkpt>
      <trkpt lat="42.85551689" lon="13.67225602">
        <ele>78.000000</ele>
        <time>2024-04-19T11:01:14Z</time>
      </trkpt>
      <trkpt lat="42.85547196" lon="13.67237370">
        <ele>78.000000</ele>
        <time>2024-04-19T11:01:15Z</time>
      </trkpt>
      <trkpt lat="42.85541757" lon="13.67248417">
        <ele>78.000000</ele>
        <time>2024-04-19T11:01:16Z</time>
      </trkpt>
      <trkpt lat="42.85535763" lon="13.67258610">
        <ele>78.000000</ele>
        <time>2024-04-19T11:01:17Z</time>
      </trkpt>
      <trkpt lat="42.85529209" lon="13.67268241">
        <ele>78.000000</ele>
        <time>2024-04-19T11:01:18Z</time>
      </trkpt>
      <trkpt lat="42.85522193" lon="13.67277000">
        <ele>78.000000</ele>
        <time>2024-04-19T11:01:19Z</time>
      </trkpt>
      <trkpt lat="42.85515060" lon="13.67285239">
        <ele>77.000000</ele>
        <time>2024-04-19T11:01:20Z</time>
      </trkpt>
      <trkpt lat="42.85507936" lon="13.67293168">
        <ele>77.000000</ele>
        <time>2024-04-19T11:01:21Z</time>
      </trkpt>
      <trkpt lat="42.85500920" lon="13.67300737">
        <ele>76.000000</ele>
        <time>2024-04-19T11:01:22Z</time>
      </trkpt>
      <trkpt lat="42.85486553" lon="13.67317073">
        <ele>76.000000</ele>
        <time>2024-04-19T11:01:24Z</time>
      </trkpt>
      <trkpt lat="42.85480719" lon="13.67324424">
        <ele>76.000000</ele>
        <time>2024-04-19T11:01:25Z</time>
      </trkpt>
      <trkpt lat="42.85476478" lon="13.67330191">
        <ele>76.000000</ele>
        <time>2024-04-19T11:01:26Z</time>
      </trkpt>
      <trkpt lat="42.85471474" lon="13.67337576">
        <ele>77.000000</ele>
        <time>2024-04-19T11:01:27Z</time>
      </trkpt>
      <trkpt lat="42.85466889" lon="13.67345253">
        <ele>77.000000</ele>
        <time>2024-04-19T11:01:28Z</time>
      </trkpt>
      <trkpt lat="42.85461525" lon="13.67354691">
        <ele>77.000000</ele>
        <time>2024-04-19T11:01:29Z</time>
      </trkpt>
      <trkpt lat="42.85458189" lon="13.67360919">
        <ele>77.000000</ele>
        <time>2024-04-19T11:01:30Z</time>
      </trkpt>
      <trkpt lat="42.85454065" lon="13.67368781">
        <ele>77.000000</ele>
        <time>2024-04-19T11:01:31Z</time>
      </trkpt>
      <trkpt lat="42.85449983" lon="13.67376551">
        <ele>78.000000</ele>
        <time>2024-04-19T11:01:32Z</time>
      </trkpt>
      <trkpt lat="42.85445968" lon="13.67384221">
        <ele>79.000000</ele>
        <time>2024-04-19T11:01:33Z</time>
      </trkpt>
      <trkpt lat="42.85442121" lon="13.67391714">
        <ele>80.000000</ele>
        <time>2024-04-19T11:01:34Z</time>
      </trkpt>
      <trkpt lat="42.85438441" lon="13.67399199">
        <ele>80.000000</ele>
        <time>2024-04-19T11:01:35Z</time>
      </trkpt>
      <trkpt lat="42.85434762" lon="13.67406777">
        <ele>81.000000</ele>
        <time>2024-04-19T11:01:36Z</time>
      </trkpt>
      <trkpt lat="42.85431174" lon="13.67414362">
        <ele>81.000000</ele>
        <time>2024-04-19T11:01:37Z</time>
      </trkpt>
      <trkpt lat="42.85427838" lon="13.67421864">
        <ele>82.000000</ele>
        <time>2024-04-19T11:01:38Z</time>
      </trkpt>
      <trkpt lat="42.85423982" lon="13.67431042">
        <ele>82.000000</ele>
        <time>2024-04-19T11:01:39Z</time>
      </trkpt>
      <trkpt lat="42.85421862" lon="13.67437069">
        <ele>82.000000</ele>
        <time>2024-04-19T11:01:40Z</time>
      </trkpt>
      <trkpt lat="42.85419439" lon="13.67444965">
        <ele>82.000000</ele>
        <time>2024-04-19T11:01:41Z</time>
      </trkpt>
      <trkpt lat="42.85417428" lon="13.67453187">
        <ele>82.000000</ele>
        <time>2024-04-19T11:01:42Z</time>
      </trkpt>
      <trkpt lat="42.85415936" lon="13.67461661">
        <ele>82.000000</ele>
        <time>2024-04-19T11:01:43Z</time>
      </trkpt>
      <trkpt lat="42.85414452" lon="13.67479104">
        <ele>83.000000</ele>
        <time>2024-04-19T11:01:45Z</time>
      </trkpt>
      <trkpt lat="42.85414377" lon="13.67488123">
        <ele>83.000000</ele>
        <time>2024-04-19T11:01:46Z</time>
      </trkpt>
      <trkpt lat="42.85414519" lon="13.67497368">
        <ele>84.000000</ele>
        <time>2024-04-19T11:01:47Z</time>
      </trkpt>
      <trkpt lat="42.85414796" lon="13.67507058">
        <ele>85.000000</ele>
        <time>2024-04-19T11:01:48Z</time>
      </trkpt>
      <trkpt lat="42.85415123" lon="13.67516973">
        <ele>86.000000</ele>
        <time>2024-04-19T11:01:49Z</time>
      </trkpt>
      <trkpt lat="42.85415508" lon="13.67527015">
        <ele>86.000000</ele>
        <time>2024-04-19T11:01:50Z</time>
      </trkpt>
      <trkpt lat="42.85416263" lon="13.67547350">
        <ele>86.000000</ele>
        <time>2024-04-19T11:01:52Z</time>
      </trkpt>
      <trkpt lat="42.85416707" lon="13.67557332">
        <ele>86.000000</ele>
        <time>2024-04-19T11:01:53Z</time>
      </trkpt>
      <trkpt lat="42.85417671" lon="13.67578572">
        <ele>85.000000</ele>
        <time>2024-04-19T11:01:55Z</time>
      </trkpt>
      <trkpt lat="42.85418266" lon="13.67589385">
        <ele>84.000000</ele>
        <time>2024-04-19T11:01:56Z</time>
      </trkpt>
      <trkpt lat="42.85419171" lon="13.67602134">
        <ele>84.000000</ele>
        <time>2024-04-19T11:01:57Z</time>
      </trkpt>
      <trkpt lat="42.85419750" lon="13.67610868">
        <ele>84.000000</ele>
        <time>2024-04-19T11:01:58Z</time>
      </trkpt>
      <trkpt lat="42.85420470" lon="13.67622024">
        <ele>83.000000</ele>
        <time>2024-04-19T11:01:59Z</time>
      </trkpt>
      <trkpt lat="42.85421225" lon="13.67633038">
        <ele>83.000000</ele>
        <time>2024-04-19T11:02:00Z</time>
      </trkpt>
      <trkpt lat="42.85421987" lon="13.67644295">
        <ele>83.000000</ele>
        <time>2024-04-19T11:02:01Z</time>
      </trkpt>
      <trkpt lat="42.85422910" lon="13.67655526">
        <ele>82.000000</ele>
        <time>2024-04-19T11:02:02Z</time>
      </trkpt>
      <trkpt lat="42.85423773" lon="13.67666884">
        <ele>82.000000</ele>
        <time>2024-04-19T11:02:03Z</time>
      </trkpt>
      <trkpt lat="42.85424720" lon="13.67678191">
        <ele>81.000000</ele>
        <time>2024-04-19T11:02:04Z</time>
      </trkpt>
      <trkpt lat="42.85426480" lon="13.67701350">
        <ele>79.000000</ele>
        <time>2024-04-19T11:02:06Z</time>
      </trkpt>
      <trkpt lat="42.85427520" lon="13.67712867">
        <ele>78.000000</ele>
        <time>2024-04-19T11:02:07Z</time>
      </trkpt>
      <trkpt lat="42.85428475" lon="13.67724644">
        <ele>77.000000</ele>
        <time>2024-04-19T11:02:08Z</time>
      </trkpt>
      <trkpt lat="42.85429246" lon="13.67736529">
        <ele>77.000000</ele>
        <time>2024-04-19T11:02:09Z</time>
      </trkpt>
      <trkpt lat="42.85430076" lon="13.67748557">
        <ele>77.000000</ele>
        <time>2024-04-19T11:02:10Z</time>
      </trkpt>
      <trkpt lat="42.85431182" lon="13.67760384">
        <ele>77.000000</ele>
        <time>2024-04-19T11:02:11Z</time>
      </trkpt>
      <trkpt lat="42.85432205" lon="13.67772605">
        <ele>78.000000</ele>
        <time>2024-04-19T11:02:12Z</time>
      </trkpt>
      <trkpt lat="42.85433328" lon="13.67784784">
        <ele>78.000000</ele>
        <time>2024-04-19T11:02:13Z</time>
      </trkpt>
      <trkpt lat="42.85434166" lon="13.67797323">
        <ele>79.000000</ele>
        <time>2024-04-19T11:02:14Z</time>
      </trkpt>
      <trkpt lat="42.85435105" lon="13.67809971">
        <ele>80.000000</ele>
        <time>2024-04-19T11:02:15Z</time>
      </trkpt>
      <trkpt lat="42.85435960" lon="13.67822770">
        <ele>80.000000</ele>
        <time>2024-04-19T11:02:16Z</time>
      </trkpt>
      <trkpt lat="42.85436958" lon="13.67835519">
        <ele>79.000000</ele>
        <time>2024-04-19T11:02:17Z</time>
      </trkpt>
      <trkpt lat="42.85438148" lon="13.67848159">
        <ele>79.000000</ele>
        <time>2024-04-19T11:02:18Z</time>
      </trkpt>
      <trkpt lat="42.85439271" lon="13.67860715">
        <ele>78.000000</ele>
        <time>2024-04-19T11:02:19Z</time>
      </trkpt>
      <trkpt lat="42.85440285" lon="13.67873104">
        <ele>78.000000</ele>
        <time>2024-04-19T11:02:20Z</time>
      </trkpt>
      <trkpt lat="42.85441190" lon="13.67885568">
        <ele>78.000000</ele>
        <time>2024-04-19T11:02:21Z</time>
      </trkpt>
      <trkpt lat="42.85442180" lon="13.67898073">
        <ele>77.000000</ele>
        <time>2024-04-19T11:02:22Z</time>
      </trkpt>
      <trkpt lat="42.85443378" lon="13.67910554">
        <ele>77.000000</ele>
        <time>2024-04-19T11:02:23Z</time>
      </trkpt>
      <trkpt lat="42.85444610" lon="13.67923026">
        <ele>77.000000</ele>
        <time>2024-04-19T11:02:24Z</time>
      </trkpt>
      <trkpt lat="42.85445951" lon="13.67935448">
        <ele>77.000000</ele>
        <time>2024-04-19T11:02:25Z</time>
      </trkpt>
      <trkpt lat="42.85448508" lon="13.67960544">
        <ele>77.000000</ele>
        <time>2024-04-19T11:02:27Z</time>
      </trkpt>
      <trkpt lat="42.85449639" lon="13.67972957">
        <ele>78.000000</ele>
        <time>2024-04-19T11:02:28Z</time>
      </trkpt>
      <trkpt lat="42.85450377" lon="13.67985371">
        <ele>78.000000</ele>
        <time>2024-04-19T11:02:29Z</time>
      </trkpt>
      <trkpt lat="42.85450813" lon="13.67997692">
        <ele>79.000000</ele>
        <time>2024-04-19T11:02:30Z</time>
      </trkpt>
      <trkpt lat="42.85450704" lon="13.68010307">
        <ele>78.000000</ele>
        <time>2024-04-19T11:02:31Z</time>
      </trkpt>
      <trkpt lat="42.85450343" lon="13.68022888">
        <ele>78.000000</ele>
        <time>2024-04-19T11:02:32Z</time>
      </trkpt>
      <trkpt lat="42.85449505" lon="13.68038110">
        <ele>78.000000</ele>
        <time>2024-04-19T11:02:33Z</time>
      </trkpt>
      <trkpt lat="42.85448349" lon="13.68050532">
        <ele>78.000000</ele>
        <time>2024-04-19T11:02:34Z</time>
      </trkpt>
      <trkpt lat="42.85445314" lon="13.68072107">
        <ele>78.000000</ele>
        <time>2024-04-19T11:02:36Z</time>
      </trkpt>
      <trkpt lat="42.85443143" lon="13.68086272">
        <ele>78.000000</ele>
        <time>2024-04-19T11:02:37Z</time>
      </trkpt>
      <trkpt lat="42.85441467" lon="13.68097999">
        <ele>78.000000</ele>
        <time>2024-04-19T11:02:38Z</time>
      </trkpt>
      <trkpt lat="42.85440352" lon="13.68109717">
        <ele>79.000000</ele>
        <time>2024-04-19T11:02:39Z</time>
      </trkpt>
      <trkpt lat="42.85439849" lon="13.68121501">
        <ele>79.000000</ele>
        <time>2024-04-19T11:02:40Z</time>
      </trkpt>
      <trkpt lat="42.85439824" lon="13.68131032">
        <ele>78.000000</ele>
        <time>2024-04-19T11:02:41Z</time>
      </trkpt>
      <trkpt lat="42.85441735" lon="13.68156789">
        <ele>78.000000</ele>
        <time>2024-04-19T11:02:43Z</time>
      </trkpt>
      <trkpt lat="42.85443412" lon="13.68168172">
        <ele>78.000000</ele>
        <time>2024-04-19T11:02:44Z</time>
      </trkpt>
      <trkpt lat="42.85445138" lon="13.68179613">
        <ele>79.000000</ele>
        <time>2024-04-19T11:02:45Z</time>
      </trkpt>
      <trkpt lat="42.85446664" lon="13.68188858">
        <ele>79.000000</ele>
        <time>2024-04-19T11:02:46Z</time>
      </trkpt>
      <trkpt lat="42.85448432" lon="13.68200216">
        <ele>80.000000</ele>
        <time>2024-04-19T11:02:47Z</time>
      </trkpt>
      <trkpt lat="42.85450578" lon="13.68213904">
        <ele>80.000000</ele>
        <time>2024-04-19T11:02:48Z</time>
      </trkpt>
      <trkpt lat="42.85452648" lon="13.68225152">
        <ele>81.000000</ele>
        <time>2024-04-19T11:02:49Z</time>
      </trkpt>
      <trkpt lat="42.85454585" lon="13.68236166">
        <ele>81.000000</ele>
        <time>2024-04-19T11:02:50Z</time>
      </trkpt>
      <trkpt lat="42.85457736" lon="13.68255922">
        <ele>81.000000</ele>
        <time>2024-04-19T11:02:52Z</time>
      </trkpt>
      <trkpt lat="42.85459899" lon="13.68269333">
        <ele>81.000000</ele>
        <time>2024-04-19T11:02:53Z</time>
      </trkpt>
      <trkpt lat="42.85461626" lon="13.68280665">
        <ele>81.000000</ele>
        <time>2024-04-19T11:02:54Z</time>
      </trkpt>
      <trkpt lat="42.85463587" lon="13.68291855">
        <ele>81.000000</ele>
        <time>2024-04-19T11:02:55Z</time>
      </trkpt>
      <trkpt lat="42.85465389" lon="13.68303221">
        <ele>81.000000</ele>
        <time>2024-04-19T11:02:56Z</time>
      </trkpt>
      <trkpt lat="42.85467032" lon="13.68312257">
        <ele>81.000000</ele>
        <time>2024-04-19T11:02:57Z</time>
      </trkpt>
      <trkpt lat="42.85471382" lon="13.68337545">
        <ele>81.000000</ele>
        <time>2024-04-19T11:02:59Z</time>
      </trkpt>
      <trkpt lat="42.85473251" lon="13.68348802">
        <ele>80.000000</ele>
        <time>2024-04-19T11:03:00Z</time>
      </trkpt>
      <trkpt lat="42.85475389" lon="13.68360310">
        <ele>80.000000</ele>
        <time>2024-04-19T11:03:01Z</time>
      </trkpt>
      <trkpt lat="42.85477140" lon="13.68369388">
        <ele>80.000000</ele>
        <time>2024-04-19T11:03:02Z</time>
      </trkpt>
      <trkpt lat="42.85479236" lon="13.68380921">
        <ele>80.000000</ele>
        <time>2024-04-19T11:03:03Z</time>
      </trkpt>
      <trkpt lat="42.85481658" lon="13.68394743">
        <ele>80.000000</ele>
        <time>2024-04-19T11:03:04Z</time>
      </trkpt>
      <trkpt lat="42.85483636" lon="13.68406293">
        <ele>80.000000</ele>
        <time>2024-04-19T11:03:05Z</time>
      </trkpt>
      <trkpt lat="42.85485648" lon="13.68418020">
        <ele>81.000000</ele>
        <time>2024-04-19T11:03:06Z</time>
      </trkpt>
      <trkpt lat="42.85487417" lon="13.68427382">
        <ele>81.000000</ele>
        <time>2024-04-19T11:03:07Z</time>
      </trkpt>
      <trkpt lat="42.85489487" lon="13.68439259">
        <ele>81.000000</ele>
        <time>2024-04-19T11:03:08Z</time>
      </trkpt>
      <trkpt lat="42.85491809" lon="13.68453249">
        <ele>80.000000</ele>
        <time>2024-04-19T11:03:09Z</time>
      </trkpt>
      <trkpt lat="42.85493879" lon="13.68465017">
        <ele>80.000000</ele>
        <time>2024-04-19T11:03:10Z</time>
      </trkpt>
      <trkpt lat="42.85495706" lon="13.68476777">
        <ele>79.000000</ele>
        <time>2024-04-19T11:03:11Z</time>
      </trkpt>
      <trkpt lat="42.85497517" lon="13.68488537">
        <ele>78.000000</ele>
        <time>2024-04-19T11:03:12Z</time>
      </trkpt>
      <trkpt lat="42.85499009" lon="13.68497950">
        <ele>78.000000</ele>
        <time>2024-04-19T11:03:13Z</time>
      </trkpt>
      <trkpt lat="42.85501071" lon="13.68509843">
        <ele>77.000000</ele>
        <time>2024-04-19T11:03:14Z</time>
      </trkpt>
      <trkpt lat="42.85503309" lon="13.68524235">
        <ele>77.000000</ele>
        <time>2024-04-19T11:03:15Z</time>
      </trkpt>
      <trkpt lat="42.85507357" lon="13.68548735">
        <ele>77.000000</ele>
        <time>2024-04-19T11:03:17Z</time>
      </trkpt>
      <trkpt lat="42.85509042" lon="13.68558601">
        <ele>77.000000</ele>
        <time>2024-04-19T11:03:18Z</time>
      </trkpt>
      <trkpt lat="42.85511070" lon="13.68570914">
        <ele>77.000000</ele>
        <time>2024-04-19T11:03:19Z</time>
      </trkpt>
      <trkpt lat="42.85513333" lon="13.68585574">
        <ele>77.000000</ele>
        <time>2024-04-19T11:03:20Z</time>
      </trkpt>
      <trkpt lat="42.85515488" lon="13.68597719">
        <ele>77.000000</ele>
        <time>2024-04-19T11:03:21Z</time>
      </trkpt>
      <trkpt lat="42.85517667" lon="13.68609890">
        <ele>77.000000</ele>
        <time>2024-04-19T11:03:22Z</time>
      </trkpt>
      <trkpt lat="42.85519637" lon="13.68622303">
        <ele>78.000000</ele>
        <time>2024-04-19T11:03:23Z</time>
      </trkpt>
      <trkpt lat="42.85521355" lon="13.68632244">
        <ele>78.000000</ele>
        <time>2024-04-19T11:03:24Z</time>
      </trkpt>
      <trkpt lat="42.85526250" lon="13.68659343">
        <ele>78.000000</ele>
        <time>2024-04-19T11:03:26Z</time>
      </trkpt>
      <trkpt lat="42.85528404" lon="13.68671304">
        <ele>78.000000</ele>
        <time>2024-04-19T11:03:27Z</time>
      </trkpt>
      <trkpt lat="42.85530617" lon="13.68683399">
        <ele>78.000000</ele>
        <time>2024-04-19T11:03:28Z</time>
      </trkpt>
      <trkpt lat="42.85532344" lon="13.68693281">
        <ele>77.000000</ele>
        <time>2024-04-19T11:03:29Z</time>
      </trkpt>
      <trkpt lat="42.85534540" lon="13.68705720">
        <ele>77.000000</ele>
        <time>2024-04-19T11:03:30Z</time>
      </trkpt>
      <trkpt lat="42.85536962" lon="13.68721051">
        <ele>76.000000</ele>
        <time>2024-04-19T11:03:31Z</time>
      </trkpt>
      <trkpt lat="42.85539125" lon="13.68733766">
        <ele>76.000000</ele>
        <time>2024-04-19T11:03:32Z</time>
      </trkpt>
      <trkpt lat="42.85541614" lon="13.68746372">
        <ele>76.000000</ele>
        <time>2024-04-19T11:03:33Z</time>
      </trkpt>
      <trkpt lat="42.85543894" lon="13.68756204">
        <ele>76.000000</ele>
        <time>2024-04-19T11:03:34Z</time>
      </trkpt>
      <trkpt lat="42.85546987" lon="13.68768350">
        <ele>76.000000</ele>
        <time>2024-04-19T11:03:35Z</time>
      </trkpt>
      <trkpt lat="42.85550331" lon="13.68780495">
        <ele>77.000000</ele>
        <time>2024-04-19T11:03:36Z</time>
      </trkpt>
      <trkpt lat="42.85553868" lon="13.68792456">
        <ele>77.000000</ele>
        <time>2024-04-19T11:03:37Z</time>
      </trkpt>
      <trkpt lat="42.85557280" lon="13.68804333">
        <ele>77.000000</ele>
        <time>2024-04-19T11:03:38Z</time>
      </trkpt>
      <trkpt lat="42.85560666" lon="13.68816160">
        <ele>77.000000</ele>
        <time>2024-04-19T11:03:39Z</time>
      </trkpt>
      <trkpt lat="42.85564270" lon="13.68827878">
        <ele>76.000000</ele>
        <time>2024-04-19T11:03:40Z</time>
      </trkpt>
      <trkpt lat="42.85567883" lon="13.68839604">
        <ele>75.000000</ele>
        <time>2024-04-19T11:03:41Z</time>
      </trkpt>
      <trkpt lat="42.85571504" lon="13.68851264">
        <ele>75.000000</ele>
        <time>2024-04-19T11:03:42Z</time>
      </trkpt>
      <trkpt lat="42.85575276" lon="13.68862931">
        <ele>74.000000</ele>
        <time>2024-04-19T11:03:43Z</time>
      </trkpt>
      <trkpt lat="42.85579140" lon="13.68874339">
        <ele>73.000000</ele>
        <time>2024-04-19T11:03:44Z</time>
      </trkpt>
      <trkpt lat="42.85582920" lon="13.68885847">
        <ele>73.000000</ele>
        <time>2024-04-19T11:03:45Z</time>
      </trkpt>
      <trkpt lat="42.85586650" lon="13.68897322">
        <ele>73.000000</ele>
        <time>2024-04-19T11:03:46Z</time>
      </trkpt>
      <trkpt lat="42.85590405" lon="13.68908721">
        <ele>73.000000</ele>
        <time>2024-04-19T11:03:47Z</time>
      </trkpt>
      <trkpt lat="42.85594227" lon="13.68920054">
        <ele>73.000000</ele>
        <time>2024-04-19T11:03:48Z</time>
      </trkpt>
      <trkpt lat="42.85597999" lon="13.68931554">
        <ele>73.000000</ele>
        <time>2024-04-19T11:03:49Z</time>
      </trkpt>
      <trkpt lat="42.85601628" lon="13.68943012">
        <ele>73.000000</ele>
        <time>2024-04-19T11:03:50Z</time>
      </trkpt>
      <trkpt lat="42.85608778" lon="13.68966087">
        <ele>73.000000</ele>
        <time>2024-04-19T11:03:52Z</time>
      </trkpt>
      <trkpt lat="42.85612416" lon="13.68977788">
        <ele>74.000000</ele>
        <time>2024-04-19T11:03:53Z</time>
      </trkpt>
      <trkpt lat="42.85616171" lon="13.68989506">
        <ele>74.000000</ele>
        <time>2024-04-19T11:03:54Z</time>
      </trkpt>
      <trkpt lat="42.85619683" lon="13.69001216">
        <ele>75.000000</ele>
        <time>2024-04-19T11:03:55Z</time>
      </trkpt>
      <trkpt lat="42.85623136" lon="13.69012741">
        <ele>75.000000</ele>
        <time>2024-04-19T11:03:56Z</time>
      </trkpt>
      <trkpt lat="42.85626808" lon="13.69024191">
        <ele>76.000000</ele>
        <time>2024-04-19T11:03:57Z</time>
      </trkpt>
      <trkpt lat="42.85630378" lon="13.69035523">
        <ele>76.000000</ele>
        <time>2024-04-19T11:03:58Z</time>
      </trkpt>
      <trkpt lat="42.85634066" lon="13.69047123">
        <ele>77.000000</ele>
        <time>2024-04-19T11:03:59Z</time>
      </trkpt>
      <trkpt lat="42.85637855" lon="13.69058473">
        <ele>78.000000</ele>
        <time>2024-04-19T11:04:00Z</time>
      </trkpt>
      <trkpt lat="42.85641551" lon="13.69069721">
        <ele>78.000000</ele>
        <time>2024-04-19T11:04:01Z</time>
      </trkpt>
      <trkpt lat="42.85645022" lon="13.69080995">
        <ele>78.000000</ele>
        <time>2024-04-19T11:04:02Z</time>
      </trkpt>
      <trkpt lat="42.85648492" lon="13.69092210">
        <ele>78.000000</ele>
        <time>2024-04-19T11:04:03Z</time>
      </trkpt>
      <trkpt lat="42.85652171" lon="13.69103366">
        <ele>78.000000</ele>
        <time>2024-04-19T11:04:04Z</time>
      </trkpt>
      <trkpt lat="42.85655792" lon="13.69114707">
        <ele>79.000000</ele>
        <time>2024-04-19T11:04:05Z</time>
      </trkpt>
      <trkpt lat="42.85659422" lon="13.69125955">
        <ele>79.000000</ele>
        <time>2024-04-19T11:04:06Z</time>
      </trkpt>
      <trkpt lat="42.85663068" lon="13.69136961">
        <ele>79.000000</ele>
        <time>2024-04-19T11:04:07Z</time>
      </trkpt>
      <trkpt lat="42.85666638" lon="13.69147832">
        <ele>78.000000</ele>
        <time>2024-04-19T11:04:08Z</time>
      </trkpt>
      <trkpt lat="42.85670092" lon="13.69158888">
        <ele>78.000000</ele>
        <time>2024-04-19T11:04:09Z</time>
      </trkpt>
      <trkpt lat="42.85673487" lon="13.69169809">
        <ele>78.000000</ele>
        <time>2024-04-19T11:04:10Z</time>
      </trkpt>
      <trkpt lat="42.85676973" lon="13.69180890">
        <ele>78.000000</ele>
        <time>2024-04-19T11:04:11Z</time>
      </trkpt>
      <trkpt lat="42.85680578" lon="13.69191854">
        <ele>78.000000</ele>
        <time>2024-04-19T11:04:12Z</time>
      </trkpt>
      <trkpt lat="42.85684031" lon="13.69202926">
        <ele>78.000000</ele>
        <time>2024-04-19T11:04:13Z</time>
      </trkpt>
      <trkpt lat="42.85687434" lon="13.69213999">
        <ele>78.000000</ele>
        <time>2024-04-19T11:04:14Z</time>
      </trkpt>
      <trkpt lat="42.85690736" lon="13.69225105">
        <ele>78.000000</ele>
        <time>2024-04-19T11:04:15Z</time>
      </trkpt>
      <trkpt lat="42.85694676" lon="13.69238139">
        <ele>78.000000</ele>
        <time>2024-04-19T11:04:16Z</time>
      </trkpt>
      <trkpt lat="42.85697232" lon="13.69246747">
        <ele>78.000000</ele>
        <time>2024-04-19T11:04:17Z</time>
      </trkpt>
      <trkpt lat="42.85700585" lon="13.69257593">
        <ele>78.000000</ele>
        <time>2024-04-19T11:04:18Z</time>
      </trkpt>
      <trkpt lat="42.85703762" lon="13.69268230">
        <ele>78.000000</ele>
        <time>2024-04-19T11:04:19Z</time>
      </trkpt>
      <trkpt lat="42.85706989" lon="13.69278430">
        <ele>78.000000</ele>
        <time>2024-04-19T11:04:20Z</time>
      </trkpt>
      <trkpt lat="42.85710593" lon="13.69288950">
        <ele>78.000000</ele>
        <time>2024-04-19T11:04:21Z</time>
      </trkpt>
      <trkpt lat="42.85713845" lon="13.69299192">
        <ele>78.000000</ele>
        <time>2024-04-19T11:04:22Z</time>
      </trkpt>
      <trkpt lat="42.85717047" lon="13.69309628">
        <ele>78.000000</ele>
        <time>2024-04-19T11:04:23Z</time>
      </trkpt>
      <trkpt lat="42.85720350" lon="13.69320097">
        <ele>79.000000</ele>
        <time>2024-04-19T11:04:24Z</time>
      </trkpt>
      <trkpt lat="42.85723811" lon="13.69330390">
        <ele>79.000000</ele>
        <time>2024-04-19T11:04:25Z</time>
      </trkpt>
      <trkpt lat="42.85727156" lon="13.69340574">
        <ele>80.000000</ele>
        <time>2024-04-19T11:04:26Z</time>
      </trkpt>
      <trkpt lat="42.85730835" lon="13.69350590">
        <ele>80.000000</ele>
        <time>2024-04-19T11:04:27Z</time>
      </trkpt>
      <trkpt lat="42.85734565" lon="13.69360556">
        <ele>81.000000</ele>
        <time>2024-04-19T11:04:28Z</time>
      </trkpt>
      <trkpt lat="42.85737868" lon="13.69370413">
        <ele>81.000000</ele>
        <time>2024-04-19T11:04:29Z</time>
      </trkpt>
      <trkpt lat="42.85740802" lon="13.69379659">
        <ele>82.000000</ele>
        <time>2024-04-19T11:04:30Z</time>
      </trkpt>
      <trkpt lat="42.85743417" lon="13.69387865">
        <ele>82.000000</ele>
        <time>2024-04-19T11:04:31Z</time>
      </trkpt>
      <trkpt lat="42.85745847" lon="13.69395626">
        <ele>82.000000</ele>
        <time>2024-04-19T11:04:32Z</time>
      </trkpt>
      <trkpt lat="42.85748287" lon="13.69402902">
        <ele>82.000000</ele>
        <time>2024-04-19T11:04:33Z</time>
      </trkpt>
      <trkpt lat="42.85750893" lon="13.69408895">
        <ele>82.000000</ele>
        <time>2024-04-19T11:04:34Z</time>
      </trkpt>
      <trkpt lat="42.85755185" lon="13.69410596">
        <ele>82.000000</ele>
        <time>2024-04-19T11:04:35Z</time>
      </trkpt>
      <trkpt lat="42.85758605" lon="13.69405986">
        <ele>82.000000</ele>
        <time>2024-04-19T11:04:36Z</time>
      </trkpt>
      <trkpt lat="42.85762125" lon="13.69399633">
        <ele>82.000000</ele>
        <time>2024-04-19T11:04:37Z</time>
      </trkpt>
      <trkpt lat="42.85766065" lon="13.69394855">
        <ele>82.000000</ele>
        <time>2024-04-19T11:04:38Z</time>
      </trkpt>
      <trkpt lat="42.85771815" lon="13.69389994">
        <ele>82.000000</ele>
        <time>2024-04-19T11:04:39Z</time>
      </trkpt>
      <trkpt lat="42.85779719" lon="13.69385727">
        <ele>82.000000</ele>
        <time>2024-04-19T11:04:40Z</time>
      </trkpt>
      <trkpt lat="42.85786500" lon="13.69382894">
        <ele>82.000000</ele>
        <time>2024-04-19T11:04:41Z</time>
      </trkpt>
      <trkpt lat="42.85793256" lon="13.69380706">
        <ele>82.000000</ele>
        <time>2024-04-19T11:04:42Z</time>
      </trkpt>
      <trkpt lat="42.85798687" lon="13.69379349">
        <ele>82.000000</ele>
        <time>2024-04-19T11:04:43Z</time>
      </trkpt>
      <trkpt lat="42.85805619" lon="13.69377496">
        <ele>82.000000</ele>
        <time>2024-04-19T11:04:44Z</time>
      </trkpt>
      <trkpt lat="42.85813976" lon="13.69375149">
        <ele>82.000000</ele>
        <time>2024-04-19T11:04:45Z</time>
      </trkpt>
      <trkpt lat="42.85821092" lon="13.69373288">
        <ele>82.000000</ele>
        <time>2024-04-19T11:04:46Z</time>
      </trkpt>
      <trkpt lat="42.85828409" lon="13.69370849">
        <ele>83.000000</ele>
        <time>2024-04-19T11:04:47Z</time>
      </trkpt>
      <trkpt lat="42.85835660" lon="13.69368360">
        <ele>83.000000</ele>
        <time>2024-04-19T11:04:48Z</time>
      </trkpt>
      <trkpt lat="42.85841535" lon="13.69366499">
        <ele>83.000000</ele>
        <time>2024-04-19T11:04:49Z</time>
      </trkpt>
      <trkpt lat="42.85849154" lon="13.69363892">
        <ele>83.000000</ele>
        <time>2024-04-19T11:04:50Z</time>
      </trkpt>
      <trkpt lat="42.85858358" lon="13.69360908">
        <ele>83.000000</ele>
        <time>2024-04-19T11:04:51Z</time>
      </trkpt>
      <trkpt lat="42.85866287" lon="13.69358167">
        <ele>83.000000</ele>
        <time>2024-04-19T11:04:52Z</time>
      </trkpt>
      <trkpt lat="42.85874233" lon="13.69355435">
        <ele>83.000000</ele>
        <time>2024-04-19T11:04:53Z</time>
      </trkpt>
      <trkpt lat="42.85880779" lon="13.69353742">
        <ele>82.000000</ele>
        <time>2024-04-19T11:04:54Z</time>
      </trkpt>
      <trkpt lat="42.85889186" lon="13.69351118">
        <ele>82.000000</ele>
        <time>2024-04-19T11:04:55Z</time>
      </trkpt>
      <trkpt lat="42.85899270" lon="13.69347556">
        <ele>81.000000</ele>
        <time>2024-04-19T11:04:56Z</time>
      </trkpt>
      <trkpt lat="42.85907576" lon="13.69344715">
        <ele>80.000000</ele>
        <time>2024-04-19T11:04:57Z</time>
      </trkpt>
      <trkpt lat="42.85915447" lon="13.69341923">
        <ele>79.000000</ele>
        <time>2024-04-19T11:04:58Z</time>
      </trkpt>
      <trkpt lat="42.85921574" lon="13.69339560">
        <ele>78.000000</ele>
        <time>2024-04-19T11:04:59Z</time>
      </trkpt>
      <trkpt lat="42.85929051" lon="13.69336710">
        <ele>78.000000</ele>
        <time>2024-04-19T11:05:00Z</time>
      </trkpt>
      <trkpt lat="42.85938053" lon="13.69333332">
        <ele>78.000000</ele>
        <time>2024-04-19T11:05:01Z</time>
      </trkpt>
      <trkpt lat="42.85945429" lon="13.69330432">
        <ele>78.000000</ele>
        <time>2024-04-19T11:05:02Z</time>
      </trkpt>
      <trkpt lat="42.85951321" lon="13.69328035">
        <ele>78.000000</ele>
        <time>2024-04-19T11:05:03Z</time>
      </trkpt>
      <trkpt lat="42.85958639" lon="13.69324799">
        <ele>78.000000</ele>
        <time>2024-04-19T11:05:04Z</time>
      </trkpt>
      <trkpt lat="42.85965965" lon="13.69321438">
        <ele>78.000000</ele>
        <time>2024-04-19T11:05:05Z</time>
      </trkpt>
      <trkpt lat="42.85982460" lon="13.69314171">
        <ele>78.000000</ele>
        <time>2024-04-19T11:05:07Z</time>
      </trkpt>
      <trkpt lat="42.85989719" lon="13.69310659">
        <ele>78.000000</ele>
        <time>2024-04-19T11:05:08Z</time>
      </trkpt>
      <trkpt lat="42.85996936" lon="13.69307172">
        <ele>78.000000</ele>
        <time>2024-04-19T11:05:09Z</time>
      </trkpt>
      <trkpt lat="42.86002694" lon="13.69304540">
        <ele>78.000000</ele>
        <time>2024-04-19T11:05:10Z</time>
      </trkpt>
      <trkpt lat="42.86009944" lon="13.69301137">
        <ele>78.000000</ele>
        <time>2024-04-19T11:05:11Z</time>
      </trkpt>
      <trkpt lat="42.86016868" lon="13.69297449">
        <ele>78.000000</ele>
        <time>2024-04-19T11:05:12Z</time>
      </trkpt>
      <trkpt lat="42.86023624" lon="13.69293669">
        <ele>79.000000</ele>
        <time>2024-04-19T11:05:13Z</time>
      </trkpt>
      <trkpt lat="42.86030304" lon="13.69289855">
        <ele>79.000000</ele>
        <time>2024-04-19T11:05:14Z</time>
      </trkpt>
      <trkpt lat="42.86036884" lon="13.69285496">
        <ele>79.000000</ele>
        <time>2024-04-19T11:05:15Z</time>
      </trkpt>
      <trkpt lat="42.86043019" lon="13.69280308">
        <ele>79.000000</ele>
        <time>2024-04-19T11:05:16Z</time>
      </trkpt>
      <trkpt lat="42.86048744" lon="13.69274139">
        <ele>80.000000</ele>
        <time>2024-04-19T11:05:17Z</time>
      </trkpt>
      <trkpt lat="42.86053681" lon="13.69266989">
        <ele>81.000000</ele>
        <time>2024-04-19T11:05:18Z</time>
      </trkpt>
      <trkpt lat="42.86058015" lon="13.69259001">
        <ele>82.000000</ele>
        <time>2024-04-19T11:05:19Z</time>
      </trkpt>
      <trkpt lat="42.86062113" lon="13.69250611">
        <ele>83.000000</ele>
        <time>2024-04-19T11:05:20Z</time>
      </trkpt>
      <trkpt lat="42.86065458" lon="13.69241324">
        <ele>84.000000</ele>
        <time>2024-04-19T11:05:21Z</time>
      </trkpt>
      <trkpt lat="42.86068048" lon="13.69231517">
        <ele>85.000000</ele>
        <time>2024-04-19T11:05:22Z</time>
      </trkpt>
      <trkpt lat="42.86070303" lon="13.69221433">
        <ele>85.000000</ele>
        <time>2024-04-19T11:05:23Z</time>
      </trkpt>
      <trkpt lat="42.86072012" lon="13.69210780">
        <ele>87.000000</ele>
        <time>2024-04-19T11:05:24Z</time>
      </trkpt>
      <trkpt lat="42.86073756" lon="13.69199825">
        <ele>88.000000</ele>
        <time>2024-04-19T11:05:25Z</time>
      </trkpt>
      <trkpt lat="42.86076120" lon="13.69188744">
        <ele>88.000000</ele>
        <time>2024-04-19T11:05:26Z</time>
      </trkpt>
      <trkpt lat="42.86078684" lon="13.69177286">
        <ele>89.000000</ele>
        <time>2024-04-19T11:05:27Z</time>
      </trkpt>
      <trkpt lat="42.86081543" lon="13.69165727">
        <ele>89.000000</ele>
        <time>2024-04-19T11:05:28Z</time>
      </trkpt>
      <trkpt lat="42.86084879" lon="13.69154546">
        <ele>89.000000</ele>
        <time>2024-04-19T11:05:29Z</time>
      </trkpt>
      <trkpt lat="42.86088659" lon="13.69143775">
        <ele>89.000000</ele>
        <time>2024-04-19T11:05:30Z</time>
      </trkpt>
      <trkpt lat="42.86093126" lon="13.69133801">
        <ele>89.000000</ele>
        <time>2024-04-19T11:05:31Z</time>
      </trkpt>
      <trkpt lat="42.86098508" lon="13.69124564">
        <ele>88.000000</ele>
        <time>2024-04-19T11:05:32Z</time>
      </trkpt>
      <trkpt lat="42.86104626" lon="13.69115922">
        <ele>88.000000</ele>
        <time>2024-04-19T11:05:33Z</time>
      </trkpt>
      <trkpt lat="42.86110879" lon="13.69107465">
        <ele>87.000000</ele>
        <time>2024-04-19T11:05:34Z</time>
      </trkpt>
      <trkpt lat="42.86117224" lon="13.69099041">
        <ele>87.000000</ele>
        <time>2024-04-19T11:05:35Z</time>
      </trkpt>
      <trkpt lat="42.86123595" lon="13.69090726">
        <ele>87.000000</ele>
        <time>2024-04-19T11:05:36Z</time>
      </trkpt>
      <trkpt lat="42.86129881" lon="13.69082286">
        <ele>87.000000</ele>
        <time>2024-04-19T11:05:37Z</time>
      </trkpt>
      <trkpt lat="42.86136109" lon="13.69073895">
        <ele>87.000000</ele>
        <time>2024-04-19T11:05:38Z</time>
      </trkpt>
      <trkpt lat="42.86143460" lon="13.69063770">
        <ele>88.000000</ele>
        <time>2024-04-19T11:05:39Z</time>
      </trkpt>
      <trkpt lat="42.86149277" lon="13.69054952">
        <ele>89.000000</ele>
        <time>2024-04-19T11:05:40Z</time>
      </trkpt>
      <trkpt lat="42.86153577" lon="13.69047610">
        <ele>89.000000</ele>
        <time>2024-04-19T11:05:41Z</time>
      </trkpt>
      <trkpt lat="42.86158815" lon="13.69038063">
        <ele>89.000000</ele>
        <time>2024-04-19T11:05:42Z</time>
      </trkpt>
      <trkpt lat="42.86165026" lon="13.69026261">
        <ele>89.000000</ele>
        <time>2024-04-19T11:05:43Z</time>
      </trkpt>
      <trkpt lat="42.86169569" lon="13.69015934">
        <ele>89.000000</ele>
        <time>2024-04-19T11:05:44Z</time>
      </trkpt>
      <trkpt lat="42.86173559" lon="13.69005474">
        <ele>88.000000</ele>
        <time>2024-04-19T11:05:45Z</time>
      </trkpt>
      <trkpt lat="42.86176392" lon="13.68996849">
        <ele>88.000000</ele>
        <time>2024-04-19T11:05:46Z</time>
      </trkpt>
      <trkpt lat="42.86180533" lon="13.68983622">
        <ele>87.000000</ele>
        <time>2024-04-19T11:05:47Z</time>
      </trkpt>
      <trkpt lat="42.86183173" lon="13.68974620">
        <ele>86.000000</ele>
        <time>2024-04-19T11:05:48Z</time>
      </trkpt>
      <trkpt lat="42.86187574" lon="13.68961326">
        <ele>86.000000</ele>
        <time>2024-04-19T11:05:49Z</time>
      </trkpt>
      <trkpt lat="42.86190340" lon="13.68952408">
        <ele>85.000000</ele>
        <time>2024-04-19T11:05:50Z</time>
      </trkpt>
      <trkpt lat="42.86193634" lon="13.68941176">
        <ele>85.000000</ele>
        <time>2024-04-19T11:05:51Z</time>
      </trkpt>
      <trkpt lat="42.86197045" lon="13.68927681">
        <ele>85.000000</ele>
        <time>2024-04-19T11:05:52Z</time>
      </trkpt>
      <trkpt lat="42.86199669" lon="13.68916374">
        <ele>86.000000</ele>
        <time>2024-04-19T11:05:53Z</time>
      </trkpt>
      <trkpt lat="42.86202368" lon="13.68905042">
        <ele>87.000000</ele>
        <time>2024-04-19T11:05:54Z</time>
      </trkpt>
      <trkpt lat="42.86204715" lon="13.68896040">
        <ele>87.000000</ele>
        <time>2024-04-19T11:05:55Z</time>
      </trkpt>
      <trkpt lat="42.86208118" lon="13.68884959">
        <ele>88.000000</ele>
        <time>2024-04-19T11:05:56Z</time>
      </trkpt>
      <trkpt lat="42.86211890" lon="13.68874146">
        <ele>88.000000</ele>
        <time>2024-04-19T11:05:57Z</time>
      </trkpt>
      <trkpt lat="42.86216751" lon="13.68861473">
        <ele>88.000000</ele>
        <time>2024-04-19T11:05:58Z</time>
      </trkpt>
      <trkpt lat="42.86220263" lon="13.68853367">
        <ele>89.000000</ele>
        <time>2024-04-19T11:05:59Z</time>
      </trkpt>
      <trkpt lat="42.86224915" lon="13.68843292">
        <ele>89.000000</ele>
        <time>2024-04-19T11:06:00Z</time>
      </trkpt>
      <trkpt lat="42.86230917" lon="13.68831658">
        <ele>90.000000</ele>
        <time>2024-04-19T11:06:01Z</time>
      </trkpt>
      <trkpt lat="42.86236323" lon="13.68822363">
        <ele>90.000000</ele>
        <time>2024-04-19T11:06:02Z</time>
      </trkpt>
      <trkpt lat="42.86242073" lon="13.68813587">
        <ele>90.000000</ele>
        <time>2024-04-19T11:06:03Z</time>
      </trkpt>
      <trkpt lat="42.86246985" lon="13.68806906">
        <ele>90.000000</ele>
        <time>2024-04-19T11:06:04Z</time>
      </trkpt>
      <trkpt lat="42.86253288" lon="13.68798877">
        <ele>91.000000</ele>
        <time>2024-04-19T11:06:05Z</time>
      </trkpt>
      <trkpt lat="42.86259700" lon="13.68790746">
        <ele>92.000000</ele>
        <time>2024-04-19T11:06:06Z</time>
      </trkpt>
      <trkpt lat="42.86267361" lon="13.68781551">
        <ele>92.000000</ele>
        <time>2024-04-19T11:06:07Z</time>
      </trkpt>
      <trkpt lat="42.86272583" lon="13.68775541">
        <ele>93.000000</ele>
        <time>2024-04-19T11:06:08Z</time>
      </trkpt>
      <trkpt lat="42.86279045" lon="13.68767822">
        <ele>93.000000</ele>
        <time>2024-04-19T11:06:09Z</time>
      </trkpt>
      <trkpt lat="42.86286824" lon="13.68758157">
        <ele>95.000000</ele>
        <time>2024-04-19T11:06:10Z</time>
      </trkpt>
      <trkpt lat="42.86293303" lon="13.68750010">
        <ele>95.000000</ele>
        <time>2024-04-19T11:06:11Z</time>
      </trkpt>
      <trkpt lat="42.86299908" lon="13.68742123">
        <ele>96.000000</ele>
        <time>2024-04-19T11:06:12Z</time>
      </trkpt>
      <trkpt lat="42.86305105" lon="13.68735820">
        <ele>96.000000</ele>
        <time>2024-04-19T11:06:13Z</time>
      </trkpt>
      <trkpt lat="42.86311500" lon="13.68727865">
        <ele>96.000000</ele>
        <time>2024-04-19T11:06:14Z</time>
      </trkpt>
      <trkpt lat="42.86317954" lon="13.68719986">
        <ele>96.000000</ele>
        <time>2024-04-19T11:06:15Z</time>
      </trkpt>
      <trkpt lat="42.86325708" lon="13.68710397">
        <ele>95.000000</ele>
        <time>2024-04-19T11:06:16Z</time>
      </trkpt>
      <trkpt lat="42.86330762" lon="13.68703935">
        <ele>95.000000</ele>
        <time>2024-04-19T11:06:17Z</time>
      </trkpt>
      <trkpt lat="42.86336814" lon="13.68696249">
        <ele>95.000000</ele>
        <time>2024-04-19T11:06:18Z</time>
      </trkpt>
      <trkpt lat="42.86344131" lon="13.68687347">
        <ele>94.000000</ele>
        <time>2024-04-19T11:06:19Z</time>
      </trkpt>
      <trkpt lat="42.86350325" lon="13.68679879">
        <ele>94.000000</ele>
        <time>2024-04-19T11:06:20Z</time>
      </trkpt>
      <trkpt lat="42.86356234" lon="13.68672419">
        <ele>95.000000</ele>
        <time>2024-04-19T11:06:21Z</time>
      </trkpt>
      <trkpt lat="42.86360928" lon="13.68666526">
        <ele>96.000000</ele>
        <time>2024-04-19T11:06:22Z</time>
      </trkpt>
      <trkpt lat="42.86366812" lon="13.68659553">
        <ele>95.000000</ele>
        <time>2024-04-19T11:06:23Z</time>
      </trkpt>
      <trkpt lat="42.86372319" lon="13.68652814">
        <ele>95.000000</ele>
        <time>2024-04-19T11:06:24Z</time>
      </trkpt>
      <trkpt lat="42.86378765" lon="13.68644750">
        <ele>95.000000</ele>
        <time>2024-04-19T11:06:25Z</time>
      </trkpt>
      <trkpt lat="42.86383367" lon="13.68639159">
        <ele>95.000000</ele>
        <time>2024-04-19T11:06:26Z</time>
      </trkpt>
      <trkpt lat="42.86389159" lon="13.68631985">
        <ele>96.000000</ele>
        <time>2024-04-19T11:06:27Z</time>
      </trkpt>
      <trkpt lat="42.86396292" lon="13.68623293">
        <ele>95.000000</ele>
        <time>2024-04-19T11:06:28Z</time>
      </trkpt>
      <trkpt lat="42.86402150" lon="13.68615631">
        <ele>95.000000</ele>
        <time>2024-04-19T11:06:29Z</time>
      </trkpt>
      <trkpt lat="42.86406870" lon="13.68609563">
        <ele>95.000000</ele>
        <time>2024-04-19T11:06:30Z</time>
      </trkpt>
      <trkpt lat="42.86412879" lon="13.68602162">
        <ele>95.000000</ele>
        <time>2024-04-19T11:06:31Z</time>
      </trkpt>
      <trkpt lat="42.86419124" lon="13.68594643">
        <ele>94.000000</ele>
        <time>2024-04-19T11:06:32Z</time>
      </trkpt>
      <trkpt lat="42.86426684" lon="13.68585566">
        <ele>94.000000</ele>
        <time>2024-04-19T11:06:33Z</time>
      </trkpt>
      <trkpt lat="42.86433004" lon="13.68577972">
        <ele>94.000000</ele>
        <time>2024-04-19T11:06:34Z</time>
      </trkpt>
      <trkpt lat="42.86438092" lon="13.68571836">
        <ele>94.000000</ele>
        <time>2024-04-19T11:06:35Z</time>
      </trkpt>
      <trkpt lat="42.86444253" lon="13.68564074">
        <ele>94.000000</ele>
        <time>2024-04-19T11:06:36Z</time>
      </trkpt>
      <trkpt lat="42.86451671" lon="13.68554712">
        <ele>95.000000</ele>
        <time>2024-04-19T11:06:37Z</time>
      </trkpt>
      <trkpt lat="42.86457882" lon="13.68546489">
        <ele>95.000000</ele>
        <time>2024-04-19T11:06:38Z</time>
      </trkpt>
      <trkpt lat="42.86462743" lon="13.68539725">
        <ele>95.000000</ele>
        <time>2024-04-19T11:06:39Z</time>
      </trkpt>
      <trkpt lat="42.86468686" lon="13.68531175">
        <ele>95.000000</ele>
        <time>2024-04-19T11:06:40Z</time>
      </trkpt>
      <trkpt lat="42.86474310" lon="13.68522408">
        <ele>94.000000</ele>
        <time>2024-04-19T11:06:41Z</time>
      </trkpt>
      <trkpt lat="42.86479465" lon="13.68512878">
        <ele>94.000000</ele>
        <time>2024-04-19T11:06:42Z</time>
      </trkpt>
      <trkpt lat="42.86484017" lon="13.68502685">
        <ele>94.000000</ele>
        <time>2024-04-19T11:06:43Z</time>
      </trkpt>
      <trkpt lat="42.86487914" lon="13.68492233">
        <ele>94.000000</ele>
        <time>2024-04-19T11:06:44Z</time>
      </trkpt>
      <trkpt lat="42.86491435" lon="13.68481789">
        <ele>94.000000</ele>
        <time>2024-04-19T11:06:45Z</time>
      </trkpt>
      <trkpt lat="42.86494812" lon="13.68471203">
        <ele>95.000000</ele>
        <time>2024-04-19T11:06:46Z</time>
      </trkpt>
      <trkpt lat="42.86498056" lon="13.68460591">
        <ele>96.000000</ele>
        <time>2024-04-19T11:06:47Z</time>
      </trkpt>
      <trkpt lat="42.86501023" lon="13.68450064">
        <ele>97.000000</ele>
        <time>2024-04-19T11:06:48Z</time>
      </trkpt>
      <trkpt lat="42.86503915" lon="13.68439888">
        <ele>98.000000</ele>
        <time>2024-04-19T11:06:49Z</time>
      </trkpt>
      <trkpt lat="42.86510143" lon="13.68420392">
        <ele>100.00000</ele>
        <time>2024-04-19T11:06:51Z</time>
      </trkpt>
      <trkpt lat="42.86514015" lon="13.68411222">
        <ele>100.00000</ele>
        <time>2024-04-19T11:06:52Z</time>
      </trkpt>
      <trkpt lat="42.86524049" lon="13.68394760">
        <ele>98.000000</ele>
        <time>2024-04-19T11:06:54Z</time>
      </trkpt>
      <trkpt lat="42.86531240" lon="13.68385959">
        <ele>97.000000</ele>
        <time>2024-04-19T11:06:55Z</time>
      </trkpt>
      <trkpt lat="42.86543780" lon="13.68373604">
        <ele>96.000000</ele>
        <time>2024-04-19T11:06:57Z</time>
      </trkpt>
      <trkpt lat="42.86550074" lon="13.68367862">
        <ele>95.000000</ele>
        <time>2024-04-19T11:06:58Z</time>
      </trkpt>
      <trkpt lat="42.86556327" lon="13.68362179">
        <ele>95.000000</ele>
        <time>2024-04-19T11:06:59Z</time>
      </trkpt>
      <trkpt lat="42.86562538" lon="13.68356362">
        <ele>96.000000</ele>
        <time>2024-04-19T11:07:00Z</time>
      </trkpt>
      <trkpt lat="42.86568791" lon="13.68350436">
        <ele>97.000000</ele>
        <time>2024-04-19T11:07:01Z</time>
      </trkpt>
      <trkpt lat="42.86575069" lon="13.68344133">
        <ele>98.000000</ele>
        <time>2024-04-19T11:07:02Z</time>
      </trkpt>
      <trkpt lat="42.86580241" lon="13.68338668">
        <ele>98.000000</ele>
        <time>2024-04-19T11:07:03Z</time>
      </trkpt>
      <trkpt lat="42.86587709" lon="13.68329968">
        <ele>98.000000</ele>
        <time>2024-04-19T11:07:04Z</time>
      </trkpt>
      <trkpt lat="42.86593618" lon="13.68322030">
        <ele>98.000000</ele>
        <time>2024-04-19T11:07:05Z</time>
      </trkpt>
      <trkpt lat="42.86599427" lon="13.68313321">
        <ele>97.000000</ele>
        <time>2024-04-19T11:07:06Z</time>
      </trkpt>
      <trkpt lat="42.86605269" lon="13.68304294">
        <ele>97.000000</ele>
        <time>2024-04-19T11:07:07Z</time>
      </trkpt>
      <trkpt lat="42.86610089" lon="13.68296926">
        <ele>97.000000</ele>
        <time>2024-04-19T11:07:08Z</time>
      </trkpt>
      <trkpt lat="42.86617356" lon="13.68286239">
        <ele>97.000000</ele>
        <time>2024-04-19T11:07:09Z</time>
      </trkpt>
      <trkpt lat="42.86623600" lon="13.68277673">
        <ele>97.000000</ele>
        <time>2024-04-19T11:07:10Z</time>
      </trkpt>
      <trkpt lat="42.86629979" lon="13.68269476">
        <ele>97.000000</ele>
        <time>2024-04-19T11:07:11Z</time>
      </trkpt>
      <trkpt lat="42.86635394" lon="13.68263206">
        <ele>97.000000</ele>
        <time>2024-04-19T11:07:12Z</time>
      </trkpt>
      <trkpt lat="42.86642342" lon="13.68255930">
        <ele>97.000000</ele>
        <time>2024-04-19T11:07:13Z</time>
      </trkpt>
      <trkpt lat="42.86651085" lon="13.68247448">
        <ele>97.000000</ele>
        <time>2024-04-19T11:07:14Z</time>
      </trkpt>
      <trkpt lat="42.86658528" lon="13.68240793">
        <ele>97.000000</ele>
        <time>2024-04-19T11:07:15Z</time>
      </trkpt>
      <trkpt lat="42.86665904" lon="13.68234531">
        <ele>98.000000</ele>
        <time>2024-04-19T11:07:16Z</time>
      </trkpt>
      <trkpt lat="42.86671763" lon="13.68229938">
        <ele>98.000000</ele>
        <time>2024-04-19T11:07:17Z</time>
      </trkpt>
      <trkpt lat="42.86680765" lon="13.68223090">
        <ele>97.000000</ele>
        <time>2024-04-19T11:07:18Z</time>
      </trkpt>
      <trkpt lat="42.86688267" lon="13.68217105">
        <ele>97.000000</ele>
        <time>2024-04-19T11:07:19Z</time>
      </trkpt>
      <trkpt lat="42.86695919" lon="13.68211138">
        <ele>97.000000</ele>
        <time>2024-04-19T11:07:20Z</time>
      </trkpt>
      <trkpt lat="42.86702005" lon="13.68206494">
        <ele>97.000000</ele>
        <time>2024-04-19T11:07:21Z</time>
      </trkpt>
      <trkpt lat="42.86709641" lon="13.68200819">
        <ele>96.000000</ele>
        <time>2024-04-19T11:07:22Z</time>
      </trkpt>
      <trkpt lat="42.86718693" lon="13.68194013">
        <ele>96.000000</ele>
        <time>2024-04-19T11:07:23Z</time>
      </trkpt>
      <trkpt lat="42.86726019" lon="13.68188414">
        <ele>96.000000</ele>
        <time>2024-04-19T11:07:24Z</time>
      </trkpt>
      <trkpt lat="42.86733319" lon="13.68182823">
        <ele>97.000000</ele>
        <time>2024-04-19T11:07:25Z</time>
      </trkpt>
      <trkpt lat="42.86740670" lon="13.68177426">
        <ele>97.000000</ele>
        <time>2024-04-19T11:07:26Z</time>
      </trkpt>
      <trkpt lat="42.86746563" lon="13.68173092">
        <ele>97.000000</ele>
        <time>2024-04-19T11:07:27Z</time>
      </trkpt>
      <trkpt lat="42.86755490" lon="13.68166705">
        <ele>98.000000</ele>
        <time>2024-04-19T11:07:28Z</time>
      </trkpt>
      <trkpt lat="42.86762882" lon="13.68161743">
        <ele>99.000000</ele>
        <time>2024-04-19T11:07:29Z</time>
      </trkpt>
      <trkpt lat="42.86768750" lon="13.68158038">
        <ele>100.00000</ele>
        <time>2024-04-19T11:07:30Z</time>
      </trkpt>
      <trkpt lat="42.86776042" lon="13.68153839">
        <ele>100.00000</ele>
        <time>2024-04-19T11:07:31Z</time>
      </trkpt>
      <trkpt lat="42.86784843" lon="13.68149287">
        <ele>101.00000</ele>
        <time>2024-04-19T11:07:32Z</time>
      </trkpt>
      <trkpt lat="42.86792018" lon="13.68145532">
        <ele>101.00000</ele>
        <time>2024-04-19T11:07:33Z</time>
      </trkpt>
      <trkpt lat="42.86798656" lon="13.68141769">
        <ele>101.00000</ele>
        <time>2024-04-19T11:07:34Z</time>
      </trkpt>
      <trkpt lat="42.86803694" lon="13.68138810">
        <ele>102.00000</ele>
        <time>2024-04-19T11:07:35Z</time>
      </trkpt>
      <trkpt lat="42.86809989" lon="13.68134577">
        <ele>101.00000</ele>
        <time>2024-04-19T11:07:36Z</time>
      </trkpt>
      <trkpt lat="42.86816946" lon="13.68127771">
        <ele>101.00000</ele>
        <time>2024-04-19T11:07:37Z</time>
      </trkpt>
      <trkpt lat="42.86821723" lon="13.68120546">
        <ele>102.00000</ele>
        <time>2024-04-19T11:07:38Z</time>
      </trkpt>
      <trkpt lat="42.86824925" lon="13.68113958">
        <ele>102.00000</ele>
        <time>2024-04-19T11:07:39Z</time>
      </trkpt>
      <trkpt lat="42.86828370" lon="13.68105433">
        <ele>103.00000</ele>
        <time>2024-04-19T11:07:40Z</time>
      </trkpt>
      <trkpt lat="42.86831346" lon="13.68094461">
        <ele>104.00000</ele>
        <time>2024-04-19T11:07:41Z</time>
      </trkpt>
      <trkpt lat="42.86832813" lon="13.68085023">
        <ele>104.00000</ele>
        <time>2024-04-19T11:07:42Z</time>
      </trkpt>
      <trkpt lat="42.86833659" lon="13.68077496">
        <ele>105.00000</ele>
        <time>2024-04-19T11:07:43Z</time>
      </trkpt>
      <trkpt lat="42.86834707" lon="13.68067991">
        <ele>105.00000</ele>
        <time>2024-04-19T11:07:44Z</time>
      </trkpt>
      <trkpt lat="42.86835713" lon="13.68058495">
        <ele>105.00000</ele>
        <time>2024-04-19T11:07:45Z</time>
      </trkpt>
      <trkpt lat="42.86836517" lon="13.68047615">
        <ele>105.00000</ele>
        <time>2024-04-19T11:07:46Z</time>
      </trkpt>
      <trkpt lat="42.86836937" lon="13.68038479">
        <ele>105.00000</ele>
        <time>2024-04-19T11:07:47Z</time>
      </trkpt>
      <trkpt lat="42.86838026" lon="13.68021162">
        <ele>104.00000</ele>
        <time>2024-04-19T11:07:49Z</time>
      </trkpt>
      <trkpt lat="42.86838722" lon="13.68009159">
        <ele>104.00000</ele>
        <time>2024-04-19T11:07:50Z</time>
      </trkpt>
      <trkpt lat="42.86840423" lon="13.67989042">
        <ele>105.00000</ele>
        <time>2024-04-19T11:07:52Z</time>
      </trkpt>
      <trkpt lat="42.86842041" lon="13.67978464">
        <ele>106.00000</ele>
        <time>2024-04-19T11:07:53Z</time>
      </trkpt>
      <trkpt lat="42.86846861" lon="13.67957049">
        <ele>107.00000</ele>
        <time>2024-04-19T11:07:55Z</time>
      </trkpt>
      <trkpt lat="42.86850431" lon="13.67946362">
        <ele>107.00000</ele>
        <time>2024-04-19T11:07:56Z</time>
      </trkpt>
      <trkpt lat="42.86854874" lon="13.67935909">
        <ele>107.00000</ele>
        <time>2024-04-19T11:07:57Z</time>
      </trkpt>
      <trkpt lat="42.86859182" lon="13.67928030">
        <ele>107.00000</ele>
        <time>2024-04-19T11:07:58Z</time>
      </trkpt>
      <trkpt lat="42.86866893" lon="13.67917628">
        <ele>107.00000</ele>
        <time>2024-04-19T11:07:59Z</time>
      </trkpt>
      <trkpt lat="42.86874529" lon="13.67910361">
        <ele>107.00000</ele>
        <time>2024-04-19T11:08:00Z</time>
      </trkpt>
      <trkpt lat="42.86882735" lon="13.67904016">
        <ele>107.00000</ele>
        <time>2024-04-19T11:08:01Z</time>
      </trkpt>
      <trkpt lat="42.86889516" lon="13.67899666">
        <ele>107.00000</ele>
        <time>2024-04-19T11:08:02Z</time>
      </trkpt>
      <trkpt lat="42.86898057" lon="13.67894419">
        <ele>107.00000</ele>
        <time>2024-04-19T11:08:03Z</time>
      </trkpt>
      <trkpt lat="42.86906624" lon="13.67889055">
        <ele>107.00000</ele>
        <time>2024-04-19T11:08:04Z</time>
      </trkpt>
      <trkpt lat="42.86915056" lon="13.67883036">
        <ele>106.00000</ele>
        <time>2024-04-19T11:08:05Z</time>
      </trkpt>
      <trkpt lat="42.86924804" lon="13.67875032">
        <ele>105.00000</ele>
        <time>2024-04-19T11:08:06Z</time>
      </trkpt>
      <trkpt lat="42.86930554" lon="13.67868997">
        <ele>104.00000</ele>
        <time>2024-04-19T11:08:07Z</time>
      </trkpt>
      <trkpt lat="42.86937042" lon="13.67860766">
        <ele>104.00000</ele>
        <time>2024-04-19T11:08:08Z</time>
      </trkpt>
      <trkpt lat="42.86944577" lon="13.67849819">
        <ele>103.00000</ele>
        <time>2024-04-19T11:08:09Z</time>
      </trkpt>
      <trkpt lat="42.86950671" lon="13.67840188">
        <ele>103.00000</ele>
        <time>2024-04-19T11:08:10Z</time>
      </trkpt>
      <trkpt lat="42.86956437" lon="13.67830599">
        <ele>103.00000</ele>
        <time>2024-04-19T11:08:11Z</time>
      </trkpt>
      <trkpt lat="42.86961081" lon="13.67822846">
        <ele>103.00000</ele>
        <time>2024-04-19T11:08:12Z</time>
      </trkpt>
      <trkpt lat="42.86967468" lon="13.67811019">
        <ele>103.00000</ele>
        <time>2024-04-19T11:08:13Z</time>
      </trkpt>
      <trkpt lat="42.86972053" lon="13.67800575">
        <ele>104.00000</ele>
        <time>2024-04-19T11:08:14Z</time>
      </trkpt>
      <trkpt lat="42.86975976" lon="13.67789855">
        <ele>103.00000</ele>
        <time>2024-04-19T11:08:15Z</time>
      </trkpt>
      <trkpt lat="42.86978624" lon="13.67781037">
        <ele>103.00000</ele>
        <time>2024-04-19T11:08:16Z</time>
      </trkpt>
      <trkpt lat="42.86981524" lon="13.67769805">
        <ele>103.00000</ele>
        <time>2024-04-19T11:08:17Z</time>
      </trkpt>
      <trkpt lat="42.86984659" lon="13.67755841">
        <ele>103.00000</ele>
        <time>2024-04-19T11:08:18Z</time>
      </trkpt>
      <trkpt lat="42.86987224" lon="13.67743687">
        <ele>103.00000</ele>
        <time>2024-04-19T11:08:19Z</time>
      </trkpt>
      <trkpt lat="42.86990057" lon="13.67731533">
        <ele>103.00000</ele>
        <time>2024-04-19T11:08:20Z</time>
      </trkpt>
      <trkpt lat="42.86992371" lon="13.67721626">
        <ele>103.00000</ele>
        <time>2024-04-19T11:08:21Z</time>
      </trkpt>
      <trkpt lat="42.86995665" lon="13.67706689">
        <ele>105.00000</ele>
        <time>2024-04-19T11:08:22Z</time>
      </trkpt>
      <trkpt lat="42.86998422" lon="13.67694083">
        <ele>106.00000</ele>
        <time>2024-04-19T11:08:23Z</time>
      </trkpt>
      <trkpt lat="42.87000585" lon="13.67684058">
        <ele>106.00000</ele>
        <time>2024-04-19T11:08:24Z</time>
      </trkpt>
      <trkpt lat="42.87003535" lon="13.67671770">
        <ele>106.00000</ele>
        <time>2024-04-19T11:08:25Z</time>
      </trkpt>
      <trkpt lat="42.87007005" lon="13.67659759">
        <ele>106.00000</ele>
        <time>2024-04-19T11:08:26Z</time>
      </trkpt>
      <trkpt lat="42.87011859" lon="13.67645745">
        <ele>106.00000</ele>
        <time>2024-04-19T11:08:27Z</time>
      </trkpt>
      <trkpt lat="42.87017030" lon="13.67634748">
        <ele>106.00000</ele>
        <time>2024-04-19T11:08:28Z</time>
      </trkpt>
      <trkpt lat="42.87023551" lon="13.67625092">
        <ele>107.00000</ele>
        <time>2024-04-19T11:08:29Z</time>
      </trkpt>
      <trkpt lat="42.87031070" lon="13.67616970">
        <ele>106.00000</ele>
        <time>2024-04-19T11:08:30Z</time>
      </trkpt>
      <trkpt lat="42.87039125" lon="13.67610180">
        <ele>106.00000</ele>
        <time>2024-04-19T11:08:31Z</time>
      </trkpt>
      <trkpt lat="42.87047507" lon="13.67603609">
        <ele>106.00000</ele>
        <time>2024-04-19T11:08:32Z</time>
      </trkpt>
      <trkpt lat="42.87055847" lon="13.67597247">
        <ele>105.00000</ele>
        <time>2024-04-19T11:08:33Z</time>
      </trkpt>
      <trkpt lat="42.87064145" lon="13.67590910">
        <ele>104.00000</ele>
        <time>2024-04-19T11:08:34Z</time>
      </trkpt>
      <trkpt lat="42.87070758" lon="13.67585697">
        <ele>104.00000</ele>
        <time>2024-04-19T11:08:35Z</time>
      </trkpt>
      <trkpt lat="42.87080883" lon="13.67577977">
        <ele>103.00000</ele>
        <time>2024-04-19T11:08:36Z</time>
      </trkpt>
      <trkpt lat="42.87089416" lon="13.67571414">
        <ele>103.00000</ele>
        <time>2024-04-19T11:08:37Z</time>
      </trkpt>
      <trkpt lat="42.87097941" lon="13.67565002">
        <ele>104.00000</ele>
        <time>2024-04-19T11:08:38Z</time>
      </trkpt>
      <trkpt lat="42.87104629" lon="13.67559889">
        <ele>104.00000</ele>
        <time>2024-04-19T11:08:39Z</time>
      </trkpt>
      <trkpt lat="42.87123405" lon="13.67546151">
        <ele>105.00000</ele>
        <time>2024-04-19T11:08:41Z</time>
      </trkpt>
      <trkpt lat="42.87131871" lon="13.67540225">
        <ele>105.00000</ele>
        <time>2024-04-19T11:08:42Z</time>
      </trkpt>
      <trkpt lat="42.87140144" lon="13.67534349">
        <ele>104.00000</ele>
        <time>2024-04-19T11:08:43Z</time>
      </trkpt>
      <trkpt lat="42.87146572" lon="13.67529546">
        <ele>104.00000</ele>
        <time>2024-04-19T11:08:44Z</time>
      </trkpt>
      <trkpt lat="42.87156279" lon="13.67522380">
        <ele>104.00000</ele>
        <time>2024-04-19T11:08:45Z</time>
      </trkpt>
      <trkpt lat="42.87165256" lon="13.67517007">
        <ele>103.00000</ele>
        <time>2024-04-19T11:08:46Z</time>
      </trkpt>
      <trkpt lat="42.87174845" lon="13.67512732">
        <ele>103.00000</ele>
        <time>2024-04-19T11:08:47Z</time>
      </trkpt>
      <trkpt lat="42.87182698" lon="13.67510050">
        <ele>103.00000</ele>
        <time>2024-04-19T11:08:48Z</time>
      </trkpt>
      <trkpt lat="42.87204869" lon="13.67504552">
        <ele>102.00000</ele>
        <time>2024-04-19T11:08:50Z</time>
      </trkpt>
      <trkpt lat="42.87215220" lon="13.67502523">
        <ele>102.00000</ele>
        <time>2024-04-19T11:08:51Z</time>
      </trkpt>
      <trkpt lat="42.87225832" lon="13.67500880">
        <ele>102.00000</ele>
        <time>2024-04-19T11:08:52Z</time>
      </trkpt>
      <trkpt lat="42.87234415" lon="13.67499765">
        <ele>102.00000</ele>
        <time>2024-04-19T11:08:53Z</time>
      </trkpt>
      <trkpt lat="42.87246854" lon="13.67498072">
        <ele>102.00000</ele>
        <time>2024-04-19T11:08:54Z</time>
      </trkpt>
      <trkpt lat="42.87256895" lon="13.67497670">
        <ele>101.00000</ele>
        <time>2024-04-19T11:08:55Z</time>
      </trkpt>
      <trkpt lat="42.87267004" lon="13.67499095">
        <ele>100.00000</ele>
        <time>2024-04-19T11:08:56Z</time>
      </trkpt>
      <trkpt lat="42.87277037" lon="13.67502506">
        <ele>98.000000</ele>
        <time>2024-04-19T11:08:57Z</time>
      </trkpt>
      <trkpt lat="42.87284681" lon="13.67506463">
        <ele>98.000000</ele>
        <time>2024-04-19T11:08:58Z</time>
      </trkpt>
      <trkpt lat="42.87295502" lon="13.67513185">
        <ele>98.000000</ele>
        <time>2024-04-19T11:08:59Z</time>
      </trkpt>
      <trkpt lat="42.87304311" lon="13.67519111">
        <ele>99.000000</ele>
        <time>2024-04-19T11:09:00Z</time>
      </trkpt>
      <trkpt lat="42.87312584" lon="13.67524852">
        <ele>99.000000</ele>
        <time>2024-04-19T11:09:01Z</time>
      </trkpt>
      <trkpt lat="42.87318997" lon="13.67529236">
        <ele>99.000000</ele>
        <time>2024-04-19T11:09:02Z</time>
      </trkpt>
      <trkpt lat="42.87326909" lon="13.67534542">
        <ele>100.00000</ele>
        <time>2024-04-19T11:09:03Z</time>
      </trkpt>
      <trkpt lat="42.87335744" lon="13.67540191">
        <ele>100.00000</ele>
        <time>2024-04-19T11:09:04Z</time>
      </trkpt>
      <trkpt lat="42.87343011" lon="13.67543921">
        <ele>101.00000</ele>
        <time>2024-04-19T11:09:05Z</time>
      </trkpt>
      <trkpt lat="42.87348886" lon="13.67546595">
        <ele>101.00000</ele>
        <time>2024-04-19T11:09:06Z</time>
      </trkpt>
      <trkpt lat="42.87356380" lon="13.67549319">
        <ele>101.00000</ele>
        <time>2024-04-19T11:09:07Z</time>
      </trkpt>
      <trkpt lat="42.87365566" lon="13.67551641">
        <ele>101.00000</ele>
        <time>2024-04-19T11:09:08Z</time>
      </trkpt>
      <trkpt lat="42.87373311" lon="13.67553016">
        <ele>102.00000</ele>
        <time>2024-04-19T11:09:09Z</time>
      </trkpt>
      <trkpt lat="42.87381232" lon="13.67553728">
        <ele>102.00000</ele>
        <time>2024-04-19T11:09:10Z</time>
      </trkpt>
      <trkpt lat="42.87387552" lon="13.67554038">
        <ele>103.00000</ele>
        <time>2024-04-19T11:09:11Z</time>
      </trkpt>
      <trkpt lat="42.87404442" lon="13.67554700">
        <ele>104.00000</ele>
        <time>2024-04-19T11:09:13Z</time>
      </trkpt>
      <trkpt lat="42.87412019" lon="13.67554918">
        <ele>104.00000</ele>
        <time>2024-04-19T11:09:14Z</time>
      </trkpt>
      <trkpt lat="42.87419429" lon="13.67554952">
        <ele>105.00000</ele>
        <time>2024-04-19T11:09:15Z</time>
      </trkpt>
      <trkpt lat="42.87425212" lon="13.67555061">
        <ele>105.00000</ele>
        <time>2024-04-19T11:09:16Z</time>
      </trkpt>
      <trkpt lat="42.87433703" lon="13.67555472">
        <ele>105.00000</ele>
        <time>2024-04-19T11:09:17Z</time>
      </trkpt>
      <trkpt lat="42.87447625" lon="13.67555790">
        <ele>106.00000</ele>
        <time>2024-04-19T11:09:19Z</time>
      </trkpt>
      <trkpt lat="42.87453174" lon="13.67555648">
        <ele>106.00000</ele>
        <time>2024-04-19T11:09:20Z</time>
      </trkpt>
      <trkpt lat="42.87467775" lon="13.67554927">
        <ele>107.00000</ele>
        <time>2024-04-19T11:09:22Z</time>
      </trkpt>
      <trkpt lat="42.87474364" lon="13.67553477">
        <ele>108.00000</ele>
        <time>2024-04-19T11:09:23Z</time>
      </trkpt>
      <trkpt lat="42.87486341" lon="13.67549437">
        <ele>108.00000</ele>
        <time>2024-04-19T11:09:25Z</time>
      </trkpt>
      <trkpt lat="42.87494245" lon="13.67545623">
        <ele>107.00000</ele>
        <time>2024-04-19T11:09:26Z</time>
      </trkpt>
      <trkpt lat="42.87500557" lon="13.67541474">
        <ele>107.00000</ele>
        <time>2024-04-19T11:09:27Z</time>
      </trkpt>
      <trkpt lat="42.87506802" lon="13.67536897">
        <ele>108.00000</ele>
        <time>2024-04-19T11:09:28Z</time>
      </trkpt>
      <trkpt lat="42.87511755" lon="13.67533000">
        <ele>108.00000</ele>
        <time>2024-04-19T11:09:29Z</time>
      </trkpt>
      <trkpt lat="42.87517908" lon="13.67527543">
        <ele>108.00000</ele>
        <time>2024-04-19T11:09:30Z</time>
      </trkpt>
      <trkpt lat="42.87524898" lon="13.67520636">
        <ele>108.00000</ele>
        <time>2024-04-19T11:09:31Z</time>
      </trkpt>
      <trkpt lat="42.87530707" lon="13.67514467">
        <ele>108.00000</ele>
        <time>2024-04-19T11:09:32Z</time>
      </trkpt>
      <trkpt lat="42.87536574" lon="13.67507955">
        <ele>108.00000</ele>
        <time>2024-04-19T11:09:33Z</time>
      </trkpt>
      <trkpt lat="42.87542341" lon="13.67501350">
        <ele>108.00000</ele>
        <time>2024-04-19T11:09:34Z</time>
      </trkpt>
      <trkpt lat="42.87546683" lon="13.67495994">
        <ele>108.00000</ele>
        <time>2024-04-19T11:09:35Z</time>
      </trkpt>
      <trkpt lat="42.87553313" lon="13.67487469">
        <ele>108.00000</ele>
        <time>2024-04-19T11:09:36Z</time>
      </trkpt>
      <trkpt lat="42.87558903" lon="13.67480177">
        <ele>108.00000</ele>
        <time>2024-04-19T11:09:37Z</time>
      </trkpt>
      <trkpt lat="42.87564519" lon="13.67472952">
        <ele>108.00000</ele>
        <time>2024-04-19T11:09:38Z</time>
      </trkpt>
      <trkpt lat="42.87568953" lon="13.67467135">
        <ele>109.00000</ele>
        <time>2024-04-19T11:09:39Z</time>
      </trkpt>
      <trkpt lat="42.87575466" lon="13.67458443">
        <ele>110.00000</ele>
        <time>2024-04-19T11:09:40Z</time>
      </trkpt>
      <trkpt lat="42.87580755" lon="13.67451528">
        <ele>110.00000</ele>
        <time>2024-04-19T11:09:41Z</time>
      </trkpt>
      <trkpt lat="42.87585080" lon="13.67446339">
        <ele>111.00000</ele>
        <time>2024-04-19T11:09:42Z</time>
      </trkpt>
      <trkpt lat="42.87590528" lon="13.67440153">
        <ele>111.00000</ele>
        <time>2024-04-19T11:09:43Z</time>
      </trkpt>
      <trkpt lat="42.87596890" lon="13.67432534">
        <ele>112.00000</ele>
        <time>2024-04-19T11:09:44Z</time>
      </trkpt>
      <trkpt lat="42.87602188" lon="13.67425871">
        <ele>112.00000</ele>
        <time>2024-04-19T11:09:45Z</time>
      </trkpt>
      <trkpt lat="42.87607451" lon="13.67419450">
        <ele>113.00000</ele>
        <time>2024-04-19T11:09:46Z</time>
      </trkpt>
      <trkpt lat="42.87611533" lon="13.67414052">
        <ele>113.00000</ele>
        <time>2024-04-19T11:09:47Z</time>
      </trkpt>
      <trkpt lat="42.87616454" lon="13.67407171">
        <ele>113.00000</ele>
        <time>2024-04-19T11:09:48Z</time>
      </trkpt>
      <trkpt lat="42.87622447" lon="13.67398864">
        <ele>113.00000</ele>
        <time>2024-04-19T11:09:49Z</time>
      </trkpt>
      <trkpt lat="42.87627660" lon="13.67391966">
        <ele>113.00000</ele>
        <time>2024-04-19T11:09:50Z</time>
      </trkpt>
      <trkpt lat="42.87632941" lon="13.67385319">
        <ele>113.00000</ele>
        <time>2024-04-19T11:09:51Z</time>
      </trkpt>
      <trkpt lat="42.87637207" lon="13.67379862">
        <ele>112.00000</ele>
        <time>2024-04-19T11:09:52Z</time>
      </trkpt>
      <trkpt lat="42.87642488" lon="13.67373039">
        <ele>113.00000</ele>
        <time>2024-04-19T11:09:53Z</time>
      </trkpt>
      <trkpt lat="42.87648372" lon="13.67364951">
        <ele>114.00000</ele>
        <time>2024-04-19T11:09:54Z</time>
      </trkpt>
      <trkpt lat="42.87653443" lon="13.67358413">
        <ele>114.00000</ele>
        <time>2024-04-19T11:09:55Z</time>
      </trkpt>
      <trkpt lat="42.87658589" lon="13.67352085">
        <ele>115.00000</ele>
        <time>2024-04-19T11:09:56Z</time>
      </trkpt>
      <trkpt lat="42.87663937" lon="13.67345714">
        <ele>116.00000</ele>
        <time>2024-04-19T11:09:57Z</time>
      </trkpt>
      <trkpt lat="42.87669360" lon="13.67339436">
        <ele>117.00000</ele>
        <time>2024-04-19T11:09:58Z</time>
      </trkpt>
      <trkpt lat="42.87674800" lon="13.67333016">
        <ele>117.00000</ele>
        <time>2024-04-19T11:09:59Z</time>
      </trkpt>
      <trkpt lat="42.87680039" lon="13.67326679">
        <ele>118.00000</ele>
        <time>2024-04-19T11:10:00Z</time>
      </trkpt>
      <trkpt lat="42.87684221" lon="13.67321390">
        <ele>118.00000</ele>
        <time>2024-04-19T11:10:01Z</time>
      </trkpt>
      <trkpt lat="42.87689401" lon="13.67314676">
        <ele>119.00000</ele>
        <time>2024-04-19T11:10:02Z</time>
      </trkpt>
      <trkpt lat="42.87695637" lon="13.67306814">
        <ele>119.00000</ele>
        <time>2024-04-19T11:10:03Z</time>
      </trkpt>
      <trkpt lat="42.87700591" lon="13.67300368">
        <ele>119.00000</ele>
        <time>2024-04-19T11:10:04Z</time>
      </trkpt>
      <trkpt lat="42.87705671" lon="13.67293906">
        <ele>118.00000</ele>
        <time>2024-04-19T11:10:05Z</time>
      </trkpt>
      <trkpt lat="42.87709937" lon="13.67288902">
        <ele>118.00000</ele>
        <time>2024-04-19T11:10:06Z</time>
      </trkpt>
      <trkpt lat="42.87715276" lon="13.67282607">
        <ele>117.00000</ele>
        <time>2024-04-19T11:10:07Z</time>
      </trkpt>
      <trkpt lat="42.87720481" lon="13.67276354">
        <ele>117.00000</ele>
        <time>2024-04-19T11:10:08Z</time>
      </trkpt>
      <trkpt lat="42.87726701" lon="13.67268810">
        <ele>117.00000</ele>
        <time>2024-04-19T11:10:09Z</time>
      </trkpt>
      <trkpt lat="42.87730917" lon="13.67263815">
        <ele>117.00000</ele>
        <time>2024-04-19T11:10:10Z</time>
      </trkpt>
      <trkpt lat="42.87736206" lon="13.67257495">
        <ele>117.00000</ele>
        <time>2024-04-19T11:10:11Z</time>
      </trkpt>
      <trkpt lat="42.87741327" lon="13.67250773">
        <ele>117.00000</ele>
        <time>2024-04-19T11:10:12Z</time>
      </trkpt>
      <trkpt lat="42.87752450" lon="13.67234847">
        <ele>118.00000</ele>
        <time>2024-04-19T11:10:14Z</time>
      </trkpt>
      <trkpt lat="42.87756172" lon="13.67228477">
        <ele>118.00000</ele>
        <time>2024-04-19T11:10:15Z</time>
      </trkpt>
      <trkpt lat="42.87765132" lon="13.67211428">
        <ele>119.00000</ele>
        <time>2024-04-19T11:10:17Z</time>
      </trkpt>
      <trkpt lat="42.87770530" lon="13.67200867">
        <ele>119.00000</ele>
        <time>2024-04-19T11:10:18Z</time>
      </trkpt>
      <trkpt lat="42.87778954" lon="13.67184489">
        <ele>119.00000</ele>
        <time>2024-04-19T11:10:20Z</time>
      </trkpt>
      <trkpt lat="42.87784938" lon="13.67174053">
        <ele>118.00000</ele>
        <time>2024-04-19T11:10:21Z</time>
      </trkpt>
      <trkpt lat="42.87795810" lon="13.67160097">
        <ele>117.00000</ele>
        <time>2024-04-19T11:10:23Z</time>
      </trkpt>
      <trkpt lat="42.87802590" lon="13.67153232">
        <ele>116.00000</ele>
        <time>2024-04-19T11:10:24Z</time>
      </trkpt>
      <trkpt lat="42.87816169" lon="13.67140433">
        <ele>116.00000</ele>
        <time>2024-04-19T11:10:26Z</time>
      </trkpt>
      <trkpt lat="42.87824409" lon="13.67132848">
        <ele>116.00000</ele>
        <time>2024-04-19T11:10:27Z</time>
      </trkpt>
      <trkpt lat="42.87831332" lon="13.67126494">
        <ele>116.00000</ele>
        <time>2024-04-19T11:10:28Z</time>
      </trkpt>
      <trkpt lat="42.87836889" lon="13.67121582">
        <ele>117.00000</ele>
        <time>2024-04-19T11:10:29Z</time>
      </trkpt>
      <trkpt lat="42.87845120" lon="13.67114022">
        <ele>117.00000</ele>
        <time>2024-04-19T11:10:30Z</time>
      </trkpt>
      <trkpt lat="42.87852119" lon="13.67107568">
        <ele>117.00000</ele>
        <time>2024-04-19T11:10:31Z</time>
      </trkpt>
      <trkpt lat="42.87857869" lon="13.67102270">
        <ele>117.00000</ele>
        <time>2024-04-19T11:10:32Z</time>
      </trkpt>
      <trkpt lat="42.87865086" lon="13.67095389">
        <ele>117.00000</ele>
        <time>2024-04-19T11:10:33Z</time>
      </trkpt>
      <trkpt lat="42.87872479" lon="13.67088348">
        <ele>116.00000</ele>
        <time>2024-04-19T11:10:34Z</time>
      </trkpt>
      <trkpt lat="42.87881506" lon="13.67080109">
        <ele>116.00000</ele>
        <time>2024-04-19T11:10:35Z</time>
      </trkpt>
      <trkpt lat="42.87889083" lon="13.67072883">
        <ele>116.00000</ele>
        <time>2024-04-19T11:10:36Z</time>
      </trkpt>
      <trkpt lat="42.87896753" lon="13.67065667">
        <ele>115.00000</ele>
        <time>2024-04-19T11:10:37Z</time>
      </trkpt>
      <trkpt lat="42.87903157" lon="13.67060420">
        <ele>115.00000</ele>
        <time>2024-04-19T11:10:38Z</time>
      </trkpt>
      <trkpt lat="42.87911404" lon="13.67053890">
        <ele>115.00000</ele>
        <time>2024-04-19T11:10:39Z</time>
      </trkpt>
      <trkpt lat="42.87921295" lon="13.67046204">
        <ele>115.00000</ele>
        <time>2024-04-19T11:10:40Z</time>
      </trkpt>
      <trkpt lat="42.87929442" lon="13.67039423">
        <ele>114.00000</ele>
        <time>2024-04-19T11:10:41Z</time>
      </trkpt>
      <trkpt lat="42.87935905" lon="13.67033715">
        <ele>114.00000</ele>
        <time>2024-04-19T11:10:42Z</time>
      </trkpt>
      <trkpt lat="42.87943951" lon="13.67026632">
        <ele>115.00000</ele>
        <time>2024-04-19T11:10:43Z</time>
      </trkpt>
      <trkpt lat="42.87953373" lon="13.67017739">
        <ele>114.00000</ele>
        <time>2024-04-19T11:10:44Z</time>
      </trkpt>
      <trkpt lat="42.87959475" lon="13.67011092">
        <ele>114.00000</ele>
        <time>2024-04-19T11:10:45Z</time>
      </trkpt>
      <trkpt lat="42.87968032" lon="13.67000732">
        <ele>113.00000</ele>
        <time>2024-04-19T11:10:46Z</time>
      </trkpt>
      <trkpt lat="42.87973456" lon="13.66993398">
        <ele>112.00000</ele>
        <time>2024-04-19T11:10:47Z</time>
      </trkpt>
      <trkpt lat="42.87980035" lon="13.66983834">
        <ele>112.00000</ele>
        <time>2024-04-19T11:10:48Z</time>
      </trkpt>
      <trkpt lat="42.87987998" lon="13.66971815">
        <ele>111.00000</ele>
        <time>2024-04-19T11:10:49Z</time>
      </trkpt>
      <trkpt lat="42.87994435" lon="13.66961647">
        <ele>110.00000</ele>
        <time>2024-04-19T11:10:50Z</time>
      </trkpt>
      <trkpt lat="42.88000697" lon="13.66951572">
        <ele>110.00000</ele>
        <time>2024-04-19T11:10:51Z</time>
      </trkpt>
      <trkpt lat="42.88005793" lon="13.66943635">
        <ele>110.00000</ele>
        <time>2024-04-19T11:10:52Z</time>
      </trkpt>
      <trkpt lat="42.88013471" lon="13.66932034">
        <ele>111.00000</ele>
        <time>2024-04-19T11:10:53Z</time>
      </trkpt>
      <trkpt lat="42.88018466" lon="13.66924155">
        <ele>111.00000</ele>
        <time>2024-04-19T11:10:54Z</time>
      </trkpt>
      <trkpt lat="42.88024744" lon="13.66914273">
        <ele>111.00000</ele>
        <time>2024-04-19T11:10:55Z</time>
      </trkpt>
      <trkpt lat="42.88031165" lon="13.66904910">
        <ele>112.00000</ele>
        <time>2024-04-19T11:10:56Z</time>
      </trkpt>
      <trkpt lat="42.88038013" lon="13.66896277">
        <ele>113.00000</ele>
        <time>2024-04-19T11:10:57Z</time>
      </trkpt>
      <trkpt lat="42.88047216" lon="13.66887375">
        <ele>114.00000</ele>
        <time>2024-04-19T11:10:58Z</time>
      </trkpt>
      <trkpt lat="42.88055774" lon="13.66881751">
        <ele>115.00000</ele>
        <time>2024-04-19T11:10:59Z</time>
      </trkpt>
      <trkpt lat="42.88063142" lon="13.66878658">
        <ele>114.00000</ele>
        <time>2024-04-19T11:11:00Z</time>
      </trkpt>
      <trkpt lat="42.88072756" lon="13.66876588">
        <ele>114.00000</ele>
        <time>2024-04-19T11:11:01Z</time>
      </trkpt>
      <trkpt lat="42.88082445" lon="13.66876051">
        <ele>113.00000</ele>
        <time>2024-04-19T11:11:02Z</time>
      </trkpt>
      <trkpt lat="42.88092034" lon="13.66876311">
        <ele>113.00000</ele>
        <time>2024-04-19T11:11:03Z</time>
      </trkpt>
      <trkpt lat="42.88103266" lon="13.66877250">
        <ele>112.00000</ele>
        <time>2024-04-19T11:11:04Z</time>
      </trkpt>
      <trkpt lat="42.88110701" lon="13.66877895">
        <ele>111.00000</ele>
        <time>2024-04-19T11:11:05Z</time>
      </trkpt>
      <trkpt lat="42.88120122" lon="13.66878122">
        <ele>111.00000</ele>
        <time>2024-04-19T11:11:06Z</time>
      </trkpt>
      <trkpt lat="42.88131387" lon="13.66877778">
        <ele>110.00000</ele>
        <time>2024-04-19T11:11:07Z</time>
      </trkpt>
      <trkpt lat="42.88140574" lon="13.66876428">
        <ele>110.00000</ele>
        <time>2024-04-19T11:11:08Z</time>
      </trkpt>
      <trkpt lat="42.88147984" lon="13.66874719">
        <ele>110.00000</ele>
        <time>2024-04-19T11:11:09Z</time>
      </trkpt>
      <trkpt lat="42.88157070" lon="13.66871911">
        <ele>110.00000</ele>
        <time>2024-04-19T11:11:10Z</time>
      </trkpt>
      <trkpt lat="42.88166223" lon="13.66868449">
        <ele>110.00000</ele>
        <time>2024-04-19T11:11:11Z</time>
      </trkpt>
      <trkpt lat="42.88175082" lon="13.66864166">
        <ele>111.00000</ele>
        <time>2024-04-19T11:11:12Z</time>
      </trkpt>
      <trkpt lat="42.88185467" lon="13.66859036">
        <ele>111.00000</ele>
        <time>2024-04-19T11:11:13Z</time>
      </trkpt>
      <trkpt lat="42.88192433" lon="13.66855801">
        <ele>111.00000</ele>
        <time>2024-04-19T11:11:14Z</time>
      </trkpt>
      <trkpt lat="42.88201267" lon="13.66851568">
        <ele>112.00000</ele>
        <time>2024-04-19T11:11:15Z</time>
      </trkpt>
      <trkpt lat="42.88211627" lon="13.66846312">
        <ele>112.00000</ele>
        <time>2024-04-19T11:11:16Z</time>
      </trkpt>
      <trkpt lat="42.88228827" lon="13.66837151">
        <ele>113.00000</ele>
        <time>2024-04-19T11:11:18Z</time>
      </trkpt>
      <trkpt lat="42.88235566" lon="13.66833228">
        <ele>114.00000</ele>
        <time>2024-04-19T11:11:19Z</time>
      </trkpt>
      <trkpt lat="42.88244023" lon="13.66828660">
        <ele>115.00000</ele>
        <time>2024-04-19T11:11:20Z</time>
      </trkpt>
      <trkpt lat="42.88252380" lon="13.66824218">
        <ele>115.00000</ele>
        <time>2024-04-19T11:11:21Z</time>
      </trkpt>
      <trkpt lat="42.88262313" lon="13.66819155">
        <ele>115.00000</ele>
        <time>2024-04-19T11:11:22Z</time>
      </trkpt>
      <trkpt lat="42.88270619" lon="13.66814880">
        <ele>114.00000</ele>
        <time>2024-04-19T11:11:23Z</time>
      </trkpt>
      <trkpt lat="42.88276964" lon="13.66811368">
        <ele>114.00000</ele>
        <time>2024-04-19T11:11:24Z</time>
      </trkpt>
      <trkpt lat="42.88286251" lon="13.66805115">
        <ele>114.00000</ele>
        <time>2024-04-19T11:11:25Z</time>
      </trkpt>
      <trkpt lat="42.88293644" lon="13.66798611">
        <ele>114.00000</ele>
        <time>2024-04-19T11:11:26Z</time>
      </trkpt>
      <trkpt lat="42.88300543" lon="13.66791704">
        <ele>114.00000</ele>
        <time>2024-04-19T11:11:27Z</time>
      </trkpt>
      <trkpt lat="42.88306075" lon="13.66785896">
        <ele>114.00000</ele>
        <time>2024-04-19T11:11:28Z</time>
      </trkpt>
      <trkpt lat="42.88313149" lon="13.66778561">
        <ele>114.00000</ele>
        <time>2024-04-19T11:11:29Z</time>
      </trkpt>
      <trkpt lat="42.88320265" lon="13.66771143">
        <ele>114.00000</ele>
        <time>2024-04-19T11:11:30Z</time>
      </trkpt>
      <trkpt lat="42.88329251" lon="13.66762476">
        <ele>114.00000</ele>
        <time>2024-04-19T11:11:31Z</time>
      </trkpt>
      <trkpt lat="42.88335445" lon="13.66757003">
        <ele>114.00000</ele>
        <time>2024-04-19T11:11:32Z</time>
      </trkpt>
      <trkpt lat="42.88343416" lon="13.66750474">
        <ele>115.00000</ele>
        <time>2024-04-19T11:11:33Z</time>
      </trkpt>
      <trkpt lat="42.88353156" lon="13.66743039">
        <ele>116.00000</ele>
        <time>2024-04-19T11:11:34Z</time>
      </trkpt>
      <trkpt lat="42.88361337" lon="13.66737130">
        <ele>117.00000</ele>
        <time>2024-04-19T11:11:35Z</time>
      </trkpt>
      <trkpt lat="42.88367782" lon="13.66732427">
        <ele>117.00000</ele>
        <time>2024-04-19T11:11:36Z</time>
      </trkpt>
      <trkpt lat="42.88375762" lon="13.66726309">
        <ele>118.00000</ele>
        <time>2024-04-19T11:11:37Z</time>
      </trkpt>
      <trkpt lat="42.88383884" lon="13.66720307">
        <ele>118.00000</ele>
        <time>2024-04-19T11:11:38Z</time>
      </trkpt>
      <trkpt lat="42.88394068" lon="13.66713216">
        <ele>117.00000</ele>
        <time>2024-04-19T11:11:39Z</time>
      </trkpt>
      <trkpt lat="42.88402349" lon="13.66706988">
        <ele>116.00000</ele>
        <time>2024-04-19T11:11:40Z</time>
      </trkpt>
      <trkpt lat="42.88410446" lon="13.66700777">
        <ele>114.00000</ele>
        <time>2024-04-19T11:11:41Z</time>
      </trkpt>
      <trkpt lat="42.88416791" lon="13.66695681">
        <ele>113.00000</ele>
        <time>2024-04-19T11:11:42Z</time>
      </trkpt>
      <trkpt lat="42.88426506" lon="13.66687953">
        <ele>113.00000</ele>
        <time>2024-04-19T11:11:43Z</time>
      </trkpt>
      <trkpt lat="42.88434980" lon="13.66682161">
        <ele>113.00000</ele>
        <time>2024-04-19T11:11:44Z</time>
      </trkpt>
      <trkpt lat="42.88444242" lon="13.66678423">
        <ele>112.00000</ele>
        <time>2024-04-19T11:11:45Z</time>
      </trkpt>
      <trkpt lat="42.88452188" lon="13.66677643">
        <ele>112.00000</ele>
        <time>2024-04-19T11:11:46Z</time>
      </trkpt>
      <trkpt lat="42.88462431" lon="13.66679303">
        <ele>111.00000</ele>
        <time>2024-04-19T11:11:47Z</time>
      </trkpt>
      <trkpt lat="42.88474442" lon="13.66684659">
        <ele>110.00000</ele>
        <time>2024-04-19T11:11:48Z</time>
      </trkpt>
      <trkpt lat="42.88483830" lon="13.66691004">
        <ele>110.00000</ele>
        <time>2024-04-19T11:11:49Z</time>
      </trkpt>
      <trkpt lat="42.88492765" lon="13.66697626">
        <ele>110.00000</ele>
        <time>2024-04-19T11:11:50Z</time>
      </trkpt>
      <trkpt lat="42.88499194" lon="13.66702110">
        <ele>111.00000</ele>
        <time>2024-04-19T11:11:51Z</time>
      </trkpt>
      <trkpt lat="42.88507944" lon="13.66706083">
        <ele>112.00000</ele>
        <time>2024-04-19T11:11:52Z</time>
      </trkpt>
      <trkpt lat="42.88518447" lon="13.66708204">
        <ele>113.00000</ele>
        <time>2024-04-19T11:11:53Z</time>
      </trkpt>
      <trkpt lat="42.88527214" lon="13.66708187">
        <ele>114.00000</ele>
        <time>2024-04-19T11:11:54Z</time>
      </trkpt>
      <trkpt lat="42.88534155" lon="13.66708061">
        <ele>115.00000</ele>
        <time>2024-04-19T11:11:55Z</time>
      </trkpt>
      <trkpt lat="42.88542830" lon="13.66708329">
        <ele>115.00000</ele>
        <time>2024-04-19T11:11:56Z</time>
      </trkpt>
      <trkpt lat="42.88553148" lon="13.66709201">
        <ele>116.00000</ele>
        <time>2024-04-19T11:11:57Z</time>
      </trkpt>
      <trkpt lat="42.88561589" lon="13.66710232">
        <ele>117.00000</ele>
        <time>2024-04-19T11:11:58Z</time>
      </trkpt>
      <trkpt lat="42.88568219" lon="13.66711095">
        <ele>117.00000</ele>
        <time>2024-04-19T11:11:59Z</time>
      </trkpt>
      <trkpt lat="42.88576433" lon="13.66712160">
        <ele>118.00000</ele>
        <time>2024-04-19T11:12:00Z</time>
      </trkpt>
      <trkpt lat="42.88584513" lon="13.66713224">
        <ele>118.00000</ele>
        <time>2024-04-19T11:12:01Z</time>
      </trkpt>
      <trkpt lat="42.88592275" lon="13.66714239">
        <ele>118.00000</ele>
        <time>2024-04-19T11:12:02Z</time>
      </trkpt>
      <trkpt lat="42.88600137" lon="13.66715018">
        <ele>118.00000</ele>
        <time>2024-04-19T11:12:03Z</time>
      </trkpt>
      <trkpt lat="42.88607748" lon="13.66716468">
        <ele>118.00000</ele>
        <time>2024-04-19T11:12:04Z</time>
      </trkpt>
      <trkpt lat="42.88615358" lon="13.66718404">
        <ele>118.00000</ele>
        <time>2024-04-19T11:12:05Z</time>
      </trkpt>
      <trkpt lat="42.88622760" lon="13.66721011">
        <ele>119.00000</ele>
        <time>2024-04-19T11:12:06Z</time>
      </trkpt>
      <trkpt lat="42.88630077" lon="13.66724180">
        <ele>119.00000</ele>
        <time>2024-04-19T11:12:07Z</time>
      </trkpt>
      <trkpt lat="42.88637277" lon="13.66727817">
        <ele>120.00000</ele>
        <time>2024-04-19T11:12:08Z</time>
      </trkpt>
      <trkpt lat="42.88644301" lon="13.66731815">
        <ele>119.00000</ele>
        <time>2024-04-19T11:12:09Z</time>
      </trkpt>
      <trkpt lat="42.88651317" lon="13.66736006">
        <ele>118.00000</ele>
        <time>2024-04-19T11:12:10Z</time>
      </trkpt>
      <trkpt lat="42.88659447" lon="13.66741287">
        <ele>117.00000</ele>
        <time>2024-04-19T11:12:11Z</time>
      </trkpt>
      <trkpt lat="42.88666128" lon="13.66745503">
        <ele>117.00000</ele>
        <time>2024-04-19T11:12:12Z</time>
      </trkpt>
      <trkpt lat="42.88671576" lon="13.66748722">
        <ele>116.00000</ele>
        <time>2024-04-19T11:12:13Z</time>
      </trkpt>
      <trkpt lat="42.88678348" lon="13.66752946">
        <ele>116.00000</ele>
        <time>2024-04-19T11:12:14Z</time>
      </trkpt>
      <trkpt lat="42.88685197" lon="13.66757305">
        <ele>115.00000</ele>
        <time>2024-04-19T11:12:15Z</time>
      </trkpt>
      <trkpt lat="42.88693360" lon="13.66762124">
        <ele>115.00000</ele>
        <time>2024-04-19T11:12:16Z</time>
      </trkpt>
      <trkpt lat="42.88700074" lon="13.66765628">
        <ele>115.00000</ele>
        <time>2024-04-19T11:12:17Z</time>
      </trkpt>
      <trkpt lat="42.88706797" lon="13.66768629">
        <ele>115.00000</ele>
        <time>2024-04-19T11:12:18Z</time>
      </trkpt>
      <trkpt lat="42.88712262" lon="13.66770699">
        <ele>116.00000</ele>
        <time>2024-04-19T11:12:19Z</time>
      </trkpt>
      <trkpt lat="42.88718984" lon="13.66773163">
        <ele>117.00000</ele>
        <time>2024-04-19T11:12:20Z</time>
      </trkpt>
      <trkpt lat="42.88727081" lon="13.66775946">
        <ele>117.00000</ele>
        <time>2024-04-19T11:12:21Z</time>
      </trkpt>
      <trkpt lat="42.88732244" lon="13.66777715">
        <ele>118.00000</ele>
        <time>2024-04-19T11:12:22Z</time>
      </trkpt>
      <trkpt lat="42.88738799" lon="13.66779894">
        <ele>119.00000</ele>
        <time>2024-04-19T11:12:23Z</time>
      </trkpt>
      <trkpt lat="42.88745437" lon="13.66781964">
        <ele>119.00000</ele>
        <time>2024-04-19T11:12:24Z</time>
      </trkpt>
      <trkpt lat="42.88752076" lon="13.66784102">
        <ele>120.00000</ele>
        <time>2024-04-19T11:12:25Z</time>
      </trkpt>
      <trkpt lat="42.88758614" lon="13.66786507">
        <ele>120.00000</ele>
        <time>2024-04-19T11:12:26Z</time>
      </trkpt>
      <trkpt lat="42.88765059" lon="13.66788678">
        <ele>120.00000</ele>
        <time>2024-04-19T11:12:27Z</time>
      </trkpt>
      <trkpt lat="42.88771379" lon="13.66790740">
        <ele>120.00000</ele>
        <time>2024-04-19T11:12:28Z</time>
      </trkpt>
      <trkpt lat="42.88777858" lon="13.66792601">
        <ele>121.00000</ele>
        <time>2024-04-19T11:12:29Z</time>
      </trkpt>
      <trkpt lat="42.88784363" lon="13.66794286">
        <ele>121.00000</ele>
        <time>2024-04-19T11:12:30Z</time>
      </trkpt>
      <trkpt lat="42.88790943" lon="13.66795644">
        <ele>120.00000</ele>
        <time>2024-04-19T11:12:31Z</time>
      </trkpt>
      <trkpt lat="42.88797631" lon="13.66796256">
        <ele>120.00000</ele>
        <time>2024-04-19T11:12:32Z</time>
      </trkpt>
      <trkpt lat="42.88804295" lon="13.66795945">
        <ele>120.00000</ele>
        <time>2024-04-19T11:12:33Z</time>
      </trkpt>
      <trkpt lat="42.88810959" lon="13.66795208">
        <ele>120.00000</ele>
        <time>2024-04-19T11:12:34Z</time>
      </trkpt>
      <trkpt lat="42.88817656" lon="13.66794236">
        <ele>120.00000</ele>
        <time>2024-04-19T11:12:35Z</time>
      </trkpt>
      <trkpt lat="42.88824353" lon="13.66792609">
        <ele>120.00000</ele>
        <time>2024-04-19T11:12:36Z</time>
      </trkpt>
      <trkpt lat="42.88830983" lon="13.66790028">
        <ele>120.00000</ele>
        <time>2024-04-19T11:12:37Z</time>
      </trkpt>
      <trkpt lat="42.88837412" lon="13.66787689">
        <ele>120.00000</ele>
        <time>2024-04-19T11:12:38Z</time>
      </trkpt>
      <trkpt lat="42.88843682" lon="13.66785351">
        <ele>120.00000</ele>
        <time>2024-04-19T11:12:39Z</time>
      </trkpt>
      <trkpt lat="42.88849934" lon="13.66782744">
        <ele>120.00000</ele>
        <time>2024-04-19T11:12:40Z</time>
      </trkpt>
      <trkpt lat="42.88855852" lon="13.66779768">
        <ele>120.00000</ele>
        <time>2024-04-19T11:12:41Z</time>
      </trkpt>
      <trkpt lat="42.88861585" lon="13.66776424">
        <ele>121.00000</ele>
        <time>2024-04-19T11:12:42Z</time>
      </trkpt>
      <trkpt lat="42.88867268" lon="13.66772837">
        <ele>121.00000</ele>
        <time>2024-04-19T11:12:43Z</time>
      </trkpt>
      <trkpt lat="42.88873110" lon="13.66769341">
        <ele>122.00000</ele>
        <time>2024-04-19T11:12:44Z</time>
      </trkpt>
      <trkpt lat="42.88879003" lon="13.66765921">
        <ele>123.00000</ele>
        <time>2024-04-19T11:12:45Z</time>
      </trkpt>
      <trkpt lat="42.88885046" lon="13.66762904">
        <ele>123.00000</ele>
        <time>2024-04-19T11:12:46Z</time>
      </trkpt>
      <trkpt lat="42.88891634" lon="13.66760658">
        <ele>124.00000</ele>
        <time>2024-04-19T11:12:47Z</time>
      </trkpt>
      <trkpt lat="42.88898591" lon="13.66760104">
        <ele>125.00000</ele>
        <time>2024-04-19T11:12:48Z</time>
      </trkpt>
      <trkpt lat="42.88905532" lon="13.66761295">
        <ele>126.00000</ele>
        <time>2024-04-19T11:12:49Z</time>
      </trkpt>
      <trkpt lat="42.88912296" lon="13.66763859">
        <ele>126.00000</ele>
        <time>2024-04-19T11:12:50Z</time>
      </trkpt>
      <trkpt lat="42.88918750" lon="13.66767740">
        <ele>126.00000</ele>
        <time>2024-04-19T11:12:51Z</time>
      </trkpt>
      <trkpt lat="42.88924852" lon="13.66772535">
        <ele>126.00000</ele>
        <time>2024-04-19T11:12:52Z</time>
      </trkpt>
      <trkpt lat="42.88930719" lon="13.66777732">
        <ele>125.00000</ele>
        <time>2024-04-19T11:12:53Z</time>
      </trkpt>
      <trkpt lat="42.88936553" lon="13.66782702">
        <ele>125.00000</ele>
        <time>2024-04-19T11:12:54Z</time>
      </trkpt>
      <trkpt lat="42.88942462" lon="13.66786893">
        <ele>124.00000</ele>
        <time>2024-04-19T11:12:55Z</time>
      </trkpt>
      <trkpt lat="42.88948548" lon="13.66790489">
        <ele>124.00000</ele>
        <time>2024-04-19T11:12:56Z</time>
      </trkpt>
      <trkpt lat="42.88954750" lon="13.66793263">
        <ele>124.00000</ele>
        <time>2024-04-19T11:12:57Z</time>
      </trkpt>
      <trkpt lat="42.88961213" lon="13.66795350">
        <ele>124.00000</ele>
        <time>2024-04-19T11:12:58Z</time>
      </trkpt>
      <trkpt lat="42.88967952" lon="13.66796775">
        <ele>124.00000</ele>
        <time>2024-04-19T11:12:59Z</time>
      </trkpt>
      <trkpt lat="42.88974783" lon="13.66797463">
        <ele>124.00000</ele>
        <time>2024-04-19T11:13:00Z</time>
      </trkpt>
      <trkpt lat="42.88981497" lon="13.66797337">
        <ele>124.00000</ele>
        <time>2024-04-19T11:13:01Z</time>
      </trkpt>
      <trkpt lat="42.88988160" lon="13.66796767">
        <ele>125.00000</ele>
        <time>2024-04-19T11:13:02Z</time>
      </trkpt>
      <trkpt lat="42.88994782" lon="13.66795493">
        <ele>126.00000</ele>
        <time>2024-04-19T11:13:03Z</time>
      </trkpt>
      <trkpt lat="42.89001161" lon="13.66793640">
        <ele>126.00000</ele>
        <time>2024-04-19T11:13:04Z</time>
      </trkpt>
      <trkpt lat="42.89007640" lon="13.66791620">
        <ele>127.00000</ele>
        <time>2024-04-19T11:13:05Z</time>
      </trkpt>
      <trkpt lat="42.89014102" lon="13.66789542">
        <ele>127.00000</ele>
        <time>2024-04-19T11:13:06Z</time>
      </trkpt>
      <trkpt lat="42.89020808" lon="13.66787354">
        <ele>128.00000</ele>
        <time>2024-04-19T11:13:07Z</time>
      </trkpt>
      <trkpt lat="42.89027438" lon="13.66785217">
        <ele>128.00000</ele>
        <time>2024-04-19T11:13:08Z</time>
      </trkpt>
      <trkpt lat="42.89033867" lon="13.66783423">
        <ele>128.00000</ele>
        <time>2024-04-19T11:13:09Z</time>
      </trkpt>
      <trkpt lat="42.89040304" lon="13.66781881">
        <ele>129.00000</ele>
        <time>2024-04-19T11:13:10Z</time>
      </trkpt>
      <trkpt lat="42.89046691" lon="13.66780263">
        <ele>129.00000</ele>
        <time>2024-04-19T11:13:11Z</time>
      </trkpt>
      <trkpt lat="42.89052953" lon="13.66778419">
        <ele>129.00000</ele>
        <time>2024-04-19T11:13:12Z</time>
      </trkpt>
      <trkpt lat="42.89059205" lon="13.66776416">
        <ele>130.00000</ele>
        <time>2024-04-19T11:13:13Z</time>
      </trkpt>
      <trkpt lat="42.89065341" lon="13.66774320">
        <ele>130.00000</ele>
        <time>2024-04-19T11:13:14Z</time>
      </trkpt>
      <trkpt lat="42.89071493" lon="13.66772124">
        <ele>131.00000</ele>
        <time>2024-04-19T11:13:15Z</time>
      </trkpt>
      <trkpt lat="42.89077646" lon="13.66769844">
        <ele>132.00000</ele>
        <time>2024-04-19T11:13:16Z</time>
      </trkpt>
      <trkpt lat="42.89083739" lon="13.66767497">
        <ele>133.00000</ele>
        <time>2024-04-19T11:13:17Z</time>
      </trkpt>
      <trkpt lat="42.89089799" lon="13.66765016">
        <ele>133.00000</ele>
        <time>2024-04-19T11:13:18Z</time>
      </trkpt>
      <trkpt lat="42.89096019" lon="13.66762460">
        <ele>134.00000</ele>
        <time>2024-04-19T11:13:19Z</time>
      </trkpt>
      <trkpt lat="42.89102087" lon="13.66759803">
        <ele>135.00000</ele>
        <time>2024-04-19T11:13:20Z</time>
      </trkpt>
      <trkpt lat="42.89108105" lon="13.66756442">
        <ele>135.00000</ele>
        <time>2024-04-19T11:13:21Z</time>
      </trkpt>
      <trkpt lat="42.89113881" lon="13.66752938">
        <ele>136.00000</ele>
        <time>2024-04-19T11:13:22Z</time>
      </trkpt>
      <trkpt lat="42.89119580" lon="13.66749292">
        <ele>137.00000</ele>
        <time>2024-04-19T11:13:23Z</time>
      </trkpt>
      <trkpt lat="42.89125137" lon="13.66745880">
        <ele>137.00000</ele>
        <time>2024-04-19T11:13:24Z</time>
      </trkpt>
      <trkpt lat="42.89130368" lon="13.66742184">
        <ele>138.00000</ele>
        <time>2024-04-19T11:13:25Z</time>
      </trkpt>
      <trkpt lat="42.89135573" lon="13.66738219">
        <ele>139.00000</ele>
        <time>2024-04-19T11:13:26Z</time>
      </trkpt>
      <trkpt lat="42.89140678" lon="13.66734372">
        <ele>139.00000</ele>
        <time>2024-04-19T11:13:27Z</time>
      </trkpt>
      <trkpt lat="42.89145849" lon="13.66730642">
        <ele>139.00000</ele>
        <time>2024-04-19T11:13:28Z</time>
      </trkpt>
      <trkpt lat="42.89150929" lon="13.66726987">
        <ele>139.00000</ele>
        <time>2024-04-19T11:13:29Z</time>
      </trkpt>
      <trkpt lat="42.89155857" lon="13.66723417">
        <ele>140.00000</ele>
        <time>2024-04-19T11:13:30Z</time>
      </trkpt>
      <trkpt lat="42.89160291" lon="13.66720165">
        <ele>140.00000</ele>
        <time>2024-04-19T11:13:31Z</time>
      </trkpt>
      <trkpt lat="42.89164423" lon="13.66717290">
        <ele>140.00000</ele>
        <time>2024-04-19T11:13:32Z</time>
      </trkpt>
      <trkpt lat="42.89169310" lon="13.66714255">
        <ele>141.00000</ele>
        <time>2024-04-19T11:13:33Z</time>
      </trkpt>
      <trkpt lat="42.89174440" lon="13.66711556">
        <ele>141.00000</ele>
        <time>2024-04-19T11:13:34Z</time>
      </trkpt>
      <trkpt lat="42.89179821" lon="13.66709067">
        <ele>142.00000</ele>
        <time>2024-04-19T11:13:35Z</time>
      </trkpt>
      <trkpt lat="42.89185554" lon="13.66706946">
        <ele>142.00000</ele>
        <time>2024-04-19T11:13:36Z</time>
      </trkpt>
      <trkpt lat="42.89191463" lon="13.66705412">
        <ele>143.00000</ele>
        <time>2024-04-19T11:13:37Z</time>
      </trkpt>
      <trkpt lat="42.89197440" lon="13.66704205">
        <ele>143.00000</ele>
        <time>2024-04-19T11:13:38Z</time>
      </trkpt>
      <trkpt lat="42.89203911" lon="13.66703175">
        <ele>144.00000</ele>
        <time>2024-04-19T11:13:39Z</time>
      </trkpt>
      <trkpt lat="42.89210381" lon="13.66702714">
        <ele>144.00000</ele>
        <time>2024-04-19T11:13:40Z</time>
      </trkpt>
      <trkpt lat="42.89216802" lon="13.66702605">
        <ele>144.00000</ele>
        <time>2024-04-19T11:13:41Z</time>
      </trkpt>
      <trkpt lat="42.89222954" lon="13.66702605">
        <ele>144.00000</ele>
        <time>2024-04-19T11:13:42Z</time>
      </trkpt>
      <trkpt lat="42.89228981" lon="13.66703149">
        <ele>143.00000</ele>
        <time>2024-04-19T11:13:43Z</time>
      </trkpt>
      <trkpt lat="42.89234873" lon="13.66704155">
        <ele>143.00000</ele>
        <time>2024-04-19T11:13:44Z</time>
      </trkpt>
      <trkpt lat="42.89240431" lon="13.66704859">
        <ele>143.00000</ele>
        <time>2024-04-19T11:13:45Z</time>
      </trkpt>
      <trkpt lat="42.89246197" lon="13.66705731">
        <ele>143.00000</ele>
        <time>2024-04-19T11:13:46Z</time>
      </trkpt>
      <trkpt lat="42.89252408" lon="13.66707240">
        <ele>142.00000</ele>
        <time>2024-04-19T11:13:47Z</time>
      </trkpt>
      <trkpt lat="42.89258812" lon="13.66709385">
        <ele>143.00000</ele>
        <time>2024-04-19T11:13:48Z</time>
      </trkpt>
      <trkpt lat="42.89264981" lon="13.66711707">
        <ele>143.00000</ele>
        <time>2024-04-19T11:13:49Z</time>
      </trkpt>
      <trkpt lat="42.89271075" lon="13.66713467">
        <ele>143.00000</ele>
        <time>2024-04-19T11:13:50Z</time>
      </trkpt>
      <trkpt lat="42.89277043" lon="13.66715010">
        <ele>144.00000</ele>
        <time>2024-04-19T11:13:51Z</time>
      </trkpt>
      <trkpt lat="42.89282709" lon="13.66716342">
        <ele>144.00000</ele>
        <time>2024-04-19T11:13:52Z</time>
      </trkpt>
      <trkpt lat="42.89288283" lon="13.66718103">
        <ele>144.00000</ele>
        <time>2024-04-19T11:13:53Z</time>
      </trkpt>
      <trkpt lat="42.89295122" lon="13.66719452">
        <ele>145.00000</ele>
        <time>2024-04-19T11:13:54Z</time>
      </trkpt>
      <trkpt lat="42.89301518" lon="13.66721246">
        <ele>145.00000</ele>
        <time>2024-04-19T11:13:55Z</time>
      </trkpt>
      <trkpt lat="42.89307620" lon="13.66722847">
        <ele>146.00000</ele>
        <time>2024-04-19T11:13:56Z</time>
      </trkpt>
      <trkpt lat="42.89313957" lon="13.66724213">
        <ele>146.00000</ele>
        <time>2024-04-19T11:13:57Z</time>
      </trkpt>
      <trkpt lat="42.89320427" lon="13.66725713">
        <ele>146.00000</ele>
        <time>2024-04-19T11:13:58Z</time>
      </trkpt>
      <trkpt lat="42.89327250" lon="13.66726669">
        <ele>146.00000</ele>
        <time>2024-04-19T11:13:59Z</time>
      </trkpt>
      <trkpt lat="42.89333755" lon="13.66727616">
        <ele>147.00000</ele>
        <time>2024-04-19T11:14:00Z</time>
      </trkpt>
      <trkpt lat="42.89340561" lon="13.66727834">
        <ele>146.00000</ele>
        <time>2024-04-19T11:14:01Z</time>
      </trkpt>
      <trkpt lat="42.89347291" lon="13.66728513">
        <ele>146.00000</ele>
        <time>2024-04-19T11:14:02Z</time>
      </trkpt>
      <trkpt lat="42.89354098" lon="13.66729016">
        <ele>146.00000</ele>
        <time>2024-04-19T11:14:03Z</time>
      </trkpt>
      <trkpt lat="42.89361222" lon="13.66729167">
        <ele>146.00000</ele>
        <time>2024-04-19T11:14:04Z</time>
      </trkpt>
      <trkpt lat="42.89368364" lon="13.66729016">
        <ele>146.00000</ele>
        <time>2024-04-19T11:14:05Z</time>
      </trkpt>
      <trkpt lat="42.89375471" lon="13.66729008">
        <ele>146.00000</ele>
        <time>2024-04-19T11:14:06Z</time>
      </trkpt>
      <trkpt lat="42.89382370" lon="13.66729024">
        <ele>146.00000</ele>
        <time>2024-04-19T11:14:07Z</time>
      </trkpt>
      <trkpt lat="42.89389268" lon="13.66728815">
        <ele>146.00000</ele>
        <time>2024-04-19T11:14:08Z</time>
      </trkpt>
      <trkpt lat="42.89396217" lon="13.66728639">
        <ele>146.00000</ele>
        <time>2024-04-19T11:14:09Z</time>
      </trkpt>
      <trkpt lat="42.89403115" lon="13.66728547">
        <ele>147.00000</ele>
        <time>2024-04-19T11:14:10Z</time>
      </trkpt>
      <trkpt lat="42.89409921" lon="13.66728421">
        <ele>147.00000</ele>
        <time>2024-04-19T11:14:11Z</time>
      </trkpt>
      <trkpt lat="42.89423081" lon="13.66728262">
        <ele>148.00000</ele>
        <time>2024-04-19T11:14:13Z</time>
      </trkpt>
      <trkpt lat="42.89429769" lon="13.66728371">
        <ele>148.00000</ele>
        <time>2024-04-19T11:14:14Z</time>
      </trkpt>
      <trkpt lat="42.89436441" lon="13.66728655">
        <ele>149.00000</ele>
        <time>2024-04-19T11:14:15Z</time>
      </trkpt>
      <trkpt lat="42.89443071" lon="13.66729259">
        <ele>149.00000</ele>
        <time>2024-04-19T11:14:16Z</time>
      </trkpt>
      <trkpt lat="42.89449349" lon="13.66729980">
        <ele>150.00000</ele>
        <time>2024-04-19T11:14:17Z</time>
      </trkpt>
      <trkpt lat="42.89455326" lon="13.66731120">
        <ele>151.00000</ele>
        <time>2024-04-19T11:14:18Z</time>
      </trkpt>
      <trkpt lat="42.89461403" lon="13.66732276">
        <ele>152.00000</ele>
        <time>2024-04-19T11:14:19Z</time>
      </trkpt>
      <trkpt lat="42.89467354" lon="13.66733559">
        <ele>152.00000</ele>
        <time>2024-04-19T11:14:20Z</time>
      </trkpt>
      <trkpt lat="42.89473280" lon="13.66734950">
        <ele>153.00000</ele>
        <time>2024-04-19T11:14:21Z</time>
      </trkpt>
      <trkpt lat="42.89479105" lon="13.66736677">
        <ele>153.00000</ele>
        <time>2024-04-19T11:14:22Z</time>
      </trkpt>
      <trkpt lat="42.89484738" lon="13.66738798">
        <ele>152.00000</ele>
        <time>2024-04-19T11:14:23Z</time>
      </trkpt>
      <trkpt lat="42.89490723" lon="13.66740616">
        <ele>152.00000</ele>
        <time>2024-04-19T11:14:24Z</time>
      </trkpt>
      <trkpt lat="42.89496783" lon="13.66741865">
        <ele>152.00000</ele>
        <time>2024-04-19T11:14:25Z</time>
      </trkpt>
      <trkpt lat="42.89503027" lon="13.66742905">
        <ele>151.00000</ele>
        <time>2024-04-19T11:14:26Z</time>
      </trkpt>
      <trkpt lat="42.89509221" lon="13.66744506">
        <ele>150.00000</ele>
        <time>2024-04-19T11:14:27Z</time>
      </trkpt>
      <trkpt lat="42.89515357" lon="13.66746157">
        <ele>150.00000</ele>
        <time>2024-04-19T11:14:28Z</time>
      </trkpt>
      <trkpt lat="42.89521769" lon="13.66747406">
        <ele>149.00000</ele>
        <time>2024-04-19T11:14:29Z</time>
      </trkpt>
      <trkpt lat="42.89528131" lon="13.66748906">
        <ele>148.00000</ele>
        <time>2024-04-19T11:14:30Z</time>
      </trkpt>
      <trkpt lat="42.89534401" lon="13.66750700">
        <ele>148.00000</ele>
        <time>2024-04-19T11:14:31Z</time>
      </trkpt>
      <trkpt lat="42.89540913" lon="13.66752075">
        <ele>148.00000</ele>
        <time>2024-04-19T11:14:32Z</time>
      </trkpt>
      <trkpt lat="42.89547619" lon="13.66753516">
        <ele>148.00000</ele>
        <time>2024-04-19T11:14:33Z</time>
      </trkpt>
      <trkpt lat="42.89554257" lon="13.66755654">
        <ele>148.00000</ele>
        <time>2024-04-19T11:14:34Z</time>
      </trkpt>
      <trkpt lat="42.89560904" lon="13.66757950">
        <ele>148.00000</ele>
        <time>2024-04-19T11:14:35Z</time>
      </trkpt>
      <trkpt lat="42.89568180" lon="13.66760155">
        <ele>148.00000</ele>
        <time>2024-04-19T11:14:36Z</time>
      </trkpt>
      <trkpt lat="42.89575858" lon="13.66762225">
        <ele>149.00000</ele>
        <time>2024-04-19T11:14:37Z</time>
      </trkpt>
      <trkpt lat="42.89583317" lon="13.66764438">
        <ele>149.00000</ele>
        <time>2024-04-19T11:14:38Z</time>
      </trkpt>
      <trkpt lat="42.89590341" lon="13.66767296">
        <ele>149.00000</ele>
        <time>2024-04-19T11:14:39Z</time>
      </trkpt>
      <trkpt lat="42.89597072" lon="13.66770758">
        <ele>148.00000</ele>
        <time>2024-04-19T11:14:40Z</time>
      </trkpt>
      <trkpt lat="42.89603635" lon="13.66775393">
        <ele>148.00000</ele>
        <time>2024-04-19T11:14:41Z</time>
      </trkpt>
      <trkpt lat="42.89609888" lon="13.66781051">
        <ele>147.00000</ele>
        <time>2024-04-19T11:14:42Z</time>
      </trkpt>
      <trkpt lat="42.89615781" lon="13.66787538">
        <ele>148.00000</ele>
        <time>2024-04-19T11:14:43Z</time>
      </trkpt>
      <trkpt lat="42.89621187" lon="13.66794479">
        <ele>149.00000</ele>
        <time>2024-04-19T11:14:44Z</time>
      </trkpt>
      <trkpt lat="42.89626308" lon="13.66801704">
        <ele>149.00000</ele>
        <time>2024-04-19T11:14:45Z</time>
      </trkpt>
      <trkpt lat="42.89631404" lon="13.66808837">
        <ele>150.00000</ele>
        <time>2024-04-19T11:14:46Z</time>
      </trkpt>
      <trkpt lat="42.89636157" lon="13.66815467">
        <ele>151.00000</ele>
        <time>2024-04-19T11:14:47Z</time>
      </trkpt>
      <trkpt lat="42.89640516" lon="13.66822130">
        <ele>152.00000</ele>
        <time>2024-04-19T11:14:48Z</time>
      </trkpt>
      <trkpt lat="42.89645084" lon="13.66828626">
        <ele>153.00000</ele>
        <time>2024-04-19T11:14:49Z</time>
      </trkpt>
      <trkpt lat="42.89649669" lon="13.66834871">
        <ele>154.00000</ele>
        <time>2024-04-19T11:14:50Z</time>
      </trkpt>
      <trkpt lat="42.89654103" lon="13.66841057">
        <ele>154.00000</ele>
        <time>2024-04-19T11:14:51Z</time>
      </trkpt>
      <trkpt lat="42.89658252" lon="13.66847075">
        <ele>155.00000</ele>
        <time>2024-04-19T11:14:52Z</time>
      </trkpt>
      <trkpt lat="42.89662065" lon="13.66852993">
        <ele>156.00000</ele>
        <time>2024-04-19T11:14:53Z</time>
      </trkpt>
      <trkpt lat="42.89665879" lon="13.66858885">
        <ele>156.00000</ele>
        <time>2024-04-19T11:14:54Z</time>
      </trkpt>
      <trkpt lat="42.89669232" lon="13.66864593">
        <ele>157.00000</ele>
        <time>2024-04-19T11:14:55Z</time>
      </trkpt>
      <trkpt lat="42.89672384" lon="13.66870117">
        <ele>158.00000</ele>
        <time>2024-04-19T11:14:56Z</time>
      </trkpt>
      <trkpt lat="42.89675585" lon="13.66875112">
        <ele>158.00000</ele>
        <time>2024-04-19T11:14:57Z</time>
      </trkpt>
      <trkpt lat="42.89678670" lon="13.66879840">
        <ele>159.00000</ele>
        <time>2024-04-19T11:14:58Z</time>
      </trkpt>
      <trkpt lat="42.89681386" lon="13.66884299">
        <ele>159.00000</ele>
        <time>2024-04-19T11:14:59Z</time>
      </trkpt>
      <trkpt lat="42.89684269" lon="13.66888356">
        <ele>159.00000</ele>
        <time>2024-04-19T11:15:00Z</time>
      </trkpt>
      <trkpt lat="42.89687186" lon="13.66892329">
        <ele>160.00000</ele>
        <time>2024-04-19T11:15:01Z</time>
      </trkpt>
      <trkpt lat="42.89689776" lon="13.66897014">
        <ele>160.00000</ele>
        <time>2024-04-19T11:15:02Z</time>
      </trkpt>
      <trkpt lat="42.89692517" lon="13.66901515">
        <ele>160.00000</ele>
        <time>2024-04-19T11:15:03Z</time>
      </trkpt>
      <trkpt lat="42.89695241" lon="13.66905857">
        <ele>161.00000</ele>
        <time>2024-04-19T11:15:04Z</time>
      </trkpt>
      <trkpt lat="42.89697823" lon="13.66910744">
        <ele>161.00000</ele>
        <time>2024-04-19T11:15:05Z</time>
      </trkpt>
      <trkpt lat="42.89700035" lon="13.66915589">
        <ele>161.00000</ele>
        <time>2024-04-19T11:15:06Z</time>
      </trkpt>
      <trkpt lat="42.89702600" lon="13.66919989">
        <ele>161.00000</ele>
        <time>2024-04-19T11:15:07Z</time>
      </trkpt>
      <trkpt lat="42.89705157" lon="13.66924256">
        <ele>161.00000</ele>
        <time>2024-04-19T11:15:08Z</time>
      </trkpt>
      <trkpt lat="42.89707722" lon="13.66928589">
        <ele>161.00000</ele>
        <time>2024-04-19T11:15:09Z</time>
      </trkpt>
      <trkpt lat="42.89710354" lon="13.66932830">
        <ele>160.00000</ele>
        <time>2024-04-19T11:15:10Z</time>
      </trkpt>
      <trkpt lat="42.89713606" lon="13.66935973">
        <ele>160.00000</ele>
        <time>2024-04-19T11:15:11Z</time>
      </trkpt>
      <trkpt lat="42.89717260" lon="13.66937315">
        <ele>160.00000</ele>
        <time>2024-04-19T11:15:12Z</time>
      </trkpt>
      <trkpt lat="42.89720957" lon="13.66937147">
        <ele>161.00000</ele>
        <time>2024-04-19T11:15:13Z</time>
      </trkpt>
      <trkpt lat="42.89724460" lon="13.66935689">
        <ele>161.00000</ele>
        <time>2024-04-19T11:15:14Z</time>
      </trkpt>
      <trkpt lat="42.89727528" lon="13.66932696">
        <ele>162.00000</ele>
        <time>2024-04-19T11:15:15Z</time>
      </trkpt>
      <trkpt lat="42.89729808" lon="13.66928220">
        <ele>163.00000</ele>
        <time>2024-04-19T11:15:16Z</time>
      </trkpt>
      <trkpt lat="42.89730336" lon="13.66923283">
        <ele>164.00000</ele>
        <time>2024-04-19T11:15:17Z</time>
      </trkpt>
      <trkpt lat="42.89729431" lon="13.66918170">
        <ele>165.00000</ele>
        <time>2024-04-19T11:15:18Z</time>
      </trkpt>
      <trkpt lat="42.89727939" lon="13.66912814">
        <ele>166.00000</ele>
        <time>2024-04-19T11:15:19Z</time>
      </trkpt>
      <trkpt lat="42.89726581" lon="13.66907475">
        <ele>166.00000</ele>
        <time>2024-04-19T11:15:20Z</time>
      </trkpt>
      <trkpt lat="42.89725030" lon="13.66902396">
        <ele>167.00000</ele>
        <time>2024-04-19T11:15:21Z</time>
      </trkpt>
      <trkpt lat="42.89723773" lon="13.66897249">
        <ele>167.00000</ele>
        <time>2024-04-19T11:15:22Z</time>
      </trkpt>
      <trkpt lat="42.89722415" lon="13.66892119">
        <ele>168.00000</ele>
        <time>2024-04-19T11:15:23Z</time>
      </trkpt>
      <trkpt lat="42.89720487" lon="13.66887065">
        <ele>168.00000</ele>
        <time>2024-04-19T11:15:24Z</time>
      </trkpt>
      <trkpt lat="42.89719356" lon="13.66881893">
        <ele>168.00000</ele>
        <time>2024-04-19T11:15:25Z</time>
      </trkpt>
      <trkpt lat="42.89718107" lon="13.66876227">
        <ele>168.00000</ele>
        <time>2024-04-19T11:15:26Z</time>
      </trkpt>
      <trkpt lat="42.89717269" lon="13.66870980">
        <ele>168.00000</ele>
        <time>2024-04-19T11:15:27Z</time>
      </trkpt>
      <trkpt lat="42.89716816" lon="13.66865649">
        <ele>168.00000</ele>
        <time>2024-04-19T11:15:28Z</time>
      </trkpt>
      <trkpt lat="42.89716741" lon="13.66860427">
        <ele>168.00000</ele>
        <time>2024-04-19T11:15:29Z</time>
      </trkpt>
      <trkpt lat="42.89716112" lon="13.66854996">
        <ele>168.00000</ele>
        <time>2024-04-19T11:15:30Z</time>
      </trkpt>
      <trkpt lat="42.89715793" lon="13.66849615">
        <ele>168.00000</ele>
        <time>2024-04-19T11:15:31Z</time>
      </trkpt>
      <trkpt lat="42.89715777" lon="13.66843865">
        <ele>169.00000</ele>
        <time>2024-04-19T11:15:32Z</time>
      </trkpt>
      <trkpt lat="42.89716020" lon="13.66838810">
        <ele>169.00000</ele>
        <time>2024-04-19T11:15:33Z</time>
      </trkpt>
      <trkpt lat="42.89716917" lon="13.66834083">
        <ele>169.00000</ele>
        <time>2024-04-19T11:15:34Z</time>
      </trkpt>
      <trkpt lat="42.89718811" lon="13.66829129">
        <ele>170.00000</ele>
        <time>2024-04-19T11:15:35Z</time>
      </trkpt>
      <trkpt lat="42.89720672" lon="13.66823891">
        <ele>171.00000</ele>
        <time>2024-04-19T11:15:36Z</time>
      </trkpt>
      <trkpt lat="42.89722474" lon="13.66818971">
        <ele>172.00000</ele>
        <time>2024-04-19T11:15:37Z</time>
      </trkpt>
      <trkpt lat="42.89724678" lon="13.66814268">
        <ele>172.00000</ele>
        <time>2024-04-19T11:15:38Z</time>
      </trkpt>
      <trkpt lat="42.89726908" lon="13.66809901">
        <ele>173.00000</ele>
        <time>2024-04-19T11:15:39Z</time>
      </trkpt>
      <trkpt lat="42.89729112" lon="13.66805878">
        <ele>174.00000</ele>
        <time>2024-04-19T11:15:40Z</time>
      </trkpt>
      <trkpt lat="42.89731493" lon="13.66802014">
        <ele>175.00000</ele>
        <time>2024-04-19T11:15:41Z</time>
      </trkpt>
      <trkpt lat="42.89733890" lon="13.66798762">
        <ele>175.00000</ele>
        <time>2024-04-19T11:15:42Z</time>
      </trkpt>
      <trkpt lat="42.89736824" lon="13.66795644">
        <ele>176.00000</ele>
        <time>2024-04-19T11:15:43Z</time>
      </trkpt>
      <trkpt lat="42.89740017" lon="13.66793431">
        <ele>177.00000</ele>
        <time>2024-04-19T11:15:44Z</time>
      </trkpt>
      <trkpt lat="42.89743688" lon="13.66791805">
        <ele>178.00000</ele>
        <time>2024-04-19T11:15:45Z</time>
      </trkpt>
      <trkpt lat="42.89747569" lon="13.66790045">
        <ele>178.00000</ele>
        <time>2024-04-19T11:15:46Z</time>
      </trkpt>
      <trkpt lat="42.89751458" lon="13.66788737">
        <ele>179.00000</ele>
        <time>2024-04-19T11:15:47Z</time>
      </trkpt>
      <trkpt lat="42.89755767" lon="13.66788737">
        <ele>180.00000</ele>
        <time>2024-04-19T11:15:48Z</time>
      </trkpt>
      <trkpt lat="42.89759153" lon="13.66788418">
        <ele>180.00000</ele>
        <time>2024-04-19T11:15:49Z</time>
      </trkpt>
      <trkpt lat="42.89762673" lon="13.66788712">
        <ele>181.00000</ele>
        <time>2024-04-19T11:15:50Z</time>
      </trkpt>
      <trkpt lat="42.89766294" lon="13.66788879">
        <ele>181.00000</ele>
        <time>2024-04-19T11:15:51Z</time>
      </trkpt>
      <trkpt lat="42.89770117" lon="13.66788033">
        <ele>181.00000</ele>
        <time>2024-04-19T11:15:52Z</time>
      </trkpt>
      <trkpt lat="42.89774115" lon="13.66786759">
        <ele>182.00000</ele>
        <time>2024-04-19T11:15:53Z</time>
      </trkpt>
      <trkpt lat="42.89778197" lon="13.66785644">
        <ele>183.00000</ele>
        <time>2024-04-19T11:15:54Z</time>
      </trkpt>
      <trkpt lat="42.89782471" lon="13.66784546">
        <ele>183.00000</ele>
        <time>2024-04-19T11:15:55Z</time>
      </trkpt>
      <trkpt lat="42.89786520" lon="13.66783817">
        <ele>183.00000</ele>
        <time>2024-04-19T11:15:56Z</time>
      </trkpt>
      <trkpt lat="42.89790325" lon="13.66782979">
        <ele>183.00000</ele>
        <time>2024-04-19T11:15:57Z</time>
      </trkpt>
      <trkpt lat="42.89794793" lon="13.66781998">
        <ele>183.00000</ele>
        <time>2024-04-19T11:15:58Z</time>
      </trkpt>
      <trkpt lat="42.89800425" lon="13.66780850">
        <ele>183.00000</ele>
        <time>2024-04-19T11:15:59Z</time>
      </trkpt>
      <trkpt lat="42.89806301" lon="13.66779567">
        <ele>183.00000</ele>
        <time>2024-04-19T11:16:00Z</time>
      </trkpt>
      <trkpt lat="42.89812345" lon="13.66778528">
        <ele>183.00000</ele>
        <time>2024-04-19T11:16:01Z</time>
      </trkpt>
      <trkpt lat="42.89819075" lon="13.66777086">
        <ele>183.00000</ele>
        <time>2024-04-19T11:16:02Z</time>
      </trkpt>
      <trkpt lat="42.89826619" lon="13.66775636">
        <ele>183.00000</ele>
        <time>2024-04-19T11:16:03Z</time>
      </trkpt>
      <trkpt lat="42.89834959" lon="13.66773700">
        <ele>183.00000</ele>
        <time>2024-04-19T11:16:04Z</time>
      </trkpt>
      <trkpt lat="42.89843726" lon="13.66770263">
        <ele>182.00000</ele>
        <time>2024-04-19T11:16:05Z</time>
      </trkpt>
      <trkpt lat="42.89852033" lon="13.66765201">
        <ele>181.00000</ele>
        <time>2024-04-19T11:16:06Z</time>
      </trkpt>
      <trkpt lat="42.89860172" lon="13.66758705">
        <ele>180.00000</ele>
        <time>2024-04-19T11:16:07Z</time>
      </trkpt>
      <trkpt lat="42.89868093" lon="13.66751513">
        <ele>180.00000</ele>
        <time>2024-04-19T11:16:08Z</time>
      </trkpt>
      <trkpt lat="42.89876089" lon="13.66743768">
        <ele>179.00000</ele>
        <time>2024-04-19T11:16:09Z</time>
      </trkpt>
      <trkpt lat="42.89884110" lon="13.66735780">
        <ele>178.00000</ele>
        <time>2024-04-19T11:16:10Z</time>
      </trkpt>
      <trkpt lat="42.89892040" lon="13.66727331">
        <ele>178.00000</ele>
        <time>2024-04-19T11:16:11Z</time>
      </trkpt>
      <trkpt lat="42.89899650" lon="13.66718279">
        <ele>177.00000</ele>
        <time>2024-04-19T11:16:12Z</time>
      </trkpt>
      <trkpt lat="42.89907563" lon="13.66709268">
        <ele>177.00000</ele>
        <time>2024-04-19T11:16:13Z</time>
      </trkpt>
      <trkpt lat="42.89915844" lon="13.66700593">
        <ele>177.00000</ele>
        <time>2024-04-19T11:16:14Z</time>
      </trkpt>
      <trkpt lat="42.89924151" lon="13.66692094">
        <ele>178.00000</ele>
        <time>2024-04-19T11:16:15Z</time>
      </trkpt>
      <trkpt lat="42.89932851" lon="13.66684324">
        <ele>178.00000</ele>
        <time>2024-04-19T11:16:16Z</time>
      </trkpt>
      <trkpt lat="42.89942918" lon="13.66678448">
        <ele>177.00000</ele>
        <time>2024-04-19T11:16:17Z</time>
      </trkpt>
      <trkpt lat="42.89954669" lon="13.66675053">
        <ele>174.00000</ele>
        <time>2024-04-19T11:16:18Z</time>
      </trkpt>
      <trkpt lat="42.89966697" lon="13.66672991">
        <ele>170.00000</ele>
        <time>2024-04-19T11:16:19Z</time>
      </trkpt>
      <trkpt lat="42.89978818" lon="13.66670913">
        <ele>167.00000</ele>
        <time>2024-04-19T11:16:20Z</time>
      </trkpt>
      <trkpt lat="42.89990980" lon="13.66668272">
        <ele>165.00000</ele>
        <time>2024-04-19T11:16:21Z</time>
      </trkpt>
      <trkpt lat="42.90002932" lon="13.66664433">
        <ele>162.00000</ele>
        <time>2024-04-19T11:16:22Z</time>
      </trkpt>
      <trkpt lat="42.90014784" lon="13.66658859">
        <ele>161.00000</ele>
        <time>2024-04-19T11:16:23Z</time>
      </trkpt>
      <trkpt lat="42.90025798" lon="13.66650477">
        <ele>160.00000</ele>
        <time>2024-04-19T11:16:24Z</time>
      </trkpt>
      <trkpt lat="42.90034331" lon="13.66638123">
        <ele>159.00000</ele>
        <time>2024-04-19T11:16:25Z</time>
      </trkpt>
      <trkpt lat="42.90040131" lon="13.66623421">
        <ele>158.00000</ele>
        <time>2024-04-19T11:16:26Z</time>
      </trkpt>
      <trkpt lat="42.90042109" lon="13.66606481">
        <ele>158.00000</ele>
        <time>2024-04-19T11:16:27Z</time>
      </trkpt>
      <trkpt lat="42.90042973" lon="13.66588904">
        <ele>158.00000</ele>
        <time>2024-04-19T11:16:28Z</time>
      </trkpt>
      <trkpt lat="42.90043903" lon="13.66571126">
        <ele>159.00000</ele>
        <time>2024-04-19T11:16:29Z</time>
      </trkpt>
      <trkpt lat="42.90045764" lon="13.66553901">
        <ele>160.00000</ele>
        <time>2024-04-19T11:16:30Z</time>
      </trkpt>
      <trkpt lat="42.90048345" lon="13.66536987">
        <ele>161.00000</ele>
        <time>2024-04-19T11:16:31Z</time>
      </trkpt>
      <trkpt lat="42.90050634" lon="13.66520239">
        <ele>161.00000</ele>
        <time>2024-04-19T11:16:32Z</time>
      </trkpt>
      <trkpt lat="42.90052955" lon="13.66503107">
        <ele>162.00000</ele>
        <time>2024-04-19T11:16:33Z</time>
      </trkpt>
      <trkpt lat="42.90055227" lon="13.66485815">
        <ele>162.00000</ele>
        <time>2024-04-19T11:16:34Z</time>
      </trkpt>
      <trkpt lat="42.90056627" lon="13.66469931">
        <ele>162.00000</ele>
        <time>2024-04-19T11:16:35Z</time>
      </trkpt>
      <trkpt lat="42.90057406" lon="13.66458205">
        <ele>162.00000</ele>
        <time>2024-04-19T11:16:36Z</time>
      </trkpt>
      <trkpt lat="42.90058320" lon="13.66450427">
        <ele>162.00000</ele>
        <time>2024-04-19T11:16:37Z</time>
      </trkpt>
      <trkpt lat="42.90060491" lon="13.66447518">
        <ele>161.00000</ele>
        <time>2024-04-19T11:16:38Z</time>
      </trkpt>
      <trkpt lat="42.90064087" lon="13.66447753">
        <ele>159.00000</ele>
        <time>2024-04-19T11:16:39Z</time>
      </trkpt>
      <trkpt lat="42.90066626" lon="13.66455146">
        <ele>158.00000</ele>
        <time>2024-04-19T11:16:40Z</time>
      </trkpt>
      <trkpt lat="42.90066903" lon="13.66464584">
        <ele>158.00000</ele>
        <time>2024-04-19T11:16:41Z</time>
      </trkpt>
      <trkpt lat="42.90066442" lon="13.66474835">
        <ele>158.00000</ele>
        <time>2024-04-19T11:16:42Z</time>
      </trkpt>
      <trkpt lat="42.90066861" lon="13.66485564">
        <ele>157.00000</ele>
        <time>2024-04-19T11:16:43Z</time>
      </trkpt>
      <trkpt lat="42.90066601" lon="13.66496938">
        <ele>157.00000</ele>
        <time>2024-04-19T11:16:44Z</time>
      </trkpt>
      <trkpt lat="42.90066693" lon="13.66508983">
        <ele>156.00000</ele>
        <time>2024-04-19T11:16:45Z</time>
      </trkpt>
      <trkpt lat="42.90066978" lon="13.66521547">
        <ele>155.00000</ele>
        <time>2024-04-19T11:16:46Z</time>
      </trkpt>
      <trkpt lat="42.90067833" lon="13.66534363">
        <ele>153.00000</ele>
        <time>2024-04-19T11:16:47Z</time>
      </trkpt>
      <trkpt lat="42.90069342" lon="13.66547254">
        <ele>152.00000</ele>
        <time>2024-04-19T11:16:48Z</time>
      </trkpt>
      <trkpt lat="42.90072083" lon="13.66560037">
        <ele>150.00000</ele>
        <time>2024-04-19T11:16:49Z</time>
      </trkpt>
      <trkpt lat="42.90075838" lon="13.66573297">
        <ele>149.00000</ele>
        <time>2024-04-19T11:16:50Z</time>
      </trkpt>
      <trkpt lat="42.90080565" lon="13.66586582">
        <ele>147.00000</ele>
        <time>2024-04-19T11:16:51Z</time>
      </trkpt>
      <trkpt lat="42.90085938" lon="13.66599398">
        <ele>147.00000</ele>
        <time>2024-04-19T11:16:52Z</time>
      </trkpt>
      <trkpt lat="42.90092208" lon="13.66611602">
        <ele>147.00000</ele>
        <time>2024-04-19T11:16:53Z</time>
      </trkpt>
      <trkpt lat="42.90099416" lon="13.66622893">
        <ele>145.00000</ele>
        <time>2024-04-19T11:16:54Z</time>
      </trkpt>
      <trkpt lat="42.90106340" lon="13.66634133">
        <ele>143.00000</ele>
        <time>2024-04-19T11:16:55Z</time>
      </trkpt>
      <trkpt lat="42.90111998" lon="13.66644937">
        <ele>141.00000</ele>
        <time>2024-04-19T11:16:56Z</time>
      </trkpt>
      <trkpt lat="42.90114328" lon="13.66655431">
        <ele>140.00000</ele>
        <time>2024-04-19T11:16:57Z</time>
      </trkpt>
      <trkpt lat="42.90112467" lon="13.66665733">
        <ele>139.00000</ele>
        <time>2024-04-19T11:16:58Z</time>
      </trkpt>
      <trkpt lat="42.90107505" lon="13.66674441">
        <ele>139.00000</ele>
        <time>2024-04-19T11:16:59Z</time>
      </trkpt>
      <trkpt lat="42.90101210" lon="13.66683737">
        <ele>139.00000</ele>
        <time>2024-04-19T11:17:00Z</time>
      </trkpt>
      <trkpt lat="42.90096826" lon="13.66694893">
        <ele>139.00000</ele>
        <time>2024-04-19T11:17:01Z</time>
      </trkpt>
      <trkpt lat="42.90095033" lon="13.66706619">
        <ele>138.00000</ele>
        <time>2024-04-19T11:17:02Z</time>
      </trkpt>
      <trkpt lat="42.90095510" lon="13.66718974">
        <ele>137.00000</ele>
        <time>2024-04-19T11:17:03Z</time>
      </trkpt>
      <trkpt lat="42.90098779" lon="13.66730835">
        <ele>137.00000</ele>
        <time>2024-04-19T11:17:04Z</time>
      </trkpt>
      <trkpt lat="42.90104169" lon="13.66742125">
        <ele>136.00000</ele>
        <time>2024-04-19T11:17:05Z</time>
      </trkpt>
      <trkpt lat="42.90110179" lon="13.66753164">
        <ele>135.00000</ele>
        <time>2024-04-19T11:17:06Z</time>
      </trkpt>
      <trkpt lat="42.90116432" lon="13.66763608">
        <ele>135.00000</ele>
        <time>2024-04-19T11:17:07Z</time>
      </trkpt>
      <trkpt lat="42.90122500" lon="13.66773876">
        <ele>134.00000</ele>
        <time>2024-04-19T11:17:08Z</time>
      </trkpt>
      <trkpt lat="42.90128585" lon="13.66784026">
        <ele>135.00000</ele>
        <time>2024-04-19T11:17:09Z</time>
      </trkpt>
      <trkpt lat="42.90134671" lon="13.66793900">
        <ele>135.00000</ele>
        <time>2024-04-19T11:17:10Z</time>
      </trkpt>
      <trkpt lat="42.90140588" lon="13.66803598">
        <ele>135.00000</ele>
        <time>2024-04-19T11:17:11Z</time>
      </trkpt>
      <trkpt lat="42.90146481" lon="13.66813195">
        <ele>136.00000</ele>
        <time>2024-04-19T11:17:12Z</time>
      </trkpt>
      <trkpt lat="42.90152315" lon="13.66822256">
        <ele>137.00000</ele>
        <time>2024-04-19T11:17:13Z</time>
      </trkpt>
      <trkpt lat="42.90158341" lon="13.66831024">
        <ele>138.00000</ele>
        <time>2024-04-19T11:17:14Z</time>
      </trkpt>
      <trkpt lat="42.90164569" lon="13.66839297">
        <ele>139.00000</ele>
        <time>2024-04-19T11:17:15Z</time>
      </trkpt>
      <trkpt lat="42.90171132" lon="13.66846765">
        <ele>139.00000</ele>
        <time>2024-04-19T11:17:16Z</time>
      </trkpt>
      <trkpt lat="42.90178047" lon="13.66853185">
        <ele>139.00000</ele>
        <time>2024-04-19T11:17:17Z</time>
      </trkpt>
      <trkpt lat="42.90185381" lon="13.66858374">
        <ele>140.00000</ele>
        <time>2024-04-19T11:17:18Z</time>
      </trkpt>
      <trkpt lat="42.90193310" lon="13.66861433">
        <ele>140.00000</ele>
        <time>2024-04-19T11:17:19Z</time>
      </trkpt>
      <trkpt lat="42.90201801" lon="13.66861668">
        <ele>140.00000</ele>
        <time>2024-04-19T11:17:20Z</time>
      </trkpt>
      <trkpt lat="42.90210317" lon="13.66859430">
        <ele>140.00000</ele>
        <time>2024-04-19T11:17:21Z</time>
      </trkpt>
      <trkpt lat="42.90218465" lon="13.66855189">
        <ele>140.00000</ele>
        <time>2024-04-19T11:17:22Z</time>
      </trkpt>
      <trkpt lat="42.90226209" lon="13.66849992">
        <ele>140.00000</ele>
        <time>2024-04-19T11:17:23Z</time>
      </trkpt>
      <trkpt lat="42.90234264" lon="13.66845181">
        <ele>140.00000</ele>
        <time>2024-04-19T11:17:24Z</time>
      </trkpt>
      <trkpt lat="42.90242504" lon="13.66840755">
        <ele>140.00000</ele>
        <time>2024-04-19T11:17:25Z</time>
      </trkpt>
      <trkpt lat="42.90250768" lon="13.66836296">
        <ele>139.00000</ele>
        <time>2024-04-19T11:17:26Z</time>
      </trkpt>
      <trkpt lat="42.90258798" lon="13.66831954">
        <ele>139.00000</ele>
        <time>2024-04-19T11:17:27Z</time>
      </trkpt>
      <trkpt lat="42.90266619" lon="13.66827520">
        <ele>138.00000</ele>
        <time>2024-04-19T11:17:28Z</time>
      </trkpt>
      <trkpt lat="42.90274531" lon="13.66823337">
        <ele>137.00000</ele>
        <time>2024-04-19T11:17:29Z</time>
      </trkpt>
      <trkpt lat="42.90282603" lon="13.66819901">
        <ele>137.00000</ele>
        <time>2024-04-19T11:17:30Z</time>
      </trkpt>
      <trkpt lat="42.90290624" lon="13.66817847">
        <ele>136.00000</ele>
        <time>2024-04-19T11:17:31Z</time>
      </trkpt>
      <trkpt lat="42.90298361" lon="13.66818384">
        <ele>136.00000</ele>
        <time>2024-04-19T11:17:32Z</time>
      </trkpt>
      <trkpt lat="42.90305770" lon="13.66822306">
        <ele>135.00000</ele>
        <time>2024-04-19T11:17:33Z</time>
      </trkpt>
      <trkpt lat="42.90312074" lon="13.66829984">
        <ele>134.00000</ele>
        <time>2024-04-19T11:17:34Z</time>
      </trkpt>
      <trkpt lat="42.90317019" lon="13.66839439">
        <ele>134.00000</ele>
        <time>2024-04-19T11:17:35Z</time>
      </trkpt>
      <trkpt lat="42.90320824" lon="13.66849414">
        <ele>134.00000</ele>
        <time>2024-04-19T11:17:36Z</time>
      </trkpt>
      <trkpt lat="42.90323976" lon="13.66859514">
        <ele>134.00000</ele>
        <time>2024-04-19T11:17:37Z</time>
      </trkpt>
      <trkpt lat="42.90326675" lon="13.66870117">
        <ele>136.00000</ele>
        <time>2024-04-19T11:17:38Z</time>
      </trkpt>
      <trkpt lat="42.90327689" lon="13.66883126">
        <ele>139.00000</ele>
        <time>2024-04-19T11:17:39Z</time>
      </trkpt>
      <trkpt lat="42.90325535" lon="13.66893175">
        <ele>140.00000</ele>
        <time>2024-04-19T11:17:40Z</time>
      </trkpt>
      <trkpt lat="42.90321956" lon="13.66901767">
        <ele>142.00000</ele>
        <time>2024-04-19T11:17:41Z</time>
      </trkpt>
      <trkpt lat="42.90318218" lon="13.66907794">
        <ele>143.00000</ele>
        <time>2024-04-19T11:17:42Z</time>
      </trkpt>
      <trkpt lat="42.90313524" lon="13.66914625">
        <ele>143.00000</ele>
        <time>2024-04-19T11:17:43Z</time>
      </trkpt>
      <trkpt lat="42.90308796" lon="13.66920274">
        <ele>143.00000</ele>
        <time>2024-04-19T11:17:44Z</time>
      </trkpt>
      <trkpt lat="42.90303658" lon="13.66924867">
        <ele>144.00000</ele>
        <time>2024-04-19T11:17:45Z</time>
      </trkpt>
      <trkpt lat="42.90298327" lon="13.66928455">
        <ele>144.00000</ele>
        <time>2024-04-19T11:17:46Z</time>
      </trkpt>
      <trkpt lat="42.90292929" lon="13.66931372">
        <ele>144.00000</ele>
        <time>2024-04-19T11:17:47Z</time>
      </trkpt>
      <trkpt lat="42.90287976" lon="13.66934088">
        <ele>144.00000</ele>
        <time>2024-04-19T11:17:48Z</time>
      </trkpt>
      <trkpt lat="42.90283231" lon="13.66937063">
        <ele>144.00000</ele>
        <time>2024-04-19T11:17:49Z</time>
      </trkpt>
      <trkpt lat="42.90278395" lon="13.66940148">
        <ele>144.00000</ele>
        <time>2024-04-19T11:17:50Z</time>
      </trkpt>
      <trkpt lat="42.90273576" lon="13.66942897">
        <ele>144.00000</ele>
        <time>2024-04-19T11:17:51Z</time>
      </trkpt>
      <trkpt lat="42.90268236" lon="13.66946350">
        <ele>144.00000</ele>
        <time>2024-04-19T11:17:52Z</time>
      </trkpt>
      <trkpt lat="42.90264163" lon="13.66949217">
        <ele>145.00000</ele>
        <time>2024-04-19T11:17:53Z</time>
      </trkpt>
      <trkpt lat="42.90260885" lon="13.66951321">
        <ele>145.00000</ele>
        <time>2024-04-19T11:17:54Z</time>
      </trkpt>
      <trkpt lat="42.90256896" lon="13.66953810">
        <ele>146.00000</ele>
        <time>2024-04-19T11:17:55Z</time>
      </trkpt>
      <trkpt lat="42.90252998" lon="13.66955721">
        <ele>146.00000</ele>
        <time>2024-04-19T11:17:56Z</time>
      </trkpt>
      <trkpt lat="42.90248874" lon="13.66957850">
        <ele>146.00000</ele>
        <time>2024-04-19T11:17:57Z</time>
      </trkpt>
      <trkpt lat="42.90244851" lon="13.66960097">
        <ele>146.00000</ele>
        <time>2024-04-19T11:17:58Z</time>
      </trkpt>
      <trkpt lat="42.90240257" lon="13.66962796">
        <ele>146.00000</ele>
        <time>2024-04-19T11:17:59Z</time>
      </trkpt>
      <trkpt lat="42.90236963" lon="13.66965411">
        <ele>147.00000</ele>
        <time>2024-04-19T11:18:00Z</time>
      </trkpt>
      <trkpt lat="42.90234290" lon="13.66967515">
        <ele>147.00000</ele>
        <time>2024-04-19T11:18:01Z</time>
      </trkpt>
      <trkpt lat="42.90230593" lon="13.66970951">
        <ele>147.00000</ele>
        <time>2024-04-19T11:18:02Z</time>
      </trkpt>
      <trkpt lat="42.90227819" lon="13.66974337">
        <ele>147.00000</ele>
        <time>2024-04-19T11:18:03Z</time>
      </trkpt>
      <trkpt lat="42.90225371" lon="13.66978059">
        <ele>147.00000</ele>
        <time>2024-04-19T11:18:04Z</time>
      </trkpt>
      <trkpt lat="42.90223594" lon="13.66981504">
        <ele>148.00000</ele>
        <time>2024-04-19T11:18:05Z</time>
      </trkpt>
      <trkpt lat="42.90221666" lon="13.66986324">
        <ele>148.00000</ele>
        <time>2024-04-19T11:18:06Z</time>
      </trkpt>
      <trkpt lat="42.90220418" lon="13.66991470">
        <ele>149.00000</ele>
        <time>2024-04-19T11:18:07Z</time>
      </trkpt>
      <trkpt lat="42.90219990" lon="13.66996600">
        <ele>150.00000</ele>
        <time>2024-04-19T11:18:08Z</time>
      </trkpt>
      <trkpt lat="42.90220191" lon="13.67001352">
        <ele>151.00000</ele>
        <time>2024-04-19T11:18:09Z</time>
      </trkpt>
      <trkpt lat="42.90220962" lon="13.67006180">
        <ele>152.00000</ele>
        <time>2024-04-19T11:18:10Z</time>
      </trkpt>
      <trkpt lat="42.90222303" lon="13.67011025">
        <ele>153.00000</ele>
        <time>2024-04-19T11:18:11Z</time>
      </trkpt>
      <trkpt lat="42.90224097" lon="13.67016750">
        <ele>154.00000</ele>
        <time>2024-04-19T11:18:12Z</time>
      </trkpt>
      <trkpt lat="42.90225782" lon="13.67021393">
        <ele>155.00000</ele>
        <time>2024-04-19T11:18:13Z</time>
      </trkpt>
      <trkpt lat="42.90227618" lon="13.67026121">
        <ele>156.00000</ele>
        <time>2024-04-19T11:18:14Z</time>
      </trkpt>
      <trkpt lat="42.90228992" lon="13.67030094">
        <ele>156.00000</ele>
        <time>2024-04-19T11:18:15Z</time>
      </trkpt>
      <trkpt lat="42.90230727" lon="13.67035182">
        <ele>157.00000</ele>
        <time>2024-04-19T11:18:16Z</time>
      </trkpt>
      <trkpt lat="42.90233041" lon="13.67040865">
        <ele>158.00000</ele>
        <time>2024-04-19T11:18:17Z</time>
      </trkpt>
      <trkpt lat="42.90235279" lon="13.67045156">
        <ele>159.00000</ele>
        <time>2024-04-19T11:18:18Z</time>
      </trkpt>
      <trkpt lat="42.90237550" lon="13.67049322">
        <ele>160.00000</ele>
        <time>2024-04-19T11:18:19Z</time>
      </trkpt>
      <trkpt lat="42.90239461" lon="13.67052792">
        <ele>161.00000</ele>
        <time>2024-04-19T11:18:20Z</time>
      </trkpt>
      <trkpt lat="42.90241716" lon="13.67056983">
        <ele>161.00000</ele>
        <time>2024-04-19T11:18:21Z</time>
      </trkpt>
      <trkpt lat="42.90244817" lon="13.67061492">
        <ele>162.00000</ele>
        <time>2024-04-19T11:18:22Z</time>
      </trkpt>
      <trkpt lat="42.90247726" lon="13.67064887">
        <ele>163.00000</ele>
        <time>2024-04-19T11:18:23Z</time>
      </trkpt>
      <trkpt lat="42.90250089" lon="13.67067653">
        <ele>164.00000</ele>
        <time>2024-04-19T11:18:24Z</time>
      </trkpt>
      <trkpt lat="42.90253685" lon="13.67071953">
        <ele>165.00000</ele>
        <time>2024-04-19T11:18:25Z</time>
      </trkpt>
      <trkpt lat="42.90256594" lon="13.67075365">
        <ele>165.00000</ele>
        <time>2024-04-19T11:18:26Z</time>
      </trkpt>
      <trkpt lat="42.90259318" lon="13.67078726">
        <ele>166.00000</ele>
        <time>2024-04-19T11:18:27Z</time>
      </trkpt>
      <trkpt lat="42.90261740" lon="13.67082573">
        <ele>167.00000</ele>
        <time>2024-04-19T11:18:28Z</time>
      </trkpt>
      <trkpt lat="42.90263123" lon="13.67085825">
        <ele>167.00000</ele>
        <time>2024-04-19T11:18:29Z</time>
      </trkpt>
      <trkpt lat="42.90263601" lon="13.67090309">
        <ele>168.00000</ele>
        <time>2024-04-19T11:18:30Z</time>
      </trkpt>
      <trkpt lat="42.90262595" lon="13.67095942">
        <ele>168.00000</ele>
        <time>2024-04-19T11:18:31Z</time>
      </trkpt>
      <trkpt lat="42.90260517" lon="13.67099404">
        <ele>168.00000</ele>
        <time>2024-04-19T11:18:32Z</time>
      </trkpt>
      <trkpt lat="42.90257683" lon="13.67101147">
        <ele>168.00000</ele>
        <time>2024-04-19T11:18:33Z</time>
      </trkpt>
      <trkpt lat="42.90255127" lon="13.67101717">
        <ele>168.00000</ele>
        <time>2024-04-19T11:18:34Z</time>
      </trkpt>
      <trkpt lat="42.90251690" lon="13.67101600">
        <ele>167.00000</ele>
        <time>2024-04-19T11:18:35Z</time>
      </trkpt>
      <trkpt lat="42.90247592" lon="13.67101214">
        <ele>166.00000</ele>
        <time>2024-04-19T11:18:36Z</time>
      </trkpt>
      <trkpt lat="42.90244189" lon="13.67101072">
        <ele>165.00000</ele>
        <time>2024-04-19T11:18:37Z</time>
      </trkpt>
      <trkpt lat="42.90240802" lon="13.67101005">
        <ele>164.00000</ele>
        <time>2024-04-19T11:18:38Z</time>
      </trkpt>
      <trkpt lat="42.90238078" lon="13.67100720">
        <ele>163.00000</ele>
        <time>2024-04-19T11:18:39Z</time>
      </trkpt>
      <trkpt lat="42.90233921" lon="13.67100519">
        <ele>162.00000</ele>
        <time>2024-04-19T11:18:40Z</time>
      </trkpt>
      <trkpt lat="42.90230685" lon="13.67100921">
        <ele>161.00000</ele>
        <time>2024-04-19T11:18:41Z</time>
      </trkpt>
      <trkpt lat="42.90227584" lon="13.67101835">
        <ele>160.00000</ele>
        <time>2024-04-19T11:18:42Z</time>
      </trkpt>
      <trkpt lat="42.90224458" lon="13.67103134">
        <ele>159.00000</ele>
        <time>2024-04-19T11:18:43Z</time>
      </trkpt>
      <trkpt lat="42.90221775" lon="13.67104207">
        <ele>159.00000</ele>
        <time>2024-04-19T11:18:44Z</time>
      </trkpt>
      <trkpt lat="42.90217920" lon="13.67106637">
        <ele>158.00000</ele>
        <time>2024-04-19T11:18:45Z</time>
      </trkpt>
      <trkpt lat="42.90214818" lon="13.67109395">
        <ele>157.00000</ele>
        <time>2024-04-19T11:18:46Z</time>
      </trkpt>
      <trkpt lat="42.90212497" lon="13.67112756">
        <ele>157.00000</ele>
        <time>2024-04-19T11:18:47Z</time>
      </trkpt>
      <trkpt lat="42.90210979" lon="13.67115614">
        <ele>157.00000</ele>
        <time>2024-04-19T11:18:48Z</time>
      </trkpt>
      <trkpt lat="42.90209454" lon="13.67119872">
        <ele>158.00000</ele>
        <time>2024-04-19T11:18:49Z</time>
      </trkpt>
      <trkpt lat="42.90208163" lon="13.67124432">
        <ele>159.00000</ele>
        <time>2024-04-19T11:18:50Z</time>
      </trkpt>
      <trkpt lat="42.90207015" lon="13.67130056">
        <ele>160.00000</ele>
        <time>2024-04-19T11:18:51Z</time>
      </trkpt>
      <trkpt lat="42.90206386" lon="13.67133719">
        <ele>161.00000</ele>
        <time>2024-04-19T11:18:52Z</time>
      </trkpt>
      <trkpt lat="42.90205682" lon="13.67138413">
        <ele>162.00000</ele>
        <time>2024-04-19T11:18:53Z</time>
      </trkpt>
      <trkpt lat="42.90205162" lon="13.67144079">
        <ele>163.00000</ele>
        <time>2024-04-19T11:18:54Z</time>
      </trkpt>
      <trkpt lat="42.90204852" lon="13.67148840">
        <ele>164.00000</ele>
        <time>2024-04-19T11:18:55Z</time>
      </trkpt>
      <trkpt lat="42.90204517" lon="13.67153526">
        <ele>165.00000</ele>
        <time>2024-04-19T11:18:56Z</time>
      </trkpt>
      <trkpt lat="42.90204014" lon="13.67157281">
        <ele>166.00000</ele>
        <time>2024-04-19T11:18:57Z</time>
      </trkpt>
      <trkpt lat="42.90203302" lon="13.67162017">
        <ele>167.00000</ele>
        <time>2024-04-19T11:18:58Z</time>
      </trkpt>
      <trkpt lat="42.90202941" lon="13.67167951">
        <ele>168.00000</ele>
        <time>2024-04-19T11:18:59Z</time>
      </trkpt>
      <trkpt lat="42.90203218" lon="13.67172821">
        <ele>169.00000</ele>
        <time>2024-04-19T11:19:00Z</time>
      </trkpt>
      <trkpt lat="42.90203511" lon="13.67177783">
        <ele>170.00000</ele>
        <time>2024-04-19T11:19:01Z</time>
      </trkpt>
      <trkpt lat="42.90203763" lon="13.67181790">
        <ele>170.00000</ele>
        <time>2024-04-19T11:19:02Z</time>
      </trkpt>
      <trkpt lat="42.90204073" lon="13.67186760">
        <ele>171.00000</ele>
        <time>2024-04-19T11:19:03Z</time>
      </trkpt>
      <trkpt lat="42.90204039" lon="13.67192720">
        <ele>172.00000</ele>
        <time>2024-04-19T11:19:04Z</time>
      </trkpt>
      <trkpt lat="42.90203930" lon="13.67197707">
        <ele>172.00000</ele>
        <time>2024-04-19T11:19:05Z</time>
      </trkpt>
      <trkpt lat="42.90204157" lon="13.67201554">
        <ele>172.00000</ele>
        <time>2024-04-19T11:19:06Z</time>
      </trkpt>
      <trkpt lat="42.90204592" lon="13.67206332">
        <ele>173.00000</ele>
        <time>2024-04-19T11:19:07Z</time>
      </trkpt>
      <trkpt lat="42.90204961" lon="13.67212291">
        <ele>173.00000</ele>
        <time>2024-04-19T11:19:08Z</time>
      </trkpt>
      <trkpt lat="42.90205221" lon="13.67216340">
        <ele>174.00000</ele>
        <time>2024-04-19T11:19:09Z</time>
      </trkpt>
      <trkpt lat="42.90205481" lon="13.67221260">
        <ele>174.00000</ele>
        <time>2024-04-19T11:19:10Z</time>
      </trkpt>
      <trkpt lat="42.90205791" lon="13.67226130">
        <ele>174.00000</ele>
        <time>2024-04-19T11:19:11Z</time>
      </trkpt>
      <trkpt lat="42.90206126" lon="13.67231008">
        <ele>175.00000</ele>
        <time>2024-04-19T11:19:12Z</time>
      </trkpt>
      <trkpt lat="42.90206654" lon="13.67237001">
        <ele>175.00000</ele>
        <time>2024-04-19T11:19:13Z</time>
      </trkpt>
      <trkpt lat="42.90207308" lon="13.67242198">
        <ele>176.00000</ele>
        <time>2024-04-19T11:19:14Z</time>
      </trkpt>
      <trkpt lat="42.90207903" lon="13.67247487">
        <ele>176.00000</ele>
        <time>2024-04-19T11:19:15Z</time>
      </trkpt>
      <trkpt lat="42.90208331" lon="13.67251795">
        <ele>177.00000</ele>
        <time>2024-04-19T11:19:16Z</time>
      </trkpt>
      <trkpt lat="42.90209085" lon="13.67258316">
        <ele>178.00000</ele>
        <time>2024-04-19T11:19:17Z</time>
      </trkpt>
      <trkpt lat="42.90209747" lon="13.67263672">
        <ele>178.00000</ele>
        <time>2024-04-19T11:19:18Z</time>
      </trkpt>
      <trkpt lat="42.90210569" lon="13.67268995">
        <ele>179.00000</ele>
        <time>2024-04-19T11:19:19Z</time>
      </trkpt>
      <trkpt lat="42.90211256" lon="13.67273303">
        <ele>179.00000</ele>
        <time>2024-04-19T11:19:20Z</time>
      </trkpt>
      <trkpt lat="42.90211952" lon="13.67278651">
        <ele>180.00000</ele>
        <time>2024-04-19T11:19:21Z</time>
      </trkpt>
      <trkpt lat="42.90212572" lon="13.67284040">
        <ele>181.00000</ele>
        <time>2024-04-19T11:19:22Z</time>
      </trkpt>
      <trkpt lat="42.90213352" lon="13.67290486">
        <ele>181.00000</ele>
        <time>2024-04-19T11:19:23Z</time>
      </trkpt>
      <trkpt lat="42.90213871" lon="13.67295993">
        <ele>182.00000</ele>
        <time>2024-04-19T11:19:24Z</time>
      </trkpt>
      <trkpt lat="42.90213854" lon="13.67300595">
        <ele>182.00000</ele>
        <time>2024-04-19T11:19:25Z</time>
      </trkpt>
      <trkpt lat="42.90213444" lon="13.67306202">
        <ele>183.00000</ele>
        <time>2024-04-19T11:19:26Z</time>
      </trkpt>
      <trkpt lat="42.90212430" lon="13.67311357">
        <ele>183.00000</ele>
        <time>2024-04-19T11:19:27Z</time>
      </trkpt>
      <trkpt lat="42.90210317" lon="13.67315900">
        <ele>183.00000</ele>
        <time>2024-04-19T11:19:28Z</time>
      </trkpt>
      <trkpt lat="42.90207501" lon="13.67319605">
        <ele>184.00000</ele>
        <time>2024-04-19T11:19:29Z</time>
      </trkpt>
      <trkpt lat="42.90204165" lon="13.67321759">
        <ele>184.00000</ele>
        <time>2024-04-19T11:19:30Z</time>
      </trkpt>
      <trkpt lat="42.90200477" lon="13.67322631">
        <ele>184.00000</ele>
        <time>2024-04-19T11:19:31Z</time>
      </trkpt>
      <trkpt lat="42.90196051" lon="13.67321918">
        <ele>184.00000</ele>
        <time>2024-04-19T11:19:32Z</time>
      </trkpt>
      <trkpt lat="42.90193185" lon="13.67319907">
        <ele>184.00000</ele>
        <time>2024-04-19T11:19:33Z</time>
      </trkpt>
      <trkpt lat="42.90189639" lon="13.67317325">
        <ele>184.00000</ele>
        <time>2024-04-19T11:19:34Z</time>
      </trkpt>
      <trkpt lat="42.90185649" lon="13.67314517">
        <ele>184.00000</ele>
        <time>2024-04-19T11:19:35Z</time>
      </trkpt>
      <trkpt lat="42.90181274" lon="13.67310670">
        <ele>183.00000</ele>
        <time>2024-04-19T11:19:36Z</time>
      </trkpt>
      <trkpt lat="42.90178407" lon="13.67307811">
        <ele>183.00000</ele>
        <time>2024-04-19T11:19:37Z</time>
      </trkpt>
      <trkpt lat="42.90174954" lon="13.67304207">
        <ele>183.00000</ele>
        <time>2024-04-19T11:19:38Z</time>
      </trkpt>
      <trkpt lat="42.90171576" lon="13.67300570">
        <ele>182.00000</ele>
        <time>2024-04-19T11:19:39Z</time>
      </trkpt>
      <trkpt lat="42.90167989" lon="13.67296781">
        <ele>181.00000</ele>
        <time>2024-04-19T11:19:40Z</time>
      </trkpt>
      <trkpt lat="42.90164753" lon="13.67292925">
        <ele>181.00000</ele>
        <time>2024-04-19T11:19:41Z</time>
      </trkpt>
      <trkpt lat="42.90161644" lon="13.67289145">
        <ele>181.00000</ele>
        <time>2024-04-19T11:19:42Z</time>
      </trkpt>
      <trkpt lat="42.90158836" lon="13.67285616">
        <ele>180.00000</ele>
        <time>2024-04-19T11:19:43Z</time>
      </trkpt>
      <trkpt lat="42.90156195" lon="13.67281878">
        <ele>180.00000</ele>
        <time>2024-04-19T11:19:44Z</time>
      </trkpt>
      <trkpt lat="42.90152893" lon="13.67278508">
        <ele>180.00000</ele>
        <time>2024-04-19T11:19:45Z</time>
      </trkpt>
      <trkpt lat="42.90149909" lon="13.67274695">
        <ele>179.00000</ele>
        <time>2024-04-19T11:19:46Z</time>
      </trkpt>
      <trkpt lat="42.90147109" lon="13.67270277">
        <ele>178.00000</ele>
        <time>2024-04-19T11:19:47Z</time>
      </trkpt>
      <trkpt lat="42.90143639" lon="13.67264972">
        <ele>177.00000</ele>
        <time>2024-04-19T11:19:48Z</time>
      </trkpt>
      <trkpt lat="42.90140530" lon="13.67260739">
        <ele>176.00000</ele>
        <time>2024-04-19T11:19:49Z</time>
      </trkpt>
      <trkpt lat="42.90136699" lon="13.67257260">
        <ele>175.00000</ele>
        <time>2024-04-19T11:19:50Z</time>
      </trkpt>
      <trkpt lat="42.90133204" lon="13.67253975">
        <ele>175.00000</ele>
        <time>2024-04-19T11:19:51Z</time>
      </trkpt>
      <trkpt lat="42.90129818" lon="13.67251007">
        <ele>174.00000</ele>
        <time>2024-04-19T11:19:52Z</time>
      </trkpt>
      <trkpt lat="42.90126943" lon="13.67249239">
        <ele>174.00000</ele>
        <time>2024-04-19T11:19:53Z</time>
      </trkpt>
      <trkpt lat="42.90123581" lon="13.67247529">
        <ele>174.00000</ele>
        <time>2024-04-19T11:19:54Z</time>
      </trkpt>
      <trkpt lat="42.90119374" lon="13.67246716">
        <ele>174.00000</ele>
        <time>2024-04-19T11:19:55Z</time>
      </trkpt>
      <trkpt lat="42.90115828" lon="13.67247244">
        <ele>175.00000</ele>
        <time>2024-04-19T11:19:56Z</time>
      </trkpt>
      <trkpt lat="42.90113163" lon="13.67248510">
        <ele>176.00000</ele>
        <time>2024-04-19T11:19:57Z</time>
      </trkpt>
      <trkpt lat="42.90110439" lon="13.67251485">
        <ele>177.00000</ele>
        <time>2024-04-19T11:19:58Z</time>
      </trkpt>
      <trkpt lat="42.90108603" lon="13.67255844">
        <ele>179.00000</ele>
        <time>2024-04-19T11:19:59Z</time>
      </trkpt>
      <trkpt lat="42.90108569" lon="13.67261501">
        <ele>181.00000</ele>
        <time>2024-04-19T11:20:00Z</time>
      </trkpt>
      <trkpt lat="42.90110036" lon="13.67264988">
        <ele>182.00000</ele>
        <time>2024-04-19T11:20:01Z</time>
      </trkpt>
      <trkpt lat="42.90112785" lon="13.67268735">
        <ele>183.00000</ele>
        <time>2024-04-19T11:20:02Z</time>
      </trkpt>
      <trkpt lat="42.90115979" lon="13.67272465">
        <ele>184.00000</ele>
        <time>2024-04-19T11:20:03Z</time>
      </trkpt>
      <trkpt lat="42.90119432" lon="13.67276404">
        <ele>185.00000</ele>
        <time>2024-04-19T11:20:04Z</time>
      </trkpt>
      <trkpt lat="42.90122928" lon="13.67280671">
        <ele>186.00000</ele>
        <time>2024-04-19T11:20:05Z</time>
      </trkpt>
      <trkpt lat="42.90126507" lon="13.67284879">
        <ele>186.00000</ele>
        <time>2024-04-19T11:20:06Z</time>
      </trkpt>
      <trkpt lat="42.90130522" lon="13.67290151">
        <ele>187.00000</ele>
        <time>2024-04-19T11:20:07Z</time>
      </trkpt>
      <trkpt lat="42.90132952" lon="13.67293898">
        <ele>188.00000</ele>
        <time>2024-04-19T11:20:08Z</time>
      </trkpt>
      <trkpt lat="42.90135961" lon="13.67298399">
        <ele>189.00000</ele>
        <time>2024-04-19T11:20:09Z</time>
      </trkpt>
      <trkpt lat="42.90139297" lon="13.67304400">
        <ele>190.00000</ele>
        <time>2024-04-19T11:20:10Z</time>
      </trkpt>
      <trkpt lat="42.90141778" lon="13.67309681">
        <ele>190.00000</ele>
        <time>2024-04-19T11:20:11Z</time>
      </trkpt>
      <trkpt lat="42.90143731" lon="13.67313997">
        <ele>190.00000</ele>
        <time>2024-04-19T11:20:12Z</time>
      </trkpt>
      <trkpt lat="42.90146162" lon="13.67319177">
        <ele>190.00000</ele>
        <time>2024-04-19T11:20:13Z</time>
      </trkpt>
      <trkpt lat="42.90148534" lon="13.67324148">
        <ele>190.00000</ele>
        <time>2024-04-19T11:20:14Z</time>
      </trkpt>
      <trkpt lat="42.90151602" lon="13.67330015">
        <ele>190.00000</ele>
        <time>2024-04-19T11:20:15Z</time>
      </trkpt>
      <trkpt lat="42.90153924" lon="13.67335061">
        <ele>190.00000</ele>
        <time>2024-04-19T11:20:16Z</time>
      </trkpt>
      <trkpt lat="42.90155810" lon="13.67339126">
        <ele>190.00000</ele>
        <time>2024-04-19T11:20:17Z</time>
      </trkpt>
      <trkpt lat="42.90158098" lon="13.67344382">
        <ele>190.00000</ele>
        <time>2024-04-19T11:20:18Z</time>
      </trkpt>
      <trkpt lat="42.90160328" lon="13.67350023">
        <ele>190.00000</ele>
        <time>2024-04-19T11:20:19Z</time>
      </trkpt>
      <trkpt lat="42.90162666" lon="13.67357005">
        <ele>190.00000</ele>
        <time>2024-04-19T11:20:20Z</time>
      </trkpt>
      <trkpt lat="42.90164594" lon="13.67363006">
        <ele>190.00000</ele>
        <time>2024-04-19T11:20:21Z</time>
      </trkpt>
      <trkpt lat="42.90166061" lon="13.67367851">
        <ele>190.00000</ele>
        <time>2024-04-19T11:20:22Z</time>
      </trkpt>
      <trkpt lat="42.90167729" lon="13.67374020">
        <ele>190.00000</ele>
        <time>2024-04-19T11:20:23Z</time>
      </trkpt>
      <trkpt lat="42.90169154" lon="13.67380265">
        <ele>191.00000</ele>
        <time>2024-04-19T11:20:24Z</time>
      </trkpt>
      <trkpt lat="42.90170704" lon="13.67386652">
        <ele>191.00000</ele>
        <time>2024-04-19T11:20:25Z</time>
      </trkpt>
      <trkpt lat="42.90171978" lon="13.67393005">
        <ele>191.00000</ele>
        <time>2024-04-19T11:20:26Z</time>
      </trkpt>
      <trkpt lat="42.90173496" lon="13.67399526">
        <ele>191.00000</ele>
        <time>2024-04-19T11:20:27Z</time>
      </trkpt>
      <trkpt lat="42.90174996" lon="13.67406249">
        <ele>192.00000</ele>
        <time>2024-04-19T11:20:28Z</time>
      </trkpt>
      <trkpt lat="42.90176630" lon="13.67412845">
        <ele>192.00000</ele>
        <time>2024-04-19T11:20:29Z</time>
      </trkpt>
      <trkpt lat="42.90178089" lon="13.67419375">
        <ele>192.00000</ele>
        <time>2024-04-19T11:20:30Z</time>
      </trkpt>
      <trkpt lat="42.90179472" lon="13.67425929">
        <ele>193.00000</ele>
        <time>2024-04-19T11:20:31Z</time>
      </trkpt>
      <trkpt lat="42.90180972" lon="13.67432526">
        <ele>193.00000</ele>
        <time>2024-04-19T11:20:32Z</time>
      </trkpt>
      <trkpt lat="42.90182489" lon="13.67439114">
        <ele>194.00000</ele>
        <time>2024-04-19T11:20:33Z</time>
      </trkpt>
      <trkpt lat="42.90184074" lon="13.67445643">
        <ele>194.00000</ele>
        <time>2024-04-19T11:20:34Z</time>
      </trkpt>
      <trkpt lat="42.90185582" lon="13.67452265">
        <ele>194.00000</ele>
        <time>2024-04-19T11:20:35Z</time>
      </trkpt>
      <trkpt lat="42.90187804" lon="13.67458879">
        <ele>194.00000</ele>
        <time>2024-04-19T11:20:36Z</time>
      </trkpt>
      <trkpt lat="42.90189664" lon="13.67465173">
        <ele>194.00000</ele>
        <time>2024-04-19T11:20:37Z</time>
      </trkpt>
      <trkpt lat="42.90191852" lon="13.67471535">
        <ele>194.00000</ele>
        <time>2024-04-19T11:20:38Z</time>
      </trkpt>
      <trkpt lat="42.90194224" lon="13.67477746">
        <ele>195.00000</ele>
        <time>2024-04-19T11:20:39Z</time>
      </trkpt>
      <trkpt lat="42.90196764" lon="13.67483898">
        <ele>194.00000</ele>
        <time>2024-04-19T11:20:40Z</time>
      </trkpt>
      <trkpt lat="42.90199773" lon="13.67489556">
        <ele>194.00000</ele>
        <time>2024-04-19T11:20:41Z</time>
      </trkpt>
      <trkpt lat="42.90202992" lon="13.67494745">
        <ele>194.00000</ele>
        <time>2024-04-19T11:20:42Z</time>
      </trkpt>
      <trkpt lat="42.90206135" lon="13.67499908">
        <ele>194.00000</ele>
        <time>2024-04-19T11:20:43Z</time>
      </trkpt>
      <trkpt lat="42.90209613" lon="13.67504769">
        <ele>195.00000</ele>
        <time>2024-04-19T11:20:44Z</time>
      </trkpt>
      <trkpt lat="42.90213067" lon="13.67509287">
        <ele>195.00000</ele>
        <time>2024-04-19T11:20:45Z</time>
      </trkpt>
      <trkpt lat="42.90216637" lon="13.67513495">
        <ele>195.00000</ele>
        <time>2024-04-19T11:20:46Z</time>
      </trkpt>
      <trkpt lat="42.90220107" lon="13.67517661">
        <ele>195.00000</ele>
        <time>2024-04-19T11:20:47Z</time>
      </trkpt>
      <trkpt lat="42.90223469" lon="13.67521575">
        <ele>195.00000</ele>
        <time>2024-04-19T11:20:48Z</time>
      </trkpt>
      <trkpt lat="42.90226821" lon="13.67525020">
        <ele>196.00000</ele>
        <time>2024-04-19T11:20:49Z</time>
      </trkpt>
      <trkpt lat="42.90230627" lon="13.67528054">
        <ele>196.00000</ele>
        <time>2024-04-19T11:20:50Z</time>
      </trkpt>
      <trkpt lat="42.90235212" lon="13.67530100">
        <ele>196.00000</ele>
        <time>2024-04-19T11:20:51Z</time>
      </trkpt>
      <trkpt lat="42.90239763" lon="13.67530921">
        <ele>197.00000</ele>
        <time>2024-04-19T11:20:52Z</time>
      </trkpt>
      <trkpt lat="42.90244624" lon="13.67530753">
        <ele>197.00000</ele>
        <time>2024-04-19T11:20:53Z</time>
      </trkpt>
      <trkpt lat="42.90249670" lon="13.67529840">
        <ele>197.00000</ele>
        <time>2024-04-19T11:20:54Z</time>
      </trkpt>
      <trkpt lat="42.90254817" lon="13.67528541">
        <ele>198.00000</ele>
        <time>2024-04-19T11:20:55Z</time>
      </trkpt>
      <trkpt lat="42.90260206" lon="13.67527199">
        <ele>197.00000</ele>
        <time>2024-04-19T11:20:56Z</time>
      </trkpt>
      <trkpt lat="42.90265931" lon="13.67526378">
        <ele>197.00000</ele>
        <time>2024-04-19T11:20:57Z</time>
      </trkpt>
      <trkpt lat="42.90272167" lon="13.67525171">
        <ele>197.00000</ele>
        <time>2024-04-19T11:20:58Z</time>
      </trkpt>
      <trkpt lat="42.90278613" lon="13.67523034">
        <ele>197.00000</ele>
        <time>2024-04-19T11:20:59Z</time>
      </trkpt>
      <trkpt lat="42.90284715" lon="13.67520276">
        <ele>197.00000</ele>
        <time>2024-04-19T11:21:00Z</time>
      </trkpt>
      <trkpt lat="42.90290675" lon="13.67516948">
        <ele>196.00000</ele>
        <time>2024-04-19T11:21:01Z</time>
      </trkpt>
      <trkpt lat="42.90296676" lon="13.67513017">
        <ele>196.00000</ele>
        <time>2024-04-19T11:21:02Z</time>
      </trkpt>
      <trkpt lat="42.90302719" lon="13.67508843">
        <ele>196.00000</ele>
        <time>2024-04-19T11:21:03Z</time>
      </trkpt>
      <trkpt lat="42.90308780" lon="13.67505021">
        <ele>195.00000</ele>
        <time>2024-04-19T11:21:04Z</time>
      </trkpt>
      <trkpt lat="42.90314848" lon="13.67500872">
        <ele>195.00000</ele>
        <time>2024-04-19T11:21:05Z</time>
      </trkpt>
      <trkpt lat="42.90320774" lon="13.67496203">
        <ele>195.00000</ele>
        <time>2024-04-19T11:21:06Z</time>
      </trkpt>
      <trkpt lat="42.90326692" lon="13.67491543">
        <ele>195.00000</ele>
        <time>2024-04-19T11:21:07Z</time>
      </trkpt>
      <trkpt lat="42.90332760" lon="13.67486983">
        <ele>195.00000</ele>
        <time>2024-04-19T11:21:08Z</time>
      </trkpt>
      <trkpt lat="42.90339055" lon="13.67482574">
        <ele>196.00000</ele>
        <time>2024-04-19T11:21:09Z</time>
      </trkpt>
      <trkpt lat="42.90345157" lon="13.67478157">
        <ele>197.00000</ele>
        <time>2024-04-19T11:21:10Z</time>
      </trkpt>
      <trkpt lat="42.90351267" lon="13.67473714">
        <ele>198.00000</ele>
        <time>2024-04-19T11:21:11Z</time>
      </trkpt>
      <trkpt lat="42.90357495" lon="13.67469197">
        <ele>198.00000</ele>
        <time>2024-04-19T11:21:12Z</time>
      </trkpt>
      <trkpt lat="42.90363798" lon="13.67464955">
        <ele>199.00000</ele>
        <time>2024-04-19T11:21:13Z</time>
      </trkpt>
      <trkpt lat="42.90369674" lon="13.67460865">
        <ele>199.00000</ele>
        <time>2024-04-19T11:21:14Z</time>
      </trkpt>
      <trkpt lat="42.90375432" lon="13.67456959">
        <ele>200.00000</ele>
        <time>2024-04-19T11:21:15Z</time>
      </trkpt>
      <trkpt lat="42.90381266" lon="13.67453631">
        <ele>200.00000</ele>
        <time>2024-04-19T11:21:16Z</time>
      </trkpt>
      <trkpt lat="42.90387033" lon="13.67450463">
        <ele>201.00000</ele>
        <time>2024-04-19T11:21:17Z</time>
      </trkpt>
      <trkpt lat="42.90393101" lon="13.67447278">
        <ele>201.00000</ele>
        <time>2024-04-19T11:21:18Z</time>
      </trkpt>
      <trkpt lat="42.90399220" lon="13.67444378">
        <ele>201.00000</ele>
        <time>2024-04-19T11:21:19Z</time>
      </trkpt>
      <trkpt lat="42.90405616" lon="13.67441453">
        <ele>201.00000</ele>
        <time>2024-04-19T11:21:20Z</time>
      </trkpt>
      <trkpt lat="42.90411910" lon="13.67438578">
        <ele>201.00000</ele>
        <time>2024-04-19T11:21:21Z</time>
      </trkpt>
      <trkpt lat="42.90418365" lon="13.67435845">
        <ele>201.00000</ele>
        <time>2024-04-19T11:21:22Z</time>
      </trkpt>
      <trkpt lat="42.90424861" lon="13.67432895">
        <ele>201.00000</ele>
        <time>2024-04-19T11:21:23Z</time>
      </trkpt>
      <trkpt lat="42.90431407" lon="13.67429701">
        <ele>201.00000</ele>
        <time>2024-04-19T11:21:24Z</time>
      </trkpt>
      <trkpt lat="42.90437811" lon="13.67426709">
        <ele>201.00000</ele>
        <time>2024-04-19T11:21:25Z</time>
      </trkpt>
      <trkpt lat="42.90444348" lon="13.67423675">
        <ele>201.00000</ele>
        <time>2024-04-19T11:21:26Z</time>
      </trkpt>
      <trkpt lat="42.90451029" lon="13.67420758">
        <ele>201.00000</ele>
        <time>2024-04-19T11:21:27Z</time>
      </trkpt>
      <trkpt lat="42.90457810" lon="13.67417606">
        <ele>201.00000</ele>
        <time>2024-04-19T11:21:28Z</time>
      </trkpt>
      <trkpt lat="42.90464499" lon="13.67414161">
        <ele>201.00000</ele>
        <time>2024-04-19T11:21:29Z</time>
      </trkpt>
      <trkpt lat="42.90470927" lon="13.67410649">
        <ele>201.00000</ele>
        <time>2024-04-19T11:21:30Z</time>
      </trkpt>
      <trkpt lat="42.90477314" lon="13.67407028">
        <ele>201.00000</ele>
        <time>2024-04-19T11:21:31Z</time>
      </trkpt>
      <trkpt lat="42.90483769" lon="13.67403700">
        <ele>201.00000</ele>
        <time>2024-04-19T11:21:32Z</time>
      </trkpt>
      <trkpt lat="42.90490357" lon="13.67400700">
        <ele>202.00000</ele>
        <time>2024-04-19T11:21:33Z</time>
      </trkpt>
      <trkpt lat="42.90496945" lon="13.67397523">
        <ele>202.00000</ele>
        <time>2024-04-19T11:21:34Z</time>
      </trkpt>
      <trkpt lat="42.90503458" lon="13.67394321">
        <ele>202.00000</ele>
        <time>2024-04-19T11:21:35Z</time>
      </trkpt>
      <trkpt lat="42.90510029" lon="13.67390910">
        <ele>202.00000</ele>
        <time>2024-04-19T11:21:36Z</time>
      </trkpt>
      <trkpt lat="42.90516458" lon="13.67387766">
        <ele>201.00000</ele>
        <time>2024-04-19T11:21:37Z</time>
      </trkpt>
      <trkpt lat="42.90522811" lon="13.67384380">
        <ele>201.00000</ele>
        <time>2024-04-19T11:21:38Z</time>
      </trkpt>
      <trkpt lat="42.90529282" lon="13.67381178">
        <ele>202.00000</ele>
        <time>2024-04-19T11:21:39Z</time>
      </trkpt>
      <trkpt lat="42.90535787" lon="13.67378496">
        <ele>202.00000</ele>
        <time>2024-04-19T11:21:40Z</time>
      </trkpt>
      <trkpt lat="42.90542459" lon="13.67375730">
        <ele>202.00000</ele>
        <time>2024-04-19T11:21:41Z</time>
      </trkpt>
      <trkpt lat="42.90549281" lon="13.67372612">
        <ele>202.00000</ele>
        <time>2024-04-19T11:21:42Z</time>
      </trkpt>
      <trkpt lat="42.90556205" lon="13.67369326">
        <ele>202.00000</ele>
        <time>2024-04-19T11:21:43Z</time>
      </trkpt>
      <trkpt lat="42.90562835" lon="13.67365848">
        <ele>202.00000</ele>
        <time>2024-04-19T11:21:44Z</time>
      </trkpt>
      <trkpt lat="42.90569700" lon="13.67362428">
        <ele>202.00000</ele>
        <time>2024-04-19T11:21:45Z</time>
      </trkpt>
      <trkpt lat="42.90576196" lon="13.67359410">
        <ele>203.00000</ele>
        <time>2024-04-19T11:21:46Z</time>
      </trkpt>
      <trkpt lat="42.90582700" lon="13.67356418">
        <ele>203.00000</ele>
        <time>2024-04-19T11:21:47Z</time>
      </trkpt>
      <trkpt lat="42.90589464" lon="13.67353635">
        <ele>203.00000</ele>
        <time>2024-04-19T11:21:48Z</time>
      </trkpt>
      <trkpt lat="42.90596287" lon="13.67351037">
        <ele>204.00000</ele>
        <time>2024-04-19T11:21:49Z</time>
      </trkpt>
      <trkpt lat="42.90603068" lon="13.67348933">
        <ele>204.00000</ele>
        <time>2024-04-19T11:21:50Z</time>
      </trkpt>
      <trkpt lat="42.90609916" lon="13.67347223">
        <ele>204.00000</ele>
        <time>2024-04-19T11:21:51Z</time>
      </trkpt>
      <trkpt lat="42.90616672" lon="13.67345949">
        <ele>205.00000</ele>
        <time>2024-04-19T11:21:52Z</time>
      </trkpt>
      <trkpt lat="42.90623445" lon="13.67344968">
        <ele>205.00000</ele>
        <time>2024-04-19T11:21:53Z</time>
      </trkpt>
      <trkpt lat="42.90630309" lon="13.67344097">
        <ele>206.00000</ele>
        <time>2024-04-19T11:21:54Z</time>
      </trkpt>
      <trkpt lat="42.90636931" lon="13.67343191">
        <ele>206.00000</ele>
        <time>2024-04-19T11:21:55Z</time>
      </trkpt>
      <trkpt lat="42.90643469" lon="13.67342010">
        <ele>206.00000</ele>
        <time>2024-04-19T11:21:56Z</time>
      </trkpt>
      <trkpt lat="42.90649822" lon="13.67340643">
        <ele>207.00000</ele>
        <time>2024-04-19T11:21:57Z</time>
      </trkpt>
      <trkpt lat="42.90656151" lon="13.67338682">
        <ele>207.00000</ele>
        <time>2024-04-19T11:21:58Z</time>
      </trkpt>
      <trkpt lat="42.90662236" lon="13.67335983">
        <ele>207.00000</ele>
        <time>2024-04-19T11:21:59Z</time>
      </trkpt>
      <trkpt lat="42.90669520" lon="13.67331784">
        <ele>208.00000</ele>
        <time>2024-04-19T11:22:00Z</time>
      </trkpt>
      <trkpt lat="42.90675144" lon="13.67327434">
        <ele>208.00000</ele>
        <time>2024-04-19T11:22:01Z</time>
      </trkpt>
      <trkpt lat="42.90680869" lon="13.67322773">
        <ele>209.00000</ele>
        <time>2024-04-19T11:22:02Z</time>
      </trkpt>
      <trkpt lat="42.90685395" lon="13.67319035">
        <ele>209.00000</ele>
        <time>2024-04-19T11:22:03Z</time>
      </trkpt>
      <trkpt lat="42.90691087" lon="13.67314567">
        <ele>209.00000</ele>
        <time>2024-04-19T11:22:04Z</time>
      </trkpt>
      <trkpt lat="42.90696954" lon="13.67310251">
        <ele>209.00000</ele>
        <time>2024-04-19T11:22:05Z</time>
      </trkpt>
      <trkpt lat="42.90703031" lon="13.67305850">
        <ele>209.00000</ele>
        <time>2024-04-19T11:22:06Z</time>
      </trkpt>
      <trkpt lat="42.90709124" lon="13.67301240">
        <ele>208.00000</ele>
        <time>2024-04-19T11:22:07Z</time>
      </trkpt>
      <trkpt lat="42.90715101" lon="13.67296135">
        <ele>208.00000</ele>
        <time>2024-04-19T11:22:08Z</time>
      </trkpt>
      <trkpt lat="42.90721018" lon="13.67290805">
        <ele>208.00000</ele>
        <time>2024-04-19T11:22:09Z</time>
      </trkpt>
      <trkpt lat="42.90726978" lon="13.67285650">
        <ele>207.00000</ele>
        <time>2024-04-19T11:22:10Z</time>
      </trkpt>
      <trkpt lat="42.90734052" lon="13.67279715">
        <ele>207.00000</ele>
        <time>2024-04-19T11:22:11Z</time>
      </trkpt>
      <trkpt lat="42.90738863" lon="13.67275692">
        <ele>207.00000</ele>
        <time>2024-04-19T11:22:12Z</time>
      </trkpt>
      <trkpt lat="42.90745091" lon="13.67270780">
        <ele>207.00000</ele>
        <time>2024-04-19T11:22:13Z</time>
      </trkpt>
      <trkpt lat="42.90752635" lon="13.67264997">
        <ele>207.00000</ele>
        <time>2024-04-19T11:22:14Z</time>
      </trkpt>
      <trkpt lat="42.90759273" lon="13.67261317">
        <ele>208.00000</ele>
        <time>2024-04-19T11:22:15Z</time>
      </trkpt>
      <trkpt lat="42.90766281" lon="13.67258492">
        <ele>208.00000</ele>
        <time>2024-04-19T11:22:16Z</time>
      </trkpt>
      <trkpt lat="42.90771930" lon="13.67256900">
        <ele>208.00000</ele>
        <time>2024-04-19T11:22:17Z</time>
      </trkpt>
      <trkpt lat="42.90778929" lon="13.67255693">
        <ele>209.00000</ele>
        <time>2024-04-19T11:22:18Z</time>
      </trkpt>
      <trkpt lat="42.90787059" lon="13.67255483">
        <ele>208.00000</ele>
        <time>2024-04-19T11:22:19Z</time>
      </trkpt>
      <trkpt lat="42.90793924" lon="13.67255995">
        <ele>208.00000</ele>
        <time>2024-04-19T11:22:20Z</time>
      </trkpt>
      <trkpt lat="42.90801133" lon="13.67256917">
        <ele>208.00000</ele>
        <time>2024-04-19T11:22:21Z</time>
      </trkpt>
      <trkpt lat="42.90807042" lon="13.67257612">
        <ele>207.00000</ele>
        <time>2024-04-19T11:22:22Z</time>
      </trkpt>
      <trkpt lat="42.90815751" lon="13.67258618">
        <ele>207.00000</ele>
        <time>2024-04-19T11:22:23Z</time>
      </trkpt>
      <trkpt lat="42.90823060" lon="13.67259129">
        <ele>207.00000</ele>
        <time>2024-04-19T11:22:24Z</time>
      </trkpt>
      <trkpt lat="42.90830545" lon="13.67259121">
        <ele>207.00000</ele>
        <time>2024-04-19T11:22:25Z</time>
      </trkpt>
      <trkpt lat="42.90836311" lon="13.67258702">
        <ele>207.00000</ele>
        <time>2024-04-19T11:22:26Z</time>
      </trkpt>
      <trkpt lat="42.90843637" lon="13.67257755">
        <ele>207.00000</ele>
        <time>2024-04-19T11:22:27Z</time>
      </trkpt>
      <trkpt lat="42.90852438" lon="13.67255978">
        <ele>208.00000</ele>
        <time>2024-04-19T11:22:28Z</time>
      </trkpt>
      <trkpt lat="42.90859672" lon="13.67254025">
        <ele>208.00000</ele>
        <time>2024-04-19T11:22:29Z</time>
      </trkpt>
      <trkpt lat="42.90866897" lon="13.67251569">
        <ele>208.00000</ele>
        <time>2024-04-19T11:22:30Z</time>
      </trkpt>
      <trkpt lat="42.90872504" lon="13.67249297">
        <ele>209.00000</ele>
        <time>2024-04-19T11:22:31Z</time>
      </trkpt>
      <trkpt lat="42.90881255" lon="13.67245945">
        <ele>209.00000</ele>
        <time>2024-04-19T11:22:32Z</time>
      </trkpt>
      <trkpt lat="42.90888665" lon="13.67243413">
        <ele>209.00000</ele>
        <time>2024-04-19T11:22:33Z</time>
      </trkpt>
      <trkpt lat="42.90896066" lon="13.67240790">
        <ele>210.00000</ele>
        <time>2024-04-19T11:22:34Z</time>
      </trkpt>
      <trkpt lat="42.90901866" lon="13.67238820">
        <ele>210.00000</ele>
        <time>2024-04-19T11:22:35Z</time>
      </trkpt>
      <trkpt lat="42.90909133" lon="13.67236557">
        <ele>210.00000</ele>
        <time>2024-04-19T11:22:36Z</time>
      </trkpt>
      <trkpt lat="42.90917800" lon="13.67233992">
        <ele>210.00000</ele>
        <time>2024-04-19T11:22:37Z</time>
      </trkpt>
      <trkpt lat="42.90924942" lon="13.67232173">
        <ele>211.00000</ele>
        <time>2024-04-19T11:22:38Z</time>
      </trkpt>
      <trkpt lat="42.90932184" lon="13.67230698">
        <ele>211.00000</ele>
        <time>2024-04-19T11:22:39Z</time>
      </trkpt>
      <trkpt lat="42.90939426" lon="13.67229793">
        <ele>211.00000</ele>
        <time>2024-04-19T11:22:40Z</time>
      </trkpt>
      <trkpt lat="42.90946709" lon="13.67229524">
        <ele>212.00000</ele>
        <time>2024-04-19T11:22:41Z</time>
      </trkpt>
      <trkpt lat="42.90953935" lon="13.67230346">
        <ele>212.00000</ele>
        <time>2024-04-19T11:22:42Z</time>
      </trkpt>
      <trkpt lat="42.90960950" lon="13.67232936">
        <ele>212.00000</ele>
        <time>2024-04-19T11:22:43Z</time>
      </trkpt>
      <trkpt lat="42.90966382" lon="13.67235518">
        <ele>212.00000</ele>
        <time>2024-04-19T11:22:44Z</time>
      </trkpt>
      <trkpt lat="42.90972811" lon="13.67240010">
        <ele>212.00000</ele>
        <time>2024-04-19T11:22:45Z</time>
      </trkpt>
      <trkpt lat="42.90979583" lon="13.67247093">
        <ele>212.00000</ele>
        <time>2024-04-19T11:22:46Z</time>
      </trkpt>
      <trkpt lat="42.90984285" lon="13.67254218">
        <ele>212.00000</ele>
        <time>2024-04-19T11:22:47Z</time>
      </trkpt>
      <trkpt lat="42.90988611" lon="13.67261812">
        <ele>212.00000</ele>
        <time>2024-04-19T11:22:48Z</time>
      </trkpt>
      <trkpt lat="42.90991930" lon="13.67267813">
        <ele>212.00000</ele>
        <time>2024-04-19T11:22:49Z</time>
      </trkpt>
      <trkpt lat="42.90996850" lon="13.67276673">
        <ele>212.00000</ele>
        <time>2024-04-19T11:22:50Z</time>
      </trkpt>
      <trkpt lat="42.91001083" lon="13.67283864">
        <ele>212.00000</ele>
        <time>2024-04-19T11:22:51Z</time>
      </trkpt>
      <trkpt lat="42.91004402" lon="13.67289564">
        <ele>212.00000</ele>
        <time>2024-04-19T11:22:52Z</time>
      </trkpt>
      <trkpt lat="42.91008425" lon="13.67296563">
        <ele>212.00000</ele>
        <time>2024-04-19T11:22:53Z</time>
      </trkpt>
      <trkpt lat="42.91012432" lon="13.67303738">
        <ele>212.00000</ele>
        <time>2024-04-19T11:22:54Z</time>
      </trkpt>
      <trkpt lat="42.91016338" lon="13.67310703">
        <ele>213.00000</ele>
        <time>2024-04-19T11:22:55Z</time>
      </trkpt>
      <trkpt lat="42.91019867" lon="13.67317845">
        <ele>213.00000</ele>
        <time>2024-04-19T11:22:56Z</time>
      </trkpt>
      <trkpt lat="42.91024125" lon="13.67326403">
        <ele>214.00000</ele>
        <time>2024-04-19T11:22:57Z</time>
      </trkpt>
      <trkpt lat="42.91027368" lon="13.67331574">
        <ele>214.00000</ele>
        <time>2024-04-19T11:22:58Z</time>
      </trkpt>
      <trkpt lat="42.91031467" lon="13.67337760">
        <ele>215.00000</ele>
        <time>2024-04-19T11:22:59Z</time>
      </trkpt>
      <trkpt lat="42.91035901" lon="13.67343912">
        <ele>215.00000</ele>
        <time>2024-04-19T11:23:00Z</time>
      </trkpt>
      <trkpt lat="42.91040427" lon="13.67349972">
        <ele>215.00000</ele>
        <time>2024-04-19T11:23:01Z</time>
      </trkpt>
      <trkpt lat="42.91045029" lon="13.67355932">
        <ele>214.00000</ele>
        <time>2024-04-19T11:23:02Z</time>
      </trkpt>
      <trkpt lat="42.91049790" lon="13.67361573">
        <ele>214.00000</ele>
        <time>2024-04-19T11:23:03Z</time>
      </trkpt>
      <trkpt lat="42.91055926" lon="13.67367977">
        <ele>214.00000</ele>
        <time>2024-04-19T11:23:04Z</time>
      </trkpt>
      <trkpt lat="42.91061290" lon="13.67372981">
        <ele>215.00000</ele>
        <time>2024-04-19T11:23:05Z</time>
      </trkpt>
      <trkpt lat="42.91065800" lon="13.67376677">
        <ele>215.00000</ele>
        <time>2024-04-19T11:23:06Z</time>
      </trkpt>
      <trkpt lat="42.91071675" lon="13.67380726">
        <ele>215.00000</ele>
        <time>2024-04-19T11:23:07Z</time>
      </trkpt>
      <trkpt lat="42.91077836" lon="13.67384053">
        <ele>215.00000</ele>
        <time>2024-04-19T11:23:08Z</time>
      </trkpt>
      <trkpt lat="42.91085422" lon="13.67387121">
        <ele>215.00000</ele>
        <time>2024-04-19T11:23:09Z</time>
      </trkpt>
      <trkpt lat="42.91091758" lon="13.67389476">
        <ele>215.00000</ele>
        <time>2024-04-19T11:23:10Z</time>
      </trkpt>
      <trkpt lat="42.91098321" lon="13.67391605">
        <ele>215.00000</ele>
        <time>2024-04-19T11:23:11Z</time>
      </trkpt>
      <trkpt lat="42.91103602" lon="13.67393131">
        <ele>215.00000</ele>
        <time>2024-04-19T11:23:12Z</time>
      </trkpt>
      <trkpt lat="42.91111615" lon="13.67395109">
        <ele>216.00000</ele>
        <time>2024-04-19T11:23:13Z</time>
      </trkpt>
      <trkpt lat="42.91118144" lon="13.67396676">
        <ele>216.00000</ele>
        <time>2024-04-19T11:23:14Z</time>
      </trkpt>
      <trkpt lat="42.91123291" lon="13.67397984">
        <ele>216.00000</ele>
        <time>2024-04-19T11:23:15Z</time>
      </trkpt>
      <trkpt lat="42.91129846" lon="13.67399702">
        <ele>217.00000</ele>
        <time>2024-04-19T11:23:16Z</time>
      </trkpt>
      <trkpt lat="42.91136434" lon="13.67401747">
        <ele>217.00000</ele>
        <time>2024-04-19T11:23:17Z</time>
      </trkpt>
      <trkpt lat="42.91144179" lon="13.67404983">
        <ele>217.00000</ele>
        <time>2024-04-19T11:23:18Z</time>
      </trkpt>
      <trkpt lat="42.91150499" lon="13.67408168">
        <ele>218.00000</ele>
        <time>2024-04-19T11:23:19Z</time>
      </trkpt>
      <trkpt lat="42.91156567" lon="13.67411470">
        <ele>218.00000</ele>
        <time>2024-04-19T11:23:20Z</time>
      </trkpt>
      <trkpt lat="42.91161420" lon="13.67414262">
        <ele>218.00000</ele>
        <time>2024-04-19T11:23:21Z</time>
      </trkpt>
      <trkpt lat="42.91168738" lon="13.67418478">
        <ele>219.00000</ele>
        <time>2024-04-19T11:23:22Z</time>
      </trkpt>
      <trkpt lat="42.91174798" lon="13.67422275">
        <ele>219.00000</ele>
        <time>2024-04-19T11:23:23Z</time>
      </trkpt>
      <trkpt lat="42.91179643" lon="13.67425502">
        <ele>220.00000</ele>
        <time>2024-04-19T11:23:24Z</time>
      </trkpt>
      <trkpt lat="42.91185636" lon="13.67429760">
        <ele>220.00000</ele>
        <time>2024-04-19T11:23:25Z</time>
      </trkpt>
      <trkpt lat="42.91191545" lon="13.67433691">
        <ele>221.00000</ele>
        <time>2024-04-19T11:23:26Z</time>
      </trkpt>
      <trkpt lat="42.91197630" lon="13.67437496">
        <ele>222.00000</ele>
        <time>2024-04-19T11:23:27Z</time>
      </trkpt>
      <trkpt lat="42.91204872" lon="13.67442199">
        <ele>222.00000</ele>
        <time>2024-04-19T11:23:28Z</time>
      </trkpt>
      <trkpt lat="42.91209666" lon="13.67445258">
        <ele>223.00000</ele>
        <time>2024-04-19T11:23:29Z</time>
      </trkpt>
      <trkpt lat="42.91215576" lon="13.67449223">
        <ele>223.00000</ele>
        <time>2024-04-19T11:23:30Z</time>
      </trkpt>
      <trkpt lat="42.91222658" lon="13.67454092">
        <ele>223.00000</ele>
        <time>2024-04-19T11:23:31Z</time>
      </trkpt>
      <trkpt lat="42.91227587" lon="13.67457420">
        <ele>223.00000</ele>
        <time>2024-04-19T11:23:32Z</time>
      </trkpt>
      <trkpt lat="42.91233790" lon="13.67461586">
        <ele>223.00000</ele>
        <time>2024-04-19T11:23:33Z</time>
      </trkpt>
      <trkpt lat="42.91240009" lon="13.67465819">
        <ele>223.00000</ele>
        <time>2024-04-19T11:23:34Z</time>
      </trkpt>
      <trkpt lat="42.91246170" lon="13.67470194">
        <ele>223.00000</ele>
        <time>2024-04-19T11:23:35Z</time>
      </trkpt>
      <trkpt lat="42.91252548" lon="13.67474477">
        <ele>223.00000</ele>
        <time>2024-04-19T11:23:36Z</time>
      </trkpt>
      <trkpt lat="42.91259011" lon="13.67478677">
        <ele>223.00000</ele>
        <time>2024-04-19T11:23:37Z</time>
      </trkpt>
      <trkpt lat="42.91266965" lon="13.67484083">
        <ele>222.00000</ele>
        <time>2024-04-19T11:23:38Z</time>
      </trkpt>
      <trkpt lat="42.91272346" lon="13.67488089">
        <ele>222.00000</ele>
        <time>2024-04-19T11:23:39Z</time>
      </trkpt>
      <trkpt lat="42.91280686" lon="13.67493865">
        <ele>221.00000</ele>
        <time>2024-04-19T11:23:40Z</time>
      </trkpt>
      <trkpt lat="42.91287777" lon="13.67498366">
        <ele>221.00000</ele>
        <time>2024-04-19T11:23:41Z</time>
      </trkpt>
      <trkpt lat="42.91293402" lon="13.67501953">
        <ele>222.00000</ele>
        <time>2024-04-19T11:23:42Z</time>
      </trkpt>
      <trkpt lat="42.91300317" lon="13.67506597">
        <ele>222.00000</ele>
        <time>2024-04-19T11:23:43Z</time>
      </trkpt>
      <trkpt lat="42.91307349" lon="13.67511207">
        <ele>222.00000</ele>
        <time>2024-04-19T11:23:44Z</time>
      </trkpt>
      <trkpt lat="42.91314591" lon="13.67515565">
        <ele>222.00000</ele>
        <time>2024-04-19T11:23:45Z</time>
      </trkpt>
      <trkpt lat="42.91323266" lon="13.67520762">
        <ele>222.00000</ele>
        <time>2024-04-19T11:23:46Z</time>
      </trkpt>
      <trkpt lat="42.91330609" lon="13.67524827">
        <ele>222.00000</ele>
        <time>2024-04-19T11:23:47Z</time>
      </trkpt>
      <trkpt lat="42.91336552" lon="13.67527820">
        <ele>222.00000</ele>
        <time>2024-04-19T11:23:48Z</time>
      </trkpt>
      <trkpt lat="42.91345227" lon="13.67531558">
        <ele>222.00000</ele>
        <time>2024-04-19T11:23:49Z</time>
      </trkpt>
      <trkpt lat="42.91352519" lon="13.67534106">
        <ele>222.00000</ele>
        <time>2024-04-19T11:23:50Z</time>
      </trkpt>
      <trkpt lat="42.91358504" lon="13.67535808">
        <ele>222.00000</ele>
        <time>2024-04-19T11:23:51Z</time>
      </trkpt>
      <trkpt lat="42.91365947" lon="13.67537350">
        <ele>222.00000</ele>
        <time>2024-04-19T11:23:52Z</time>
      </trkpt>
      <trkpt lat="42.91373063" lon="13.67538657">
        <ele>222.00000</ele>
        <time>2024-04-19T11:23:53Z</time>
      </trkpt>
      <trkpt lat="42.91381387" lon="13.67540024">
        <ele>222.00000</ele>
        <time>2024-04-19T11:23:54Z</time>
      </trkpt>
      <trkpt lat="42.91388050" lon="13.67541063">
        <ele>222.00000</ele>
        <time>2024-04-19T11:23:55Z</time>
      </trkpt>
      <trkpt lat="42.91393423" lon="13.67541817">
        <ele>223.00000</ele>
        <time>2024-04-19T11:23:56Z</time>
      </trkpt>
      <trkpt lat="42.91400036" lon="13.67542647">
        <ele>223.00000</ele>
        <time>2024-04-19T11:23:57Z</time>
      </trkpt>
      <trkpt lat="42.91406532" lon="13.67543720">
        <ele>224.00000</ele>
        <time>2024-04-19T11:23:58Z</time>
      </trkpt>
      <trkpt lat="42.91412835" lon="13.67545095">
        <ele>224.00000</ele>
        <time>2024-04-19T11:23:59Z</time>
      </trkpt>
      <trkpt lat="42.91418954" lon="13.67546704">
        <ele>224.00000</ele>
        <time>2024-04-19T11:24:00Z</time>
      </trkpt>
      <trkpt lat="42.91424905" lon="13.67548850">
        <ele>225.00000</ele>
        <time>2024-04-19T11:24:01Z</time>
      </trkpt>
      <trkpt lat="42.91430689" lon="13.67551423">
        <ele>225.00000</ele>
        <time>2024-04-19T11:24:02Z</time>
      </trkpt>
      <trkpt lat="42.91436456" lon="13.67554340">
        <ele>226.00000</ele>
        <time>2024-04-19T11:24:03Z</time>
      </trkpt>
      <trkpt lat="42.91443052" lon="13.67558439">
        <ele>226.00000</ele>
        <time>2024-04-19T11:24:04Z</time>
      </trkpt>
      <trkpt lat="42.91448383" lon="13.67562546">
        <ele>227.00000</ele>
        <time>2024-04-19T11:24:05Z</time>
      </trkpt>
      <trkpt lat="42.91452633" lon="13.67565991">
        <ele>227.00000</ele>
        <time>2024-04-19T11:24:06Z</time>
      </trkpt>
      <trkpt lat="42.91459187" lon="13.67570961">
        <ele>228.00000</ele>
        <time>2024-04-19T11:24:07Z</time>
      </trkpt>
      <trkpt lat="42.91464686" lon="13.67574851">
        <ele>228.00000</ele>
        <time>2024-04-19T11:24:08Z</time>
      </trkpt>
      <trkpt lat="42.91468910" lon="13.67578295">
        <ele>228.00000</ele>
        <time>2024-04-19T11:24:09Z</time>
      </trkpt>
      <trkpt lat="42.91474090" lon="13.67582587">
        <ele>228.00000</ele>
        <time>2024-04-19T11:24:10Z</time>
      </trkpt>
      <trkpt lat="42.91479304" lon="13.67586778">
        <ele>229.00000</ele>
        <time>2024-04-19T11:24:11Z</time>
      </trkpt>
      <trkpt lat="42.91485439" lon="13.67591606">
        <ele>229.00000</ele>
        <time>2024-04-19T11:24:12Z</time>
      </trkpt>
      <trkpt lat="42.91490075" lon="13.67595897">
        <ele>229.00000</ele>
        <time>2024-04-19T11:24:13Z</time>
      </trkpt>
      <trkpt lat="42.91494769" lon="13.67600491">
        <ele>229.00000</ele>
        <time>2024-04-19T11:24:14Z</time>
      </trkpt>
      <trkpt lat="42.91498557" lon="13.67604170">
        <ele>229.00000</ele>
        <time>2024-04-19T11:24:15Z</time>
      </trkpt>
      <trkpt lat="42.91504341" lon="13.67609216">
        <ele>229.00000</ele>
        <time>2024-04-19T11:24:16Z</time>
      </trkpt>
      <trkpt lat="42.91509420" lon="13.67612292">
        <ele>229.00000</ele>
        <time>2024-04-19T11:24:17Z</time>
      </trkpt>
      <trkpt lat="42.91513443" lon="13.67614212">
        <ele>230.00000</ele>
        <time>2024-04-19T11:24:18Z</time>
      </trkpt>
      <trkpt lat="42.91518447" lon="13.67616928">
        <ele>230.00000</ele>
        <time>2024-04-19T11:24:19Z</time>
      </trkpt>
      <trkpt lat="42.91523661" lon="13.67619694">
        <ele>231.00000</ele>
        <time>2024-04-19T11:24:20Z</time>
      </trkpt>
      <trkpt lat="42.91528967" lon="13.67622636">
        <ele>231.00000</ele>
        <time>2024-04-19T11:24:21Z</time>
      </trkpt>
      <trkpt lat="42.91534004" lon="13.67625695">
        <ele>232.00000</ele>
        <time>2024-04-19T11:24:22Z</time>
      </trkpt>
      <trkpt lat="42.91540249" lon="13.67629199">
        <ele>232.00000</ele>
        <time>2024-04-19T11:24:23Z</time>
      </trkpt>
      <trkpt lat="42.91544364" lon="13.67631454">
        <ele>233.00000</ele>
        <time>2024-04-19T11:24:24Z</time>
      </trkpt>
      <trkpt lat="42.91549578" lon="13.67634404">
        <ele>234.00000</ele>
        <time>2024-04-19T11:24:25Z</time>
      </trkpt>
      <trkpt lat="42.91554875" lon="13.67636642">
        <ele>234.00000</ele>
        <time>2024-04-19T11:24:26Z</time>
      </trkpt>
      <trkpt lat="42.91561053" lon="13.67639190">
        <ele>235.00000</ele>
        <time>2024-04-19T11:24:27Z</time>
      </trkpt>
      <trkpt lat="42.91565076" lon="13.67640866">
        <ele>235.00000</ele>
        <time>2024-04-19T11:24:28Z</time>
      </trkpt>
      <trkpt lat="42.91569937" lon="13.67643171">
        <ele>236.00000</ele>
        <time>2024-04-19T11:24:29Z</time>
      </trkpt>
      <trkpt lat="42.91575595" lon="13.67646038">
        <ele>236.00000</ele>
        <time>2024-04-19T11:24:30Z</time>
      </trkpt>
      <trkpt lat="42.91580297" lon="13.67648628">
        <ele>237.00000</ele>
        <time>2024-04-19T11:24:31Z</time>
      </trkpt>
      <trkpt lat="42.91584094" lon="13.67650623">
        <ele>237.00000</ele>
        <time>2024-04-19T11:24:32Z</time>
      </trkpt>
      <trkpt lat="42.91588981" lon="13.67653087">
        <ele>237.00000</ele>
        <time>2024-04-19T11:24:33Z</time>
      </trkpt>
      <trkpt lat="42.91593868" lon="13.67655099">
        <ele>237.00000</ele>
        <time>2024-04-19T11:24:34Z</time>
      </trkpt>
      <trkpt lat="42.91598629" lon="13.67657270">
        <ele>237.00000</ele>
        <time>2024-04-19T11:24:35Z</time>
      </trkpt>
      <trkpt lat="42.91604429" lon="13.67660086">
        <ele>237.00000</ele>
        <time>2024-04-19T11:24:36Z</time>
      </trkpt>
      <trkpt lat="42.91608192" lon="13.67661771">
        <ele>237.00000</ele>
        <time>2024-04-19T11:24:37Z</time>
      </trkpt>
      <trkpt lat="42.91612886" lon="13.67663690">
        <ele>237.00000</ele>
        <time>2024-04-19T11:24:38Z</time>
      </trkpt>
      <trkpt lat="42.91617522" lon="13.67665585">
        <ele>238.00000</ele>
        <time>2024-04-19T11:24:39Z</time>
      </trkpt>
      <trkpt lat="42.91622123" lon="13.67667538">
        <ele>238.00000</ele>
        <time>2024-04-19T11:24:40Z</time>
      </trkpt>
      <trkpt lat="42.91627597" lon="13.67670035">
        <ele>238.00000</ele>
        <time>2024-04-19T11:24:41Z</time>
      </trkpt>
      <trkpt lat="42.91631184" lon="13.67671703">
        <ele>239.00000</ele>
        <time>2024-04-19T11:24:42Z</time>
      </trkpt>
      <trkpt lat="42.91635761" lon="13.67673832">
        <ele>239.00000</ele>
        <time>2024-04-19T11:24:43Z</time>
      </trkpt>
      <trkpt lat="42.91641284" lon="13.67676355">
        <ele>240.00000</ele>
        <time>2024-04-19T11:24:44Z</time>
      </trkpt>
      <trkpt lat="42.91645936" lon="13.67678426">
        <ele>240.00000</ele>
        <time>2024-04-19T11:24:45Z</time>
      </trkpt>
      <trkpt lat="42.91649666" lon="13.67680077">
        <ele>240.00000</ele>
        <time>2024-04-19T11:24:46Z</time>
      </trkpt>
      <trkpt lat="42.91654394" lon="13.67682038">
        <ele>240.00000</ele>
        <time>2024-04-19T11:24:47Z</time>
      </trkpt>
      <trkpt lat="42.91659833" lon="13.67684452">
        <ele>241.00000</ele>
        <time>2024-04-19T11:24:48Z</time>
      </trkpt>
      <trkpt lat="42.91664418" lon="13.67686363">
        <ele>241.00000</ele>
        <time>2024-04-19T11:24:49Z</time>
      </trkpt>
      <trkpt lat="42.91668919" lon="13.67688308">
        <ele>241.00000</ele>
        <time>2024-04-19T11:24:50Z</time>
      </trkpt>
      <trkpt lat="42.91672532" lon="13.67689775">
        <ele>242.00000</ele>
        <time>2024-04-19T11:24:51Z</time>
      </trkpt>
      <trkpt lat="42.91677008" lon="13.67691351">
        <ele>242.00000</ele>
        <time>2024-04-19T11:24:52Z</time>
      </trkpt>
      <trkpt lat="42.91682448" lon="13.67692943">
        <ele>243.00000</ele>
        <time>2024-04-19T11:24:53Z</time>
      </trkpt>
      <trkpt lat="42.91686966" lon="13.67693798">
        <ele>244.00000</ele>
        <time>2024-04-19T11:24:54Z</time>
      </trkpt>
      <trkpt lat="42.91690620" lon="13.67694058">
        <ele>244.00000</ele>
        <time>2024-04-19T11:24:55Z</time>
      </trkpt>
      <trkpt lat="42.91695104" lon="13.67693991">
        <ele>244.00000</ele>
        <time>2024-04-19T11:24:56Z</time>
      </trkpt>
      <trkpt lat="42.91700502" lon="13.67693345">
        <ele>245.00000</ele>
        <time>2024-04-19T11:24:57Z</time>
      </trkpt>
      <trkpt lat="42.91704827" lon="13.67692608">
        <ele>245.00000</ele>
        <time>2024-04-19T11:24:58Z</time>
      </trkpt>
      <trkpt lat="42.91709136" lon="13.67691661">
        <ele>245.00000</ele>
        <time>2024-04-19T11:24:59Z</time>
      </trkpt>
      <trkpt lat="42.91712706" lon="13.67690772">
        <ele>245.00000</ele>
        <time>2024-04-19T11:25:00Z</time>
      </trkpt>
      <trkpt lat="42.91717099" lon="13.67689599">
        <ele>246.00000</ele>
        <time>2024-04-19T11:25:01Z</time>
      </trkpt>
      <trkpt lat="42.91721491" lon="13.67688400">
        <ele>246.00000</ele>
        <time>2024-04-19T11:25:02Z</time>
      </trkpt>
      <trkpt lat="42.91726754" lon="13.67686774">
        <ele>246.00000</ele>
        <time>2024-04-19T11:25:03Z</time>
      </trkpt>
      <trkpt lat="42.91730266" lon="13.67685777">
        <ele>246.00000</ele>
        <time>2024-04-19T11:25:04Z</time>
      </trkpt>
      <trkpt lat="42.91734692" lon="13.67684436">
        <ele>246.00000</ele>
        <time>2024-04-19T11:25:05Z</time>
      </trkpt>
      <trkpt lat="42.91740040" lon="13.67682717">
        <ele>247.00000</ele>
        <time>2024-04-19T11:25:06Z</time>
      </trkpt>
      <trkpt lat="42.91743627" lon="13.67681577">
        <ele>247.00000</ele>
        <time>2024-04-19T11:25:07Z</time>
      </trkpt>
      <trkpt lat="42.91749117" lon="13.67679800">
        <ele>247.00000</ele>
        <time>2024-04-19T11:25:08Z</time>
      </trkpt>
      <trkpt lat="42.91752923" lon="13.67678627">
        <ele>247.00000</ele>
        <time>2024-04-19T11:25:09Z</time>
      </trkpt>
      <trkpt lat="42.91757374" lon="13.67677277">
        <ele>247.00000</ele>
        <time>2024-04-19T11:25:10Z</time>
      </trkpt>
      <trkpt lat="42.91762679" lon="13.67675953">
        <ele>248.00000</ele>
        <time>2024-04-19T11:25:11Z</time>
      </trkpt>
      <trkpt lat="42.91767088" lon="13.67674922">
        <ele>248.00000</ele>
        <time>2024-04-19T11:25:12Z</time>
      </trkpt>
      <trkpt lat="42.91771539" lon="13.67673791">
        <ele>248.00000</ele>
        <time>2024-04-19T11:25:13Z</time>
      </trkpt>
      <trkpt lat="42.91775152" lon="13.67672986">
        <ele>249.00000</ele>
        <time>2024-04-19T11:25:14Z</time>
      </trkpt>
      <trkpt lat="42.91780491" lon="13.67671980">
        <ele>249.00000</ele>
        <time>2024-04-19T11:25:15Z</time>
      </trkpt>
      <trkpt lat="42.91784003" lon="13.67671125">
        <ele>250.00000</ele>
        <time>2024-04-19T11:25:16Z</time>
      </trkpt>
      <trkpt lat="42.91789275" lon="13.67669901">
        <ele>250.00000</ele>
        <time>2024-04-19T11:25:17Z</time>
      </trkpt>
      <trkpt lat="42.91792863" lon="13.67669147">
        <ele>250.00000</ele>
        <time>2024-04-19T11:25:18Z</time>
      </trkpt>
      <trkpt lat="42.91797347" lon="13.67668242">
        <ele>251.00000</ele>
        <time>2024-04-19T11:25:19Z</time>
      </trkpt>
      <trkpt lat="42.91802720" lon="13.67667001">
        <ele>251.00000</ele>
        <time>2024-04-19T11:25:20Z</time>
      </trkpt>
      <trkpt lat="42.91807112" lon="13.67666096">
        <ele>252.00000</ele>
        <time>2024-04-19T11:25:21Z</time>
      </trkpt>
      <trkpt lat="42.91810540" lon="13.67665316">
        <ele>252.00000</ele>
        <time>2024-04-19T11:25:22Z</time>
      </trkpt>
      <trkpt lat="42.91814865" lon="13.67664394">
        <ele>252.00000</ele>
        <time>2024-04-19T11:25:23Z</time>
      </trkpt>
      <trkpt lat="42.91820305" lon="13.67662986">
        <ele>253.00000</ele>
        <time>2024-04-19T11:25:24Z</time>
      </trkpt>
      <trkpt lat="42.91823825" lon="13.67661469">
        <ele>253.00000</ele>
        <time>2024-04-19T11:25:25Z</time>
      </trkpt>
      <trkpt lat="42.91829072" lon="13.67659131">
        <ele>254.00000</ele>
        <time>2024-04-19T11:25:26Z</time>
      </trkpt>
      <trkpt lat="42.91832450" lon="13.67657303">
        <ele>254.00000</ele>
        <time>2024-04-19T11:25:27Z</time>
      </trkpt>
      <trkpt lat="42.91836767" lon="13.67654998">
        <ele>255.00000</ele>
        <time>2024-04-19T11:25:28Z</time>
      </trkpt>
      <trkpt lat="42.91841964" lon="13.67652249">
        <ele>255.00000</ele>
        <time>2024-04-19T11:25:29Z</time>
      </trkpt>
      <trkpt lat="42.91846062" lon="13.67649659">
        <ele>255.00000</ele>
        <time>2024-04-19T11:25:30Z</time>
      </trkpt>
      <trkpt lat="42.91849290" lon="13.67647304">
        <ele>256.00000</ele>
        <time>2024-04-19T11:25:31Z</time>
      </trkpt>
      <trkpt lat="42.91853179" lon="13.67644093">
        <ele>256.00000</ele>
        <time>2024-04-19T11:25:32Z</time>
      </trkpt>
      <trkpt lat="42.91858015" lon="13.67640372">
        <ele>256.00000</ele>
        <time>2024-04-19T11:25:33Z</time>
      </trkpt>
      <trkpt lat="42.91861435" lon="13.67638503">
        <ele>257.00000</ele>
        <time>2024-04-19T11:25:34Z</time>
      </trkpt>
      <trkpt lat="42.91866254" lon="13.67635410">
        <ele>257.00000</ele>
        <time>2024-04-19T11:25:35Z</time>
      </trkpt>
      <trkpt lat="42.91869574" lon="13.67633239">
        <ele>258.00000</ele>
        <time>2024-04-19T11:25:36Z</time>
      </trkpt>
      <trkpt lat="42.91873932" lon="13.67630590">
        <ele>258.00000</ele>
        <time>2024-04-19T11:25:37Z</time>
      </trkpt>
      <trkpt lat="42.91879029" lon="13.67627807">
        <ele>259.00000</ele>
        <time>2024-04-19T11:25:38Z</time>
      </trkpt>
      <trkpt lat="42.91883203" lon="13.67625326">
        <ele>260.00000</ele>
        <time>2024-04-19T11:25:39Z</time>
      </trkpt>
      <trkpt lat="42.91886539" lon="13.67623382">
        <ele>260.00000</ele>
        <time>2024-04-19T11:25:40Z</time>
      </trkpt>
      <trkpt lat="42.91890587" lon="13.67621152">
        <ele>260.00000</ele>
        <time>2024-04-19T11:25:41Z</time>
      </trkpt>
      <trkpt lat="42.91895390" lon="13.67618336">
        <ele>260.00000</ele>
        <time>2024-04-19T11:25:42Z</time>
      </trkpt>
      <trkpt lat="42.91898734" lon="13.67616609">
        <ele>260.00000</ele>
        <time>2024-04-19T11:25:43Z</time>
      </trkpt>
      <trkpt lat="42.91903051" lon="13.67614966">
        <ele>260.00000</ele>
        <time>2024-04-19T11:25:44Z</time>
      </trkpt>
      <trkpt lat="42.91907644" lon="13.67613592">
        <ele>260.00000</ele>
        <time>2024-04-19T11:25:45Z</time>
      </trkpt>
      <trkpt lat="42.91912514" lon="13.67612896">
        <ele>260.00000</ele>
        <time>2024-04-19T11:25:46Z</time>
      </trkpt>
      <trkpt lat="42.91918340" lon="13.67612292">
        <ele>261.00000</ele>
        <time>2024-04-19T11:25:47Z</time>
      </trkpt>
      <trkpt lat="42.91923126" lon="13.67612184">
        <ele>261.00000</ele>
        <time>2024-04-19T11:25:48Z</time>
      </trkpt>
      <trkpt lat="42.91927811" lon="13.67612318">
        <ele>261.00000</ele>
        <time>2024-04-19T11:25:49Z</time>
      </trkpt>
      <trkpt lat="42.91931432" lon="13.67612393">
        <ele>261.00000</ele>
        <time>2024-04-19T11:25:50Z</time>
      </trkpt>
      <trkpt lat="42.91936964" lon="13.67612737">
        <ele>261.00000</ele>
        <time>2024-04-19T11:25:51Z</time>
      </trkpt>
      <trkpt lat="42.91941566" lon="13.67613265">
        <ele>261.00000</ele>
        <time>2024-04-19T11:25:52Z</time>
      </trkpt>
      <trkpt lat="42.91945220" lon="13.67613952">
        <ele>262.00000</ele>
        <time>2024-04-19T11:25:53Z</time>
      </trkpt>
      <trkpt lat="42.91949797" lon="13.67614656">
        <ele>262.00000</ele>
        <time>2024-04-19T11:25:54Z</time>
      </trkpt>
      <trkpt lat="42.91954290" lon="13.67614941">
        <ele>262.00000</ele>
        <time>2024-04-19T11:25:55Z</time>
      </trkpt>
      <trkpt lat="42.91958866" lon="13.67615402">
        <ele>262.00000</ele>
        <time>2024-04-19T11:25:56Z</time>
      </trkpt>
      <trkpt lat="42.91964490" lon="13.67616391">
        <ele>262.00000</ele>
        <time>2024-04-19T11:25:57Z</time>
      </trkpt>
      <trkpt lat="42.91968346" lon="13.67617012">
        <ele>262.00000</ele>
        <time>2024-04-19T11:25:58Z</time>
      </trkpt>
      <trkpt lat="42.91973141" lon="13.67617707">
        <ele>262.00000</ele>
        <time>2024-04-19T11:25:59Z</time>
      </trkpt>
      <trkpt lat="42.91978966" lon="13.67618369">
        <ele>263.00000</ele>
        <time>2024-04-19T11:26:00Z</time>
      </trkpt>
      <trkpt lat="42.91983895" lon="13.67619057">
        <ele>263.00000</ele>
        <time>2024-04-19T11:26:01Z</time>
      </trkpt>
      <trkpt lat="42.91987901" lon="13.67619669">
        <ele>263.00000</ele>
        <time>2024-04-19T11:26:02Z</time>
      </trkpt>
      <trkpt lat="42.91993006" lon="13.67620339">
        <ele>263.00000</ele>
        <time>2024-04-19T11:26:03Z</time>
      </trkpt>
      <trkpt lat="42.91998269" lon="13.67620934">
        <ele>263.00000</ele>
        <time>2024-04-19T11:26:04Z</time>
      </trkpt>
      <trkpt lat="42.92003366" lon="13.67621697">
        <ele>264.00000</ele>
        <time>2024-04-19T11:26:05Z</time>
      </trkpt>
      <trkpt lat="42.92009585" lon="13.67622619">
        <ele>264.00000</ele>
        <time>2024-04-19T11:26:06Z</time>
      </trkpt>
      <trkpt lat="42.92013860" lon="13.67623181">
        <ele>264.00000</ele>
        <time>2024-04-19T11:26:07Z</time>
      </trkpt>
      <trkpt lat="42.92019325" lon="13.67623575">
        <ele>264.00000</ele>
        <time>2024-04-19T11:26:08Z</time>
      </trkpt>
      <trkpt lat="42.92026273" lon="13.67624119">
        <ele>265.00000</ele>
        <time>2024-04-19T11:26:09Z</time>
      </trkpt>
      <trkpt lat="42.92032568" lon="13.67624639">
        <ele>265.00000</ele>
        <time>2024-04-19T11:26:10Z</time>
      </trkpt>
      <trkpt lat="42.92037631" lon="13.67625402">
        <ele>265.00000</ele>
        <time>2024-04-19T11:26:11Z</time>
      </trkpt>
      <trkpt lat="42.92044026" lon="13.67626491">
        <ele>266.00000</ele>
        <time>2024-04-19T11:26:12Z</time>
      </trkpt>
      <trkpt lat="42.92050757" lon="13.67627338">
        <ele>267.00000</ele>
        <time>2024-04-19T11:26:13Z</time>
      </trkpt>
      <trkpt lat="42.92057328" lon="13.67628235">
        <ele>267.00000</ele>
        <time>2024-04-19T11:26:14Z</time>
      </trkpt>
      <trkpt lat="42.92065165" lon="13.67629140">
        <ele>267.00000</ele>
        <time>2024-04-19T11:26:15Z</time>
      </trkpt>
      <trkpt lat="42.92070572" lon="13.67629601">
        <ele>267.00000</ele>
        <time>2024-04-19T11:26:16Z</time>
      </trkpt>
      <trkpt lat="42.92077596" lon="13.67630146">
        <ele>267.00000</ele>
        <time>2024-04-19T11:26:17Z</time>
      </trkpt>
      <trkpt lat="42.92086020" lon="13.67630657">
        <ele>267.00000</ele>
        <time>2024-04-19T11:26:18Z</time>
      </trkpt>
      <trkpt lat="42.92093002" lon="13.67630666">
        <ele>267.00000</ele>
        <time>2024-04-19T11:26:19Z</time>
      </trkpt>
      <trkpt lat="42.92098877" lon="13.67630221">
        <ele>267.00000</ele>
        <time>2024-04-19T11:26:20Z</time>
      </trkpt>
      <trkpt lat="42.92106513" lon="13.67629165">
        <ele>267.00000</ele>
        <time>2024-04-19T11:26:21Z</time>
      </trkpt>
      <trkpt lat="42.92114392" lon="13.67627564">
        <ele>267.00000</ele>
        <time>2024-04-19T11:26:22Z</time>
      </trkpt>
      <trkpt lat="42.92122372" lon="13.67625636">
        <ele>266.00000</ele>
        <time>2024-04-19T11:26:23Z</time>
      </trkpt>
      <trkpt lat="42.92132212" lon="13.67623214">
        <ele>266.00000</ele>
        <time>2024-04-19T11:26:24Z</time>
      </trkpt>
      <trkpt lat="42.92138893" lon="13.67621253">
        <ele>265.00000</ele>
        <time>2024-04-19T11:26:25Z</time>
      </trkpt>
      <trkpt lat="42.92147199" lon="13.67618462">
        <ele>265.00000</ele>
        <time>2024-04-19T11:26:26Z</time>
      </trkpt>
      <trkpt lat="42.92155615" lon="13.67615620">
        <ele>264.00000</ele>
        <time>2024-04-19T11:26:27Z</time>
      </trkpt>
      <trkpt lat="42.92164131" lon="13.67613122">
        <ele>264.00000</ele>
        <time>2024-04-19T11:26:28Z</time>
      </trkpt>
      <trkpt lat="42.92172580" lon="13.67610742">
        <ele>263.00000</ele>
        <time>2024-04-19T11:26:29Z</time>
      </trkpt>
      <trkpt lat="42.92181188" lon="13.67608613">
        <ele>263.00000</ele>
        <time>2024-04-19T11:26:30Z</time>
      </trkpt>
      <trkpt lat="42.92190123" lon="13.67607138">
        <ele>262.00000</ele>
        <time>2024-04-19T11:26:31Z</time>
      </trkpt>
      <trkpt lat="42.92200961" lon="13.67606065">
        <ele>261.00000</ele>
        <time>2024-04-19T11:26:32Z</time>
      </trkpt>
      <trkpt lat="42.92209954" lon="13.67605939">
        <ele>261.00000</ele>
        <time>2024-04-19T11:26:33Z</time>
      </trkpt>
      <trkpt lat="42.92218965" lon="13.67606584">
        <ele>261.00000</ele>
        <time>2024-04-19T11:26:34Z</time>
      </trkpt>
      <trkpt lat="42.92226190" lon="13.67607582">
        <ele>261.00000</ele>
        <time>2024-04-19T11:26:35Z</time>
      </trkpt>
      <trkpt lat="42.92235167" lon="13.67609174">
        <ele>261.00000</ele>
        <time>2024-04-19T11:26:36Z</time>
      </trkpt>
      <trkpt lat="42.92245946" lon="13.67611412">
        <ele>260.00000</ele>
        <time>2024-04-19T11:26:37Z</time>
      </trkpt>
      <trkpt lat="42.92255057" lon="13.67613759">
        <ele>260.00000</ele>
        <time>2024-04-19T11:26:38Z</time>
      </trkpt>
      <trkpt lat="42.92262207" lon="13.67615880">
        <ele>260.00000</ele>
        <time>2024-04-19T11:26:39Z</time>
      </trkpt>
      <trkpt lat="42.92271033" lon="13.67618814">
        <ele>260.00000</ele>
        <time>2024-04-19T11:26:40Z</time>
      </trkpt>
      <trkpt lat="42.92281645" lon="13.67623264">
        <ele>260.00000</ele>
        <time>2024-04-19T11:26:41Z</time>
      </trkpt>
      <trkpt lat="42.92290370" lon="13.67627589">
        <ele>259.00000</ele>
        <time>2024-04-19T11:26:42Z</time>
      </trkpt>
      <trkpt lat="42.92298928" lon="13.67632216">
        <ele>259.00000</ele>
        <time>2024-04-19T11:26:43Z</time>
      </trkpt>
      <trkpt lat="42.92305860" lon="13.67636047">
        <ele>259.00000</ele>
        <time>2024-04-19T11:26:44Z</time>
      </trkpt>
      <trkpt lat="42.92314234" lon="13.67640950">
        <ele>259.00000</ele>
        <time>2024-04-19T11:26:45Z</time>
      </trkpt>
      <trkpt lat="42.92324116" lon="13.67646742">
        <ele>259.00000</ele>
        <time>2024-04-19T11:26:46Z</time>
      </trkpt>
      <trkpt lat="42.92332355" lon="13.67651620">
        <ele>259.00000</ele>
        <time>2024-04-19T11:26:47Z</time>
      </trkpt>
      <trkpt lat="42.92338918" lon="13.67655602">
        <ele>259.00000</ele>
        <time>2024-04-19T11:26:48Z</time>
      </trkpt>
      <trkpt lat="42.92347057" lon="13.67660706">
        <ele>259.00000</ele>
        <time>2024-04-19T11:26:49Z</time>
      </trkpt>
      <trkpt lat="42.92356747" lon="13.67667102">
        <ele>259.00000</ele>
        <time>2024-04-19T11:26:50Z</time>
      </trkpt>
      <trkpt lat="42.92364818" lon="13.67672424">
        <ele>259.00000</ele>
        <time>2024-04-19T11:26:51Z</time>
      </trkpt>
      <trkpt lat="42.92372907" lon="13.67677428">
        <ele>259.00000</ele>
        <time>2024-04-19T11:26:52Z</time>
      </trkpt>
      <trkpt lat="42.92379411" lon="13.67681418">
        <ele>260.00000</ele>
        <time>2024-04-19T11:26:53Z</time>
      </trkpt>
      <trkpt lat="42.92387533" lon="13.67686657">
        <ele>260.00000</ele>
        <time>2024-04-19T11:26:54Z</time>
      </trkpt>
      <trkpt lat="42.92397072" lon="13.67693044">
        <ele>260.00000</ele>
        <time>2024-04-19T11:26:55Z</time>
      </trkpt>
      <trkpt lat="42.92405018" lon="13.67698308">
        <ele>259.00000</ele>
        <time>2024-04-19T11:26:56Z</time>
      </trkpt>
      <trkpt lat="42.92411271" lon="13.67702700">
        <ele>258.00000</ele>
        <time>2024-04-19T11:26:57Z</time>
      </trkpt>
      <trkpt lat="42.92419175" lon="13.67708156">
        <ele>258.00000</ele>
        <time>2024-04-19T11:26:58Z</time>
      </trkpt>
      <trkpt lat="42.92428613" lon="13.67714384">
        <ele>257.00000</ele>
        <time>2024-04-19T11:26:59Z</time>
      </trkpt>
      <trkpt lat="42.92436425" lon="13.67719237">
        <ele>257.00000</ele>
        <time>2024-04-19T11:27:00Z</time>
      </trkpt>
      <trkpt lat="42.92444120" lon="13.67724074">
        <ele>257.00000</ele>
        <time>2024-04-19T11:27:01Z</time>
      </trkpt>
      <trkpt lat="42.92450289" lon="13.67728197">
        <ele>258.00000</ele>
        <time>2024-04-19T11:27:02Z</time>
      </trkpt>
      <trkpt lat="42.92458059" lon="13.67733394">
        <ele>259.00000</ele>
        <time>2024-04-19T11:27:03Z</time>
      </trkpt>
      <trkpt lat="42.92467346" lon="13.67739588">
        <ele>260.00000</ele>
        <time>2024-04-19T11:27:04Z</time>
      </trkpt>
      <trkpt lat="42.92475082" lon="13.67744844">
        <ele>261.00000</ele>
        <time>2024-04-19T11:27:05Z</time>
      </trkpt>
      <trkpt lat="42.92481226" lon="13.67749303">
        <ele>261.00000</ele>
        <time>2024-04-19T11:27:06Z</time>
      </trkpt>
      <trkpt lat="42.92488778" lon="13.67755338">
        <ele>261.00000</ele>
        <time>2024-04-19T11:27:07Z</time>
      </trkpt>
      <trkpt lat="42.92497881" lon="13.67762597">
        <ele>262.00000</ele>
        <time>2024-04-19T11:27:08Z</time>
      </trkpt>
      <trkpt lat="42.92503799" lon="13.67767534">
        <ele>262.00000</ele>
        <time>2024-04-19T11:27:09Z</time>
      </trkpt>
      <trkpt lat="42.92510873" lon="13.67774013">
        <ele>263.00000</ele>
        <time>2024-04-19T11:27:10Z</time>
      </trkpt>
      <trkpt lat="42.92517780" lon="13.67780475">
        <ele>264.00000</ele>
        <time>2024-04-19T11:27:11Z</time>
      </trkpt>
      <trkpt lat="42.92524443" lon="13.67787214">
        <ele>265.00000</ele>
        <time>2024-04-19T11:27:12Z</time>
      </trkpt>
      <trkpt lat="42.92530965" lon="13.67794289">
        <ele>266.00000</ele>
        <time>2024-04-19T11:27:13Z</time>
      </trkpt>
      <trkpt lat="42.92538341" lon="13.67803635">
        <ele>267.00000</ele>
        <time>2024-04-19T11:27:14Z</time>
      </trkpt>
      <trkpt lat="42.92542783" lon="13.67813467">
        <ele>267.00000</ele>
        <time>2024-04-19T11:27:15Z</time>
      </trkpt>
      <trkpt lat="42.92544501" lon="13.67822494">
        <ele>267.00000</ele>
        <time>2024-04-19T11:27:16Z</time>
      </trkpt>
      <trkpt lat="42.92543118" lon="13.67835544">
        <ele>267.00000</ele>
        <time>2024-04-19T11:27:17Z</time>
      </trkpt>
      <trkpt lat="42.92536363" lon="13.67844656">
        <ele>266.00000</ele>
        <time>2024-04-19T11:27:18Z</time>
      </trkpt>
      <trkpt lat="42.92529774" lon="13.67850841">
        <ele>265.00000</ele>
        <time>2024-04-19T11:27:19Z</time>
      </trkpt>
      <trkpt lat="42.92521510" lon="13.67858310">
        <ele>264.00000</ele>
        <time>2024-04-19T11:27:20Z</time>
      </trkpt>
      <trkpt lat="42.92513430" lon="13.67866239">
        <ele>263.00000</ele>
        <time>2024-04-19T11:27:21Z</time>
      </trkpt>
      <trkpt lat="42.92505609" lon="13.67874797">
        <ele>262.00000</ele>
        <time>2024-04-19T11:27:22Z</time>
      </trkpt>
      <trkpt lat="42.92497873" lon="13.67883481">
        <ele>261.00000</ele>
        <time>2024-04-19T11:27:23Z</time>
      </trkpt>
      <trkpt lat="42.92490086" lon="13.67892508">
        <ele>260.00000</ele>
        <time>2024-04-19T11:27:24Z</time>
      </trkpt>
      <trkpt lat="42.92481838" lon="13.67901887">
        <ele>259.00000</ele>
        <time>2024-04-19T11:27:25Z</time>
      </trkpt>
      <trkpt lat="42.92473280" lon="13.67911426">
        <ele>258.00000</ele>
        <time>2024-04-19T11:27:26Z</time>
      </trkpt>
      <trkpt lat="42.92464395" lon="13.67920956">
        <ele>257.00000</ele>
        <time>2024-04-19T11:27:27Z</time>
      </trkpt>
      <trkpt lat="42.92455268" lon="13.67929967">
        <ele>256.00000</ele>
        <time>2024-04-19T11:27:28Z</time>
      </trkpt>
      <trkpt lat="42.92445972" lon="13.67938742">
        <ele>255.00000</ele>
        <time>2024-04-19T11:27:29Z</time>
      </trkpt>
      <trkpt lat="42.92436090" lon="13.67947443">
        <ele>255.00000</ele>
        <time>2024-04-19T11:27:30Z</time>
      </trkpt>
      <trkpt lat="42.92426040" lon="13.67955557">
        <ele>254.00000</ele>
        <time>2024-04-19T11:27:31Z</time>
      </trkpt>
      <trkpt lat="42.92415202" lon="13.67962673">
        <ele>254.00000</ele>
        <time>2024-04-19T11:27:32Z</time>
      </trkpt>
      <trkpt lat="42.92402277" lon="13.67969177">
        <ele>254.00000</ele>
        <time>2024-04-19T11:27:33Z</time>
      </trkpt>
      <trkpt lat="42.92393392" lon="13.67973209">
        <ele>255.00000</ele>
        <time>2024-04-19T11:27:34Z</time>
      </trkpt>
      <trkpt lat="42.92382186" lon="13.67978473">
        <ele>254.00000</ele>
        <time>2024-04-19T11:27:35Z</time>
      </trkpt>
      <trkpt lat="42.92368859" lon="13.67985321">
        <ele>252.00000</ele>
        <time>2024-04-19T11:27:36Z</time>
      </trkpt>
      <trkpt lat="42.92357853" lon="13.67991599">
        <ele>250.00000</ele>
        <time>2024-04-19T11:27:37Z</time>
      </trkpt>
      <trkpt lat="42.92347108" lon="13.67998581">
        <ele>248.00000</ele>
        <time>2024-04-19T11:27:38Z</time>
      </trkpt>
      <trkpt lat="42.92338944" lon="13.68004616">
        <ele>246.00000</ele>
        <time>2024-04-19T11:27:39Z</time>
      </trkpt>
      <trkpt lat="42.92328860" lon="13.68013266">
        <ele>245.00000</ele>
        <time>2024-04-19T11:27:40Z</time>
      </trkpt>
      <trkpt lat="42.92316790" lon="13.68024565">
        <ele>245.00000</ele>
        <time>2024-04-19T11:27:41Z</time>
      </trkpt>
      <trkpt lat="42.92308500" lon="13.68032444">
        <ele>245.00000</ele>
        <time>2024-04-19T11:27:42Z</time>
      </trkpt>
      <trkpt lat="42.92297830" lon="13.68041186">
        <ele>247.00000</ele>
        <time>2024-04-19T11:27:43Z</time>
      </trkpt>
      <trkpt lat="42.92286682" lon="13.68047221">
        <ele>248.00000</ele>
        <time>2024-04-19T11:27:44Z</time>
      </trkpt>
      <trkpt lat="42.92275191" lon="13.68048244">
        <ele>248.00000</ele>
        <time>2024-04-19T11:27:45Z</time>
      </trkpt>
      <trkpt lat="42.92263163" lon="13.68046165">
        <ele>246.00000</ele>
        <time>2024-04-19T11:27:46Z</time>
      </trkpt>
      <trkpt lat="42.92250858" lon="13.68043893">
        <ele>245.00000</ele>
        <time>2024-04-19T11:27:47Z</time>
      </trkpt>
      <trkpt lat="42.92238478" lon="13.68043533">
        <ele>242.00000</ele>
        <time>2024-04-19T11:27:48Z</time>
      </trkpt>
      <trkpt lat="42.92225880" lon="13.68045771">
        <ele>240.00000</ele>
        <time>2024-04-19T11:27:49Z</time>
      </trkpt>
      <trkpt lat="42.92213735" lon="13.68050892">
        <ele>240.00000</ele>
        <time>2024-04-19T11:27:50Z</time>
      </trkpt>
      <trkpt lat="42.92202176" lon="13.68058361">
        <ele>240.00000</ele>
        <time>2024-04-19T11:27:51Z</time>
      </trkpt>
      <trkpt lat="42.92191573" lon="13.68067740">
        <ele>241.00000</ele>
        <time>2024-04-19T11:27:52Z</time>
      </trkpt>
      <trkpt lat="42.92181699" lon="13.68077974">
        <ele>241.00000</ele>
        <time>2024-04-19T11:27:53Z</time>
      </trkpt>
      <trkpt lat="42.92172471" lon="13.68089558">
        <ele>241.00000</ele>
        <time>2024-04-19T11:27:54Z</time>
      </trkpt>
      <trkpt lat="42.92164139" lon="13.68101687">
        <ele>241.00000</ele>
        <time>2024-04-19T11:27:55Z</time>
      </trkpt>
      <trkpt lat="42.92155883" lon="13.68114100">
        <ele>240.00000</ele>
        <time>2024-04-19T11:27:56Z</time>
      </trkpt>
      <trkpt lat="42.92146470" lon="13.68125164">
        <ele>238.00000</ele>
        <time>2024-04-19T11:27:57Z</time>
      </trkpt>
      <trkpt lat="42.92136068" lon="13.68134695">
        <ele>237.00000</ele>
        <time>2024-04-19T11:27:58Z</time>
      </trkpt>
      <trkpt lat="42.92125205" lon="13.68142381">
        <ele>235.00000</ele>
        <time>2024-04-19T11:27:59Z</time>
      </trkpt>
      <trkpt lat="42.92113705" lon="13.68149070">
        <ele>232.00000</ele>
        <time>2024-04-19T11:28:00Z</time>
      </trkpt>
      <trkpt lat="42.92102004" lon="13.68155490">
        <ele>229.00000</ele>
        <time>2024-04-19T11:28:01Z</time>
      </trkpt>
      <trkpt lat="42.92090672" lon="13.68163579">
        <ele>226.00000</ele>
        <time>2024-04-19T11:28:02Z</time>
      </trkpt>
      <trkpt lat="42.92080664" lon="13.68174123">
        <ele>223.00000</ele>
        <time>2024-04-19T11:28:03Z</time>
      </trkpt>
      <trkpt lat="42.92073204" lon="13.68187635">
        <ele>223.00000</ele>
        <time>2024-04-19T11:28:04Z</time>
      </trkpt>
      <trkpt lat="42.92068258" lon="13.68202890">
        <ele>223.00000</ele>
        <time>2024-04-19T11:28:05Z</time>
      </trkpt>
      <trkpt lat="42.92064973" lon="13.68219008">
        <ele>224.00000</ele>
        <time>2024-04-19T11:28:06Z</time>
      </trkpt>
      <trkpt lat="42.92063070" lon="13.68235931">
        <ele>225.00000</ele>
        <time>2024-04-19T11:28:07Z</time>
      </trkpt>
      <trkpt lat="42.92062844" lon="13.68252142">
        <ele>226.00000</ele>
        <time>2024-04-19T11:28:08Z</time>
      </trkpt>
      <trkpt lat="42.92064989" lon="13.68266735">
        <ele>228.00000</ele>
        <time>2024-04-19T11:28:09Z</time>
      </trkpt>
      <trkpt lat="42.92071980" lon="13.68278335">
        <ele>229.00000</ele>
        <time>2024-04-19T11:28:10Z</time>
      </trkpt>
      <trkpt lat="42.92081435" lon="13.68285259">
        <ele>230.00000</ele>
        <time>2024-04-19T11:28:11Z</time>
      </trkpt>
      <trkpt lat="42.92092474" lon="13.68288930">
        <ele>231.00000</ele>
        <time>2024-04-19T11:28:12Z</time>
      </trkpt>
      <trkpt lat="42.92104099" lon="13.68291629">
        <ele>231.00000</ele>
        <time>2024-04-19T11:28:13Z</time>
      </trkpt>
      <trkpt lat="42.92115650" lon="13.68294403">
        <ele>231.00000</ele>
        <time>2024-04-19T11:28:14Z</time>
      </trkpt>
      <trkpt lat="42.92127703" lon="13.68297337">
        <ele>230.00000</ele>
        <time>2024-04-19T11:28:15Z</time>
      </trkpt>
      <trkpt lat="42.92140460" lon="13.68300480">
        <ele>229.00000</ele>
        <time>2024-04-19T11:28:16Z</time>
      </trkpt>
      <trkpt lat="42.92152907" lon="13.68304395">
        <ele>227.00000</ele>
        <time>2024-04-19T11:28:17Z</time>
      </trkpt>
      <trkpt lat="42.92165170" lon="13.68309642">
        <ele>225.00000</ele>
        <time>2024-04-19T11:28:18Z</time>
      </trkpt>
      <trkpt lat="42.92177014" lon="13.68316800">
        <ele>223.00000</ele>
        <time>2024-04-19T11:28:19Z</time>
      </trkpt>
      <trkpt lat="42.92188807" lon="13.68326179">
        <ele>222.00000</ele>
        <time>2024-04-19T11:28:20Z</time>
      </trkpt>
      <trkpt lat="42.92199418" lon="13.68337855">
        <ele>221.00000</ele>
        <time>2024-04-19T11:28:21Z</time>
      </trkpt>
      <trkpt lat="42.92209225" lon="13.68350001">
        <ele>222.00000</ele>
        <time>2024-04-19T11:28:22Z</time>
      </trkpt>
      <trkpt lat="42.92218923" lon="13.68361718">
        <ele>223.00000</ele>
        <time>2024-04-19T11:28:23Z</time>
      </trkpt>
      <trkpt lat="42.92228596" lon="13.68373327">
        <ele>223.00000</ele>
        <time>2024-04-19T11:28:24Z</time>
      </trkpt>
      <trkpt lat="42.92238009" lon="13.68385196">
        <ele>223.00000</ele>
        <time>2024-04-19T11:28:25Z</time>
      </trkpt>
      <trkpt lat="42.92249433" lon="13.68399571">
        <ele>221.00000</ele>
        <time>2024-04-19T11:28:26Z</time>
      </trkpt>
      <trkpt lat="42.92257555" lon="13.68408598">
        <ele>220.00000</ele>
        <time>2024-04-19T11:28:27Z</time>
      </trkpt>
      <trkpt lat="42.92267362" lon="13.68419336">
        <ele>218.00000</ele>
        <time>2024-04-19T11:28:28Z</time>
      </trkpt>
      <trkpt lat="42.92277923" lon="13.68428346">
        <ele>217.00000</ele>
        <time>2024-04-19T11:28:29Z</time>
      </trkpt>
      <trkpt lat="42.92289298" lon="13.68434356">
        <ele>217.00000</ele>
        <time>2024-04-19T11:28:30Z</time>
      </trkpt>
      <trkpt lat="42.92301946" lon="13.68436234">
        <ele>219.00000</ele>
        <time>2024-04-19T11:28:31Z</time>
      </trkpt>
      <trkpt lat="42.92315022" lon="13.68434800">
        <ele>219.00000</ele>
        <time>2024-04-19T11:28:32Z</time>
      </trkpt>
      <trkpt lat="42.92327594" lon="13.68431380">
        <ele>219.00000</ele>
        <time>2024-04-19T11:28:33Z</time>
      </trkpt>
      <trkpt lat="42.92339572" lon="13.68428329">
        <ele>219.00000</ele>
        <time>2024-04-19T11:28:34Z</time>
      </trkpt>
      <trkpt lat="42.92351433" lon="13.68428321">
        <ele>218.00000</ele>
        <time>2024-04-19T11:28:35Z</time>
      </trkpt>
      <trkpt lat="42.92364031" lon="13.68430467">
        <ele>217.00000</ele>
        <time>2024-04-19T11:28:36Z</time>
      </trkpt>
      <trkpt lat="42.92377165" lon="13.68432646">
        <ele>217.00000</ele>
        <time>2024-04-19T11:28:37Z</time>
      </trkpt>
      <trkpt lat="42.92390534" lon="13.68434607">
        <ele>217.00000</ele>
        <time>2024-04-19T11:28:38Z</time>
      </trkpt>
      <trkpt lat="42.92403040" lon="13.68437633">
        <ele>216.00000</ele>
        <time>2024-04-19T11:28:39Z</time>
      </trkpt>
      <trkpt lat="42.92415202" lon="13.68442419">
        <ele>215.00000</ele>
        <time>2024-04-19T11:28:40Z</time>
      </trkpt>
      <trkpt lat="42.92427205" lon="13.68448253">
        <ele>213.00000</ele>
        <time>2024-04-19T11:28:41Z</time>
      </trkpt>
      <trkpt lat="42.92439015" lon="13.68454431">
        <ele>211.00000</ele>
        <time>2024-04-19T11:28:42Z</time>
      </trkpt>
      <trkpt lat="42.92450699" lon="13.68460189">
        <ele>210.00000</ele>
        <time>2024-04-19T11:28:43Z</time>
      </trkpt>
      <trkpt lat="42.92462568" lon="13.68464757">
        <ele>208.00000</ele>
        <time>2024-04-19T11:28:44Z</time>
      </trkpt>
      <trkpt lat="42.92474873" lon="13.68466434">
        <ele>208.00000</ele>
        <time>2024-04-19T11:28:45Z</time>
      </trkpt>
      <trkpt lat="42.92487580" lon="13.68465268">
        <ele>209.00000</ele>
        <time>2024-04-19T11:28:46Z</time>
      </trkpt>
      <trkpt lat="42.92500136" lon="13.68463190">
        <ele>210.00000</ele>
        <time>2024-04-19T11:28:47Z</time>
      </trkpt>
      <trkpt lat="42.92512172" lon="13.68463508">
        <ele>211.00000</ele>
        <time>2024-04-19T11:28:48Z</time>
      </trkpt>
      <trkpt lat="42.92522951" lon="13.68467993">
        <ele>211.00000</ele>
        <time>2024-04-19T11:28:49Z</time>
      </trkpt>
      <trkpt lat="42.92533781" lon="13.68478814">
        <ele>209.00000</ele>
        <time>2024-04-19T11:28:50Z</time>
      </trkpt>
      <trkpt lat="42.92540319" lon="13.68488369">
        <ele>207.00000</ele>
        <time>2024-04-19T11:28:51Z</time>
      </trkpt>
      <trkpt lat="42.92548692" lon="13.68499550">
        <ele>205.00000</ele>
        <time>2024-04-19T11:28:52Z</time>
      </trkpt>
      <trkpt lat="42.92558030" lon="13.68508519">
        <ele>204.00000</ele>
        <time>2024-04-19T11:28:53Z</time>
      </trkpt>
      <trkpt lat="42.92568264" lon="13.68514169">
        <ele>204.00000</ele>
        <time>2024-04-19T11:28:54Z</time>
      </trkpt>
      <trkpt lat="42.92579387" lon="13.68516935">
        <ele>204.00000</ele>
        <time>2024-04-19T11:28:55Z</time>
      </trkpt>
      <trkpt lat="42.92590686" lon="13.68517421">
        <ele>205.00000</ele>
        <time>2024-04-19T11:28:56Z</time>
      </trkpt>
      <trkpt lat="42.92602035" lon="13.68517773">
        <ele>205.00000</ele>
        <time>2024-04-19T11:28:57Z</time>
      </trkpt>
      <trkpt lat="42.92612847" lon="13.68520631">
        <ele>204.00000</ele>
        <time>2024-04-19T11:28:58Z</time>
      </trkpt>
      <trkpt lat="42.92622243" lon="13.68527496">
        <ele>203.00000</ele>
        <time>2024-04-19T11:28:59Z</time>
      </trkpt>
      <trkpt lat="42.92629670" lon="13.68539096">
        <ele>202.00000</ele>
        <time>2024-04-19T11:29:00Z</time>
      </trkpt>
      <trkpt lat="42.92636359" lon="13.68551627">
        <ele>201.00000</ele>
        <time>2024-04-19T11:29:01Z</time>
      </trkpt>
      <trkpt lat="42.92643592" lon="13.68563161">
        <ele>200.00000</ele>
        <time>2024-04-19T11:29:02Z</time>
      </trkpt>
      <trkpt lat="42.92652033" lon="13.68571140">
        <ele>199.00000</ele>
        <time>2024-04-19T11:29:03Z</time>
      </trkpt>
      <trkpt lat="42.92660901" lon="13.68576681">
        <ele>199.00000</ele>
        <time>2024-04-19T11:29:04Z</time>
      </trkpt>
      <trkpt lat="42.92670465" lon="13.68574837">
        <ele>199.00000</ele>
        <time>2024-04-19T11:29:05Z</time>
      </trkpt>
      <trkpt lat="42.92680447" lon="13.68570042">
        <ele>199.00000</ele>
        <time>2024-04-19T11:29:06Z</time>
      </trkpt>
      <trkpt lat="42.92690958" lon="13.68565424">
        <ele>200.00000</ele>
        <time>2024-04-19T11:29:07Z</time>
      </trkpt>
      <trkpt lat="42.92701955" lon="13.68563387">
        <ele>199.00000</ele>
        <time>2024-04-19T11:29:08Z</time>
      </trkpt>
      <trkpt lat="42.92713313" lon="13.68563119">
        <ele>197.00000</ele>
        <time>2024-04-19T11:29:09Z</time>
      </trkpt>
      <trkpt lat="42.92724654" lon="13.68562608">
        <ele>195.00000</ele>
        <time>2024-04-19T11:29:10Z</time>
      </trkpt>
      <trkpt lat="42.92735567" lon="13.68559531">
        <ele>195.00000</ele>
        <time>2024-04-19T11:29:11Z</time>
      </trkpt>
      <trkpt lat="42.92745977" lon="13.68553387">
        <ele>195.00000</ele>
        <time>2024-04-19T11:29:12Z</time>
      </trkpt>
      <trkpt lat="42.92756119" lon="13.68545701">
        <ele>195.00000</ele>
        <time>2024-04-19T11:29:13Z</time>
      </trkpt>
      <trkpt lat="42.92766974" lon="13.68539323">
        <ele>195.00000</ele>
        <time>2024-04-19T11:29:14Z</time>
      </trkpt>
      <trkpt lat="42.92778147" lon="13.68536003">
        <ele>194.00000</ele>
        <time>2024-04-19T11:29:15Z</time>
      </trkpt>
      <trkpt lat="42.92788649" lon="13.68537655">
        <ele>194.00000</ele>
        <time>2024-04-19T11:29:16Z</time>
      </trkpt>
      <trkpt lat="42.92798951" lon="13.68542608">
        <ele>192.00000</ele>
        <time>2024-04-19T11:29:17Z</time>
      </trkpt>
      <trkpt lat="42.92809118" lon="13.68548057">
        <ele>191.00000</ele>
        <time>2024-04-19T11:29:18Z</time>
      </trkpt>
      <trkpt lat="42.92819344" lon="13.68552046">
        <ele>191.00000</ele>
        <time>2024-04-19T11:29:19Z</time>
      </trkpt>
      <trkpt lat="42.92829226" lon="13.68554385">
        <ele>191.00000</ele>
        <time>2024-04-19T11:29:20Z</time>
      </trkpt>
      <trkpt lat="42.92839402" lon="13.68553848">
        <ele>192.00000</ele>
        <time>2024-04-19T11:29:21Z</time>
      </trkpt>
      <trkpt lat="42.92849410" lon="13.68550990">
        <ele>193.00000</ele>
        <time>2024-04-19T11:29:22Z</time>
      </trkpt>
      <trkpt lat="42.92859007" lon="13.68548392">
        <ele>194.00000</ele>
        <time>2024-04-19T11:29:23Z</time>
      </trkpt>
      <trkpt lat="42.92868269" lon="13.68547663">
        <ele>194.00000</ele>
        <time>2024-04-19T11:29:24Z</time>
      </trkpt>
      <trkpt lat="42.92877213" lon="13.68550303">
        <ele>193.00000</ele>
        <time>2024-04-19T11:29:25Z</time>
      </trkpt>
      <trkpt lat="42.92885821" lon="13.68555240">
        <ele>192.00000</ele>
        <time>2024-04-19T11:29:26Z</time>
      </trkpt>
      <trkpt lat="42.92894085" lon="13.68560168">
        <ele>191.00000</ele>
        <time>2024-04-19T11:29:27Z</time>
      </trkpt>
      <trkpt lat="42.92902174" lon="13.68563815">
        <ele>191.00000</ele>
        <time>2024-04-19T11:29:28Z</time>
      </trkpt>
      <trkpt lat="42.92910832" lon="13.68565860">
        <ele>191.00000</ele>
        <time>2024-04-19T11:29:29Z</time>
      </trkpt>
      <trkpt lat="42.92919508" lon="13.68566656">
        <ele>192.00000</ele>
        <time>2024-04-19T11:29:30Z</time>
      </trkpt>
      <trkpt lat="42.92926733" lon="13.68567461">
        <ele>192.00000</ele>
        <time>2024-04-19T11:29:31Z</time>
      </trkpt>
      <trkpt lat="42.92931963" lon="13.68570461">
        <ele>191.00000</ele>
        <time>2024-04-19T11:29:32Z</time>
      </trkpt>
      <trkpt lat="42.92935634" lon="13.68575382">
        <ele>190.00000</ele>
        <time>2024-04-19T11:29:33Z</time>
      </trkpt>
      <trkpt lat="42.92934821" lon="13.68578298">
        <ele>190.00000</ele>
        <time>2024-04-19T11:29:34Z</time>
      </trkpt>
      <trkpt lat="42.92932768" lon="13.68581266">
        <ele>189.00000</ele>
        <time>2024-04-19T11:29:35Z</time>
      </trkpt>
      <trkpt lat="42.92925333" lon="13.68581819">
        <ele>188.00000</ele>
        <time>2024-04-19T11:29:36Z</time>
      </trkpt>
      <trkpt lat="42.92918711" lon="13.68580344">
        <ele>188.00000</ele>
        <time>2024-04-19T11:29:37Z</time>
      </trkpt>
      <trkpt lat="42.92910682" lon="13.68578860">
        <ele>188.00000</ele>
        <time>2024-04-19T11:29:38Z</time>
      </trkpt>
      <trkpt lat="42.92902383" lon="13.68578273">
        <ele>188.00000</ele>
        <time>2024-04-19T11:29:39Z</time>
      </trkpt>
      <trkpt lat="42.92893826" lon="13.68578324">
        <ele>188.00000</ele>
        <time>2024-04-19T11:29:40Z</time>
      </trkpt>
      <trkpt lat="42.92883675" lon="13.68578684">
        <ele>188.00000</ele>
        <time>2024-04-19T11:29:41Z</time>
      </trkpt>
      <trkpt lat="42.92876307" lon="13.68578919">
        <ele>188.00000</ele>
        <time>2024-04-19T11:29:42Z</time>
      </trkpt>
      <trkpt lat="42.92867213" lon="13.68578969">
        <ele>188.00000</ele>
        <time>2024-04-19T11:29:43Z</time>
      </trkpt>
      <trkpt lat="42.92858177" lon="13.68578600">
        <ele>188.00000</ele>
        <time>2024-04-19T11:29:44Z</time>
      </trkpt>
      <trkpt lat="42.92848940" lon="13.68578005">
        <ele>189.00000</ele>
        <time>2024-04-19T11:29:45Z</time>
      </trkpt>
      <trkpt lat="42.92839452" lon="13.68577754">
        <ele>189.00000</ele>
        <time>2024-04-19T11:29:46Z</time>
      </trkpt>
      <trkpt lat="42.92829888" lon="13.68577796">
        <ele>189.00000</ele>
        <time>2024-04-19T11:29:47Z</time>
      </trkpt>
      <trkpt lat="42.92820232" lon="13.68577963">
        <ele>189.00000</ele>
        <time>2024-04-19T11:29:48Z</time>
      </trkpt>
      <trkpt lat="42.92810501" lon="13.68578148">
        <ele>188.00000</ele>
        <time>2024-04-19T11:29:49Z</time>
      </trkpt>
      <trkpt lat="42.92800426" lon="13.68578399">
        <ele>188.00000</ele>
        <time>2024-04-19T11:29:50Z</time>
      </trkpt>
      <trkpt lat="42.92790309" lon="13.68578759">
        <ele>187.00000</ele>
        <time>2024-04-19T11:29:51Z</time>
      </trkpt>
      <trkpt lat="42.92780058" lon="13.68579187">
        <ele>187.00000</ele>
        <time>2024-04-19T11:29:52Z</time>
      </trkpt>
      <trkpt lat="42.92769966" lon="13.68580050">
        <ele>187.00000</ele>
        <time>2024-04-19T11:29:53Z</time>
      </trkpt>
      <trkpt lat="42.92760059" lon="13.68581484">
        <ele>187.00000</ele>
        <time>2024-04-19T11:29:54Z</time>
      </trkpt>
      <trkpt lat="42.92750311" lon="13.68583696">
        <ele>187.00000</ele>
        <time>2024-04-19T11:29:55Z</time>
      </trkpt>
      <trkpt lat="42.92740412" lon="13.68586429">
        <ele>188.00000</ele>
        <time>2024-04-19T11:29:56Z</time>
      </trkpt>
      <trkpt lat="42.92731007" lon="13.68589430">
        <ele>189.00000</ele>
        <time>2024-04-19T11:29:57Z</time>
      </trkpt>
      <trkpt lat="42.92721871" lon="13.68592573">
        <ele>189.00000</ele>
        <time>2024-04-19T11:29:58Z</time>
      </trkpt>
      <trkpt lat="42.92713145" lon="13.68596429">
        <ele>190.00000</ele>
        <time>2024-04-19T11:29:59Z</time>
      </trkpt>
      <trkpt lat="42.92704747" lon="13.68600921">
        <ele>190.00000</ele>
        <time>2024-04-19T11:30:00Z</time>
      </trkpt>
      <trkpt lat="42.92696239" lon="13.68605623">
        <ele>191.00000</ele>
        <time>2024-04-19T11:30:01Z</time>
      </trkpt>
      <trkpt lat="42.92687756" lon="13.68610259">
        <ele>191.00000</ele>
        <time>2024-04-19T11:30:02Z</time>
      </trkpt>
      <trkpt lat="42.92679375" lon="13.68614642">
        <ele>191.00000</ele>
        <time>2024-04-19T11:30:03Z</time>
      </trkpt>
      <trkpt lat="42.92671227" lon="13.68619370">
        <ele>190.00000</ele>
        <time>2024-04-19T11:30:04Z</time>
      </trkpt>
      <trkpt lat="42.92664606" lon="13.68624734">
        <ele>189.00000</ele>
        <time>2024-04-19T11:30:05Z</time>
      </trkpt>
      <trkpt lat="42.92660750" lon="13.68630342">
        <ele>187.00000</ele>
        <time>2024-04-19T11:30:06Z</time>
      </trkpt>
      <trkpt lat="42.92659451" lon="13.68635346">
        <ele>185.00000</ele>
        <time>2024-04-19T11:30:07Z</time>
      </trkpt>
      <trkpt lat="42.92660423" lon="13.68639394">
        <ele>184.00000</ele>
        <time>2024-04-19T11:30:08Z</time>
      </trkpt>
      <trkpt lat="42.92662896" lon="13.68642847">
        <ele>184.00000</ele>
        <time>2024-04-19T11:30:09Z</time>
      </trkpt>
      <trkpt lat="42.92666056" lon="13.68645865">
        <ele>184.00000</ele>
        <time>2024-04-19T11:30:10Z</time>
      </trkpt>
      <trkpt lat="42.92669375" lon="13.68648924">
        <ele>183.00000</ele>
        <time>2024-04-19T11:30:11Z</time>
      </trkpt>
      <trkpt lat="42.92672426" lon="13.68653149">
        <ele>182.00000</ele>
        <time>2024-04-19T11:30:12Z</time>
      </trkpt>
      <trkpt lat="42.92675225" lon="13.68658455">
        <ele>181.00000</ele>
        <time>2024-04-19T11:30:13Z</time>
      </trkpt>
      <trkpt lat="42.92678117" lon="13.68664397">
        <ele>180.00000</ele>
        <time>2024-04-19T11:30:14Z</time>
      </trkpt>
      <trkpt lat="42.92681889" lon="13.68670047">
        <ele>180.00000</ele>
        <time>2024-04-19T11:30:15Z</time>
      </trkpt>
      <trkpt lat="42.92686340" lon="13.68674783">
        <ele>180.00000</ele>
        <time>2024-04-19T11:30:16Z</time>
      </trkpt>
      <trkpt lat="42.92690992" lon="13.68679225">
        <ele>180.00000</ele>
        <time>2024-04-19T11:30:17Z</time>
      </trkpt>
      <trkpt lat="42.92695895" lon="13.68683692">
        <ele>180.00000</ele>
        <time>2024-04-19T11:30:18Z</time>
      </trkpt>
      <trkpt lat="42.92700933" lon="13.68688085">
        <ele>180.00000</ele>
        <time>2024-04-19T11:30:19Z</time>
      </trkpt>
      <trkpt lat="42.92705845" lon="13.68691689">
        <ele>180.00000</ele>
        <time>2024-04-19T11:30:20Z</time>
      </trkpt>
      <trkpt lat="42.92710589" lon="13.68695729">
        <ele>181.00000</ele>
        <time>2024-04-19T11:30:21Z</time>
      </trkpt>
      <trkpt lat="42.92715375" lon="13.68700657">
        <ele>181.00000</ele>
        <time>2024-04-19T11:30:22Z</time>
      </trkpt>
      <trkpt lat="42.92720152" lon="13.68705041">
        <ele>181.00000</ele>
        <time>2024-04-19T11:30:23Z</time>
      </trkpt>
      <trkpt lat="42.92724855" lon="13.68709274">
        <ele>182.00000</ele>
        <time>2024-04-19T11:30:24Z</time>
      </trkpt>
      <trkpt lat="42.92729180" lon="13.68713691">
        <ele>182.00000</ele>
        <time>2024-04-19T11:30:25Z</time>
      </trkpt>
      <trkpt lat="42.92733069" lon="13.68718427">
        <ele>183.00000</ele>
        <time>2024-04-19T11:30:26Z</time>
      </trkpt>
      <trkpt lat="42.92737059" lon="13.68723247">
        <ele>183.00000</ele>
        <time>2024-04-19T11:30:27Z</time>
      </trkpt>
      <trkpt lat="42.92741090" lon="13.68727555">
        <ele>184.00000</ele>
        <time>2024-04-19T11:30:28Z</time>
      </trkpt>
      <trkpt lat="42.92745684" lon="13.68730916">
        <ele>184.00000</ele>
        <time>2024-04-19T11:30:29Z</time>
      </trkpt>
      <trkpt lat="42.92750881" lon="13.68732349">
        <ele>185.00000</ele>
        <time>2024-04-19T11:30:30Z</time>
      </trkpt>
      <trkpt lat="42.92756027" lon="13.68731620">
        <ele>185.00000</ele>
        <time>2024-04-19T11:30:31Z</time>
      </trkpt>
      <trkpt lat="42.92761106" lon="13.68729776">
        <ele>186.00000</ele>
        <time>2024-04-19T11:30:32Z</time>
      </trkpt>
      <trkpt lat="42.92766178" lon="13.68727630">
        <ele>186.00000</ele>
        <time>2024-04-19T11:30:33Z</time>
      </trkpt>
      <trkpt lat="42.92771584" lon="13.68726130">
        <ele>186.00000</ele>
        <time>2024-04-19T11:30:34Z</time>
      </trkpt>
      <trkpt lat="42.92777384" lon="13.68726029">
        <ele>187.00000</ele>
        <time>2024-04-19T11:30:35Z</time>
      </trkpt>
      <trkpt lat="42.92783218" lon="13.68726960">
        <ele>187.00000</ele>
        <time>2024-04-19T11:30:36Z</time>
      </trkpt>
      <trkpt lat="42.92789119" lon="13.68728963">
        <ele>186.00000</ele>
        <time>2024-04-19T11:30:37Z</time>
      </trkpt>
      <trkpt lat="42.92795020" lon="13.68731964">
        <ele>186.00000</ele>
        <time>2024-04-19T11:30:38Z</time>
      </trkpt>
      <trkpt lat="42.92800862" lon="13.68735141">
        <ele>187.00000</ele>
        <time>2024-04-19T11:30:39Z</time>
      </trkpt>
      <trkpt lat="42.92806754" lon="13.68738695">
        <ele>187.00000</ele>
        <time>2024-04-19T11:30:40Z</time>
      </trkpt>
      <trkpt lat="42.92812597" lon="13.68742181">
        <ele>187.00000</ele>
        <time>2024-04-19T11:30:41Z</time>
      </trkpt>
      <trkpt lat="42.92818900" lon="13.68744822">
        <ele>187.00000</ele>
        <time>2024-04-19T11:30:42Z</time>
      </trkpt>
      <trkpt lat="42.92825538" lon="13.68745702">
        <ele>187.00000</ele>
        <time>2024-04-19T11:30:43Z</time>
      </trkpt>
      <trkpt lat="42.92832185" lon="13.68745467">
        <ele>186.00000</ele>
        <time>2024-04-19T11:30:44Z</time>
      </trkpt>
      <trkpt lat="42.92838865" lon="13.68744730">
        <ele>186.00000</ele>
        <time>2024-04-19T11:30:45Z</time>
      </trkpt>
      <trkpt lat="42.92845437" lon="13.68743489">
        <ele>186.00000</ele>
        <time>2024-04-19T11:30:46Z</time>
      </trkpt>
      <trkpt lat="42.92852084" lon="13.68741687">
        <ele>186.00000</ele>
        <time>2024-04-19T11:30:47Z</time>
      </trkpt>
      <trkpt lat="42.92858605" lon="13.68739860">
        <ele>186.00000</ele>
        <time>2024-04-19T11:30:48Z</time>
      </trkpt>
      <trkpt lat="42.92865252" lon="13.68737982">
        <ele>186.00000</ele>
        <time>2024-04-19T11:30:49Z</time>
      </trkpt>
      <trkpt lat="42.92872083" lon="13.68736146">
        <ele>187.00000</ele>
        <time>2024-04-19T11:30:50Z</time>
      </trkpt>
      <trkpt lat="42.92878906" lon="13.68734504">
        <ele>187.00000</ele>
        <time>2024-04-19T11:30:51Z</time>
      </trkpt>
      <trkpt lat="42.92885729" lon="13.68733087">
        <ele>188.00000</ele>
        <time>2024-04-19T11:30:52Z</time>
      </trkpt>
      <trkpt lat="42.92892518" lon="13.68731830">
        <ele>189.00000</ele>
        <time>2024-04-19T11:30:53Z</time>
      </trkpt>
      <trkpt lat="42.92899458" lon="13.68730455">
        <ele>191.00000</ele>
        <time>2024-04-19T11:30:54Z</time>
      </trkpt>
      <trkpt lat="42.92906424" lon="13.68728779">
        <ele>193.00000</ele>
        <time>2024-04-19T11:30:55Z</time>
      </trkpt>
      <trkpt lat="42.92913548" lon="13.68727077">
        <ele>195.00000</ele>
        <time>2024-04-19T11:30:56Z</time>
      </trkpt>
      <trkpt lat="42.92920690" lon="13.68725367">
        <ele>196.00000</ele>
        <time>2024-04-19T11:30:57Z</time>
      </trkpt>
      <trkpt lat="42.92927772" lon="13.68723548">
        <ele>196.00000</ele>
        <time>2024-04-19T11:30:58Z</time>
      </trkpt>
      <trkpt lat="42.92934905" lon="13.68721512">
        <ele>196.00000</ele>
        <time>2024-04-19T11:30:59Z</time>
      </trkpt>
      <trkpt lat="42.92941996" lon="13.68719475">
        <ele>195.00000</ele>
        <time>2024-04-19T11:31:00Z</time>
      </trkpt>
      <trkpt lat="42.92949087" lon="13.68717103">
        <ele>195.00000</ele>
        <time>2024-04-19T11:31:01Z</time>
      </trkpt>
      <trkpt lat="42.92956153" lon="13.68714530">
        <ele>194.00000</ele>
        <time>2024-04-19T11:31:02Z</time>
      </trkpt>
      <trkpt lat="42.92962959" lon="13.68712048">
        <ele>193.00000</ele>
        <time>2024-04-19T11:31:03Z</time>
      </trkpt>
      <trkpt lat="42.92969522" lon="13.68709660">
        <ele>192.00000</ele>
        <time>2024-04-19T11:31:04Z</time>
      </trkpt>
      <trkpt lat="42.92976060" lon="13.68707522">
        <ele>192.00000</ele>
        <time>2024-04-19T11:31:05Z</time>
      </trkpt>
      <trkpt lat="42.92982623" lon="13.68706097">
        <ele>191.00000</ele>
        <time>2024-04-19T11:31:06Z</time>
      </trkpt>
      <trkpt lat="42.92989119" lon="13.68704756">
        <ele>191.00000</ele>
        <time>2024-04-19T11:31:07Z</time>
      </trkpt>
      <trkpt lat="42.92995548" lon="13.68703373">
        <ele>191.00000</ele>
        <time>2024-04-19T11:31:08Z</time>
      </trkpt>
      <trkpt lat="42.93001877" lon="13.68702409">
        <ele>190.00000</ele>
        <time>2024-04-19T11:31:09Z</time>
      </trkpt>
      <trkpt lat="42.93008389" lon="13.68702393">
        <ele>190.00000</ele>
        <time>2024-04-19T11:31:10Z</time>
      </trkpt>
      <trkpt lat="42.93015053" lon="13.68702996">
        <ele>190.00000</ele>
        <time>2024-04-19T11:31:11Z</time>
      </trkpt>
      <trkpt lat="42.93022580" lon="13.68704572">
        <ele>190.00000</ele>
        <time>2024-04-19T11:31:12Z</time>
      </trkpt>
      <trkpt lat="42.93027106" lon="13.68706759">
        <ele>191.00000</ele>
        <time>2024-04-19T11:31:13Z</time>
      </trkpt>
      <trkpt lat="42.93032982" lon="13.68709651">
        <ele>191.00000</ele>
        <time>2024-04-19T11:31:14Z</time>
      </trkpt>
      <trkpt lat="42.93039117" lon="13.68713021">
        <ele>191.00000</ele>
        <time>2024-04-19T11:31:15Z</time>
      </trkpt>
      <trkpt lat="42.93046225" lon="13.68717589">
        <ele>192.00000</ele>
        <time>2024-04-19T11:31:16Z</time>
      </trkpt>
      <trkpt lat="42.93050534" lon="13.68721344">
        <ele>192.00000</ele>
        <time>2024-04-19T11:31:17Z</time>
      </trkpt>
      <trkpt lat="42.93055672" lon="13.68726851">
        <ele>193.00000</ele>
        <time>2024-04-19T11:31:18Z</time>
      </trkpt>
      <trkpt lat="42.93061346" lon="13.68734001">
        <ele>193.00000</ele>
        <time>2024-04-19T11:31:19Z</time>
      </trkpt>
      <trkpt lat="42.93064691" lon="13.68739072">
        <ele>194.00000</ele>
        <time>2024-04-19T11:31:20Z</time>
      </trkpt>
      <trkpt lat="42.93070659" lon="13.68746758">
        <ele>193.00000</ele>
        <time>2024-04-19T11:31:21Z</time>
      </trkpt>
      <trkpt lat="42.93074271" lon="13.68751787">
        <ele>193.00000</ele>
        <time>2024-04-19T11:31:22Z</time>
      </trkpt>
      <trkpt lat="42.93075931" lon="13.68758040">
        <ele>193.00000</ele>
        <time>2024-04-19T11:31:23Z</time>
      </trkpt>
      <trkpt lat="42.93077800" lon="13.68764989">
        <ele>194.00000</ele>
        <time>2024-04-19T11:31:24Z</time>
      </trkpt>
      <trkpt lat="42.93079946" lon="13.68772851">
        <ele>194.00000</ele>
        <time>2024-04-19T11:31:25Z</time>
      </trkpt>
      <trkpt lat="42.93082569" lon="13.68781040">
        <ele>194.00000</ele>
        <time>2024-04-19T11:31:26Z</time>
      </trkpt>
      <trkpt lat="42.93084262" lon="13.68789313">
        <ele>195.00000</ele>
        <time>2024-04-19T11:31:27Z</time>
      </trkpt>
      <trkpt lat="42.93086567" lon="13.68797494">
        <ele>195.00000</ele>
        <time>2024-04-19T11:31:28Z</time>
      </trkpt>
      <trkpt lat="42.93088537" lon="13.68805197">
        <ele>195.00000</ele>
        <time>2024-04-19T11:31:29Z</time>
      </trkpt>
      <trkpt lat="42.93090867" lon="13.68812816">
        <ele>196.00000</ele>
        <time>2024-04-19T11:31:30Z</time>
      </trkpt>
      <trkpt lat="42.93093625" lon="13.68820720">
        <ele>196.00000</ele>
        <time>2024-04-19T11:31:31Z</time>
      </trkpt>
      <trkpt lat="42.93096341" lon="13.68828549">
        <ele>197.00000</ele>
        <time>2024-04-19T11:31:32Z</time>
      </trkpt>
      <trkpt lat="42.93099241" lon="13.68837299">
        <ele>197.00000</ele>
        <time>2024-04-19T11:31:33Z</time>
      </trkpt>
      <trkpt lat="42.93101814" lon="13.68845270">
        <ele>198.00000</ele>
        <time>2024-04-19T11:31:34Z</time>
      </trkpt>
      <trkpt lat="42.93104505" lon="13.68853015">
        <ele>198.00000</ele>
        <time>2024-04-19T11:31:35Z</time>
      </trkpt>
      <trkpt lat="42.93107447" lon="13.68860349">
        <ele>199.00000</ele>
        <time>2024-04-19T11:31:36Z</time>
      </trkpt>
      <trkpt lat="42.93110456" lon="13.68867290">
        <ele>199.00000</ele>
        <time>2024-04-19T11:31:37Z</time>
      </trkpt>
      <trkpt lat="42.93113557" lon="13.68874238">
        <ele>200.00000</ele>
        <time>2024-04-19T11:31:38Z</time>
      </trkpt>
      <trkpt lat="42.93116340" lon="13.68881748">
        <ele>200.00000</ele>
        <time>2024-04-19T11:31:39Z</time>
      </trkpt>
      <trkpt lat="42.93118938" lon="13.68889619">
        <ele>201.00000</ele>
        <time>2024-04-19T11:31:40Z</time>
      </trkpt>
      <trkpt lat="42.93122014" lon="13.68897230">
        <ele>201.00000</ele>
        <time>2024-04-19T11:31:41Z</time>
      </trkpt>
      <trkpt lat="42.93125367" lon="13.68904338">
        <ele>200.00000</ele>
        <time>2024-04-19T11:31:42Z</time>
      </trkpt>
      <trkpt lat="42.93128795" lon="13.68911563">
        <ele>200.00000</ele>
        <time>2024-04-19T11:31:43Z</time>
      </trkpt>
      <trkpt lat="42.93132198" lon="13.68919232">
        <ele>200.00000</ele>
        <time>2024-04-19T11:31:44Z</time>
      </trkpt>
      <trkpt lat="42.93136934" lon="13.68927489">
        <ele>200.00000</ele>
        <time>2024-04-19T11:31:45Z</time>
      </trkpt>
      <trkpt lat="42.93140916" lon="13.68934806">
        <ele>200.00000</ele>
        <time>2024-04-19T11:31:46Z</time>
      </trkpt>
      <trkpt lat="42.93144872" lon="13.68941998">
        <ele>201.00000</ele>
        <time>2024-04-19T11:31:47Z</time>
      </trkpt>
      <trkpt lat="42.93148493" lon="13.68949122">
        <ele>201.00000</ele>
        <time>2024-04-19T11:31:48Z</time>
      </trkpt>
      <trkpt lat="42.93151862" lon="13.68956364">
        <ele>202.00000</ele>
        <time>2024-04-19T11:31:49Z</time>
      </trkpt>
      <trkpt lat="42.93155358" lon="13.68963631">
        <ele>203.00000</ele>
        <time>2024-04-19T11:31:50Z</time>
      </trkpt>
      <trkpt lat="42.93159347" lon="13.68970647">
        <ele>203.00000</ele>
        <time>2024-04-19T11:31:51Z</time>
      </trkpt>
      <trkpt lat="42.93162574" lon="13.68976523">
        <ele>203.00000</ele>
        <time>2024-04-19T11:31:52Z</time>
      </trkpt>
      <trkpt lat="42.93166078" lon="13.68984326">
        <ele>204.00000</ele>
        <time>2024-04-19T11:31:53Z</time>
      </trkpt>
      <trkpt lat="42.93169800" lon="13.68993932">
        <ele>205.00000</ele>
        <time>2024-04-19T11:31:54Z</time>
      </trkpt>
      <trkpt lat="42.93172314" lon="13.69002155">
        <ele>206.00000</ele>
        <time>2024-04-19T11:31:55Z</time>
      </trkpt>
      <trkpt lat="42.93174167" lon="13.69008785">
        <ele>206.00000</ele>
        <time>2024-04-19T11:31:56Z</time>
      </trkpt>
      <trkpt lat="42.93176195" lon="13.69016965">
        <ele>206.00000</ele>
        <time>2024-04-19T11:31:57Z</time>
      </trkpt>
      <trkpt lat="42.93178584" lon="13.69026487">
        <ele>206.00000</ele>
        <time>2024-04-19T11:31:58Z</time>
      </trkpt>
      <trkpt lat="42.93180151" lon="13.69034710">
        <ele>206.00000</ele>
        <time>2024-04-19T11:31:59Z</time>
      </trkpt>
      <trkpt lat="42.93181509" lon="13.69042907">
        <ele>207.00000</ele>
        <time>2024-04-19T11:32:00Z</time>
      </trkpt>
      <trkpt lat="42.93183336" lon="13.69050149">
        <ele>207.00000</ele>
        <time>2024-04-19T11:32:01Z</time>
      </trkpt>
      <trkpt lat="42.93186195" lon="13.69057743">
        <ele>206.00000</ele>
        <time>2024-04-19T11:32:02Z</time>
      </trkpt>
      <trkpt lat="42.93188718" lon="13.69065547">
        <ele>207.00000</ele>
        <time>2024-04-19T11:32:03Z</time>
      </trkpt>
      <trkpt lat="42.93191224" lon="13.69073275">
        <ele>206.00000</ele>
        <time>2024-04-19T11:32:04Z</time>
      </trkpt>
      <trkpt lat="42.93194199" lon="13.69080886">
        <ele>205.00000</ele>
        <time>2024-04-19T11:32:05Z</time>
      </trkpt>
      <trkpt lat="42.93196865" lon="13.69087600">
        <ele>207.00000</ele>
        <time>2024-04-19T11:32:06Z</time>
      </trkpt>
      <trkpt lat="42.93200368" lon="13.69094221">
        <ele>208.00000</ele>
        <time>2024-04-19T11:32:07Z</time>
      </trkpt>
      <trkpt lat="42.93203252" lon="13.69099728">
        <ele>209.00000</ele>
        <time>2024-04-19T11:32:08Z</time>
      </trkpt>
      <trkpt lat="42.93207108" lon="13.69106576">
        <ele>209.00000</ele>
        <time>2024-04-19T11:32:09Z</time>
      </trkpt>
      <trkpt lat="42.93211860" lon="13.69115252">
        <ele>209.00000</ele>
        <time>2024-04-19T11:32:10Z</time>
      </trkpt>
      <trkpt lat="42.93216043" lon="13.69122477">
        <ele>209.00000</ele>
        <time>2024-04-19T11:32:11Z</time>
      </trkpt>
      <trkpt lat="42.93219538" lon="13.69128126">
        <ele>208.00000</ele>
        <time>2024-04-19T11:32:12Z</time>
      </trkpt>
      <trkpt lat="42.93223586" lon="13.69134899">
        <ele>209.00000</ele>
        <time>2024-04-19T11:32:13Z</time>
      </trkpt>
      <trkpt lat="42.93228968" lon="13.69142845">
        <ele>211.00000</ele>
        <time>2024-04-19T11:32:14Z</time>
      </trkpt>
      <trkpt lat="42.93234508" lon="13.69148109">
        <ele>212.00000</ele>
        <time>2024-04-19T11:32:15Z</time>
      </trkpt>
      <trkpt lat="42.93239680" lon="13.69150187">
        <ele>213.00000</ele>
        <time>2024-04-19T11:32:16Z</time>
      </trkpt>
      <trkpt lat="42.93246394" lon="13.69149869">
        <ele>214.00000</ele>
        <time>2024-04-19T11:32:17Z</time>
      </trkpt>
      <trkpt lat="42.93254004" lon="13.69147379">
        <ele>217.00000</ele>
        <time>2024-04-19T11:32:18Z</time>
      </trkpt>
      <trkpt lat="42.93259721" lon="13.69144102">
        <ele>221.00000</ele>
        <time>2024-04-19T11:32:19Z</time>
      </trkpt>
      <trkpt lat="42.93267801" lon="13.69137866">
        <ele>226.00000</ele>
        <time>2024-04-19T11:32:20Z</time>
      </trkpt>
      <trkpt lat="42.93271279" lon="13.69132476">
        <ele>229.00000</ele>
        <time>2024-04-19T11:32:21Z</time>
      </trkpt>
      <trkpt lat="42.93271061" lon="13.69124690">
        <ele>230.00000</ele>
        <time>2024-04-19T11:32:22Z</time>
      </trkpt>
      <trkpt lat="42.93268865" lon="13.69114615">
        <ele>230.00000</ele>
        <time>2024-04-19T11:32:23Z</time>
      </trkpt>
      <trkpt lat="42.93266435" lon="13.69105579">
        <ele>229.00000</ele>
        <time>2024-04-19T11:32:24Z</time>
      </trkpt>
      <trkpt lat="42.93264138" lon="13.69096686">
        <ele>228.00000</ele>
        <time>2024-04-19T11:32:25Z</time>
      </trkpt>
      <trkpt lat="42.93261825" lon="13.69089880">
        <ele>227.00000</ele>
        <time>2024-04-19T11:32:26Z</time>
      </trkpt>
      <trkpt lat="42.93258933" lon="13.69081808">
        <ele>226.00000</ele>
        <time>2024-04-19T11:32:27Z</time>
      </trkpt>
      <trkpt lat="42.93255941" lon="13.69073761">
        <ele>224.00000</ele>
        <time>2024-04-19T11:32:28Z</time>
      </trkpt>
      <trkpt lat="42.93253309" lon="13.69065941">
        <ele>222.00000</ele>
        <time>2024-04-19T11:32:29Z</time>
      </trkpt>
      <trkpt lat="42.93250618" lon="13.69057106">
        <ele>221.00000</ele>
        <time>2024-04-19T11:32:30Z</time>
      </trkpt>
      <trkpt lat="42.93248506" lon="13.69051247">
        <ele>220.00000</ele>
        <time>2024-04-19T11:32:31Z</time>
      </trkpt>
      <trkpt lat="42.93246192" lon="13.69043762">
        <ele>220.00000</ele>
        <time>2024-04-19T11:32:32Z</time>
      </trkpt>
      <trkpt lat="42.93243535" lon="13.69035942">
        <ele>220.00000</ele>
        <time>2024-04-19T11:32:33Z</time>
      </trkpt>
      <trkpt lat="42.93241339" lon="13.69028524">
        <ele>220.00000</ele>
        <time>2024-04-19T11:32:34Z</time>
      </trkpt>
      <trkpt lat="42.93239160" lon="13.69021508">
        <ele>220.00000</ele>
        <time>2024-04-19T11:32:35Z</time>
      </trkpt>
      <trkpt lat="42.93237240" lon="13.69014627">
        <ele>221.00000</ele>
        <time>2024-04-19T11:32:36Z</time>
      </trkpt>
      <trkpt lat="42.93235371" lon="13.69008189">
        <ele>221.00000</ele>
        <time>2024-04-19T11:32:37Z</time>
      </trkpt>
      <trkpt lat="42.93233728" lon="13.69000059">
        <ele>222.00000</ele>
        <time>2024-04-19T11:32:38Z</time>
      </trkpt>
      <trkpt lat="42.93232136" lon="13.68994309">
        <ele>221.00000</ele>
        <time>2024-04-19T11:32:39Z</time>
      </trkpt>
      <trkpt lat="42.93230392" lon="13.68987235">
        <ele>221.00000</ele>
        <time>2024-04-19T11:32:40Z</time>
      </trkpt>
      <trkpt lat="42.93228968" lon="13.68980227">
        <ele>222.00000</ele>
        <time>2024-04-19T11:32:41Z</time>
      </trkpt>
      <trkpt lat="42.93227274" lon="13.68973899">
        <ele>222.00000</ele>
        <time>2024-04-19T11:32:42Z</time>
      </trkpt>
      <trkpt lat="42.93226160" lon="13.68967881">
        <ele>222.00000</ele>
        <time>2024-04-19T11:32:43Z</time>
      </trkpt>
      <trkpt lat="42.93225707" lon="13.68961628">
        <ele>222.00000</ele>
        <time>2024-04-19T11:32:44Z</time>
      </trkpt>
      <trkpt lat="42.93224584" lon="13.68955459">
        <ele>221.00000</ele>
        <time>2024-04-19T11:32:45Z</time>
      </trkpt>
      <trkpt lat="42.93223452" lon="13.68949072">
        <ele>221.00000</ele>
        <time>2024-04-19T11:32:46Z</time>
      </trkpt>
      <trkpt lat="42.93222589" lon="13.68942651">
        <ele>221.00000</ele>
        <time>2024-04-19T11:32:47Z</time>
      </trkpt>
      <trkpt lat="42.93222044" lon="13.68936139">
        <ele>221.00000</ele>
        <time>2024-04-19T11:32:48Z</time>
      </trkpt>
      <trkpt lat="42.93221700" lon="13.68929827">
        <ele>221.00000</ele>
        <time>2024-04-19T11:32:49Z</time>
      </trkpt>
      <trkpt lat="42.93220862" lon="13.68921881">
        <ele>221.00000</ele>
        <time>2024-04-19T11:32:50Z</time>
      </trkpt>
      <trkpt lat="42.93219940" lon="13.68916718">
        <ele>221.00000</ele>
        <time>2024-04-19T11:32:51Z</time>
      </trkpt>
      <trkpt lat="42.93219789" lon="13.68910138">
        <ele>221.00000</ele>
        <time>2024-04-19T11:32:52Z</time>
      </trkpt>
      <trkpt lat="42.93219488" lon="13.68903533">
        <ele>221.00000</ele>
        <time>2024-04-19T11:32:53Z</time>
      </trkpt>
      <trkpt lat="42.93218985" lon="13.68897297">
        <ele>221.00000</ele>
        <time>2024-04-19T11:32:54Z</time>
      </trkpt>
      <trkpt lat="42.93218331" lon="13.68891270">
        <ele>220.00000</ele>
        <time>2024-04-19T11:32:55Z</time>
      </trkpt>
      <trkpt lat="42.93217434" lon="13.68885185">
        <ele>220.00000</ele>
        <time>2024-04-19T11:32:56Z</time>
      </trkpt>
      <trkpt lat="42.93216177" lon="13.68879284">
        <ele>219.00000</ele>
        <time>2024-04-19T11:32:57Z</time>
      </trkpt>
      <trkpt lat="42.93214752" lon="13.68873492">
        <ele>218.00000</ele>
        <time>2024-04-19T11:32:58Z</time>
      </trkpt>
      <trkpt lat="42.93213402" lon="13.68867952">
        <ele>217.00000</ele>
        <time>2024-04-19T11:32:59Z</time>
      </trkpt>
      <trkpt lat="42.93212480" lon="13.68861959">
        <ele>216.00000</ele>
        <time>2024-04-19T11:33:00Z</time>
      </trkpt>
      <trkpt lat="42.93211634" lon="13.68855739">
        <ele>216.00000</ele>
        <time>2024-04-19T11:33:01Z</time>
      </trkpt>
      <trkpt lat="42.93210955" lon="13.68849671">
        <ele>215.00000</ele>
        <time>2024-04-19T11:33:02Z</time>
      </trkpt>
      <trkpt lat="42.93210812" lon="13.68844239">
        <ele>215.00000</ele>
        <time>2024-04-19T11:33:03Z</time>
      </trkpt>
      <trkpt lat="42.93211944" lon="13.68839688">
        <ele>215.00000</ele>
        <time>2024-04-19T11:33:04Z</time>
      </trkpt>
      <trkpt lat="42.93214249" lon="13.68835422">
        <ele>216.00000</ele>
        <time>2024-04-19T11:33:05Z</time>
      </trkpt>
      <trkpt lat="42.93217451" lon="13.68832052">
        <ele>217.00000</ele>
        <time>2024-04-19T11:33:06Z</time>
      </trkpt>
      <trkpt lat="42.93221491" lon="13.68830359">
        <ele>218.00000</ele>
        <time>2024-04-19T11:33:07Z</time>
      </trkpt>
      <trkpt lat="42.93225497" lon="13.68831122">
        <ele>219.00000</ele>
        <time>2024-04-19T11:33:08Z</time>
      </trkpt>
      <trkpt lat="42.93229412" lon="13.68833460">
        <ele>220.00000</ele>
        <time>2024-04-19T11:33:09Z</time>
      </trkpt>
      <trkpt lat="42.93233326" lon="13.68836210">
        <ele>222.00000</ele>
        <time>2024-04-19T11:33:10Z</time>
      </trkpt>
      <trkpt lat="42.93237115" lon="13.68839386">
        <ele>223.00000</ele>
        <time>2024-04-19T11:33:11Z</time>
      </trkpt>
      <trkpt lat="42.93240878" lon="13.68842387">
        <ele>224.00000</ele>
        <time>2024-04-19T11:33:12Z</time>
      </trkpt>
      <trkpt lat="42.93244860" lon="13.68844776">
        <ele>226.00000</ele>
        <time>2024-04-19T11:33:13Z</time>
      </trkpt>
      <trkpt lat="42.93249160" lon="13.68846670">
        <ele>228.00000</ele>
        <time>2024-04-19T11:33:14Z</time>
      </trkpt>
      <trkpt lat="42.93253879" lon="13.68847575">
        <ele>230.00000</ele>
        <time>2024-04-19T11:33:15Z</time>
      </trkpt>
      <trkpt lat="42.93258430" lon="13.68846821">
        <ele>232.00000</ele>
        <time>2024-04-19T11:33:16Z</time>
      </trkpt>
      <trkpt lat="42.93262529" lon="13.68844131">
        <ele>234.00000</ele>
        <time>2024-04-19T11:33:17Z</time>
      </trkpt>
      <trkpt lat="42.93266116" lon="13.68840334">
        <ele>235.00000</ele>
        <time>2024-04-19T11:33:18Z</time>
      </trkpt>
      <trkpt lat="42.93268740" lon="13.68835254">
        <ele>236.00000</ele>
        <time>2024-04-19T11:33:19Z</time>
      </trkpt>
      <trkpt lat="42.93269896" lon="13.68829353">
        <ele>236.00000</ele>
        <time>2024-04-19T11:33:20Z</time>
      </trkpt>
      <trkpt lat="42.93270450" lon="13.68823134">
        <ele>235.00000</ele>
        <time>2024-04-19T11:33:21Z</time>
      </trkpt>
      <trkpt lat="42.93271187" lon="13.68817350">
        <ele>235.00000</ele>
        <time>2024-04-19T11:33:22Z</time>
      </trkpt>
      <trkpt lat="42.93271933" lon="13.68811718">
        <ele>235.00000</ele>
        <time>2024-04-19T11:33:23Z</time>
      </trkpt>
      <trkpt lat="42.93272294" lon="13.68805976">
        <ele>234.00000</ele>
        <time>2024-04-19T11:33:24Z</time>
      </trkpt>
      <trkpt lat="42.93272386" lon="13.68800050">
        <ele>233.00000</ele>
        <time>2024-04-19T11:33:25Z</time>
      </trkpt>
      <trkpt lat="42.93272109" lon="13.68794183">
        <ele>233.00000</ele>
        <time>2024-04-19T11:33:26Z</time>
      </trkpt>
      <trkpt lat="42.93272210" lon="13.68788382">
        <ele>232.00000</ele>
        <time>2024-04-19T11:33:27Z</time>
      </trkpt>
      <trkpt lat="42.93272034" lon="13.68782632">
        <ele>231.00000</ele>
        <time>2024-04-19T11:33:28Z</time>
      </trkpt>
      <trkpt lat="42.93271992" lon="13.68776698">
        <ele>231.00000</ele>
        <time>2024-04-19T11:33:29Z</time>
      </trkpt>
      <trkpt lat="42.93272126" lon="13.68770454">
        <ele>231.00000</ele>
        <time>2024-04-19T11:33:30Z</time>
      </trkpt>
      <trkpt lat="42.93272763" lon="13.68764251">
        <ele>231.00000</ele>
        <time>2024-04-19T11:33:31Z</time>
      </trkpt>
      <trkpt lat="42.93273693" lon="13.68758836">
        <ele>231.00000</ele>
        <time>2024-04-19T11:33:32Z</time>
      </trkpt>
      <trkpt lat="42.93274909" lon="13.68753757">
        <ele>231.00000</ele>
        <time>2024-04-19T11:33:33Z</time>
      </trkpt>
      <trkpt lat="42.93276309" lon="13.68748476">
        <ele>232.00000</ele>
        <time>2024-04-19T11:33:34Z</time>
      </trkpt>
      <trkpt lat="42.93277566" lon="13.68742877">
        <ele>232.00000</ele>
        <time>2024-04-19T11:33:35Z</time>
      </trkpt>
      <trkpt lat="42.93278957" lon="13.68737437">
        <ele>233.00000</ele>
        <time>2024-04-19T11:33:36Z</time>
      </trkpt>
      <trkpt lat="42.93280432" lon="13.68731888">
        <ele>234.00000</ele>
        <time>2024-04-19T11:33:37Z</time>
      </trkpt>
      <trkpt lat="42.93281673" lon="13.68726549">
        <ele>234.00000</ele>
        <time>2024-04-19T11:33:38Z</time>
      </trkpt>
      <trkpt lat="42.93283123" lon="13.68721202">
        <ele>236.00000</ele>
        <time>2024-04-19T11:33:39Z</time>
      </trkpt>
      <trkpt lat="42.93284724" lon="13.68715879">
        <ele>237.00000</ele>
        <time>2024-04-19T11:33:40Z</time>
      </trkpt>
      <trkpt lat="42.93285964" lon="13.68710255">
        <ele>238.00000</ele>
        <time>2024-04-19T11:33:41Z</time>
      </trkpt>
      <trkpt lat="42.93286895" lon="13.68704840">
        <ele>238.00000</ele>
        <time>2024-04-19T11:33:42Z</time>
      </trkpt>
      <trkpt lat="42.93287750" lon="13.68699895">
        <ele>239.00000</ele>
        <time>2024-04-19T11:33:43Z</time>
      </trkpt>
      <trkpt lat="42.93288370" lon="13.68694555">
        <ele>239.00000</ele>
        <time>2024-04-19T11:33:44Z</time>
      </trkpt>
      <trkpt lat="42.93288647" lon="13.68688495">
        <ele>240.00000</ele>
        <time>2024-04-19T11:33:45Z</time>
      </trkpt>
      <trkpt lat="42.93288756" lon="13.68682444">
        <ele>241.00000</ele>
        <time>2024-04-19T11:33:46Z</time>
      </trkpt>
      <trkpt lat="42.93288596" lon="13.68676912">
        <ele>241.00000</ele>
        <time>2024-04-19T11:33:47Z</time>
      </trkpt>
      <trkpt lat="42.93288378" lon="13.68671849">
        <ele>242.00000</ele>
        <time>2024-04-19T11:33:48Z</time>
      </trkpt>
      <trkpt lat="42.93287951" lon="13.68666627">
        <ele>243.00000</ele>
        <time>2024-04-19T11:33:49Z</time>
      </trkpt>
      <trkpt lat="42.93286761" lon="13.68661346">
        <ele>243.00000</ele>
        <time>2024-04-19T11:33:50Z</time>
      </trkpt>
      <trkpt lat="42.93284984" lon="13.68655915">
        <ele>243.00000</ele>
        <time>2024-04-19T11:33:51Z</time>
      </trkpt>
      <trkpt lat="42.93282754" lon="13.68650886">
        <ele>243.00000</ele>
        <time>2024-04-19T11:33:52Z</time>
      </trkpt>
      <trkpt lat="42.93280240" lon="13.68646242">
        <ele>242.00000</ele>
        <time>2024-04-19T11:33:53Z</time>
      </trkpt>
      <trkpt lat="42.93277314" lon="13.68641934">
        <ele>242.00000</ele>
        <time>2024-04-19T11:33:54Z</time>
      </trkpt>
      <trkpt lat="42.93273920" lon="13.68637944">
        <ele>241.00000</ele>
        <time>2024-04-19T11:33:55Z</time>
      </trkpt>
      <trkpt lat="42.93270844" lon="13.68634021">
        <ele>240.00000</ele>
        <time>2024-04-19T11:33:56Z</time>
      </trkpt>
      <trkpt lat="42.93268379" lon="13.68630258">
        <ele>240.00000</ele>
        <time>2024-04-19T11:33:57Z</time>
      </trkpt>
      <trkpt lat="42.93265680" lon="13.68626587">
        <ele>239.00000</ele>
        <time>2024-04-19T11:33:58Z</time>
      </trkpt>
      <trkpt lat="42.93262571" lon="13.68622907">
        <ele>238.00000</ele>
        <time>2024-04-19T11:33:59Z</time>
      </trkpt>
      <trkpt lat="42.93259318" lon="13.68619110">
        <ele>237.00000</ele>
        <time>2024-04-19T11:34:00Z</time>
      </trkpt>
      <trkpt lat="42.93256318" lon="13.68614994">
        <ele>237.00000</ele>
        <time>2024-04-19T11:34:01Z</time>
      </trkpt>
      <trkpt lat="42.93253250" lon="13.68610560">
        <ele>236.00000</ele>
        <time>2024-04-19T11:34:02Z</time>
      </trkpt>
      <trkpt lat="42.93250400" lon="13.68605649">
        <ele>235.00000</ele>
        <time>2024-04-19T11:34:03Z</time>
      </trkpt>
      <trkpt lat="42.93247642" lon="13.68600058">
        <ele>236.00000</ele>
        <time>2024-04-19T11:34:04Z</time>
      </trkpt>
      <trkpt lat="42.93245128" lon="13.68594853">
        <ele>236.00000</ele>
        <time>2024-04-19T11:34:05Z</time>
      </trkpt>
      <trkpt lat="42.93243309" lon="13.68589363">
        <ele>237.00000</ele>
        <time>2024-04-19T11:34:06Z</time>
      </trkpt>
      <trkpt lat="42.93242379" lon="13.68583797">
        <ele>238.00000</ele>
        <time>2024-04-19T11:34:07Z</time>
      </trkpt>
      <trkpt lat="42.93242915" lon="13.68577804">
        <ele>238.00000</ele>
        <time>2024-04-19T11:34:08Z</time>
      </trkpt>
      <trkpt lat="42.93244809" lon="13.68572691">
        <ele>240.00000</ele>
        <time>2024-04-19T11:34:09Z</time>
      </trkpt>
      <trkpt lat="42.93247357" lon="13.68567695">
        <ele>241.00000</ele>
        <time>2024-04-19T11:34:10Z</time>
      </trkpt>
      <trkpt lat="42.93250484" lon="13.68563236">
        <ele>243.00000</ele>
        <time>2024-04-19T11:34:11Z</time>
      </trkpt>
      <trkpt lat="42.93253459" lon="13.68558894">
        <ele>246.00000</ele>
        <time>2024-04-19T11:34:12Z</time>
      </trkpt>
      <trkpt lat="42.93256267" lon="13.68554670">
        <ele>248.00000</ele>
        <time>2024-04-19T11:34:13Z</time>
      </trkpt>
      <trkpt lat="42.93259075" lon="13.68550605">
        <ele>249.00000</ele>
        <time>2024-04-19T11:34:14Z</time>
      </trkpt>
      <trkpt lat="42.93261850" lon="13.68546615">
        <ele>251.00000</ele>
        <time>2024-04-19T11:34:15Z</time>
      </trkpt>
      <trkpt lat="42.93264222" lon="13.68542441">
        <ele>252.00000</ele>
        <time>2024-04-19T11:34:16Z</time>
      </trkpt>
      <trkpt lat="42.93266502" lon="13.68537772">
        <ele>253.00000</ele>
        <time>2024-04-19T11:34:17Z</time>
      </trkpt>
      <trkpt lat="42.93268798" lon="13.68533288">
        <ele>254.00000</ele>
        <time>2024-04-19T11:34:18Z</time>
      </trkpt>
      <trkpt lat="42.93271095" lon="13.68528904">
        <ele>255.00000</ele>
        <time>2024-04-19T11:34:19Z</time>
      </trkpt>
      <trkpt lat="42.93273241" lon="13.68524587">
        <ele>254.00000</ele>
        <time>2024-04-19T11:34:20Z</time>
      </trkpt>
      <trkpt lat="42.93275269" lon="13.68520086">
        <ele>253.00000</ele>
        <time>2024-04-19T11:34:21Z</time>
      </trkpt>
      <trkpt lat="42.93277323" lon="13.68515577">
        <ele>252.00000</ele>
        <time>2024-04-19T11:34:22Z</time>
      </trkpt>
      <trkpt lat="42.93279292" lon="13.68511084">
        <ele>250.00000</ele>
        <time>2024-04-19T11:34:23Z</time>
      </trkpt>
      <trkpt lat="42.93281346" lon="13.68506616">
        <ele>248.00000</ele>
        <time>2024-04-19T11:34:24Z</time>
      </trkpt>
      <trkpt lat="42.93283475" lon="13.68502124">
        <ele>246.00000</ele>
        <time>2024-04-19T11:34:25Z</time>
      </trkpt>
      <trkpt lat="42.93285931" lon="13.68498310">
        <ele>244.00000</ele>
        <time>2024-04-19T11:34:26Z</time>
      </trkpt>
      <trkpt lat="42.93288831" lon="13.68495251">
        <ele>242.00000</ele>
        <time>2024-04-19T11:34:27Z</time>
      </trkpt>
      <trkpt lat="42.93292217" lon="13.68493122">
        <ele>241.00000</ele>
        <time>2024-04-19T11:34:28Z</time>
      </trkpt>
      <trkpt lat="42.93295830" lon="13.68491814">
        <ele>240.00000</ele>
        <time>2024-04-19T11:34:29Z</time>
      </trkpt>
      <trkpt lat="42.93299417" lon="13.68490900">
        <ele>240.00000</ele>
        <time>2024-04-19T11:34:30Z</time>
      </trkpt>
      <trkpt lat="42.93303022" lon="13.68490196">
        <ele>240.00000</ele>
        <time>2024-04-19T11:34:31Z</time>
      </trkpt>
      <trkpt lat="42.93306844" lon="13.68490054">
        <ele>239.00000</ele>
        <time>2024-04-19T11:34:32Z</time>
      </trkpt>
      <trkpt lat="42.93310741" lon="13.68490288">
        <ele>240.00000</ele>
        <time>2024-04-19T11:34:33Z</time>
      </trkpt>
      <trkpt lat="42.93314564" lon="13.68490900">
        <ele>240.00000</ele>
        <time>2024-04-19T11:34:34Z</time>
      </trkpt>
      <trkpt lat="42.93318302" lon="13.68492124">
        <ele>240.00000</ele>
        <time>2024-04-19T11:34:35Z</time>
      </trkpt>
      <trkpt lat="42.93322023" lon="13.68494052">
        <ele>241.00000</ele>
        <time>2024-04-19T11:34:36Z</time>
      </trkpt>
      <trkpt lat="42.93325535" lon="13.68496650">
        <ele>242.00000</ele>
        <time>2024-04-19T11:34:37Z</time>
      </trkpt>
      <trkpt lat="42.93328620" lon="13.68499618">
        <ele>243.00000</ele>
        <time>2024-04-19T11:34:38Z</time>
      </trkpt>
      <trkpt lat="42.93331420" lon="13.68502928">
        <ele>244.00000</ele>
        <time>2024-04-19T11:34:39Z</time>
      </trkpt>
      <trkpt lat="42.93334202" lon="13.68506398">
        <ele>246.00000</ele>
        <time>2024-04-19T11:34:40Z</time>
      </trkpt>
      <trkpt lat="42.93337010" lon="13.68509810">
        <ele>247.00000</ele>
        <time>2024-04-19T11:34:41Z</time>
      </trkpt>
      <trkpt lat="42.93339860" lon="13.68513322">
        <ele>249.00000</ele>
        <time>2024-04-19T11:34:42Z</time>
      </trkpt>
      <trkpt lat="42.93342836" lon="13.68516566">
        <ele>250.00000</ele>
        <time>2024-04-19T11:34:43Z</time>
      </trkpt>
      <trkpt lat="42.93346088" lon="13.68519659">
        <ele>251.00000</ele>
        <time>2024-04-19T11:34:44Z</time>
      </trkpt>
      <trkpt lat="42.93349273" lon="13.68522852">
        <ele>252.00000</ele>
        <time>2024-04-19T11:34:45Z</time>
      </trkpt>
      <trkpt lat="42.93352601" lon="13.68525870">
        <ele>253.00000</ele>
        <time>2024-04-19T11:34:46Z</time>
      </trkpt>
      <trkpt lat="42.93355911" lon="13.68528770">
        <ele>254.00000</ele>
        <time>2024-04-19T11:34:47Z</time>
      </trkpt>
      <trkpt lat="42.93359222" lon="13.68531829">
        <ele>254.00000</ele>
        <time>2024-04-19T11:34:48Z</time>
      </trkpt>
      <trkpt lat="42.93362525" lon="13.68534704">
        <ele>255.00000</ele>
        <time>2024-04-19T11:34:49Z</time>
      </trkpt>
      <trkpt lat="42.93365743" lon="13.68537663">
        <ele>256.00000</ele>
        <time>2024-04-19T11:34:50Z</time>
      </trkpt>
      <trkpt lat="42.93368811" lon="13.68540882">
        <ele>257.00000</ele>
        <time>2024-04-19T11:34:51Z</time>
      </trkpt>
      <trkpt lat="42.93371703" lon="13.68544000">
        <ele>257.00000</ele>
        <time>2024-04-19T11:34:52Z</time>
      </trkpt>
      <trkpt lat="42.93374679" lon="13.68547344">
        <ele>258.00000</ele>
        <time>2024-04-19T11:34:53Z</time>
      </trkpt>
      <trkpt lat="42.93377545" lon="13.68550806">
        <ele>259.00000</ele>
        <time>2024-04-19T11:34:54Z</time>
      </trkpt>
      <trkpt lat="42.93380420" lon="13.68554251">
        <ele>260.00000</ele>
        <time>2024-04-19T11:34:55Z</time>
      </trkpt>
      <trkpt lat="42.93383991" lon="13.68558090">
        <ele>261.00000</ele>
        <time>2024-04-19T11:34:56Z</time>
      </trkpt>
      <trkpt lat="42.93386355" lon="13.68560755">
        <ele>262.00000</ele>
        <time>2024-04-19T11:34:57Z</time>
      </trkpt>
      <trkpt lat="42.93389816" lon="13.68564879">
        <ele>263.00000</ele>
        <time>2024-04-19T11:34:58Z</time>
      </trkpt>
      <trkpt lat="42.93391996" lon="13.68567553">
        <ele>262.00000</ele>
        <time>2024-04-19T11:34:59Z</time>
      </trkpt>
      <trkpt lat="42.93394887" lon="13.68570855">
        <ele>262.00000</ele>
        <time>2024-04-19T11:35:00Z</time>
      </trkpt>
      <trkpt lat="42.93397804" lon="13.68574367">
        <ele>262.00000</ele>
        <time>2024-04-19T11:35:01Z</time>
      </trkpt>
      <trkpt lat="42.93400813" lon="13.68578223">
        <ele>262.00000</ele>
        <time>2024-04-19T11:35:02Z</time>
      </trkpt>
      <trkpt lat="42.93403831" lon="13.68581643">
        <ele>262.00000</ele>
        <time>2024-04-19T11:35:03Z</time>
      </trkpt>
      <trkpt lat="42.93406815" lon="13.68584996">
        <ele>262.00000</ele>
        <time>2024-04-19T11:35:04Z</time>
      </trkpt>
      <trkpt lat="42.93409522" lon="13.68588566">
        <ele>262.00000</ele>
        <time>2024-04-19T11:35:05Z</time>
      </trkpt>
      <trkpt lat="42.93412104" lon="13.68592405">
        <ele>262.00000</ele>
        <time>2024-04-19T11:35:06Z</time>
      </trkpt>
      <trkpt lat="42.93414484" lon="13.68596638">
        <ele>263.00000</ele>
        <time>2024-04-19T11:35:07Z</time>
      </trkpt>
      <trkpt lat="42.93417250" lon="13.68601894">
        <ele>264.00000</ele>
        <time>2024-04-19T11:35:08Z</time>
      </trkpt>
      <trkpt lat="42.93419061" lon="13.68605934">
        <ele>265.00000</ele>
        <time>2024-04-19T11:35:09Z</time>
      </trkpt>
      <trkpt lat="42.93420821" lon="13.68610938">
        <ele>266.00000</ele>
        <time>2024-04-19T11:35:10Z</time>
      </trkpt>
      <trkpt lat="42.93422548" lon="13.68616160">
        <ele>265.00000</ele>
        <time>2024-04-19T11:35:11Z</time>
      </trkpt>
      <trkpt lat="42.93423746" lon="13.68621289">
        <ele>266.00000</ele>
        <time>2024-04-19T11:35:12Z</time>
      </trkpt>
      <trkpt lat="42.93424760" lon="13.68626151">
        <ele>266.00000</ele>
        <time>2024-04-19T11:35:13Z</time>
      </trkpt>
      <trkpt lat="42.93425624" lon="13.68631348">
        <ele>266.00000</ele>
        <time>2024-04-19T11:35:14Z</time>
      </trkpt>
      <trkpt lat="42.93426378" lon="13.68636486">
        <ele>267.00000</ele>
        <time>2024-04-19T11:35:15Z</time>
      </trkpt>
      <trkpt lat="42.93427007" lon="13.68641791">
        <ele>268.00000</ele>
        <time>2024-04-19T11:35:16Z</time>
      </trkpt>
      <trkpt lat="42.93427719" lon="13.68647181">
        <ele>268.00000</ele>
        <time>2024-04-19T11:35:17Z</time>
      </trkpt>
      <trkpt lat="42.93428616" lon="13.68653493">
        <ele>269.00000</ele>
        <time>2024-04-19T11:35:18Z</time>
      </trkpt>
      <trkpt lat="42.93429270" lon="13.68657901">
        <ele>269.00000</ele>
        <time>2024-04-19T11:35:19Z</time>
      </trkpt>
      <trkpt lat="42.93429882" lon="13.68663484">
        <ele>270.00000</ele>
        <time>2024-04-19T11:35:20Z</time>
      </trkpt>
      <trkpt lat="42.93430385" lon="13.68668898">
        <ele>270.00000</ele>
        <time>2024-04-19T11:35:21Z</time>
      </trkpt>
      <trkpt lat="42.93430896" lon="13.68674129">
        <ele>270.00000</ele>
        <time>2024-04-19T11:35:22Z</time>
      </trkpt>
      <trkpt lat="42.93431072" lon="13.68679342">
        <ele>270.00000</ele>
        <time>2024-04-19T11:35:23Z</time>
      </trkpt>
      <trkpt lat="42.93431458" lon="13.68684573">
        <ele>270.00000</ele>
        <time>2024-04-19T11:35:24Z</time>
      </trkpt>
      <trkpt lat="42.93431701" lon="13.68689878">
        <ele>269.00000</ele>
        <time>2024-04-19T11:35:25Z</time>
      </trkpt>
      <trkpt lat="42.93432262" lon="13.68696131">
        <ele>269.00000</ele>
        <time>2024-04-19T11:35:26Z</time>
      </trkpt>
      <trkpt lat="42.93432514" lon="13.68701378">
        <ele>269.00000</ele>
        <time>2024-04-19T11:35:27Z</time>
      </trkpt>
      <trkpt lat="42.93432723" lon="13.68706743">
        <ele>269.00000</ele>
        <time>2024-04-19T11:35:28Z</time>
      </trkpt>
      <trkpt lat="42.93432732" lon="13.68711252">
        <ele>269.00000</ele>
        <time>2024-04-19T11:35:29Z</time>
      </trkpt>
      <trkpt lat="42.93432530" lon="13.68716675">
        <ele>269.00000</ele>
        <time>2024-04-19T11:35:30Z</time>
      </trkpt>
      <trkpt lat="42.93432338" lon="13.68723180">
        <ele>269.00000</ele>
        <time>2024-04-19T11:35:31Z</time>
      </trkpt>
      <trkpt lat="42.93432120" lon="13.68728536">
        <ele>269.00000</ele>
        <time>2024-04-19T11:35:32Z</time>
      </trkpt>
      <trkpt lat="42.93432162" lon="13.68732869">
        <ele>269.00000</ele>
        <time>2024-04-19T11:35:33Z</time>
      </trkpt>
      <trkpt lat="42.93432396" lon="13.68738309">
        <ele>269.00000</ele>
        <time>2024-04-19T11:35:34Z</time>
      </trkpt>
      <trkpt lat="42.93432220" lon="13.68743539">
        <ele>269.00000</ele>
        <time>2024-04-19T11:35:35Z</time>
      </trkpt>
      <trkpt lat="42.93431541" lon="13.68749172">
        <ele>270.00000</ele>
        <time>2024-04-19T11:35:36Z</time>
      </trkpt>
      <trkpt lat="42.93431122" lon="13.68755450">
        <ele>270.00000</ele>
        <time>2024-04-19T11:35:37Z</time>
      </trkpt>
      <trkpt lat="42.93431055" lon="13.68760546">
        <ele>271.00000</ele>
        <time>2024-04-19T11:35:38Z</time>
      </trkpt>
      <trkpt lat="42.93431441" lon="13.68764553">
        <ele>271.00000</ele>
        <time>2024-04-19T11:35:39Z</time>
      </trkpt>
      <trkpt lat="42.93432430" lon="13.68769532">
        <ele>271.00000</ele>
        <time>2024-04-19T11:35:40Z</time>
      </trkpt>
      <trkpt lat="42.93433846" lon="13.68775432">
        <ele>272.00000</ele>
        <time>2024-04-19T11:35:41Z</time>
      </trkpt>
      <trkpt lat="42.93434886" lon="13.68780587">
        <ele>272.00000</ele>
        <time>2024-04-19T11:35:42Z</time>
      </trkpt>
      <trkpt lat="42.93435707" lon="13.68785248">
        <ele>272.00000</ele>
        <time>2024-04-19T11:35:43Z</time>
      </trkpt>
      <trkpt lat="42.93436646" lon="13.68790989">
        <ele>273.00000</ele>
        <time>2024-04-19T11:35:44Z</time>
      </trkpt>
      <trkpt lat="42.93437677" lon="13.68796496">
        <ele>273.00000</ele>
        <time>2024-04-19T11:35:45Z</time>
      </trkpt>
      <trkpt lat="42.93438574" lon="13.68802003">
        <ele>274.00000</ele>
        <time>2024-04-19T11:35:46Z</time>
      </trkpt>
      <trkpt lat="42.93439672" lon="13.68808407">
        <ele>274.00000</ele>
        <time>2024-04-19T11:35:47Z</time>
      </trkpt>
      <trkpt lat="42.93441005" lon="13.68813553">
        <ele>274.00000</ele>
        <time>2024-04-19T11:35:48Z</time>
      </trkpt>
      <trkpt lat="42.93442505" lon="13.68817409">
        <ele>274.00000</ele>
        <time>2024-04-19T11:35:49Z</time>
      </trkpt>
      <trkpt lat="42.93444802" lon="13.68822271">
        <ele>274.00000</ele>
        <time>2024-04-19T11:35:50Z</time>
      </trkpt>
      <trkpt lat="42.93447593" lon="13.68828238">
        <ele>273.00000</ele>
        <time>2024-04-19T11:35:51Z</time>
      </trkpt>
      <trkpt lat="42.93449755" lon="13.68833301">
        <ele>273.00000</ele>
        <time>2024-04-19T11:35:52Z</time>
      </trkpt>
      <trkpt lat="42.93451138" lon="13.68837375">
        <ele>273.00000</ele>
        <time>2024-04-19T11:35:53Z</time>
      </trkpt>
      <trkpt lat="42.93452018" lon="13.68842513">
        <ele>274.00000</ele>
        <time>2024-04-19T11:35:54Z</time>
      </trkpt>
      <trkpt lat="42.93453217" lon="13.68847819">
        <ele>274.00000</ele>
        <time>2024-04-19T11:35:55Z</time>
      </trkpt>
      <trkpt lat="42.93454818" lon="13.68852982">
        <ele>275.00000</ele>
        <time>2024-04-19T11:35:56Z</time>
      </trkpt>
      <trkpt lat="42.93456746" lon="13.68859184">
        <ele>275.00000</ele>
        <time>2024-04-19T11:35:57Z</time>
      </trkpt>
      <trkpt lat="42.93457995" lon="13.68863560">
        <ele>275.00000</ele>
        <time>2024-04-19T11:35:58Z</time>
      </trkpt>
      <trkpt lat="42.93459101" lon="13.68868731">
        <ele>276.00000</ele>
        <time>2024-04-19T11:35:59Z</time>
      </trkpt>
      <trkpt lat="42.93460643" lon="13.68875152">
        <ele>277.00000</ele>
        <time>2024-04-19T11:36:00Z</time>
      </trkpt>
      <trkpt lat="42.93462010" lon="13.68880298">
        <ele>277.00000</ele>
        <time>2024-04-19T11:36:01Z</time>
      </trkpt>
      <trkpt lat="42.93463686" lon="13.68885311">
        <ele>278.00000</ele>
        <time>2024-04-19T11:36:02Z</time>
      </trkpt>
      <trkpt lat="42.93465245" lon="13.68889242">
        <ele>278.00000</ele>
        <time>2024-04-19T11:36:03Z</time>
      </trkpt>
      <trkpt lat="42.93466963" lon="13.68894271">
        <ele>278.00000</ele>
        <time>2024-04-19T11:36:04Z</time>
      </trkpt>
      <trkpt lat="42.93468757" lon="13.68900239">
        <ele>279.00000</ele>
        <time>2024-04-19T11:36:05Z</time>
      </trkpt>
      <trkpt lat="42.93469947" lon="13.68904623">
        <ele>280.00000</ele>
        <time>2024-04-19T11:36:06Z</time>
      </trkpt>
      <trkpt lat="42.93471397" lon="13.68909551">
        <ele>281.00000</ele>
        <time>2024-04-19T11:36:07Z</time>
      </trkpt>
      <trkpt lat="42.93473141" lon="13.68914790">
        <ele>282.00000</ele>
        <time>2024-04-19T11:36:08Z</time>
      </trkpt>
      <trkpt lat="42.93474867" lon="13.68919987">
        <ele>283.00000</ele>
        <time>2024-04-19T11:36:09Z</time>
      </trkpt>
      <trkpt lat="42.93476535" lon="13.68925468">
        <ele>284.00000</ele>
        <time>2024-04-19T11:36:10Z</time>
      </trkpt>
      <trkpt lat="42.93478036" lon="13.68930799">
        <ele>284.00000</ele>
        <time>2024-04-19T11:36:11Z</time>
      </trkpt>
      <trkpt lat="42.93479369" lon="13.68936147">
        <ele>285.00000</ele>
        <time>2024-04-19T11:36:12Z</time>
      </trkpt>
      <trkpt lat="42.93480710" lon="13.68941252">
        <ele>286.00000</ele>
        <time>2024-04-19T11:36:13Z</time>
      </trkpt>
      <trkpt lat="42.93482118" lon="13.68946566">
        <ele>286.00000</ele>
        <time>2024-04-19T11:36:14Z</time>
      </trkpt>
      <trkpt lat="42.93483132" lon="13.68951788">
        <ele>286.00000</ele>
        <time>2024-04-19T11:36:15Z</time>
      </trkpt>
      <trkpt lat="42.93483216" lon="13.68956708">
        <ele>286.00000</ele>
        <time>2024-04-19T11:36:16Z</time>
      </trkpt>
      <trkpt lat="42.93484339" lon="13.68961167">
        <ele>286.00000</ele>
        <time>2024-04-19T11:36:17Z</time>
      </trkpt>
      <trkpt lat="42.93486996" lon="13.68964754">
        <ele>286.00000</ele>
        <time>2024-04-19T11:36:18Z</time>
      </trkpt>
      <trkpt lat="42.93490801" lon="13.68967722">
        <ele>285.00000</ele>
        <time>2024-04-19T11:36:19Z</time>
      </trkpt>
      <trkpt lat="42.93495386" lon="13.68969599">
        <ele>285.00000</ele>
        <time>2024-04-19T11:36:20Z</time>
      </trkpt>
      <trkpt lat="42.93500256" lon="13.68969918">
        <ele>284.00000</ele>
        <time>2024-04-19T11:36:21Z</time>
      </trkpt>
      <trkpt lat="42.93505612" lon="13.68968753">
        <ele>285.00000</ele>
        <time>2024-04-19T11:36:22Z</time>
      </trkpt>
      <trkpt lat="42.93510943" lon="13.68966070">
        <ele>285.00000</ele>
        <time>2024-04-19T11:36:23Z</time>
      </trkpt>
      <trkpt lat="42.93516031" lon="13.68961997">
        <ele>285.00000</ele>
        <time>2024-04-19T11:36:24Z</time>
      </trkpt>
      <trkpt lat="42.93520373" lon="13.68956632">
        <ele>285.00000</ele>
        <time>2024-04-19T11:36:25Z</time>
      </trkpt>
      <trkpt lat="42.93524036" lon="13.68949969">
        <ele>285.00000</ele>
        <time>2024-04-19T11:36:26Z</time>
      </trkpt>
      <trkpt lat="42.93527103" lon="13.68942400">
        <ele>284.00000</ele>
        <time>2024-04-19T11:36:27Z</time>
      </trkpt>
      <trkpt lat="42.93529702" lon="13.68934856">
        <ele>284.00000</ele>
        <time>2024-04-19T11:36:28Z</time>
      </trkpt>
      <trkpt lat="42.93531965" lon="13.68927195">
        <ele>284.00000</ele>
        <time>2024-04-19T11:36:29Z</time>
      </trkpt>
      <trkpt lat="42.93534287" lon="13.68919383">
        <ele>283.00000</ele>
        <time>2024-04-19T11:36:30Z</time>
      </trkpt>
      <trkpt lat="42.93536583" lon="13.68911345">
        <ele>283.00000</ele>
        <time>2024-04-19T11:36:31Z</time>
      </trkpt>
      <trkpt lat="42.93538905" lon="13.68903265">
        <ele>283.00000</ele>
        <time>2024-04-19T11:36:32Z</time>
      </trkpt>
      <trkpt lat="42.93541294" lon="13.68895436">
        <ele>283.00000</ele>
        <time>2024-04-19T11:36:33Z</time>
      </trkpt>
      <trkpt lat="42.93543549" lon="13.68887415">
        <ele>283.00000</ele>
        <time>2024-04-19T11:36:34Z</time>
      </trkpt>
      <trkpt lat="42.93546047" lon="13.68879251">
        <ele>282.00000</ele>
        <time>2024-04-19T11:36:35Z</time>
      </trkpt>
      <trkpt lat="42.93548293" lon="13.68871095">
        <ele>282.00000</ele>
        <time>2024-04-19T11:36:36Z</time>
      </trkpt>
      <trkpt lat="42.93550581" lon="13.68862864">
        <ele>282.00000</ele>
        <time>2024-04-19T11:36:37Z</time>
      </trkpt>
      <trkpt lat="42.93553079" lon="13.68856167">
        <ele>281.00000</ele>
        <time>2024-04-19T11:36:38Z</time>
      </trkpt>
      <trkpt lat="42.93556499" lon="13.68851473">
        <ele>281.00000</ele>
        <time>2024-04-19T11:36:39Z</time>
      </trkpt>
      <trkpt lat="42.93560916" lon="13.68849210">
        <ele>281.00000</ele>
        <time>2024-04-19T11:36:40Z</time>
      </trkpt>
      <trkpt lat="42.93565484" lon="13.68849897">
        <ele>280.00000</ele>
        <time>2024-04-19T11:36:41Z</time>
      </trkpt>
      <trkpt lat="42.93569901" lon="13.68853032">
        <ele>281.00000</ele>
        <time>2024-04-19T11:36:42Z</time>
      </trkpt>
      <trkpt lat="42.93574025" lon="13.68857298">
        <ele>281.00000</ele>
        <time>2024-04-19T11:36:43Z</time>
      </trkpt>
      <trkpt lat="42.93577848" lon="13.68861741">
        <ele>282.00000</ele>
        <time>2024-04-19T11:36:44Z</time>
      </trkpt>
      <trkpt lat="42.93581393" lon="13.68866502">
        <ele>282.00000</ele>
        <time>2024-04-19T11:36:45Z</time>
      </trkpt>
      <trkpt lat="42.93585006" lon="13.68871288">
        <ele>283.00000</ele>
        <time>2024-04-19T11:36:46Z</time>
      </trkpt>
      <trkpt lat="42.93588627" lon="13.68876007">
        <ele>283.00000</ele>
        <time>2024-04-19T11:36:47Z</time>
      </trkpt>
      <trkpt lat="42.93592130" lon="13.68880952">
        <ele>283.00000</ele>
        <time>2024-04-19T11:36:48Z</time>
      </trkpt>
      <trkpt lat="42.93595651" lon="13.68886065">
        <ele>284.00000</ele>
        <time>2024-04-19T11:36:49Z</time>
      </trkpt>
      <trkpt lat="42.93599247" lon="13.68890726">
        <ele>285.00000</ele>
        <time>2024-04-19T11:36:50Z</time>
      </trkpt>
      <trkpt lat="42.93602725" lon="13.68895486">
        <ele>285.00000</ele>
        <time>2024-04-19T11:36:51Z</time>
      </trkpt>
      <trkpt lat="42.93606220" lon="13.68900524">
        <ele>286.00000</ele>
        <time>2024-04-19T11:36:52Z</time>
      </trkpt>
      <trkpt lat="42.93609590" lon="13.68905503">
        <ele>287.00000</ele>
        <time>2024-04-19T11:36:53Z</time>
      </trkpt>
      <trkpt lat="42.93613093" lon="13.68910633">
        <ele>288.00000</ele>
        <time>2024-04-19T11:36:54Z</time>
      </trkpt>
      <trkpt lat="42.93616572" lon="13.68915813">
        <ele>289.00000</ele>
        <time>2024-04-19T11:36:55Z</time>
      </trkpt>
      <trkpt lat="42.93620092" lon="13.68921026">
        <ele>290.00000</ele>
        <time>2024-04-19T11:36:56Z</time>
      </trkpt>
      <trkpt lat="42.93623604" lon="13.68926198">
        <ele>291.00000</ele>
        <time>2024-04-19T11:36:57Z</time>
      </trkpt>
      <trkpt lat="42.93627225" lon="13.68931269">
        <ele>292.00000</ele>
        <time>2024-04-19T11:36:58Z</time>
      </trkpt>
      <trkpt lat="42.93630645" lon="13.68936181">
        <ele>293.00000</ele>
        <time>2024-04-19T11:36:59Z</time>
      </trkpt>
      <trkpt lat="42.93634216" lon="13.68941168">
        <ele>294.00000</ele>
        <time>2024-04-19T11:37:00Z</time>
      </trkpt>
      <trkpt lat="42.93637669" lon="13.68946465">
        <ele>295.00000</ele>
        <time>2024-04-19T11:37:01Z</time>
      </trkpt>
      <trkpt lat="42.93641181" lon="13.68951662">
        <ele>295.00000</ele>
        <time>2024-04-19T11:37:02Z</time>
      </trkpt>
      <trkpt lat="42.93644919" lon="13.68956808">
        <ele>294.00000</ele>
        <time>2024-04-19T11:37:03Z</time>
      </trkpt>
      <trkpt lat="42.93648272" lon="13.68962357">
        <ele>295.00000</ele>
        <time>2024-04-19T11:37:04Z</time>
      </trkpt>
      <trkpt lat="42.93651147" lon="13.68968032">
        <ele>295.00000</ele>
        <time>2024-04-19T11:37:05Z</time>
      </trkpt>
      <trkpt lat="42.93653913" lon="13.68974058">
        <ele>295.00000</ele>
        <time>2024-04-19T11:37:06Z</time>
      </trkpt>
      <trkpt lat="42.93656419" lon="13.68980471">
        <ele>295.00000</ele>
        <time>2024-04-19T11:37:07Z</time>
      </trkpt>
      <trkpt lat="42.93658490" lon="13.68987059">
        <ele>296.00000</ele>
        <time>2024-04-19T11:37:08Z</time>
      </trkpt>
      <trkpt lat="42.93660133" lon="13.68993496">
        <ele>296.00000</ele>
        <time>2024-04-19T11:37:09Z</time>
      </trkpt>
      <trkpt lat="42.93661122" lon="13.69000218">
        <ele>297.00000</ele>
        <time>2024-04-19T11:37:10Z</time>
      </trkpt>
      <trkpt lat="42.93661884" lon="13.69007033">
        <ele>297.00000</ele>
        <time>2024-04-19T11:37:11Z</time>
      </trkpt>
      <trkpt lat="42.93662220" lon="13.69014166">
        <ele>297.00000</ele>
        <time>2024-04-19T11:37:12Z</time>
      </trkpt>
      <trkpt lat="42.93662413" lon="13.69021223">
        <ele>297.00000</ele>
        <time>2024-04-19T11:37:13Z</time>
      </trkpt>
      <trkpt lat="42.93662329" lon="13.69028113">
        <ele>297.00000</ele>
        <time>2024-04-19T11:37:14Z</time>
      </trkpt>
      <trkpt lat="42.93662052" lon="13.69034986">
        <ele>297.00000</ele>
        <time>2024-04-19T11:37:15Z</time>
      </trkpt>
      <trkpt lat="42.93661775" lon="13.69041960">
        <ele>298.00000</ele>
        <time>2024-04-19T11:37:16Z</time>
      </trkpt>
      <trkpt lat="42.93661097" lon="13.69048892">
        <ele>298.00000</ele>
        <time>2024-04-19T11:37:17Z</time>
      </trkpt>
      <trkpt lat="42.93660191" lon="13.69055790">
        <ele>299.00000</ele>
        <time>2024-04-19T11:37:18Z</time>
      </trkpt>
      <trkpt lat="42.93659110" lon="13.69062663">
        <ele>299.00000</ele>
        <time>2024-04-19T11:37:19Z</time>
      </trkpt>
      <trkpt lat="42.93657626" lon="13.69069579">
        <ele>299.00000</ele>
        <time>2024-04-19T11:37:20Z</time>
      </trkpt>
      <trkpt lat="42.93656369" lon="13.69076703">
        <ele>300.00000</ele>
        <time>2024-04-19T11:37:21Z</time>
      </trkpt>
      <trkpt lat="42.93655212" lon="13.69083752">
        <ele>300.00000</ele>
        <time>2024-04-19T11:37:22Z</time>
      </trkpt>
      <trkpt lat="42.93654232" lon="13.69090500">
        <ele>300.00000</ele>
        <time>2024-04-19T11:37:23Z</time>
      </trkpt>
      <trkpt lat="42.93653511" lon="13.69097147">
        <ele>301.00000</ele>
        <time>2024-04-19T11:37:24Z</time>
      </trkpt>
      <trkpt lat="42.93652648" lon="13.69104288">
        <ele>302.00000</ele>
        <time>2024-04-19T11:37:25Z</time>
      </trkpt>
      <trkpt lat="42.93652061" lon="13.69111589">
        <ele>302.00000</ele>
        <time>2024-04-19T11:37:26Z</time>
      </trkpt>
      <trkpt lat="42.93651550" lon="13.69119451">
        <ele>302.00000</ele>
        <time>2024-04-19T11:37:27Z</time>
      </trkpt>
      <trkpt lat="42.93651181" lon="13.69127355">
        <ele>303.00000</ele>
        <time>2024-04-19T11:37:28Z</time>
      </trkpt>
      <trkpt lat="42.93651089" lon="13.69135326">
        <ele>303.00000</ele>
        <time>2024-04-19T11:37:29Z</time>
      </trkpt>
      <trkpt lat="42.93651063" lon="13.69143423">
        <ele>303.00000</ele>
        <time>2024-04-19T11:37:30Z</time>
      </trkpt>
      <trkpt lat="42.93651089" lon="13.69151369">
        <ele>303.00000</ele>
        <time>2024-04-19T11:37:31Z</time>
      </trkpt>
      <trkpt lat="42.93651415" lon="13.69159366">
        <ele>303.00000</ele>
        <time>2024-04-19T11:37:32Z</time>
      </trkpt>
      <trkpt lat="42.93651441" lon="13.69167437">
        <ele>304.00000</ele>
        <time>2024-04-19T11:37:33Z</time>
      </trkpt>
      <trkpt lat="42.93652103" lon="13.69175442">
        <ele>304.00000</ele>
        <time>2024-04-19T11:37:34Z</time>
      </trkpt>
      <trkpt lat="42.93652941" lon="13.69183598">
        <ele>304.00000</ele>
        <time>2024-04-19T11:37:35Z</time>
      </trkpt>
      <trkpt lat="42.93654341" lon="13.69192038">
        <ele>304.00000</ele>
        <time>2024-04-19T11:37:36Z</time>
      </trkpt>
      <trkpt lat="42.93655866" lon="13.69200437">
        <ele>305.00000</ele>
        <time>2024-04-19T11:37:37Z</time>
      </trkpt>
      <trkpt lat="42.93657442" lon="13.69208618">
        <ele>305.00000</ele>
        <time>2024-04-19T11:37:38Z</time>
      </trkpt>
      <trkpt lat="42.93659839" lon="13.69216647">
        <ele>305.00000</ele>
        <time>2024-04-19T11:37:39Z</time>
      </trkpt>
      <trkpt lat="42.93662253" lon="13.69224795">
        <ele>305.00000</ele>
        <time>2024-04-19T11:37:40Z</time>
      </trkpt>
      <trkpt lat="42.93665531" lon="13.69234954">
        <ele>305.00000</ele>
        <time>2024-04-19T11:37:41Z</time>
      </trkpt>
      <trkpt lat="42.93667500" lon="13.69241936">
        <ele>305.00000</ele>
        <time>2024-04-19T11:37:42Z</time>
      </trkpt>
      <trkpt lat="42.93669328" lon="13.69250971">
        <ele>304.00000</ele>
        <time>2024-04-19T11:37:43Z</time>
      </trkpt>
      <trkpt lat="42.93670367" lon="13.69259848">
        <ele>304.00000</ele>
        <time>2024-04-19T11:37:44Z</time>
      </trkpt>
      <trkpt lat="42.93670945" lon="13.69268590">
        <ele>304.00000</ele>
        <time>2024-04-19T11:37:45Z</time>
      </trkpt>
      <trkpt lat="42.93671381" lon="13.69277450">
        <ele>304.00000</ele>
        <time>2024-04-19T11:37:46Z</time>
      </trkpt>
      <trkpt lat="42.93670551" lon="13.69286150">
        <ele>303.00000</ele>
        <time>2024-04-19T11:37:47Z</time>
      </trkpt>
      <trkpt lat="42.93668598" lon="13.69293895">
        <ele>303.00000</ele>
        <time>2024-04-19T11:37:48Z</time>
      </trkpt>
      <trkpt lat="42.93666486" lon="13.69301212">
        <ele>303.00000</ele>
        <time>2024-04-19T11:37:49Z</time>
      </trkpt>
      <trkpt lat="42.93665396" lon="13.69308991">
        <ele>302.00000</ele>
        <time>2024-04-19T11:37:50Z</time>
      </trkpt>
      <trkpt lat="42.93666704" lon="13.69316409">
        <ele>301.00000</ele>
        <time>2024-04-19T11:37:51Z</time>
      </trkpt>
      <trkpt lat="42.93671029" lon="13.69321539">
        <ele>300.00000</ele>
        <time>2024-04-19T11:37:52Z</time>
      </trkpt>
      <trkpt lat="42.93677114" lon="13.69323190">
        <ele>300.00000</ele>
        <time>2024-04-19T11:37:53Z</time>
      </trkpt>
      <trkpt lat="42.93683686" lon="13.69323466">
        <ele>300.00000</ele>
        <time>2024-04-19T11:37:54Z</time>
      </trkpt>
      <trkpt lat="42.93690584" lon="13.69323433">
        <ele>300.00000</ele>
        <time>2024-04-19T11:37:55Z</time>
      </trkpt>
      <trkpt lat="42.93697700" lon="13.69323198">
        <ele>300.00000</ele>
        <time>2024-04-19T11:37:56Z</time>
      </trkpt>
      <trkpt lat="42.93704708" lon="13.69322888">
        <ele>300.00000</ele>
        <time>2024-04-19T11:37:57Z</time>
      </trkpt>
      <trkpt lat="42.93711514" lon="13.69322519">
        <ele>300.00000</ele>
        <time>2024-04-19T11:37:58Z</time>
      </trkpt>
      <trkpt lat="42.93718320" lon="13.69322461">
        <ele>300.00000</ele>
        <time>2024-04-19T11:37:59Z</time>
      </trkpt>
      <trkpt lat="42.93725143" lon="13.69322712">
        <ele>300.00000</ele>
        <time>2024-04-19T11:38:00Z</time>
      </trkpt>
      <trkpt lat="42.93732066" lon="13.69323031">
        <ele>300.00000</ele>
        <time>2024-04-19T11:38:01Z</time>
      </trkpt>
      <trkpt lat="42.93738747" lon="13.69323316">
        <ele>299.00000</ele>
        <time>2024-04-19T11:38:02Z</time>
      </trkpt>
      <trkpt lat="42.93745385" lon="13.69323668">
        <ele>299.00000</ele>
        <time>2024-04-19T11:38:03Z</time>
      </trkpt>
      <trkpt lat="42.93751596" lon="13.69323550">
        <ele>299.00000</ele>
        <time>2024-04-19T11:38:04Z</time>
      </trkpt>
      <trkpt lat="42.93757908" lon="13.69323399">
        <ele>299.00000</ele>
        <time>2024-04-19T11:38:05Z</time>
      </trkpt>
      <trkpt lat="42.93763968" lon="13.69323533">
        <ele>299.00000</ele>
        <time>2024-04-19T11:38:06Z</time>
      </trkpt>
      <trkpt lat="42.93769919" lon="13.69324137">
        <ele>299.00000</ele>
        <time>2024-04-19T11:38:07Z</time>
      </trkpt>
      <trkpt lat="42.93775442" lon="13.69325629">
        <ele>299.00000</ele>
        <time>2024-04-19T11:38:08Z</time>
      </trkpt>
      <trkpt lat="42.93780572" lon="13.69327850">
        <ele>300.00000</ele>
        <time>2024-04-19T11:38:09Z</time>
      </trkpt>
      <trkpt lat="42.93785258" lon="13.69330700">
        <ele>301.00000</ele>
        <time>2024-04-19T11:38:10Z</time>
      </trkpt>
      <trkpt lat="42.93789491" lon="13.69334765">
        <ele>302.00000</ele>
        <time>2024-04-19T11:38:11Z</time>
      </trkpt>
      <trkpt lat="42.93793346" lon="13.69339736">
        <ele>303.00000</ele>
        <time>2024-04-19T11:38:12Z</time>
      </trkpt>
      <trkpt lat="42.93796875" lon="13.69344782">
        <ele>304.00000</ele>
        <time>2024-04-19T11:38:13Z</time>
      </trkpt>
      <trkpt lat="42.93799608" lon="13.69350624">
        <ele>305.00000</ele>
        <time>2024-04-19T11:38:14Z</time>
      </trkpt>
      <trkpt lat="42.93801569" lon="13.69357061">
        <ele>305.00000</ele>
        <time>2024-04-19T11:38:15Z</time>
      </trkpt>
      <trkpt lat="42.93803187" lon="13.69363406">
        <ele>306.00000</ele>
        <time>2024-04-19T11:38:16Z</time>
      </trkpt>
      <trkpt lat="42.93804561" lon="13.69369206">
        <ele>307.00000</ele>
        <time>2024-04-19T11:38:17Z</time>
      </trkpt>
      <trkpt lat="42.93805508" lon="13.69375141">
        <ele>308.00000</ele>
        <time>2024-04-19T11:38:18Z</time>
      </trkpt>
      <trkpt lat="42.93805181" lon="13.69381461">
        <ele>308.00000</ele>
        <time>2024-04-19T11:38:19Z</time>
      </trkpt>
      <trkpt lat="42.93804058" lon="13.69387957">
        <ele>308.00000</ele>
        <time>2024-04-19T11:38:20Z</time>
      </trkpt>
      <trkpt lat="42.93803178" lon="13.69394428">
        <ele>308.00000</ele>
        <time>2024-04-19T11:38:21Z</time>
      </trkpt>
      <trkpt lat="42.93802097" lon="13.69400999">
        <ele>308.00000</ele>
        <time>2024-04-19T11:38:22Z</time>
      </trkpt>
      <trkpt lat="42.93800546" lon="13.69408090">
        <ele>308.00000</ele>
        <time>2024-04-19T11:38:23Z</time>
      </trkpt>
      <trkpt lat="42.93799281" lon="13.69415273">
        <ele>307.00000</ele>
        <time>2024-04-19T11:38:24Z</time>
      </trkpt>
      <trkpt lat="42.93798375" lon="13.69422465">
        <ele>308.00000</ele>
        <time>2024-04-19T11:38:25Z</time>
      </trkpt>
      <trkpt lat="42.93797403" lon="13.69429271">
        <ele>308.00000</ele>
        <time>2024-04-19T11:38:26Z</time>
      </trkpt>
      <trkpt lat="42.93796129" lon="13.69436069">
        <ele>308.00000</ele>
        <time>2024-04-19T11:38:27Z</time>
      </trkpt>
      <trkpt lat="42.93794914" lon="13.69443252">
        <ele>309.00000</ele>
        <time>2024-04-19T11:38:28Z</time>
      </trkpt>
      <trkpt lat="42.93793631" lon="13.69450880">
        <ele>309.00000</ele>
        <time>2024-04-19T11:38:29Z</time>
      </trkpt>
      <trkpt lat="42.93792491" lon="13.69458172">
        <ele>309.00000</ele>
        <time>2024-04-19T11:38:30Z</time>
      </trkpt>
      <trkpt lat="42.93791376" lon="13.69465590">
        <ele>309.00000</ele>
        <time>2024-04-19T11:38:31Z</time>
      </trkpt>
      <trkpt lat="42.93789348" lon="13.69473226">
        <ele>309.00000</ele>
        <time>2024-04-19T11:38:32Z</time>
      </trkpt>
      <trkpt lat="42.93788133" lon="13.69480703">
        <ele>310.00000</ele>
        <time>2024-04-19T11:38:33Z</time>
      </trkpt>
      <trkpt lat="42.93786892" lon="13.69488246">
        <ele>311.00000</ele>
        <time>2024-04-19T11:38:34Z</time>
      </trkpt>
      <trkpt lat="42.93785752" lon="13.69495974">
        <ele>311.00000</ele>
        <time>2024-04-19T11:38:35Z</time>
      </trkpt>
      <trkpt lat="42.93784478" lon="13.69503602">
        <ele>312.00000</ele>
        <time>2024-04-19T11:38:36Z</time>
      </trkpt>
      <trkpt lat="42.93783053" lon="13.69511188">
        <ele>312.00000</ele>
        <time>2024-04-19T11:38:37Z</time>
      </trkpt>
      <trkpt lat="42.93780623" lon="13.69518597">
        <ele>312.00000</ele>
        <time>2024-04-19T11:38:38Z</time>
      </trkpt>
      <trkpt lat="42.93779256" lon="13.69525990">
        <ele>313.00000</ele>
        <time>2024-04-19T11:38:39Z</time>
      </trkpt>
      <trkpt lat="42.93777454" lon="13.69533601">
        <ele>313.00000</ele>
        <time>2024-04-19T11:38:40Z</time>
      </trkpt>
      <trkpt lat="42.93776230" lon="13.69541086">
        <ele>313.00000</ele>
        <time>2024-04-19T11:38:41Z</time>
      </trkpt>
      <trkpt lat="42.93775141" lon="13.69548655">
        <ele>313.00000</ele>
        <time>2024-04-19T11:38:42Z</time>
      </trkpt>
      <trkpt lat="42.93774135" lon="13.69556425">
        <ele>313.00000</ele>
        <time>2024-04-19T11:38:43Z</time>
      </trkpt>
      <trkpt lat="42.93772894" lon="13.69564203">
        <ele>313.00000</ele>
        <time>2024-04-19T11:38:44Z</time>
      </trkpt>
      <trkpt lat="42.93771662" lon="13.69572082">
        <ele>313.00000</ele>
        <time>2024-04-19T11:38:45Z</time>
      </trkpt>
      <trkpt lat="42.93770464" lon="13.69580045">
        <ele>314.00000</ele>
        <time>2024-04-19T11:38:46Z</time>
      </trkpt>
      <trkpt lat="42.93769290" lon="13.69587899">
        <ele>314.00000</ele>
        <time>2024-04-19T11:38:47Z</time>
      </trkpt>
      <trkpt lat="42.93768100" lon="13.69595736">
        <ele>314.00000</ele>
        <time>2024-04-19T11:38:48Z</time>
      </trkpt>
      <trkpt lat="42.93766994" lon="13.69603682">
        <ele>315.00000</ele>
        <time>2024-04-19T11:38:49Z</time>
      </trkpt>
      <trkpt lat="42.93765711" lon="13.69611569">
        <ele>315.00000</ele>
        <time>2024-04-19T11:38:50Z</time>
      </trkpt>
      <trkpt lat="42.93764395" lon="13.69619440">
        <ele>316.00000</ele>
        <time>2024-04-19T11:38:51Z</time>
      </trkpt>
      <trkpt lat="42.93763079" lon="13.69627260">
        <ele>316.00000</ele>
        <time>2024-04-19T11:38:52Z</time>
      </trkpt>
      <trkpt lat="42.93761939" lon="13.69635164">
        <ele>317.00000</ele>
        <time>2024-04-19T11:38:53Z</time>
      </trkpt>
      <trkpt lat="42.93760472" lon="13.69643010">
        <ele>317.00000</ele>
        <time>2024-04-19T11:38:54Z</time>
      </trkpt>
      <trkpt lat="42.93759332" lon="13.69651132">
        <ele>317.00000</ele>
        <time>2024-04-19T11:38:55Z</time>
      </trkpt>
      <trkpt lat="42.93758008" lon="13.69659145">
        <ele>317.00000</ele>
        <time>2024-04-19T11:38:56Z</time>
      </trkpt>
      <trkpt lat="42.93756684" lon="13.69667309">
        <ele>317.00000</ele>
        <time>2024-04-19T11:38:57Z</time>
      </trkpt>
      <trkpt lat="42.93755385" lon="13.69675431">
        <ele>317.00000</ele>
        <time>2024-04-19T11:38:58Z</time>
      </trkpt>
      <trkpt lat="42.93754002" lon="13.69683427">
        <ele>316.00000</ele>
        <time>2024-04-19T11:38:59Z</time>
      </trkpt>
      <trkpt lat="42.93752728" lon="13.69691239">
        <ele>316.00000</ele>
        <time>2024-04-19T11:39:00Z</time>
      </trkpt>
      <trkpt lat="42.93751395" lon="13.69698892">
        <ele>316.00000</ele>
        <time>2024-04-19T11:39:01Z</time>
      </trkpt>
      <trkpt lat="42.93750205" lon="13.69706536">
        <ele>316.00000</ele>
        <time>2024-04-19T11:39:02Z</time>
      </trkpt>
      <trkpt lat="42.93749249" lon="13.69714088">
        <ele>317.00000</ele>
        <time>2024-04-19T11:39:03Z</time>
      </trkpt>
      <trkpt lat="42.93748185" lon="13.69721246">
        <ele>317.00000</ele>
        <time>2024-04-19T11:39:04Z</time>
      </trkpt>
      <trkpt lat="42.93747313" lon="13.69728296">
        <ele>318.00000</ele>
        <time>2024-04-19T11:39:05Z</time>
      </trkpt>
      <trkpt lat="42.93746894" lon="13.69734984">
        <ele>318.00000</ele>
        <time>2024-04-19T11:39:06Z</time>
      </trkpt>
      <trkpt lat="42.93747715" lon="13.69741137">
        <ele>319.00000</ele>
        <time>2024-04-19T11:39:07Z</time>
      </trkpt>
      <trkpt lat="42.93750129" lon="13.69746040">
        <ele>320.00000</ele>
        <time>2024-04-19T11:39:08Z</time>
      </trkpt>
      <trkpt lat="42.93754035" lon="13.69747742">
        <ele>321.00000</ele>
        <time>2024-04-19T11:39:09Z</time>
      </trkpt>
      <trkpt lat="42.93758427" lon="13.69745864">
        <ele>322.00000</ele>
        <time>2024-04-19T11:39:10Z</time>
      </trkpt>
      <trkpt lat="42.93762518" lon="13.69741447">
        <ele>322.00000</ele>
        <time>2024-04-19T11:39:11Z</time>
      </trkpt>
      <trkpt lat="42.93765175" lon="13.69736015">
        <ele>322.00000</ele>
        <time>2024-04-19T11:39:12Z</time>
      </trkpt>
      <trkpt lat="42.93767698" lon="13.69729846">
        <ele>322.00000</ele>
        <time>2024-04-19T11:39:13Z</time>
      </trkpt>
      <trkpt lat="42.93769600" lon="13.69723275">
        <ele>322.00000</ele>
        <time>2024-04-19T11:39:14Z</time>
      </trkpt>
      <trkpt lat="42.93770732" lon="13.69716184">
        <ele>322.00000</ele>
        <time>2024-04-19T11:39:15Z</time>
      </trkpt>
      <trkpt lat="42.93771788" lon="13.69708724">
        <ele>322.00000</ele>
        <time>2024-04-19T11:39:16Z</time>
      </trkpt>
      <trkpt lat="42.93773003" lon="13.69701750">
        <ele>322.00000</ele>
        <time>2024-04-19T11:39:17Z</time>
      </trkpt>
      <trkpt lat="42.93774688" lon="13.69695598">
        <ele>323.00000</ele>
        <time>2024-04-19T11:39:18Z</time>
      </trkpt>
      <trkpt lat="42.93776515" lon="13.69688792">
        <ele>324.00000</ele>
        <time>2024-04-19T11:39:19Z</time>
      </trkpt>
      <trkpt lat="42.93777898" lon="13.69681902">
        <ele>324.00000</ele>
        <time>2024-04-19T11:39:20Z</time>
      </trkpt>
      <trkpt lat="42.93779022" lon="13.69674903">
        <ele>325.00000</ele>
        <time>2024-04-19T11:39:21Z</time>
      </trkpt>
      <trkpt lat="42.93780539" lon="13.69667971">
        <ele>326.00000</ele>
        <time>2024-04-19T11:39:22Z</time>
      </trkpt>
      <trkpt lat="42.93783078" lon="13.69661467">
        <ele>326.00000</ele>
        <time>2024-04-19T11:39:23Z</time>
      </trkpt>
      <trkpt lat="42.93786046" lon="13.69655314">
        <ele>326.00000</ele>
        <time>2024-04-19T11:39:24Z</time>
      </trkpt>
      <trkpt lat="42.93788904" lon="13.69649011">
        <ele>326.00000</ele>
        <time>2024-04-19T11:39:25Z</time>
      </trkpt>
      <trkpt lat="42.93791485" lon="13.69642239">
        <ele>326.00000</ele>
        <time>2024-04-19T11:39:26Z</time>
      </trkpt>
      <trkpt lat="42.93794184" lon="13.69635676">
        <ele>326.00000</ele>
        <time>2024-04-19T11:39:27Z</time>
      </trkpt>
      <trkpt lat="42.93797839" lon="13.69629682">
        <ele>326.00000</ele>
        <time>2024-04-19T11:39:28Z</time>
      </trkpt>
      <trkpt lat="42.93801410" lon="13.69624259">
        <ele>326.00000</ele>
        <time>2024-04-19T11:39:29Z</time>
      </trkpt>
      <trkpt lat="42.93804687" lon="13.69618711">
        <ele>326.00000</ele>
        <time>2024-04-19T11:39:30Z</time>
      </trkpt>
      <trkpt lat="42.93808073" lon="13.69613002">
        <ele>326.00000</ele>
        <time>2024-04-19T11:39:31Z</time>
      </trkpt>
      <trkpt lat="42.93811032" lon="13.69606766">
        <ele>326.00000</ele>
        <time>2024-04-19T11:39:32Z</time>
      </trkpt>
      <trkpt lat="42.93813295" lon="13.69601243">
        <ele>327.00000</ele>
        <time>2024-04-19T11:39:33Z</time>
      </trkpt>
      <trkpt lat="42.93815810" lon="13.69595778">
        <ele>327.00000</ele>
        <time>2024-04-19T11:39:34Z</time>
      </trkpt>
      <trkpt lat="42.93818400" lon="13.69590296">
        <ele>327.00000</ele>
        <time>2024-04-19T11:39:35Z</time>
      </trkpt>
      <trkpt lat="42.93821115" lon="13.69584864">
        <ele>327.00000</ele>
        <time>2024-04-19T11:39:36Z</time>
      </trkpt>
      <trkpt lat="42.93824166" lon="13.69578503">
        <ele>327.00000</ele>
        <time>2024-04-19T11:39:37Z</time>
      </trkpt>
      <trkpt lat="42.93827218" lon="13.69573029">
        <ele>327.00000</ele>
        <time>2024-04-19T11:39:38Z</time>
      </trkpt>
      <trkpt lat="42.93830621" lon="13.69568386">
        <ele>328.00000</ele>
        <time>2024-04-19T11:39:39Z</time>
      </trkpt>
      <trkpt lat="42.93834208" lon="13.69562652">
        <ele>328.00000</ele>
        <time>2024-04-19T11:39:40Z</time>
      </trkpt>
      <trkpt lat="42.93838223" lon="13.69557028">
        <ele>328.00000</ele>
        <time>2024-04-19T11:39:41Z</time>
      </trkpt>
      <trkpt lat="42.93841819" lon="13.69551873">
        <ele>328.00000</ele>
        <time>2024-04-19T11:39:42Z</time>
      </trkpt>
      <trkpt lat="42.93845532" lon="13.69547992">
        <ele>328.00000</ele>
        <time>2024-04-19T11:39:43Z</time>
      </trkpt>
      <trkpt lat="42.93849849" lon="13.69545436">
        <ele>328.00000</ele>
        <time>2024-04-19T11:39:44Z</time>
      </trkpt>
      <trkpt lat="42.93854475" lon="13.69543952">
        <ele>328.00000</ele>
        <time>2024-04-19T11:39:45Z</time>
      </trkpt>
      <trkpt lat="42.93859052" lon="13.69543483">
        <ele>328.00000</ele>
        <time>2024-04-19T11:39:46Z</time>
      </trkpt>
      <trkpt lat="42.93863478" lon="13.69544279">
        <ele>329.00000</ele>
        <time>2024-04-19T11:39:47Z</time>
      </trkpt>
      <trkpt lat="42.93868180" lon="13.69546224">
        <ele>329.00000</ele>
        <time>2024-04-19T11:39:48Z</time>
      </trkpt>
      <trkpt lat="42.93872698" lon="13.69548554">
        <ele>329.00000</ele>
        <time>2024-04-19T11:39:49Z</time>
      </trkpt>
      <trkpt lat="42.93877040" lon="13.69551111">
        <ele>329.00000</ele>
        <time>2024-04-19T11:39:50Z</time>
      </trkpt>
      <trkpt lat="42.93881289" lon="13.69554237">
        <ele>330.00000</ele>
        <time>2024-04-19T11:39:51Z</time>
      </trkpt>
      <trkpt lat="42.93885380" lon="13.69557539">
        <ele>331.00000</ele>
        <time>2024-04-19T11:39:52Z</time>
      </trkpt>
      <trkpt lat="42.93889495" lon="13.69560867">
        <ele>331.00000</ele>
        <time>2024-04-19T11:39:53Z</time>
      </trkpt>
      <trkpt lat="42.93893736" lon="13.69564228">
        <ele>331.00000</ele>
        <time>2024-04-19T11:39:54Z</time>
      </trkpt>
      <trkpt lat="42.93898288" lon="13.69567321">
        <ele>331.00000</ele>
        <time>2024-04-19T11:39:55Z</time>
      </trkpt>
      <trkpt lat="42.93902713" lon="13.69570255">
        <ele>331.00000</ele>
        <time>2024-04-19T11:39:56Z</time>
      </trkpt>
      <trkpt lat="42.93907105" lon="13.69573540">
        <ele>331.00000</ele>
        <time>2024-04-19T11:39:57Z</time>
      </trkpt>
      <trkpt lat="42.93911405" lon="13.69576709">
        <ele>331.00000</ele>
        <time>2024-04-19T11:39:58Z</time>
      </trkpt>
      <trkpt lat="42.93915906" lon="13.69579936">
        <ele>332.00000</ele>
        <time>2024-04-19T11:39:59Z</time>
      </trkpt>
      <trkpt lat="42.93920449" lon="13.69583339">
        <ele>332.00000</ele>
        <time>2024-04-19T11:40:00Z</time>
      </trkpt>
      <trkpt lat="42.93924842" lon="13.69586692">
        <ele>333.00000</ele>
        <time>2024-04-19T11:40:01Z</time>
      </trkpt>
      <trkpt lat="42.93929183" lon="13.69589961">
        <ele>333.00000</ele>
        <time>2024-04-19T11:40:02Z</time>
      </trkpt>
      <trkpt lat="42.93933651" lon="13.69593062">
        <ele>333.00000</ele>
        <time>2024-04-19T11:40:03Z</time>
      </trkpt>
      <trkpt lat="42.93937867" lon="13.69595996">
        <ele>333.00000</ele>
        <time>2024-04-19T11:40:04Z</time>
      </trkpt>
      <trkpt lat="42.93942175" lon="13.69599156">
        <ele>333.00000</ele>
        <time>2024-04-19T11:40:05Z</time>
      </trkpt>
      <trkpt lat="42.93946358" lon="13.69602232">
        <ele>334.00000</ele>
        <time>2024-04-19T11:40:06Z</time>
      </trkpt>
      <trkpt lat="42.93950767" lon="13.69605517">
        <ele>334.00000</ele>
        <time>2024-04-19T11:40:07Z</time>
      </trkpt>
      <trkpt lat="42.93955360" lon="13.69608468">
        <ele>334.00000</ele>
        <time>2024-04-19T11:40:08Z</time>
      </trkpt>
      <trkpt lat="42.93960012" lon="13.69610706">
        <ele>334.00000</ele>
        <time>2024-04-19T11:40:09Z</time>
      </trkpt>
      <trkpt lat="42.93964681" lon="13.69612223">
        <ele>335.00000</ele>
        <time>2024-04-19T11:40:10Z</time>
      </trkpt>
      <trkpt lat="42.93969584" lon="13.69612776">
        <ele>335.00000</ele>
        <time>2024-04-19T11:40:11Z</time>
      </trkpt>
      <trkpt lat="42.93974412" lon="13.69612315">
        <ele>335.00000</ele>
        <time>2024-04-19T11:40:12Z</time>
      </trkpt>
      <trkpt lat="42.93979190" lon="13.69610974">
        <ele>335.00000</ele>
        <time>2024-04-19T11:40:13Z</time>
      </trkpt>
      <trkpt lat="42.93983884" lon="13.69608820">
        <ele>335.00000</ele>
        <time>2024-04-19T11:40:14Z</time>
      </trkpt>
      <trkpt lat="42.93988494" lon="13.69606096">
        <ele>335.00000</ele>
        <time>2024-04-19T11:40:15Z</time>
      </trkpt>
      <trkpt lat="42.93992970" lon="13.69602802">
        <ele>335.00000</ele>
        <time>2024-04-19T11:40:16Z</time>
      </trkpt>
      <trkpt lat="42.93997194" lon="13.69599223">
        <ele>335.00000</ele>
        <time>2024-04-19T11:40:17Z</time>
      </trkpt>
      <trkpt lat="42.94001461" lon="13.69595317">
        <ele>336.00000</ele>
        <time>2024-04-19T11:40:18Z</time>
      </trkpt>
      <trkpt lat="42.94005618" lon="13.69590916">
        <ele>336.00000</ele>
        <time>2024-04-19T11:40:19Z</time>
      </trkpt>
      <trkpt lat="42.94009549" lon="13.69586155">
        <ele>337.00000</ele>
        <time>2024-04-19T11:40:20Z</time>
      </trkpt>
      <trkpt lat="42.94013405" lon="13.69581176">
        <ele>337.00000</ele>
        <time>2024-04-19T11:40:21Z</time>
      </trkpt>
      <trkpt lat="42.94017068" lon="13.69575644">
        <ele>338.00000</ele>
        <time>2024-04-19T11:40:22Z</time>
      </trkpt>
      <trkpt lat="42.94020186" lon="13.69569760">
        <ele>339.00000</ele>
        <time>2024-04-19T11:40:23Z</time>
      </trkpt>
      <trkpt lat="42.94022952" lon="13.69563541">
        <ele>339.00000</ele>
        <time>2024-04-19T11:40:24Z</time>
      </trkpt>
      <trkpt lat="42.94025441" lon="13.69557363">
        <ele>340.00000</ele>
        <time>2024-04-19T11:40:25Z</time>
      </trkpt>
      <trkpt lat="42.94027864" lon="13.69551077">
        <ele>340.00000</ele>
        <time>2024-04-19T11:40:26Z</time>
      </trkpt>
      <trkpt lat="42.94030202" lon="13.69544757">
        <ele>340.00000</ele>
        <time>2024-04-19T11:40:27Z</time>
      </trkpt>
      <trkpt lat="42.94032574" lon="13.69538437">
        <ele>340.00000</ele>
        <time>2024-04-19T11:40:28Z</time>
      </trkpt>
      <trkpt lat="42.94034829" lon="13.69531924">
        <ele>340.00000</ele>
        <time>2024-04-19T11:40:29Z</time>
      </trkpt>
      <trkpt lat="42.94037134" lon="13.69525395">
        <ele>340.00000</ele>
        <time>2024-04-19T11:40:30Z</time>
      </trkpt>
      <trkpt lat="42.94039380" lon="13.69518681">
        <ele>340.00000</ele>
        <time>2024-04-19T11:40:31Z</time>
      </trkpt>
      <trkpt lat="42.94041568" lon="13.69512151">
        <ele>340.00000</ele>
        <time>2024-04-19T11:40:32Z</time>
      </trkpt>
      <trkpt lat="42.94043529" lon="13.69505345">
        <ele>340.00000</ele>
        <time>2024-04-19T11:40:33Z</time>
      </trkpt>
      <trkpt lat="42.94045600" lon="13.69498590">
        <ele>341.00000</ele>
        <time>2024-04-19T11:40:34Z</time>
      </trkpt>
      <trkpt lat="42.94047745" lon="13.69491976">
        <ele>341.00000</ele>
        <time>2024-04-19T11:40:35Z</time>
      </trkpt>
      <trkpt lat="42.94049900" lon="13.69485463">
        <ele>341.00000</ele>
        <time>2024-04-19T11:40:36Z</time>
      </trkpt>
      <trkpt lat="42.94052079" lon="13.69478892">
        <ele>341.00000</ele>
        <time>2024-04-19T11:40:37Z</time>
      </trkpt>
      <trkpt lat="42.94054325" lon="13.69472488">
        <ele>341.00000</ele>
        <time>2024-04-19T11:40:38Z</time>
      </trkpt>
      <trkpt lat="42.94056546" lon="13.69466126">
        <ele>341.00000</ele>
        <time>2024-04-19T11:40:39Z</time>
      </trkpt>
      <trkpt lat="42.94058709" lon="13.69459521">
        <ele>341.00000</ele>
        <time>2024-04-19T11:40:40Z</time>
      </trkpt>
      <trkpt lat="42.94060888" lon="13.69453042">
        <ele>342.00000</ele>
        <time>2024-04-19T11:40:41Z</time>
      </trkpt>
      <trkpt lat="42.94063118" lon="13.69446597">
        <ele>342.00000</ele>
        <time>2024-04-19T11:40:42Z</time>
      </trkpt>
      <trkpt lat="42.94065507" lon="13.69440251">
        <ele>342.00000</ele>
        <time>2024-04-19T11:40:43Z</time>
      </trkpt>
      <trkpt lat="42.94067820" lon="13.69434066">
        <ele>342.00000</ele>
        <time>2024-04-19T11:40:44Z</time>
      </trkpt>
      <trkpt lat="42.94070217" lon="13.69427804">
        <ele>343.00000</ele>
        <time>2024-04-19T11:40:45Z</time>
      </trkpt>
      <trkpt lat="42.94072665" lon="13.69421577">
        <ele>343.00000</ele>
        <time>2024-04-19T11:40:46Z</time>
      </trkpt>
      <trkpt lat="42.94075414" lon="13.69415533">
        <ele>344.00000</ele>
        <time>2024-04-19T11:40:47Z</time>
      </trkpt>
      <trkpt lat="42.94078381" lon="13.69409456">
        <ele>344.00000</ele>
        <time>2024-04-19T11:40:48Z</time>
      </trkpt>
      <trkpt lat="42.94081432" lon="13.69403623">
        <ele>344.00000</ele>
        <time>2024-04-19T11:40:49Z</time>
      </trkpt>
      <trkpt lat="42.94084819" lon="13.69397990">
        <ele>345.00000</ele>
        <time>2024-04-19T11:40:50Z</time>
      </trkpt>
      <trkpt lat="42.94088247" lon="13.69392885">
        <ele>345.00000</ele>
        <time>2024-04-19T11:40:51Z</time>
      </trkpt>
      <trkpt lat="42.94091884" lon="13.69388208">
        <ele>346.00000</ele>
        <time>2024-04-19T11:40:52Z</time>
      </trkpt>
      <trkpt lat="42.94095799" lon="13.69384034">
        <ele>346.00000</ele>
        <time>2024-04-19T11:40:53Z</time>
      </trkpt>
      <trkpt lat="42.94099772" lon="13.69379868">
        <ele>346.00000</ele>
        <time>2024-04-19T11:40:54Z</time>
      </trkpt>
      <trkpt lat="42.94103795" lon="13.69375929">
        <ele>347.00000</ele>
        <time>2024-04-19T11:40:55Z</time>
      </trkpt>
      <trkpt lat="42.94107567" lon="13.69372006">
        <ele>348.00000</ele>
        <time>2024-04-19T11:40:56Z</time>
      </trkpt>
      <trkpt lat="42.94111364" lon="13.69368368">
        <ele>348.00000</ele>
        <time>2024-04-19T11:40:57Z</time>
      </trkpt>
      <trkpt lat="42.94115312" lon="13.69364588">
        <ele>349.00000</ele>
        <time>2024-04-19T11:40:58Z</time>
      </trkpt>
      <trkpt lat="42.94119293" lon="13.69360431">
        <ele>349.00000</ele>
        <time>2024-04-19T11:40:59Z</time>
      </trkpt>
      <trkpt lat="42.94123442" lon="13.69356575">
        <ele>349.00000</ele>
        <time>2024-04-19T11:41:00Z</time>
      </trkpt>
      <trkpt lat="42.94127591" lon="13.69353432">
        <ele>349.00000</ele>
        <time>2024-04-19T11:41:01Z</time>
      </trkpt>
      <trkpt lat="42.94131875" lon="13.69350582">
        <ele>349.00000</ele>
        <time>2024-04-19T11:41:02Z</time>
      </trkpt>
      <trkpt lat="42.94136267" lon="13.69348168">
        <ele>350.00000</ele>
        <time>2024-04-19T11:41:03Z</time>
      </trkpt>
      <trkpt lat="42.94140558" lon="13.69345561">
        <ele>350.00000</ele>
        <time>2024-04-19T11:41:04Z</time>
      </trkpt>
      <trkpt lat="42.94144799" lon="13.69342753">
        <ele>350.00000</ele>
        <time>2024-04-19T11:41:05Z</time>
      </trkpt>
      <trkpt lat="42.94149083" lon="13.69340054">
        <ele>350.00000</ele>
        <time>2024-04-19T11:41:06Z</time>
      </trkpt>
      <trkpt lat="42.94153533" lon="13.69337774">
        <ele>350.00000</ele>
        <time>2024-04-19T11:41:07Z</time>
      </trkpt>
      <trkpt lat="42.94157925" lon="13.69335494">
        <ele>350.00000</ele>
        <time>2024-04-19T11:41:08Z</time>
      </trkpt>
      <trkpt lat="42.94162150" lon="13.69333315">
        <ele>350.00000</ele>
        <time>2024-04-19T11:41:09Z</time>
      </trkpt>
      <trkpt lat="42.94166467" lon="13.69332024">
        <ele>350.00000</ele>
        <time>2024-04-19T11:41:10Z</time>
      </trkpt>
      <trkpt lat="42.94170691" lon="13.69331371">
        <ele>350.00000</ele>
        <time>2024-04-19T11:41:11Z</time>
      </trkpt>
      <trkpt lat="42.94174966" lon="13.69331119">
        <ele>350.00000</ele>
        <time>2024-04-19T11:41:12Z</time>
      </trkpt>
      <trkpt lat="42.94179224" lon="13.69331463">
        <ele>350.00000</ele>
        <time>2024-04-19T11:41:13Z</time>
      </trkpt>
      <trkpt lat="42.94183532" lon="13.69332133">
        <ele>350.00000</ele>
        <time>2024-04-19T11:41:14Z</time>
      </trkpt>
      <trkpt lat="42.94187631" lon="13.69332955">
        <ele>350.00000</ele>
        <time>2024-04-19T11:41:15Z</time>
      </trkpt>
      <trkpt lat="42.94191730" lon="13.69333550">
        <ele>350.00000</ele>
        <time>2024-04-19T11:41:16Z</time>
      </trkpt>
      <trkpt lat="42.94196357" lon="13.69333617">
        <ele>350.00000</ele>
        <time>2024-04-19T11:41:17Z</time>
      </trkpt>
      <trkpt lat="42.94201193" lon="13.69333298">
        <ele>350.00000</ele>
        <time>2024-04-19T11:41:18Z</time>
      </trkpt>
      <trkpt lat="42.94206289" lon="13.69332318">
        <ele>350.00000</ele>
        <time>2024-04-19T11:41:19Z</time>
      </trkpt>
      <trkpt lat="42.94211477" lon="13.69330381">
        <ele>350.00000</ele>
        <time>2024-04-19T11:41:20Z</time>
      </trkpt>
      <trkpt lat="42.94216456" lon="13.69327523">
        <ele>351.00000</ele>
        <time>2024-04-19T11:41:21Z</time>
      </trkpt>
      <trkpt lat="42.94221293" lon="13.69323986">
        <ele>351.00000</ele>
        <time>2024-04-19T11:41:22Z</time>
      </trkpt>
      <trkpt lat="42.94226028" lon="13.69319837">
        <ele>351.00000</ele>
        <time>2024-04-19T11:41:23Z</time>
      </trkpt>
      <trkpt lat="42.94230328" lon="13.69315378">
        <ele>352.00000</ele>
        <time>2024-04-19T11:41:24Z</time>
      </trkpt>
      <trkpt lat="42.94234586" lon="13.69310458">
        <ele>352.00000</ele>
        <time>2024-04-19T11:41:25Z</time>
      </trkpt>
      <trkpt lat="42.94238593" lon="13.69305227">
        <ele>352.00000</ele>
        <time>2024-04-19T11:41:26Z</time>
      </trkpt>
      <trkpt lat="42.94242491" lon="13.69300282">
        <ele>353.00000</ele>
        <time>2024-04-19T11:41:27Z</time>
      </trkpt>
      <trkpt lat="42.94246539" lon="13.69295253">
        <ele>353.00000</ele>
        <time>2024-04-19T11:41:28Z</time>
      </trkpt>
      <trkpt lat="42.94250587" lon="13.69290492">
        <ele>354.00000</ele>
        <time>2024-04-19T11:41:29Z</time>
      </trkpt>
      <trkpt lat="42.94254577" lon="13.69285396">
        <ele>354.00000</ele>
        <time>2024-04-19T11:41:30Z</time>
      </trkpt>
      <trkpt lat="42.94258810" lon="13.69280283">
        <ele>354.00000</ele>
        <time>2024-04-19T11:41:31Z</time>
      </trkpt>
      <trkpt lat="42.94263001" lon="13.69275413">
        <ele>355.00000</ele>
        <time>2024-04-19T11:41:32Z</time>
      </trkpt>
      <trkpt lat="42.94267117" lon="13.69270359">
        <ele>355.00000</ele>
        <time>2024-04-19T11:41:33Z</time>
      </trkpt>
      <trkpt lat="42.94271173" lon="13.69265304">
        <ele>355.00000</ele>
        <time>2024-04-19T11:41:34Z</time>
      </trkpt>
      <trkpt lat="42.94275515" lon="13.69260409">
        <ele>355.00000</ele>
        <time>2024-04-19T11:41:35Z</time>
      </trkpt>
      <trkpt lat="42.94279857" lon="13.69255389">
        <ele>356.00000</ele>
        <time>2024-04-19T11:41:36Z</time>
      </trkpt>
      <trkpt lat="42.94284006" lon="13.69250041">
        <ele>356.00000</ele>
        <time>2024-04-19T11:41:37Z</time>
      </trkpt>
      <trkpt lat="42.94287803" lon="13.69244123">
        <ele>357.00000</ele>
        <time>2024-04-19T11:41:38Z</time>
      </trkpt>
      <trkpt lat="42.94291525" lon="13.69237996">
        <ele>357.00000</ele>
        <time>2024-04-19T11:41:39Z</time>
      </trkpt>
      <trkpt lat="42.94295229" lon="13.69231785">
        <ele>357.00000</ele>
        <time>2024-04-19T11:41:40Z</time>
      </trkpt>
      <trkpt lat="42.94298884" lon="13.69225524">
        <ele>357.00000</ele>
        <time>2024-04-19T11:41:41Z</time>
      </trkpt>
      <trkpt lat="42.94302379" lon="13.69219388">
        <ele>358.00000</ele>
        <time>2024-04-19T11:41:42Z</time>
      </trkpt>
      <trkpt lat="42.94305841" lon="13.69213119">
        <ele>358.00000</ele>
        <time>2024-04-19T11:41:43Z</time>
      </trkpt>
      <trkpt lat="42.94309051" lon="13.69206673">
        <ele>359.00000</ele>
        <time>2024-04-19T11:41:44Z</time>
      </trkpt>
      <trkpt lat="42.94312236" lon="13.69200261">
        <ele>360.00000</ele>
        <time>2024-04-19T11:41:45Z</time>
      </trkpt>
      <trkpt lat="42.94315136" lon="13.69193840">
        <ele>360.00000</ele>
        <time>2024-04-19T11:41:46Z</time>
      </trkpt>
      <trkpt lat="42.94317886" lon="13.69186992">
        <ele>361.00000</ele>
        <time>2024-04-19T11:41:47Z</time>
      </trkpt>
      <trkpt lat="42.94320325" lon="13.69179985">
        <ele>361.00000</ele>
        <time>2024-04-19T11:41:48Z</time>
      </trkpt>
      <trkpt lat="42.94322622" lon="13.69173246">
        <ele>361.00000</ele>
        <time>2024-04-19T11:41:49Z</time>
      </trkpt>
      <trkpt lat="42.94324876" lon="13.69166607">
        <ele>361.00000</ele>
        <time>2024-04-19T11:41:50Z</time>
      </trkpt>
      <trkpt lat="42.94326938" lon="13.69159592">
        <ele>361.00000</ele>
        <time>2024-04-19T11:41:51Z</time>
      </trkpt>
      <trkpt lat="42.94328539" lon="13.69152358">
        <ele>362.00000</ele>
        <time>2024-04-19T11:41:52Z</time>
      </trkpt>
      <trkpt lat="42.94329578" lon="13.69144764">
        <ele>362.00000</ele>
        <time>2024-04-19T11:41:53Z</time>
      </trkpt>
      <trkpt lat="42.94330257" lon="13.69137145">
        <ele>362.00000</ele>
        <time>2024-04-19T11:41:54Z</time>
      </trkpt>
      <trkpt lat="42.94330425" lon="13.69129308">
        <ele>362.00000</ele>
        <time>2024-04-19T11:41:55Z</time>
      </trkpt>
      <trkpt lat="42.94330392" lon="13.69121496">
        <ele>362.00000</ele>
        <time>2024-04-19T11:41:56Z</time>
      </trkpt>
      <trkpt lat="42.94330576" lon="13.69113667">
        <ele>362.00000</ele>
        <time>2024-04-19T11:41:57Z</time>
      </trkpt>
      <trkpt lat="42.94330450" lon="13.69105445">
        <ele>362.00000</ele>
        <time>2024-04-19T11:41:58Z</time>
      </trkpt>
      <trkpt lat="42.94329520" lon="13.69096837">
        <ele>361.00000</ele>
        <time>2024-04-19T11:41:59Z</time>
      </trkpt>
      <trkpt lat="42.94328489" lon="13.69088228">
        <ele>361.00000</ele>
        <time>2024-04-19T11:42:00Z</time>
      </trkpt>
      <trkpt lat="42.94327575" lon="13.69079729">
        <ele>360.00000</ele>
        <time>2024-04-19T11:42:01Z</time>
      </trkpt>
      <trkpt lat="42.94326645" lon="13.69070903">
        <ele>360.00000</ele>
        <time>2024-04-19T11:42:02Z</time>
      </trkpt>
      <trkpt lat="42.94325748" lon="13.69062060">
        <ele>360.00000</ele>
        <time>2024-04-19T11:42:03Z</time>
      </trkpt>
      <trkpt lat="42.94324742" lon="13.69053008">
        <ele>360.00000</ele>
        <time>2024-04-19T11:42:04Z</time>
      </trkpt>
      <trkpt lat="42.94323803" lon="13.69044089">
        <ele>360.00000</ele>
        <time>2024-04-19T11:42:05Z</time>
      </trkpt>
      <trkpt lat="42.94322672" lon="13.69034919">
        <ele>360.00000</ele>
        <time>2024-04-19T11:42:06Z</time>
      </trkpt>
      <trkpt lat="42.94321683" lon="13.69025666">
        <ele>360.00000</ele>
        <time>2024-04-19T11:42:07Z</time>
      </trkpt>
      <trkpt lat="42.94320593" lon="13.69016479">
        <ele>361.00000</ele>
        <time>2024-04-19T11:42:08Z</time>
      </trkpt>
      <trkpt lat="42.94319420" lon="13.69007242">
        <ele>361.00000</ele>
        <time>2024-04-19T11:42:09Z</time>
      </trkpt>
      <trkpt lat="42.94318472" lon="13.68998114">
        <ele>361.00000</ele>
        <time>2024-04-19T11:42:10Z</time>
      </trkpt>
      <trkpt lat="42.94317592" lon="13.68988878">
        <ele>361.00000</ele>
        <time>2024-04-19T11:42:11Z</time>
      </trkpt>
      <trkpt lat="42.94316880" lon="13.68979800">
        <ele>362.00000</ele>
        <time>2024-04-19T11:42:12Z</time>
      </trkpt>
      <trkpt lat="42.94316226" lon="13.68970714">
        <ele>362.00000</ele>
        <time>2024-04-19T11:42:13Z</time>
      </trkpt>
      <trkpt lat="42.94315908" lon="13.68961620">
        <ele>362.00000</ele>
        <time>2024-04-19T11:42:14Z</time>
      </trkpt>
      <trkpt lat="42.94316293" lon="13.68952601">
        <ele>362.00000</ele>
        <time>2024-04-19T11:42:15Z</time>
      </trkpt>
      <trkpt lat="42.94317307" lon="13.68943892">
        <ele>362.00000</ele>
        <time>2024-04-19T11:42:16Z</time>
      </trkpt>
      <trkpt lat="42.94318581" lon="13.68935116">
        <ele>362.00000</ele>
        <time>2024-04-19T11:42:17Z</time>
      </trkpt>
      <trkpt lat="42.94320073" lon="13.68926198">
        <ele>362.00000</ele>
        <time>2024-04-19T11:42:18Z</time>
      </trkpt>
      <trkpt lat="42.94321741" lon="13.68917564">
        <ele>361.00000</ele>
        <time>2024-04-19T11:42:19Z</time>
      </trkpt>
      <trkpt lat="42.94323619" lon="13.68909048">
        <ele>361.00000</ele>
        <time>2024-04-19T11:42:20Z</time>
      </trkpt>
      <trkpt lat="42.94325656" lon="13.68900398">
        <ele>361.00000</ele>
        <time>2024-04-19T11:42:21Z</time>
      </trkpt>
      <trkpt lat="42.94327793" lon="13.68891874">
        <ele>361.00000</ele>
        <time>2024-04-19T11:42:22Z</time>
      </trkpt>
      <trkpt lat="42.94330073" lon="13.68883433">
        <ele>361.00000</ele>
        <time>2024-04-19T11:42:23Z</time>
      </trkpt>
      <trkpt lat="42.94332487" lon="13.68875412">
        <ele>361.00000</ele>
        <time>2024-04-19T11:42:24Z</time>
      </trkpt>
      <trkpt lat="42.94334859" lon="13.68867214">
        <ele>361.00000</ele>
        <time>2024-04-19T11:42:25Z</time>
      </trkpt>
      <trkpt lat="42.94337114" lon="13.68859235">
        <ele>361.00000</ele>
        <time>2024-04-19T11:42:26Z</time>
      </trkpt>
      <trkpt lat="42.94339402" lon="13.68851205">
        <ele>361.00000</ele>
        <time>2024-04-19T11:42:27Z</time>
      </trkpt>
      <trkpt lat="42.94341900" lon="13.68843066">
        <ele>361.00000</ele>
        <time>2024-04-19T11:42:28Z</time>
      </trkpt>
      <trkpt lat="42.94344725" lon="13.68835246">
        <ele>361.00000</ele>
        <time>2024-04-19T11:42:29Z</time>
      </trkpt>
      <trkpt lat="42.94347641" lon="13.68827761">
        <ele>361.00000</ele>
        <time>2024-04-19T11:42:30Z</time>
      </trkpt>
      <trkpt lat="42.94350508" lon="13.68820309">
        <ele>361.00000</ele>
        <time>2024-04-19T11:42:31Z</time>
      </trkpt>
      <trkpt lat="42.94353551" lon="13.68813034">
        <ele>361.00000</ele>
        <time>2024-04-19T11:42:32Z</time>
      </trkpt>
      <trkpt lat="42.94356635" lon="13.68805716">
        <ele>361.00000</ele>
        <time>2024-04-19T11:42:33Z</time>
      </trkpt>
      <trkpt lat="42.94359871" lon="13.68798525">
        <ele>361.00000</ele>
        <time>2024-04-19T11:42:34Z</time>
      </trkpt>
      <trkpt lat="42.94363031" lon="13.68791232">
        <ele>362.00000</ele>
        <time>2024-04-19T11:42:35Z</time>
      </trkpt>
      <trkpt lat="42.94366241" lon="13.68783772">
        <ele>362.00000</ele>
        <time>2024-04-19T11:42:36Z</time>
      </trkpt>
      <trkpt lat="42.94369569" lon="13.68776388">
        <ele>362.00000</ele>
        <time>2024-04-19T11:42:37Z</time>
      </trkpt>
      <trkpt lat="42.94372620" lon="13.68768895">
        <ele>362.00000</ele>
        <time>2024-04-19T11:42:38Z</time>
      </trkpt>
      <trkpt lat="42.94375922" lon="13.68761426">
        <ele>362.00000</ele>
        <time>2024-04-19T11:42:39Z</time>
      </trkpt>
      <trkpt lat="42.94379367" lon="13.68753983">
        <ele>363.00000</ele>
        <time>2024-04-19T11:42:40Z</time>
      </trkpt>
      <trkpt lat="42.94382711" lon="13.68746540">
        <ele>363.00000</ele>
        <time>2024-04-19T11:42:41Z</time>
      </trkpt>
      <trkpt lat="42.94386106" lon="13.68739290">
        <ele>363.00000</ele>
        <time>2024-04-19T11:42:42Z</time>
      </trkpt>
      <trkpt lat="42.94389300" lon="13.68732106">
        <ele>364.00000</ele>
        <time>2024-04-19T11:42:43Z</time>
      </trkpt>
      <trkpt lat="42.94392451" lon="13.68724839">
        <ele>364.00000</ele>
        <time>2024-04-19T11:42:44Z</time>
      </trkpt>
      <trkpt lat="42.94395502" lon="13.68717522">
        <ele>364.00000</ele>
        <time>2024-04-19T11:42:45Z</time>
      </trkpt>
      <trkpt lat="42.94398402" lon="13.68710464">
        <ele>364.00000</ele>
        <time>2024-04-19T11:42:46Z</time>
      </trkpt>
      <trkpt lat="42.94401269" lon="13.68703633">
        <ele>364.00000</ele>
        <time>2024-04-19T11:42:47Z</time>
      </trkpt>
      <trkpt lat="42.94404177" lon="13.68696827">
        <ele>364.00000</ele>
        <time>2024-04-19T11:42:48Z</time>
      </trkpt>
      <trkpt lat="42.94407195" lon="13.68690121">
        <ele>364.00000</ele>
        <time>2024-04-19T11:42:49Z</time>
      </trkpt>
      <trkpt lat="42.94410145" lon="13.68683617">
        <ele>364.00000</ele>
        <time>2024-04-19T11:42:50Z</time>
      </trkpt>
      <trkpt lat="42.94412953" lon="13.68677113">
        <ele>364.00000</ele>
        <time>2024-04-19T11:42:51Z</time>
      </trkpt>
      <trkpt lat="42.94415719" lon="13.68670776">
        <ele>364.00000</ele>
        <time>2024-04-19T11:42:52Z</time>
      </trkpt>
      <trkpt lat="42.94418460" lon="13.68664531">
        <ele>364.00000</ele>
        <time>2024-04-19T11:42:53Z</time>
      </trkpt>
      <trkpt lat="42.94421235" lon="13.68658513">
        <ele>364.00000</ele>
        <time>2024-04-19T11:42:54Z</time>
      </trkpt>
      <trkpt lat="42.94423875" lon="13.68652730">
        <ele>364.00000</ele>
        <time>2024-04-19T11:42:55Z</time>
      </trkpt>
      <trkpt lat="42.94426708" lon="13.68647055">
        <ele>364.00000</ele>
        <time>2024-04-19T11:42:56Z</time>
      </trkpt>
      <trkpt lat="42.94429625" lon="13.68641179">
        <ele>364.00000</ele>
        <time>2024-04-19T11:42:57Z</time>
      </trkpt>
      <trkpt lat="42.94432341" lon="13.68635128">
        <ele>364.00000</ele>
        <time>2024-04-19T11:42:58Z</time>
      </trkpt>
      <trkpt lat="42.94434855" lon="13.68629403">
        <ele>365.00000</ele>
        <time>2024-04-19T11:42:59Z</time>
      </trkpt>
      <trkpt lat="42.94437437" lon="13.68623628">
        <ele>365.00000</ele>
        <time>2024-04-19T11:43:00Z</time>
      </trkpt>
      <trkpt lat="42.94440069" lon="13.68617601">
        <ele>366.00000</ele>
        <time>2024-04-19T11:43:01Z</time>
      </trkpt>
      <trkpt lat="42.94442902" lon="13.68611575">
        <ele>367.00000</ele>
        <time>2024-04-19T11:43:02Z</time>
      </trkpt>
      <trkpt lat="42.94445618" lon="13.68605431">
        <ele>367.00000</ele>
        <time>2024-04-19T11:43:03Z</time>
      </trkpt>
      <trkpt lat="42.94448954" lon="13.68598189">
        <ele>368.00000</ele>
        <time>2024-04-19T11:43:04Z</time>
      </trkpt>
      <trkpt lat="42.94451602" lon="13.68592221">
        <ele>368.00000</ele>
        <time>2024-04-19T11:43:05Z</time>
      </trkpt>
      <trkpt lat="42.94453706" lon="13.68587368">
        <ele>368.00000</ele>
        <time>2024-04-19T11:43:06Z</time>
      </trkpt>
      <trkpt lat="42.94456397" lon="13.68581391">
        <ele>369.00000</ele>
        <time>2024-04-19T11:43:07Z</time>
      </trkpt>
      <trkpt lat="42.94459557" lon="13.68574049">
        <ele>369.00000</ele>
        <time>2024-04-19T11:43:08Z</time>
      </trkpt>
      <trkpt lat="42.94461619" lon="13.68569187">
        <ele>369.00000</ele>
        <time>2024-04-19T11:43:09Z</time>
      </trkpt>
      <trkpt lat="42.94464586" lon="13.68561895">
        <ele>368.00000</ele>
        <time>2024-04-19T11:43:10Z</time>
      </trkpt>
      <trkpt lat="42.94466606" lon="13.68556950">
        <ele>368.00000</ele>
        <time>2024-04-19T11:43:11Z</time>
      </trkpt>
      <trkpt lat="42.94469833" lon="13.68549532">
        <ele>368.00000</ele>
        <time>2024-04-19T11:43:12Z</time>
      </trkpt>
      <trkpt lat="42.94472062" lon="13.68544645">
        <ele>368.00000</ele>
        <time>2024-04-19T11:43:13Z</time>
      </trkpt>
      <trkpt lat="42.94474678" lon="13.68538543">
        <ele>368.00000</ele>
        <time>2024-04-19T11:43:14Z</time>
      </trkpt>
      <trkpt lat="42.94477335" lon="13.68532391">
        <ele>369.00000</ele>
        <time>2024-04-19T11:43:15Z</time>
      </trkpt>
      <trkpt lat="42.94480168" lon="13.68526498">
        <ele>369.00000</ele>
        <time>2024-04-19T11:43:16Z</time>
      </trkpt>
      <trkpt lat="42.94483537" lon="13.68519416">
        <ele>369.00000</ele>
        <time>2024-04-19T11:43:17Z</time>
      </trkpt>
      <trkpt lat="42.94485700" lon="13.68514596">
        <ele>369.00000</ele>
        <time>2024-04-19T11:43:18Z</time>
      </trkpt>
      <trkpt lat="42.94488944" lon="13.68507346">
        <ele>369.00000</ele>
        <time>2024-04-19T11:43:19Z</time>
      </trkpt>
      <trkpt lat="42.94491223" lon="13.68502534">
        <ele>369.00000</ele>
        <time>2024-04-19T11:43:20Z</time>
      </trkpt>
      <trkpt lat="42.94494233" lon="13.68496684">
        <ele>369.00000</ele>
        <time>2024-04-19T11:43:21Z</time>
      </trkpt>
      <trkpt lat="42.94497535" lon="13.68489408">
        <ele>370.00000</ele>
        <time>2024-04-19T11:43:22Z</time>
      </trkpt>
      <trkpt lat="42.94500125" lon="13.68483239">
        <ele>370.00000</ele>
        <time>2024-04-19T11:43:23Z</time>
      </trkpt>
      <trkpt lat="42.94502262" lon="13.68478302">
        <ele>371.00000</ele>
        <time>2024-04-19T11:43:24Z</time>
      </trkpt>
      <trkpt lat="42.94505137" lon="13.68472142">
        <ele>371.00000</ele>
        <time>2024-04-19T11:43:25Z</time>
      </trkpt>
      <trkpt lat="42.94508515" lon="13.68464875">
        <ele>372.00000</ele>
        <time>2024-04-19T11:43:26Z</time>
      </trkpt>
      <trkpt lat="42.94510879" lon="13.68460030">
        <ele>372.00000</ele>
        <time>2024-04-19T11:43:27Z</time>
      </trkpt>
      <trkpt lat="42.94514383" lon="13.68452880">
        <ele>373.00000</ele>
        <time>2024-04-19T11:43:28Z</time>
      </trkpt>
      <trkpt lat="42.94516637" lon="13.68448136">
        <ele>373.00000</ele>
        <time>2024-04-19T11:43:29Z</time>
      </trkpt>
      <trkpt lat="42.94519429" lon="13.68442319">
        <ele>374.00000</ele>
        <time>2024-04-19T11:43:30Z</time>
      </trkpt>
      <trkpt lat="42.94523066" lon="13.68435328">
        <ele>374.00000</ele>
        <time>2024-04-19T11:43:31Z</time>
      </trkpt>
      <trkpt lat="42.94526176" lon="13.68429319">
        <ele>375.00000</ele>
        <time>2024-04-19T11:43:32Z</time>
      </trkpt>
      <trkpt lat="42.94529194" lon="13.68423158">
        <ele>375.00000</ele>
        <time>2024-04-19T11:43:33Z</time>
      </trkpt>
      <trkpt lat="42.94531683" lon="13.68418338">
        <ele>375.00000</ele>
        <time>2024-04-19T11:43:34Z</time>
      </trkpt>
      <trkpt lat="42.94534818" lon="13.68412219">
        <ele>376.00000</ele>
        <time>2024-04-19T11:43:35Z</time>
      </trkpt>
      <trkpt lat="42.94538682" lon="13.68404835">
        <ele>376.00000</ele>
        <time>2024-04-19T11:43:36Z</time>
      </trkpt>
      <trkpt lat="42.94542009" lon="13.68398683">
        <ele>376.00000</ele>
        <time>2024-04-19T11:43:37Z</time>
      </trkpt>
      <trkpt lat="42.94544549" lon="13.68393536">
        <ele>376.00000</ele>
        <time>2024-04-19T11:43:38Z</time>
      </trkpt>
      <trkpt lat="42.94547625" lon="13.68387023">
        <ele>376.00000</ele>
        <time>2024-04-19T11:43:39Z</time>
      </trkpt>
      <trkpt lat="42.94550517" lon="13.68380695">
        <ele>376.00000</ele>
        <time>2024-04-19T11:43:40Z</time>
      </trkpt>
      <trkpt lat="42.94553887" lon="13.68373445">
        <ele>377.00000</ele>
        <time>2024-04-19T11:43:41Z</time>
      </trkpt>
      <trkpt lat="42.94556493" lon="13.68367401">
        <ele>377.00000</ele>
        <time>2024-04-19T11:43:42Z</time>
      </trkpt>
      <trkpt lat="42.94558513" lon="13.68362599">
        <ele>377.00000</ele>
        <time>2024-04-19T11:43:43Z</time>
      </trkpt>
      <trkpt lat="42.94561506" lon="13.68355751">
        <ele>378.00000</ele>
        <time>2024-04-19T11:43:44Z</time>
      </trkpt>
      <trkpt lat="42.94563987" lon="13.68350679">
        <ele>378.00000</ele>
        <time>2024-04-19T11:43:45Z</time>
      </trkpt>
      <trkpt lat="42.94566468" lon="13.68345642">
        <ele>379.00000</ele>
        <time>2024-04-19T11:43:46Z</time>
      </trkpt>
      <trkpt lat="42.94567968" lon="13.68341174">
        <ele>379.00000</ele>
        <time>2024-04-19T11:43:47Z</time>
      </trkpt>
      <trkpt lat="42.94569997" lon="13.68336087">
        <ele>380.00000</ele>
        <time>2024-04-19T11:43:48Z</time>
      </trkpt>
      <trkpt lat="42.94572427" lon="13.68330999">
        <ele>380.00000</ele>
        <time>2024-04-19T11:43:49Z</time>
      </trkpt>
      <trkpt lat="42.94574690" lon="13.68325961">
        <ele>381.00000</ele>
        <time>2024-04-19T11:43:50Z</time>
      </trkpt>
      <trkpt lat="42.94576727" lon="13.68320890">
        <ele>382.00000</ele>
        <time>2024-04-19T11:43:51Z</time>
      </trkpt>
      <trkpt lat="42.94578605" lon="13.68316037">
        <ele>383.00000</ele>
        <time>2024-04-19T11:43:52Z</time>
      </trkpt>
      <trkpt lat="42.94581094" lon="13.68310371">
        <ele>384.00000</ele>
        <time>2024-04-19T11:43:53Z</time>
      </trkpt>
      <trkpt lat="42.94582913" lon="13.68305736">
        <ele>384.00000</ele>
        <time>2024-04-19T11:43:54Z</time>
      </trkpt>
      <trkpt lat="42.94584187" lon="13.68301830">
        <ele>385.00000</ele>
        <time>2024-04-19T11:43:55Z</time>
      </trkpt>
      <trkpt lat="42.94585998" lon="13.68297044">
        <ele>385.00000</ele>
        <time>2024-04-19T11:43:56Z</time>
      </trkpt>
      <trkpt lat="42.94587967" lon="13.68292216">
        <ele>386.00000</ele>
        <time>2024-04-19T11:43:57Z</time>
      </trkpt>
      <trkpt lat="42.94590222" lon="13.68286675">
        <ele>386.00000</ele>
        <time>2024-04-19T11:43:58Z</time>
      </trkpt>
      <trkpt lat="42.94591739" lon="13.68282149">
        <ele>387.00000</ele>
        <time>2024-04-19T11:43:59Z</time>
      </trkpt>
      <trkpt lat="42.94593072" lon="13.68277874">
        <ele>387.00000</ele>
        <time>2024-04-19T11:44:00Z</time>
      </trkpt>
      <trkpt lat="42.94594413" lon="13.68274664">
        <ele>387.00000</ele>
        <time>2024-04-19T11:44:01Z</time>
      </trkpt>
      <trkpt lat="42.94596609" lon="13.68270331">
        <ele>388.00000</ele>
        <time>2024-04-19T11:44:02Z</time>
      </trkpt>
      <trkpt lat="42.94598897" lon="13.68264975">
        <ele>388.00000</ele>
        <time>2024-04-19T11:44:03Z</time>
      </trkpt>
      <trkpt lat="42.94600021" lon="13.68261203">
        <ele>388.00000</ele>
        <time>2024-04-19T11:44:04Z</time>
      </trkpt>
      <trkpt lat="42.94601337" lon="13.68256819">
        <ele>388.00000</ele>
        <time>2024-04-19T11:44:05Z</time>
      </trkpt>
      <trkpt lat="42.94602711" lon="13.68252536">
        <ele>389.00000</ele>
        <time>2024-04-19T11:44:06Z</time>
      </trkpt>
      <trkpt lat="42.94604337" lon="13.68247951">
        <ele>389.00000</ele>
        <time>2024-04-19T11:44:07Z</time>
      </trkpt>
      <trkpt lat="42.94606894" lon="13.68242545">
        <ele>389.00000</ele>
        <time>2024-04-19T11:44:08Z</time>
      </trkpt>
      <trkpt lat="42.94609475" lon="13.68238085">
        <ele>389.00000</ele>
        <time>2024-04-19T11:44:09Z</time>
      </trkpt>
      <trkpt lat="42.94611412" lon="13.68234917">
        <ele>389.00000</ele>
        <time>2024-04-19T11:44:10Z</time>
      </trkpt>
      <trkpt lat="42.94614035" lon="13.68230642">
        <ele>389.00000</ele>
        <time>2024-04-19T11:44:11Z</time>
      </trkpt>
      <trkpt lat="42.94616214" lon="13.68225580">
        <ele>388.00000</ele>
        <time>2024-04-19T11:44:12Z</time>
      </trkpt>
      <trkpt lat="42.94617757" lon="13.68221338">
        <ele>388.00000</ele>
        <time>2024-04-19T11:44:13Z</time>
      </trkpt>
      <trkpt lat="42.94619031" lon="13.68217885">
        <ele>388.00000</ele>
        <time>2024-04-19T11:44:14Z</time>
      </trkpt>
      <trkpt lat="42.94620363" lon="13.68213719">
        <ele>388.00000</ele>
        <time>2024-04-19T11:44:15Z</time>
      </trkpt>
      <trkpt lat="42.94621721" lon="13.68209428">
        <ele>387.00000</ele>
        <time>2024-04-19T11:44:16Z</time>
      </trkpt>
      <trkpt lat="42.94623071" lon="13.68204843">
        <ele>387.00000</ele>
        <time>2024-04-19T11:44:17Z</time>
      </trkpt>
      <trkpt lat="42.94624705" lon="13.68200090">
        <ele>387.00000</ele>
        <time>2024-04-19T11:44:18Z</time>
      </trkpt>
      <trkpt lat="42.94626298" lon="13.68195380">
        <ele>387.00000</ele>
        <time>2024-04-19T11:44:19Z</time>
      </trkpt>
      <trkpt lat="42.94627832" lon="13.68190417">
        <ele>387.00000</ele>
        <time>2024-04-19T11:44:20Z</time>
      </trkpt>
      <trkpt lat="42.94629240" lon="13.68185279">
        <ele>386.00000</ele>
        <time>2024-04-19T11:44:21Z</time>
      </trkpt>
      <trkpt lat="42.94630598" lon="13.68178850">
        <ele>386.00000</ele>
        <time>2024-04-19T11:44:22Z</time>
      </trkpt>
      <trkpt lat="42.94631185" lon="13.68173453">
        <ele>386.00000</ele>
        <time>2024-04-19T11:44:23Z</time>
      </trkpt>
      <trkpt lat="42.94631545" lon="13.68169010">
        <ele>386.00000</ele>
        <time>2024-04-19T11:44:24Z</time>
      </trkpt>
      <trkpt lat="42.94631738" lon="13.68163445">
        <ele>386.00000</ele>
        <time>2024-04-19T11:44:25Z</time>
      </trkpt>
      <trkpt lat="42.94631746" lon="13.68156555">
        <ele>386.00000</ele>
        <time>2024-04-19T11:44:26Z</time>
      </trkpt>
      <trkpt lat="42.94631377" lon="13.68152054">
        <ele>386.00000</ele>
        <time>2024-04-19T11:44:27Z</time>
      </trkpt>
      <trkpt lat="42.94630195" lon="13.68146480">
        <ele>387.00000</ele>
        <time>2024-04-19T11:44:28Z</time>
      </trkpt>
      <trkpt lat="42.94628301" lon="13.68141375">
        <ele>387.00000</ele>
        <time>2024-04-19T11:44:29Z</time>
      </trkpt>
      <trkpt lat="42.94626013" lon="13.68136706">
        <ele>388.00000</ele>
        <time>2024-04-19T11:44:30Z</time>
      </trkpt>
      <trkpt lat="42.94622786" lon="13.68131543">
        <ele>389.00000</ele>
        <time>2024-04-19T11:44:31Z</time>
      </trkpt>
      <trkpt lat="42.94619634" lon="13.68128207">
        <ele>390.00000</ele>
        <time>2024-04-19T11:44:32Z</time>
      </trkpt>
      <trkpt lat="42.94616935" lon="13.68126271">
        <ele>391.00000</ele>
        <time>2024-04-19T11:44:33Z</time>
      </trkpt>
      <trkpt lat="42.94612384" lon="13.68124469">
        <ele>392.00000</ele>
        <time>2024-04-19T11:44:34Z</time>
      </trkpt>
      <trkpt lat="42.94608411" lon="13.68124276">
        <ele>392.00000</ele>
        <time>2024-04-19T11:44:35Z</time>
      </trkpt>
      <trkpt lat="42.94605293" lon="13.68124972">
        <ele>393.00000</ele>
        <time>2024-04-19T11:44:36Z</time>
      </trkpt>
      <trkpt lat="42.94601345" lon="13.68126413">
        <ele>393.00000</ele>
        <time>2024-04-19T11:44:37Z</time>
      </trkpt>
      <trkpt lat="42.94597590" lon="13.68128190">
        <ele>394.00000</ele>
        <time>2024-04-19T11:44:38Z</time>
      </trkpt>
      <trkpt lat="42.94593751" lon="13.68130252">
        <ele>394.00000</ele>
        <time>2024-04-19T11:44:39Z</time>
      </trkpt>
      <trkpt lat="42.94589040" lon="13.68132758">
        <ele>394.00000</ele>
        <time>2024-04-19T11:44:40Z</time>
      </trkpt>
      <trkpt lat="42.94585042" lon="13.68134787">
        <ele>395.00000</ele>
        <time>2024-04-19T11:44:41Z</time>
      </trkpt>
      <trkpt lat="42.94581765" lon="13.68136597">
        <ele>395.00000</ele>
        <time>2024-04-19T11:44:42Z</time>
      </trkpt>
      <trkpt lat="42.94577440" lon="13.68138768">
        <ele>395.00000</ele>
        <time>2024-04-19T11:44:43Z</time>
      </trkpt>
      <trkpt lat="42.94572235" lon="13.68140872">
        <ele>396.00000</ele>
        <time>2024-04-19T11:44:44Z</time>
      </trkpt>
      <trkpt lat="42.94567926" lon="13.68142666">
        <ele>396.00000</ele>
        <time>2024-04-19T11:44:45Z</time>
      </trkpt>
      <trkpt lat="42.94564448" lon="13.68143973">
        <ele>396.00000</ele>
        <time>2024-04-19T11:44:46Z</time>
      </trkpt>
      <trkpt lat="42.94560039" lon="13.68145499">
        <ele>397.00000</ele>
        <time>2024-04-19T11:44:47Z</time>
      </trkpt>
      <trkpt lat="42.94554658" lon="13.68147477">
        <ele>397.00000</ele>
        <time>2024-04-19T11:44:48Z</time>
      </trkpt>
      <trkpt lat="42.94550911" lon="13.68148734">
        <ele>397.00000</ele>
        <time>2024-04-19T11:44:49Z</time>
      </trkpt>
      <trkpt lat="42.94545220" lon="13.68150637">
        <ele>397.00000</ele>
        <time>2024-04-19T11:44:50Z</time>
      </trkpt>
      <trkpt lat="42.94541423" lon="13.68151810">
        <ele>398.00000</ele>
        <time>2024-04-19T11:44:51Z</time>
      </trkpt>
      <trkpt lat="42.94536796" lon="13.68152984">
        <ele>398.00000</ele>
        <time>2024-04-19T11:44:52Z</time>
      </trkpt>
      <trkpt lat="42.94531222" lon="13.68154350">
        <ele>398.00000</ele>
        <time>2024-04-19T11:44:53Z</time>
      </trkpt>
      <trkpt lat="42.94526578" lon="13.68155708">
        <ele>398.00000</ele>
        <time>2024-04-19T11:44:54Z</time>
      </trkpt>
      <trkpt lat="42.94522773" lon="13.68156848">
        <ele>399.00000</ele>
        <time>2024-04-19T11:44:55Z</time>
      </trkpt>
      <trkpt lat="42.94518037" lon="13.68158122">
        <ele>399.00000</ele>
        <time>2024-04-19T11:44:56Z</time>
      </trkpt>
      <trkpt lat="42.94512773" lon="13.68159522">
        <ele>399.00000</ele>
        <time>2024-04-19T11:44:57Z</time>
      </trkpt>
      <trkpt lat="42.94509194" lon="13.68160335">
        <ele>399.00000</ele>
        <time>2024-04-19T11:44:58Z</time>
      </trkpt>
      <trkpt lat="42.94504794" lon="13.68161282">
        <ele>399.00000</ele>
        <time>2024-04-19T11:44:59Z</time>
      </trkpt>
      <trkpt lat="42.94500301" lon="13.68161986">
        <ele>400.00000</ele>
        <time>2024-04-19T11:45:00Z</time>
      </trkpt>
      <trkpt lat="42.94495616" lon="13.68162556">
        <ele>399.00000</ele>
        <time>2024-04-19T11:45:01Z</time>
      </trkpt>
      <trkpt lat="42.94489866" lon="13.68162992">
        <ele>399.00000</ele>
        <time>2024-04-19T11:45:02Z</time>
      </trkpt>
      <trkpt lat="42.94484836" lon="13.68162908">
        <ele>399.00000</ele>
        <time>2024-04-19T11:45:03Z</time>
      </trkpt>
      <trkpt lat="42.94479640" lon="13.68162347">
        <ele>399.00000</ele>
        <time>2024-04-19T11:45:04Z</time>
      </trkpt>
      <trkpt lat="42.94475432" lon="13.68161399">
        <ele>399.00000</ele>
        <time>2024-04-19T11:45:05Z</time>
      </trkpt>
      <trkpt lat="42.94469305" lon="13.68159078">
        <ele>398.00000</ele>
        <time>2024-04-19T11:45:06Z</time>
      </trkpt>
      <trkpt lat="42.94464401" lon="13.68156177">
        <ele>398.00000</ele>
        <time>2024-04-19T11:45:07Z</time>
      </trkpt>
      <trkpt lat="42.94459858" lon="13.68152665">
        <ele>398.00000</ele>
        <time>2024-04-19T11:45:08Z</time>
      </trkpt>
      <trkpt lat="42.94456447" lon="13.68149145">
        <ele>398.00000</ele>
        <time>2024-04-19T11:45:09Z</time>
      </trkpt>
      <trkpt lat="42.94451921" lon="13.68143077">
        <ele>398.00000</ele>
        <time>2024-04-19T11:45:10Z</time>
      </trkpt>
      <trkpt lat="42.94448803" lon="13.68137109">
        <ele>398.00000</ele>
        <time>2024-04-19T11:45:11Z</time>
      </trkpt>
      <trkpt lat="42.94446364" lon="13.68130906">
        <ele>398.00000</ele>
        <time>2024-04-19T11:45:12Z</time>
      </trkpt>
      <trkpt lat="42.94444452" lon="13.68124041">
        <ele>397.00000</ele>
        <time>2024-04-19T11:45:13Z</time>
      </trkpt>
      <trkpt lat="42.94443371" lon="13.68118367">
        <ele>397.00000</ele>
        <time>2024-04-19T11:45:14Z</time>
      </trkpt>
      <trkpt lat="42.94442122" lon="13.68109624">
        <ele>397.00000</ele>
        <time>2024-04-19T11:45:15Z</time>
      </trkpt>
      <trkpt lat="42.94441594" lon="13.68102240">
        <ele>397.00000</ele>
        <time>2024-04-19T11:45:16Z</time>
      </trkpt>
      <trkpt lat="42.94441460" lon="13.68094847">
        <ele>398.00000</ele>
        <time>2024-04-19T11:45:17Z</time>
      </trkpt>
      <trkpt lat="42.94441678" lon="13.68087370">
        <ele>398.00000</ele>
        <time>2024-04-19T11:45:18Z</time>
      </trkpt>
      <trkpt lat="42.94441963" lon="13.68080288">
        <ele>398.00000</ele>
        <time>2024-04-19T11:45:19Z</time>
      </trkpt>
      <trkpt lat="42.94442684" lon="13.68073398">
        <ele>399.00000</ele>
        <time>2024-04-19T11:45:20Z</time>
      </trkpt>
      <trkpt lat="42.94443757" lon="13.68066608">
        <ele>399.00000</ele>
        <time>2024-04-19T11:45:21Z</time>
      </trkpt>
      <trkpt lat="42.94444838" lon="13.68061169">
        <ele>399.00000</ele>
        <time>2024-04-19T11:45:22Z</time>
      </trkpt>
      <trkpt lat="42.94446632" lon="13.68053097">
        <ele>400.00000</ele>
        <time>2024-04-19T11:45:23Z</time>
      </trkpt>
      <trkpt lat="42.94448384" lon="13.68046777">
        <ele>400.00000</ele>
        <time>2024-04-19T11:45:24Z</time>
      </trkpt>
      <trkpt lat="42.94450110" lon="13.68040516">
        <ele>400.00000</ele>
        <time>2024-04-19T11:45:25Z</time>
      </trkpt>
      <trkpt lat="42.94451778" lon="13.68034254">
        <ele>400.00000</ele>
        <time>2024-04-19T11:45:26Z</time>
      </trkpt>
      <trkpt lat="42.94453304" lon="13.68029410">
        <ele>400.00000</ele>
        <time>2024-04-19T11:45:27Z</time>
      </trkpt>
      <trkpt lat="42.94455642" lon="13.68022360">
        <ele>400.00000</ele>
        <time>2024-04-19T11:45:28Z</time>
      </trkpt>
      <trkpt lat="42.94457939" lon="13.68016812">
        <ele>401.00000</ele>
        <time>2024-04-19T11:45:29Z</time>
      </trkpt>
      <trkpt lat="42.94460345" lon="13.68011665">
        <ele>401.00000</ele>
        <time>2024-04-19T11:45:30Z</time>
      </trkpt>
      <trkpt lat="42.94462817" lon="13.68006703">
        <ele>402.00000</ele>
        <time>2024-04-19T11:45:31Z</time>
      </trkpt>
      <trkpt lat="42.94465131" lon="13.68001716">
        <ele>402.00000</ele>
        <time>2024-04-19T11:45:32Z</time>
      </trkpt>
      <trkpt lat="42.94467511" lon="13.67996712">
        <ele>403.00000</ele>
        <time>2024-04-19T11:45:33Z</time>
      </trkpt>
      <trkpt lat="42.94469850" lon="13.67991758">
        <ele>403.00000</ele>
        <time>2024-04-19T11:45:34Z</time>
      </trkpt>
      <trkpt lat="42.94471736" lon="13.67987886">
        <ele>404.00000</ele>
        <time>2024-04-19T11:45:35Z</time>
      </trkpt>
      <trkpt lat="42.94474141" lon="13.67983242">
        <ele>404.00000</ele>
        <time>2024-04-19T11:45:36Z</time>
      </trkpt>
      <trkpt lat="42.94477016" lon="13.67977785">
        <ele>405.00000</ele>
        <time>2024-04-19T11:45:37Z</time>
      </trkpt>
      <trkpt lat="42.94479698" lon="13.67973511">
        <ele>405.00000</ele>
        <time>2024-04-19T11:45:38Z</time>
      </trkpt>
      <trkpt lat="42.94482196" lon="13.67969177">
        <ele>405.00000</ele>
        <time>2024-04-19T11:45:39Z</time>
      </trkpt>
      <trkpt lat="42.94484409" lon="13.67964550">
        <ele>405.00000</ele>
        <time>2024-04-19T11:45:40Z</time>
      </trkpt>
      <trkpt lat="42.94486421" lon="13.67959890">
        <ele>406.00000</ele>
        <time>2024-04-19T11:45:41Z</time>
      </trkpt>
      <trkpt lat="42.94488348" lon="13.67955213">
        <ele>406.00000</ele>
        <time>2024-04-19T11:45:42Z</time>
      </trkpt>
      <trkpt lat="42.94490553" lon="13.67950762">
        <ele>406.00000</ele>
        <time>2024-04-19T11:45:43Z</time>
      </trkpt>
      <trkpt lat="42.94492414" lon="13.67947460">
        <ele>406.00000</ele>
        <time>2024-04-19T11:45:44Z</time>
      </trkpt>
      <trkpt lat="42.94494719" lon="13.67942942">
        <ele>407.00000</ele>
        <time>2024-04-19T11:45:45Z</time>
      </trkpt>
      <trkpt lat="42.94497049" lon="13.67937343">
        <ele>407.00000</ele>
        <time>2024-04-19T11:45:46Z</time>
      </trkpt>
      <trkpt lat="42.94498625" lon="13.67932255">
        <ele>408.00000</ele>
        <time>2024-04-19T11:45:47Z</time>
      </trkpt>
      <trkpt lat="42.94499530" lon="13.67927938">
        <ele>408.00000</ele>
        <time>2024-04-19T11:45:48Z</time>
      </trkpt>
      <trkpt lat="42.94500729" lon="13.67922582">
        <ele>408.00000</ele>
        <time>2024-04-19T11:45:49Z</time>
      </trkpt>
      <trkpt lat="42.94502187" lon="13.67917268">
        <ele>409.00000</ele>
        <time>2024-04-19T11:45:50Z</time>
      </trkpt>
      <trkpt lat="42.94503503" lon="13.67911878">
        <ele>409.00000</ele>
        <time>2024-04-19T11:45:51Z</time>
      </trkpt>
      <trkpt lat="42.94504257" lon="13.67906372">
        <ele>409.00000</ele>
        <time>2024-04-19T11:45:52Z</time>
      </trkpt>
      <trkpt lat="42.94504836" lon="13.67900647">
        <ele>410.00000</ele>
        <time>2024-04-19T11:45:53Z</time>
      </trkpt>
      <trkpt lat="42.94505607" lon="13.67893631">
        <ele>410.00000</ele>
        <time>2024-04-19T11:45:54Z</time>
      </trkpt>
      <trkpt lat="42.94505766" lon="13.67887957">
        <ele>410.00000</ele>
        <time>2024-04-19T11:45:55Z</time>
      </trkpt>
      <trkpt lat="42.94505825" lon="13.67882274">
        <ele>410.00000</ele>
        <time>2024-04-19T11:45:56Z</time>
      </trkpt>
      <trkpt lat="42.94505808" lon="13.67876540">
        <ele>410.00000</ele>
        <time>2024-04-19T11:45:57Z</time>
      </trkpt>
      <trkpt lat="42.94505867" lon="13.67872257">
        <ele>410.00000</ele>
        <time>2024-04-19T11:45:58Z</time>
      </trkpt>
      <trkpt lat="42.94505573" lon="13.67865418">
        <ele>409.00000</ele>
        <time>2024-04-19T11:45:59Z</time>
      </trkpt>
      <trkpt lat="42.94504978" lon="13.67859458">
        <ele>409.00000</ele>
        <time>2024-04-19T11:46:00Z</time>
      </trkpt>
      <trkpt lat="42.94504643" lon="13.67853532">
        <ele>409.00000</ele>
        <time>2024-04-19T11:46:01Z</time>
      </trkpt>
      <trkpt lat="42.94504299" lon="13.67847648">
        <ele>408.00000</ele>
        <time>2024-04-19T11:46:02Z</time>
      </trkpt>
      <trkpt lat="42.94503738" lon="13.67841705">
        <ele>408.00000</ele>
        <time>2024-04-19T11:46:03Z</time>
      </trkpt>
      <trkpt lat="42.94503243" lon="13.67835737">
        <ele>407.00000</ele>
        <time>2024-04-19T11:46:04Z</time>
      </trkpt>
      <trkpt lat="42.94502765" lon="13.67829828">
        <ele>407.00000</ele>
        <time>2024-04-19T11:46:05Z</time>
      </trkpt>
      <trkpt lat="42.94502153" lon="13.67823374">
        <ele>408.00000</ele>
        <time>2024-04-19T11:46:06Z</time>
      </trkpt>
      <trkpt lat="42.94501835" lon="13.67818127">
        <ele>408.00000</ele>
        <time>2024-04-19T11:46:07Z</time>
      </trkpt>
      <trkpt lat="42.94501307" lon="13.67810206">
        <ele>408.00000</ele>
        <time>2024-04-19T11:46:08Z</time>
      </trkpt>
      <trkpt lat="42.94500720" lon="13.67803442">
        <ele>409.00000</ele>
        <time>2024-04-19T11:46:09Z</time>
      </trkpt>
      <trkpt lat="42.94500125" lon="13.67796535">
        <ele>409.00000</ele>
        <time>2024-04-19T11:46:10Z</time>
      </trkpt>
      <trkpt lat="42.94499589" lon="13.67789394">
        <ele>410.00000</ele>
        <time>2024-04-19T11:46:11Z</time>
      </trkpt>
      <trkpt lat="42.94498893" lon="13.67782336">
        <ele>411.00000</ele>
        <time>2024-04-19T11:46:12Z</time>
      </trkpt>
      <trkpt lat="42.94497862" lon="13.67775153">
        <ele>411.00000</ele>
        <time>2024-04-19T11:46:13Z</time>
      </trkpt>
      <trkpt lat="42.94497041" lon="13.67769177">
        <ele>411.00000</ele>
        <time>2024-04-19T11:46:14Z</time>
      </trkpt>
      <trkpt lat="42.94495934" lon="13.67761658">
        <ele>412.00000</ele>
        <time>2024-04-19T11:46:15Z</time>
      </trkpt>
      <trkpt lat="42.94494744" lon="13.67754450">
        <ele>412.00000</ele>
        <time>2024-04-19T11:46:16Z</time>
      </trkpt>
      <trkpt lat="42.94493101" lon="13.67746965">
        <ele>412.00000</ele>
        <time>2024-04-19T11:46:17Z</time>
      </trkpt>
      <trkpt lat="42.94491240" lon="13.67739488">
        <ele>412.00000</ele>
        <time>2024-04-19T11:46:18Z</time>
      </trkpt>
      <trkpt lat="42.94488843" lon="13.67731835">
        <ele>412.00000</ele>
        <time>2024-04-19T11:46:19Z</time>
      </trkpt>
      <trkpt lat="42.94486228" lon="13.67724208">
        <ele>412.00000</ele>
        <time>2024-04-19T11:46:20Z</time>
      </trkpt>
      <trkpt lat="42.94483345" lon="13.67716639">
        <ele>413.00000</ele>
        <time>2024-04-19T11:46:21Z</time>
      </trkpt>
      <trkpt lat="42.94480319" lon="13.67709003">
        <ele>413.00000</ele>
        <time>2024-04-19T11:46:22Z</time>
      </trkpt>
      <trkpt lat="42.94477159" lon="13.67701224">
        <ele>413.00000</ele>
        <time>2024-04-19T11:46:23Z</time>
      </trkpt>
      <trkpt lat="42.94474041" lon="13.67693698">
        <ele>413.00000</ele>
        <time>2024-04-19T11:46:24Z</time>
      </trkpt>
      <trkpt lat="42.94470797" lon="13.67686179">
        <ele>414.00000</ele>
        <time>2024-04-19T11:46:25Z</time>
      </trkpt>
      <trkpt lat="42.94467486" lon="13.67678828">
        <ele>415.00000</ele>
        <time>2024-04-19T11:46:26Z</time>
      </trkpt>
      <trkpt lat="42.94463907" lon="13.67671553">
        <ele>415.00000</ele>
        <time>2024-04-19T11:46:27Z</time>
      </trkpt>
      <trkpt lat="42.94460512" lon="13.67664076">
        <ele>416.00000</ele>
        <time>2024-04-19T11:46:28Z</time>
      </trkpt>
      <trkpt lat="42.94457159" lon="13.67656339">
        <ele>417.00000</ele>
        <time>2024-04-19T11:46:29Z</time>
      </trkpt>
      <trkpt lat="42.94453983" lon="13.67648586">
        <ele>418.00000</ele>
        <time>2024-04-19T11:46:30Z</time>
      </trkpt>
      <trkpt lat="42.94450940" lon="13.67641068">
        <ele>419.00000</ele>
        <time>2024-04-19T11:46:31Z</time>
      </trkpt>
      <trkpt lat="42.94448023" lon="13.67633943">
        <ele>419.00000</ele>
        <time>2024-04-19T11:46:32Z</time>
      </trkpt>
      <trkpt lat="42.94445039" lon="13.67626835">
        <ele>420.00000</ele>
        <time>2024-04-19T11:46:33Z</time>
      </trkpt>
      <trkpt lat="42.94442013" lon="13.67619828">
        <ele>420.00000</ele>
        <time>2024-04-19T11:46:34Z</time>
      </trkpt>
      <trkpt lat="42.94438359" lon="13.67611404">
        <ele>421.00000</ele>
        <time>2024-04-19T11:46:35Z</time>
      </trkpt>
      <trkpt lat="42.94435442" lon="13.67604346">
        <ele>421.00000</ele>
        <time>2024-04-19T11:46:36Z</time>
      </trkpt>
      <trkpt lat="42.94432466" lon="13.67597146">
        <ele>421.00000</ele>
        <time>2024-04-19T11:46:37Z</time>
      </trkpt>
      <trkpt lat="42.94429575" lon="13.67589946">
        <ele>420.00000</ele>
        <time>2024-04-19T11:46:38Z</time>
      </trkpt>
      <trkpt lat="42.94427001" lon="13.67582604">
        <ele>420.00000</ele>
        <time>2024-04-19T11:46:39Z</time>
      </trkpt>
      <trkpt lat="42.94424705" lon="13.67575261">
        <ele>420.00000</ele>
        <time>2024-04-19T11:46:40Z</time>
      </trkpt>
      <trkpt lat="42.94422609" lon="13.67567919">
        <ele>420.00000</ele>
        <time>2024-04-19T11:46:41Z</time>
      </trkpt>
      <trkpt lat="42.94420958" lon="13.67562001">
        <ele>420.00000</ele>
        <time>2024-04-19T11:46:42Z</time>
      </trkpt>
      <trkpt lat="42.94418754" lon="13.67554457">
        <ele>421.00000</ele>
        <time>2024-04-19T11:46:43Z</time>
      </trkpt>
      <trkpt lat="42.94416415" lon="13.67545656">
        <ele>421.00000</ele>
        <time>2024-04-19T11:46:44Z</time>
      </trkpt>
      <trkpt lat="42.94414772" lon="13.67538414">
        <ele>421.00000</ele>
        <time>2024-04-19T11:46:45Z</time>
      </trkpt>
      <trkpt lat="42.94413599" lon="13.67532212">
        <ele>421.00000</ele>
        <time>2024-04-19T11:46:46Z</time>
      </trkpt>
      <trkpt lat="42.94411922" lon="13.67524257">
        <ele>420.00000</ele>
        <time>2024-04-19T11:46:47Z</time>
      </trkpt>
      <trkpt lat="42.94410363" lon="13.67516186">
        <ele>420.00000</ele>
        <time>2024-04-19T11:46:48Z</time>
      </trkpt>
      <trkpt lat="42.94408737" lon="13.67508256">
        <ele>420.00000</ele>
        <time>2024-04-19T11:46:49Z</time>
      </trkpt>
      <trkpt lat="42.94407061" lon="13.67500050">
        <ele>420.00000</ele>
        <time>2024-04-19T11:46:50Z</time>
      </trkpt>
      <trkpt lat="42.94405502" lon="13.67492004">
        <ele>420.00000</ele>
        <time>2024-04-19T11:46:51Z</time>
      </trkpt>
      <trkpt lat="42.94403800" lon="13.67483714">
        <ele>420.00000</ele>
        <time>2024-04-19T11:46:52Z</time>
      </trkpt>
      <trkpt lat="42.94401705" lon="13.67473497">
        <ele>421.00000</ele>
        <time>2024-04-19T11:46:53Z</time>
      </trkpt>
      <trkpt lat="42.94400238" lon="13.67464587">
        <ele>421.00000</ele>
        <time>2024-04-19T11:46:54Z</time>
      </trkpt>
      <trkpt lat="42.94398738" lon="13.67455744">
        <ele>421.00000</ele>
        <time>2024-04-19T11:46:55Z</time>
      </trkpt>
      <trkpt lat="42.94397464" lon="13.67448686">
        <ele>422.00000</ele>
        <time>2024-04-19T11:46:56Z</time>
      </trkpt>
      <trkpt lat="42.94395821" lon="13.67439894">
        <ele>422.00000</ele>
        <time>2024-04-19T11:46:57Z</time>
      </trkpt>
      <trkpt lat="42.94393968" lon="13.67429240">
        <ele>422.00000</ele>
        <time>2024-04-19T11:46:58Z</time>
      </trkpt>
      <trkpt lat="42.94392233" lon="13.67420347">
        <ele>422.00000</ele>
        <time>2024-04-19T11:46:59Z</time>
      </trkpt>
      <trkpt lat="42.94390750" lon="13.67413323">
        <ele>422.00000</ele>
        <time>2024-04-19T11:47:00Z</time>
      </trkpt>
      <trkpt lat="42.94389006" lon="13.67404455">
        <ele>422.00000</ele>
        <time>2024-04-19T11:47:01Z</time>
      </trkpt>
      <trkpt lat="42.94387003" lon="13.67393659">
        <ele>421.00000</ele>
        <time>2024-04-19T11:47:02Z</time>
      </trkpt>
      <trkpt lat="42.94385151" lon="13.67384741">
        <ele>421.00000</ele>
        <time>2024-04-19T11:47:03Z</time>
      </trkpt>
      <trkpt lat="42.94383617" lon="13.67375881">
        <ele>421.00000</ele>
        <time>2024-04-19T11:47:04Z</time>
      </trkpt>
      <trkpt lat="42.94382309" lon="13.67368740">
        <ele>421.00000</ele>
        <time>2024-04-19T11:47:05Z</time>
      </trkpt>
      <trkpt lat="42.94380323" lon="13.67357977">
        <ele>420.00000</ele>
        <time>2024-04-19T11:47:06Z</time>
      </trkpt>
      <trkpt lat="42.94378479" lon="13.67348883">
        <ele>421.00000</ele>
        <time>2024-04-19T11:47:07Z</time>
      </trkpt>
      <trkpt lat="42.94376978" lon="13.67341557">
        <ele>421.00000</ele>
        <time>2024-04-19T11:47:08Z</time>
      </trkpt>
      <trkpt lat="42.94375201" lon="13.67332722">
        <ele>421.00000</ele>
        <time>2024-04-19T11:47:09Z</time>
      </trkpt>
      <trkpt lat="42.94373508" lon="13.67323863">
        <ele>421.00000</ele>
        <time>2024-04-19T11:47:10Z</time>
      </trkpt>
      <trkpt lat="42.94371756" lon="13.67314802">
        <ele>421.00000</ele>
        <time>2024-04-19T11:47:11Z</time>
      </trkpt>
      <trkpt lat="42.94369585" lon="13.67303906">
        <ele>421.00000</ele>
        <time>2024-04-19T11:47:12Z</time>
      </trkpt>
      <trkpt lat="42.94367708" lon="13.67294568">
        <ele>421.00000</ele>
        <time>2024-04-19T11:47:13Z</time>
      </trkpt>
      <trkpt lat="42.94366274" lon="13.67286915">
        <ele>421.00000</ele>
        <time>2024-04-19T11:47:14Z</time>
      </trkpt>
      <trkpt lat="42.94364615" lon="13.67277394">
        <ele>421.00000</ele>
        <time>2024-04-19T11:47:15Z</time>
      </trkpt>
      <trkpt lat="42.94362922" lon="13.67267813">
        <ele>420.00000</ele>
        <time>2024-04-19T11:47:16Z</time>
      </trkpt>
      <trkpt lat="42.94361153" lon="13.67258300">
        <ele>420.00000</ele>
        <time>2024-04-19T11:47:17Z</time>
      </trkpt>
      <trkpt lat="42.94359494" lon="13.67249188">
        <ele>420.00000</ele>
        <time>2024-04-19T11:47:18Z</time>
      </trkpt>
      <trkpt lat="42.94357708" lon="13.67239968">
        <ele>421.00000</ele>
        <time>2024-04-19T11:47:19Z</time>
      </trkpt>
      <trkpt lat="42.94355688" lon="13.67229223">
        <ele>422.00000</ele>
        <time>2024-04-19T11:47:20Z</time>
      </trkpt>
      <trkpt lat="42.94354322" lon="13.67220439">
        <ele>423.00000</ele>
        <time>2024-04-19T11:47:21Z</time>
      </trkpt>
      <trkpt lat="42.94352889" lon="13.67213490">
        <ele>423.00000</ele>
        <time>2024-04-19T11:47:22Z</time>
      </trkpt>
      <trkpt lat="42.94350977" lon="13.67205100">
        <ele>423.00000</ele>
        <time>2024-04-19T11:47:23Z</time>
      </trkpt>
      <trkpt lat="42.94349025" lon="13.67196634">
        <ele>424.00000</ele>
        <time>2024-04-19T11:47:24Z</time>
      </trkpt>
      <trkpt lat="42.94347088" lon="13.67187707">
        <ele>424.00000</ele>
        <time>2024-04-19T11:47:25Z</time>
      </trkpt>
      <trkpt lat="42.94344943" lon="13.67176702">
        <ele>424.00000</ele>
        <time>2024-04-19T11:47:26Z</time>
      </trkpt>
      <trkpt lat="42.94343627" lon="13.67169225">
        <ele>424.00000</ele>
        <time>2024-04-19T11:47:27Z</time>
      </trkpt>
      <trkpt lat="42.94341883" lon="13.67159611">
        <ele>424.00000</ele>
        <time>2024-04-19T11:47:28Z</time>
      </trkpt>
      <trkpt lat="42.94339930" lon="13.67148807">
        <ele>424.00000</ele>
        <time>2024-04-19T11:47:29Z</time>
      </trkpt>
      <trkpt lat="42.94338765" lon="13.67141800">
        <ele>424.00000</ele>
        <time>2024-04-19T11:47:30Z</time>
      </trkpt>
      <trkpt lat="42.94337047" lon="13.67133560">
        <ele>424.00000</ele>
        <time>2024-04-19T11:47:31Z</time>
      </trkpt>
      <trkpt lat="42.94335027" lon="13.67124927">
        <ele>424.00000</ele>
        <time>2024-04-19T11:47:32Z</time>
      </trkpt>
      <trkpt lat="42.94332697" lon="13.67115715">
        <ele>424.00000</ele>
        <time>2024-04-19T11:47:33Z</time>
      </trkpt>
      <trkpt lat="42.94329671" lon="13.67104550">
        <ele>425.00000</ele>
        <time>2024-04-19T11:47:34Z</time>
      </trkpt>
      <trkpt lat="42.94326854" lon="13.67095758">
        <ele>425.00000</ele>
        <time>2024-04-19T11:47:35Z</time>
      </trkpt>
      <trkpt lat="42.94324197" lon="13.67088709">
        <ele>426.00000</ele>
        <time>2024-04-19T11:47:36Z</time>
      </trkpt>
      <trkpt lat="42.94320652" lon="13.67080042">
        <ele>427.00000</ele>
        <time>2024-04-19T11:47:37Z</time>
      </trkpt>
      <trkpt lat="42.94316100" lon="13.67069874">
        <ele>428.00000</ele>
        <time>2024-04-19T11:47:38Z</time>
      </trkpt>
      <trkpt lat="42.94312127" lon="13.67061384">
        <ele>430.00000</ele>
        <time>2024-04-19T11:47:39Z</time>
      </trkpt>
      <trkpt lat="42.94308548" lon="13.67054745">
        <ele>431.00000</ele>
        <time>2024-04-19T11:47:40Z</time>
      </trkpt>
      <trkpt lat="42.94304123" lon="13.67046682">
        <ele>431.00000</ele>
        <time>2024-04-19T11:47:41Z</time>
      </trkpt>
      <trkpt lat="42.94299663" lon="13.67039029">
        <ele>432.00000</ele>
        <time>2024-04-19T11:47:42Z</time>
      </trkpt>
      <trkpt lat="42.94294794" lon="13.67031217">
        <ele>432.00000</ele>
        <time>2024-04-19T11:47:43Z</time>
      </trkpt>
      <trkpt lat="42.94288381" lon="13.67021896">
        <ele>432.00000</ele>
        <time>2024-04-19T11:47:44Z</time>
      </trkpt>
      <trkpt lat="42.94284048" lon="13.67015903">
        <ele>432.00000</ele>
        <time>2024-04-19T11:47:45Z</time>
      </trkpt>
      <trkpt lat="42.94278801" lon="13.67008200">
        <ele>432.00000</ele>
        <time>2024-04-19T11:47:46Z</time>
      </trkpt>
      <trkpt lat="42.94271810" lon="13.67000028">
        <ele>431.00000</ele>
        <time>2024-04-19T11:47:47Z</time>
      </trkpt>
      <trkpt lat="42.94265700" lon="13.66993431">
        <ele>430.00000</ele>
        <time>2024-04-19T11:47:48Z</time>
      </trkpt>
      <trkpt lat="42.94260713" lon="13.66987975">
        <ele>430.00000</ele>
        <time>2024-04-19T11:47:49Z</time>
      </trkpt>
      <trkpt lat="42.94254552" lon="13.66981462">
        <ele>429.00000</ele>
        <time>2024-04-19T11:47:50Z</time>
      </trkpt>
      <trkpt lat="42.94248525" lon="13.66974597">
        <ele>429.00000</ele>
        <time>2024-04-19T11:47:51Z</time>
      </trkpt>
      <trkpt lat="42.94242843" lon="13.66966417">
        <ele>429.00000</ele>
        <time>2024-04-19T11:47:52Z</time>
      </trkpt>
      <trkpt lat="42.94236003" lon="13.66957238">
        <ele>429.00000</ele>
        <time>2024-04-19T11:47:53Z</time>
      </trkpt>
      <trkpt lat="42.94231569" lon="13.66951564">
        <ele>429.00000</ele>
        <time>2024-04-19T11:47:54Z</time>
      </trkpt>
      <trkpt lat="42.94225551" lon="13.66944481">
        <ele>430.00000</ele>
        <time>2024-04-19T11:47:55Z</time>
      </trkpt>
      <trkpt lat="42.94218594" lon="13.66936837">
        <ele>430.00000</ele>
        <time>2024-04-19T11:47:56Z</time>
      </trkpt>
      <trkpt lat="42.94212659" lon="13.66930299">
        <ele>429.00000</ele>
        <time>2024-04-19T11:47:57Z</time>
      </trkpt>
      <trkpt lat="42.94207865" lon="13.66924993">
        <ele>429.00000</ele>
        <time>2024-04-19T11:47:58Z</time>
      </trkpt>
      <trkpt lat="42.94202031" lon="13.66918246">
        <ele>429.00000</ele>
        <time>2024-04-19T11:47:59Z</time>
      </trkpt>
      <trkpt lat="42.94196516" lon="13.66911071">
        <ele>428.00000</ele>
        <time>2024-04-19T11:48:00Z</time>
      </trkpt>
      <trkpt lat="42.94191487" lon="13.66903334">
        <ele>427.00000</ele>
        <time>2024-04-19T11:48:01Z</time>
      </trkpt>
      <trkpt lat="42.94186483" lon="13.66893276">
        <ele>427.00000</ele>
        <time>2024-04-19T11:48:02Z</time>
      </trkpt>
      <trkpt lat="42.94184002" lon="13.66885950">
        <ele>427.00000</ele>
        <time>2024-04-19T11:48:03Z</time>
      </trkpt>
      <trkpt lat="42.94181772" lon="13.66876512">
        <ele>426.00000</ele>
        <time>2024-04-19T11:48:04Z</time>
      </trkpt>
      <trkpt lat="42.94180531" lon="13.66865197">
        <ele>426.00000</ele>
        <time>2024-04-19T11:48:05Z</time>
      </trkpt>
      <trkpt lat="42.94180238" lon="13.66854946">
        <ele>425.00000</ele>
        <time>2024-04-19T11:48:06Z</time>
      </trkpt>
      <trkpt lat="42.94180104" lon="13.66846044">
        <ele>424.00000</ele>
        <time>2024-04-19T11:48:07Z</time>
      </trkpt>
      <trkpt lat="42.94180272" lon="13.66834443">
        <ele>424.00000</ele>
        <time>2024-04-19T11:48:08Z</time>
      </trkpt>
      <trkpt lat="42.94180724" lon="13.66822089">
        <ele>423.00000</ele>
        <time>2024-04-19T11:48:09Z</time>
      </trkpt>
      <trkpt lat="42.94181127" lon="13.66809105">
        <ele>423.00000</ele>
        <time>2024-04-19T11:48:10Z</time>
      </trkpt>
      <trkpt lat="42.94180833" lon="13.66792400">
        <ele>423.00000</ele>
        <time>2024-04-19T11:48:11Z</time>
      </trkpt>
      <trkpt lat="42.94179584" lon="13.66780514">
        <ele>423.00000</ele>
        <time>2024-04-19T11:48:12Z</time>
      </trkpt>
      <trkpt lat="42.94177489" lon="13.66765092">
        <ele>423.00000</ele>
        <time>2024-04-19T11:48:13Z</time>
      </trkpt>
      <trkpt lat="42.94174748" lon="13.66749443">
        <ele>422.00000</ele>
        <time>2024-04-19T11:48:14Z</time>
      </trkpt>
      <trkpt lat="42.94171261" lon="13.66734137">
        <ele>419.00000</ele>
        <time>2024-04-19T11:48:15Z</time>
      </trkpt>
      <trkpt lat="42.94167288" lon="13.66718480">
        <ele>416.00000</ele>
        <time>2024-04-19T11:48:16Z</time>
      </trkpt>
      <trkpt lat="42.94163214" lon="13.66702596">
        <ele>415.00000</ele>
        <time>2024-04-19T11:48:17Z</time>
      </trkpt>
      <trkpt lat="42.94159065" lon="13.66686511">
        <ele>413.00000</ele>
        <time>2024-04-19T11:48:18Z</time>
      </trkpt>
      <trkpt lat="42.94154489" lon="13.66670234">
        <ele>412.00000</ele>
        <time>2024-04-19T11:48:19Z</time>
      </trkpt>
      <trkpt lat="42.94149267" lon="13.66653931">
        <ele>411.00000</ele>
        <time>2024-04-19T11:48:20Z</time>
      </trkpt>
      <trkpt lat="42.94143659" lon="13.66637854">
        <ele>411.00000</ele>
        <time>2024-04-19T11:48:21Z</time>
      </trkpt>
      <trkpt lat="42.94137432" lon="13.66622029">
        <ele>410.00000</ele>
        <time>2024-04-19T11:48:22Z</time>
      </trkpt>
      <trkpt lat="42.94129947" lon="13.66607168">
        <ele>409.00000</ele>
        <time>2024-04-19T11:48:23Z</time>
      </trkpt>
      <trkpt lat="42.94120592" lon="13.66594126">
        <ele>409.00000</ele>
        <time>2024-04-19T11:48:24Z</time>
      </trkpt>
      <trkpt lat="42.94107357" lon="13.66582056">
        <ele>409.00000</ele>
        <time>2024-04-19T11:48:25Z</time>
      </trkpt>
      <trkpt lat="42.94097299" lon="13.66578334">
        <ele>409.00000</ele>
        <time>2024-04-19T11:48:26Z</time>
      </trkpt>
      <trkpt lat="42.94084601" lon="13.66575082">
        <ele>410.00000</ele>
        <time>2024-04-19T11:48:27Z</time>
      </trkpt>
      <trkpt lat="42.94071885" lon="13.66572467">
        <ele>410.00000</ele>
        <time>2024-04-19T11:48:28Z</time>
      </trkpt>
      <trkpt lat="42.94059405" lon="13.66569399">
        <ele>410.00000</ele>
        <time>2024-04-19T11:48:29Z</time>
      </trkpt>
      <trkpt lat="42.94047167" lon="13.66564999">
        <ele>411.00000</ele>
        <time>2024-04-19T11:48:30Z</time>
      </trkpt>
      <trkpt lat="42.94036916" lon="13.66556307">
        <ele>411.00000</ele>
        <time>2024-04-19T11:48:31Z</time>
      </trkpt>
      <trkpt lat="42.94029188" lon="13.66543617">
        <ele>411.00000</ele>
        <time>2024-04-19T11:48:32Z</time>
      </trkpt>
      <trkpt lat="42.94025047" lon="13.66528269">
        <ele>411.00000</ele>
        <time>2024-04-19T11:48:33Z</time>
      </trkpt>
      <trkpt lat="42.94023958" lon="13.66511455">
        <ele>410.00000</ele>
        <time>2024-04-19T11:48:34Z</time>
      </trkpt>
      <trkpt lat="42.94022792" lon="13.66494080">
        <ele>408.00000</ele>
        <time>2024-04-19T11:48:35Z</time>
      </trkpt>
      <trkpt lat="42.94019909" lon="13.66477140">
        <ele>407.00000</ele>
        <time>2024-04-19T11:48:36Z</time>
      </trkpt>
      <trkpt lat="42.94015802" lon="13.66461600">
        <ele>405.00000</ele>
        <time>2024-04-19T11:48:37Z</time>
      </trkpt>
      <trkpt lat="42.94010521" lon="13.66446973">
        <ele>405.00000</ele>
        <time>2024-04-19T11:48:38Z</time>
      </trkpt>
      <trkpt lat="42.94002642" lon="13.66430327">
        <ele>405.00000</ele>
        <time>2024-04-19T11:48:39Z</time>
      </trkpt>
      <trkpt lat="42.93996700" lon="13.66418944">
        <ele>405.00000</ele>
        <time>2024-04-19T11:48:40Z</time>
      </trkpt>
      <trkpt lat="42.93989290" lon="13.66404376">
        <ele>404.00000</ele>
        <time>2024-04-19T11:48:41Z</time>
      </trkpt>
      <trkpt lat="42.93981637" lon="13.66389985">
        <ele>403.00000</ele>
        <time>2024-04-19T11:48:42Z</time>
      </trkpt>
      <trkpt lat="42.93973943" lon="13.66375358">
        <ele>403.00000</ele>
        <time>2024-04-19T11:48:43Z</time>
      </trkpt>
      <trkpt lat="42.93965770" lon="13.66360011">
        <ele>401.00000</ele>
        <time>2024-04-19T11:48:44Z</time>
      </trkpt>
      <trkpt lat="42.93957632" lon="13.66344789">
        <ele>399.00000</ele>
        <time>2024-04-19T11:48:45Z</time>
      </trkpt>
      <trkpt lat="42.93949568" lon="13.66329610">
        <ele>397.00000</ele>
        <time>2024-04-19T11:48:46Z</time>
      </trkpt>
      <trkpt lat="42.93941999" lon="13.66314288">
        <ele>396.00000</ele>
        <time>2024-04-19T11:48:47Z</time>
      </trkpt>
      <trkpt lat="42.93934087" lon="13.66294884">
        <ele>396.00000</ele>
        <time>2024-04-19T11:48:48Z</time>
      </trkpt>
      <trkpt lat="42.93930348" lon="13.66280760">
        <ele>395.00000</ele>
        <time>2024-04-19T11:48:49Z</time>
      </trkpt>
      <trkpt lat="42.93927825" lon="13.66263460">
        <ele>396.00000</ele>
        <time>2024-04-19T11:48:50Z</time>
      </trkpt>
      <trkpt lat="42.93929619" lon="13.66246327">
        <ele>395.00000</ele>
        <time>2024-04-19T11:48:51Z</time>
      </trkpt>
      <trkpt lat="42.93933467" lon="13.66228993">
        <ele>393.00000</ele>
        <time>2024-04-19T11:48:52Z</time>
      </trkpt>
      <trkpt lat="42.93937406" lon="13.66207779">
        <ele>391.00000</ele>
        <time>2024-04-19T11:48:53Z</time>
      </trkpt>
      <trkpt lat="42.93938755" lon="13.66189129">
        <ele>389.00000</ele>
        <time>2024-04-19T11:48:54Z</time>
      </trkpt>
      <trkpt lat="42.93937666" lon="13.66174134">
        <ele>388.00000</ele>
        <time>2024-04-19T11:48:55Z</time>
      </trkpt>
      <trkpt lat="42.93934958" lon="13.66155560">
        <ele>388.00000</ele>
        <time>2024-04-19T11:48:56Z</time>
      </trkpt>
      <trkpt lat="42.93931220" lon="13.66134555">
        <ele>389.00000</ele>
        <time>2024-04-19T11:48:57Z</time>
      </trkpt>
      <trkpt lat="42.93930181" lon="13.66121470">
        <ele>389.00000</ele>
        <time>2024-04-19T11:48:58Z</time>
      </trkpt>
      <trkpt lat="42.93931731" lon="13.66105218">
        <ele>389.00000</ele>
        <time>2024-04-19T11:48:59Z</time>
      </trkpt>
      <trkpt lat="42.93937750" lon="13.66091472">
        <ele>388.00000</ele>
        <time>2024-04-19T11:49:00Z</time>
      </trkpt>
      <trkpt lat="42.93947615" lon="13.66082780">
        <ele>388.00000</ele>
        <time>2024-04-19T11:49:01Z</time>
      </trkpt>
      <trkpt lat="42.93959098" lon="13.66077046">
        <ele>385.00000</ele>
        <time>2024-04-19T11:49:02Z</time>
      </trkpt>
      <trkpt lat="42.93971596" lon="13.66072227">
        <ele>384.00000</ele>
        <time>2024-04-19T11:49:03Z</time>
      </trkpt>
      <trkpt lat="42.93984797" lon="13.66068405">
        <ele>383.00000</ele>
        <time>2024-04-19T11:49:04Z</time>
      </trkpt>
      <trkpt lat="42.93998854" lon="13.66065999">
        <ele>382.00000</ele>
        <time>2024-04-19T11:49:05Z</time>
      </trkpt>
      <trkpt lat="42.94012994" lon="13.66063878">
        <ele>381.00000</ele>
        <time>2024-04-19T11:49:06Z</time>
      </trkpt>
      <trkpt lat="42.94027210" lon="13.66061766">
        <ele>380.00000</ele>
        <time>2024-04-19T11:49:07Z</time>
      </trkpt>
      <trkpt lat="42.94041660" lon="13.66059922">
        <ele>379.00000</ele>
        <time>2024-04-19T11:49:08Z</time>
      </trkpt>
      <trkpt lat="42.94055758" lon="13.66058338">
        <ele>378.00000</ele>
        <time>2024-04-19T11:49:09Z</time>
      </trkpt>
      <trkpt lat="42.94069656" lon="13.66056594">
        <ele>379.00000</ele>
        <time>2024-04-19T11:49:10Z</time>
      </trkpt>
      <trkpt lat="42.94083519" lon="13.66054172">
        <ele>381.00000</ele>
        <time>2024-04-19T11:49:11Z</time>
      </trkpt>
      <trkpt lat="42.94097014" lon="13.66050870">
        <ele>380.00000</ele>
        <time>2024-04-19T11:49:12Z</time>
      </trkpt>
      <trkpt lat="42.94110241" lon="13.66046821">
        <ele>379.00000</ele>
        <time>2024-04-19T11:49:13Z</time>
      </trkpt>
      <trkpt lat="42.94122898" lon="13.66041390">
        <ele>378.00000</ele>
        <time>2024-04-19T11:49:14Z</time>
      </trkpt>
      <trkpt lat="42.94134791" lon="13.66034852">
        <ele>376.00000</ele>
        <time>2024-04-19T11:49:15Z</time>
      </trkpt>
      <trkpt lat="42.94146325" lon="13.66026897">
        <ele>376.00000</ele>
        <time>2024-04-19T11:49:16Z</time>
      </trkpt>
      <trkpt lat="42.94156920" lon="13.66018490">
        <ele>374.00000</ele>
        <time>2024-04-19T11:49:17Z</time>
      </trkpt>
      <trkpt lat="42.94166718" lon="13.66008927">
        <ele>373.00000</ele>
        <time>2024-04-19T11:49:18Z</time>
      </trkpt>
      <trkpt lat="42.94174865" lon="13.65999220">
        <ele>372.00000</ele>
        <time>2024-04-19T11:49:19Z</time>
      </trkpt>
      <trkpt lat="42.94181546" lon="13.65989439">
        <ele>371.00000</ele>
        <time>2024-04-19T11:49:20Z</time>
      </trkpt>
      <trkpt lat="42.94186290" lon="13.65979724">
        <ele>370.00000</ele>
        <time>2024-04-19T11:49:21Z</time>
      </trkpt>
      <trkpt lat="42.94189014" lon="13.65969674">
        <ele>370.00000</ele>
        <time>2024-04-19T11:49:22Z</time>
      </trkpt>
      <trkpt lat="42.94189726" lon="13.65959105">
        <ele>369.00000</ele>
        <time>2024-04-19T11:49:23Z</time>
      </trkpt>
      <trkpt lat="42.94187991" lon="13.65948116">
        <ele>369.00000</ele>
        <time>2024-04-19T11:49:24Z</time>
      </trkpt>
      <trkpt lat="42.94183759" lon="13.65937387">
        <ele>369.00000</ele>
        <time>2024-04-19T11:49:25Z</time>
      </trkpt>
      <trkpt lat="42.94178084" lon="13.65927748">
        <ele>369.00000</ele>
        <time>2024-04-19T11:49:26Z</time>
      </trkpt>
      <trkpt lat="42.94170012" lon="13.65917991">
        <ele>369.00000</ele>
        <time>2024-04-19T11:49:27Z</time>
      </trkpt>
      <trkpt lat="42.94163860" lon="13.65912401">
        <ele>369.00000</ele>
        <time>2024-04-19T11:49:28Z</time>
      </trkpt>
      <trkpt lat="42.94155964" lon="13.65904890">
        <ele>369.00000</ele>
        <time>2024-04-19T11:49:29Z</time>
      </trkpt>
      <trkpt lat="42.94147901" lon="13.65896668">
        <ele>368.00000</ele>
        <time>2024-04-19T11:49:30Z</time>
      </trkpt>
      <trkpt lat="42.94139510" lon="13.65888135">
        <ele>368.00000</ele>
        <time>2024-04-19T11:49:31Z</time>
      </trkpt>
      <trkpt lat="42.94130978" lon="13.65879761">
        <ele>368.00000</ele>
        <time>2024-04-19T11:49:32Z</time>
      </trkpt>
      <trkpt lat="42.94122411" lon="13.65871271">
        <ele>368.00000</ele>
        <time>2024-04-19T11:49:33Z</time>
      </trkpt>
      <trkpt lat="42.94113434" lon="13.65862386">
        <ele>367.00000</ele>
        <time>2024-04-19T11:49:34Z</time>
      </trkpt>
      <trkpt lat="42.94104365" lon="13.65853417">
        <ele>367.00000</ele>
        <time>2024-04-19T11:49:35Z</time>
      </trkpt>
      <trkpt lat="42.94095430" lon="13.65844474">
        <ele>367.00000</ele>
        <time>2024-04-19T11:49:36Z</time>
      </trkpt>
      <trkpt lat="42.94086520" lon="13.65835321">
        <ele>367.00000</ele>
        <time>2024-04-19T11:49:37Z</time>
      </trkpt>
      <trkpt lat="42.94077409" lon="13.65826377">
        <ele>367.00000</ele>
        <time>2024-04-19T11:49:38Z</time>
      </trkpt>
      <trkpt lat="42.94068315" lon="13.65817241">
        <ele>366.00000</ele>
        <time>2024-04-19T11:49:39Z</time>
      </trkpt>
      <trkpt lat="42.94059229" lon="13.65808188">
        <ele>366.00000</ele>
        <time>2024-04-19T11:49:40Z</time>
      </trkpt>
      <trkpt lat="42.94050034" lon="13.65799102">
        <ele>365.00000</ele>
        <time>2024-04-19T11:49:41Z</time>
      </trkpt>
      <trkpt lat="42.94040738" lon="13.65790050">
        <ele>364.00000</ele>
        <time>2024-04-19T11:49:42Z</time>
      </trkpt>
      <trkpt lat="42.94031451" lon="13.65781056">
        <ele>363.00000</ele>
        <time>2024-04-19T11:49:43Z</time>
      </trkpt>
      <trkpt lat="42.94022021" lon="13.65772264">
        <ele>362.00000</ele>
        <time>2024-04-19T11:49:44Z</time>
      </trkpt>
      <trkpt lat="42.94012634" lon="13.65763664">
        <ele>361.00000</ele>
        <time>2024-04-19T11:49:45Z</time>
      </trkpt>
      <trkpt lat="42.94003590" lon="13.65754913">
        <ele>360.00000</ele>
        <time>2024-04-19T11:49:46Z</time>
      </trkpt>
      <trkpt lat="42.93994721" lon="13.65746146">
        <ele>359.00000</ele>
        <time>2024-04-19T11:49:47Z</time>
      </trkpt>
      <trkpt lat="42.93986314" lon="13.65737428">
        <ele>359.00000</ele>
        <time>2024-04-19T11:49:48Z</time>
      </trkpt>
      <trkpt lat="42.93977991" lon="13.65728912">
        <ele>359.00000</ele>
        <time>2024-04-19T11:49:49Z</time>
      </trkpt>
      <trkpt lat="42.93969710" lon="13.65720757">
        <ele>359.00000</ele>
        <time>2024-04-19T11:49:50Z</time>
      </trkpt>
      <trkpt lat="42.93961772" lon="13.65713054">
        <ele>359.00000</ele>
        <time>2024-04-19T11:49:51Z</time>
      </trkpt>
      <trkpt lat="42.93954019" lon="13.65705502">
        <ele>360.00000</ele>
        <time>2024-04-19T11:49:52Z</time>
      </trkpt>
      <trkpt lat="42.93946458" lon="13.65698226">
        <ele>361.00000</ele>
        <time>2024-04-19T11:49:53Z</time>
      </trkpt>
      <trkpt lat="42.93939175" lon="13.65691152">
        <ele>362.00000</ele>
        <time>2024-04-19T11:49:54Z</time>
      </trkpt>
      <trkpt lat="42.93931966" lon="13.65684187">
        <ele>363.00000</ele>
        <time>2024-04-19T11:49:55Z</time>
      </trkpt>
      <trkpt lat="42.93925143" lon="13.65677531">
        <ele>365.00000</ele>
        <time>2024-04-19T11:49:56Z</time>
      </trkpt>
      <trkpt lat="42.93918505" lon="13.65671270">
        <ele>366.00000</ele>
        <time>2024-04-19T11:49:57Z</time>
      </trkpt>
      <trkpt lat="42.93912126" lon="13.65665210">
        <ele>367.00000</ele>
        <time>2024-04-19T11:49:58Z</time>
      </trkpt>
      <trkpt lat="42.93906091" lon="13.65659334">
        <ele>367.00000</ele>
        <time>2024-04-19T11:49:59Z</time>
      </trkpt>
      <trkpt lat="42.93900215" lon="13.65653576">
        <ele>368.00000</ele>
        <time>2024-04-19T11:50:00Z</time>
      </trkpt>
      <trkpt lat="42.93894650" lon="13.65647968">
        <ele>369.00000</ele>
        <time>2024-04-19T11:50:01Z</time>
      </trkpt>
      <trkpt lat="42.93889269" lon="13.65642738">
        <ele>370.00000</ele>
        <time>2024-04-19T11:50:02Z</time>
      </trkpt>
      <trkpt lat="42.93883988" lon="13.65637734">
        <ele>370.00000</ele>
        <time>2024-04-19T11:50:03Z</time>
      </trkpt>
      <trkpt lat="42.93878758" lon="13.65632940">
        <ele>370.00000</ele>
        <time>2024-04-19T11:50:04Z</time>
      </trkpt>
      <trkpt lat="42.93873603" lon="13.65628313">
        <ele>371.00000</ele>
        <time>2024-04-19T11:50:05Z</time>
      </trkpt>
      <trkpt lat="42.93868616" lon="13.65624004">
        <ele>371.00000</ele>
        <time>2024-04-19T11:50:06Z</time>
      </trkpt>
      <trkpt lat="42.93863620" lon="13.65619738">
        <ele>372.00000</ele>
        <time>2024-04-19T11:50:07Z</time>
      </trkpt>
      <trkpt lat="42.93859052" lon="13.65615329">
        <ele>373.00000</ele>
        <time>2024-04-19T11:50:08Z</time>
      </trkpt>
      <trkpt lat="42.93854350" lon="13.65610870">
        <ele>373.00000</ele>
        <time>2024-04-19T11:50:09Z</time>
      </trkpt>
      <trkpt lat="42.93849539" lon="13.65606771">
        <ele>373.00000</ele>
        <time>2024-04-19T11:50:10Z</time>
      </trkpt>
      <trkpt lat="42.93844828" lon="13.65603041">
        <ele>373.00000</ele>
        <time>2024-04-19T11:50:11Z</time>
      </trkpt>
      <trkpt lat="42.93840335" lon="13.65598993">
        <ele>373.00000</ele>
        <time>2024-04-19T11:50:12Z</time>
      </trkpt>
      <trkpt lat="42.93836111" lon="13.65594358">
        <ele>374.00000</ele>
        <time>2024-04-19T11:50:13Z</time>
      </trkpt>
      <trkpt lat="42.93831844" lon="13.65589915">
        <ele>375.00000</ele>
        <time>2024-04-19T11:50:14Z</time>
      </trkpt>
      <trkpt lat="42.93827561" lon="13.65585833">
        <ele>375.00000</ele>
        <time>2024-04-19T11:50:15Z</time>
      </trkpt>
      <trkpt lat="42.93823228" lon="13.65581785">
        <ele>375.00000</ele>
        <time>2024-04-19T11:50:16Z</time>
      </trkpt>
      <trkpt lat="42.93818953" lon="13.65577787">
        <ele>374.00000</ele>
        <time>2024-04-19T11:50:17Z</time>
      </trkpt>
      <trkpt lat="42.93815206" lon="13.65573537">
        <ele>374.00000</ele>
        <time>2024-04-19T11:50:18Z</time>
      </trkpt>
      <trkpt lat="42.93812398" lon="13.65568919">
        <ele>375.00000</ele>
        <time>2024-04-19T11:50:19Z</time>
      </trkpt>
      <trkpt lat="42.93811510" lon="13.65563596">
        <ele>376.00000</ele>
        <time>2024-04-19T11:50:20Z</time>
      </trkpt>
      <trkpt lat="42.93812859" lon="13.65558575">
        <ele>377.00000</ele>
        <time>2024-04-19T11:50:21Z</time>
      </trkpt>
      <trkpt lat="42.93815910" lon="13.65554862">
        <ele>378.00000</ele>
        <time>2024-04-19T11:50:22Z</time>
      </trkpt>
      <trkpt lat="42.93819950" lon="13.65553814">
        <ele>379.00000</ele>
        <time>2024-04-19T11:50:23Z</time>
      </trkpt>
      <trkpt lat="42.93824368" lon="13.65554443">
        <ele>379.00000</ele>
        <time>2024-04-19T11:50:24Z</time>
      </trkpt>
      <trkpt lat="42.93828894" lon="13.65555281">
        <ele>380.00000</ele>
        <time>2024-04-19T11:50:25Z</time>
      </trkpt>
      <trkpt lat="42.93833571" lon="13.65556346">
        <ele>380.00000</ele>
        <time>2024-04-19T11:50:26Z</time>
      </trkpt>
      <trkpt lat="42.93838407" lon="13.65557528">
        <ele>380.00000</ele>
        <time>2024-04-19T11:50:27Z</time>
      </trkpt>
      <trkpt lat="42.93843084" lon="13.65558659">
        <ele>380.00000</ele>
        <time>2024-04-19T11:50:28Z</time>
      </trkpt>
      <trkpt lat="42.93847778" lon="13.65559740">
        <ele>380.00000</ele>
        <time>2024-04-19T11:50:29Z</time>
      </trkpt>
      <trkpt lat="42.93852690" lon="13.65559975">
        <ele>381.00000</ele>
        <time>2024-04-19T11:50:30Z</time>
      </trkpt>
      <trkpt lat="42.93857342" lon="13.65559883">
        <ele>381.00000</ele>
        <time>2024-04-19T11:50:31Z</time>
      </trkpt>
      <trkpt lat="42.93861608" lon="13.65559422">
        <ele>381.00000</ele>
        <time>2024-04-19T11:50:32Z</time>
      </trkpt>
      <trkpt lat="42.93865565" lon="13.65558165">
        <ele>381.00000</ele>
        <time>2024-04-19T11:50:33Z</time>
      </trkpt>
      <trkpt lat="42.93869471" lon="13.65555625">
        <ele>381.00000</ele>
        <time>2024-04-19T11:50:34Z</time>
      </trkpt>
      <trkpt lat="42.93873662" lon="13.65552716">
        <ele>381.00000</ele>
        <time>2024-04-19T11:50:35Z</time>
      </trkpt>
      <trkpt lat="42.93878054" lon="13.65549573">
        <ele>381.00000</ele>
        <time>2024-04-19T11:50:36Z</time>
      </trkpt>
      <trkpt lat="42.93882119" lon="13.65545625">
        <ele>382.00000</ele>
        <time>2024-04-19T11:50:37Z</time>
      </trkpt>
      <trkpt lat="42.93885866" lon="13.65540923">
        <ele>383.00000</ele>
        <time>2024-04-19T11:50:38Z</time>
      </trkpt>
      <trkpt lat="42.93888925" lon="13.65536036">
        <ele>384.00000</ele>
        <time>2024-04-19T11:50:39Z</time>
      </trkpt>
      <trkpt lat="42.93891984" lon="13.65531007">
        <ele>384.00000</ele>
        <time>2024-04-19T11:50:40Z</time>
      </trkpt>
      <trkpt lat="42.93894910" lon="13.65526012">
        <ele>384.00000</ele>
        <time>2024-04-19T11:50:41Z</time>
      </trkpt>
      <trkpt lat="42.93897760" lon="13.65520723">
        <ele>384.00000</ele>
        <time>2024-04-19T11:50:42Z</time>
      </trkpt>
      <trkpt lat="42.93900249" lon="13.65515316">
        <ele>384.00000</ele>
        <time>2024-04-19T11:50:43Z</time>
      </trkpt>
      <trkpt lat="42.93902604" lon="13.65510111">
        <ele>384.00000</ele>
        <time>2024-04-19T11:50:44Z</time>
      </trkpt>
      <trkpt lat="42.93904800" lon="13.65504789">
        <ele>385.00000</ele>
        <time>2024-04-19T11:50:45Z</time>
      </trkpt>
      <trkpt lat="42.93907038" lon="13.65499114">
        <ele>385.00000</ele>
        <time>2024-04-19T11:50:46Z</time>
      </trkpt>
      <trkpt lat="42.93909151" lon="13.65493247">
        <ele>385.00000</ele>
        <time>2024-04-19T11:50:47Z</time>
      </trkpt>
      <trkpt lat="42.93911531" lon="13.65487723">
        <ele>385.00000</ele>
        <time>2024-04-19T11:50:48Z</time>
      </trkpt>
      <trkpt lat="42.93913568" lon="13.65482141">
        <ele>386.00000</ele>
        <time>2024-04-19T11:50:49Z</time>
      </trkpt>
      <trkpt lat="42.93915512" lon="13.65477003">
        <ele>386.00000</ele>
        <time>2024-04-19T11:50:50Z</time>
      </trkpt>
      <trkpt lat="42.93917625" lon="13.65472124">
        <ele>386.00000</ele>
        <time>2024-04-19T11:50:51Z</time>
      </trkpt>
      <trkpt lat="42.93919997" lon="13.65467146">
        <ele>386.00000</ele>
        <time>2024-04-19T11:50:52Z</time>
      </trkpt>
      <trkpt lat="42.93922277" lon="13.65462209">
        <ele>386.00000</ele>
        <time>2024-04-19T11:50:53Z</time>
      </trkpt>
      <trkpt lat="42.93924439" lon="13.65456978">
        <ele>386.00000</ele>
        <time>2024-04-19T11:50:54Z</time>
      </trkpt>
      <trkpt lat="42.93926417" lon="13.65451664">
        <ele>386.00000</ele>
        <time>2024-04-19T11:50:55Z</time>
      </trkpt>
      <trkpt lat="42.93928261" lon="13.65445353">
        <ele>386.00000</ele>
        <time>2024-04-19T11:50:56Z</time>
      </trkpt>
      <trkpt lat="42.93929041" lon="13.65441019">
        <ele>386.00000</ele>
        <time>2024-04-19T11:50:57Z</time>
      </trkpt>
      <trkpt lat="42.93930105" lon="13.65434590">
        <ele>386.00000</ele>
        <time>2024-04-19T11:50:58Z</time>
      </trkpt>
      <trkpt lat="42.93930675" lon="13.65430139">
        <ele>386.00000</ele>
        <time>2024-04-19T11:50:59Z</time>
      </trkpt>
      <trkpt lat="42.93930826" lon="13.65424557">
        <ele>387.00000</ele>
        <time>2024-04-19T11:51:00Z</time>
      </trkpt>
      <trkpt lat="42.93930508" lon="13.65418992">
        <ele>387.00000</ele>
        <time>2024-04-19T11:51:01Z</time>
      </trkpt>
      <trkpt lat="42.93929913" lon="13.65413434">
        <ele>387.00000</ele>
        <time>2024-04-19T11:51:02Z</time>
      </trkpt>
      <trkpt lat="42.93929016" lon="13.65407777">
        <ele>387.00000</ele>
        <time>2024-04-19T11:51:03Z</time>
      </trkpt>
      <trkpt lat="42.93927758" lon="13.65402177">
        <ele>387.00000</ele>
        <time>2024-04-19T11:51:04Z</time>
      </trkpt>
      <trkpt lat="42.93926342" lon="13.65397064">
        <ele>387.00000</ele>
        <time>2024-04-19T11:51:05Z</time>
      </trkpt>
      <trkpt lat="42.93924791" lon="13.65391910">
        <ele>387.00000</ele>
        <time>2024-04-19T11:51:06Z</time>
      </trkpt>
      <trkpt lat="42.93922914" lon="13.65386713">
        <ele>387.00000</ele>
        <time>2024-04-19T11:51:07Z</time>
      </trkpt>
      <trkpt lat="42.93920751" lon="13.65381566">
        <ele>387.00000</ele>
        <time>2024-04-19T11:51:08Z</time>
      </trkpt>
      <trkpt lat="42.93918237" lon="13.65376923">
        <ele>387.00000</ele>
        <time>2024-04-19T11:51:09Z</time>
      </trkpt>
      <trkpt lat="42.93915211" lon="13.65372589">
        <ele>387.00000</ele>
        <time>2024-04-19T11:51:10Z</time>
      </trkpt>
      <trkpt lat="42.93911891" lon="13.65368910">
        <ele>387.00000</ele>
        <time>2024-04-19T11:51:11Z</time>
      </trkpt>
      <trkpt lat="42.93908237" lon="13.65366001">
        <ele>388.00000</ele>
        <time>2024-04-19T11:51:12Z</time>
      </trkpt>
      <trkpt lat="42.93904222" lon="13.65363621">
        <ele>388.00000</ele>
        <time>2024-04-19T11:51:13Z</time>
      </trkpt>
      <trkpt lat="42.93899914" lon="13.65361726">
        <ele>389.00000</ele>
        <time>2024-04-19T11:51:14Z</time>
      </trkpt>
      <trkpt lat="42.93895564" lon="13.65360704">
        <ele>389.00000</ele>
        <time>2024-04-19T11:51:15Z</time>
      </trkpt>
      <trkpt lat="42.93891079" lon="13.65360704">
        <ele>390.00000</ele>
        <time>2024-04-19T11:51:16Z</time>
      </trkpt>
      <trkpt lat="42.93885673" lon="13.65361785">
        <ele>391.00000</ele>
        <time>2024-04-19T11:51:17Z</time>
      </trkpt>
      <trkpt lat="42.93882085" lon="13.65363109">
        <ele>391.00000</ele>
        <time>2024-04-19T11:51:18Z</time>
      </trkpt>
      <trkpt lat="42.93877475" lon="13.65365029">
        <ele>392.00000</ele>
        <time>2024-04-19T11:51:19Z</time>
      </trkpt>
      <trkpt lat="42.93871843" lon="13.65367225">
        <ele>393.00000</ele>
        <time>2024-04-19T11:51:20Z</time>
      </trkpt>
      <trkpt lat="42.93867182" lon="13.65369253">
        <ele>394.00000</ele>
        <time>2024-04-19T11:51:21Z</time>
      </trkpt>
      <trkpt lat="42.93863561" lon="13.65371282">
        <ele>394.00000</ele>
        <time>2024-04-19T11:51:22Z</time>
      </trkpt>
      <trkpt lat="42.93859153" lon="13.65373905">
        <ele>395.00000</ele>
        <time>2024-04-19T11:51:23Z</time>
      </trkpt>
      <trkpt lat="42.93854719" lon="13.65376294">
        <ele>396.00000</ele>
        <time>2024-04-19T11:51:24Z</time>
      </trkpt>
      <trkpt lat="42.93850285" lon="13.65378490">
        <ele>397.00000</ele>
        <time>2024-04-19T11:51:25Z</time>
      </trkpt>
      <trkpt lat="42.93844878" lon="13.65380778">
        <ele>397.00000</ele>
        <time>2024-04-19T11:51:26Z</time>
      </trkpt>
      <trkpt lat="42.93841257" lon="13.65381960">
        <ele>398.00000</ele>
        <time>2024-04-19T11:51:27Z</time>
      </trkpt>
      <trkpt lat="42.93836697" lon="13.65382664">
        <ele>398.00000</ele>
        <time>2024-04-19T11:51:28Z</time>
      </trkpt>
      <trkpt lat="42.93831308" lon="13.65382036">
        <ele>399.00000</ele>
        <time>2024-04-19T11:51:29Z</time>
      </trkpt>
      <trkpt lat="42.93827167" lon="13.65379664">
        <ele>399.00000</ele>
        <time>2024-04-19T11:51:30Z</time>
      </trkpt>
      <trkpt lat="42.93824208" lon="13.65376856">
        <ele>399.00000</ele>
        <time>2024-04-19T11:51:31Z</time>
      </trkpt>
      <trkpt lat="42.93821032" lon="13.65372631">
        <ele>399.00000</ele>
        <time>2024-04-19T11:51:32Z</time>
      </trkpt>
      <trkpt lat="42.93817796" lon="13.65366714">
        <ele>400.00000</ele>
        <time>2024-04-19T11:51:33Z</time>
      </trkpt>
      <trkpt lat="42.93816137" lon="13.65362673">
        <ele>400.00000</ele>
        <time>2024-04-19T11:51:34Z</time>
      </trkpt>
      <trkpt lat="42.93814561" lon="13.65356555">
        <ele>400.00000</ele>
        <time>2024-04-19T11:51:35Z</time>
      </trkpt>
      <trkpt lat="42.93813949" lon="13.65352322">
        <ele>400.00000</ele>
        <time>2024-04-19T11:51:36Z</time>
      </trkpt>
      <trkpt lat="42.93813019" lon="13.65346756">
        <ele>401.00000</ele>
        <time>2024-04-19T11:51:37Z</time>
      </trkpt>
      <trkpt lat="42.93812222" lon="13.65341224">
        <ele>401.00000</ele>
        <time>2024-04-19T11:51:38Z</time>
      </trkpt>
      <trkpt lat="42.93811418" lon="13.65336011">
        <ele>401.00000</ele>
        <time>2024-04-19T11:51:39Z</time>
      </trkpt>
      <trkpt lat="42.93810613" lon="13.65331166">
        <ele>401.00000</ele>
        <time>2024-04-19T11:51:40Z</time>
      </trkpt>
      <trkpt lat="42.93809372" lon="13.65326330">
        <ele>401.00000</ele>
        <time>2024-04-19T11:51:41Z</time>
      </trkpt>
      <trkpt lat="42.93807931" lon="13.65321443">
        <ele>401.00000</ele>
        <time>2024-04-19T11:51:42Z</time>
      </trkpt>
      <trkpt lat="42.93805735" lon="13.65317135">
        <ele>402.00000</ele>
        <time>2024-04-19T11:51:43Z</time>
      </trkpt>
      <trkpt lat="42.93803220" lon="13.65312826">
        <ele>402.00000</ele>
        <time>2024-04-19T11:51:44Z</time>
      </trkpt>
      <trkpt lat="42.93800203" lon="13.65308325">
        <ele>403.00000</ele>
        <time>2024-04-19T11:51:45Z</time>
      </trkpt>
      <trkpt lat="42.93796841" lon="13.65304185">
        <ele>404.00000</ele>
        <time>2024-04-19T11:51:46Z</time>
      </trkpt>
      <trkpt lat="42.93793447" lon="13.65300186">
        <ele>404.00000</ele>
        <time>2024-04-19T11:51:47Z</time>
      </trkpt>
      <trkpt lat="42.93790304" lon="13.65296456">
        <ele>405.00000</ele>
        <time>2024-04-19T11:51:48Z</time>
      </trkpt>
      <trkpt lat="42.93787202" lon="13.65292861">
        <ele>405.00000</ele>
        <time>2024-04-19T11:51:49Z</time>
      </trkpt>
      <trkpt lat="42.93782936" lon="13.65288443">
        <ele>406.00000</ele>
        <time>2024-04-19T11:51:50Z</time>
      </trkpt>
      <trkpt lat="42.93779893" lon="13.65285644">
        <ele>407.00000</ele>
        <time>2024-04-19T11:51:51Z</time>
      </trkpt>
      <trkpt lat="42.93776624" lon="13.65282207">
        <ele>407.00000</ele>
        <time>2024-04-19T11:51:52Z</time>
      </trkpt>
      <trkpt lat="42.93773305" lon="13.65278343">
        <ele>408.00000</ele>
        <time>2024-04-19T11:51:53Z</time>
      </trkpt>
      <trkpt lat="42.93769760" lon="13.65274890">
        <ele>408.00000</ele>
        <time>2024-04-19T11:51:54Z</time>
      </trkpt>
      <trkpt lat="42.93766507" lon="13.65271579">
        <ele>408.00000</ele>
        <time>2024-04-19T11:51:55Z</time>
      </trkpt>
      <trkpt lat="42.93763389" lon="13.65268612">
        <ele>408.00000</ele>
        <time>2024-04-19T11:51:56Z</time>
      </trkpt>
      <trkpt lat="42.93759735" lon="13.65265569">
        <ele>408.00000</ele>
        <time>2024-04-19T11:51:57Z</time>
      </trkpt>
      <trkpt lat="42.93756390" lon="13.65262099">
        <ele>409.00000</ele>
        <time>2024-04-19T11:51:58Z</time>
      </trkpt>
      <trkpt lat="42.93753775" lon="13.65258922">
        <ele>409.00000</ele>
        <time>2024-04-19T11:51:59Z</time>
      </trkpt>
      <trkpt lat="42.93751495" lon="13.65256056">
        <ele>409.00000</ele>
        <time>2024-04-19T11:52:00Z</time>
      </trkpt>
      <trkpt lat="42.93748444" lon="13.65252410">
        <ele>409.00000</ele>
        <time>2024-04-19T11:52:01Z</time>
      </trkpt>
      <trkpt lat="42.93745544" lon="13.65247934">
        <ele>409.00000</ele>
        <time>2024-04-19T11:52:02Z</time>
      </trkpt>
      <trkpt lat="42.93742787" lon="13.65243248">
        <ele>409.00000</ele>
        <time>2024-04-19T11:52:03Z</time>
      </trkpt>
      <trkpt lat="42.93739920" lon="13.65238496">
        <ele>409.00000</ele>
        <time>2024-04-19T11:52:04Z</time>
      </trkpt>
      <trkpt lat="42.93737011" lon="13.65234129">
        <ele>409.00000</ele>
        <time>2024-04-19T11:52:05Z</time>
      </trkpt>
      <trkpt lat="42.93734748" lon="13.65229619">
        <ele>409.00000</ele>
        <time>2024-04-19T11:52:06Z</time>
      </trkpt>
      <trkpt lat="42.93732695" lon="13.65224758">
        <ele>409.00000</ele>
        <time>2024-04-19T11:52:07Z</time>
      </trkpt>
      <trkpt lat="42.93731069" lon="13.65220164">
        <ele>409.00000</ele>
        <time>2024-04-19T11:52:08Z</time>
      </trkpt>
      <trkpt lat="42.93728495" lon="13.65215546">
        <ele>408.00000</ele>
        <time>2024-04-19T11:52:09Z</time>
      </trkpt>
      <trkpt lat="42.93726501" lon="13.65211288">
        <ele>408.00000</ele>
        <time>2024-04-19T11:52:10Z</time>
      </trkpt>
      <trkpt lat="42.93724070" lon="13.65206644">
        <ele>408.00000</ele>
        <time>2024-04-19T11:52:11Z</time>
      </trkpt>
      <trkpt lat="42.93721748" lon="13.65201272">
        <ele>408.00000</ele>
        <time>2024-04-19T11:52:12Z</time>
      </trkpt>
      <trkpt lat="42.93719133" lon="13.65196066">
        <ele>408.00000</ele>
        <time>2024-04-19T11:52:13Z</time>
      </trkpt>
      <trkpt lat="42.93716166" lon="13.65191792">
        <ele>408.00000</ele>
        <time>2024-04-19T11:52:14Z</time>
      </trkpt>
      <trkpt lat="42.93713291" lon="13.65188447">
        <ele>409.00000</ele>
        <time>2024-04-19T11:52:15Z</time>
      </trkpt>
      <trkpt lat="42.93710994" lon="13.65184399">
        <ele>409.00000</ele>
        <time>2024-04-19T11:52:16Z</time>
      </trkpt>
      <trkpt lat="42.93708873" lon="13.65181013">
        <ele>409.00000</ele>
        <time>2024-04-19T11:52:17Z</time>
      </trkpt>
      <trkpt lat="42.93705110" lon="13.65177266">
        <ele>410.00000</ele>
        <time>2024-04-19T11:52:18Z</time>
      </trkpt>
      <trkpt lat="42.93701548" lon="13.65173997">
        <ele>411.00000</ele>
        <time>2024-04-19T11:52:19Z</time>
      </trkpt>
      <trkpt lat="42.93698421" lon="13.65170560">
        <ele>412.00000</ele>
        <time>2024-04-19T11:52:20Z</time>
      </trkpt>
      <trkpt lat="42.93694440" lon="13.65166579">
        <ele>413.00000</ele>
        <time>2024-04-19T11:52:21Z</time>
      </trkpt>
      <trkpt lat="42.93691037" lon="13.65163721">
        <ele>413.00000</ele>
        <time>2024-04-19T11:52:22Z</time>
      </trkpt>
      <trkpt lat="42.93688271" lon="13.65161441">
        <ele>414.00000</ele>
        <time>2024-04-19T11:52:23Z</time>
      </trkpt>
      <trkpt lat="42.93685019" lon="13.65158599">
        <ele>414.00000</ele>
        <time>2024-04-19T11:52:24Z</time>
      </trkpt>
      <trkpt lat="42.93680685" lon="13.65154610">
        <ele>415.00000</ele>
        <time>2024-04-19T11:52:25Z</time>
      </trkpt>
      <trkpt lat="42.93678271" lon="13.65151701">
        <ele>415.00000</ele>
        <time>2024-04-19T11:52:26Z</time>
      </trkpt>
      <trkpt lat="42.93674390" lon="13.65146504">
        <ele>415.00000</ele>
        <time>2024-04-19T11:52:27Z</time>
      </trkpt>
      <trkpt lat="42.93671214" lon="13.65142196">
        <ele>416.00000</ele>
        <time>2024-04-19T11:52:28Z</time>
      </trkpt>
      <trkpt lat="42.93668573" lon="13.65138541">
        <ele>416.00000</ele>
        <time>2024-04-19T11:52:29Z</time>
      </trkpt>
      <trkpt lat="42.93665036" lon="13.65132993">
        <ele>416.00000</ele>
        <time>2024-04-19T11:52:30Z</time>
      </trkpt>
      <trkpt lat="42.93662287" lon="13.65128391">
        <ele>417.00000</ele>
        <time>2024-04-19T11:52:31Z</time>
      </trkpt>
      <trkpt lat="42.93659957" lon="13.65123781">
        <ele>417.00000</ele>
        <time>2024-04-19T11:52:32Z</time>
      </trkpt>
      <trkpt lat="42.93657844" lon="13.65118844">
        <ele>417.00000</ele>
        <time>2024-04-19T11:52:33Z</time>
      </trkpt>
      <trkpt lat="42.93656294" lon="13.65115164">
        <ele>417.00000</ele>
        <time>2024-04-19T11:52:34Z</time>
      </trkpt>
      <trkpt lat="42.93653855" lon="13.65109632">
        <ele>417.00000</ele>
        <time>2024-04-19T11:52:35Z</time>
      </trkpt>
      <trkpt lat="42.93652019" lon="13.65104838">
        <ele>417.00000</ele>
        <time>2024-04-19T11:52:36Z</time>
      </trkpt>
      <trkpt lat="42.93650485" lon="13.65101183">
        <ele>417.00000</ele>
        <time>2024-04-19T11:52:37Z</time>
      </trkpt>
      <trkpt lat="42.93648482" lon="13.65096489">
        <ele>418.00000</ele>
        <time>2024-04-19T11:52:38Z</time>
      </trkpt>
      <trkpt lat="42.93646428" lon="13.65091787">
        <ele>418.00000</ele>
        <time>2024-04-19T11:52:39Z</time>
      </trkpt>
      <trkpt lat="42.93643997" lon="13.65086113">
        <ele>419.00000</ele>
        <time>2024-04-19T11:52:40Z</time>
      </trkpt>
      <trkpt lat="42.93642028" lon="13.65081595">
        <ele>419.00000</ele>
        <time>2024-04-19T11:52:41Z</time>
      </trkpt>
      <trkpt lat="42.93640242" lon="13.65076884">
        <ele>419.00000</ele>
        <time>2024-04-19T11:52:42Z</time>
      </trkpt>
      <trkpt lat="42.93638960" lon="13.65073163">
        <ele>419.00000</ele>
        <time>2024-04-19T11:52:43Z</time>
      </trkpt>
      <trkpt lat="42.93637133" lon="13.65068410">
        <ele>419.00000</ele>
        <time>2024-04-19T11:52:44Z</time>
      </trkpt>
      <trkpt lat="42.93635222" lon="13.65063884">
        <ele>419.00000</ele>
        <time>2024-04-19T11:52:45Z</time>
      </trkpt>
      <trkpt lat="42.93633009" lon="13.65058662">
        <ele>419.00000</ele>
        <time>2024-04-19T11:52:46Z</time>
      </trkpt>
      <trkpt lat="42.93631492" lon="13.65055334">
        <ele>419.00000</ele>
        <time>2024-04-19T11:52:47Z</time>
      </trkpt>
      <trkpt lat="42.93629463" lon="13.65051194">
        <ele>419.00000</ele>
        <time>2024-04-19T11:52:48Z</time>
      </trkpt>
      <trkpt lat="42.93627074" lon="13.65046173">
        <ele>419.00000</ele>
        <time>2024-04-19T11:52:49Z</time>
      </trkpt>
      <trkpt lat="42.93625406" lon="13.65041940">
        <ele>419.00000</ele>
        <time>2024-04-19T11:52:50Z</time>
      </trkpt>
      <trkpt lat="42.93623780" lon="13.65038663">
        <ele>420.00000</ele>
        <time>2024-04-19T11:52:51Z</time>
      </trkpt>
      <trkpt lat="42.93621785" lon="13.65034648">
        <ele>420.00000</ele>
        <time>2024-04-19T11:52:52Z</time>
      </trkpt>
      <trkpt lat="42.93619774" lon="13.65030608">
        <ele>420.00000</ele>
        <time>2024-04-19T11:52:53Z</time>
      </trkpt>
      <trkpt lat="42.93617276" lon="13.65025604">
        <ele>421.00000</ele>
        <time>2024-04-19T11:52:54Z</time>
      </trkpt>
      <trkpt lat="42.93615264" lon="13.65021463">
        <ele>421.00000</ele>
        <time>2024-04-19T11:52:55Z</time>
      </trkpt>
      <trkpt lat="42.93613412" lon="13.65017373">
        <ele>422.00000</ele>
        <time>2024-04-19T11:52:56Z</time>
      </trkpt>
      <trkpt lat="42.93611995" lon="13.65014146">
        <ele>422.00000</ele>
        <time>2024-04-19T11:52:57Z</time>
      </trkpt>
      <trkpt lat="42.93609933" lon="13.65010357">
        <ele>422.00000</ele>
        <time>2024-04-19T11:52:58Z</time>
      </trkpt>
      <trkpt lat="42.93607478" lon="13.65005822">
        <ele>422.00000</ele>
        <time>2024-04-19T11:52:59Z</time>
      </trkpt>
      <trkpt lat="42.93605675" lon="13.65001791">
        <ele>422.00000</ele>
        <time>2024-04-19T11:53:00Z</time>
      </trkpt>
      <trkpt lat="42.93604041" lon="13.64998631">
        <ele>423.00000</ele>
        <time>2024-04-19T11:53:01Z</time>
      </trkpt>
      <trkpt lat="42.93601929" lon="13.64994691">
        <ele>423.00000</ele>
        <time>2024-04-19T11:53:02Z</time>
      </trkpt>
      <trkpt lat="42.93599439" lon="13.64990048">
        <ele>423.00000</ele>
        <time>2024-04-19T11:53:03Z</time>
      </trkpt>
      <trkpt lat="42.93597159" lon="13.64986242">
        <ele>424.00000</ele>
        <time>2024-04-19T11:53:04Z</time>
      </trkpt>
      <trkpt lat="42.93594737" lon="13.64982445">
        <ele>424.00000</ele>
        <time>2024-04-19T11:53:05Z</time>
      </trkpt>
      <trkpt lat="42.93592818" lon="13.64979537">
        <ele>424.00000</ele>
        <time>2024-04-19T11:53:06Z</time>
      </trkpt>
      <trkpt lat="42.93590479" lon="13.64975958">
        <ele>425.00000</ele>
        <time>2024-04-19T11:53:07Z</time>
      </trkpt>
      <trkpt lat="42.93588124" lon="13.64972152">
        <ele>425.00000</ele>
        <time>2024-04-19T11:53:08Z</time>
      </trkpt>
      <trkpt lat="42.93585576" lon="13.64968422">
        <ele>425.00000</ele>
        <time>2024-04-19T11:53:09Z</time>
      </trkpt>
      <trkpt lat="42.93582810" lon="13.64964877">
        <ele>426.00000</ele>
        <time>2024-04-19T11:53:10Z</time>
      </trkpt>
      <trkpt lat="42.93580094" lon="13.64961457">
        <ele>426.00000</ele>
        <time>2024-04-19T11:53:11Z</time>
      </trkpt>
      <trkpt lat="42.93577437" lon="13.64957970">
        <ele>427.00000</ele>
        <time>2024-04-19T11:53:12Z</time>
      </trkpt>
      <trkpt lat="42.93574612" lon="13.64954710">
        <ele>427.00000</ele>
        <time>2024-04-19T11:53:13Z</time>
      </trkpt>
      <trkpt lat="42.93570882" lon="13.64951256">
        <ele>428.00000</ele>
        <time>2024-04-19T11:53:14Z</time>
      </trkpt>
      <trkpt lat="42.93567940" lon="13.64948624">
        <ele>428.00000</ele>
        <time>2024-04-19T11:53:15Z</time>
      </trkpt>
      <trkpt lat="42.93565484" lon="13.64946680">
        <ele>429.00000</ele>
        <time>2024-04-19T11:53:16Z</time>
      </trkpt>
      <trkpt lat="42.93561620" lon="13.64943830">
        <ele>429.00000</ele>
        <time>2024-04-19T11:53:17Z</time>
      </trkpt>
      <trkpt lat="42.93559013" lon="13.64941558">
        <ele>429.00000</ele>
        <time>2024-04-19T11:53:18Z</time>
      </trkpt>
      <trkpt lat="42.93555024" lon="13.64938164">
        <ele>430.00000</ele>
        <time>2024-04-19T11:53:19Z</time>
      </trkpt>
      <trkpt lat="42.93552475" lon="13.64936118">
        <ele>430.00000</ele>
        <time>2024-04-19T11:53:20Z</time>
      </trkpt>
      <trkpt lat="42.93549232" lon="13.64933419">
        <ele>430.00000</ele>
        <time>2024-04-19T11:53:21Z</time>
      </trkpt>
      <trkpt lat="42.93546047" lon="13.64930561">
        <ele>430.00000</ele>
        <time>2024-04-19T11:53:22Z</time>
      </trkpt>
      <trkpt lat="42.93542769" lon="13.64927913">
        <ele>431.00000</ele>
        <time>2024-04-19T11:53:23Z</time>
      </trkpt>
      <trkpt lat="42.93539542" lon="13.64925440">
        <ele>431.00000</ele>
        <time>2024-04-19T11:53:24Z</time>
      </trkpt>
      <trkpt lat="42.93536022" lon="13.64922992">
        <ele>431.00000</ele>
        <time>2024-04-19T11:53:25Z</time>
      </trkpt>
      <trkpt lat="42.93532585" lon="13.64920562">
        <ele>432.00000</ele>
        <time>2024-04-19T11:53:26Z</time>
      </trkpt>
      <trkpt lat="42.93529274" lon="13.64918131">
        <ele>432.00000</ele>
        <time>2024-04-19T11:53:27Z</time>
      </trkpt>
      <trkpt lat="42.93526064" lon="13.64915801">
        <ele>433.00000</ele>
        <time>2024-04-19T11:53:28Z</time>
      </trkpt>
      <trkpt lat="42.93522913" lon="13.64913705">
        <ele>433.00000</ele>
        <time>2024-04-19T11:53:29Z</time>
      </trkpt>
      <trkpt lat="42.93519711" lon="13.64911476">
        <ele>433.00000</ele>
        <time>2024-04-19T11:53:30Z</time>
      </trkpt>
      <trkpt lat="42.93516458" lon="13.64909246">
        <ele>433.00000</ele>
        <time>2024-04-19T11:53:31Z</time>
      </trkpt>
      <trkpt lat="42.93513164" lon="13.64906740">
        <ele>434.00000</ele>
        <time>2024-04-19T11:53:32Z</time>
      </trkpt>
      <trkpt lat="42.93509954" lon="13.64904167">
        <ele>434.00000</ele>
        <time>2024-04-19T11:53:33Z</time>
      </trkpt>
      <trkpt lat="42.93506719" lon="13.64901585">
        <ele>434.00000</ele>
        <time>2024-04-19T11:53:34Z</time>
      </trkpt>
      <trkpt lat="42.93503408" lon="13.64899104">
        <ele>435.00000</ele>
        <time>2024-04-19T11:53:35Z</time>
      </trkpt>
      <trkpt lat="42.93500089" lon="13.64896757">
        <ele>435.00000</ele>
        <time>2024-04-19T11:53:36Z</time>
      </trkpt>
      <trkpt lat="42.93496778" lon="13.64894544">
        <ele>435.00000</ele>
        <time>2024-04-19T11:53:37Z</time>
      </trkpt>
      <trkpt lat="42.93493484" lon="13.64892248">
        <ele>436.00000</ele>
        <time>2024-04-19T11:53:38Z</time>
      </trkpt>
      <trkpt lat="42.93490273" lon="13.64889808">
        <ele>436.00000</ele>
        <time>2024-04-19T11:53:39Z</time>
      </trkpt>
      <trkpt lat="42.93486937" lon="13.64887260">
        <ele>436.00000</ele>
        <time>2024-04-19T11:53:40Z</time>
      </trkpt>
      <trkpt lat="42.93483585" lon="13.64884754">
        <ele>437.00000</ele>
        <time>2024-04-19T11:53:41Z</time>
      </trkpt>
      <trkpt lat="42.93480299" lon="13.64882424">
        <ele>437.00000</ele>
        <time>2024-04-19T11:53:42Z</time>
      </trkpt>
      <trkpt lat="42.93477131" lon="13.64880010">
        <ele>437.00000</ele>
        <time>2024-04-19T11:53:43Z</time>
      </trkpt>
      <trkpt lat="42.93473845" lon="13.64877613">
        <ele>438.00000</ele>
        <time>2024-04-19T11:53:44Z</time>
      </trkpt>
      <trkpt lat="42.93470392" lon="13.64875375">
        <ele>438.00000</ele>
        <time>2024-04-19T11:53:45Z</time>
      </trkpt>
      <trkpt lat="42.93467081" lon="13.64873279">
        <ele>439.00000</ele>
        <time>2024-04-19T11:53:46Z</time>
      </trkpt>
      <trkpt lat="42.93463854" lon="13.64871343">
        <ele>439.00000</ele>
        <time>2024-04-19T11:53:47Z</time>
      </trkpt>
      <trkpt lat="42.93460677" lon="13.64869214">
        <ele>439.00000</ele>
        <time>2024-04-19T11:53:48Z</time>
      </trkpt>
      <trkpt lat="42.93457509" lon="13.64866616">
        <ele>440.00000</ele>
        <time>2024-04-19T11:53:49Z</time>
      </trkpt>
      <trkpt lat="42.93454256" lon="13.64864177">
        <ele>440.00000</ele>
        <time>2024-04-19T11:53:50Z</time>
      </trkpt>
      <trkpt lat="42.93450887" lon="13.64861872">
        <ele>441.00000</ele>
        <time>2024-04-19T11:53:51Z</time>
      </trkpt>
      <trkpt lat="42.93447677" lon="13.64859466">
        <ele>441.00000</ele>
        <time>2024-04-19T11:53:52Z</time>
      </trkpt>
      <trkpt lat="42.93444491" lon="13.64857035">
        <ele>441.00000</ele>
        <time>2024-04-19T11:53:53Z</time>
      </trkpt>
      <trkpt lat="42.93441248" lon="13.64854638">
        <ele>442.00000</ele>
        <time>2024-04-19T11:53:54Z</time>
      </trkpt>
      <trkpt lat="42.93437912" lon="13.64852501">
        <ele>442.00000</ele>
        <time>2024-04-19T11:53:55Z</time>
      </trkpt>
      <trkpt lat="42.93434634" lon="13.64850028">
        <ele>442.00000</ele>
        <time>2024-04-19T11:53:56Z</time>
      </trkpt>
      <trkpt lat="42.93431382" lon="13.64847564">
        <ele>443.00000</ele>
        <time>2024-04-19T11:53:57Z</time>
      </trkpt>
      <trkpt lat="42.93428180" lon="13.64844982">
        <ele>443.00000</ele>
        <time>2024-04-19T11:53:58Z</time>
      </trkpt>
      <trkpt lat="42.93425054" lon="13.64842141">
        <ele>444.00000</ele>
        <time>2024-04-19T11:53:59Z</time>
      </trkpt>
      <trkpt lat="42.93421894" lon="13.64839307">
        <ele>444.00000</ele>
        <time>2024-04-19T11:54:00Z</time>
      </trkpt>
      <trkpt lat="42.93418759" lon="13.64836441">
        <ele>445.00000</ele>
        <time>2024-04-19T11:54:01Z</time>
      </trkpt>
      <trkpt lat="42.93415825" lon="13.64833415">
        <ele>446.00000</ele>
        <time>2024-04-19T11:54:02Z</time>
      </trkpt>
      <trkpt lat="42.93412967" lon="13.64830020">
        <ele>446.00000</ele>
        <time>2024-04-19T11:54:03Z</time>
      </trkpt>
      <trkpt lat="42.93410092" lon="13.64826550">
        <ele>446.00000</ele>
        <time>2024-04-19T11:54:04Z</time>
      </trkpt>
      <trkpt lat="42.93407301" lon="13.64823047">
        <ele>447.00000</ele>
        <time>2024-04-19T11:54:05Z</time>
      </trkpt>
      <trkpt lat="42.93404552" lon="13.64819451">
        <ele>447.00000</ele>
        <time>2024-04-19T11:54:06Z</time>
      </trkpt>
      <trkpt lat="42.93401928" lon="13.64815805">
        <ele>448.00000</ele>
        <time>2024-04-19T11:54:07Z</time>
      </trkpt>
      <trkpt lat="42.93399531" lon="13.64811924">
        <ele>448.00000</ele>
        <time>2024-04-19T11:54:08Z</time>
      </trkpt>
      <trkpt lat="42.93397033" lon="13.64807850">
        <ele>449.00000</ele>
        <time>2024-04-19T11:54:09Z</time>
      </trkpt>
      <trkpt lat="42.93394720" lon="13.64803668">
        <ele>449.00000</ele>
        <time>2024-04-19T11:54:10Z</time>
      </trkpt>
      <trkpt lat="42.93392574" lon="13.64799460">
        <ele>450.00000</ele>
        <time>2024-04-19T11:54:11Z</time>
      </trkpt>
      <trkpt lat="42.93390696" lon="13.64795143">
        <ele>451.00000</ele>
        <time>2024-04-19T11:54:12Z</time>
      </trkpt>
      <trkpt lat="42.93388760" lon="13.64790759">
        <ele>451.00000</ele>
        <time>2024-04-19T11:54:13Z</time>
      </trkpt>
      <trkpt lat="42.93386874" lon="13.64786393">
        <ele>451.00000</ele>
        <time>2024-04-19T11:54:14Z</time>
      </trkpt>
      <trkpt lat="42.93384863" lon="13.64781782">
        <ele>451.00000</ele>
        <time>2024-04-19T11:54:15Z</time>
      </trkpt>
      <trkpt lat="42.93383010" lon="13.64777013">
        <ele>451.00000</ele>
        <time>2024-04-19T11:54:16Z</time>
      </trkpt>
      <trkpt lat="42.93381367" lon="13.64772101">
        <ele>451.00000</ele>
        <time>2024-04-19T11:54:17Z</time>
      </trkpt>
      <trkpt lat="42.93379741" lon="13.64767081">
        <ele>450.00000</ele>
        <time>2024-04-19T11:54:18Z</time>
      </trkpt>
      <trkpt lat="42.93378132" lon="13.64762202">
        <ele>450.00000</ele>
        <time>2024-04-19T11:54:19Z</time>
      </trkpt>
      <trkpt lat="42.93376464" lon="13.64757098">
        <ele>450.00000</ele>
        <time>2024-04-19T11:54:20Z</time>
      </trkpt>
      <trkpt lat="42.93374938" lon="13.64751985">
        <ele>450.00000</ele>
        <time>2024-04-19T11:54:21Z</time>
      </trkpt>
      <trkpt lat="42.93373421" lon="13.64746872">
        <ele>450.00000</ele>
        <time>2024-04-19T11:54:22Z</time>
      </trkpt>
      <trkpt lat="42.93371921" lon="13.64741675">
        <ele>450.00000</ele>
        <time>2024-04-19T11:54:23Z</time>
      </trkpt>
      <trkpt lat="42.93370680" lon="13.64736948">
        <ele>449.00000</ele>
        <time>2024-04-19T11:54:24Z</time>
      </trkpt>
      <trkpt lat="42.93369616" lon="13.64732019">
        <ele>449.00000</ele>
        <time>2024-04-19T11:54:25Z</time>
      </trkpt>
      <trkpt lat="42.93368526" lon="13.64726831">
        <ele>449.00000</ele>
        <time>2024-04-19T11:54:26Z</time>
      </trkpt>
      <trkpt lat="42.93367168" lon="13.64721584">
        <ele>449.00000</ele>
        <time>2024-04-19T11:54:27Z</time>
      </trkpt>
      <trkpt lat="42.93365802" lon="13.64716370">
        <ele>449.00000</ele>
        <time>2024-04-19T11:54:28Z</time>
      </trkpt>
      <trkpt lat="42.93364427" lon="13.64710997">
        <ele>450.00000</ele>
        <time>2024-04-19T11:54:29Z</time>
      </trkpt>
      <trkpt lat="42.93363003" lon="13.64705532">
        <ele>450.00000</ele>
        <time>2024-04-19T11:54:30Z</time>
      </trkpt>
      <trkpt lat="42.93361678" lon="13.64700151">
        <ele>451.00000</ele>
        <time>2024-04-19T11:54:31Z</time>
      </trkpt>
      <trkpt lat="42.93360312" lon="13.64694636">
        <ele>451.00000</ele>
        <time>2024-04-19T11:54:32Z</time>
      </trkpt>
      <trkpt lat="42.93358870" lon="13.64689112">
        <ele>451.00000</ele>
        <time>2024-04-19T11:54:33Z</time>
      </trkpt>
      <trkpt lat="42.93357496" lon="13.64683656">
        <ele>451.00000</ele>
        <time>2024-04-19T11:54:34Z</time>
      </trkpt>
      <trkpt lat="42.93356146" lon="13.64678333">
        <ele>451.00000</ele>
        <time>2024-04-19T11:54:35Z</time>
      </trkpt>
      <trkpt lat="42.93354822" lon="13.64673027">
        <ele>451.00000</ele>
        <time>2024-04-19T11:54:36Z</time>
      </trkpt>
      <trkpt lat="42.93353682" lon="13.64667638">
        <ele>451.00000</ele>
        <time>2024-04-19T11:54:37Z</time>
      </trkpt>
      <trkpt lat="42.93352559" lon="13.64662625">
        <ele>452.00000</ele>
        <time>2024-04-19T11:54:38Z</time>
      </trkpt>
      <trkpt lat="42.93351436" lon="13.64657470">
        <ele>452.00000</ele>
        <time>2024-04-19T11:54:39Z</time>
      </trkpt>
      <trkpt lat="42.93350212" lon="13.64652181">
        <ele>452.00000</ele>
        <time>2024-04-19T11:54:40Z</time>
      </trkpt>
      <trkpt lat="42.93348887" lon="13.64646993">
        <ele>453.00000</ele>
        <time>2024-04-19T11:54:41Z</time>
      </trkpt>
      <trkpt lat="42.93347597" lon="13.64641771">
        <ele>453.00000</ele>
        <time>2024-04-19T11:54:42Z</time>
      </trkpt>
      <trkpt lat="42.93346054" lon="13.64635426">
        <ele>453.00000</ele>
        <time>2024-04-19T11:54:43Z</time>
      </trkpt>
      <trkpt lat="42.93344864" lon="13.64631394">
        <ele>454.00000</ele>
        <time>2024-04-19T11:54:44Z</time>
      </trkpt>
      <trkpt lat="42.93343330" lon="13.64626390">
        <ele>454.00000</ele>
        <time>2024-04-19T11:54:45Z</time>
      </trkpt>
      <trkpt lat="42.93342065" lon="13.64621462">
        <ele>454.00000</ele>
        <time>2024-04-19T11:54:46Z</time>
      </trkpt>
      <trkpt lat="42.93340799" lon="13.64616609">
        <ele>455.00000</ele>
        <time>2024-04-19T11:54:47Z</time>
      </trkpt>
      <trkpt lat="42.93339609" lon="13.64611756">
        <ele>456.00000</ele>
        <time>2024-04-19T11:54:48Z</time>
      </trkpt>
      <trkpt lat="42.93338569" lon="13.64606726">
        <ele>456.00000</ele>
        <time>2024-04-19T11:54:49Z</time>
      </trkpt>
      <trkpt lat="42.93337094" lon="13.64601739">
        <ele>456.00000</ele>
        <time>2024-04-19T11:54:50Z</time>
      </trkpt>
      <trkpt lat="42.93335376" lon="13.64596827">
        <ele>456.00000</ele>
        <time>2024-04-19T11:54:51Z</time>
      </trkpt>
      <trkpt lat="42.93333565" lon="13.64591714">
        <ele>456.00000</ele>
        <time>2024-04-19T11:54:52Z</time>
      </trkpt>
      <trkpt lat="42.93331621" lon="13.64586442">
        <ele>457.00000</ele>
        <time>2024-04-19T11:54:53Z</time>
      </trkpt>
      <trkpt lat="42.93329559" lon="13.64581380">
        <ele>457.00000</ele>
        <time>2024-04-19T11:54:54Z</time>
      </trkpt>
      <trkpt lat="42.93327145" lon="13.64576585">
        <ele>457.00000</ele>
        <time>2024-04-19T11:54:55Z</time>
      </trkpt>
      <trkpt lat="42.93324672" lon="13.64571556">
        <ele>458.00000</ele>
        <time>2024-04-19T11:54:56Z</time>
      </trkpt>
      <trkpt lat="42.93321990" lon="13.64566611">
        <ele>459.00000</ele>
        <time>2024-04-19T11:54:57Z</time>
      </trkpt>
      <trkpt lat="42.93319450" lon="13.64561975">
        <ele>459.00000</ele>
        <time>2024-04-19T11:54:58Z</time>
      </trkpt>
      <trkpt lat="42.93316843" lon="13.64557466">
        <ele>460.00000</ele>
        <time>2024-04-19T11:54:59Z</time>
      </trkpt>
      <trkpt lat="42.93314337" lon="13.64552873">
        <ele>461.00000</ele>
        <time>2024-04-19T11:55:00Z</time>
      </trkpt>
      <trkpt lat="42.93311915" lon="13.64548305">
        <ele>462.00000</ele>
        <time>2024-04-19T11:55:01Z</time>
      </trkpt>
      <trkpt lat="42.93309233" lon="13.64543636">
        <ele>463.00000</ele>
        <time>2024-04-19T11:55:02Z</time>
      </trkpt>
      <trkpt lat="42.93306467" lon="13.64538741">
        <ele>464.00000</ele>
        <time>2024-04-19T11:55:03Z</time>
      </trkpt>
      <trkpt lat="42.93303617" lon="13.64534248">
        <ele>465.00000</ele>
        <time>2024-04-19T11:55:04Z</time>
      </trkpt>
      <trkpt lat="42.93300557" lon="13.64529697">
        <ele>466.00000</ele>
        <time>2024-04-19T11:55:05Z</time>
      </trkpt>
      <trkpt lat="42.93297355" lon="13.64524986">
        <ele>467.00000</ele>
        <time>2024-04-19T11:55:06Z</time>
      </trkpt>
      <trkpt lat="42.93294330" lon="13.64520116">
        <ele>468.00000</ele>
        <time>2024-04-19T11:55:07Z</time>
      </trkpt>
      <trkpt lat="42.93291295" lon="13.64515028">
        <ele>469.00000</ele>
        <time>2024-04-19T11:55:08Z</time>
      </trkpt>
      <trkpt lat="42.93287901" lon="13.64510259">
        <ele>470.00000</ele>
        <time>2024-04-19T11:55:09Z</time>
      </trkpt>
      <trkpt lat="42.93284255" lon="13.64505657">
        <ele>471.00000</ele>
        <time>2024-04-19T11:55:10Z</time>
      </trkpt>
      <trkpt lat="42.93280491" lon="13.64500846">
        <ele>472.00000</ele>
        <time>2024-04-19T11:55:11Z</time>
      </trkpt>
      <trkpt lat="42.93276602" lon="13.64496328">
        <ele>473.00000</ele>
        <time>2024-04-19T11:55:12Z</time>
      </trkpt>
      <trkpt lat="42.93272587" lon="13.64492079">
        <ele>474.00000</ele>
        <time>2024-04-19T11:55:13Z</time>
      </trkpt>
      <trkpt lat="42.93268362" lon="13.64488055">
        <ele>475.00000</ele>
        <time>2024-04-19T11:55:14Z</time>
      </trkpt>
      <trkpt lat="42.93263861" lon="13.64484443">
        <ele>476.00000</ele>
        <time>2024-04-19T11:55:15Z</time>
      </trkpt>
      <trkpt lat="42.93258992" lon="13.64481350">
        <ele>477.00000</ele>
        <time>2024-04-19T11:55:16Z</time>
      </trkpt>
      <trkpt lat="42.93253920" lon="13.64478458">
        <ele>478.00000</ele>
        <time>2024-04-19T11:55:17Z</time>
      </trkpt>
      <trkpt lat="42.93248724" lon="13.64475776">
        <ele>479.00000</ele>
        <time>2024-04-19T11:55:18Z</time>
      </trkpt>
      <trkpt lat="42.93243158" lon="13.64473295">
        <ele>479.00000</ele>
        <time>2024-04-19T11:55:19Z</time>
      </trkpt>
      <trkpt lat="42.93237433" lon="13.64471065">
        <ele>480.00000</ele>
        <time>2024-04-19T11:55:20Z</time>
      </trkpt>
      <trkpt lat="42.93231599" lon="13.64468752">
        <ele>480.00000</ele>
        <time>2024-04-19T11:55:21Z</time>
      </trkpt>
      <trkpt lat="42.93225749" lon="13.64466128">
        <ele>480.00000</ele>
        <time>2024-04-19T11:55:22Z</time>
      </trkpt>
      <trkpt lat="42.93219722" lon="13.64463119">
        <ele>480.00000</ele>
        <time>2024-04-19T11:55:23Z</time>
      </trkpt>
      <trkpt lat="42.93212061" lon="13.64459037">
        <ele>479.00000</ele>
        <time>2024-04-19T11:55:24Z</time>
      </trkpt>
      <trkpt lat="42.93205331" lon="13.64454737">
        <ele>478.00000</ele>
        <time>2024-04-19T11:55:25Z</time>
      </trkpt>
      <trkpt lat="42.93198793" lon="13.64448828">
        <ele>477.00000</ele>
        <time>2024-04-19T11:55:26Z</time>
      </trkpt>
      <trkpt lat="42.93193881" lon="13.64443195">
        <ele>476.00000</ele>
        <time>2024-04-19T11:55:27Z</time>
      </trkpt>
      <trkpt lat="42.93188625" lon="13.64435157">
        <ele>476.00000</ele>
        <time>2024-04-19T11:55:28Z</time>
      </trkpt>
      <trkpt lat="42.93183512" lon="13.64424345">
        <ele>475.00000</ele>
        <time>2024-04-19T11:55:29Z</time>
      </trkpt>
      <trkpt lat="42.93179959" lon="13.64414236">
        <ele>475.00000</ele>
        <time>2024-04-19T11:55:30Z</time>
      </trkpt>
      <trkpt lat="42.93177268" lon="13.64403373">
        <ele>475.00000</ele>
        <time>2024-04-19T11:55:31Z</time>
      </trkpt>
      <trkpt lat="42.93176002" lon="13.64394254">
        <ele>475.00000</ele>
        <time>2024-04-19T11:55:32Z</time>
      </trkpt>
      <trkpt lat="42.93175457" lon="13.64382921">
        <ele>475.00000</ele>
        <time>2024-04-19T11:55:33Z</time>
      </trkpt>
      <trkpt lat="42.93175650" lon="13.64370927">
        <ele>476.00000</ele>
        <time>2024-04-19T11:55:34Z</time>
      </trkpt>
      <trkpt lat="42.93176572" lon="13.64358681">
        <ele>477.00000</ele>
        <time>2024-04-19T11:55:35Z</time>
      </trkpt>
      <trkpt lat="42.93177888" lon="13.64343551">
        <ele>477.00000</ele>
        <time>2024-04-19T11:55:36Z</time>
      </trkpt>
      <trkpt lat="42.93179221" lon="13.64333309">
        <ele>478.00000</ele>
        <time>2024-04-19T11:55:37Z</time>
      </trkpt>
      <trkpt lat="42.93181710" lon="13.64320577">
        <ele>479.00000</ele>
        <time>2024-04-19T11:55:38Z</time>
      </trkpt>
      <trkpt lat="42.93184275" lon="13.64307828">
        <ele>480.00000</ele>
        <time>2024-04-19T11:55:39Z</time>
      </trkpt>
      <trkpt lat="42.93186371" lon="13.64294886">
        <ele>480.00000</ele>
        <time>2024-04-19T11:55:40Z</time>
      </trkpt>
      <trkpt lat="42.93188114" lon="13.64281944">
        <ele>480.00000</ele>
        <time>2024-04-19T11:55:41Z</time>
      </trkpt>
      <trkpt lat="42.93189916" lon="13.64269053">
        <ele>479.00000</ele>
        <time>2024-04-19T11:55:42Z</time>
      </trkpt>
      <trkpt lat="42.93192146" lon="13.64256748">
        <ele>479.00000</ele>
        <time>2024-04-19T11:55:43Z</time>
      </trkpt>
      <trkpt lat="42.93194258" lon="13.64244670">
        <ele>479.00000</ele>
        <time>2024-04-19T11:55:44Z</time>
      </trkpt>
      <trkpt lat="42.93196295" lon="13.64232718">
        <ele>480.00000</ele>
        <time>2024-04-19T11:55:45Z</time>
      </trkpt>
      <trkpt lat="42.93198516" lon="13.64221058">
        <ele>480.00000</ele>
        <time>2024-04-19T11:55:46Z</time>
      </trkpt>
      <trkpt lat="42.93200905" lon="13.64209575">
        <ele>481.00000</ele>
        <time>2024-04-19T11:55:47Z</time>
      </trkpt>
      <trkpt lat="42.93203721" lon="13.64198662">
        <ele>481.00000</ele>
        <time>2024-04-19T11:55:48Z</time>
      </trkpt>
      <trkpt lat="42.93206789" lon="13.64188293">
        <ele>481.00000</ele>
        <time>2024-04-19T11:55:49Z</time>
      </trkpt>
      <trkpt lat="42.93210519" lon="13.64178386">
        <ele>482.00000</ele>
        <time>2024-04-19T11:55:50Z</time>
      </trkpt>
      <trkpt lat="42.93214844" lon="13.64169057">
        <ele>482.00000</ele>
        <time>2024-04-19T11:55:51Z</time>
      </trkpt>
      <trkpt lat="42.93219546" lon="13.64159921">
        <ele>482.00000</ele>
        <time>2024-04-19T11:55:52Z</time>
      </trkpt>
      <trkpt lat="42.93224827" lon="13.64150893">
        <ele>482.00000</ele>
        <time>2024-04-19T11:55:53Z</time>
      </trkpt>
      <trkpt lat="42.93230652" lon="13.64142335">
        <ele>481.00000</ele>
        <time>2024-04-19T11:55:54Z</time>
      </trkpt>
      <trkpt lat="42.93236863" lon="13.64134247">
        <ele>481.00000</ele>
        <time>2024-04-19T11:55:55Z</time>
      </trkpt>
      <trkpt lat="42.93243108" lon="13.64126234">
        <ele>481.00000</ele>
        <time>2024-04-19T11:55:56Z</time>
      </trkpt>
      <trkpt lat="42.93249570" lon="13.64118413">
        <ele>481.00000</ele>
        <time>2024-04-19T11:55:57Z</time>
      </trkpt>
      <trkpt lat="42.93256209" lon="13.64110736">
        <ele>481.00000</ele>
        <time>2024-04-19T11:55:58Z</time>
      </trkpt>
      <trkpt lat="42.93262923" lon="13.64103184">
        <ele>480.00000</ele>
        <time>2024-04-19T11:55:59Z</time>
      </trkpt>
      <trkpt lat="42.93269670" lon="13.64095623">
        <ele>480.00000</ele>
        <time>2024-04-19T11:56:00Z</time>
      </trkpt>
      <trkpt lat="42.93276409" lon="13.64087820">
        <ele>479.00000</ele>
        <time>2024-04-19T11:56:01Z</time>
      </trkpt>
      <trkpt lat="42.93283324" lon="13.64079647">
        <ele>478.00000</ele>
        <time>2024-04-19T11:56:02Z</time>
      </trkpt>
      <trkpt lat="42.93290365" lon="13.64071525">
        <ele>478.00000</ele>
        <time>2024-04-19T11:56:03Z</time>
      </trkpt>
      <trkpt lat="42.93297322" lon="13.64063026">
        <ele>477.00000</ele>
        <time>2024-04-19T11:56:04Z</time>
      </trkpt>
      <trkpt lat="42.93304463" lon="13.64054342">
        <ele>476.00000</ele>
        <time>2024-04-19T11:56:05Z</time>
      </trkpt>
      <trkpt lat="42.93311923" lon="13.64045784">
        <ele>477.00000</ele>
        <time>2024-04-19T11:56:06Z</time>
      </trkpt>
      <trkpt lat="42.93319333" lon="13.64036983">
        <ele>478.00000</ele>
        <time>2024-04-19T11:56:07Z</time>
      </trkpt>
      <trkpt lat="42.93326734" lon="13.64028434">
        <ele>479.00000</ele>
        <time>2024-04-19T11:56:08Z</time>
      </trkpt>
      <trkpt lat="42.93333976" lon="13.64020077">
        <ele>480.00000</ele>
        <time>2024-04-19T11:56:09Z</time>
      </trkpt>
      <trkpt lat="42.93341042" lon="13.64012307">
        <ele>480.00000</ele>
        <time>2024-04-19T11:56:10Z</time>
      </trkpt>
      <trkpt lat="42.93348100" lon="13.64004269">
        <ele>481.00000</ele>
        <time>2024-04-19T11:56:11Z</time>
      </trkpt>
      <trkpt lat="42.93355417" lon="13.63996339">
        <ele>481.00000</ele>
        <time>2024-04-19T11:56:12Z</time>
      </trkpt>
      <trkpt lat="42.93363070" lon="13.63989047">
        <ele>482.00000</ele>
        <time>2024-04-19T11:56:13Z</time>
      </trkpt>
      <trkpt lat="42.93371133" lon="13.63982426">
        <ele>481.00000</ele>
        <time>2024-04-19T11:56:14Z</time>
      </trkpt>
      <trkpt lat="42.93379523" lon="13.63976499">
        <ele>481.00000</ele>
        <time>2024-04-19T11:56:15Z</time>
      </trkpt>
      <trkpt lat="42.93388274" lon="13.63971479">
        <ele>480.00000</ele>
        <time>2024-04-19T11:56:16Z</time>
      </trkpt>
      <trkpt lat="42.93397293" lon="13.63967237">
        <ele>480.00000</ele>
        <time>2024-04-19T11:56:17Z</time>
      </trkpt>
      <trkpt lat="42.93406597" lon="13.63963558">
        <ele>479.00000</ele>
        <time>2024-04-19T11:56:18Z</time>
      </trkpt>
      <trkpt lat="42.93415850" lon="13.63959711">
        <ele>478.00000</ele>
        <time>2024-04-19T11:56:19Z</time>
      </trkpt>
      <trkpt lat="42.93425196" lon="13.63955914">
        <ele>478.00000</ele>
        <time>2024-04-19T11:56:20Z</time>
      </trkpt>
      <trkpt lat="42.93434517" lon="13.63951915">
        <ele>477.00000</ele>
        <time>2024-04-19T11:56:21Z</time>
      </trkpt>
      <trkpt lat="42.93443796" lon="13.63947683">
        <ele>477.00000</ele>
        <time>2024-04-19T11:56:22Z</time>
      </trkpt>
      <trkpt lat="42.93452890" lon="13.63943508">
        <ele>477.00000</ele>
        <time>2024-04-19T11:56:23Z</time>
      </trkpt>
      <trkpt lat="42.93461523" lon="13.63938521">
        <ele>477.00000</ele>
        <time>2024-04-19T11:56:24Z</time>
      </trkpt>
      <trkpt lat="42.93469687" lon="13.63932587">
        <ele>476.00000</ele>
        <time>2024-04-19T11:56:25Z</time>
      </trkpt>
      <trkpt lat="42.93477131" lon="13.63925487">
        <ele>476.00000</ele>
        <time>2024-04-19T11:56:26Z</time>
      </trkpt>
      <trkpt lat="42.93483928" lon="13.63917608">
        <ele>475.00000</ele>
        <time>2024-04-19T11:56:27Z</time>
      </trkpt>
      <trkpt lat="42.93489997" lon="13.63908614">
        <ele>474.00000</ele>
        <time>2024-04-19T11:56:28Z</time>
      </trkpt>
      <trkpt lat="42.93495235" lon="13.63898816">
        <ele>474.00000</ele>
        <time>2024-04-19T11:56:29Z</time>
      </trkpt>
      <trkpt lat="42.93499544" lon="13.63888288">
        <ele>473.00000</ele>
        <time>2024-04-19T11:56:30Z</time>
      </trkpt>
      <trkpt lat="42.93503257" lon="13.63877233">
        <ele>474.00000</ele>
        <time>2024-04-19T11:56:31Z</time>
      </trkpt>
      <trkpt lat="42.93506626" lon="13.63866093">
        <ele>474.00000</ele>
        <time>2024-04-19T11:56:32Z</time>
      </trkpt>
      <trkpt lat="42.93509527" lon="13.63854618">
        <ele>475.00000</ele>
        <time>2024-04-19T11:56:33Z</time>
      </trkpt>
      <trkpt lat="42.93512586" lon="13.63843236">
        <ele>475.00000</ele>
        <time>2024-04-19T11:56:34Z</time>
      </trkpt>
      <trkpt lat="42.93515696" lon="13.63831937">
        <ele>476.00000</ele>
        <time>2024-04-19T11:56:35Z</time>
      </trkpt>
      <trkpt lat="42.93518403" lon="13.63820420">
        <ele>476.00000</ele>
        <time>2024-04-19T11:56:36Z</time>
      </trkpt>
      <trkpt lat="42.93520800" lon="13.63809037">
        <ele>476.00000</ele>
        <time>2024-04-19T11:56:37Z</time>
      </trkpt>
      <trkpt lat="42.93523172" lon="13.63798242">
        <ele>477.00000</ele>
        <time>2024-04-19T11:56:38Z</time>
      </trkpt>
      <trkpt lat="42.93525762" lon="13.63787848">
        <ele>478.00000</ele>
        <time>2024-04-19T11:56:39Z</time>
      </trkpt>
      <trkpt lat="42.93528788" lon="13.63777941">
        <ele>480.00000</ele>
        <time>2024-04-19T11:56:40Z</time>
      </trkpt>
      <trkpt lat="42.93532074" lon="13.63768352">
        <ele>481.00000</ele>
        <time>2024-04-19T11:56:41Z</time>
      </trkpt>
      <trkpt lat="42.93535712" lon="13.63759065">
        <ele>482.00000</ele>
        <time>2024-04-19T11:56:42Z</time>
      </trkpt>
      <trkpt lat="42.93539668" lon="13.63750163">
        <ele>484.00000</ele>
        <time>2024-04-19T11:56:43Z</time>
      </trkpt>
      <trkpt lat="42.93544203" lon="13.63741228">
        <ele>484.00000</ele>
        <time>2024-04-19T11:56:44Z</time>
      </trkpt>
      <trkpt lat="42.93549944" lon="13.63732360">
        <ele>485.00000</ele>
        <time>2024-04-19T11:56:45Z</time>
      </trkpt>
      <trkpt lat="42.93556918" lon="13.63724045">
        <ele>486.00000</ele>
        <time>2024-04-19T11:56:46Z</time>
      </trkpt>
      <trkpt lat="42.93565057" lon="13.63716476">
        <ele>486.00000</ele>
        <time>2024-04-19T11:56:47Z</time>
      </trkpt>
      <trkpt lat="42.93574252" lon="13.63709905">
        <ele>486.00000</ele>
        <time>2024-04-19T11:56:48Z</time>
      </trkpt>
      <trkpt lat="42.93584511" lon="13.63704297">
        <ele>486.00000</ele>
        <time>2024-04-19T11:56:49Z</time>
      </trkpt>
      <trkpt lat="42.93595701" lon="13.63699444">
        <ele>485.00000</ele>
        <time>2024-04-19T11:56:50Z</time>
      </trkpt>
      <trkpt lat="42.93607553" lon="13.63695773">
        <ele>485.00000</ele>
        <time>2024-04-19T11:56:51Z</time>
      </trkpt>
      <trkpt lat="42.93620293" lon="13.63693610">
        <ele>484.00000</ele>
        <time>2024-04-19T11:56:52Z</time>
      </trkpt>
      <trkpt lat="42.93633269" lon="13.63691356">
        <ele>484.00000</ele>
        <time>2024-04-19T11:56:53Z</time>
      </trkpt>
      <trkpt lat="42.93646286" lon="13.63688858">
        <ele>483.00000</ele>
        <time>2024-04-19T11:56:54Z</time>
      </trkpt>
      <trkpt lat="42.93659269" lon="13.63686687">
        <ele>482.00000</ele>
        <time>2024-04-19T11:56:55Z</time>
      </trkpt>
      <trkpt lat="42.93672194" lon="13.63684684">
        <ele>482.00000</ele>
        <time>2024-04-19T11:56:56Z</time>
      </trkpt>
      <trkpt lat="42.93684918" lon="13.63682219">
        <ele>482.00000</ele>
        <time>2024-04-19T11:56:57Z</time>
      </trkpt>
      <trkpt lat="42.93697516" lon="13.63679747">
        <ele>483.00000</ele>
        <time>2024-04-19T11:56:58Z</time>
      </trkpt>
      <trkpt lat="42.93710080" lon="13.63677400">
        <ele>483.00000</ele>
        <time>2024-04-19T11:56:59Z</time>
      </trkpt>
      <trkpt lat="42.93722821" lon="13.63675044">
        <ele>484.00000</ele>
        <time>2024-04-19T11:57:00Z</time>
      </trkpt>
      <trkpt lat="42.93735721" lon="13.63672530">
        <ele>484.00000</ele>
        <time>2024-04-19T11:57:01Z</time>
      </trkpt>
      <trkpt lat="42.93748612" lon="13.63670317">
        <ele>483.00000</ele>
        <time>2024-04-19T11:57:02Z</time>
      </trkpt>
      <trkpt lat="42.93761445" lon="13.63667911">
        <ele>483.00000</ele>
        <time>2024-04-19T11:57:03Z</time>
      </trkpt>
      <trkpt lat="42.93774294" lon="13.63665238">
        <ele>483.00000</ele>
        <time>2024-04-19T11:57:04Z</time>
      </trkpt>
      <trkpt lat="42.93787001" lon="13.63662228">
        <ele>484.00000</ele>
        <time>2024-04-19T11:57:05Z</time>
      </trkpt>
      <trkpt lat="42.93799364" lon="13.63659605">
        <ele>485.00000</ele>
        <time>2024-04-19T11:57:06Z</time>
      </trkpt>
      <trkpt lat="42.93811610" lon="13.63657644">
        <ele>486.00000</ele>
        <time>2024-04-19T11:57:07Z</time>
      </trkpt>
      <trkpt lat="42.93823630" lon="13.63656135">
        <ele>485.00000</ele>
        <time>2024-04-19T11:57:08Z</time>
      </trkpt>
      <trkpt lat="42.93835608" lon="13.63655607">
        <ele>485.00000</ele>
        <time>2024-04-19T11:57:09Z</time>
      </trkpt>
      <trkpt lat="42.93847653" lon="13.63656470">
        <ele>484.00000</ele>
        <time>2024-04-19T11:57:10Z</time>
      </trkpt>
      <trkpt lat="42.93859655" lon="13.63658641">
        <ele>483.00000</ele>
        <time>2024-04-19T11:57:11Z</time>
      </trkpt>
      <trkpt lat="42.93871440" lon="13.63661910">
        <ele>483.00000</ele>
        <time>2024-04-19T11:57:12Z</time>
      </trkpt>
      <trkpt lat="42.93882957" lon="13.63666252">
        <ele>483.00000</ele>
        <time>2024-04-19T11:57:13Z</time>
      </trkpt>
      <trkpt lat="42.93894357" lon="13.63671549">
        <ele>483.00000</ele>
        <time>2024-04-19T11:57:14Z</time>
      </trkpt>
      <trkpt lat="42.93905630" lon="13.63677173">
        <ele>483.00000</ele>
        <time>2024-04-19T11:57:15Z</time>
      </trkpt>
      <trkpt lat="42.93916812" lon="13.63683250">
        <ele>483.00000</ele>
        <time>2024-04-19T11:57:16Z</time>
      </trkpt>
      <trkpt lat="42.93928102" lon="13.63689780">
        <ele>481.00000</ele>
        <time>2024-04-19T11:57:17Z</time>
      </trkpt>
      <trkpt lat="42.93939560" lon="13.63696184">
        <ele>478.00000</ele>
        <time>2024-04-19T11:57:18Z</time>
      </trkpt>
      <trkpt lat="42.93951421" lon="13.63702353">
        <ele>476.00000</ele>
        <time>2024-04-19T11:57:19Z</time>
      </trkpt>
      <trkpt lat="42.93963574" lon="13.63708346">
        <ele>474.00000</ele>
        <time>2024-04-19T11:57:20Z</time>
      </trkpt>
      <trkpt lat="42.93976130" lon="13.63714464">
        <ele>472.00000</ele>
        <time>2024-04-19T11:57:21Z</time>
      </trkpt>
      <trkpt lat="42.93989131" lon="13.63719125">
        <ele>471.00000</ele>
        <time>2024-04-19T11:57:22Z</time>
      </trkpt>
      <trkpt lat="42.94003036" lon="13.63720843">
        <ele>469.00000</ele>
        <time>2024-04-19T11:57:23Z</time>
      </trkpt>
      <trkpt lat="42.94016984" lon="13.63718295">
        <ele>467.00000</ele>
        <time>2024-04-19T11:57:24Z</time>
      </trkpt>
      <trkpt lat="42.94029934" lon="13.63710869">
        <ele>464.00000</ele>
        <time>2024-04-19T11:57:25Z</time>
      </trkpt>
      <trkpt lat="42.94040914" lon="13.63699017">
        <ele>460.00000</ele>
        <time>2024-04-19T11:57:26Z</time>
      </trkpt>
      <trkpt lat="42.94051668" lon="13.63681079">
        <ele>458.00000</ele>
        <time>2024-04-19T11:57:27Z</time>
      </trkpt>
      <trkpt lat="42.94057996" lon="13.63663653">
        <ele>457.00000</ele>
        <time>2024-04-19T11:57:28Z</time>
      </trkpt>
      <trkpt lat="42.94061911" lon="13.63648289">
        <ele>456.00000</ele>
        <time>2024-04-19T11:57:29Z</time>
      </trkpt>
      <trkpt lat="42.94066378" lon="13.63628818">
        <ele>455.00000</ele>
        <time>2024-04-19T11:57:30Z</time>
      </trkpt>
      <trkpt lat="42.94071659" lon="13.63605869">
        <ele>454.00000</ele>
        <time>2024-04-19T11:57:31Z</time>
      </trkpt>
      <trkpt lat="42.94076127" lon="13.63587185">
        <ele>453.00000</ele>
        <time>2024-04-19T11:57:32Z</time>
      </trkpt>
      <trkpt lat="42.94080695" lon="13.63569298">
        <ele>454.00000</ele>
        <time>2024-04-19T11:57:33Z</time>
      </trkpt>
      <trkpt lat="42.94084039" lon="13.63555384">
        <ele>454.00000</ele>
        <time>2024-04-19T11:57:34Z</time>
      </trkpt>
      <trkpt lat="42.94087920" lon="13.63538277">
        <ele>456.00000</ele>
        <time>2024-04-19T11:57:35Z</time>
      </trkpt>
      <trkpt lat="42.94091910" lon="13.63521840">
        <ele>457.00000</ele>
        <time>2024-04-19T11:57:36Z</time>
      </trkpt>
      <trkpt lat="42.94095891" lon="13.63505998">
        <ele>458.00000</ele>
        <time>2024-04-19T11:57:37Z</time>
      </trkpt>
      <trkpt lat="42.94099411" lon="13.63490483">
        <ele>459.00000</ele>
        <time>2024-04-19T11:57:38Z</time>
      </trkpt>
      <trkpt lat="42.94102756" lon="13.63475379">
        <ele>460.00000</ele>
        <time>2024-04-19T11:57:39Z</time>
      </trkpt>
      <trkpt lat="42.94106192" lon="13.63460836">
        <ele>461.00000</ele>
        <time>2024-04-19T11:57:40Z</time>
      </trkpt>
      <trkpt lat="42.94109797" lon="13.63446822">
        <ele>462.00000</ele>
        <time>2024-04-19T11:57:41Z</time>
      </trkpt>
      <trkpt lat="42.94113225" lon="13.63433293">
        <ele>463.00000</ele>
        <time>2024-04-19T11:57:42Z</time>
      </trkpt>
      <trkpt lat="42.94116511" lon="13.63420528">
        <ele>463.00000</ele>
        <time>2024-04-19T11:57:43Z</time>
      </trkpt>
      <trkpt lat="42.94119712" lon="13.63407745">
        <ele>463.00000</ele>
        <time>2024-04-19T11:57:44Z</time>
      </trkpt>
      <trkpt lat="42.94122923" lon="13.63394837">
        <ele>463.00000</ele>
        <time>2024-04-19T11:57:45Z</time>
      </trkpt>
      <trkpt lat="42.94126217" lon="13.63381560">
        <ele>463.00000</ele>
        <time>2024-04-19T11:57:46Z</time>
      </trkpt>
      <trkpt lat="42.94129393" lon="13.63367621">
        <ele>463.00000</ele>
        <time>2024-04-19T11:57:47Z</time>
      </trkpt>
      <trkpt lat="42.94132771" lon="13.63353800">
        <ele>463.00000</ele>
        <time>2024-04-19T11:57:48Z</time>
      </trkpt>
      <trkpt lat="42.94136283" lon="13.63339911">
        <ele>462.00000</ele>
        <time>2024-04-19T11:57:49Z</time>
      </trkpt>
      <trkpt lat="42.94139904" lon="13.63325360">
        <ele>462.00000</ele>
        <time>2024-04-19T11:57:50Z</time>
      </trkpt>
      <trkpt lat="42.94143659" lon="13.63310968">
        <ele>461.00000</ele>
        <time>2024-04-19T11:57:51Z</time>
      </trkpt>
      <trkpt lat="42.94147130" lon="13.63296467">
        <ele>460.00000</ele>
        <time>2024-04-19T11:57:52Z</time>
      </trkpt>
      <trkpt lat="42.94150558" lon="13.63281941">
        <ele>458.00000</ele>
        <time>2024-04-19T11:57:53Z</time>
      </trkpt>
      <trkpt lat="42.94153986" lon="13.63267248">
        <ele>457.00000</ele>
        <time>2024-04-19T11:57:54Z</time>
      </trkpt>
      <trkpt lat="42.94157724" lon="13.63252253">
        <ele>456.00000</ele>
        <time>2024-04-19T11:57:55Z</time>
      </trkpt>
      <trkpt lat="42.94161614" lon="13.63236973">
        <ele>455.00000</ele>
        <time>2024-04-19T11:57:56Z</time>
      </trkpt>
      <trkpt lat="42.94165293" lon="13.63221349">
        <ele>454.00000</ele>
        <time>2024-04-19T11:57:57Z</time>
      </trkpt>
      <trkpt lat="42.94168847" lon="13.63205197">
        <ele>453.00000</ele>
        <time>2024-04-19T11:57:58Z</time>
      </trkpt>
      <trkpt lat="42.94172954" lon="13.63189556">
        <ele>452.00000</ele>
        <time>2024-04-19T11:57:59Z</time>
      </trkpt>
      <trkpt lat="42.94177405" lon="13.63174125">
        <ele>451.00000</ele>
        <time>2024-04-19T11:58:00Z</time>
      </trkpt>
      <trkpt lat="42.94181412" lon="13.63157562">
        <ele>451.00000</ele>
        <time>2024-04-19T11:58:01Z</time>
      </trkpt>
      <trkpt lat="42.94183775" lon="13.63140061">
        <ele>451.00000</ele>
        <time>2024-04-19T11:58:02Z</time>
      </trkpt>
      <trkpt lat="42.94183415" lon="13.63121964">
        <ele>451.00000</ele>
        <time>2024-04-19T11:58:03Z</time>
      </trkpt>
      <trkpt lat="42.94180615" lon="13.63104036">
        <ele>450.00000</ele>
        <time>2024-04-19T11:58:04Z</time>
      </trkpt>
      <trkpt lat="42.94175804" lon="13.63087138">
        <ele>450.00000</ele>
        <time>2024-04-19T11:58:05Z</time>
      </trkpt>
      <trkpt lat="42.94169685" lon="13.63071086">
        <ele>450.00000</ele>
        <time>2024-04-19T11:58:06Z</time>
      </trkpt>
      <trkpt lat="42.94163416" lon="13.63055320">
        <ele>450.00000</ele>
        <time>2024-04-19T11:58:07Z</time>
      </trkpt>
      <trkpt lat="42.94157180" lon="13.63039797">
        <ele>450.00000</ele>
        <time>2024-04-19T11:58:08Z</time>
      </trkpt>
      <trkpt lat="42.94151019" lon="13.63024810">
        <ele>451.00000</ele>
        <time>2024-04-19T11:58:09Z</time>
      </trkpt>
      <trkpt lat="42.94145193" lon="13.63010183">
        <ele>451.00000</ele>
        <time>2024-04-19T11:58:10Z</time>
      </trkpt>
      <trkpt lat="42.94139586" lon="13.62995783">
        <ele>452.00000</ele>
        <time>2024-04-19T11:58:11Z</time>
      </trkpt>
      <trkpt lat="42.94134071" lon="13.62981576">
        <ele>451.00000</ele>
        <time>2024-04-19T11:58:12Z</time>
      </trkpt>
      <trkpt lat="42.94128648" lon="13.62967461">
        <ele>449.00000</ele>
        <time>2024-04-19T11:58:13Z</time>
      </trkpt>
      <trkpt lat="42.94122864" lon="13.62953941">
        <ele>447.00000</ele>
        <time>2024-04-19T11:58:14Z</time>
      </trkpt>
      <trkpt lat="42.94117231" lon="13.62940513">
        <ele>444.00000</ele>
        <time>2024-04-19T11:58:15Z</time>
      </trkpt>
      <trkpt lat="42.94112110" lon="13.62927420">
        <ele>443.00000</ele>
        <time>2024-04-19T11:58:16Z</time>
      </trkpt>
      <trkpt lat="42.94107165" lon="13.62914915">
        <ele>443.00000</ele>
        <time>2024-04-19T11:58:17Z</time>
      </trkpt>
      <trkpt lat="42.94102270" lon="13.62902811">
        <ele>444.00000</ele>
        <time>2024-04-19T11:58:18Z</time>
      </trkpt>
      <trkpt lat="42.94097517" lon="13.62891127">
        <ele>445.00000</ele>
        <time>2024-04-19T11:58:19Z</time>
      </trkpt>
      <trkpt lat="42.94093100" lon="13.62879795">
        <ele>446.00000</ele>
        <time>2024-04-19T11:58:20Z</time>
      </trkpt>
      <trkpt lat="42.94088599" lon="13.62869191">
        <ele>447.00000</ele>
        <time>2024-04-19T11:58:21Z</time>
      </trkpt>
      <trkpt lat="42.94084316" lon="13.62858613">
        <ele>447.00000</ele>
        <time>2024-04-19T11:58:22Z</time>
      </trkpt>
      <trkpt lat="42.94079949" lon="13.62848371">
        <ele>447.00000</ele>
        <time>2024-04-19T11:58:23Z</time>
      </trkpt>
      <trkpt lat="42.94075959" lon="13.62838455">
        <ele>447.00000</ele>
        <time>2024-04-19T11:58:24Z</time>
      </trkpt>
      <trkpt lat="42.94072438" lon="13.62828782">
        <ele>446.00000</ele>
        <time>2024-04-19T11:58:25Z</time>
      </trkpt>
      <trkpt lat="42.94068759" lon="13.62819830">
        <ele>446.00000</ele>
        <time>2024-04-19T11:58:26Z</time>
      </trkpt>
      <trkpt lat="42.94064710" lon="13.62810761">
        <ele>446.00000</ele>
        <time>2024-04-19T11:58:27Z</time>
      </trkpt>
      <trkpt lat="42.94061207" lon="13.62801306">
        <ele>446.00000</ele>
        <time>2024-04-19T11:58:28Z</time>
      </trkpt>
      <trkpt lat="42.94057946" lon="13.62791793">
        <ele>446.00000</ele>
        <time>2024-04-19T11:58:29Z</time>
      </trkpt>
      <trkpt lat="42.94054275" lon="13.62782757">
        <ele>446.00000</ele>
        <time>2024-04-19T11:58:30Z</time>
      </trkpt>
      <trkpt lat="42.94050637" lon="13.62773613">
        <ele>445.00000</ele>
        <time>2024-04-19T11:58:31Z</time>
      </trkpt>
      <trkpt lat="42.94047025" lon="13.62764208">
        <ele>445.00000</ele>
        <time>2024-04-19T11:58:32Z</time>
      </trkpt>
      <trkpt lat="42.94043336" lon="13.62755298">
        <ele>445.00000</ele>
        <time>2024-04-19T11:58:33Z</time>
      </trkpt>
      <trkpt lat="42.94039648" lon="13.62746464">
        <ele>445.00000</ele>
        <time>2024-04-19T11:58:34Z</time>
      </trkpt>
      <trkpt lat="42.94036019" lon="13.62737646">
        <ele>445.00000</ele>
        <time>2024-04-19T11:58:35Z</time>
      </trkpt>
      <trkpt lat="42.94032222" lon="13.62729188">
        <ele>446.00000</ele>
        <time>2024-04-19T11:58:36Z</time>
      </trkpt>
      <trkpt lat="42.94028341" lon="13.62720941">
        <ele>446.00000</ele>
        <time>2024-04-19T11:58:37Z</time>
      </trkpt>
      <trkpt lat="42.94024871" lon="13.62712911">
        <ele>446.00000</ele>
        <time>2024-04-19T11:58:38Z</time>
      </trkpt>
      <trkpt lat="42.94021393" lon="13.62704521">
        <ele>446.00000</ele>
        <time>2024-04-19T11:58:39Z</time>
      </trkpt>
      <trkpt lat="42.94017881" lon="13.62696415">
        <ele>446.00000</ele>
        <time>2024-04-19T11:58:40Z</time>
      </trkpt>
      <trkpt lat="42.94014427" lon="13.62688209">
        <ele>446.00000</ele>
        <time>2024-04-19T11:58:41Z</time>
      </trkpt>
      <trkpt lat="42.94010781" lon="13.62679978">
        <ele>446.00000</ele>
        <time>2024-04-19T11:58:42Z</time>
      </trkpt>
      <trkpt lat="42.94007026" lon="13.62671169">
        <ele>446.00000</ele>
        <time>2024-04-19T11:58:43Z</time>
      </trkpt>
      <trkpt lat="42.94003858" lon="13.62662184">
        <ele>446.00000</ele>
        <time>2024-04-19T11:58:44Z</time>
      </trkpt>
      <trkpt lat="42.94001134" lon="13.62653072">
        <ele>446.00000</ele>
        <time>2024-04-19T11:58:45Z</time>
      </trkpt>
      <trkpt lat="42.93997890" lon="13.62644338">
        <ele>446.00000</ele>
        <time>2024-04-19T11:58:46Z</time>
      </trkpt>
      <trkpt lat="42.93994470" lon="13.62635537">
        <ele>446.00000</ele>
        <time>2024-04-19T11:58:47Z</time>
      </trkpt>
      <trkpt lat="42.93991033" lon="13.62626502">
        <ele>446.00000</ele>
        <time>2024-04-19T11:58:48Z</time>
      </trkpt>
      <trkpt lat="42.93987840" lon="13.62617114">
        <ele>447.00000</ele>
        <time>2024-04-19T11:58:49Z</time>
      </trkpt>
      <trkpt lat="42.93984579" lon="13.62608145">
        <ele>447.00000</ele>
        <time>2024-04-19T11:58:50Z</time>
      </trkpt>
      <trkpt lat="42.93981461" lon="13.62599981">
        <ele>447.00000</ele>
        <time>2024-04-19T11:58:51Z</time>
      </trkpt>
      <trkpt lat="42.93978318" lon="13.62591809">
        <ele>447.00000</ele>
        <time>2024-04-19T11:58:52Z</time>
      </trkpt>
      <trkpt lat="42.93975401" lon="13.62584031">
        <ele>448.00000</ele>
        <time>2024-04-19T11:58:53Z</time>
      </trkpt>
      <trkpt lat="42.93972442" lon="13.62575875">
        <ele>448.00000</ele>
        <time>2024-04-19T11:58:54Z</time>
      </trkpt>
      <trkpt lat="42.93969609" lon="13.62567837">
        <ele>448.00000</ele>
        <time>2024-04-19T11:58:55Z</time>
      </trkpt>
      <trkpt lat="42.93966516" lon="13.62560058">
        <ele>448.00000</ele>
        <time>2024-04-19T11:58:56Z</time>
      </trkpt>
      <trkpt lat="42.93963147" lon="13.62552531">
        <ele>448.00000</ele>
        <time>2024-04-19T11:58:57Z</time>
      </trkpt>
      <trkpt lat="42.93959719" lon="13.62545281">
        <ele>448.00000</ele>
        <time>2024-04-19T11:58:58Z</time>
      </trkpt>
      <trkpt lat="42.93956492" lon="13.62537930">
        <ele>448.00000</ele>
        <time>2024-04-19T11:58:59Z</time>
      </trkpt>
      <trkpt lat="42.93953499" lon="13.62530403">
        <ele>448.00000</ele>
        <time>2024-04-19T11:59:00Z</time>
      </trkpt>
      <trkpt lat="42.93950557" lon="13.62523010">
        <ele>448.00000</ele>
        <time>2024-04-19T11:59:01Z</time>
      </trkpt>
      <trkpt lat="42.93947707" lon="13.62515777">
        <ele>448.00000</ele>
        <time>2024-04-19T11:59:02Z</time>
      </trkpt>
      <trkpt lat="42.93944958" lon="13.62508459">
        <ele>449.00000</ele>
        <time>2024-04-19T11:59:03Z</time>
      </trkpt>
      <trkpt lat="42.93942159" lon="13.62500983">
        <ele>449.00000</ele>
        <time>2024-04-19T11:59:04Z</time>
      </trkpt>
      <trkpt lat="42.93939116" lon="13.62493892">
        <ele>449.00000</ele>
        <time>2024-04-19T11:59:05Z</time>
      </trkpt>
      <trkpt lat="42.93935872" lon="13.62487505">
        <ele>448.00000</ele>
        <time>2024-04-19T11:59:06Z</time>
      </trkpt>
      <trkpt lat="42.93932494" lon="13.62481470">
        <ele>448.00000</ele>
        <time>2024-04-19T11:59:07Z</time>
      </trkpt>
      <trkpt lat="42.93929217" lon="13.62474898">
        <ele>448.00000</ele>
        <time>2024-04-19T11:59:08Z</time>
      </trkpt>
      <trkpt lat="42.93926300" lon="13.62468092">
        <ele>447.00000</ele>
        <time>2024-04-19T11:59:09Z</time>
      </trkpt>
      <trkpt lat="42.93923475" lon="13.62461412">
        <ele>447.00000</ele>
        <time>2024-04-19T11:59:10Z</time>
      </trkpt>
      <trkpt lat="42.93920625" lon="13.62454907">
        <ele>447.00000</ele>
        <time>2024-04-19T11:59:11Z</time>
      </trkpt>
      <trkpt lat="42.93918086" lon="13.62448303">
        <ele>447.00000</ele>
        <time>2024-04-19T11:59:12Z</time>
      </trkpt>
      <trkpt lat="42.93916074" lon="13.62441513">
        <ele>448.00000</ele>
        <time>2024-04-19T11:59:13Z</time>
      </trkpt>
      <trkpt lat="42.93913685" lon="13.62435218">
        <ele>448.00000</ele>
        <time>2024-04-19T11:59:14Z</time>
      </trkpt>
      <trkpt lat="42.93911238" lon="13.62428530">
        <ele>448.00000</ele>
        <time>2024-04-19T11:59:15Z</time>
      </trkpt>
      <trkpt lat="42.93908799" lon="13.62422386">
        <ele>448.00000</ele>
        <time>2024-04-19T11:59:16Z</time>
      </trkpt>
      <trkpt lat="42.93906074" lon="13.62416300">
        <ele>448.00000</ele>
        <time>2024-04-19T11:59:17Z</time>
      </trkpt>
      <trkpt lat="42.93903744" lon="13.62410835">
        <ele>449.00000</ele>
        <time>2024-04-19T11:59:18Z</time>
      </trkpt>
      <trkpt lat="42.93901288" lon="13.62405496">
        <ele>449.00000</ele>
        <time>2024-04-19T11:59:19Z</time>
      </trkpt>
      <trkpt lat="42.93898824" lon="13.62399838">
        <ele>449.00000</ele>
        <time>2024-04-19T11:59:20Z</time>
      </trkpt>
      <trkpt lat="42.93896603" lon="13.62393854">
        <ele>450.00000</ele>
        <time>2024-04-19T11:59:21Z</time>
      </trkpt>
      <trkpt lat="42.93894340" lon="13.62387911">
        <ele>450.00000</ele>
        <time>2024-04-19T11:59:22Z</time>
      </trkpt>
      <trkpt lat="42.93892588" lon="13.62382144">
        <ele>450.00000</ele>
        <time>2024-04-19T11:59:23Z</time>
      </trkpt>
      <trkpt lat="42.93890953" lon="13.62376453">
        <ele>450.00000</ele>
        <time>2024-04-19T11:59:24Z</time>
      </trkpt>
      <trkpt lat="42.93889185" lon="13.62370686">
        <ele>450.00000</ele>
        <time>2024-04-19T11:59:25Z</time>
      </trkpt>
      <trkpt lat="42.93887416" lon="13.62365070">
        <ele>450.00000</ele>
        <time>2024-04-19T11:59:26Z</time>
      </trkpt>
      <trkpt lat="42.93885757" lon="13.62359899">
        <ele>450.00000</ele>
        <time>2024-04-19T11:59:27Z</time>
      </trkpt>
      <trkpt lat="42.93884491" lon="13.62355347">
        <ele>450.00000</ele>
        <time>2024-04-19T11:59:28Z</time>
      </trkpt>
      <trkpt lat="42.93882999" lon="13.62351064">
        <ele>450.00000</ele>
        <time>2024-04-19T11:59:29Z</time>
      </trkpt>
      <trkpt lat="42.93881691" lon="13.62346647">
        <ele>450.00000</ele>
        <time>2024-04-19T11:59:30Z</time>
      </trkpt>
      <trkpt lat="42.93880518" lon="13.62341777">
        <ele>449.00000</ele>
        <time>2024-04-19T11:59:31Z</time>
      </trkpt>
      <trkpt lat="42.93878766" lon="13.62336639">
        <ele>449.00000</ele>
        <time>2024-04-19T11:59:32Z</time>
      </trkpt>
      <trkpt lat="42.93876713" lon="13.62331652">
        <ele>449.00000</ele>
        <time>2024-04-19T11:59:33Z</time>
      </trkpt>
      <trkpt lat="42.93876335" lon="13.62327318">
        <ele>449.00000</ele>
        <time>2024-04-19T11:59:34Z</time>
      </trkpt>
      <trkpt lat="42.93877651" lon="13.62323521">
        <ele>449.00000</ele>
        <time>2024-04-19T11:59:35Z</time>
      </trkpt>
      <trkpt lat="42.93877576" lon="13.62319774">
        <ele>449.00000</ele>
        <time>2024-04-19T11:59:36Z</time>
      </trkpt>
      <trkpt lat="42.93876411" lon="13.62316422">
        <ele>448.00000</ele>
        <time>2024-04-19T11:59:37Z</time>
      </trkpt>
      <trkpt lat="42.93875833" lon="13.62315206">
        <ele>448.00000</ele>
        <time>2024-04-19T11:59:38Z</time>
      </trkpt>
      <trkpt lat="42.93875774" lon="13.62317193">
        <ele>449.00000</ele>
        <time>2024-04-19T11:59:39Z</time>
      </trkpt>
      <trkpt lat="42.93876042" lon="13.62321107">
        <ele>449.00000</ele>
        <time>2024-04-19T11:59:40Z</time>
      </trkpt>
      <trkpt lat="42.93876084" lon="13.62324468">
        <ele>449.00000</ele>
        <time>2024-04-19T11:59:41Z</time>
      </trkpt>
      <trkpt lat="42.93876587" lon="13.62327318">
        <ele>449.00000</ele>
        <time>2024-04-19T11:59:42Z</time>
      </trkpt>
      <trkpt lat="42.93877132" lon="13.62330704">
        <ele>449.00000</ele>
        <time>2024-04-19T11:59:43Z</time>
      </trkpt>
      <trkpt lat="42.93877819" lon="13.62334401">
        <ele>449.00000</ele>
        <time>2024-04-19T11:59:44Z</time>
      </trkpt>
      <trkpt lat="42.93878599" lon="13.62337904">
        <ele>449.00000</ele>
        <time>2024-04-19T11:59:45Z</time>
      </trkpt>
      <trkpt lat="42.93879705" lon="13.62340972">
        <ele>449.00000</ele>
        <time>2024-04-19T11:59:46Z</time>
      </trkpt>
      <trkpt lat="42.93881205" lon="13.62343864">
        <ele>449.00000</ele>
        <time>2024-04-19T11:59:47Z</time>
      </trkpt>
      <trkpt lat="42.93882521" lon="13.62346823">
        <ele>450.00000</ele>
        <time>2024-04-19T11:59:48Z</time>
      </trkpt>
      <trkpt lat="42.93883468" lon="13.62349991">
        <ele>450.00000</ele>
        <time>2024-04-19T11:59:49Z</time>
      </trkpt>
      <trkpt lat="42.93884374" lon="13.62353051">
        <ele>450.00000</ele>
        <time>2024-04-19T11:59:50Z</time>
      </trkpt>
      <trkpt lat="42.93885338" lon="13.62356102">
        <ele>450.00000</ele>
        <time>2024-04-19T11:59:51Z</time>
      </trkpt>
      <trkpt lat="42.93886193" lon="13.62358775">
        <ele>450.00000</ele>
        <time>2024-04-19T11:59:52Z</time>
      </trkpt>
      <trkpt lat="42.93886645" lon="13.62362321">
        <ele>450.00000</ele>
        <time>2024-04-19T11:59:53Z</time>
      </trkpt>
      <trkpt lat="42.93886830" lon="13.62364819">
        <ele>450.00000</ele>
        <time>2024-04-19T11:59:54Z</time>
      </trkpt>
      <trkpt lat="42.93887659" lon="13.62367870">
        <ele>450.00000</ele>
        <time>2024-04-19T11:59:55Z</time>
      </trkpt>
      <trkpt lat="42.93888732" lon="13.62370242">
        <ele>450.00000</ele>
        <time>2024-04-19T11:59:56Z</time>
      </trkpt>
      <trkpt lat="42.93889897" lon="13.62372304">
        <ele>450.00000</ele>
        <time>2024-04-19T11:59:57Z</time>
      </trkpt>
      <trkpt lat="42.93890870" lon="13.62374290">
        <ele>450.00000</ele>
        <time>2024-04-19T11:59:58Z</time>
      </trkpt>
      <trkpt lat="42.93891859" lon="13.62376151">
        <ele>450.00000</ele>
        <time>2024-04-19T11:59:59Z</time>
      </trkpt>
      <trkpt lat="42.93892513" lon="13.62377626">
        <ele>450.00000</ele>
        <time>2024-04-19T12:00:00Z</time>
      </trkpt>
      <trkpt lat="42.93893007" lon="13.62379043">
        <ele>450.00000</ele>
        <time>2024-04-19T12:00:01Z</time>
      </trkpt>
      <trkpt lat="42.93893401" lon="13.62380644">
        <ele>450.00000</ele>
        <time>2024-04-19T12:00:02Z</time>
      </trkpt>
      <trkpt lat="42.93893954" lon="13.62382505">
        <ele>450.00000</ele>
        <time>2024-04-19T12:00:03Z</time>
      </trkpt>
      <trkpt lat="42.93894784" lon="13.62384005">
        <ele>450.00000</ele>
        <time>2024-04-19T12:00:04Z</time>
      </trkpt>
      <trkpt lat="42.93895212" lon="13.62384558">
        <ele>450.00000</ele>
        <time>2024-04-19T12:00:05Z</time>
      </trkpt>
      <trkpt lat="42.93895572" lon="13.62384516">
        <ele>450.00000</ele>
        <time>2024-04-19T12:00:06Z</time>
      </trkpt>
      <trkpt lat="42.93895924" lon="13.62383645">
        <ele>450.00000</ele>
        <time>2024-04-19T12:00:07Z</time>
      </trkpt>
      <trkpt lat="42.93895186" lon="13.62382287">
        <ele>450.00000</ele>
        <time>2024-04-19T12:00:08Z</time>
      </trkpt>
      <trkpt lat="42.93894063" lon="13.62380392">
        <ele>450.00000</ele>
        <time>2024-04-19T12:00:09Z</time>
      </trkpt>
      <trkpt lat="42.93893124" lon="13.62378448">
        <ele>450.00000</ele>
        <time>2024-04-19T12:00:10Z</time>
      </trkpt>
      <trkpt lat="42.93892144" lon="13.62376470">
        <ele>450.00000</ele>
        <time>2024-04-19T12:00:11Z</time>
      </trkpt>
      <trkpt lat="42.93891096" lon="13.62374156">
        <ele>450.00000</ele>
        <time>2024-04-19T12:00:12Z</time>
      </trkpt>
      <trkpt lat="42.93890216" lon="13.62371449">
        <ele>450.00000</ele>
        <time>2024-04-19T12:00:13Z</time>
      </trkpt>
      <trkpt lat="42.93889244" lon="13.62368792">
        <ele>450.00000</ele>
        <time>2024-04-19T12:00:14Z</time>
      </trkpt>
      <trkpt lat="42.93888045" lon="13.62366286">
        <ele>450.00000</ele>
        <time>2024-04-19T12:00:15Z</time>
      </trkpt>
      <trkpt lat="42.93887274" lon="13.62363595">
        <ele>450.00000</ele>
        <time>2024-04-19T12:00:16Z</time>
      </trkpt>
      <trkpt lat="42.93886838" lon="13.62360821">
        <ele>450.00000</ele>
        <time>2024-04-19T12:00:17Z</time>
      </trkpt>
      <trkpt lat="42.93886385" lon="13.62358214">
        <ele>450.00000</ele>
        <time>2024-04-19T12:00:18Z</time>
      </trkpt>
      <trkpt lat="42.93885916" lon="13.62356336">
        <ele>450.00000</ele>
        <time>2024-04-19T12:00:19Z</time>
      </trkpt>
      <trkpt lat="42.93885857" lon="13.62355649">
        <ele>450.00000</ele>
        <time>2024-04-19T12:00:20Z</time>
      </trkpt>
      <trkpt lat="42.93881415" lon="13.62357677">
        <ele>450.00000</ele>
        <time>2024-04-19T12:06:14Z</time>
      </trkpt>
      <trkpt lat="42.93880669" lon="13.62355356">
        <ele>450.00000</ele>
        <time>2024-04-19T12:06:15Z</time>
      </trkpt>
      <trkpt lat="42.93879814" lon="13.62353361">
        <ele>450.00000</ele>
        <time>2024-04-19T12:06:16Z</time>
      </trkpt>
      <trkpt lat="42.93879604" lon="13.62351424">
        <ele>450.00000</ele>
        <time>2024-04-19T12:06:17Z</time>
      </trkpt>
      <trkpt lat="42.93879286" lon="13.62349723">
        <ele>450.00000</ele>
        <time>2024-04-19T12:06:18Z</time>
      </trkpt>
      <trkpt lat="42.93878833" lon="13.62348373">
        <ele>450.00000</ele>
        <time>2024-04-19T12:06:19Z</time>
      </trkpt>
      <trkpt lat="42.93878741" lon="13.62347845">
        <ele>450.00000</ele>
        <time>2024-04-19T12:06:20Z</time>
      </trkpt>
      <trkpt lat="42.93875380" lon="13.62341098">
        <ele>450.00000</ele>
        <time>2024-04-19T12:06:37Z</time>
      </trkpt>
      <trkpt lat="42.93873888" lon="13.62336664">
        <ele>450.00000</ele>
        <time>2024-04-19T12:06:38Z</time>
      </trkpt>
      <trkpt lat="42.93872354" lon="13.62332054">
        <ele>450.00000</ele>
        <time>2024-04-19T12:06:39Z</time>
      </trkpt>
      <trkpt lat="42.93872731" lon="13.62328073">
        <ele>449.00000</ele>
        <time>2024-04-19T12:06:40Z</time>
      </trkpt>
      <trkpt lat="42.93872052" lon="13.62324594">
        <ele>449.00000</ele>
        <time>2024-04-19T12:06:41Z</time>
      </trkpt>
      <trkpt lat="42.93870242" lon="13.62320504">
        <ele>449.00000</ele>
        <time>2024-04-19T12:06:42Z</time>
      </trkpt>
      <trkpt lat="42.93868029" lon="13.62314905">
        <ele>449.00000</ele>
        <time>2024-04-19T12:06:43Z</time>
      </trkpt>
      <trkpt lat="42.93866462" lon="13.62309255">
        <ele>449.00000</ele>
        <time>2024-04-19T12:06:44Z</time>
      </trkpt>
      <trkpt lat="42.93865188" lon="13.62303949">
        <ele>449.00000</ele>
        <time>2024-04-19T12:06:45Z</time>
      </trkpt>
      <trkpt lat="42.93863913" lon="13.62298342">
        <ele>449.00000</ele>
        <time>2024-04-19T12:06:46Z</time>
      </trkpt>
      <trkpt lat="42.93862086" lon="13.62292106">
        <ele>448.00000</ele>
        <time>2024-04-19T12:06:47Z</time>
      </trkpt>
      <trkpt lat="42.93859974" lon="13.62285451">
        <ele>448.00000</ele>
        <time>2024-04-19T12:06:48Z</time>
      </trkpt>
      <trkpt lat="42.93858390" lon="13.62279290">
        <ele>448.00000</ele>
        <time>2024-04-19T12:06:49Z</time>
      </trkpt>
      <trkpt lat="42.93856504" lon="13.62272593">
        <ele>448.00000</ele>
        <time>2024-04-19T12:06:50Z</time>
      </trkpt>
      <trkpt lat="42.93854752" lon="13.62265753">
        <ele>447.00000</ele>
        <time>2024-04-19T12:06:51Z</time>
      </trkpt>
      <trkpt lat="42.93853176" lon="13.62258461">
        <ele>448.00000</ele>
        <time>2024-04-19T12:06:52Z</time>
      </trkpt>
      <trkpt lat="42.93850896" lon="13.62250054">
        <ele>448.00000</ele>
        <time>2024-04-19T12:06:53Z</time>
      </trkpt>
      <trkpt lat="42.93848851" lon="13.62241161">
        <ele>448.00000</ele>
        <time>2024-04-19T12:06:54Z</time>
      </trkpt>
      <trkpt lat="42.93846571" lon="13.62230633">
        <ele>448.00000</ele>
        <time>2024-04-19T12:06:55Z</time>
      </trkpt>
      <trkpt lat="42.93845674" lon="13.62219921">
        <ele>449.00000</ele>
        <time>2024-04-19T12:06:56Z</time>
      </trkpt>
      <trkpt lat="42.93844928" lon="13.62207222">
        <ele>450.00000</ele>
        <time>2024-04-19T12:06:57Z</time>
      </trkpt>
      <trkpt lat="42.93844928" lon="13.62192671">
        <ele>450.00000</ele>
        <time>2024-04-19T12:06:58Z</time>
      </trkpt>
      <trkpt lat="42.93845607" lon="13.62179361">
        <ele>450.00000</ele>
        <time>2024-04-19T12:06:59Z</time>
      </trkpt>
      <trkpt lat="42.93847242" lon="13.62167777">
        <ele>450.00000</ele>
        <time>2024-04-19T12:07:00Z</time>
      </trkpt>
      <trkpt lat="42.93848474" lon="13.62155732">
        <ele>449.00000</ele>
        <time>2024-04-19T12:07:01Z</time>
      </trkpt>
      <trkpt lat="42.93850863" lon="13.62143352">
        <ele>448.00000</ele>
        <time>2024-04-19T12:07:02Z</time>
      </trkpt>
      <trkpt lat="42.93852489" lon="13.62127971">
        <ele>446.00000</ele>
        <time>2024-04-19T12:07:03Z</time>
      </trkpt>
      <trkpt lat="42.93852749" lon="13.62110503">
        <ele>444.00000</ele>
        <time>2024-04-19T12:07:04Z</time>
      </trkpt>
      <trkpt lat="42.93852849" lon="13.62091762">
        <ele>442.00000</ele>
        <time>2024-04-19T12:07:05Z</time>
      </trkpt>
      <trkpt lat="42.93853729" lon="13.62076004">
        <ele>440.00000</ele>
        <time>2024-04-19T12:07:06Z</time>
      </trkpt>
      <trkpt lat="42.93855322" lon="13.62062718">
        <ele>439.00000</ele>
        <time>2024-04-19T12:07:07Z</time>
      </trkpt>
      <trkpt lat="42.93856755" lon="13.62049525">
        <ele>438.00000</ele>
        <time>2024-04-19T12:07:08Z</time>
      </trkpt>
      <trkpt lat="42.93858222" lon="13.62036215">
        <ele>437.00000</ele>
        <time>2024-04-19T12:07:09Z</time>
      </trkpt>
      <trkpt lat="42.93858708" lon="13.62022519">
        <ele>436.00000</ele>
        <time>2024-04-19T12:07:10Z</time>
      </trkpt>
      <trkpt lat="42.93858038" lon="13.62009728">
        <ele>433.00000</ele>
        <time>2024-04-19T12:07:11Z</time>
      </trkpt>
      <trkpt lat="42.93855230" lon="13.61998111">
        <ele>432.00000</ele>
        <time>2024-04-19T12:07:12Z</time>
      </trkpt>
      <trkpt lat="42.93850293" lon="13.61987767">
        <ele>431.00000</ele>
        <time>2024-04-19T12:07:13Z</time>
      </trkpt>
      <trkpt lat="42.93841727" lon="13.61982026">
        <ele>431.00000</ele>
        <time>2024-04-19T12:07:14Z</time>
      </trkpt>
      <trkpt lat="42.93832607" lon="13.61977650">
        <ele>432.00000</ele>
        <time>2024-04-19T12:07:15Z</time>
      </trkpt>
      <trkpt lat="42.93823169" lon="13.61974960">
        <ele>432.00000</ele>
        <time>2024-04-19T12:07:16Z</time>
      </trkpt>
      <trkpt lat="42.93813714" lon="13.61973225">
        <ele>432.00000</ele>
        <time>2024-04-19T12:07:17Z</time>
      </trkpt>
      <trkpt lat="42.93803966" lon="13.61971221">
        <ele>431.00000</ele>
        <time>2024-04-19T12:07:18Z</time>
      </trkpt>
      <trkpt lat="42.93794495" lon="13.61967760">
        <ele>431.00000</ele>
        <time>2024-04-19T12:07:19Z</time>
      </trkpt>
      <trkpt lat="42.93785660" lon="13.61960954">
        <ele>431.00000</ele>
        <time>2024-04-19T12:07:20Z</time>
      </trkpt>
      <trkpt lat="42.93778988" lon="13.61951742">
        <ele>430.00000</ele>
        <time>2024-04-19T12:07:21Z</time>
      </trkpt>
      <trkpt lat="42.93773657" lon="13.61941306">
        <ele>430.00000</ele>
        <time>2024-04-19T12:07:22Z</time>
      </trkpt>
      <trkpt lat="42.93769139" lon="13.61931022">
        <ele>430.00000</ele>
        <time>2024-04-19T12:07:23Z</time>
      </trkpt>
      <trkpt lat="42.93766935" lon="13.61919245">
        <ele>431.00000</ele>
        <time>2024-04-19T12:07:24Z</time>
      </trkpt>
      <trkpt lat="42.93766633" lon="13.61907200">
        <ele>431.00000</ele>
        <time>2024-04-19T12:07:25Z</time>
      </trkpt>
      <trkpt lat="42.93766306" lon="13.61895692">
        <ele>431.00000</ele>
        <time>2024-04-19T12:07:26Z</time>
      </trkpt>
      <trkpt lat="42.93766030" lon="13.61884921">
        <ele>432.00000</ele>
        <time>2024-04-19T12:07:27Z</time>
      </trkpt>
      <trkpt lat="42.93766231" lon="13.61875064">
        <ele>432.00000</ele>
        <time>2024-04-19T12:07:28Z</time>
      </trkpt>
      <trkpt lat="42.93766239" lon="13.61864629">
        <ele>432.00000</ele>
        <time>2024-04-19T12:07:29Z</time>
      </trkpt>
      <trkpt lat="42.93765787" lon="13.61853715">
        <ele>432.00000</ele>
        <time>2024-04-19T12:07:30Z</time>
      </trkpt>
      <trkpt lat="42.93765267" lon="13.61842668">
        <ele>432.00000</ele>
        <time>2024-04-19T12:07:31Z</time>
      </trkpt>
      <trkpt lat="42.93764697" lon="13.61831260">
        <ele>431.00000</ele>
        <time>2024-04-19T12:07:32Z</time>
      </trkpt>
      <trkpt lat="42.93764387" lon="13.61819853">
        <ele>430.00000</ele>
        <time>2024-04-19T12:07:33Z</time>
      </trkpt>
      <trkpt lat="42.93764085" lon="13.61808118">
        <ele>429.00000</ele>
        <time>2024-04-19T12:07:34Z</time>
      </trkpt>
      <trkpt lat="42.93763632" lon="13.61796157">
        <ele>428.00000</ele>
        <time>2024-04-19T12:07:35Z</time>
      </trkpt>
      <trkpt lat="42.93763029" lon="13.61783961">
        <ele>427.00000</ele>
        <time>2024-04-19T12:07:36Z</time>
      </trkpt>
      <trkpt lat="42.93762492" lon="13.61771984">
        <ele>426.00000</ele>
        <time>2024-04-19T12:07:37Z</time>
      </trkpt>
      <trkpt lat="42.93762451" lon="13.61760090">
        <ele>425.00000</ele>
        <time>2024-04-19T12:07:38Z</time>
      </trkpt>
      <trkpt lat="42.93762736" lon="13.61747626">
        <ele>425.00000</ele>
        <time>2024-04-19T12:07:39Z</time>
      </trkpt>
      <trkpt lat="42.93763448" lon="13.61735346">
        <ele>424.00000</ele>
        <time>2024-04-19T12:07:40Z</time>
      </trkpt>
      <trkpt lat="42.93764479" lon="13.61722991">
        <ele>423.00000</ele>
        <time>2024-04-19T12:07:41Z</time>
      </trkpt>
      <trkpt lat="42.93765795" lon="13.61710754">
        <ele>424.00000</ele>
        <time>2024-04-19T12:07:42Z</time>
      </trkpt>
      <trkpt lat="42.93767329" lon="13.61698952">
        <ele>425.00000</ele>
        <time>2024-04-19T12:07:43Z</time>
      </trkpt>
      <trkpt lat="42.93769483" lon="13.61688131">
        <ele>426.00000</ele>
        <time>2024-04-19T12:07:44Z</time>
      </trkpt>
      <trkpt lat="42.93771394" lon="13.61677050">
        <ele>427.00000</ele>
        <time>2024-04-19T12:07:45Z</time>
      </trkpt>
      <trkpt lat="42.93773389" lon="13.61666589">
        <ele>427.00000</ele>
        <time>2024-04-19T12:07:46Z</time>
      </trkpt>
      <trkpt lat="42.93775334" lon="13.61655844">
        <ele>428.00000</ele>
        <time>2024-04-19T12:07:47Z</time>
      </trkpt>
      <trkpt lat="42.93777680" lon="13.61645241">
        <ele>430.00000</ele>
        <time>2024-04-19T12:07:48Z</time>
      </trkpt>
      <trkpt lat="42.93780161" lon="13.61634990">
        <ele>430.00000</ele>
        <time>2024-04-19T12:07:49Z</time>
      </trkpt>
      <trkpt lat="42.93782450" lon="13.61624730">
        <ele>429.00000</ele>
        <time>2024-04-19T12:07:50Z</time>
      </trkpt>
      <trkpt lat="42.93784520" lon="13.61614647">
        <ele>429.00000</ele>
        <time>2024-04-19T12:07:51Z</time>
      </trkpt>
      <trkpt lat="42.93787010" lon="13.61602753">
        <ele>429.00000</ele>
        <time>2024-04-19T12:07:52Z</time>
      </trkpt>
      <trkpt lat="42.93788753" lon="13.61595109">
        <ele>429.00000</ele>
        <time>2024-04-19T12:07:53Z</time>
      </trkpt>
      <trkpt lat="42.93790790" lon="13.61585671">
        <ele>429.00000</ele>
        <time>2024-04-19T12:07:54Z</time>
      </trkpt>
      <trkpt lat="42.93792701" lon="13.61575897">
        <ele>429.00000</ele>
        <time>2024-04-19T12:07:55Z</time>
      </trkpt>
      <trkpt lat="42.93794453" lon="13.61565898">
        <ele>429.00000</ele>
        <time>2024-04-19T12:07:56Z</time>
      </trkpt>
      <trkpt lat="42.93796305" lon="13.61555865">
        <ele>429.00000</ele>
        <time>2024-04-19T12:07:57Z</time>
      </trkpt>
      <trkpt lat="42.93798434" lon="13.61546116">
        <ele>429.00000</ele>
        <time>2024-04-19T12:07:58Z</time>
      </trkpt>
      <trkpt lat="42.93800848" lon="13.61536620">
        <ele>429.00000</ele>
        <time>2024-04-19T12:07:59Z</time>
      </trkpt>
      <trkpt lat="42.93803069" lon="13.61526846">
        <ele>430.00000</ele>
        <time>2024-04-19T12:08:00Z</time>
      </trkpt>
      <trkpt lat="42.93804829" lon="13.61516470">
        <ele>430.00000</ele>
        <time>2024-04-19T12:08:01Z</time>
      </trkpt>
      <trkpt lat="42.93806405" lon="13.61506227">
        <ele>430.00000</ele>
        <time>2024-04-19T12:08:02Z</time>
      </trkpt>
      <trkpt lat="42.93807906" lon="13.61496244">
        <ele>430.00000</ele>
        <time>2024-04-19T12:08:03Z</time>
      </trkpt>
      <trkpt lat="42.93809557" lon="13.61486337">
        <ele>430.00000</ele>
        <time>2024-04-19T12:08:04Z</time>
      </trkpt>
      <trkpt lat="42.93811309" lon="13.61476320">
        <ele>430.00000</ele>
        <time>2024-04-19T12:08:05Z</time>
      </trkpt>
      <trkpt lat="42.93813563" lon="13.61466639">
        <ele>430.00000</ele>
        <time>2024-04-19T12:08:06Z</time>
      </trkpt>
      <trkpt lat="42.93815709" lon="13.61457159">
        <ele>429.00000</ele>
        <time>2024-04-19T12:08:07Z</time>
      </trkpt>
      <trkpt lat="42.93818081" lon="13.61447738">
        <ele>428.00000</ele>
        <time>2024-04-19T12:08:08Z</time>
      </trkpt>
      <trkpt lat="42.93820629" lon="13.61438560">
        <ele>428.00000</ele>
        <time>2024-04-19T12:08:09Z</time>
      </trkpt>
      <trkpt lat="42.93822574" lon="13.61429365">
        <ele>428.00000</ele>
        <time>2024-04-19T12:08:10Z</time>
      </trkpt>
      <trkpt lat="42.93824250" lon="13.61420539">
        <ele>428.00000</ele>
        <time>2024-04-19T12:08:11Z</time>
      </trkpt>
      <trkpt lat="42.93826027" lon="13.61411989">
        <ele>429.00000</ele>
        <time>2024-04-19T12:08:12Z</time>
      </trkpt>
      <trkpt lat="42.93827938" lon="13.61403414">
        <ele>430.00000</ele>
        <time>2024-04-19T12:08:13Z</time>
      </trkpt>
      <trkpt lat="42.93830126" lon="13.61395167">
        <ele>431.00000</ele>
        <time>2024-04-19T12:08:14Z</time>
      </trkpt>
      <trkpt lat="42.93832657" lon="13.61387154">
        <ele>432.00000</ele>
        <time>2024-04-19T12:08:15Z</time>
      </trkpt>
      <trkpt lat="42.93835231" lon="13.61379258">
        <ele>432.00000</ele>
        <time>2024-04-19T12:08:16Z</time>
      </trkpt>
      <trkpt lat="42.93837745" lon="13.61371714">
        <ele>433.00000</ele>
        <time>2024-04-19T12:08:17Z</time>
      </trkpt>
      <trkpt lat="42.93840084" lon="13.61363986">
        <ele>433.00000</ele>
        <time>2024-04-19T12:08:18Z</time>
      </trkpt>
      <trkpt lat="42.93842523" lon="13.61356526">
        <ele>434.00000</ele>
        <time>2024-04-19T12:08:19Z</time>
      </trkpt>
      <trkpt lat="42.93845063" lon="13.61349611">
        <ele>434.00000</ele>
        <time>2024-04-19T12:08:20Z</time>
      </trkpt>
      <trkpt lat="42.93847711" lon="13.61342981">
        <ele>435.00000</ele>
        <time>2024-04-19T12:08:21Z</time>
      </trkpt>
      <trkpt lat="42.93850528" lon="13.61336569">
        <ele>435.00000</ele>
        <time>2024-04-19T12:08:22Z</time>
      </trkpt>
      <trkpt lat="42.93853151" lon="13.61330232">
        <ele>435.00000</ele>
        <time>2024-04-19T12:08:23Z</time>
      </trkpt>
      <trkpt lat="42.93855590" lon="13.61324063">
        <ele>435.00000</ele>
        <time>2024-04-19T12:08:24Z</time>
      </trkpt>
      <trkpt lat="42.93857828" lon="13.61318120">
        <ele>435.00000</ele>
        <time>2024-04-19T12:08:25Z</time>
      </trkpt>
      <trkpt lat="42.93860376" lon="13.61312136">
        <ele>435.00000</ele>
        <time>2024-04-19T12:08:26Z</time>
      </trkpt>
      <trkpt lat="42.93863209" lon="13.61306034">
        <ele>435.00000</ele>
        <time>2024-04-19T12:08:27Z</time>
      </trkpt>
      <trkpt lat="42.93866378" lon="13.61300191">
        <ele>435.00000</ele>
        <time>2024-04-19T12:08:28Z</time>
      </trkpt>
      <trkpt lat="42.93869119" lon="13.61294064">
        <ele>436.00000</ele>
        <time>2024-04-19T12:08:29Z</time>
      </trkpt>
      <trkpt lat="42.93871549" lon="13.61287510">
        <ele>436.00000</ele>
        <time>2024-04-19T12:08:30Z</time>
      </trkpt>
      <trkpt lat="42.93874156" lon="13.61280980">
        <ele>437.00000</ele>
        <time>2024-04-19T12:08:31Z</time>
      </trkpt>
      <trkpt lat="42.93876864" lon="13.61274702">
        <ele>437.00000</ele>
        <time>2024-04-19T12:08:32Z</time>
      </trkpt>
      <trkpt lat="42.93879764" lon="13.61268332">
        <ele>438.00000</ele>
        <time>2024-04-19T12:08:33Z</time>
      </trkpt>
      <trkpt lat="42.93882714" lon="13.61261643">
        <ele>438.00000</ele>
        <time>2024-04-19T12:08:34Z</time>
      </trkpt>
      <trkpt lat="42.93885824" lon="13.61254946">
        <ele>439.00000</ele>
        <time>2024-04-19T12:08:35Z</time>
      </trkpt>
      <trkpt lat="42.93888950" lon="13.61248509">
        <ele>440.00000</ele>
        <time>2024-04-19T12:08:36Z</time>
      </trkpt>
      <trkpt lat="42.93891800" lon="13.61241912">
        <ele>439.00000</ele>
        <time>2024-04-19T12:08:37Z</time>
      </trkpt>
      <trkpt lat="42.93894549" lon="13.61234997">
        <ele>439.00000</ele>
        <time>2024-04-19T12:08:38Z</time>
      </trkpt>
      <trkpt lat="42.93897056" lon="13.61228291">
        <ele>439.00000</ele>
        <time>2024-04-19T12:08:39Z</time>
      </trkpt>
      <trkpt lat="42.93899520" lon="13.61221519">
        <ele>439.00000</ele>
        <time>2024-04-19T12:08:40Z</time>
      </trkpt>
      <trkpt lat="42.93902135" lon="13.61214612">
        <ele>439.00000</ele>
        <time>2024-04-19T12:08:41Z</time>
      </trkpt>
      <trkpt lat="42.93904633" lon="13.61207479">
        <ele>439.00000</ele>
        <time>2024-04-19T12:08:42Z</time>
      </trkpt>
      <trkpt lat="42.93907206" lon="13.61200371">
        <ele>440.00000</ele>
        <time>2024-04-19T12:08:43Z</time>
      </trkpt>
      <trkpt lat="42.93909595" lon="13.61193213">
        <ele>440.00000</ele>
        <time>2024-04-19T12:08:44Z</time>
      </trkpt>
      <trkpt lat="42.93911682" lon="13.61185938">
        <ele>440.00000</ele>
        <time>2024-04-19T12:08:45Z</time>
      </trkpt>
      <trkpt lat="42.93913350" lon="13.61178168">
        <ele>440.00000</ele>
        <time>2024-04-19T12:08:46Z</time>
      </trkpt>
      <trkpt lat="42.93914741" lon="13.61170255">
        <ele>440.00000</ele>
        <time>2024-04-19T12:08:47Z</time>
      </trkpt>
      <trkpt lat="42.93915948" lon="13.61162334">
        <ele>441.00000</ele>
        <time>2024-04-19T12:08:48Z</time>
      </trkpt>
      <trkpt lat="42.93916996" lon="13.61154723">
        <ele>440.00000</ele>
        <time>2024-04-19T12:08:49Z</time>
      </trkpt>
      <trkpt lat="42.93918195" lon="13.61147012">
        <ele>440.00000</ele>
        <time>2024-04-19T12:08:50Z</time>
      </trkpt>
      <trkpt lat="42.93919410" lon="13.61139125">
        <ele>440.00000</ele>
        <time>2024-04-19T12:08:51Z</time>
      </trkpt>
      <trkpt lat="42.93920475" lon="13.61130760">
        <ele>438.00000</ele>
        <time>2024-04-19T12:08:52Z</time>
      </trkpt>
      <trkpt lat="42.93921489" lon="13.61122319">
        <ele>437.00000</ele>
        <time>2024-04-19T12:08:53Z</time>
      </trkpt>
      <trkpt lat="42.93922671" lon="13.61114080">
        <ele>436.00000</ele>
        <time>2024-04-19T12:08:54Z</time>
      </trkpt>
      <trkpt lat="42.93923978" lon="13.61105907">
        <ele>436.00000</ele>
        <time>2024-04-19T12:08:55Z</time>
      </trkpt>
      <trkpt lat="42.93925386" lon="13.61097869">
        <ele>435.00000</ele>
        <time>2024-04-19T12:08:56Z</time>
      </trkpt>
      <trkpt lat="42.93926836" lon="13.61089671">
        <ele>434.00000</ele>
        <time>2024-04-19T12:08:57Z</time>
      </trkpt>
      <trkpt lat="42.93928504" lon="13.61081264">
        <ele>433.00000</ele>
        <time>2024-04-19T12:08:58Z</time>
      </trkpt>
      <trkpt lat="42.93930340" lon="13.61073017">
        <ele>431.00000</ele>
        <time>2024-04-19T12:08:59Z</time>
      </trkpt>
      <trkpt lat="42.93932436" lon="13.61064853">
        <ele>429.00000</ele>
        <time>2024-04-19T12:09:00Z</time>
      </trkpt>
      <trkpt lat="42.93934925" lon="13.61056705">
        <ele>428.00000</ele>
        <time>2024-04-19T12:09:01Z</time>
      </trkpt>
      <trkpt lat="42.93937783" lon="13.61048676">
        <ele>428.00000</ele>
        <time>2024-04-19T12:09:02Z</time>
      </trkpt>
      <trkpt lat="42.93940901" lon="13.61040621">
        <ele>427.00000</ele>
        <time>2024-04-19T12:09:03Z</time>
      </trkpt>
      <trkpt lat="42.93944899" lon="13.61030713">
        <ele>428.00000</ele>
        <time>2024-04-19T12:09:04Z</time>
      </trkpt>
      <trkpt lat="42.93947950" lon="13.61024150">
        <ele>428.00000</ele>
        <time>2024-04-19T12:09:05Z</time>
      </trkpt>
      <trkpt lat="42.93951940" lon="13.61016263">
        <ele>429.00000</ele>
        <time>2024-04-19T12:09:06Z</time>
      </trkpt>
      <trkpt lat="42.93956299" lon="13.61008786">
        <ele>431.00000</ele>
        <time>2024-04-19T12:09:07Z</time>
      </trkpt>
      <trkpt lat="42.93960825" lon="13.61001393">
        <ele>432.00000</ele>
        <time>2024-04-19T12:09:08Z</time>
      </trkpt>
      <trkpt lat="42.93965209" lon="13.60993883">
        <ele>433.00000</ele>
        <time>2024-04-19T12:09:09Z</time>
      </trkpt>
      <trkpt lat="42.93970556" lon="13.60984923">
        <ele>434.00000</ele>
        <time>2024-04-19T12:09:10Z</time>
      </trkpt>
      <trkpt lat="42.93974177" lon="13.60978771">
        <ele>435.00000</ele>
        <time>2024-04-19T12:09:11Z</time>
      </trkpt>
      <trkpt lat="42.93978829" lon="13.60970875">
        <ele>436.00000</ele>
        <time>2024-04-19T12:09:12Z</time>
      </trkpt>
      <trkpt lat="42.93984789" lon="13.60961152">
        <ele>436.00000</ele>
        <time>2024-04-19T12:09:13Z</time>
      </trkpt>
      <trkpt lat="42.93989877" lon="13.60952728">
        <ele>437.00000</ele>
        <time>2024-04-19T12:09:14Z</time>
      </trkpt>
      <trkpt lat="42.93995090" lon="13.60944271">
        <ele>437.00000</ele>
        <time>2024-04-19T12:09:15Z</time>
      </trkpt>
      <trkpt lat="42.93999474" lon="13.60937523">
        <ele>438.00000</ele>
        <time>2024-04-19T12:09:16Z</time>
      </trkpt>
      <trkpt lat="42.94004939" lon="13.60929267">
        <ele>438.00000</ele>
        <time>2024-04-19T12:09:17Z</time>
      </trkpt>
      <trkpt lat="42.94011468" lon="13.60919293">
        <ele>439.00000</ele>
        <time>2024-04-19T12:09:18Z</time>
      </trkpt>
      <trkpt lat="42.94016942" lon="13.60911028">
        <ele>439.00000</ele>
        <time>2024-04-19T12:09:19Z</time>
      </trkpt>
      <trkpt lat="42.94022591" lon="13.60902898">
        <ele>439.00000</ele>
        <time>2024-04-19T12:09:20Z</time>
      </trkpt>
      <trkpt lat="42.94027210" lon="13.60896259">
        <ele>439.00000</ele>
        <time>2024-04-19T12:09:21Z</time>
      </trkpt>
      <trkpt lat="42.94032985" lon="13.60887936">
        <ele>440.00000</ele>
        <time>2024-04-19T12:09:22Z</time>
      </trkpt>
      <trkpt lat="42.94039783" lon="13.60877785">
        <ele>440.00000</ele>
        <time>2024-04-19T12:09:23Z</time>
      </trkpt>
      <trkpt lat="42.94045348" lon="13.60869244">
        <ele>441.00000</ele>
        <time>2024-04-19T12:09:24Z</time>
      </trkpt>
      <trkpt lat="42.94049832" lon="13.60862564">
        <ele>441.00000</ele>
        <time>2024-04-19T12:09:25Z</time>
      </trkpt>
      <trkpt lat="42.94055306" lon="13.60853956">
        <ele>442.00000</ele>
        <time>2024-04-19T12:09:26Z</time>
      </trkpt>
      <trkpt lat="42.94061467" lon="13.60843034">
        <ele>441.00000</ele>
        <time>2024-04-19T12:09:27Z</time>
      </trkpt>
      <trkpt lat="42.94066077" lon="13.60833378">
        <ele>441.00000</ele>
        <time>2024-04-19T12:09:28Z</time>
      </trkpt>
      <trkpt lat="42.94070175" lon="13.60823504">
        <ele>440.00000</ele>
        <time>2024-04-19T12:09:29Z</time>
      </trkpt>
      <trkpt lat="42.94073050" lon="13.60815349">
        <ele>439.00000</ele>
        <time>2024-04-19T12:09:30Z</time>
      </trkpt>
      <trkpt lat="42.94076294" lon="13.60804863">
        <ele>439.00000</ele>
        <time>2024-04-19T12:09:31Z</time>
      </trkpt>
      <trkpt lat="42.94079462" lon="13.60791561">
        <ele>437.00000</ele>
        <time>2024-04-19T12:09:32Z</time>
      </trkpt>
      <trkpt lat="42.94081776" lon="13.60779843">
        <ele>435.00000</ele>
        <time>2024-04-19T12:09:33Z</time>
      </trkpt>
      <trkpt lat="42.94084173" lon="13.60767949">
        <ele>434.00000</ele>
        <time>2024-04-19T12:09:34Z</time>
      </trkpt>
      <trkpt lat="42.94085942" lon="13.60758083">
        <ele>432.00000</ele>
        <time>2024-04-19T12:09:35Z</time>
      </trkpt>
      <trkpt lat="42.94087962" lon="13.60745930">
        <ele>431.00000</ele>
        <time>2024-04-19T12:09:36Z</time>
      </trkpt>
      <trkpt lat="42.94090208" lon="13.60731328">
        <ele>431.00000</ele>
        <time>2024-04-19T12:09:37Z</time>
      </trkpt>
      <trkpt lat="42.94091826" lon="13.60718797">
        <ele>431.00000</ele>
        <time>2024-04-19T12:09:38Z</time>
      </trkpt>
      <trkpt lat="42.94093527" lon="13.60706283">
        <ele>431.00000</ele>
        <time>2024-04-19T12:09:39Z</time>
      </trkpt>
      <trkpt lat="42.94094810" lon="13.60696007">
        <ele>431.00000</ele>
        <time>2024-04-19T12:09:40Z</time>
      </trkpt>
      <trkpt lat="42.94096645" lon="13.60680685">
        <ele>430.00000</ele>
        <time>2024-04-19T12:09:41Z</time>
      </trkpt>
      <trkpt lat="42.94098104" lon="13.60668070">
        <ele>430.00000</ele>
        <time>2024-04-19T12:09:42Z</time>
      </trkpt>
      <trkpt lat="42.94099378" lon="13.60658263">
        <ele>430.00000</ele>
        <time>2024-04-19T12:09:43Z</time>
      </trkpt>
      <trkpt lat="42.94100937" lon="13.60646110">
        <ele>431.00000</ele>
        <time>2024-04-19T12:09:44Z</time>
      </trkpt>
      <trkpt lat="42.94102169" lon="13.60633679">
        <ele>431.00000</ele>
        <time>2024-04-19T12:09:45Z</time>
      </trkpt>
      <trkpt lat="42.94103108" lon="13.60620872">
        <ele>431.00000</ele>
        <time>2024-04-19T12:09:46Z</time>
      </trkpt>
      <trkpt lat="42.94103913" lon="13.60607913">
        <ele>431.00000</ele>
        <time>2024-04-19T12:09:47Z</time>
      </trkpt>
      <trkpt lat="42.94104516" lon="13.60594812">
        <ele>431.00000</ele>
        <time>2024-04-19T12:09:48Z</time>
      </trkpt>
      <trkpt lat="42.94104985" lon="13.60581619">
        <ele>431.00000</ele>
        <time>2024-04-19T12:09:49Z</time>
      </trkpt>
      <trkpt lat="42.94105296" lon="13.60568527">
        <ele>432.00000</ele>
        <time>2024-04-19T12:09:50Z</time>
      </trkpt>
      <trkpt lat="42.94105270" lon="13.60555593">
        <ele>432.00000</ele>
        <time>2024-04-19T12:09:51Z</time>
      </trkpt>
      <trkpt lat="42.94104843" lon="13.60542627">
        <ele>432.00000</ele>
        <time>2024-04-19T12:09:52Z</time>
      </trkpt>
      <trkpt lat="42.94104399" lon="13.60529827">
        <ele>432.00000</ele>
        <time>2024-04-19T12:09:53Z</time>
      </trkpt>
      <trkpt lat="42.94103854" lon="13.60517037">
        <ele>432.00000</ele>
        <time>2024-04-19T12:09:54Z</time>
      </trkpt>
      <trkpt lat="42.94103024" lon="13.60504380">
        <ele>433.00000</ele>
        <time>2024-04-19T12:09:55Z</time>
      </trkpt>
      <trkpt lat="42.94101884" lon="13.60491748">
        <ele>433.00000</ele>
        <time>2024-04-19T12:09:56Z</time>
      </trkpt>
      <trkpt lat="42.94100476" lon="13.60478941">
        <ele>433.00000</ele>
        <time>2024-04-19T12:09:57Z</time>
      </trkpt>
      <trkpt lat="42.94099453" lon="13.60466293">
        <ele>432.00000</ele>
        <time>2024-04-19T12:09:58Z</time>
      </trkpt>
      <trkpt lat="42.94098615" lon="13.60453845">
        <ele>432.00000</ele>
        <time>2024-04-19T12:09:59Z</time>
      </trkpt>
      <trkpt lat="42.94097660" lon="13.60441155">
        <ele>431.00000</ele>
        <time>2024-04-19T12:10:00Z</time>
      </trkpt>
      <trkpt lat="42.94096738" lon="13.60428180">
        <ele>430.00000</ele>
        <time>2024-04-19T12:10:01Z</time>
      </trkpt>
      <trkpt lat="42.94096251" lon="13.60415431">
        <ele>429.00000</ele>
        <time>2024-04-19T12:10:02Z</time>
      </trkpt>
      <trkpt lat="42.94096168" lon="13.60402833">
        <ele>428.00000</ele>
        <time>2024-04-19T12:10:03Z</time>
      </trkpt>
      <trkpt lat="42.94096411" lon="13.60390277">
        <ele>428.00000</ele>
        <time>2024-04-19T12:10:04Z</time>
      </trkpt>
      <trkpt lat="42.94097006" lon="13.60377570">
        <ele>428.00000</ele>
        <time>2024-04-19T12:10:05Z</time>
      </trkpt>
      <trkpt lat="42.94097911" lon="13.60364645">
        <ele>428.00000</ele>
        <time>2024-04-19T12:10:06Z</time>
      </trkpt>
      <trkpt lat="42.94099403" lon="13.60352315">
        <ele>428.00000</ele>
        <time>2024-04-19T12:10:07Z</time>
      </trkpt>
      <trkpt lat="42.94100996" lon="13.60339977">
        <ele>428.00000</ele>
        <time>2024-04-19T12:10:08Z</time>
      </trkpt>
      <trkpt lat="42.94102957" lon="13.60328134">
        <ele>429.00000</ele>
        <time>2024-04-19T12:10:09Z</time>
      </trkpt>
      <trkpt lat="42.94104985" lon="13.60316198">
        <ele>429.00000</ele>
        <time>2024-04-19T12:10:10Z</time>
      </trkpt>
      <trkpt lat="42.94107198" lon="13.60304388">
        <ele>429.00000</ele>
        <time>2024-04-19T12:10:11Z</time>
      </trkpt>
      <trkpt lat="42.94109269" lon="13.60292511">
        <ele>429.00000</ele>
        <time>2024-04-19T12:10:12Z</time>
      </trkpt>
      <trkpt lat="42.94111414" lon="13.60280742">
        <ele>429.00000</ele>
        <time>2024-04-19T12:10:13Z</time>
      </trkpt>
      <trkpt lat="42.94113636" lon="13.60269301">
        <ele>429.00000</ele>
        <time>2024-04-19T12:10:14Z</time>
      </trkpt>
      <trkpt lat="42.94115513" lon="13.60257885">
        <ele>429.00000</ele>
        <time>2024-04-19T12:10:15Z</time>
      </trkpt>
      <trkpt lat="42.94117407" lon="13.60246720">
        <ele>429.00000</ele>
        <time>2024-04-19T12:10:16Z</time>
      </trkpt>
      <trkpt lat="42.94119075" lon="13.60235748">
        <ele>429.00000</ele>
        <time>2024-04-19T12:10:17Z</time>
      </trkpt>
      <trkpt lat="42.94120257" lon="13.60224533">
        <ele>429.00000</ele>
        <time>2024-04-19T12:10:18Z</time>
      </trkpt>
      <trkpt lat="42.94120903" lon="13.60212882">
        <ele>430.00000</ele>
        <time>2024-04-19T12:10:19Z</time>
      </trkpt>
      <trkpt lat="42.94120802" lon="13.60201684">
        <ele>430.00000</ele>
        <time>2024-04-19T12:10:20Z</time>
      </trkpt>
      <trkpt lat="42.94119754" lon="13.60190947">
        <ele>431.00000</ele>
        <time>2024-04-19T12:10:21Z</time>
      </trkpt>
      <trkpt lat="42.94117935" lon="13.60180595">
        <ele>431.00000</ele>
        <time>2024-04-19T12:10:22Z</time>
      </trkpt>
      <trkpt lat="42.94115438" lon="13.60170369">
        <ele>432.00000</ele>
        <time>2024-04-19T12:10:23Z</time>
      </trkpt>
      <trkpt lat="42.94112487" lon="13.60160345">
        <ele>433.00000</ele>
        <time>2024-04-19T12:10:24Z</time>
      </trkpt>
      <trkpt lat="42.94109201" lon="13.60150421">
        <ele>434.00000</ele>
        <time>2024-04-19T12:10:25Z</time>
      </trkpt>
      <trkpt lat="42.94106486" lon="13.60140630">
        <ele>434.00000</ele>
        <time>2024-04-19T12:10:26Z</time>
      </trkpt>
      <trkpt lat="42.94104734" lon="13.60130564">
        <ele>434.00000</ele>
        <time>2024-04-19T12:10:27Z</time>
      </trkpt>
      <trkpt lat="42.94103527" lon="13.60120455">
        <ele>434.00000</ele>
        <time>2024-04-19T12:10:28Z</time>
      </trkpt>
      <trkpt lat="42.94102706" lon="13.60110120">
        <ele>434.00000</ele>
        <time>2024-04-19T12:10:29Z</time>
      </trkpt>
      <trkpt lat="42.94102756" lon="13.60099861">
        <ele>434.00000</ele>
        <time>2024-04-19T12:10:30Z</time>
      </trkpt>
      <trkpt lat="42.94103695" lon="13.60089643">
        <ele>434.00000</ele>
        <time>2024-04-19T12:10:31Z</time>
      </trkpt>
      <trkpt lat="42.94105337" lon="13.60079560">
        <ele>435.00000</ele>
        <time>2024-04-19T12:10:32Z</time>
      </trkpt>
      <trkpt lat="42.94107575" lon="13.60069912">
        <ele>435.00000</ele>
        <time>2024-04-19T12:10:33Z</time>
      </trkpt>
      <trkpt lat="42.94110266" lon="13.60060458">
        <ele>435.00000</ele>
        <time>2024-04-19T12:10:34Z</time>
      </trkpt>
      <trkpt lat="42.94112873" lon="13.60050986">
        <ele>435.00000</ele>
        <time>2024-04-19T12:10:35Z</time>
      </trkpt>
      <trkpt lat="42.94115589" lon="13.60041565">
        <ele>435.00000</ele>
        <time>2024-04-19T12:10:36Z</time>
      </trkpt>
      <trkpt lat="42.94118640" lon="13.60032378">
        <ele>436.00000</ele>
        <time>2024-04-19T12:10:37Z</time>
      </trkpt>
      <trkpt lat="42.94121640" lon="13.60023208">
        <ele>436.00000</ele>
        <time>2024-04-19T12:10:38Z</time>
      </trkpt>
      <trkpt lat="42.94124691" lon="13.60014139">
        <ele>436.00000</ele>
        <time>2024-04-19T12:10:39Z</time>
      </trkpt>
      <trkpt lat="42.94127432" lon="13.60004743">
        <ele>436.00000</ele>
        <time>2024-04-19T12:10:40Z</time>
      </trkpt>
      <trkpt lat="42.94129737" lon="13.59995221">
        <ele>437.00000</ele>
        <time>2024-04-19T12:10:41Z</time>
      </trkpt>
      <trkpt lat="42.94131833" lon="13.59985657">
        <ele>437.00000</ele>
        <time>2024-04-19T12:10:42Z</time>
      </trkpt>
      <trkpt lat="42.94133434" lon="13.59976680">
        <ele>437.00000</ele>
        <time>2024-04-19T12:10:43Z</time>
      </trkpt>
      <trkpt lat="42.94134976" lon="13.59968399">
        <ele>438.00000</ele>
        <time>2024-04-19T12:10:44Z</time>
      </trkpt>
      <trkpt lat="42.94136325" lon="13.59960738">
        <ele>438.00000</ele>
        <time>2024-04-19T12:10:45Z</time>
      </trkpt>
      <trkpt lat="42.94137574" lon="13.59954167">
        <ele>439.00000</ele>
        <time>2024-04-19T12:10:46Z</time>
      </trkpt>
      <trkpt lat="42.94139150" lon="13.59948107">
        <ele>439.00000</ele>
        <time>2024-04-19T12:10:47Z</time>
      </trkpt>
      <trkpt lat="42.94140927" lon="13.59942164">
        <ele>439.00000</ele>
        <time>2024-04-19T12:10:48Z</time>
      </trkpt>
      <trkpt lat="42.94142478" lon="13.59936037">
        <ele>440.00000</ele>
        <time>2024-04-19T12:10:49Z</time>
      </trkpt>
      <trkpt lat="42.94143760" lon="13.59929800">
        <ele>440.00000</ele>
        <time>2024-04-19T12:10:50Z</time>
      </trkpt>
      <trkpt lat="42.94145059" lon="13.59923640">
        <ele>440.00000</ele>
        <time>2024-04-19T12:10:51Z</time>
      </trkpt>
      <trkpt lat="42.94146417" lon="13.59917429">
        <ele>441.00000</ele>
        <time>2024-04-19T12:10:52Z</time>
      </trkpt>
      <trkpt lat="42.94147959" lon="13.59911528">
        <ele>441.00000</ele>
        <time>2024-04-19T12:10:53Z</time>
      </trkpt>
      <trkpt lat="42.94149493" lon="13.59905820">
        <ele>442.00000</ele>
        <time>2024-04-19T12:10:54Z</time>
      </trkpt>
      <trkpt lat="42.94150985" lon="13.59900187">
        <ele>442.00000</ele>
        <time>2024-04-19T12:10:55Z</time>
      </trkpt>
      <trkpt lat="42.94152469" lon="13.59894437">
        <ele>442.00000</ele>
        <time>2024-04-19T12:10:56Z</time>
      </trkpt>
      <trkpt lat="42.94153802" lon="13.59888897">
        <ele>442.00000</ele>
        <time>2024-04-19T12:10:57Z</time>
      </trkpt>
      <trkpt lat="42.94155604" lon="13.59884119">
        <ele>442.00000</ele>
        <time>2024-04-19T12:10:58Z</time>
      </trkpt>
      <trkpt lat="42.94157833" lon="13.59879652">
        <ele>442.00000</ele>
        <time>2024-04-19T12:10:59Z</time>
      </trkpt>
      <trkpt lat="42.94160214" lon="13.59874891">
        <ele>442.00000</ele>
        <time>2024-04-19T12:11:00Z</time>
      </trkpt>
      <trkpt lat="42.94162452" lon="13.59870121">
        <ele>442.00000</ele>
        <time>2024-04-19T12:11:01Z</time>
      </trkpt>
      <trkpt lat="42.94164539" lon="13.59865092">
        <ele>442.00000</ele>
        <time>2024-04-19T12:11:02Z</time>
      </trkpt>
      <trkpt lat="42.94166391" lon="13.59860021">
        <ele>442.00000</ele>
        <time>2024-04-19T12:11:03Z</time>
      </trkpt>
      <trkpt lat="42.94168110" lon="13.59855101">
        <ele>442.00000</ele>
        <time>2024-04-19T12:11:04Z</time>
      </trkpt>
      <trkpt lat="42.94170549" lon="13.59850466">
        <ele>442.00000</ele>
        <time>2024-04-19T12:11:05Z</time>
      </trkpt>
      <trkpt lat="42.94173063" lon="13.59846225">
        <ele>443.00000</ele>
        <time>2024-04-19T12:11:06Z</time>
      </trkpt>
      <trkpt lat="42.94175527" lon="13.59841933">
        <ele>443.00000</ele>
        <time>2024-04-19T12:11:07Z</time>
      </trkpt>
      <trkpt lat="42.94178436" lon="13.59836158">
        <ele>443.00000</ele>
        <time>2024-04-19T12:11:08Z</time>
      </trkpt>
      <trkpt lat="42.94180330" lon="13.59832378">
        <ele>443.00000</ele>
        <time>2024-04-19T12:11:09Z</time>
      </trkpt>
      <trkpt lat="42.94182476" lon="13.59827608">
        <ele>444.00000</ele>
        <time>2024-04-19T12:11:10Z</time>
      </trkpt>
      <trkpt lat="42.94184639" lon="13.59822889">
        <ele>444.00000</ele>
        <time>2024-04-19T12:11:11Z</time>
      </trkpt>
      <trkpt lat="42.94187069" lon="13.59818246">
        <ele>445.00000</ele>
        <time>2024-04-19T12:11:12Z</time>
      </trkpt>
      <trkpt lat="42.94189668" lon="13.59814072">
        <ele>445.00000</ele>
        <time>2024-04-19T12:11:13Z</time>
      </trkpt>
      <trkpt lat="42.94192199" lon="13.59809638">
        <ele>446.00000</ele>
        <time>2024-04-19T12:11:14Z</time>
      </trkpt>
      <trkpt lat="42.94194454" lon="13.59804935">
        <ele>447.00000</ele>
        <time>2024-04-19T12:11:15Z</time>
      </trkpt>
      <trkpt lat="42.94196851" lon="13.59799353">
        <ele>447.00000</ele>
        <time>2024-04-19T12:11:16Z</time>
      </trkpt>
      <trkpt lat="42.94198846" lon="13.59796084">
        <ele>447.00000</ele>
        <time>2024-04-19T12:11:17Z</time>
      </trkpt>
      <trkpt lat="42.94201327" lon="13.59791549">
        <ele>448.00000</ele>
        <time>2024-04-19T12:11:18Z</time>
      </trkpt>
      <trkpt lat="42.94203875" lon="13.59787090">
        <ele>448.00000</ele>
        <time>2024-04-19T12:11:19Z</time>
      </trkpt>
      <trkpt lat="42.94206524" lon="13.59782338">
        <ele>448.00000</ele>
        <time>2024-04-19T12:11:20Z</time>
      </trkpt>
      <trkpt lat="42.94209390" lon="13.59777543">
        <ele>448.00000</ele>
        <time>2024-04-19T12:11:21Z</time>
      </trkpt>
      <trkpt lat="42.94212165" lon="13.59772874">
        <ele>449.00000</ele>
        <time>2024-04-19T12:11:22Z</time>
      </trkpt>
      <trkpt lat="42.94214763" lon="13.59768558">
        <ele>449.00000</ele>
        <time>2024-04-19T12:11:23Z</time>
      </trkpt>
      <trkpt lat="42.94217529" lon="13.59764048">
        <ele>450.00000</ele>
        <time>2024-04-19T12:11:24Z</time>
      </trkpt>
      <trkpt lat="42.94220471" lon="13.59759891">
        <ele>450.00000</ele>
        <time>2024-04-19T12:11:25Z</time>
      </trkpt>
      <trkpt lat="42.94223397" lon="13.59756102">
        <ele>451.00000</ele>
        <time>2024-04-19T12:11:26Z</time>
      </trkpt>
      <trkpt lat="42.94226305" lon="13.59751878">
        <ele>451.00000</ele>
        <time>2024-04-19T12:11:27Z</time>
      </trkpt>
      <trkpt lat="42.94229264" lon="13.59747419">
        <ele>451.00000</ele>
        <time>2024-04-19T12:11:28Z</time>
      </trkpt>
      <trkpt lat="42.94231862" lon="13.59742733">
        <ele>452.00000</ele>
        <time>2024-04-19T12:11:29Z</time>
      </trkpt>
      <trkpt lat="42.94234452" lon="13.59738157">
        <ele>452.00000</ele>
        <time>2024-04-19T12:11:30Z</time>
      </trkpt>
      <trkpt lat="42.94237252" lon="13.59733505">
        <ele>453.00000</ele>
        <time>2024-04-19T12:11:31Z</time>
      </trkpt>
      <trkpt lat="42.94240512" lon="13.59729188">
        <ele>454.00000</ele>
        <time>2024-04-19T12:11:32Z</time>
      </trkpt>
      <trkpt lat="42.94243781" lon="13.59724905">
        <ele>454.00000</ele>
        <time>2024-04-19T12:11:33Z</time>
      </trkpt>
      <trkpt lat="42.94247034" lon="13.59720672">
        <ele>455.00000</ele>
        <time>2024-04-19T12:11:34Z</time>
      </trkpt>
      <trkpt lat="42.94250328" lon="13.59716422">
        <ele>455.00000</ele>
        <time>2024-04-19T12:11:35Z</time>
      </trkpt>
      <trkpt lat="42.94253488" lon="13.59712164">
        <ele>455.00000</ele>
        <time>2024-04-19T12:11:36Z</time>
      </trkpt>
      <trkpt lat="42.94256664" lon="13.59707655">
        <ele>455.00000</ele>
        <time>2024-04-19T12:11:37Z</time>
      </trkpt>
      <trkpt lat="42.94259942" lon="13.59703078">
        <ele>455.00000</ele>
        <time>2024-04-19T12:11:38Z</time>
      </trkpt>
      <trkpt lat="42.94263035" lon="13.59698192">
        <ele>455.00000</ele>
        <time>2024-04-19T12:11:39Z</time>
      </trkpt>
      <trkpt lat="42.94265910" lon="13.59693364">
        <ele>455.00000</ele>
        <time>2024-04-19T12:11:40Z</time>
      </trkpt>
      <trkpt lat="42.94268684" lon="13.59688712">
        <ele>455.00000</ele>
        <time>2024-04-19T12:11:41Z</time>
      </trkpt>
      <trkpt lat="42.94271660" lon="13.59684328">
        <ele>455.00000</ele>
        <time>2024-04-19T12:11:42Z</time>
      </trkpt>
      <trkpt lat="42.94274677" lon="13.59679852">
        <ele>455.00000</ele>
        <time>2024-04-19T12:11:43Z</time>
      </trkpt>
      <trkpt lat="42.94277879" lon="13.59675334">
        <ele>455.00000</ele>
        <time>2024-04-19T12:11:44Z</time>
      </trkpt>
      <trkpt lat="42.94281039" lon="13.59670808">
        <ele>455.00000</ele>
        <time>2024-04-19T12:11:45Z</time>
      </trkpt>
      <trkpt lat="42.94284216" lon="13.59666424">
        <ele>455.00000</ele>
        <time>2024-04-19T12:11:46Z</time>
      </trkpt>
      <trkpt lat="42.94287158" lon="13.59661814">
        <ele>454.00000</ele>
        <time>2024-04-19T12:11:47Z</time>
      </trkpt>
      <trkpt lat="42.94290066" lon="13.59657271">
        <ele>454.00000</ele>
        <time>2024-04-19T12:11:48Z</time>
      </trkpt>
      <trkpt lat="42.94292723" lon="13.59652410">
        <ele>453.00000</ele>
        <time>2024-04-19T12:11:49Z</time>
      </trkpt>
      <trkpt lat="42.94295020" lon="13.59647397">
        <ele>453.00000</ele>
        <time>2024-04-19T12:11:50Z</time>
      </trkpt>
      <trkpt lat="42.94297325" lon="13.59642678">
        <ele>453.00000</ele>
        <time>2024-04-19T12:11:51Z</time>
      </trkpt>
      <trkpt lat="42.94299571" lon="13.59637683">
        <ele>453.00000</ele>
        <time>2024-04-19T12:11:52Z</time>
      </trkpt>
      <trkpt lat="42.94301834" lon="13.59632352">
        <ele>453.00000</ele>
        <time>2024-04-19T12:11:53Z</time>
      </trkpt>
      <trkpt lat="42.94304156" lon="13.59627063">
        <ele>454.00000</ele>
        <time>2024-04-19T12:11:54Z</time>
      </trkpt>
      <trkpt lat="42.94306495" lon="13.59621799">
        <ele>454.00000</ele>
        <time>2024-04-19T12:11:55Z</time>
      </trkpt>
      <trkpt lat="42.94308540" lon="13.59616217">
        <ele>455.00000</ele>
        <time>2024-04-19T12:11:56Z</time>
      </trkpt>
      <trkpt lat="42.94310124" lon="13.59610073">
        <ele>456.00000</ele>
        <time>2024-04-19T12:11:57Z</time>
      </trkpt>
      <trkpt lat="42.94311482" lon="13.59603703">
        <ele>456.00000</ele>
        <time>2024-04-19T12:11:58Z</time>
      </trkpt>
      <trkpt lat="42.94312614" lon="13.59597559">
        <ele>457.00000</ele>
        <time>2024-04-19T12:11:59Z</time>
      </trkpt>
      <trkpt lat="42.94313745" lon="13.59589981">
        <ele>457.00000</ele>
        <time>2024-04-19T12:12:00Z</time>
      </trkpt>
      <trkpt lat="42.94314189" lon="13.59584868">
        <ele>458.00000</ele>
        <time>2024-04-19T12:12:01Z</time>
      </trkpt>
      <trkpt lat="42.94314399" lon="13.59578557">
        <ele>458.00000</ele>
        <time>2024-04-19T12:12:02Z</time>
      </trkpt>
      <trkpt lat="42.94314525" lon="13.59572396">
        <ele>458.00000</ele>
        <time>2024-04-19T12:12:03Z</time>
      </trkpt>
      <trkpt lat="42.94314566" lon="13.59566244">
        <ele>458.00000</ele>
        <time>2024-04-19T12:12:04Z</time>
      </trkpt>
      <trkpt lat="42.94314566" lon="13.59560125">
        <ele>458.00000</ele>
        <time>2024-04-19T12:12:05Z</time>
      </trkpt>
      <trkpt lat="42.94314282" lon="13.59552908">
        <ele>459.00000</ele>
        <time>2024-04-19T12:12:06Z</time>
      </trkpt>
      <trkpt lat="42.94313460" lon="13.59546831">
        <ele>459.00000</ele>
        <time>2024-04-19T12:12:07Z</time>
      </trkpt>
      <trkpt lat="42.94312706" lon="13.59540788">
        <ele>459.00000</ele>
        <time>2024-04-19T12:12:08Z</time>
      </trkpt>
      <trkpt lat="42.94311993" lon="13.59534912">
        <ele>460.00000</ele>
        <time>2024-04-19T12:12:09Z</time>
      </trkpt>
      <trkpt lat="42.94311021" lon="13.59530285">
        <ele>460.00000</ele>
        <time>2024-04-19T12:12:10Z</time>
      </trkpt>
      <trkpt lat="42.94309236" lon="13.59524753">
        <ele>460.00000</ele>
        <time>2024-04-19T12:12:11Z</time>
      </trkpt>
      <trkpt lat="42.94307475" lon="13.59519464">
        <ele>461.00000</ele>
        <time>2024-04-19T12:12:12Z</time>
      </trkpt>
      <trkpt lat="42.94306201" lon="13.59514075">
        <ele>462.00000</ele>
        <time>2024-04-19T12:12:13Z</time>
      </trkpt>
      <trkpt lat="42.94304659" lon="13.59508551">
        <ele>463.00000</ele>
        <time>2024-04-19T12:12:14Z</time>
      </trkpt>
      <trkpt lat="42.94303100" lon="13.59503061">
        <ele>464.00000</ele>
        <time>2024-04-19T12:12:15Z</time>
      </trkpt>
      <trkpt lat="42.94301524" lon="13.59497638">
        <ele>464.00000</ele>
        <time>2024-04-19T12:12:16Z</time>
      </trkpt>
      <trkpt lat="42.94299622" lon="13.59492198">
        <ele>464.00000</ele>
        <time>2024-04-19T12:12:17Z</time>
      </trkpt>
      <trkpt lat="42.94297627" lon="13.59486976">
        <ele>465.00000</ele>
        <time>2024-04-19T12:12:18Z</time>
      </trkpt>
      <trkpt lat="42.94295749" lon="13.59482207">
        <ele>465.00000</ele>
        <time>2024-04-19T12:12:19Z</time>
      </trkpt>
      <trkpt lat="42.94293771" lon="13.59476876">
        <ele>465.00000</ele>
        <time>2024-04-19T12:12:20Z</time>
      </trkpt>
      <trkpt lat="42.94292019" lon="13.59471486">
        <ele>465.00000</ele>
        <time>2024-04-19T12:12:21Z</time>
      </trkpt>
      <trkpt lat="42.94290519" lon="13.59466306">
        <ele>466.00000</ele>
        <time>2024-04-19T12:12:22Z</time>
      </trkpt>
      <trkpt lat="42.94288859" lon="13.59461093">
        <ele>466.00000</ele>
        <time>2024-04-19T12:12:23Z</time>
      </trkpt>
      <trkpt lat="42.94286973" lon="13.59456248">
        <ele>466.00000</ele>
        <time>2024-04-19T12:12:24Z</time>
      </trkpt>
      <trkpt lat="42.94285322" lon="13.59451537">
        <ele>466.00000</ele>
        <time>2024-04-19T12:12:25Z</time>
      </trkpt>
      <trkpt lat="42.94283637" lon="13.59446366">
        <ele>467.00000</ele>
        <time>2024-04-19T12:12:26Z</time>
      </trkpt>
      <trkpt lat="42.94282036" lon="13.59441169">
        <ele>467.00000</ele>
        <time>2024-04-19T12:12:27Z</time>
      </trkpt>
      <trkpt lat="42.94280461" lon="13.59435981">
        <ele>467.00000</ele>
        <time>2024-04-19T12:12:28Z</time>
      </trkpt>
      <trkpt lat="42.94278608" lon="13.59430826">
        <ele>467.00000</ele>
        <time>2024-04-19T12:12:29Z</time>
      </trkpt>
      <trkpt lat="42.94276781" lon="13.59425914">
        <ele>468.00000</ele>
        <time>2024-04-19T12:12:30Z</time>
      </trkpt>
      <trkpt lat="42.94275037" lon="13.59420893">
        <ele>469.00000</ele>
        <time>2024-04-19T12:12:31Z</time>
      </trkpt>
      <trkpt lat="42.94273101" lon="13.59414875">
        <ele>469.00000</ele>
        <time>2024-04-19T12:12:32Z</time>
      </trkpt>
      <trkpt lat="42.94271769" lon="13.59410424">
        <ele>469.00000</ele>
        <time>2024-04-19T12:12:33Z</time>
      </trkpt>
      <trkpt lat="42.94270000" lon="13.59405077">
        <ele>470.00000</ele>
        <time>2024-04-19T12:12:34Z</time>
      </trkpt>
      <trkpt lat="42.94268097" lon="13.59400148">
        <ele>470.00000</ele>
        <time>2024-04-19T12:12:35Z</time>
      </trkpt>
      <trkpt lat="42.94266035" lon="13.59395161">
        <ele>471.00000</ele>
        <time>2024-04-19T12:12:36Z</time>
      </trkpt>
      <trkpt lat="42.94264116" lon="13.59390199">
        <ele>471.00000</ele>
        <time>2024-04-19T12:12:37Z</time>
      </trkpt>
      <trkpt lat="42.94262532" lon="13.59385438">
        <ele>471.00000</ele>
        <time>2024-04-19T12:12:38Z</time>
      </trkpt>
      <trkpt lat="42.94260989" lon="13.59380576">
        <ele>471.00000</ele>
        <time>2024-04-19T12:12:39Z</time>
      </trkpt>
      <trkpt lat="42.94259380" lon="13.59375782">
        <ele>472.00000</ele>
        <time>2024-04-19T12:12:40Z</time>
      </trkpt>
      <trkpt lat="42.94257662" lon="13.59370828">
        <ele>472.00000</ele>
        <time>2024-04-19T12:12:41Z</time>
      </trkpt>
      <trkpt lat="42.94256220" lon="13.59366059">
        <ele>472.00000</ele>
        <time>2024-04-19T12:12:42Z</time>
      </trkpt>
      <trkpt lat="42.94254736" lon="13.59361030">
        <ele>472.00000</ele>
        <time>2024-04-19T12:12:43Z</time>
      </trkpt>
      <trkpt lat="42.94253244" lon="13.59356369">
        <ele>472.00000</ele>
        <time>2024-04-19T12:12:44Z</time>
      </trkpt>
      <trkpt lat="42.94251325" lon="13.59351751">
        <ele>473.00000</ele>
        <time>2024-04-19T12:12:45Z</time>
      </trkpt>
      <trkpt lat="42.94249632" lon="13.59347057">
        <ele>473.00000</ele>
        <time>2024-04-19T12:12:46Z</time>
      </trkpt>
      <trkpt lat="42.94247997" lon="13.59342103">
        <ele>474.00000</ele>
        <time>2024-04-19T12:12:47Z</time>
      </trkpt>
      <trkpt lat="42.94246422" lon="13.59337116">
        <ele>474.00000</ele>
        <time>2024-04-19T12:12:48Z</time>
      </trkpt>
      <trkpt lat="42.94244770" lon="13.59332104">
        <ele>474.00000</ele>
        <time>2024-04-19T12:12:49Z</time>
      </trkpt>
      <trkpt lat="42.94242960" lon="13.59327041">
        <ele>475.00000</ele>
        <time>2024-04-19T12:12:50Z</time>
      </trkpt>
      <trkpt lat="42.94240940" lon="13.59322364">
        <ele>475.00000</ele>
        <time>2024-04-19T12:12:51Z</time>
      </trkpt>
      <trkpt lat="42.94238719" lon="13.59317762">
        <ele>475.00000</ele>
        <time>2024-04-19T12:12:52Z</time>
      </trkpt>
      <trkpt lat="42.94236464" lon="13.59312700">
        <ele>476.00000</ele>
        <time>2024-04-19T12:12:53Z</time>
      </trkpt>
      <trkpt lat="42.94234528" lon="13.59307905">
        <ele>476.00000</ele>
        <time>2024-04-19T12:12:54Z</time>
      </trkpt>
      <trkpt lat="42.94232281" lon="13.59303035">
        <ele>476.00000</ele>
        <time>2024-04-19T12:12:55Z</time>
      </trkpt>
      <trkpt lat="42.94229557" lon="13.59298224">
        <ele>477.00000</ele>
        <time>2024-04-19T12:12:56Z</time>
      </trkpt>
      <trkpt lat="42.94226665" lon="13.59293715">
        <ele>477.00000</ele>
        <time>2024-04-19T12:12:57Z</time>
      </trkpt>
      <trkpt lat="42.94223782" lon="13.59290085">
        <ele>477.00000</ele>
        <time>2024-04-19T12:12:58Z</time>
      </trkpt>
      <trkpt lat="42.94220815" lon="13.59286095">
        <ele>478.00000</ele>
        <time>2024-04-19T12:12:59Z</time>
      </trkpt>
      <trkpt lat="42.94218309" lon="13.59282139">
        <ele>478.00000</ele>
        <time>2024-04-19T12:13:00Z</time>
      </trkpt>
      <trkpt lat="42.94215786" lon="13.59278099">
        <ele>478.00000</ele>
        <time>2024-04-19T12:13:01Z</time>
      </trkpt>
      <trkpt lat="42.94212936" lon="13.59274470">
        <ele>478.00000</ele>
        <time>2024-04-19T12:13:02Z</time>
      </trkpt>
      <trkpt lat="42.94209508" lon="13.59271268">
        <ele>478.00000</ele>
        <time>2024-04-19T12:13:03Z</time>
      </trkpt>
      <trkpt lat="42.94206071" lon="13.59268276">
        <ele>478.00000</ele>
        <time>2024-04-19T12:13:04Z</time>
      </trkpt>
      <trkpt lat="42.94202785" lon="13.59265090">
        <ele>478.00000</ele>
        <time>2024-04-19T12:13:05Z</time>
      </trkpt>
      <trkpt lat="42.94199466" lon="13.59261721">
        <ele>479.00000</ele>
        <time>2024-04-19T12:13:06Z</time>
      </trkpt>
      <trkpt lat="42.94196030" lon="13.59258603">
        <ele>479.00000</ele>
        <time>2024-04-19T12:13:07Z</time>
      </trkpt>
      <trkpt lat="42.94192551" lon="13.59255979">
        <ele>479.00000</ele>
        <time>2024-04-19T12:13:08Z</time>
      </trkpt>
      <trkpt lat="42.94188771" lon="13.59253347">
        <ele>479.00000</ele>
        <time>2024-04-19T12:13:09Z</time>
      </trkpt>
      <trkpt lat="42.94185083" lon="13.59250682">
        <ele>479.00000</ele>
        <time>2024-04-19T12:13:10Z</time>
      </trkpt>
      <trkpt lat="42.94180733" lon="13.59247388">
        <ele>479.00000</ele>
        <time>2024-04-19T12:13:11Z</time>
      </trkpt>
      <trkpt lat="42.94177019" lon="13.59244504">
        <ele>479.00000</ele>
        <time>2024-04-19T12:13:12Z</time>
      </trkpt>
      <trkpt lat="42.94173340" lon="13.59241420">
        <ele>479.00000</ele>
        <time>2024-04-19T12:13:13Z</time>
      </trkpt>
      <trkpt lat="42.94169342" lon="13.59238293">
        <ele>479.00000</ele>
        <time>2024-04-19T12:13:14Z</time>
      </trkpt>
      <trkpt lat="42.94165452" lon="13.59235427">
        <ele>478.00000</ele>
        <time>2024-04-19T12:13:15Z</time>
      </trkpt>
      <trkpt lat="42.94161429" lon="13.59232200">
        <ele>478.00000</ele>
        <time>2024-04-19T12:13:16Z</time>
      </trkpt>
      <trkpt lat="42.94157372" lon="13.59228847">
        <ele>477.00000</ele>
        <time>2024-04-19T12:13:17Z</time>
      </trkpt>
      <trkpt lat="42.94153173" lon="13.59225318">
        <ele>477.00000</ele>
        <time>2024-04-19T12:13:18Z</time>
      </trkpt>
      <trkpt lat="42.94148747" lon="13.59221655">
        <ele>477.00000</ele>
        <time>2024-04-19T12:13:19Z</time>
      </trkpt>
      <trkpt lat="42.94144020" lon="13.59217783">
        <ele>477.00000</ele>
        <time>2024-04-19T12:13:20Z</time>
      </trkpt>
      <trkpt lat="42.94139066" lon="13.59214195">
        <ele>477.00000</ele>
        <time>2024-04-19T12:13:21Z</time>
      </trkpt>
      <trkpt lat="42.94134104" lon="13.59210482">
        <ele>477.00000</ele>
        <time>2024-04-19T12:13:22Z</time>
      </trkpt>
      <trkpt lat="42.94128916" lon="13.59206199">
        <ele>477.00000</ele>
        <time>2024-04-19T12:13:23Z</time>
      </trkpt>
      <trkpt lat="42.94123493" lon="13.59201799">
        <ele>478.00000</ele>
        <time>2024-04-19T12:13:24Z</time>
      </trkpt>
      <trkpt lat="42.94117910" lon="13.59197231">
        <ele>478.00000</ele>
        <time>2024-04-19T12:13:25Z</time>
      </trkpt>
      <trkpt lat="42.94112211" lon="13.59192570">
        <ele>478.00000</ele>
        <time>2024-04-19T12:13:26Z</time>
      </trkpt>
      <trkpt lat="42.94106184" lon="13.59187935">
        <ele>478.00000</ele>
        <time>2024-04-19T12:13:27Z</time>
      </trkpt>
      <trkpt lat="42.94101281" lon="13.59184348">
        <ele>478.00000</ele>
        <time>2024-04-19T12:13:28Z</time>
      </trkpt>
      <trkpt lat="42.94094776" lon="13.59179561">
        <ele>477.00000</ele>
        <time>2024-04-19T12:13:29Z</time>
      </trkpt>
      <trkpt lat="42.94088230" lon="13.59174775">
        <ele>477.00000</ele>
        <time>2024-04-19T12:13:30Z</time>
      </trkpt>
      <trkpt lat="42.94081759" lon="13.59169931">
        <ele>477.00000</ele>
        <time>2024-04-19T12:13:31Z</time>
      </trkpt>
      <trkpt lat="42.94075230" lon="13.59164725">
        <ele>477.00000</ele>
        <time>2024-04-19T12:13:32Z</time>
      </trkpt>
      <trkpt lat="42.94068532" lon="13.59159470">
        <ele>476.00000</ele>
        <time>2024-04-19T12:13:33Z</time>
      </trkpt>
      <trkpt lat="42.94061659" lon="13.59154114">
        <ele>476.00000</ele>
        <time>2024-04-19T12:13:34Z</time>
      </trkpt>
      <trkpt lat="42.94054627" lon="13.59148498">
        <ele>476.00000</ele>
        <time>2024-04-19T12:13:35Z</time>
      </trkpt>
      <trkpt lat="42.94047578" lon="13.59142648">
        <ele>475.00000</ele>
        <time>2024-04-19T12:13:36Z</time>
      </trkpt>
      <trkpt lat="42.94040453" lon="13.59136420">
        <ele>475.00000</ele>
        <time>2024-04-19T12:13:37Z</time>
      </trkpt>
      <trkpt lat="42.94033270" lon="13.59130175">
        <ele>474.00000</ele>
        <time>2024-04-19T12:13:38Z</time>
      </trkpt>
      <trkpt lat="42.94025760" lon="13.59124090">
        <ele>474.00000</ele>
        <time>2024-04-19T12:13:39Z</time>
      </trkpt>
      <trkpt lat="42.94018208" lon="13.59117946">
        <ele>474.00000</ele>
        <time>2024-04-19T12:13:40Z</time>
      </trkpt>
      <trkpt lat="42.94010639" lon="13.59111542">
        <ele>474.00000</ele>
        <time>2024-04-19T12:13:41Z</time>
      </trkpt>
      <trkpt lat="42.94003246" lon="13.59105239">
        <ele>473.00000</ele>
        <time>2024-04-19T12:13:42Z</time>
      </trkpt>
      <trkpt lat="42.93995803" lon="13.59099003">
        <ele>473.00000</ele>
        <time>2024-04-19T12:13:43Z</time>
      </trkpt>
      <trkpt lat="42.93988066" lon="13.59093018">
        <ele>472.00000</ele>
        <time>2024-04-19T12:13:44Z</time>
      </trkpt>
      <trkpt lat="42.93980288" lon="13.59086631">
        <ele>471.00000</ele>
        <time>2024-04-19T12:13:45Z</time>
      </trkpt>
      <trkpt lat="42.93972845" lon="13.59079607">
        <ele>470.00000</ele>
        <time>2024-04-19T12:13:46Z</time>
      </trkpt>
      <trkpt lat="42.93965519" lon="13.59072080">
        <ele>469.00000</ele>
        <time>2024-04-19T12:13:47Z</time>
      </trkpt>
      <trkpt lat="42.93958788" lon="13.59063782">
        <ele>468.00000</ele>
        <time>2024-04-19T12:13:48Z</time>
      </trkpt>
      <trkpt lat="42.93953130" lon="13.59054344">
        <ele>468.00000</ele>
        <time>2024-04-19T12:13:49Z</time>
      </trkpt>
      <trkpt lat="42.93947950" lon="13.59044194">
        <ele>467.00000</ele>
        <time>2024-04-19T12:13:50Z</time>
      </trkpt>
      <trkpt lat="42.93943357" lon="13.59033733">
        <ele>467.00000</ele>
        <time>2024-04-19T12:13:51Z</time>
      </trkpt>
      <trkpt lat="42.93939460" lon="13.59023113">
        <ele>467.00000</ele>
        <time>2024-04-19T12:13:52Z</time>
      </trkpt>
      <trkpt lat="42.93935830" lon="13.59012485">
        <ele>467.00000</ele>
        <time>2024-04-19T12:13:53Z</time>
      </trkpt>
      <trkpt lat="42.93931807" lon="13.58999962">
        <ele>468.00000</ele>
        <time>2024-04-19T12:13:54Z</time>
      </trkpt>
      <trkpt lat="42.93929527" lon="13.58991664">
        <ele>468.00000</ele>
        <time>2024-04-19T12:13:55Z</time>
      </trkpt>
      <trkpt lat="42.93926820" lon="13.58981480">
        <ele>468.00000</ele>
        <time>2024-04-19T12:13:56Z</time>
      </trkpt>
      <trkpt lat="42.93924121" lon="13.58971573">
        <ele>469.00000</ele>
        <time>2024-04-19T12:13:57Z</time>
      </trkpt>
      <trkpt lat="42.93921480" lon="13.58961950">
        <ele>469.00000</ele>
        <time>2024-04-19T12:13:58Z</time>
      </trkpt>
      <trkpt lat="42.93918664" lon="13.58950920">
        <ele>469.00000</ele>
        <time>2024-04-19T12:13:59Z</time>
      </trkpt>
      <trkpt lat="42.93916988" lon="13.58943921">
        <ele>469.00000</ele>
        <time>2024-04-19T12:14:00Z</time>
      </trkpt>
      <trkpt lat="42.93914532" lon="13.58935170">
        <ele>470.00000</ele>
        <time>2024-04-19T12:14:01Z</time>
      </trkpt>
      <trkpt lat="42.93912076" lon="13.58926738">
        <ele>470.00000</ele>
        <time>2024-04-19T12:14:02Z</time>
      </trkpt>
      <trkpt lat="42.93909913" lon="13.58918834">
        <ele>470.00000</ele>
        <time>2024-04-19T12:14:03Z</time>
      </trkpt>
      <trkpt lat="42.93907474" lon="13.58909689">
        <ele>471.00000</ele>
        <time>2024-04-19T12:14:04Z</time>
      </trkpt>
      <trkpt lat="42.93905228" lon="13.58902364">
        <ele>471.00000</ele>
        <time>2024-04-19T12:14:05Z</time>
      </trkpt>
      <trkpt lat="42.93902948" lon="13.58895264">
        <ele>471.00000</ele>
        <time>2024-04-19T12:14:06Z</time>
      </trkpt>
      <trkpt lat="42.93900727" lon="13.58888198">
        <ele>472.00000</ele>
        <time>2024-04-19T12:14:07Z</time>
      </trkpt>
      <trkpt lat="42.93898967" lon="13.58882951">
        <ele>472.00000</ele>
        <time>2024-04-19T12:14:08Z</time>
      </trkpt>
      <trkpt lat="42.93896779" lon="13.58876723">
        <ele>472.00000</ele>
        <time>2024-04-19T12:14:09Z</time>
      </trkpt>
      <trkpt lat="42.93894616" lon="13.58870412">
        <ele>472.00000</ele>
        <time>2024-04-19T12:14:10Z</time>
      </trkpt>
      <trkpt lat="42.93892429" lon="13.58864025">
        <ele>473.00000</ele>
        <time>2024-04-19T12:14:11Z</time>
      </trkpt>
      <trkpt lat="42.93890208" lon="13.58857671">
        <ele>473.00000</ele>
        <time>2024-04-19T12:14:12Z</time>
      </trkpt>
      <trkpt lat="42.93887886" lon="13.58851452">
        <ele>474.00000</ele>
        <time>2024-04-19T12:14:13Z</time>
      </trkpt>
      <trkpt lat="42.93885204" lon="13.58844218">
        <ele>475.00000</ele>
        <time>2024-04-19T12:14:14Z</time>
      </trkpt>
      <trkpt lat="42.93883083" lon="13.58838334">
        <ele>475.00000</ele>
        <time>2024-04-19T12:14:15Z</time>
      </trkpt>
      <trkpt lat="42.93880702" lon="13.58832769">
        <ele>476.00000</ele>
        <time>2024-04-19T12:14:16Z</time>
      </trkpt>
      <trkpt lat="42.93878062" lon="13.58827312">
        <ele>477.00000</ele>
        <time>2024-04-19T12:14:17Z</time>
      </trkpt>
      <trkpt lat="42.93875145" lon="13.58821981">
        <ele>478.00000</ele>
        <time>2024-04-19T12:14:18Z</time>
      </trkpt>
      <trkpt lat="42.93872321" lon="13.58817078">
        <ele>479.00000</ele>
        <time>2024-04-19T12:14:19Z</time>
      </trkpt>
      <trkpt lat="42.93869496" lon="13.58812510">
        <ele>479.00000</ele>
        <time>2024-04-19T12:14:20Z</time>
      </trkpt>
      <trkpt lat="42.93866445" lon="13.58808109">
        <ele>480.00000</ele>
        <time>2024-04-19T12:14:21Z</time>
      </trkpt>
      <trkpt lat="42.93863218" lon="13.58803507">
        <ele>481.00000</ele>
        <time>2024-04-19T12:14:22Z</time>
      </trkpt>
      <trkpt lat="42.93859991" lon="13.58799115">
        <ele>482.00000</ele>
        <time>2024-04-19T12:14:23Z</time>
      </trkpt>
      <trkpt lat="42.93856772" lon="13.58794916">
        <ele>482.00000</ele>
        <time>2024-04-19T12:14:24Z</time>
      </trkpt>
      <trkpt lat="42.93853369" lon="13.58790616">
        <ele>483.00000</ele>
        <time>2024-04-19T12:14:25Z</time>
      </trkpt>
      <trkpt lat="42.93849715" lon="13.58786450">
        <ele>483.00000</ele>
        <time>2024-04-19T12:14:26Z</time>
      </trkpt>
      <trkpt lat="42.93845985" lon="13.58782771">
        <ele>483.00000</ele>
        <time>2024-04-19T12:14:27Z</time>
      </trkpt>
      <trkpt lat="42.93841945" lon="13.58779200">
        <ele>484.00000</ele>
        <time>2024-04-19T12:14:28Z</time>
      </trkpt>
      <trkpt lat="42.93837787" lon="13.58775537">
        <ele>484.00000</ele>
        <time>2024-04-19T12:14:29Z</time>
      </trkpt>
      <trkpt lat="42.93833646" lon="13.58772293">
        <ele>484.00000</ele>
        <time>2024-04-19T12:14:30Z</time>
      </trkpt>
      <trkpt lat="42.93829229" lon="13.58768991">
        <ele>484.00000</ele>
        <time>2024-04-19T12:14:31Z</time>
      </trkpt>
      <trkpt lat="42.93824686" lon="13.58765965">
        <ele>484.00000</ele>
        <time>2024-04-19T12:14:32Z</time>
      </trkpt>
      <trkpt lat="42.93819724" lon="13.58763509">
        <ele>483.00000</ele>
        <time>2024-04-19T12:14:33Z</time>
      </trkpt>
      <trkpt lat="42.93814502" lon="13.58761967">
        <ele>483.00000</ele>
        <time>2024-04-19T12:14:34Z</time>
      </trkpt>
      <trkpt lat="42.93809129" lon="13.58760735">
        <ele>483.00000</ele>
        <time>2024-04-19T12:14:35Z</time>
      </trkpt>
      <trkpt lat="42.93803597" lon="13.58759771">
        <ele>483.00000</ele>
        <time>2024-04-19T12:14:36Z</time>
      </trkpt>
      <trkpt lat="42.93797814" lon="13.58758882">
        <ele>483.00000</ele>
        <time>2024-04-19T12:14:37Z</time>
      </trkpt>
      <trkpt lat="42.93791938" lon="13.58758036">
        <ele>483.00000</ele>
        <time>2024-04-19T12:14:38Z</time>
      </trkpt>
      <trkpt lat="42.93786121" lon="13.58757407">
        <ele>483.00000</ele>
        <time>2024-04-19T12:14:39Z</time>
      </trkpt>
      <trkpt lat="42.93780203" lon="13.58757013">
        <ele>483.00000</ele>
        <time>2024-04-19T12:14:40Z</time>
      </trkpt>
      <trkpt lat="42.93774051" lon="13.58756761">
        <ele>483.00000</ele>
        <time>2024-04-19T12:14:41Z</time>
      </trkpt>
      <trkpt lat="42.93767924" lon="13.58756594">
        <ele>482.00000</ele>
        <time>2024-04-19T12:14:42Z</time>
      </trkpt>
      <trkpt lat="42.93761721" lon="13.58756175">
        <ele>482.00000</ele>
        <time>2024-04-19T12:14:43Z</time>
      </trkpt>
      <trkpt lat="42.93755318" lon="13.58756108">
        <ele>482.00000</ele>
        <time>2024-04-19T12:14:44Z</time>
      </trkpt>
      <trkpt lat="42.93748696" lon="13.58755831">
        <ele>482.00000</ele>
        <time>2024-04-19T12:14:45Z</time>
      </trkpt>
      <trkpt lat="42.93742183" lon="13.58755546">
        <ele>482.00000</ele>
        <time>2024-04-19T12:14:46Z</time>
      </trkpt>
      <trkpt lat="42.93735704" lon="13.58755471">
        <ele>482.00000</ele>
        <time>2024-04-19T12:14:47Z</time>
      </trkpt>
      <trkpt lat="42.93729099" lon="13.58755345">
        <ele>482.00000</ele>
        <time>2024-04-19T12:14:48Z</time>
      </trkpt>
      <trkpt lat="42.93722611" lon="13.58755228">
        <ele>482.00000</ele>
        <time>2024-04-19T12:14:49Z</time>
      </trkpt>
      <trkpt lat="42.93716157" lon="13.58755102">
        <ele>482.00000</ele>
        <time>2024-04-19T12:14:50Z</time>
      </trkpt>
      <trkpt lat="42.93709695" lon="13.58755244">
        <ele>482.00000</ele>
        <time>2024-04-19T12:14:51Z</time>
      </trkpt>
      <trkpt lat="42.93704439" lon="13.58755496">
        <ele>482.00000</ele>
        <time>2024-04-19T12:14:52Z</time>
      </trkpt>
      <trkpt lat="42.93697918" lon="13.58755529">
        <ele>482.00000</ele>
        <time>2024-04-19T12:14:53Z</time>
      </trkpt>
      <trkpt lat="42.93691439" lon="13.58755135">
        <ele>482.00000</ele>
        <time>2024-04-19T12:14:54Z</time>
      </trkpt>
      <trkpt lat="42.93684985" lon="13.58754716">
        <ele>482.00000</ele>
        <time>2024-04-19T12:14:55Z</time>
      </trkpt>
      <trkpt lat="42.93678464" lon="13.58754331">
        <ele>481.00000</ele>
        <time>2024-04-19T12:14:56Z</time>
      </trkpt>
      <trkpt lat="42.93671943" lon="13.58754012">
        <ele>481.00000</ele>
        <time>2024-04-19T12:14:57Z</time>
      </trkpt>
      <trkpt lat="42.93665313" lon="13.58753752">
        <ele>481.00000</ele>
        <time>2024-04-19T12:14:58Z</time>
      </trkpt>
      <trkpt lat="42.93658758" lon="13.58753283">
        <ele>481.00000</ele>
        <time>2024-04-19T12:14:59Z</time>
      </trkpt>
      <trkpt lat="42.93652229" lon="13.58752545">
        <ele>482.00000</ele>
        <time>2024-04-19T12:15:00Z</time>
      </trkpt>
      <trkpt lat="42.93645674" lon="13.58751347">
        <ele>482.00000</ele>
        <time>2024-04-19T12:15:01Z</time>
      </trkpt>
      <trkpt lat="42.93639211" lon="13.58749821">
        <ele>482.00000</ele>
        <time>2024-04-19T12:15:02Z</time>
      </trkpt>
      <trkpt lat="42.93632875" lon="13.58748002">
        <ele>483.00000</ele>
        <time>2024-04-19T12:15:03Z</time>
      </trkpt>
      <trkpt lat="42.93626546" lon="13.58746049">
        <ele>483.00000</ele>
        <time>2024-04-19T12:15:04Z</time>
      </trkpt>
      <trkpt lat="42.93619112" lon="13.58743443">
        <ele>483.00000</ele>
        <time>2024-04-19T12:15:05Z</time>
      </trkpt>
      <trkpt lat="42.93612842" lon="13.58741079">
        <ele>483.00000</ele>
        <time>2024-04-19T12:15:06Z</time>
      </trkpt>
      <trkpt lat="42.93606773" lon="13.58738129">
        <ele>484.00000</ele>
        <time>2024-04-19T12:15:07Z</time>
      </trkpt>
      <trkpt lat="42.93600780" lon="13.58734985">
        <ele>484.00000</ele>
        <time>2024-04-19T12:15:08Z</time>
      </trkpt>
      <trkpt lat="42.93594720" lon="13.58731440">
        <ele>484.00000</ele>
        <time>2024-04-19T12:15:09Z</time>
      </trkpt>
      <trkpt lat="42.93590043" lon="13.58728372">
        <ele>484.00000</ele>
        <time>2024-04-19T12:15:10Z</time>
      </trkpt>
      <trkpt lat="42.93583229" lon="13.58723527">
        <ele>485.00000</ele>
        <time>2024-04-19T12:15:11Z</time>
      </trkpt>
      <trkpt lat="42.93577630" lon="13.58719152">
        <ele>485.00000</ele>
        <time>2024-04-19T12:15:12Z</time>
      </trkpt>
      <trkpt lat="42.93572215" lon="13.58714751">
        <ele>486.00000</ele>
        <time>2024-04-19T12:15:13Z</time>
      </trkpt>
      <trkpt lat="42.93566959" lon="13.58710259">
        <ele>486.00000</ele>
        <time>2024-04-19T12:15:14Z</time>
      </trkpt>
      <trkpt lat="42.93561729" lon="13.58705473">
        <ele>486.00000</ele>
        <time>2024-04-19T12:15:15Z</time>
      </trkpt>
      <trkpt lat="42.93556390" lon="13.58700787">
        <ele>487.00000</ele>
        <time>2024-04-19T12:15:16Z</time>
      </trkpt>
      <trkpt lat="42.93550807" lon="13.58696336">
        <ele>488.00000</ele>
        <time>2024-04-19T12:15:17Z</time>
      </trkpt>
      <trkpt lat="42.93544647" lon="13.58692456">
        <ele>489.00000</ele>
        <time>2024-04-19T12:15:18Z</time>
      </trkpt>
      <trkpt lat="42.93538042" lon="13.58689798">
        <ele>489.00000</ele>
        <time>2024-04-19T12:15:19Z</time>
      </trkpt>
      <trkpt lat="42.93530976" lon="13.58688214">
        <ele>489.00000</ele>
        <time>2024-04-19T12:15:20Z</time>
      </trkpt>
      <trkpt lat="42.93523776" lon="13.58687167">
        <ele>489.00000</ele>
        <time>2024-04-19T12:15:21Z</time>
      </trkpt>
      <trkpt lat="42.93516291" lon="13.58686387">
        <ele>489.00000</ele>
        <time>2024-04-19T12:15:22Z</time>
      </trkpt>
      <trkpt lat="42.93508487" lon="13.58685825">
        <ele>488.00000</ele>
        <time>2024-04-19T12:15:23Z</time>
      </trkpt>
      <trkpt lat="42.93500457" lon="13.58685239">
        <ele>488.00000</ele>
        <time>2024-04-19T12:15:24Z</time>
      </trkpt>
      <trkpt lat="42.93492302" lon="13.58684627">
        <ele>486.00000</ele>
        <time>2024-04-19T12:15:25Z</time>
      </trkpt>
      <trkpt lat="42.93483836" lon="13.58683805">
        <ele>485.00000</ele>
        <time>2024-04-19T12:15:26Z</time>
      </trkpt>
      <trkpt lat="42.93475152" lon="13.58682389">
        <ele>483.00000</ele>
        <time>2024-04-19T12:15:27Z</time>
      </trkpt>
      <trkpt lat="42.93466502" lon="13.58679824">
        <ele>481.00000</ele>
        <time>2024-04-19T12:15:28Z</time>
      </trkpt>
      <trkpt lat="42.93457978" lon="13.58675155">
        <ele>479.00000</ele>
        <time>2024-04-19T12:15:29Z</time>
      </trkpt>
      <trkpt lat="42.93450627" lon="13.58667871">
        <ele>478.00000</ele>
        <time>2024-04-19T12:15:30Z</time>
      </trkpt>
      <trkpt lat="42.93445874" lon="13.58659867">
        <ele>479.00000</ele>
        <time>2024-04-19T12:15:31Z</time>
      </trkpt>
      <trkpt lat="42.93440502" lon="13.58648769">
        <ele>481.00000</ele>
        <time>2024-04-19T12:15:32Z</time>
      </trkpt>
      <trkpt lat="42.93433880" lon="13.58634855">
        <ele>484.00000</ele>
        <time>2024-04-19T12:15:33Z</time>
      </trkpt>
      <trkpt lat="42.93427686" lon="13.58623506">
        <ele>486.00000</ele>
        <time>2024-04-19T12:15:34Z</time>
      </trkpt>
      <trkpt lat="42.93420628" lon="13.58612945">
        <ele>488.00000</ele>
        <time>2024-04-19T12:15:35Z</time>
      </trkpt>
      <trkpt lat="42.93413738" lon="13.58605627">
        <ele>489.00000</ele>
        <time>2024-04-19T12:15:36Z</time>
      </trkpt>
      <trkpt lat="42.93404459" lon="13.58597950">
        <ele>490.00000</ele>
        <time>2024-04-19T12:15:37Z</time>
      </trkpt>
      <trkpt lat="42.93392809" lon="13.58593172">
        <ele>489.00000</ele>
        <time>2024-04-19T12:15:38Z</time>
      </trkpt>
      <trkpt lat="42.93382314" lon="13.58595661">
        <ele>487.00000</ele>
        <time>2024-04-19T12:15:39Z</time>
      </trkpt>
      <trkpt lat="42.93371619" lon="13.58600833">
        <ele>485.00000</ele>
        <time>2024-04-19T12:15:40Z</time>
      </trkpt>
      <trkpt lat="42.93361108" lon="13.58607723">
        <ele>482.00000</ele>
        <time>2024-04-19T12:15:41Z</time>
      </trkpt>
      <trkpt lat="42.93352492" lon="13.58614085">
        <ele>481.00000</ele>
        <time>2024-04-19T12:15:42Z</time>
      </trkpt>
      <trkpt lat="42.93341645" lon="13.58621838">
        <ele>479.00000</ele>
        <time>2024-04-19T12:15:43Z</time>
      </trkpt>
      <trkpt lat="42.93328394" lon="13.58628493">
        <ele>477.00000</ele>
        <time>2024-04-19T12:15:44Z</time>
      </trkpt>
      <trkpt lat="42.93316341" lon="13.58630597">
        <ele>475.00000</ele>
        <time>2024-04-19T12:15:45Z</time>
      </trkpt>
      <trkpt lat="42.93304078" lon="13.58629843">
        <ele>474.00000</ele>
        <time>2024-04-19T12:15:46Z</time>
      </trkpt>
      <trkpt lat="42.93294179" lon="13.58626666">
        <ele>474.00000</ele>
        <time>2024-04-19T12:15:47Z</time>
      </trkpt>
      <trkpt lat="42.93281673" lon="13.58622433">
        <ele>475.00000</ele>
        <time>2024-04-19T12:15:48Z</time>
      </trkpt>
      <trkpt lat="42.93266141" lon="13.58618049">
        <ele>474.00000</ele>
        <time>2024-04-19T12:15:49Z</time>
      </trkpt>
      <trkpt lat="42.93253091" lon="13.58614655">
        <ele>473.00000</ele>
        <time>2024-04-19T12:15:50Z</time>
      </trkpt>
      <trkpt lat="42.93240183" lon="13.58611025">
        <ele>472.00000</ele>
        <time>2024-04-19T12:15:51Z</time>
      </trkpt>
      <trkpt lat="42.93227358" lon="13.58607119">
        <ele>472.00000</ele>
        <time>2024-04-19T12:15:52Z</time>
      </trkpt>
      <trkpt lat="42.93217090" lon="13.58604102">
        <ele>471.00000</ele>
        <time>2024-04-19T12:15:53Z</time>
      </trkpt>
      <trkpt lat="42.93201634" lon="13.58599282">
        <ele>470.00000</ele>
        <time>2024-04-19T12:15:54Z</time>
      </trkpt>
      <trkpt lat="42.93191442" lon="13.58595033">
        <ele>469.00000</ele>
        <time>2024-04-19T12:15:55Z</time>
      </trkpt>
      <trkpt lat="42.93179229" lon="13.58588319">
        <ele>468.00000</ele>
        <time>2024-04-19T12:15:56Z</time>
      </trkpt>
      <trkpt lat="42.93167570" lon="13.58579828">
        <ele>468.00000</ele>
        <time>2024-04-19T12:15:57Z</time>
      </trkpt>
      <trkpt lat="42.93156104" lon="13.58570457">
        <ele>469.00000</ele>
        <time>2024-04-19T12:15:58Z</time>
      </trkpt>
      <trkpt lat="42.93144151" lon="13.58561882">
        <ele>468.00000</ele>
        <time>2024-04-19T12:15:59Z</time>
      </trkpt>
      <trkpt lat="42.93131763" lon="13.58554992">
        <ele>468.00000</ele>
        <time>2024-04-19T12:16:00Z</time>
      </trkpt>
      <trkpt lat="42.93119324" lon="13.58550994">
        <ele>468.00000</ele>
        <time>2024-04-19T12:16:01Z</time>
      </trkpt>
      <trkpt lat="42.93106818" lon="13.58551681">
        <ele>468.00000</ele>
        <time>2024-04-19T12:16:02Z</time>
      </trkpt>
      <trkpt lat="42.93095955" lon="13.58558714">
        <ele>466.00000</ele>
        <time>2024-04-19T12:16:03Z</time>
      </trkpt>
      <trkpt lat="42.93085495" lon="13.58572938">
        <ele>464.00000</ele>
        <time>2024-04-19T12:16:04Z</time>
      </trkpt>
      <trkpt lat="42.93078102" lon="13.58587145">
        <ele>463.00000</ele>
        <time>2024-04-19T12:16:05Z</time>
      </trkpt>
      <trkpt lat="42.93072209" lon="13.58602090">
        <ele>462.00000</ele>
        <time>2024-04-19T12:16:06Z</time>
      </trkpt>
      <trkpt lat="42.93068504" lon="13.58617764">
        <ele>461.00000</ele>
        <time>2024-04-19T12:16:07Z</time>
      </trkpt>
      <trkpt lat="42.93067222" lon="13.58633715">
        <ele>461.00000</ele>
        <time>2024-04-19T12:16:08Z</time>
      </trkpt>
      <trkpt lat="42.93068119" lon="13.58646657">
        <ele>460.00000</ele>
        <time>2024-04-19T12:16:09Z</time>
      </trkpt>
      <trkpt lat="42.93070415" lon="13.58662297">
        <ele>459.00000</ele>
        <time>2024-04-19T12:16:10Z</time>
      </trkpt>
      <trkpt lat="42.93073961" lon="13.58680570">
        <ele>459.00000</ele>
        <time>2024-04-19T12:16:11Z</time>
      </trkpt>
      <trkpt lat="42.93076802" lon="13.58696177">
        <ele>458.00000</ele>
        <time>2024-04-19T12:16:12Z</time>
      </trkpt>
      <trkpt lat="42.93079007" lon="13.58711910">
        <ele>459.00000</ele>
        <time>2024-04-19T12:16:13Z</time>
      </trkpt>
      <trkpt lat="42.93079971" lon="13.58724491">
        <ele>460.00000</ele>
        <time>2024-04-19T12:16:14Z</time>
      </trkpt>
      <trkpt lat="42.93079929" lon="13.58739939">
        <ele>461.00000</ele>
        <time>2024-04-19T12:16:15Z</time>
      </trkpt>
      <trkpt lat="42.93078403" lon="13.58758312">
        <ele>463.00000</ele>
        <time>2024-04-19T12:16:16Z</time>
      </trkpt>
      <trkpt lat="42.93076928" lon="13.58773341">
        <ele>463.00000</ele>
        <time>2024-04-19T12:16:17Z</time>
      </trkpt>
      <trkpt lat="42.93074967" lon="13.58787657">
        <ele>464.00000</ele>
        <time>2024-04-19T12:16:18Z</time>
      </trkpt>
      <trkpt lat="42.93073483" lon="13.58798738">
        <ele>464.00000</ele>
        <time>2024-04-19T12:16:19Z</time>
      </trkpt>
      <trkpt lat="42.93071815" lon="13.58812258">
        <ele>464.00000</ele>
        <time>2024-04-19T12:16:20Z</time>
      </trkpt>
      <trkpt lat="42.93069200" lon="13.58828050">
        <ele>464.00000</ele>
        <time>2024-04-19T12:16:21Z</time>
      </trkpt>
      <trkpt lat="42.93067063" lon="13.58840203">
        <ele>465.00000</ele>
        <time>2024-04-19T12:16:22Z</time>
      </trkpt>
      <trkpt lat="42.93065453" lon="13.58851913">
        <ele>465.00000</ele>
        <time>2024-04-19T12:16:23Z</time>
      </trkpt>
      <trkpt lat="42.93065529" lon="13.58863195">
        <ele>466.00000</ele>
        <time>2024-04-19T12:16:24Z</time>
      </trkpt>
      <trkpt lat="42.93066694" lon="13.58871879">
        <ele>466.00000</ele>
        <time>2024-04-19T12:16:25Z</time>
      </trkpt>
      <trkpt lat="42.93069007" lon="13.58881945">
        <ele>466.00000</ele>
        <time>2024-04-19T12:16:26Z</time>
      </trkpt>
      <trkpt lat="42.93072033" lon="13.58891417">
        <ele>466.00000</ele>
        <time>2024-04-19T12:16:27Z</time>
      </trkpt>
      <trkpt lat="42.93075822" lon="13.58900100">
        <ele>466.00000</ele>
        <time>2024-04-19T12:16:28Z</time>
      </trkpt>
      <trkpt lat="42.93079644" lon="13.58908507">
        <ele>466.00000</ele>
        <time>2024-04-19T12:16:29Z</time>
      </trkpt>
      <trkpt lat="42.93083609" lon="13.58916789">
        <ele>466.00000</ele>
        <time>2024-04-19T12:16:30Z</time>
      </trkpt>
      <trkpt lat="42.93087665" lon="13.58924961">
        <ele>466.00000</ele>
        <time>2024-04-19T12:16:31Z</time>
      </trkpt>
      <trkpt lat="42.93091362" lon="13.58933184">
        <ele>466.00000</ele>
        <time>2024-04-19T12:16:32Z</time>
      </trkpt>
      <trkpt lat="42.93094706" lon="13.58941121">
        <ele>465.00000</ele>
        <time>2024-04-19T12:16:33Z</time>
      </trkpt>
      <trkpt lat="42.93098294" lon="13.58950920">
        <ele>465.00000</ele>
        <time>2024-04-19T12:16:34Z</time>
      </trkpt>
      <trkpt lat="42.93100230" lon="13.58957659">
        <ele>464.00000</ele>
        <time>2024-04-19T12:16:35Z</time>
      </trkpt>
      <trkpt lat="42.93102133" lon="13.58966066">
        <ele>464.00000</ele>
        <time>2024-04-19T12:16:36Z</time>
      </trkpt>
      <trkpt lat="42.93103457" lon="13.58974356">
        <ele>464.00000</ele>
        <time>2024-04-19T12:16:37Z</time>
      </trkpt>
      <trkpt lat="42.93104245" lon="13.58983903">
        <ele>464.00000</ele>
        <time>2024-04-19T12:16:38Z</time>
      </trkpt>
      <trkpt lat="42.93104597" lon="13.58992058">
        <ele>464.00000</ele>
        <time>2024-04-19T12:16:39Z</time>
      </trkpt>
      <trkpt lat="42.93104521" lon="13.59000122">
        <ele>464.00000</ele>
        <time>2024-04-19T12:16:40Z</time>
      </trkpt>
      <trkpt lat="42.93103910" lon="13.59008051">
        <ele>464.00000</ele>
        <time>2024-04-19T12:16:41Z</time>
      </trkpt>
      <trkpt lat="42.93102904" lon="13.59016106">
        <ele>465.00000</ele>
        <time>2024-04-19T12:16:42Z</time>
      </trkpt>
      <trkpt lat="42.93101982" lon="13.59024111">
        <ele>465.00000</ele>
        <time>2024-04-19T12:16:43Z</time>
      </trkpt>
      <trkpt lat="42.93101185" lon="13.59031948">
        <ele>466.00000</ele>
        <time>2024-04-19T12:16:44Z</time>
      </trkpt>
      <trkpt lat="42.93100305" lon="13.59039776">
        <ele>467.00000</ele>
        <time>2024-04-19T12:16:45Z</time>
      </trkpt>
      <trkpt lat="42.93099367" lon="13.59047404">
        <ele>468.00000</ele>
        <time>2024-04-19T12:16:46Z</time>
      </trkpt>
      <trkpt lat="42.93098009" lon="13.59054856">
        <ele>469.00000</ele>
        <time>2024-04-19T12:16:47Z</time>
      </trkpt>
      <trkpt lat="42.93096743" lon="13.59062232">
        <ele>470.00000</ele>
        <time>2024-04-19T12:16:48Z</time>
      </trkpt>
      <trkpt lat="42.93095628" lon="13.59069792">
        <ele>471.00000</ele>
        <time>2024-04-19T12:16:49Z</time>
      </trkpt>
      <trkpt lat="42.93094933" lon="13.59077336">
        <ele>472.00000</ele>
        <time>2024-04-19T12:16:50Z</time>
      </trkpt>
      <trkpt lat="42.93094740" lon="13.59083421">
        <ele>473.00000</ele>
        <time>2024-04-19T12:16:51Z</time>
      </trkpt>
      <trkpt lat="42.93095452" lon="13.59092188">
        <ele>473.00000</ele>
        <time>2024-04-19T12:16:52Z</time>
      </trkpt>
      <trkpt lat="42.93097305" lon="13.59099053">
        <ele>473.00000</ele>
        <time>2024-04-19T12:16:53Z</time>
      </trkpt>
      <trkpt lat="42.93099937" lon="13.59105759">
        <ele>472.00000</ele>
        <time>2024-04-19T12:16:54Z</time>
      </trkpt>
      <trkpt lat="42.93103080" lon="13.59112137">
        <ele>471.00000</ele>
        <time>2024-04-19T12:16:55Z</time>
      </trkpt>
      <trkpt lat="42.93106407" lon="13.59118105">
        <ele>471.00000</ele>
        <time>2024-04-19T12:16:56Z</time>
      </trkpt>
      <trkpt lat="42.93110112" lon="13.59123704">
        <ele>470.00000</ele>
        <time>2024-04-19T12:16:57Z</time>
      </trkpt>
      <trkpt lat="42.93114353" lon="13.59129027">
        <ele>470.00000</ele>
        <time>2024-04-19T12:16:58Z</time>
      </trkpt>
      <trkpt lat="42.93117916" lon="13.59133511">
        <ele>470.00000</ele>
        <time>2024-04-19T12:16:59Z</time>
      </trkpt>
      <trkpt lat="42.93122249" lon="13.59139010">
        <ele>470.00000</ele>
        <time>2024-04-19T12:17:00Z</time>
      </trkpt>
      <trkpt lat="42.93127538" lon="13.59145388">
        <ele>470.00000</ele>
        <time>2024-04-19T12:17:01Z</time>
      </trkpt>
      <trkpt lat="42.93132064" lon="13.59150485">
        <ele>470.00000</ele>
        <time>2024-04-19T12:17:02Z</time>
      </trkpt>
      <trkpt lat="42.93136741" lon="13.59155648">
        <ele>470.00000</ele>
        <time>2024-04-19T12:17:03Z</time>
      </trkpt>
      <trkpt lat="42.93141100" lon="13.59161364">
        <ele>470.00000</ele>
        <time>2024-04-19T12:17:04Z</time>
      </trkpt>
      <trkpt lat="42.93143975" lon="13.59166754">
        <ele>470.00000</ele>
        <time>2024-04-19T12:17:05Z</time>
      </trkpt>
      <trkpt lat="42.93146967" lon="13.59174205">
        <ele>471.00000</ele>
        <time>2024-04-19T12:17:06Z</time>
      </trkpt>
      <trkpt lat="42.93149013" lon="13.59181816">
        <ele>471.00000</ele>
        <time>2024-04-19T12:17:07Z</time>
      </trkpt>
      <trkpt lat="42.93149935" lon="13.59189662">
        <ele>471.00000</ele>
        <time>2024-04-19T12:17:08Z</time>
      </trkpt>
      <trkpt lat="42.93149800" lon="13.59197541">
        <ele>472.00000</ele>
        <time>2024-04-19T12:17:09Z</time>
      </trkpt>
      <trkpt lat="42.93149214" lon="13.59205118">
        <ele>472.00000</ele>
        <time>2024-04-19T12:17:10Z</time>
      </trkpt>
      <trkpt lat="42.93148107" lon="13.59212142">
        <ele>472.00000</ele>
        <time>2024-04-19T12:17:11Z</time>
      </trkpt>
      <trkpt lat="42.93146540" lon="13.59218948">
        <ele>473.00000</ele>
        <time>2024-04-19T12:17:12Z</time>
      </trkpt>
      <trkpt lat="42.93144386" lon="13.59225838">
        <ele>473.00000</ele>
        <time>2024-04-19T12:17:13Z</time>
      </trkpt>
      <trkpt lat="42.93141452" lon="13.59231965">
        <ele>473.00000</ele>
        <time>2024-04-19T12:17:14Z</time>
      </trkpt>
      <trkpt lat="42.93137697" lon="13.59236869">
        <ele>474.00000</ele>
        <time>2024-04-19T12:17:15Z</time>
      </trkpt>
      <trkpt lat="42.93133447" lon="13.59241252">
        <ele>475.00000</ele>
        <time>2024-04-19T12:17:16Z</time>
      </trkpt>
      <trkpt lat="42.93128695" lon="13.59245426">
        <ele>476.00000</ele>
        <time>2024-04-19T12:17:17Z</time>
      </trkpt>
      <trkpt lat="42.93123263" lon="13.59249140">
        <ele>476.00000</ele>
        <time>2024-04-19T12:17:18Z</time>
      </trkpt>
      <trkpt lat="42.93117832" lon="13.59251939">
        <ele>477.00000</ele>
        <time>2024-04-19T12:17:19Z</time>
      </trkpt>
      <trkpt lat="42.93112786" lon="13.59254504">
        <ele>477.00000</ele>
        <time>2024-04-19T12:17:20Z</time>
      </trkpt>
      <trkpt lat="42.93107866" lon="13.59257337">
        <ele>478.00000</ele>
        <time>2024-04-19T12:17:21Z</time>
      </trkpt>
      <trkpt lat="42.93102728" lon="13.59260422">
        <ele>479.00000</ele>
        <time>2024-04-19T12:17:22Z</time>
      </trkpt>
      <trkpt lat="42.93097707" lon="13.59263406">
        <ele>479.00000</ele>
        <time>2024-04-19T12:17:23Z</time>
      </trkpt>
      <trkpt lat="42.93092602" lon="13.59266230">
        <ele>479.00000</ele>
        <time>2024-04-19T12:17:24Z</time>
      </trkpt>
      <trkpt lat="42.93087565" lon="13.59269156">
        <ele>480.00000</ele>
        <time>2024-04-19T12:17:25Z</time>
      </trkpt>
      <trkpt lat="42.93082603" lon="13.59272735">
        <ele>480.00000</ele>
        <time>2024-04-19T12:17:26Z</time>
      </trkpt>
      <trkpt lat="42.93077800" lon="13.59276976">
        <ele>481.00000</ele>
        <time>2024-04-19T12:17:27Z</time>
      </trkpt>
      <trkpt lat="42.93073156" lon="13.59281511">
        <ele>481.00000</ele>
        <time>2024-04-19T12:17:28Z</time>
      </trkpt>
      <trkpt lat="42.93068571" lon="13.59286163">
        <ele>482.00000</ele>
        <time>2024-04-19T12:17:29Z</time>
      </trkpt>
      <trkpt lat="42.93064196" lon="13.59291384">
        <ele>482.00000</ele>
        <time>2024-04-19T12:17:30Z</time>
      </trkpt>
      <trkpt lat="42.93059963" lon="13.59297067">
        <ele>483.00000</ele>
        <time>2024-04-19T12:17:31Z</time>
      </trkpt>
      <trkpt lat="42.93055722" lon="13.59303077">
        <ele>483.00000</ele>
        <time>2024-04-19T12:17:32Z</time>
      </trkpt>
      <trkpt lat="42.93051456" lon="13.59309280">
        <ele>483.00000</ele>
        <time>2024-04-19T12:17:33Z</time>
      </trkpt>
      <trkpt lat="42.93046234" lon="13.59316731">
        <ele>483.00000</ele>
        <time>2024-04-19T12:17:34Z</time>
      </trkpt>
      <trkpt lat="42.93041607" lon="13.59322557">
        <ele>483.00000</ele>
        <time>2024-04-19T12:17:35Z</time>
      </trkpt>
      <trkpt lat="42.93036871" lon="13.59328340">
        <ele>483.00000</ele>
        <time>2024-04-19T12:17:36Z</time>
      </trkpt>
      <trkpt lat="42.93032026" lon="13.59334141">
        <ele>484.00000</ele>
        <time>2024-04-19T12:17:37Z</time>
      </trkpt>
      <trkpt lat="42.93026980" lon="13.59339429">
        <ele>484.00000</ele>
        <time>2024-04-19T12:17:38Z</time>
      </trkpt>
      <trkpt lat="42.93022781" lon="13.59343235">
        <ele>484.00000</ele>
        <time>2024-04-19T12:17:39Z</time>
      </trkpt>
      <trkpt lat="42.93017417" lon="13.59347878">
        <ele>485.00000</ele>
        <time>2024-04-19T12:17:40Z</time>
      </trkpt>
      <trkpt lat="42.93011792" lon="13.59352497">
        <ele>486.00000</ele>
        <time>2024-04-19T12:17:41Z</time>
      </trkpt>
      <trkpt lat="42.93006177" lon="13.59356696">
        <ele>486.00000</ele>
        <time>2024-04-19T12:17:42Z</time>
      </trkpt>
      <trkpt lat="42.93000636" lon="13.59360401">
        <ele>487.00000</ele>
        <time>2024-04-19T12:17:43Z</time>
      </trkpt>
      <trkpt lat="42.92995045" lon="13.59363745">
        <ele>487.00000</ele>
        <time>2024-04-19T12:17:44Z</time>
      </trkpt>
      <trkpt lat="42.92989471" lon="13.59366721">
        <ele>487.00000</ele>
        <time>2024-04-19T12:17:45Z</time>
      </trkpt>
      <trkpt lat="42.92983629" lon="13.59369470">
        <ele>487.00000</ele>
        <time>2024-04-19T12:17:46Z</time>
      </trkpt>
      <trkpt lat="42.92977611" lon="13.59372111">
        <ele>487.00000</ele>
        <time>2024-04-19T12:17:47Z</time>
      </trkpt>
      <trkpt lat="42.92971459" lon="13.59374600">
        <ele>487.00000</ele>
        <time>2024-04-19T12:17:48Z</time>
      </trkpt>
      <trkpt lat="42.92965063" lon="13.59377207">
        <ele>486.00000</ele>
        <time>2024-04-19T12:17:49Z</time>
      </trkpt>
      <trkpt lat="42.92958442" lon="13.59378933">
        <ele>486.00000</ele>
        <time>2024-04-19T12:17:50Z</time>
      </trkpt>
      <trkpt lat="42.92951761" lon="13.59379369">
        <ele>486.00000</ele>
        <time>2024-04-19T12:17:51Z</time>
      </trkpt>
      <trkpt lat="42.92944871" lon="13.59378556">
        <ele>486.00000</ele>
        <time>2024-04-19T12:17:52Z</time>
      </trkpt>
      <trkpt lat="42.92938166" lon="13.59376218">
        <ele>486.00000</ele>
        <time>2024-04-19T12:17:53Z</time>
      </trkpt>
      <trkpt lat="42.92931921" lon="13.59372379">
        <ele>485.00000</ele>
        <time>2024-04-19T12:17:54Z</time>
      </trkpt>
      <trkpt lat="42.92925735" lon="13.59367039">
        <ele>485.00000</ele>
        <time>2024-04-19T12:17:55Z</time>
      </trkpt>
      <trkpt lat="42.92919198" lon="13.59360577">
        <ele>485.00000</ele>
        <time>2024-04-19T12:17:56Z</time>
      </trkpt>
      <trkpt lat="42.92912534" lon="13.59354115">
        <ele>485.00000</ele>
        <time>2024-04-19T12:17:57Z</time>
      </trkpt>
      <trkpt lat="42.92905393" lon="13.59348230">
        <ele>484.00000</ele>
        <time>2024-04-19T12:17:58Z</time>
      </trkpt>
      <trkpt lat="42.92897430" lon="13.59343511">
        <ele>483.00000</ele>
        <time>2024-04-19T12:17:59Z</time>
      </trkpt>
      <trkpt lat="42.92888361" lon="13.59340553">
        <ele>481.00000</ele>
        <time>2024-04-19T12:18:00Z</time>
      </trkpt>
      <trkpt lat="42.92878587" lon="13.59338935">
        <ele>480.00000</ele>
        <time>2024-04-19T12:18:01Z</time>
      </trkpt>
      <trkpt lat="42.92868345" lon="13.59338340">
        <ele>478.00000</ele>
        <time>2024-04-19T12:18:02Z</time>
      </trkpt>
      <trkpt lat="42.92857624" lon="13.59338155">
        <ele>477.00000</ele>
        <time>2024-04-19T12:18:03Z</time>
      </trkpt>
      <trkpt lat="42.92846384" lon="13.59338373">
        <ele>477.00000</ele>
        <time>2024-04-19T12:18:04Z</time>
      </trkpt>
      <trkpt lat="42.92834834" lon="13.59338960">
        <ele>477.00000</ele>
        <time>2024-04-19T12:18:05Z</time>
      </trkpt>
      <trkpt lat="42.92823099" lon="13.59338968">
        <ele>477.00000</ele>
        <time>2024-04-19T12:18:06Z</time>
      </trkpt>
      <trkpt lat="42.92811398" lon="13.59337787">
        <ele>477.00000</ele>
        <time>2024-04-19T12:18:07Z</time>
      </trkpt>
      <trkpt lat="42.92799739" lon="13.59334702">
        <ele>477.00000</ele>
        <time>2024-04-19T12:18:08Z</time>
      </trkpt>
      <trkpt lat="42.92788255" lon="13.59330637">
        <ele>476.00000</ele>
        <time>2024-04-19T12:18:09Z</time>
      </trkpt>
      <trkpt lat="42.92776999" lon="13.59325926">
        <ele>475.00000</ele>
        <time>2024-04-19T12:18:10Z</time>
      </trkpt>
      <trkpt lat="42.92765817" lon="13.59320788">
        <ele>475.00000</ele>
        <time>2024-04-19T12:18:11Z</time>
      </trkpt>
      <trkpt lat="42.92754728" lon="13.59316086">
        <ele>476.00000</ele>
        <time>2024-04-19T12:18:12Z</time>
      </trkpt>
      <trkpt lat="42.92743421" lon="13.59313035">
        <ele>477.00000</ele>
        <time>2024-04-19T12:18:13Z</time>
      </trkpt>
      <trkpt lat="42.92732122" lon="13.59313102">
        <ele>477.00000</ele>
        <time>2024-04-19T12:18:14Z</time>
      </trkpt>
      <trkpt lat="42.92721183" lon="13.59315767">
        <ele>477.00000</ele>
        <time>2024-04-19T12:18:15Z</time>
      </trkpt>
      <trkpt lat="42.92710488" lon="13.59320403">
        <ele>476.00000</ele>
        <time>2024-04-19T12:18:16Z</time>
      </trkpt>
      <trkpt lat="42.92700296" lon="13.59327192">
        <ele>474.00000</ele>
        <time>2024-04-19T12:18:17Z</time>
      </trkpt>
      <trkpt lat="42.92690875" lon="13.59336521">
        <ele>472.00000</ele>
        <time>2024-04-19T12:18:18Z</time>
      </trkpt>
      <trkpt lat="42.92682819" lon="13.59348113">
        <ele>471.00000</ele>
        <time>2024-04-19T12:18:19Z</time>
      </trkpt>
      <trkpt lat="42.92676785" lon="13.59362061">
        <ele>470.00000</ele>
        <time>2024-04-19T12:18:20Z</time>
      </trkpt>
      <trkpt lat="42.92672744" lon="13.59377835">
        <ele>470.00000</ele>
        <time>2024-04-19T12:18:21Z</time>
      </trkpt>
      <trkpt lat="42.92670481" lon="13.59394591">
        <ele>469.00000</ele>
        <time>2024-04-19T12:18:22Z</time>
      </trkpt>
      <trkpt lat="42.92668386" lon="13.59415026">
        <ele>467.00000</ele>
        <time>2024-04-19T12:18:23Z</time>
      </trkpt>
      <trkpt lat="42.92665570" lon="13.59431530">
        <ele>467.00000</ele>
        <time>2024-04-19T12:18:24Z</time>
      </trkpt>
      <trkpt lat="42.92661949" lon="13.59444145">
        <ele>466.00000</ele>
        <time>2024-04-19T12:18:25Z</time>
      </trkpt>
      <trkpt lat="42.92656006" lon="13.59459416">
        <ele>466.00000</ele>
        <time>2024-04-19T12:18:26Z</time>
      </trkpt>
      <trkpt lat="42.92649091" lon="13.59474806">
        <ele>465.00000</ele>
        <time>2024-04-19T12:18:27Z</time>
      </trkpt>
      <trkpt lat="42.92642276" lon="13.59490270">
        <ele>465.00000</ele>
        <time>2024-04-19T12:18:28Z</time>
      </trkpt>
      <trkpt lat="42.92635671" lon="13.59505995">
        <ele>464.00000</ele>
        <time>2024-04-19T12:18:29Z</time>
      </trkpt>
      <trkpt lat="42.92629779" lon="13.59522256">
        <ele>464.00000</ele>
        <time>2024-04-19T12:18:30Z</time>
      </trkpt>
      <trkpt lat="42.92624389" lon="13.59542640">
        <ele>464.00000</ele>
        <time>2024-04-19T12:18:31Z</time>
      </trkpt>
      <trkpt lat="42.92621682" lon="13.59560427">
        <ele>464.00000</ele>
        <time>2024-04-19T12:18:32Z</time>
      </trkpt>
      <trkpt lat="42.92621003" lon="13.59578238">
        <ele>464.00000</ele>
        <time>2024-04-19T12:18:33Z</time>
      </trkpt>
      <trkpt lat="42.92622109" lon="13.59592295">
        <ele>464.00000</ele>
        <time>2024-04-19T12:18:34Z</time>
      </trkpt>
      <trkpt lat="42.92624574" lon="13.59609595">
        <ele>463.00000</ele>
        <time>2024-04-19T12:18:35Z</time>
      </trkpt>
      <trkpt lat="42.92627432" lon="13.59626761">
        <ele>461.00000</ele>
        <time>2024-04-19T12:18:36Z</time>
      </trkpt>
      <trkpt lat="42.92630206" lon="13.59643869">
        <ele>459.00000</ele>
        <time>2024-04-19T12:18:37Z</time>
      </trkpt>
      <trkpt lat="42.92632788" lon="13.59661035">
        <ele>457.00000</ele>
        <time>2024-04-19T12:18:38Z</time>
      </trkpt>
      <trkpt lat="42.92635302" lon="13.59678192">
        <ele>456.00000</ele>
        <time>2024-04-19T12:18:39Z</time>
      </trkpt>
      <trkpt lat="42.92637364" lon="13.59695560">
        <ele>456.00000</ele>
        <time>2024-04-19T12:18:40Z</time>
      </trkpt>
      <trkpt lat="42.92638362" lon="13.59713036">
        <ele>456.00000</ele>
        <time>2024-04-19T12:18:41Z</time>
      </trkpt>
      <trkpt lat="42.92638228" lon="13.59730621">
        <ele>455.00000</ele>
        <time>2024-04-19T12:18:42Z</time>
      </trkpt>
      <trkpt lat="42.92636325" lon="13.59748056">
        <ele>455.00000</ele>
        <time>2024-04-19T12:18:43Z</time>
      </trkpt>
      <trkpt lat="42.92632268" lon="13.59765054">
        <ele>456.00000</ele>
        <time>2024-04-19T12:18:44Z</time>
      </trkpt>
      <trkpt lat="42.92626116" lon="13.59785213">
        <ele>456.00000</ele>
        <time>2024-04-19T12:18:45Z</time>
      </trkpt>
      <trkpt lat="42.92620743" lon="13.59797677">
        <ele>455.00000</ele>
        <time>2024-04-19T12:18:46Z</time>
      </trkpt>
      <trkpt lat="42.92612730" lon="13.59811507">
        <ele>455.00000</ele>
        <time>2024-04-19T12:18:47Z</time>
      </trkpt>
      <trkpt lat="42.92603443" lon="13.59824088">
        <ele>453.00000</ele>
        <time>2024-04-19T12:18:48Z</time>
      </trkpt>
      <trkpt lat="42.92593007" lon="13.59834976">
        <ele>451.00000</ele>
        <time>2024-04-19T12:18:49Z</time>
      </trkpt>
      <trkpt lat="42.92581139" lon="13.59843819">
        <ele>451.00000</ele>
        <time>2024-04-19T12:18:50Z</time>
      </trkpt>
      <trkpt lat="42.92568331" lon="13.59851270">
        <ele>451.00000</ele>
        <time>2024-04-19T12:18:51Z</time>
      </trkpt>
      <trkpt lat="42.92555549" lon="13.59858571">
        <ele>452.00000</ele>
        <time>2024-04-19T12:18:52Z</time>
      </trkpt>
      <trkpt lat="42.92542800" lon="13.59866417">
        <ele>451.00000</ele>
        <time>2024-04-19T12:18:53Z</time>
      </trkpt>
      <trkpt lat="42.92530411" lon="13.59875000">
        <ele>449.00000</ele>
        <time>2024-04-19T12:18:54Z</time>
      </trkpt>
      <trkpt lat="42.92518878" lon="13.59885175">
        <ele>449.00000</ele>
        <time>2024-04-19T12:18:55Z</time>
      </trkpt>
      <trkpt lat="42.92508375" lon="13.59896566">
        <ele>448.00000</ele>
        <time>2024-04-19T12:18:56Z</time>
      </trkpt>
      <trkpt lat="42.92498962" lon="13.59909399">
        <ele>447.00000</ele>
        <time>2024-04-19T12:18:57Z</time>
      </trkpt>
      <trkpt lat="42.92490589" lon="13.59923606">
        <ele>447.00000</ele>
        <time>2024-04-19T12:18:58Z</time>
      </trkpt>
      <trkpt lat="42.92482215" lon="13.59937814">
        <ele>447.00000</ele>
        <time>2024-04-19T12:18:59Z</time>
      </trkpt>
      <trkpt lat="42.92473867" lon="13.59952096">
        <ele>447.00000</ele>
        <time>2024-04-19T12:19:00Z</time>
      </trkpt>
      <trkpt lat="42.92465317" lon="13.59966178">
        <ele>447.00000</ele>
        <time>2024-04-19T12:19:01Z</time>
      </trkpt>
      <trkpt lat="42.92456299" lon="13.59979514">
        <ele>446.00000</ele>
        <time>2024-04-19T12:19:02Z</time>
      </trkpt>
      <trkpt lat="42.92446894" lon="13.59992288">
        <ele>445.00000</ele>
        <time>2024-04-19T12:19:03Z</time>
      </trkpt>
      <trkpt lat="42.92436509" lon="13.60003871">
        <ele>445.00000</ele>
        <time>2024-04-19T12:19:04Z</time>
      </trkpt>
      <trkpt lat="42.92422997" lon="13.60015472">
        <ele>444.00000</ele>
        <time>2024-04-19T12:19:05Z</time>
      </trkpt>
      <trkpt lat="42.92413392" lon="13.60022345">
        <ele>443.00000</ele>
        <time>2024-04-19T12:19:06Z</time>
      </trkpt>
      <trkpt lat="42.92401347" lon="13.60030970">
        <ele>442.00000</ele>
        <time>2024-04-19T12:19:07Z</time>
      </trkpt>
      <trkpt lat="42.92389143" lon="13.60040039">
        <ele>441.00000</ele>
        <time>2024-04-19T12:19:08Z</time>
      </trkpt>
      <trkpt lat="42.92374349" lon="13.60050810">
        <ele>440.00000</ele>
        <time>2024-04-19T12:19:09Z</time>
      </trkpt>
      <trkpt lat="42.92364181" lon="13.60057474">
        <ele>439.00000</ele>
        <time>2024-04-19T12:19:10Z</time>
      </trkpt>
      <trkpt lat="42.92351441" lon="13.60065830">
        <ele>439.00000</ele>
        <time>2024-04-19T12:19:11Z</time>
      </trkpt>
      <trkpt lat="42.92338659" lon="13.60074531">
        <ele>438.00000</ele>
        <time>2024-04-19T12:19:12Z</time>
      </trkpt>
      <trkpt lat="42.92325692" lon="13.60083105">
        <ele>438.00000</ele>
        <time>2024-04-19T12:19:13Z</time>
      </trkpt>
      <trkpt lat="42.92312675" lon="13.60091496">
        <ele>437.00000</ele>
        <time>2024-04-19T12:19:14Z</time>
      </trkpt>
      <trkpt lat="42.92299565" lon="13.60099928">
        <ele>435.00000</ele>
        <time>2024-04-19T12:19:15Z</time>
      </trkpt>
      <trkpt lat="42.92286045" lon="13.60107715">
        <ele>432.00000</ele>
        <time>2024-04-19T12:19:16Z</time>
      </trkpt>
      <trkpt lat="42.92272366" lon="13.60115569">
        <ele>428.00000</ele>
        <time>2024-04-19T12:19:17Z</time>
      </trkpt>
      <trkpt lat="42.92258444" lon="13.60123146">
        <ele>423.00000</ele>
        <time>2024-04-19T12:19:18Z</time>
      </trkpt>
      <trkpt lat="42.92244605" lon="13.60130681">
        <ele>419.00000</ele>
        <time>2024-04-19T12:19:19Z</time>
      </trkpt>
      <trkpt lat="42.92230574" lon="13.60138133">
        <ele>415.00000</ele>
        <time>2024-04-19T12:19:20Z</time>
      </trkpt>
      <trkpt lat="42.92216811" lon="13.60145961">
        <ele>414.00000</ele>
        <time>2024-04-19T12:19:21Z</time>
      </trkpt>
      <trkpt lat="42.92203526" lon="13.60154779">
        <ele>413.00000</ele>
        <time>2024-04-19T12:19:22Z</time>
      </trkpt>
      <trkpt lat="42.92191347" lon="13.60165567">
        <ele>414.00000</ele>
        <time>2024-04-19T12:19:23Z</time>
      </trkpt>
      <trkpt lat="42.92180534" lon="13.60178039">
        <ele>415.00000</ele>
        <time>2024-04-19T12:19:24Z</time>
      </trkpt>
      <trkpt lat="42.92171431" lon="13.60191953">
        <ele>417.00000</ele>
        <time>2024-04-19T12:19:25Z</time>
      </trkpt>
      <trkpt lat="42.92163510" lon="13.60207593">
        <ele>417.00000</ele>
        <time>2024-04-19T12:19:26Z</time>
      </trkpt>
      <trkpt lat="42.92155832" lon="13.60223972">
        <ele>417.00000</ele>
        <time>2024-04-19T12:19:27Z</time>
      </trkpt>
      <trkpt lat="42.92147585" lon="13.60239746">
        <ele>416.00000</ele>
        <time>2024-04-19T12:19:28Z</time>
      </trkpt>
      <trkpt lat="42.92138298" lon="13.60254675">
        <ele>415.00000</ele>
        <time>2024-04-19T12:19:29Z</time>
      </trkpt>
      <trkpt lat="42.92128365" lon="13.60268505">
        <ele>413.00000</ele>
        <time>2024-04-19T12:19:30Z</time>
      </trkpt>
      <trkpt lat="42.92118030" lon="13.60281840">
        <ele>411.00000</ele>
        <time>2024-04-19T12:19:31Z</time>
      </trkpt>
      <trkpt lat="42.92107427" lon="13.60294916">
        <ele>410.00000</ele>
        <time>2024-04-19T12:19:32Z</time>
      </trkpt>
      <trkpt lat="42.92096539" lon="13.60308059">
        <ele>409.00000</ele>
        <time>2024-04-19T12:19:33Z</time>
      </trkpt>
      <trkpt lat="42.92085869" lon="13.60321084">
        <ele>408.00000</ele>
        <time>2024-04-19T12:19:34Z</time>
      </trkpt>
      <trkpt lat="42.92075173" lon="13.60333917">
        <ele>409.00000</ele>
        <time>2024-04-19T12:19:35Z</time>
      </trkpt>
      <trkpt lat="42.92064336" lon="13.60346876">
        <ele>409.00000</ele>
        <time>2024-04-19T12:19:36Z</time>
      </trkpt>
      <trkpt lat="42.92053146" lon="13.60359650">
        <ele>410.00000</ele>
        <time>2024-04-19T12:19:37Z</time>
      </trkpt>
      <trkpt lat="42.92041654" lon="13.60371619">
        <ele>410.00000</ele>
        <time>2024-04-19T12:19:38Z</time>
      </trkpt>
      <trkpt lat="42.92029802" lon="13.60382465">
        <ele>410.00000</ele>
        <time>2024-04-19T12:19:39Z</time>
      </trkpt>
      <trkpt lat="42.92017238" lon="13.60392113">
        <ele>410.00000</ele>
        <time>2024-04-19T12:19:40Z</time>
      </trkpt>
      <trkpt lat="42.92004304" lon="13.60401249">
        <ele>410.00000</ele>
        <time>2024-04-19T12:19:41Z</time>
      </trkpt>
      <trkpt lat="42.91991480" lon="13.60410125">
        <ele>410.00000</ele>
        <time>2024-04-19T12:19:42Z</time>
      </trkpt>
      <trkpt lat="42.91978606" lon="13.60418759">
        <ele>410.00000</ele>
        <time>2024-04-19T12:19:43Z</time>
      </trkpt>
      <trkpt lat="42.91966058" lon="13.60427317">
        <ele>410.00000</ele>
        <time>2024-04-19T12:19:44Z</time>
      </trkpt>
      <trkpt lat="42.91953778" lon="13.60436067">
        <ele>410.00000</ele>
        <time>2024-04-19T12:19:45Z</time>
      </trkpt>
      <trkpt lat="42.91941700" lon="13.60444449">
        <ele>409.00000</ele>
        <time>2024-04-19T12:19:46Z</time>
      </trkpt>
      <trkpt lat="42.91929781" lon="13.60452395">
        <ele>410.00000</ele>
        <time>2024-04-19T12:19:47Z</time>
      </trkpt>
      <trkpt lat="42.91918407" lon="13.60460182">
        <ele>411.00000</ele>
        <time>2024-04-19T12:19:48Z</time>
      </trkpt>
      <trkpt lat="42.91907552" lon="13.60467927">
        <ele>413.00000</ele>
        <time>2024-04-19T12:19:49Z</time>
      </trkpt>
      <trkpt lat="42.91897242" lon="13.60476342">
        <ele>414.00000</ele>
        <time>2024-04-19T12:19:50Z</time>
      </trkpt>
      <trkpt lat="42.91887989" lon="13.60486208">
        <ele>415.00000</ele>
        <time>2024-04-19T12:19:51Z</time>
      </trkpt>
      <trkpt lat="42.91880076" lon="13.60497121">
        <ele>415.00000</ele>
        <time>2024-04-19T12:19:52Z</time>
      </trkpt>
      <trkpt lat="42.91873857" lon="13.60509040">
        <ele>414.00000</ele>
        <time>2024-04-19T12:19:53Z</time>
      </trkpt>
      <trkpt lat="42.91868953" lon="13.60522476">
        <ele>414.00000</ele>
        <time>2024-04-19T12:19:54Z</time>
      </trkpt>
      <trkpt lat="42.91865056" lon="13.60536525">
        <ele>413.00000</ele>
        <time>2024-04-19T12:19:55Z</time>
      </trkpt>
      <trkpt lat="42.91861896" lon="13.60550782">
        <ele>413.00000</ele>
        <time>2024-04-19T12:19:56Z</time>
      </trkpt>
      <trkpt lat="42.91859239" lon="13.60564906">
        <ele>413.00000</ele>
        <time>2024-04-19T12:19:57Z</time>
      </trkpt>
      <trkpt lat="42.91856615" lon="13.60578660">
        <ele>413.00000</ele>
        <time>2024-04-19T12:19:58Z</time>
      </trkpt>
      <trkpt lat="42.91854009" lon="13.60592206">
        <ele>413.00000</ele>
        <time>2024-04-19T12:19:59Z</time>
      </trkpt>
      <trkpt lat="42.91851452" lon="13.60605441">
        <ele>412.00000</ele>
        <time>2024-04-19T12:20:00Z</time>
      </trkpt>
      <trkpt lat="42.91848896" lon="13.60618592">
        <ele>411.00000</ele>
        <time>2024-04-19T12:20:01Z</time>
      </trkpt>
      <trkpt lat="42.91846314" lon="13.60631592">
        <ele>410.00000</ele>
        <time>2024-04-19T12:20:02Z</time>
      </trkpt>
      <trkpt lat="42.91843766" lon="13.60644374">
        <ele>409.00000</ele>
        <time>2024-04-19T12:20:03Z</time>
      </trkpt>
      <trkpt lat="42.91841302" lon="13.60656897">
        <ele>409.00000</ele>
        <time>2024-04-19T12:20:04Z</time>
      </trkpt>
      <trkpt lat="42.91838946" lon="13.60669026">
        <ele>409.00000</ele>
        <time>2024-04-19T12:20:05Z</time>
      </trkpt>
      <trkpt lat="42.91836532" lon="13.60680970">
        <ele>409.00000</ele>
        <time>2024-04-19T12:20:06Z</time>
      </trkpt>
      <trkpt lat="42.91834236" lon="13.60692654">
        <ele>409.00000</ele>
        <time>2024-04-19T12:20:07Z</time>
      </trkpt>
      <trkpt lat="42.91831931" lon="13.60703920">
        <ele>411.00000</ele>
        <time>2024-04-19T12:20:08Z</time>
      </trkpt>
      <trkpt lat="42.91829676" lon="13.60714925">
        <ele>412.00000</ele>
        <time>2024-04-19T12:20:09Z</time>
      </trkpt>
      <trkpt lat="42.91827438" lon="13.60725805">
        <ele>413.00000</ele>
        <time>2024-04-19T12:20:10Z</time>
      </trkpt>
      <trkpt lat="42.91825041" lon="13.60736173">
        <ele>414.00000</ele>
        <time>2024-04-19T12:20:11Z</time>
      </trkpt>
      <trkpt lat="42.91822610" lon="13.60746592">
        <ele>415.00000</ele>
        <time>2024-04-19T12:20:12Z</time>
      </trkpt>
      <trkpt lat="42.91820506" lon="13.60757270">
        <ele>415.00000</ele>
        <time>2024-04-19T12:20:13Z</time>
      </trkpt>
      <trkpt lat="42.91818712" lon="13.60767899">
        <ele>415.00000</ele>
        <time>2024-04-19T12:20:14Z</time>
      </trkpt>
      <trkpt lat="42.91816793" lon="13.60778468">
        <ele>415.00000</ele>
        <time>2024-04-19T12:20:15Z</time>
      </trkpt>
      <trkpt lat="42.91814697" lon="13.60788862">
        <ele>415.00000</ele>
        <time>2024-04-19T12:20:16Z</time>
      </trkpt>
      <trkpt lat="42.91812258" lon="13.60798870">
        <ele>415.00000</ele>
        <time>2024-04-19T12:20:17Z</time>
      </trkpt>
      <trkpt lat="42.91809760" lon="13.60808702">
        <ele>415.00000</ele>
        <time>2024-04-19T12:20:18Z</time>
      </trkpt>
      <trkpt lat="42.91807321" lon="13.60818525">
        <ele>415.00000</ele>
        <time>2024-04-19T12:20:19Z</time>
      </trkpt>
      <trkpt lat="42.91805083" lon="13.60828240">
        <ele>415.00000</ele>
        <time>2024-04-19T12:20:20Z</time>
      </trkpt>
      <trkpt lat="42.91802778" lon="13.60837737">
        <ele>415.00000</ele>
        <time>2024-04-19T12:20:21Z</time>
      </trkpt>
      <trkpt lat="42.91800348" lon="13.60847317">
        <ele>415.00000</ele>
        <time>2024-04-19T12:20:22Z</time>
      </trkpt>
      <trkpt lat="42.91797766" lon="13.60856856">
        <ele>415.00000</ele>
        <time>2024-04-19T12:20:23Z</time>
      </trkpt>
      <trkpt lat="42.91794924" lon="13.60866118">
        <ele>415.00000</ele>
        <time>2024-04-19T12:20:24Z</time>
      </trkpt>
      <trkpt lat="42.91791991" lon="13.60875220">
        <ele>416.00000</ele>
        <time>2024-04-19T12:20:25Z</time>
      </trkpt>
      <trkpt lat="42.91788898" lon="13.60884415">
        <ele>416.00000</ele>
        <time>2024-04-19T12:20:26Z</time>
      </trkpt>
      <trkpt lat="42.91785872" lon="13.60893971">
        <ele>417.00000</ele>
        <time>2024-04-19T12:20:27Z</time>
      </trkpt>
      <trkpt lat="42.91783056" lon="13.60903761">
        <ele>417.00000</ele>
        <time>2024-04-19T12:20:28Z</time>
      </trkpt>
      <trkpt lat="42.91780290" lon="13.60913408">
        <ele>417.00000</ele>
        <time>2024-04-19T12:20:29Z</time>
      </trkpt>
      <trkpt lat="42.91777457" lon="13.60922930">
        <ele>418.00000</ele>
        <time>2024-04-19T12:20:30Z</time>
      </trkpt>
      <trkpt lat="42.91774699" lon="13.60932662">
        <ele>418.00000</ele>
        <time>2024-04-19T12:20:31Z</time>
      </trkpt>
      <trkpt lat="42.91771807" lon="13.60942477">
        <ele>419.00000</ele>
        <time>2024-04-19T12:20:32Z</time>
      </trkpt>
      <trkpt lat="42.91768915" lon="13.60952518">
        <ele>419.00000</ele>
        <time>2024-04-19T12:20:33Z</time>
      </trkpt>
      <trkpt lat="42.91766108" lon="13.60962895">
        <ele>420.00000</ele>
        <time>2024-04-19T12:20:34Z</time>
      </trkpt>
      <trkpt lat="42.91763207" lon="13.60973590">
        <ele>420.00000</ele>
        <time>2024-04-19T12:20:35Z</time>
      </trkpt>
      <trkpt lat="42.91760257" lon="13.60984328">
        <ele>420.00000</ele>
        <time>2024-04-19T12:20:36Z</time>
      </trkpt>
      <trkpt lat="42.91757164" lon="13.60995090">
        <ele>420.00000</ele>
        <time>2024-04-19T12:20:37Z</time>
      </trkpt>
      <trkpt lat="42.91754172" lon="13.61005836">
        <ele>420.00000</ele>
        <time>2024-04-19T12:20:38Z</time>
      </trkpt>
      <trkpt lat="42.91751012" lon="13.61016581">
        <ele>419.00000</ele>
        <time>2024-04-19T12:20:39Z</time>
      </trkpt>
      <trkpt lat="42.91747818" lon="13.61027520">
        <ele>418.00000</ele>
        <time>2024-04-19T12:20:40Z</time>
      </trkpt>
      <trkpt lat="42.91744725" lon="13.61038911">
        <ele>416.00000</ele>
        <time>2024-04-19T12:20:41Z</time>
      </trkpt>
      <trkpt lat="42.91741699" lon="13.61050444">
        <ele>415.00000</ele>
        <time>2024-04-19T12:20:42Z</time>
      </trkpt>
      <trkpt lat="42.91738531" lon="13.61062103">
        <ele>414.00000</ele>
        <time>2024-04-19T12:20:43Z</time>
      </trkpt>
      <trkpt lat="42.91735245" lon="13.61073930">
        <ele>413.00000</ele>
        <time>2024-04-19T12:20:44Z</time>
      </trkpt>
      <trkpt lat="42.91731976" lon="13.61085841">
        <ele>412.00000</ele>
        <time>2024-04-19T12:20:45Z</time>
      </trkpt>
      <trkpt lat="42.91728431" lon="13.61097928">
        <ele>411.00000</ele>
        <time>2024-04-19T12:20:46Z</time>
      </trkpt>
      <trkpt lat="42.91724458" lon="13.61110048">
        <ele>410.00000</ele>
        <time>2024-04-19T12:20:47Z</time>
      </trkpt>
      <trkpt lat="42.91720049" lon="13.61122277">
        <ele>410.00000</ele>
        <time>2024-04-19T12:20:48Z</time>
      </trkpt>
      <trkpt lat="42.91715221" lon="13.61134062">
        <ele>411.00000</ele>
        <time>2024-04-19T12:20:49Z</time>
      </trkpt>
      <trkpt lat="42.91709790" lon="13.61145419">
        <ele>411.00000</ele>
        <time>2024-04-19T12:20:50Z</time>
      </trkpt>
      <trkpt lat="42.91703687" lon="13.61156090">
        <ele>411.00000</ele>
        <time>2024-04-19T12:20:51Z</time>
      </trkpt>
      <trkpt lat="42.91696823" lon="13.61166131">
        <ele>411.00000</ele>
        <time>2024-04-19T12:20:52Z</time>
      </trkpt>
      <trkpt lat="42.91689413" lon="13.61175578">
        <ele>411.00000</ele>
        <time>2024-04-19T12:20:53Z</time>
      </trkpt>
      <trkpt lat="42.91681266" lon="13.61184395">
        <ele>410.00000</ele>
        <time>2024-04-19T12:20:54Z</time>
      </trkpt>
      <trkpt lat="42.91672398" lon="13.61192123">
        <ele>410.00000</ele>
        <time>2024-04-19T12:20:55Z</time>
      </trkpt>
      <trkpt lat="42.91662801" lon="13.61198469">
        <ele>410.00000</ele>
        <time>2024-04-19T12:20:56Z</time>
      </trkpt>
      <trkpt lat="42.91652700" lon="13.61203850">
        <ele>411.00000</ele>
        <time>2024-04-19T12:20:57Z</time>
      </trkpt>
      <trkpt lat="42.91642433" lon="13.61208233">
        <ele>412.00000</ele>
        <time>2024-04-19T12:20:58Z</time>
      </trkpt>
      <trkpt lat="42.91632173" lon="13.61212081">
        <ele>412.00000</ele>
        <time>2024-04-19T12:20:59Z</time>
      </trkpt>
      <trkpt lat="42.91621972" lon="13.61215651">
        <ele>412.00000</ele>
        <time>2024-04-19T12:21:00Z</time>
      </trkpt>
      <trkpt lat="42.91611872" lon="13.61218929">
        <ele>412.00000</ele>
        <time>2024-04-19T12:21:01Z</time>
      </trkpt>
      <trkpt lat="42.91601780" lon="13.61222734">
        <ele>411.00000</ele>
        <time>2024-04-19T12:21:02Z</time>
      </trkpt>
      <trkpt lat="42.91591982" lon="13.61227034">
        <ele>410.00000</ele>
        <time>2024-04-19T12:21:03Z</time>
      </trkpt>
      <trkpt lat="42.91582611" lon="13.61232298">
        <ele>408.00000</ele>
        <time>2024-04-19T12:21:04Z</time>
      </trkpt>
      <trkpt lat="42.91573693" lon="13.61238601">
        <ele>408.00000</ele>
        <time>2024-04-19T12:21:05Z</time>
      </trkpt>
      <trkpt lat="42.91565042" lon="13.61246053">
        <ele>407.00000</ele>
        <time>2024-04-19T12:21:06Z</time>
      </trkpt>
      <trkpt lat="42.91556887" lon="13.61254351">
        <ele>406.00000</ele>
        <time>2024-04-19T12:21:07Z</time>
      </trkpt>
      <trkpt lat="42.91549150" lon="13.61263252">
        <ele>405.00000</ele>
        <time>2024-04-19T12:21:08Z</time>
      </trkpt>
      <trkpt lat="42.91541984" lon="13.61272481">
        <ele>405.00000</ele>
        <time>2024-04-19T12:21:09Z</time>
      </trkpt>
      <trkpt lat="42.91534960" lon="13.61281768">
        <ele>405.00000</ele>
        <time>2024-04-19T12:21:10Z</time>
      </trkpt>
      <trkpt lat="42.91528120" lon="13.61291147">
        <ele>406.00000</ele>
        <time>2024-04-19T12:21:11Z</time>
      </trkpt>
      <trkpt lat="42.91521264" lon="13.61300418">
        <ele>406.00000</ele>
        <time>2024-04-19T12:21:12Z</time>
      </trkpt>
      <trkpt lat="42.91514500" lon="13.61309923">
        <ele>406.00000</ele>
        <time>2024-04-19T12:21:13Z</time>
      </trkpt>
      <trkpt lat="42.91507811" lon="13.61319185">
        <ele>407.00000</ele>
        <time>2024-04-19T12:21:14Z</time>
      </trkpt>
      <trkpt lat="42.91501197" lon="13.61328371">
        <ele>407.00000</ele>
        <time>2024-04-19T12:21:15Z</time>
      </trkpt>
      <trkpt lat="42.91494433" lon="13.61337432">
        <ele>408.00000</ele>
        <time>2024-04-19T12:21:16Z</time>
      </trkpt>
      <trkpt lat="42.91487568" lon="13.61346325">
        <ele>408.00000</ele>
        <time>2024-04-19T12:21:17Z</time>
      </trkpt>
      <trkpt lat="42.91480947" lon="13.61355294">
        <ele>408.00000</ele>
        <time>2024-04-19T12:21:18Z</time>
      </trkpt>
      <trkpt lat="42.91474409" lon="13.61364237">
        <ele>407.00000</ele>
        <time>2024-04-19T12:21:19Z</time>
      </trkpt>
      <trkpt lat="42.91468005" lon="13.61372988">
        <ele>407.00000</ele>
        <time>2024-04-19T12:21:20Z</time>
      </trkpt>
      <trkpt lat="42.91461534" lon="13.61381680">
        <ele>407.00000</ele>
        <time>2024-04-19T12:21:21Z</time>
      </trkpt>
      <trkpt lat="42.91455063" lon="13.61390406">
        <ele>406.00000</ele>
        <time>2024-04-19T12:21:22Z</time>
      </trkpt>
      <trkpt lat="42.91448668" lon="13.61399081">
        <ele>406.00000</ele>
        <time>2024-04-19T12:21:23Z</time>
      </trkpt>
      <trkpt lat="42.91442331" lon="13.61407530">
        <ele>406.00000</ele>
        <time>2024-04-19T12:21:24Z</time>
      </trkpt>
      <trkpt lat="42.91436120" lon="13.61415803">
        <ele>406.00000</ele>
        <time>2024-04-19T12:21:25Z</time>
      </trkpt>
      <trkpt lat="42.91429985" lon="13.61424193">
        <ele>408.00000</ele>
        <time>2024-04-19T12:21:26Z</time>
      </trkpt>
      <trkpt lat="42.91423883" lon="13.61432550">
        <ele>409.00000</ele>
        <time>2024-04-19T12:21:27Z</time>
      </trkpt>
      <trkpt lat="42.91417839" lon="13.61440731">
        <ele>410.00000</ele>
        <time>2024-04-19T12:21:28Z</time>
      </trkpt>
      <trkpt lat="42.91411687" lon="13.61448677">
        <ele>411.00000</ele>
        <time>2024-04-19T12:21:29Z</time>
      </trkpt>
      <trkpt lat="42.91405518" lon="13.61456522">
        <ele>411.00000</ele>
        <time>2024-04-19T12:21:30Z</time>
      </trkpt>
      <trkpt lat="42.91399374" lon="13.61464301">
        <ele>411.00000</ele>
        <time>2024-04-19T12:21:31Z</time>
      </trkpt>
      <trkpt lat="42.91393674" lon="13.61471911">
        <ele>411.00000</ele>
        <time>2024-04-19T12:21:32Z</time>
      </trkpt>
      <trkpt lat="42.91387723" lon="13.61479011">
        <ele>410.00000</ele>
        <time>2024-04-19T12:21:33Z</time>
      </trkpt>
      <trkpt lat="42.91381588" lon="13.61485834">
        <ele>410.00000</ele>
        <time>2024-04-19T12:21:34Z</time>
      </trkpt>
      <trkpt lat="42.91375108" lon="13.61492858">
        <ele>410.00000</ele>
        <time>2024-04-19T12:21:35Z</time>
      </trkpt>
      <trkpt lat="42.91368269" lon="13.61499773">
        <ele>410.00000</ele>
        <time>2024-04-19T12:21:36Z</time>
      </trkpt>
      <trkpt lat="42.91361262" lon="13.61506814">
        <ele>409.00000</ele>
        <time>2024-04-19T12:21:37Z</time>
      </trkpt>
      <trkpt lat="42.91354271" lon="13.61513963">
        <ele>408.00000</ele>
        <time>2024-04-19T12:21:38Z</time>
      </trkpt>
      <trkpt lat="42.91347205" lon="13.61521096">
        <ele>408.00000</ele>
        <time>2024-04-19T12:21:39Z</time>
      </trkpt>
      <trkpt lat="42.91340240" lon="13.61528162">
        <ele>408.00000</ele>
        <time>2024-04-19T12:21:40Z</time>
      </trkpt>
      <trkpt lat="42.91333434" lon="13.61535186">
        <ele>407.00000</ele>
        <time>2024-04-19T12:21:41Z</time>
      </trkpt>
      <trkpt lat="42.91326594" lon="13.61542428">
        <ele>407.00000</ele>
        <time>2024-04-19T12:21:42Z</time>
      </trkpt>
      <trkpt lat="42.91319805" lon="13.61549494">
        <ele>408.00000</ele>
        <time>2024-04-19T12:21:43Z</time>
      </trkpt>
      <trkpt lat="42.91313049" lon="13.61556510">
        <ele>408.00000</ele>
        <time>2024-04-19T12:21:44Z</time>
      </trkpt>
      <trkpt lat="42.91306343" lon="13.61563475">
        <ele>409.00000</ele>
        <time>2024-04-19T12:21:45Z</time>
      </trkpt>
      <trkpt lat="42.91299588" lon="13.61570256">
        <ele>410.00000</ele>
        <time>2024-04-19T12:21:46Z</time>
      </trkpt>
      <trkpt lat="42.91292807" lon="13.61577029">
        <ele>410.00000</ele>
        <time>2024-04-19T12:21:47Z</time>
      </trkpt>
      <trkpt lat="42.91286034" lon="13.61583919">
        <ele>410.00000</ele>
        <time>2024-04-19T12:21:48Z</time>
      </trkpt>
      <trkpt lat="42.91279211" lon="13.61591001">
        <ele>411.00000</ele>
        <time>2024-04-19T12:21:49Z</time>
      </trkpt>
      <trkpt lat="42.91272707" lon="13.61598210">
        <ele>411.00000</ele>
        <time>2024-04-19T12:21:50Z</time>
      </trkpt>
      <trkpt lat="42.91266085" lon="13.61605586">
        <ele>411.00000</ele>
        <time>2024-04-19T12:21:51Z</time>
      </trkpt>
      <trkpt lat="42.91259639" lon="13.61612996">
        <ele>411.00000</ele>
        <time>2024-04-19T12:21:52Z</time>
      </trkpt>
      <trkpt lat="42.91253445" lon="13.61620925">
        <ele>411.00000</ele>
        <time>2024-04-19T12:21:53Z</time>
      </trkpt>
      <trkpt lat="42.91247419" lon="13.61629324">
        <ele>410.00000</ele>
        <time>2024-04-19T12:21:54Z</time>
      </trkpt>
      <trkpt lat="42.91241769" lon="13.61638057">
        <ele>410.00000</ele>
        <time>2024-04-19T12:21:55Z</time>
      </trkpt>
      <trkpt lat="42.91236665" lon="13.61647420">
        <ele>410.00000</ele>
        <time>2024-04-19T12:21:56Z</time>
      </trkpt>
      <trkpt lat="42.91231904" lon="13.61657545">
        <ele>409.00000</ele>
        <time>2024-04-19T12:21:57Z</time>
      </trkpt>
      <trkpt lat="42.91227495" lon="13.61668073">
        <ele>408.00000</ele>
        <time>2024-04-19T12:21:58Z</time>
      </trkpt>
      <trkpt lat="42.91223354" lon="13.61678509">
        <ele>408.00000</ele>
        <time>2024-04-19T12:21:59Z</time>
      </trkpt>
      <trkpt lat="42.91219389" lon="13.61689103">
        <ele>408.00000</ele>
        <time>2024-04-19T12:22:00Z</time>
      </trkpt>
      <trkpt lat="42.91215693" lon="13.61700218">
        <ele>409.00000</ele>
        <time>2024-04-19T12:22:01Z</time>
      </trkpt>
      <trkpt lat="42.91212332" lon="13.61711835">
        <ele>410.00000</ele>
        <time>2024-04-19T12:22:02Z</time>
      </trkpt>
      <trkpt lat="42.91209239" lon="13.61723561">
        <ele>411.00000</ele>
        <time>2024-04-19T12:22:03Z</time>
      </trkpt>
      <trkpt lat="42.91205911" lon="13.61735212">
        <ele>411.00000</ele>
        <time>2024-04-19T12:22:04Z</time>
      </trkpt>
      <trkpt lat="42.91202550" lon="13.61746913">
        <ele>411.00000</ele>
        <time>2024-04-19T12:22:05Z</time>
      </trkpt>
      <trkpt lat="42.91199122" lon="13.61758841">
        <ele>410.00000</ele>
        <time>2024-04-19T12:22:06Z</time>
      </trkpt>
      <trkpt lat="42.91195501" lon="13.61770751">
        <ele>410.00000</ele>
        <time>2024-04-19T12:22:07Z</time>
      </trkpt>
      <trkpt lat="42.91191972" lon="13.61782805">
        <ele>410.00000</ele>
        <time>2024-04-19T12:22:08Z</time>
      </trkpt>
      <trkpt lat="42.91188578" lon="13.61795084">
        <ele>409.00000</ele>
        <time>2024-04-19T12:22:09Z</time>
      </trkpt>
      <trkpt lat="42.91185116" lon="13.61807506">
        <ele>409.00000</ele>
        <time>2024-04-19T12:22:10Z</time>
      </trkpt>
      <trkpt lat="42.91181721" lon="13.61819953">
        <ele>408.00000</ele>
        <time>2024-04-19T12:22:11Z</time>
      </trkpt>
      <trkpt lat="42.91178083" lon="13.61832467">
        <ele>408.00000</ele>
        <time>2024-04-19T12:22:12Z</time>
      </trkpt>
      <trkpt lat="42.91174379" lon="13.61845241">
        <ele>408.00000</ele>
        <time>2024-04-19T12:22:13Z</time>
      </trkpt>
      <trkpt lat="42.91170883" lon="13.61858116">
        <ele>408.00000</ele>
        <time>2024-04-19T12:22:14Z</time>
      </trkpt>
      <trkpt lat="42.91167371" lon="13.61871083">
        <ele>408.00000</ele>
        <time>2024-04-19T12:22:15Z</time>
      </trkpt>
      <trkpt lat="42.91163985" lon="13.61884075">
        <ele>407.00000</ele>
        <time>2024-04-19T12:22:16Z</time>
      </trkpt>
      <trkpt lat="42.91160498" lon="13.61897134">
        <ele>407.00000</ele>
        <time>2024-04-19T12:22:17Z</time>
      </trkpt>
      <trkpt lat="42.91156869" lon="13.61910469">
        <ele>407.00000</ele>
        <time>2024-04-19T12:22:18Z</time>
      </trkpt>
      <trkpt lat="42.91153231" lon="13.61923880">
        <ele>407.00000</ele>
        <time>2024-04-19T12:22:19Z</time>
      </trkpt>
      <trkpt lat="42.91149392" lon="13.61937132">
        <ele>407.00000</ele>
        <time>2024-04-19T12:22:20Z</time>
      </trkpt>
      <trkpt lat="42.91145578" lon="13.61950183">
        <ele>407.00000</ele>
        <time>2024-04-19T12:22:21Z</time>
      </trkpt>
      <trkpt lat="42.91141966" lon="13.61963024">
        <ele>407.00000</ele>
        <time>2024-04-19T12:22:22Z</time>
      </trkpt>
      <trkpt lat="42.91138311" lon="13.61975664">
        <ele>407.00000</ele>
        <time>2024-04-19T12:22:23Z</time>
      </trkpt>
      <trkpt lat="42.91134598" lon="13.61988027">
        <ele>406.00000</ele>
        <time>2024-04-19T12:22:24Z</time>
      </trkpt>
      <trkpt lat="42.91130885" lon="13.62000298">
        <ele>406.00000</ele>
        <time>2024-04-19T12:22:25Z</time>
      </trkpt>
      <trkpt lat="42.91127390" lon="13.62012485">
        <ele>406.00000</ele>
        <time>2024-04-19T12:22:26Z</time>
      </trkpt>
      <trkpt lat="42.91124003" lon="13.62024790">
        <ele>407.00000</ele>
        <time>2024-04-19T12:22:27Z</time>
      </trkpt>
      <trkpt lat="42.91120726" lon="13.62036801">
        <ele>407.00000</ele>
        <time>2024-04-19T12:22:28Z</time>
      </trkpt>
      <trkpt lat="42.91117398" lon="13.62049282">
        <ele>407.00000</ele>
        <time>2024-04-19T12:22:29Z</time>
      </trkpt>
      <trkpt lat="42.91114046" lon="13.62061570">
        <ele>408.00000</ele>
        <time>2024-04-19T12:22:30Z</time>
      </trkpt>
      <trkpt lat="42.91110609" lon="13.62073539">
        <ele>408.00000</ele>
        <time>2024-04-19T12:22:31Z</time>
      </trkpt>
      <trkpt lat="42.91107047" lon="13.62085970">
        <ele>408.00000</ele>
        <time>2024-04-19T12:22:32Z</time>
      </trkpt>
      <trkpt lat="42.91103560" lon="13.62098149">
        <ele>408.00000</ele>
        <time>2024-04-19T12:22:33Z</time>
      </trkpt>
      <trkpt lat="42.91100006" lon="13.62110034">
        <ele>408.00000</ele>
        <time>2024-04-19T12:22:34Z</time>
      </trkpt>
      <trkpt lat="42.91096259" lon="13.62121920">
        <ele>408.00000</ele>
        <time>2024-04-19T12:22:35Z</time>
      </trkpt>
      <trkpt lat="42.91092395" lon="13.62134375">
        <ele>408.00000</ele>
        <time>2024-04-19T12:22:36Z</time>
      </trkpt>
      <trkpt lat="42.91088179" lon="13.62146864">
        <ele>408.00000</ele>
        <time>2024-04-19T12:22:37Z</time>
      </trkpt>
      <trkpt lat="42.91083460" lon="13.62159043">
        <ele>407.00000</ele>
        <time>2024-04-19T12:22:38Z</time>
      </trkpt>
      <trkpt lat="42.91078280" lon="13.62171255">
        <ele>407.00000</ele>
        <time>2024-04-19T12:22:39Z</time>
      </trkpt>
      <trkpt lat="42.91072933" lon="13.62183451">
        <ele>406.00000</ele>
        <time>2024-04-19T12:22:40Z</time>
      </trkpt>
      <trkpt lat="42.91067635" lon="13.62195789">
        <ele>405.00000</ele>
        <time>2024-04-19T12:22:41Z</time>
      </trkpt>
      <trkpt lat="42.91062271" lon="13.62208035">
        <ele>405.00000</ele>
        <time>2024-04-19T12:22:42Z</time>
      </trkpt>
      <trkpt lat="42.91057141" lon="13.62220591">
        <ele>404.00000</ele>
        <time>2024-04-19T12:22:43Z</time>
      </trkpt>
      <trkpt lat="42.91052254" lon="13.62233692">
        <ele>403.00000</ele>
        <time>2024-04-19T12:22:44Z</time>
      </trkpt>
      <trkpt lat="42.91047770" lon="13.62247413">
        <ele>402.00000</ele>
        <time>2024-04-19T12:22:45Z</time>
      </trkpt>
      <trkpt lat="42.91043940" lon="13.62261696">
        <ele>401.00000</ele>
        <time>2024-04-19T12:22:46Z</time>
      </trkpt>
      <trkpt lat="42.91041241" lon="13.62276557">
        <ele>400.00000</ele>
        <time>2024-04-19T12:22:47Z</time>
      </trkpt>
      <trkpt lat="42.91039673" lon="13.62291703">
        <ele>399.00000</ele>
        <time>2024-04-19T12:22:48Z</time>
      </trkpt>
      <trkpt lat="42.91038843" lon="13.62307034">
        <ele>398.00000</ele>
        <time>2024-04-19T12:22:49Z</time>
      </trkpt>
      <trkpt lat="42.91038542" lon="13.62322540">
        <ele>398.00000</ele>
        <time>2024-04-19T12:22:50Z</time>
      </trkpt>
      <trkpt lat="42.91038449" lon="13.62338265">
        <ele>398.00000</ele>
        <time>2024-04-19T12:22:51Z</time>
      </trkpt>
      <trkpt lat="42.91038441" lon="13.62354274">
        <ele>399.00000</ele>
        <time>2024-04-19T12:22:52Z</time>
      </trkpt>
      <trkpt lat="42.91038198" lon="13.62370125">
        <ele>398.00000</ele>
        <time>2024-04-19T12:22:53Z</time>
      </trkpt>
      <trkpt lat="42.91035952" lon="13.62385245">
        <ele>398.00000</ele>
        <time>2024-04-19T12:22:54Z</time>
      </trkpt>
      <trkpt lat="42.91031744" lon="13.62399914">
        <ele>399.00000</ele>
        <time>2024-04-19T12:22:55Z</time>
      </trkpt>
      <trkpt lat="42.91026849" lon="13.62414306">
        <ele>399.00000</ele>
        <time>2024-04-19T12:22:56Z</time>
      </trkpt>
      <trkpt lat="42.91021744" lon="13.62428672">
        <ele>398.00000</ele>
        <time>2024-04-19T12:22:57Z</time>
      </trkpt>
      <trkpt lat="42.91016631" lon="13.62442653">
        <ele>398.00000</ele>
        <time>2024-04-19T12:22:58Z</time>
      </trkpt>
      <trkpt lat="42.91011149" lon="13.62456617">
        <ele>398.00000</ele>
        <time>2024-04-19T12:22:59Z</time>
      </trkpt>
      <trkpt lat="42.91005467" lon="13.62470372">
        <ele>398.00000</ele>
        <time>2024-04-19T12:23:00Z</time>
      </trkpt>
      <trkpt lat="42.90999976" lon="13.62484529">
        <ele>397.00000</ele>
        <time>2024-04-19T12:23:01Z</time>
      </trkpt>
      <trkpt lat="42.90994671" lon="13.62499005">
        <ele>397.00000</ele>
        <time>2024-04-19T12:23:02Z</time>
      </trkpt>
      <trkpt lat="42.90989206" lon="13.62513313">
        <ele>396.00000</ele>
        <time>2024-04-19T12:23:03Z</time>
      </trkpt>
      <trkpt lat="42.90983615" lon="13.62527537">
        <ele>396.00000</ele>
        <time>2024-04-19T12:23:04Z</time>
      </trkpt>
      <trkpt lat="42.90978024" lon="13.62541786">
        <ele>395.00000</ele>
        <time>2024-04-19T12:23:05Z</time>
      </trkpt>
      <trkpt lat="42.90972685" lon="13.62556085">
        <ele>393.00000</ele>
        <time>2024-04-19T12:23:06Z</time>
      </trkpt>
      <trkpt lat="42.90967279" lon="13.62570377">
        <ele>392.00000</ele>
        <time>2024-04-19T12:23:07Z</time>
      </trkpt>
      <trkpt lat="42.90961554" lon="13.62584659">
        <ele>392.00000</ele>
        <time>2024-04-19T12:23:08Z</time>
      </trkpt>
      <trkpt lat="42.90956181" lon="13.62598858">
        <ele>392.00000</ele>
        <time>2024-04-19T12:23:09Z</time>
      </trkpt>
      <trkpt lat="42.90950909" lon="13.62613175">
        <ele>391.00000</ele>
        <time>2024-04-19T12:23:10Z</time>
      </trkpt>
      <trkpt lat="42.90945494" lon="13.62627348">
        <ele>390.00000</ele>
        <time>2024-04-19T12:23:11Z</time>
      </trkpt>
      <trkpt lat="42.90940113" lon="13.62641296">
        <ele>389.00000</ele>
        <time>2024-04-19T12:23:12Z</time>
      </trkpt>
      <trkpt lat="42.90934606" lon="13.62655520">
        <ele>388.00000</ele>
        <time>2024-04-19T12:23:13Z</time>
      </trkpt>
      <trkpt lat="42.90928973" lon="13.62670230">
        <ele>387.00000</ele>
        <time>2024-04-19T12:23:14Z</time>
      </trkpt>
      <trkpt lat="42.90923156" lon="13.62685024">
        <ele>386.00000</ele>
        <time>2024-04-19T12:23:15Z</time>
      </trkpt>
      <trkpt lat="42.90917046" lon="13.62699416">
        <ele>386.00000</ele>
        <time>2024-04-19T12:23:16Z</time>
      </trkpt>
      <trkpt lat="42.90910273" lon="13.62713288">
        <ele>386.00000</ele>
        <time>2024-04-19T12:23:17Z</time>
      </trkpt>
      <trkpt lat="42.90902998" lon="13.62727026">
        <ele>387.00000</ele>
        <time>2024-04-19T12:23:18Z</time>
      </trkpt>
      <trkpt lat="42.90894356" lon="13.62739440">
        <ele>387.00000</ele>
        <time>2024-04-19T12:23:19Z</time>
      </trkpt>
      <trkpt lat="42.90884507" lon="13.62750168">
        <ele>387.00000</ele>
        <time>2024-04-19T12:23:20Z</time>
      </trkpt>
      <trkpt lat="42.90873963" lon="13.62759397">
        <ele>386.00000</ele>
        <time>2024-04-19T12:23:21Z</time>
      </trkpt>
      <trkpt lat="42.90862664" lon="13.62767234">
        <ele>385.00000</ele>
        <time>2024-04-19T12:23:22Z</time>
      </trkpt>
      <trkpt lat="42.90850988" lon="13.62774342">
        <ele>384.00000</ele>
        <time>2024-04-19T12:23:23Z</time>
      </trkpt>
      <trkpt lat="42.90839513" lon="13.62781475">
        <ele>382.00000</ele>
        <time>2024-04-19T12:23:24Z</time>
      </trkpt>
      <trkpt lat="42.90828566" lon="13.62789907">
        <ele>382.00000</ele>
        <time>2024-04-19T12:23:25Z</time>
      </trkpt>
      <trkpt lat="42.90820813" lon="13.62798565">
        <ele>382.00000</ele>
        <time>2024-04-19T12:23:26Z</time>
      </trkpt>
      <trkpt lat="42.90810688" lon="13.62813737">
        <ele>383.00000</ele>
        <time>2024-04-19T12:23:27Z</time>
      </trkpt>
      <trkpt lat="42.90803949" lon="13.62828162">
        <ele>384.00000</ele>
        <time>2024-04-19T12:23:28Z</time>
      </trkpt>
      <trkpt lat="42.90798207" lon="13.62843417">
        <ele>384.00000</ele>
        <time>2024-04-19T12:23:29Z</time>
      </trkpt>
      <trkpt lat="42.90792751" lon="13.62858890">
        <ele>383.00000</ele>
        <time>2024-04-19T12:23:30Z</time>
      </trkpt>
      <trkpt lat="42.90787286" lon="13.62874204">
        <ele>381.00000</ele>
        <time>2024-04-19T12:23:31Z</time>
      </trkpt>
      <trkpt lat="42.90781787" lon="13.62889442">
        <ele>379.00000</ele>
        <time>2024-04-19T12:23:32Z</time>
      </trkpt>
      <trkpt lat="42.90776029" lon="13.62904915">
        <ele>377.00000</ele>
        <time>2024-04-19T12:23:33Z</time>
      </trkpt>
      <trkpt lat="42.90770279" lon="13.62920137">
        <ele>377.00000</ele>
        <time>2024-04-19T12:23:34Z</time>
      </trkpt>
      <trkpt lat="42.90764336" lon="13.62934998">
        <ele>376.00000</ele>
        <time>2024-04-19T12:23:35Z</time>
      </trkpt>
      <trkpt lat="42.90758259" lon="13.62949783">
        <ele>376.00000</ele>
        <time>2024-04-19T12:23:36Z</time>
      </trkpt>
      <trkpt lat="42.90751973" lon="13.62964116">
        <ele>374.00000</ele>
        <time>2024-04-19T12:23:37Z</time>
      </trkpt>
      <trkpt lat="42.90744965" lon="13.62977670">
        <ele>374.00000</ele>
        <time>2024-04-19T12:23:38Z</time>
      </trkpt>
      <trkpt lat="42.90737195" lon="13.62990670">
        <ele>374.00000</ele>
        <time>2024-04-19T12:23:39Z</time>
      </trkpt>
      <trkpt lat="42.90728922" lon="13.63003260">
        <ele>374.00000</ele>
        <time>2024-04-19T12:23:40Z</time>
      </trkpt>
      <trkpt lat="42.90720549" lon="13.63015422">
        <ele>375.00000</ele>
        <time>2024-04-19T12:23:41Z</time>
      </trkpt>
      <trkpt lat="42.90712234" lon="13.63027132">
        <ele>376.00000</ele>
        <time>2024-04-19T12:23:42Z</time>
      </trkpt>
      <trkpt lat="42.90704078" lon="13.63038883">
        <ele>376.00000</ele>
        <time>2024-04-19T12:23:43Z</time>
      </trkpt>
      <trkpt lat="42.90696208" lon="13.63050903">
        <ele>377.00000</ele>
        <time>2024-04-19T12:23:44Z</time>
      </trkpt>
      <trkpt lat="42.90688161" lon="13.63062889">
        <ele>377.00000</ele>
        <time>2024-04-19T12:23:45Z</time>
      </trkpt>
      <trkpt lat="42.90680081" lon="13.63074976">
        <ele>376.00000</ele>
        <time>2024-04-19T12:23:46Z</time>
      </trkpt>
      <trkpt lat="42.90673686" lon="13.63084866">
        <ele>376.00000</ele>
        <time>2024-04-19T12:23:47Z</time>
      </trkpt>
      <trkpt lat="42.90663963" lon="13.63099417">
        <ele>374.00000</ele>
        <time>2024-04-19T12:23:48Z</time>
      </trkpt>
      <trkpt lat="42.90655665" lon="13.63111680">
        <ele>373.00000</ele>
        <time>2024-04-19T12:23:49Z</time>
      </trkpt>
      <trkpt lat="42.90648850" lon="13.63121235">
        <ele>372.00000</ele>
        <time>2024-04-19T12:23:50Z</time>
      </trkpt>
      <trkpt lat="42.90640133" lon="13.63132844">
        <ele>371.00000</ele>
        <time>2024-04-19T12:23:51Z</time>
      </trkpt>
      <trkpt lat="42.90629429" lon="13.63146146">
        <ele>371.00000</ele>
        <time>2024-04-19T12:23:52Z</time>
      </trkpt>
      <trkpt lat="42.90620293" lon="13.63156666">
        <ele>371.00000</ele>
        <time>2024-04-19T12:23:53Z</time>
      </trkpt>
      <trkpt lat="42.90610997" lon="13.63166774">
        <ele>371.00000</ele>
        <time>2024-04-19T12:23:54Z</time>
      </trkpt>
      <trkpt lat="42.90603395" lon="13.63174703">
        <ele>370.00000</ele>
        <time>2024-04-19T12:23:55Z</time>
      </trkpt>
      <trkpt lat="42.90591543" lon="13.63185759">
        <ele>369.00000</ele>
        <time>2024-04-19T12:23:56Z</time>
      </trkpt>
      <trkpt lat="42.90583304" lon="13.63192087">
        <ele>369.00000</ele>
        <time>2024-04-19T12:23:57Z</time>
      </trkpt>
      <trkpt lat="42.90570622" lon="13.63200042">
        <ele>368.00000</ele>
        <time>2024-04-19T12:23:58Z</time>
      </trkpt>
      <trkpt lat="42.90559382" lon="13.63204602">
        <ele>368.00000</ele>
        <time>2024-04-19T12:23:59Z</time>
      </trkpt>
      <trkpt lat="42.90547739" lon="13.63207343">
        <ele>368.00000</ele>
        <time>2024-04-19T12:24:00Z</time>
      </trkpt>
      <trkpt lat="42.90538217" lon="13.63208843">
        <ele>367.00000</ele>
        <time>2024-04-19T12:24:01Z</time>
      </trkpt>
      <trkpt lat="42.90523817" lon="13.63210980">
        <ele>366.00000</ele>
        <time>2024-04-19T12:24:02Z</time>
      </trkpt>
      <trkpt lat="42.90511907" lon="13.63212883">
        <ele>366.00000</ele>
        <time>2024-04-19T12:24:03Z</time>
      </trkpt>
      <trkpt lat="42.90500029" lon="13.63214903">
        <ele>365.00000</ele>
        <time>2024-04-19T12:24:04Z</time>
      </trkpt>
      <trkpt lat="42.90487825" lon="13.63216646">
        <ele>365.00000</ele>
        <time>2024-04-19T12:24:05Z</time>
      </trkpt>
      <trkpt lat="42.90475496" lon="13.63218382">
        <ele>364.00000</ele>
        <time>2024-04-19T12:24:06Z</time>
      </trkpt>
      <trkpt lat="42.90463015" lon="13.63220167">
        <ele>363.00000</ele>
        <time>2024-04-19T12:24:07Z</time>
      </trkpt>
      <trkpt lat="42.90450526" lon="13.63221935">
        <ele>361.00000</ele>
        <time>2024-04-19T12:24:08Z</time>
      </trkpt>
      <trkpt lat="42.90438297" lon="13.63223444">
        <ele>360.00000</ele>
        <time>2024-04-19T12:24:09Z</time>
      </trkpt>
      <trkpt lat="42.90426135" lon="13.63225154">
        <ele>359.00000</ele>
        <time>2024-04-19T12:24:10Z</time>
      </trkpt>
      <trkpt lat="42.90414283" lon="13.63226747">
        <ele>359.00000</ele>
        <time>2024-04-19T12:24:11Z</time>
      </trkpt>
      <trkpt lat="42.90402749" lon="13.63229781">
        <ele>357.00000</ele>
        <time>2024-04-19T12:24:12Z</time>
      </trkpt>
      <trkpt lat="42.90392079" lon="13.63236302">
        <ele>357.00000</ele>
        <time>2024-04-19T12:24:13Z</time>
      </trkpt>
      <trkpt lat="42.90384024" lon="13.63246251">
        <ele>356.00000</ele>
        <time>2024-04-19T12:24:14Z</time>
      </trkpt>
      <trkpt lat="42.90378291" lon="13.63258212">
        <ele>357.00000</ele>
        <time>2024-04-19T12:24:15Z</time>
      </trkpt>
      <trkpt lat="42.90374485" lon="13.63271984">
        <ele>357.00000</ele>
        <time>2024-04-19T12:24:16Z</time>
      </trkpt>
      <trkpt lat="42.90371208" lon="13.63286543">
        <ele>357.00000</ele>
        <time>2024-04-19T12:24:17Z</time>
      </trkpt>
      <trkpt lat="42.90367545" lon="13.63300985">
        <ele>357.00000</ele>
        <time>2024-04-19T12:24:18Z</time>
      </trkpt>
      <trkpt lat="42.90363715" lon="13.63315687">
        <ele>357.00000</ele>
        <time>2024-04-19T12:24:19Z</time>
      </trkpt>
      <trkpt lat="42.90359901" lon="13.63330481">
        <ele>357.00000</ele>
        <time>2024-04-19T12:24:20Z</time>
      </trkpt>
      <trkpt lat="42.90356213" lon="13.63345527">
        <ele>356.00000</ele>
        <time>2024-04-19T12:24:21Z</time>
      </trkpt>
      <trkpt lat="42.90352047" lon="13.63360849">
        <ele>355.00000</ele>
        <time>2024-04-19T12:24:22Z</time>
      </trkpt>
      <trkpt lat="42.90347110" lon="13.63376028">
        <ele>354.00000</ele>
        <time>2024-04-19T12:24:23Z</time>
      </trkpt>
      <trkpt lat="42.90341888" lon="13.63390948">
        <ele>354.00000</ele>
        <time>2024-04-19T12:24:24Z</time>
      </trkpt>
      <trkpt lat="42.90336549" lon="13.63405524">
        <ele>353.00000</ele>
        <time>2024-04-19T12:24:25Z</time>
      </trkpt>
      <trkpt lat="42.90330891" lon="13.63419841">
        <ele>353.00000</ele>
        <time>2024-04-19T12:24:26Z</time>
      </trkpt>
      <trkpt lat="42.90325158" lon="13.63434509">
        <ele>353.00000</ele>
        <time>2024-04-19T12:24:27Z</time>
      </trkpt>
      <trkpt lat="42.90319986" lon="13.63449362">
        <ele>352.00000</ele>
        <time>2024-04-19T12:24:28Z</time>
      </trkpt>
      <trkpt lat="42.90315259" lon="13.63464407">
        <ele>352.00000</ele>
        <time>2024-04-19T12:24:29Z</time>
      </trkpt>
      <trkpt lat="42.90311252" lon="13.63479830">
        <ele>351.00000</ele>
        <time>2024-04-19T12:24:30Z</time>
      </trkpt>
      <trkpt lat="42.90308587" lon="13.63492520">
        <ele>350.00000</ele>
        <time>2024-04-19T12:24:31Z</time>
      </trkpt>
      <trkpt lat="42.90305569" lon="13.63511933">
        <ele>349.00000</ele>
        <time>2024-04-19T12:24:32Z</time>
      </trkpt>
      <trkpt lat="42.90304396" lon="13.63528638">
        <ele>349.00000</ele>
        <time>2024-04-19T12:24:33Z</time>
      </trkpt>
      <trkpt lat="42.90305251" lon="13.63545360">
        <ele>349.00000</ele>
        <time>2024-04-19T12:24:34Z</time>
      </trkpt>
      <trkpt lat="42.90308503" lon="13.63561922">
        <ele>348.00000</ele>
        <time>2024-04-19T12:24:35Z</time>
      </trkpt>
      <trkpt lat="42.90314253" lon="13.63577630">
        <ele>347.00000</ele>
        <time>2024-04-19T12:24:36Z</time>
      </trkpt>
      <trkpt lat="42.90322174" lon="13.63591753">
        <ele>346.00000</ele>
        <time>2024-04-19T12:24:37Z</time>
      </trkpt>
      <trkpt lat="42.90331779" lon="13.63603798">
        <ele>346.00000</ele>
        <time>2024-04-19T12:24:38Z</time>
      </trkpt>
      <trkpt lat="42.90342433" lon="13.63613965">
        <ele>344.00000</ele>
        <time>2024-04-19T12:24:39Z</time>
      </trkpt>
      <trkpt lat="42.90353531" lon="13.63623605">
        <ele>343.00000</ele>
        <time>2024-04-19T12:24:40Z</time>
      </trkpt>
      <trkpt lat="42.90364611" lon="13.63634342">
        <ele>341.00000</ele>
        <time>2024-04-19T12:24:41Z</time>
      </trkpt>
      <trkpt lat="42.90374427" lon="13.63647728">
        <ele>340.00000</ele>
        <time>2024-04-19T12:24:42Z</time>
      </trkpt>
      <trkpt lat="42.90382616" lon="13.63663494">
        <ele>339.00000</ele>
        <time>2024-04-19T12:24:43Z</time>
      </trkpt>
      <trkpt lat="42.90388206" lon="13.63681130">
        <ele>338.00000</ele>
        <time>2024-04-19T12:24:44Z</time>
      </trkpt>
      <trkpt lat="42.90388567" lon="13.63699318">
        <ele>336.00000</ele>
        <time>2024-04-19T12:24:45Z</time>
      </trkpt>
      <trkpt lat="42.90386220" lon="13.63717717">
        <ele>334.00000</ele>
        <time>2024-04-19T12:24:46Z</time>
      </trkpt>
      <trkpt lat="42.90381249" lon="13.63735704">
        <ele>332.00000</ele>
        <time>2024-04-19T12:24:47Z</time>
      </trkpt>
      <trkpt lat="42.90374184" lon="13.63752728">
        <ele>330.00000</ele>
        <time>2024-04-19T12:24:48Z</time>
      </trkpt>
      <trkpt lat="42.90365793" lon="13.63768536">
        <ele>329.00000</ele>
        <time>2024-04-19T12:24:49Z</time>
      </trkpt>
      <trkpt lat="42.90357001" lon="13.63783121">
        <ele>328.00000</ele>
        <time>2024-04-19T12:24:50Z</time>
      </trkpt>
      <trkpt lat="42.90348040" lon="13.63797571">
        <ele>327.00000</ele>
        <time>2024-04-19T12:24:51Z</time>
      </trkpt>
      <trkpt lat="42.90339197" lon="13.63811711">
        <ele>327.00000</ele>
        <time>2024-04-19T12:24:52Z</time>
      </trkpt>
      <trkpt lat="42.90330380" lon="13.63825466">
        <ele>327.00000</ele>
        <time>2024-04-19T12:24:53Z</time>
      </trkpt>
      <trkpt lat="42.90321889" lon="13.63839196">
        <ele>326.00000</ele>
        <time>2024-04-19T12:24:54Z</time>
      </trkpt>
      <trkpt lat="42.90313482" lon="13.63853110">
        <ele>326.00000</ele>
        <time>2024-04-19T12:24:55Z</time>
      </trkpt>
      <trkpt lat="42.90305192" lon="13.63866722">
        <ele>327.00000</ele>
        <time>2024-04-19T12:24:56Z</time>
      </trkpt>
      <trkpt lat="42.90296877" lon="13.63880150">
        <ele>327.00000</ele>
        <time>2024-04-19T12:24:57Z</time>
      </trkpt>
      <trkpt lat="42.90288889" lon="13.63893946">
        <ele>328.00000</ele>
        <time>2024-04-19T12:24:58Z</time>
      </trkpt>
      <trkpt lat="42.90282385" lon="13.63908983">
        <ele>328.00000</ele>
        <time>2024-04-19T12:24:59Z</time>
      </trkpt>
      <trkpt lat="42.90278169" lon="13.63925714">
        <ele>327.00000</ele>
        <time>2024-04-19T12:25:00Z</time>
      </trkpt>
      <trkpt lat="42.90275948" lon="13.63943223">
        <ele>324.00000</ele>
        <time>2024-04-19T12:25:01Z</time>
      </trkpt>
      <trkpt lat="42.90274883" lon="13.63960943">
        <ele>322.00000</ele>
        <time>2024-04-19T12:25:02Z</time>
      </trkpt>
      <trkpt lat="42.90274095" lon="13.63978645">
        <ele>321.00000</ele>
        <time>2024-04-19T12:25:03Z</time>
      </trkpt>
      <trkpt lat="42.90272318" lon="13.63995669">
        <ele>320.00000</ele>
        <time>2024-04-19T12:25:04Z</time>
      </trkpt>
      <trkpt lat="42.90268060" lon="13.64011544">
        <ele>320.00000</ele>
        <time>2024-04-19T12:25:05Z</time>
      </trkpt>
      <trkpt lat="42.90260600" lon="13.64024595">
        <ele>320.00000</ele>
        <time>2024-04-19T12:25:06Z</time>
      </trkpt>
      <trkpt lat="42.90251372" lon="13.64036154">
        <ele>319.00000</ele>
        <time>2024-04-19T12:25:07Z</time>
      </trkpt>
      <trkpt lat="42.90240760" lon="13.64046270">
        <ele>318.00000</ele>
        <time>2024-04-19T12:25:08Z</time>
      </trkpt>
      <trkpt lat="42.90228841" lon="13.64053781">
        <ele>318.00000</ele>
        <time>2024-04-19T12:25:09Z</time>
      </trkpt>
      <trkpt lat="42.90217207" lon="13.64061391">
        <ele>317.00000</ele>
        <time>2024-04-19T12:25:10Z</time>
      </trkpt>
      <trkpt lat="42.90207350" lon="13.64072305">
        <ele>316.00000</ele>
        <time>2024-04-19T12:25:11Z</time>
      </trkpt>
      <trkpt lat="42.90199362" lon="13.64085984">
        <ele>315.00000</ele>
        <time>2024-04-19T12:25:12Z</time>
      </trkpt>
      <trkpt lat="42.90192581" lon="13.64101080">
        <ele>313.00000</ele>
        <time>2024-04-19T12:25:13Z</time>
      </trkpt>
      <trkpt lat="42.90186605" lon="13.64116922">
        <ele>312.00000</ele>
        <time>2024-04-19T12:25:14Z</time>
      </trkpt>
      <trkpt lat="42.90181886" lon="13.64133199">
        <ele>311.00000</ele>
        <time>2024-04-19T12:25:15Z</time>
      </trkpt>
      <trkpt lat="42.90178860" lon="13.64149795">
        <ele>311.00000</ele>
        <time>2024-04-19T12:25:16Z</time>
      </trkpt>
      <trkpt lat="42.90177737" lon="13.64166324">
        <ele>311.00000</ele>
        <time>2024-04-19T12:25:17Z</time>
      </trkpt>
      <trkpt lat="42.90178022" lon="13.64182979">
        <ele>311.00000</ele>
        <time>2024-04-19T12:25:18Z</time>
      </trkpt>
      <trkpt lat="42.90178173" lon="13.64196122">
        <ele>311.00000</ele>
        <time>2024-04-19T12:25:19Z</time>
      </trkpt>
      <trkpt lat="42.90177418" lon="13.64216314">
        <ele>309.00000</ele>
        <time>2024-04-19T12:25:20Z</time>
      </trkpt>
      <trkpt lat="42.90175943" lon="13.64233572">
        <ele>308.00000</ele>
        <time>2024-04-19T12:25:21Z</time>
      </trkpt>
      <trkpt lat="42.90173873" lon="13.64251024">
        <ele>306.00000</ele>
        <time>2024-04-19T12:25:22Z</time>
      </trkpt>
      <trkpt lat="42.90171358" lon="13.64268785">
        <ele>305.00000</ele>
        <time>2024-04-19T12:25:23Z</time>
      </trkpt>
      <trkpt lat="42.90168148" lon="13.64286789">
        <ele>304.00000</ele>
        <time>2024-04-19T12:25:24Z</time>
      </trkpt>
      <trkpt lat="42.90163739" lon="13.64304358">
        <ele>304.00000</ele>
        <time>2024-04-19T12:25:25Z</time>
      </trkpt>
      <trkpt lat="42.90158215" lon="13.64321541">
        <ele>303.00000</ele>
        <time>2024-04-19T12:25:26Z</time>
      </trkpt>
      <trkpt lat="42.90152264" lon="13.64338774">
        <ele>302.00000</ele>
        <time>2024-04-19T12:25:27Z</time>
      </trkpt>
      <trkpt lat="42.90146456" lon="13.64356367">
        <ele>300.00000</ele>
        <time>2024-04-19T12:25:28Z</time>
      </trkpt>
      <trkpt lat="42.90140655" lon="13.64374221">
        <ele>299.00000</ele>
        <time>2024-04-19T12:25:29Z</time>
      </trkpt>
      <trkpt lat="42.90134511" lon="13.64392141">
        <ele>298.00000</ele>
        <time>2024-04-19T12:25:30Z</time>
      </trkpt>
      <trkpt lat="42.90127370" lon="13.64409383">
        <ele>298.00000</ele>
        <time>2024-04-19T12:25:31Z</time>
      </trkpt>
      <trkpt lat="42.90119617" lon="13.64426256">
        <ele>297.00000</ele>
        <time>2024-04-19T12:25:32Z</time>
      </trkpt>
      <trkpt lat="42.90112190" lon="13.64442684">
        <ele>296.00000</ele>
        <time>2024-04-19T12:25:33Z</time>
      </trkpt>
      <trkpt lat="42.90106147" lon="13.64459850">
        <ele>294.00000</ele>
        <time>2024-04-19T12:25:34Z</time>
      </trkpt>
      <trkpt lat="42.90101805" lon="13.64478148">
        <ele>292.00000</ele>
        <time>2024-04-19T12:25:35Z</time>
      </trkpt>
      <trkpt lat="42.90098595" lon="13.64496664">
        <ele>292.00000</ele>
        <time>2024-04-19T12:25:36Z</time>
      </trkpt>
      <trkpt lat="42.90095401" lon="13.64514970">
        <ele>290.00000</ele>
        <time>2024-04-19T12:25:37Z</time>
      </trkpt>
      <trkpt lat="42.90090917" lon="13.64532714">
        <ele>289.00000</ele>
        <time>2024-04-19T12:25:38Z</time>
      </trkpt>
      <trkpt lat="42.90084756" lon="13.64549671">
        <ele>288.00000</ele>
        <time>2024-04-19T12:25:39Z</time>
      </trkpt>
      <trkpt lat="42.90077565" lon="13.64565420">
        <ele>288.00000</ele>
        <time>2024-04-19T12:25:40Z</time>
      </trkpt>
      <trkpt lat="42.90069996" lon="13.64580600">
        <ele>287.00000</ele>
        <time>2024-04-19T12:25:41Z</time>
      </trkpt>
      <trkpt lat="42.90061941" lon="13.64595838">
        <ele>287.00000</ele>
        <time>2024-04-19T12:25:42Z</time>
      </trkpt>
      <trkpt lat="42.90055269" lon="13.64607682">
        <ele>288.00000</ele>
        <time>2024-04-19T12:25:43Z</time>
      </trkpt>
      <trkpt lat="42.90044699" lon="13.64623775">
        <ele>287.00000</ele>
        <time>2024-04-19T12:25:44Z</time>
      </trkpt>
      <trkpt lat="42.90034649" lon="13.64634881">
        <ele>287.00000</ele>
        <time>2024-04-19T12:25:45Z</time>
      </trkpt>
      <trkpt lat="42.90023527" lon="13.64643607">
        <ele>286.00000</ele>
        <time>2024-04-19T12:25:46Z</time>
      </trkpt>
      <trkpt lat="42.90011499" lon="13.64650170">
        <ele>287.00000</ele>
        <time>2024-04-19T12:25:47Z</time>
      </trkpt>
      <trkpt lat="42.89999345" lon="13.64655191">
        <ele>287.00000</ele>
        <time>2024-04-19T12:25:48Z</time>
      </trkpt>
      <trkpt lat="42.89987518" lon="13.64660848">
        <ele>287.00000</ele>
        <time>2024-04-19T12:25:49Z</time>
      </trkpt>
      <trkpt lat="42.89976504" lon="13.64668937">
        <ele>287.00000</ele>
        <time>2024-04-19T12:25:50Z</time>
      </trkpt>
      <trkpt lat="42.89967150" lon="13.64679180">
        <ele>287.00000</ele>
        <time>2024-04-19T12:25:51Z</time>
      </trkpt>
      <trkpt lat="42.89959028" lon="13.64691216">
        <ele>286.00000</ele>
        <time>2024-04-19T12:25:52Z</time>
      </trkpt>
      <trkpt lat="42.89951669" lon="13.64704518">
        <ele>285.00000</ele>
        <time>2024-04-19T12:25:53Z</time>
      </trkpt>
      <trkpt lat="42.89944385" lon="13.64719354">
        <ele>284.00000</ele>
        <time>2024-04-19T12:25:54Z</time>
      </trkpt>
      <trkpt lat="42.89937419" lon="13.64734752">
        <ele>282.00000</ele>
        <time>2024-04-19T12:25:55Z</time>
      </trkpt>
      <trkpt lat="42.89930965" lon="13.64750032">
        <ele>281.00000</ele>
        <time>2024-04-19T12:25:56Z</time>
      </trkpt>
      <trkpt lat="42.89924704" lon="13.64765723">
        <ele>279.00000</ele>
        <time>2024-04-19T12:25:57Z</time>
      </trkpt>
      <trkpt lat="42.89918627" lon="13.64781648">
        <ele>278.00000</ele>
        <time>2024-04-19T12:25:58Z</time>
      </trkpt>
      <trkpt lat="42.89912391" lon="13.64797725">
        <ele>276.00000</ele>
        <time>2024-04-19T12:25:59Z</time>
      </trkpt>
      <trkpt lat="42.89905912" lon="13.64813843">
        <ele>275.00000</ele>
        <time>2024-04-19T12:26:00Z</time>
      </trkpt>
      <trkpt lat="42.89899449" lon="13.64830263">
        <ele>273.00000</ele>
        <time>2024-04-19T12:26:01Z</time>
      </trkpt>
      <trkpt lat="42.89893020" lon="13.64846809">
        <ele>272.00000</ele>
        <time>2024-04-19T12:26:02Z</time>
      </trkpt>
      <trkpt lat="42.89887949" lon="13.64860271">
        <ele>272.00000</ele>
        <time>2024-04-19T12:26:03Z</time>
      </trkpt>
      <trkpt lat="42.89880816" lon="13.64880152">
        <ele>272.00000</ele>
        <time>2024-04-19T12:26:04Z</time>
      </trkpt>
      <trkpt lat="42.89874454" lon="13.64896271">
        <ele>272.00000</ele>
        <time>2024-04-19T12:26:05Z</time>
      </trkpt>
      <trkpt lat="42.89866844" lon="13.64911710">
        <ele>271.00000</ele>
        <time>2024-04-19T12:26:06Z</time>
      </trkpt>
      <trkpt lat="42.89858956" lon="13.64921886">
        <ele>271.00000</ele>
        <time>2024-04-19T12:26:07Z</time>
      </trkpt>
      <trkpt lat="42.89847959" lon="13.64931936">
        <ele>271.00000</ele>
        <time>2024-04-19T12:26:08Z</time>
      </trkpt>
      <trkpt lat="42.89834883" lon="13.64944132">
        <ele>270.00000</ele>
        <time>2024-04-19T12:26:09Z</time>
      </trkpt>
      <trkpt lat="42.89825848" lon="13.64956922">
        <ele>269.00000</ele>
        <time>2024-04-19T12:26:10Z</time>
      </trkpt>
      <trkpt lat="42.89818530" lon="13.64971742">
        <ele>268.00000</ele>
        <time>2024-04-19T12:26:11Z</time>
      </trkpt>
      <trkpt lat="42.89812278" lon="13.64988086">
        <ele>267.00000</ele>
        <time>2024-04-19T12:26:12Z</time>
      </trkpt>
      <trkpt lat="42.89807441" lon="13.65004884">
        <ele>266.00000</ele>
        <time>2024-04-19T12:26:13Z</time>
      </trkpt>
      <trkpt lat="42.89804616" lon="13.65020139">
        <ele>266.00000</ele>
        <time>2024-04-19T12:26:14Z</time>
      </trkpt>
      <trkpt lat="42.89804692" lon="13.65033323">
        <ele>265.00000</ele>
        <time>2024-04-19T12:26:15Z</time>
      </trkpt>
      <trkpt lat="42.89808581" lon="13.65043566">
        <ele>263.00000</ele>
        <time>2024-04-19T12:26:16Z</time>
      </trkpt>
      <trkpt lat="42.89815186" lon="13.65049056">
        <ele>261.00000</ele>
        <time>2024-04-19T12:26:17Z</time>
      </trkpt>
      <trkpt lat="42.89822101" lon="13.65046525">
        <ele>261.00000</ele>
        <time>2024-04-19T12:26:18Z</time>
      </trkpt>
      <trkpt lat="42.89828631" lon="13.65039392">
        <ele>260.00000</ele>
        <time>2024-04-19T12:26:19Z</time>
      </trkpt>
      <trkpt lat="42.89835160" lon="13.65031161">
        <ele>260.00000</ele>
        <time>2024-04-19T12:26:20Z</time>
      </trkpt>
      <trkpt lat="42.89842905" lon="13.65023827">
        <ele>259.00000</ele>
        <time>2024-04-19T12:26:21Z</time>
      </trkpt>
      <trkpt lat="42.89849812" lon="13.65021614">
        <ele>258.00000</ele>
        <time>2024-04-19T12:26:22Z</time>
      </trkpt>
      <trkpt lat="42.89857414" lon="13.65025612">
        <ele>256.00000</ele>
        <time>2024-04-19T12:26:23Z</time>
      </trkpt>
      <trkpt lat="42.89861831" lon="13.65036441">
        <ele>255.00000</ele>
        <time>2024-04-19T12:26:24Z</time>
      </trkpt>
      <trkpt lat="42.89861672" lon="13.65049023">
        <ele>254.00000</ele>
        <time>2024-04-19T12:26:25Z</time>
      </trkpt>
      <trkpt lat="42.89859912" lon="13.65062249">
        <ele>253.00000</ele>
        <time>2024-04-19T12:26:26Z</time>
      </trkpt>
      <trkpt lat="42.89857749" lon="13.65075945">
        <ele>252.00000</ele>
        <time>2024-04-19T12:26:27Z</time>
      </trkpt>
      <trkpt lat="42.89855537" lon="13.65089985">
        <ele>252.00000</ele>
        <time>2024-04-19T12:26:28Z</time>
      </trkpt>
      <trkpt lat="42.89853659" lon="13.65103916">
        <ele>251.00000</ele>
        <time>2024-04-19T12:26:29Z</time>
      </trkpt>
      <trkpt lat="42.89851924" lon="13.65118324">
        <ele>250.00000</ele>
        <time>2024-04-19T12:26:30Z</time>
      </trkpt>
      <trkpt lat="42.89850524" lon="13.65133060">
        <ele>250.00000</ele>
        <time>2024-04-19T12:26:31Z</time>
      </trkpt>
      <trkpt lat="42.89848605" lon="13.65147988">
        <ele>249.00000</ele>
        <time>2024-04-19T12:26:32Z</time>
      </trkpt>
      <trkpt lat="42.89846744" lon="13.65162924">
        <ele>249.00000</ele>
        <time>2024-04-19T12:26:33Z</time>
      </trkpt>
      <trkpt lat="42.89845084" lon="13.65178205">
        <ele>249.00000</ele>
        <time>2024-04-19T12:26:34Z</time>
      </trkpt>
      <trkpt lat="42.89843366" lon="13.65193300">
        <ele>248.00000</ele>
        <time>2024-04-19T12:26:35Z</time>
      </trkpt>
      <trkpt lat="42.89841706" lon="13.65208136">
        <ele>247.00000</ele>
        <time>2024-04-19T12:26:36Z</time>
      </trkpt>
      <trkpt lat="42.89840709" lon="13.65223366">
        <ele>246.00000</ele>
        <time>2024-04-19T12:26:37Z</time>
      </trkpt>
      <trkpt lat="42.89839762" lon="13.65238814">
        <ele>246.00000</ele>
        <time>2024-04-19T12:26:38Z</time>
      </trkpt>
      <trkpt lat="42.89838446" lon="13.65253876">
        <ele>245.00000</ele>
        <time>2024-04-19T12:26:39Z</time>
      </trkpt>
      <trkpt lat="42.89835772" lon="13.65268570">
        <ele>245.00000</ele>
        <time>2024-04-19T12:26:40Z</time>
      </trkpt>
      <trkpt lat="42.89830449" lon="13.65282090">
        <ele>244.00000</ele>
        <time>2024-04-19T12:26:41Z</time>
      </trkpt>
      <trkpt lat="42.89823333" lon="13.65293565">
        <ele>243.00000</ele>
        <time>2024-04-19T12:26:42Z</time>
      </trkpt>
      <trkpt lat="42.89816351" lon="13.65303774">
        <ele>243.00000</ele>
        <time>2024-04-19T12:26:43Z</time>
      </trkpt>
      <trkpt lat="42.89810257" lon="13.65315224">
        <ele>242.00000</ele>
        <time>2024-04-19T12:26:44Z</time>
      </trkpt>
      <trkpt lat="42.89805656" lon="13.65328283">
        <ele>241.00000</ele>
        <time>2024-04-19T12:26:45Z</time>
      </trkpt>
      <trkpt lat="42.89802680" lon="13.65342448">
        <ele>241.00000</ele>
        <time>2024-04-19T12:26:46Z</time>
      </trkpt>
      <trkpt lat="42.89801180" lon="13.65357292">
        <ele>240.00000</ele>
        <time>2024-04-19T12:26:47Z</time>
      </trkpt>
      <trkpt lat="42.89801054" lon="13.65372095">
        <ele>239.00000</ele>
        <time>2024-04-19T12:26:48Z</time>
      </trkpt>
      <trkpt lat="42.89803200" lon="13.65386671">
        <ele>237.00000</ele>
        <time>2024-04-19T12:26:49Z</time>
      </trkpt>
      <trkpt lat="42.89808874" lon="13.65399856">
        <ele>235.00000</ele>
        <time>2024-04-19T12:26:50Z</time>
      </trkpt>
      <trkpt lat="42.89816871" lon="13.65411775">
        <ele>232.00000</ele>
        <time>2024-04-19T12:26:51Z</time>
      </trkpt>
      <trkpt lat="42.89825898" lon="13.65422730">
        <ele>230.00000</ele>
        <time>2024-04-19T12:26:52Z</time>
      </trkpt>
      <trkpt lat="42.89834942" lon="13.65433911">
        <ele>229.00000</ele>
        <time>2024-04-19T12:26:53Z</time>
      </trkpt>
      <trkpt lat="42.89843098" lon="13.65445755">
        <ele>228.00000</ele>
        <time>2024-04-19T12:26:54Z</time>
      </trkpt>
      <trkpt lat="42.89849007" lon="13.65458345">
        <ele>227.00000</ele>
        <time>2024-04-19T12:26:55Z</time>
      </trkpt>
      <trkpt lat="42.89851094" lon="13.65472367">
        <ele>227.00000</ele>
        <time>2024-04-19T12:26:56Z</time>
      </trkpt>
      <trkpt lat="42.89848999" lon="13.65486843">
        <ele>227.00000</ele>
        <time>2024-04-19T12:26:57Z</time>
      </trkpt>
      <trkpt lat="42.89845906" lon="13.65501629">
        <ele>227.00000</ele>
        <time>2024-04-19T12:26:58Z</time>
      </trkpt>
      <trkpt lat="42.89845227" lon="13.65517068">
        <ele>227.00000</ele>
        <time>2024-04-19T12:26:59Z</time>
      </trkpt>
      <trkpt lat="42.89848160" lon="13.65532449">
        <ele>226.00000</ele>
        <time>2024-04-19T12:27:00Z</time>
      </trkpt>
      <trkpt lat="42.89853081" lon="13.65545701">
        <ele>225.00000</ele>
        <time>2024-04-19T12:27:01Z</time>
      </trkpt>
      <trkpt lat="42.89857372" lon="13.65556547">
        <ele>224.00000</ele>
        <time>2024-04-19T12:27:02Z</time>
      </trkpt>
      <trkpt lat="42.89860406" lon="13.65566018">
        <ele>222.00000</ele>
        <time>2024-04-19T12:27:03Z</time>
      </trkpt>
      <trkpt lat="42.89862250" lon="13.65575733">
        <ele>221.00000</ele>
        <time>2024-04-19T12:27:04Z</time>
      </trkpt>
      <trkpt lat="42.89860976" lon="13.65581081">
        <ele>220.00000</ele>
        <time>2024-04-19T12:27:05Z</time>
      </trkpt>
      <trkpt lat="42.89857967" lon="13.65586512">
        <ele>219.00000</ele>
        <time>2024-04-19T12:27:06Z</time>
      </trkpt>
      <trkpt lat="42.89853340" lon="13.65589831">
        <ele>220.00000</ele>
        <time>2024-04-19T12:27:07Z</time>
      </trkpt>
      <trkpt lat="42.89847884" lon="13.65590888">
        <ele>220.00000</ele>
        <time>2024-04-19T12:27:08Z</time>
      </trkpt>
      <trkpt lat="42.89842276" lon="13.65590536">
        <ele>221.00000</ele>
        <time>2024-04-19T12:27:09Z</time>
      </trkpt>
      <trkpt lat="42.89836426" lon="13.65590183">
        <ele>221.00000</ele>
        <time>2024-04-19T12:27:10Z</time>
      </trkpt>
      <trkpt lat="42.89830802" lon="13.65589362">
        <ele>222.00000</ele>
        <time>2024-04-19T12:27:11Z</time>
      </trkpt>
      <trkpt lat="42.89825085" lon="13.65588339">
        <ele>222.00000</ele>
        <time>2024-04-19T12:27:12Z</time>
      </trkpt>
      <trkpt lat="42.89819234" lon="13.65587174">
        <ele>223.00000</ele>
        <time>2024-04-19T12:27:13Z</time>
      </trkpt>
      <trkpt lat="42.89813602" lon="13.65585288">
        <ele>224.00000</ele>
        <time>2024-04-19T12:27:14Z</time>
      </trkpt>
      <trkpt lat="42.89808464" lon="13.65582690">
        <ele>224.00000</ele>
        <time>2024-04-19T12:27:15Z</time>
      </trkpt>
      <trkpt lat="42.89804139" lon="13.65581232">
        <ele>224.00000</ele>
        <time>2024-04-19T12:27:16Z</time>
      </trkpt>
      <trkpt lat="42.89800786" lon="13.65581450">
        <ele>224.00000</ele>
        <time>2024-04-19T12:27:17Z</time>
      </trkpt>
      <trkpt lat="42.89799260" lon="13.65584643">
        <ele>224.00000</ele>
        <time>2024-04-19T12:27:18Z</time>
      </trkpt>
      <trkpt lat="42.89799973" lon="13.65590435">
        <ele>223.00000</ele>
        <time>2024-04-19T12:27:19Z</time>
      </trkpt>
      <trkpt lat="42.89801976" lon="13.65596981">
        <ele>222.00000</ele>
        <time>2024-04-19T12:27:20Z</time>
      </trkpt>
      <trkpt lat="42.89804298" lon="13.65604131">
        <ele>221.00000</ele>
        <time>2024-04-19T12:27:21Z</time>
      </trkpt>
      <trkpt lat="42.89806536" lon="13.65612127">
        <ele>219.00000</ele>
        <time>2024-04-19T12:27:22Z</time>
      </trkpt>
      <trkpt lat="42.89809369" lon="13.65621440">
        <ele>218.00000</ele>
        <time>2024-04-19T12:27:23Z</time>
      </trkpt>
      <trkpt lat="42.89812881" lon="13.65631288">
        <ele>216.00000</ele>
        <time>2024-04-19T12:27:24Z</time>
      </trkpt>
      <trkpt lat="42.89816846" lon="13.65641749">
        <ele>214.00000</ele>
        <time>2024-04-19T12:27:25Z</time>
      </trkpt>
      <trkpt lat="42.89820844" lon="13.65652838">
        <ele>213.00000</ele>
        <time>2024-04-19T12:27:26Z</time>
      </trkpt>
      <trkpt lat="42.89825160" lon="13.65664682">
        <ele>213.00000</ele>
        <time>2024-04-19T12:27:27Z</time>
      </trkpt>
      <trkpt lat="42.89829771" lon="13.65677255">
        <ele>212.00000</ele>
        <time>2024-04-19T12:27:28Z</time>
      </trkpt>
      <trkpt lat="42.89834464" lon="13.65690347">
        <ele>211.00000</ele>
        <time>2024-04-19T12:27:29Z</time>
      </trkpt>
      <trkpt lat="42.89839150" lon="13.65703892">
        <ele>210.00000</ele>
        <time>2024-04-19T12:27:30Z</time>
      </trkpt>
      <trkpt lat="42.89843559" lon="13.65718083">
        <ele>208.00000</ele>
        <time>2024-04-19T12:27:31Z</time>
      </trkpt>
      <trkpt lat="42.89847834" lon="13.65732986">
        <ele>207.00000</ele>
        <time>2024-04-19T12:27:32Z</time>
      </trkpt>
      <trkpt lat="42.89852217" lon="13.65748157">
        <ele>206.00000</ele>
        <time>2024-04-19T12:27:33Z</time>
      </trkpt>
      <trkpt lat="42.89856517" lon="13.65763295">
        <ele>205.00000</ele>
        <time>2024-04-19T12:27:34Z</time>
      </trkpt>
      <trkpt lat="42.89860096" lon="13.65778516">
        <ele>203.00000</ele>
        <time>2024-04-19T12:27:35Z</time>
      </trkpt>
      <trkpt lat="42.89862426" lon="13.65794417">
        <ele>202.00000</ele>
        <time>2024-04-19T12:27:36Z</time>
      </trkpt>
      <trkpt lat="42.89863659" lon="13.65811315">
        <ele>201.00000</ele>
        <time>2024-04-19T12:27:37Z</time>
      </trkpt>
      <trkpt lat="42.89864011" lon="13.65828699">
        <ele>200.00000</ele>
        <time>2024-04-19T12:27:38Z</time>
      </trkpt>
      <trkpt lat="42.89863935" lon="13.65845798">
        <ele>198.00000</ele>
        <time>2024-04-19T12:27:39Z</time>
      </trkpt>
      <trkpt lat="42.89863709" lon="13.65862470">
        <ele>197.00000</ele>
        <time>2024-04-19T12:27:40Z</time>
      </trkpt>
      <trkpt lat="42.89863298" lon="13.65879535">
        <ele>196.00000</ele>
        <time>2024-04-19T12:27:41Z</time>
      </trkpt>
      <trkpt lat="42.89862946" lon="13.65897179">
        <ele>194.00000</ele>
        <time>2024-04-19T12:27:42Z</time>
      </trkpt>
      <trkpt lat="42.89862452" lon="13.65915502">
        <ele>193.00000</ele>
        <time>2024-04-19T12:27:43Z</time>
      </trkpt>
      <trkpt lat="42.89862133" lon="13.65934328">
        <ele>191.00000</ele>
        <time>2024-04-19T12:27:44Z</time>
      </trkpt>
      <trkpt lat="42.89861932" lon="13.65953598">
        <ele>189.00000</ele>
        <time>2024-04-19T12:27:45Z</time>
      </trkpt>
      <trkpt lat="42.89861504" lon="13.65972884">
        <ele>186.00000</ele>
        <time>2024-04-19T12:27:46Z</time>
      </trkpt>
      <trkpt lat="42.89860893" lon="13.65991987">
        <ele>184.00000</ele>
        <time>2024-04-19T12:27:47Z</time>
      </trkpt>
      <trkpt lat="42.89860658" lon="13.66010888">
        <ele>184.00000</ele>
        <time>2024-04-19T12:27:48Z</time>
      </trkpt>
      <trkpt lat="42.89860381" lon="13.66029714">
        <ele>184.00000</ele>
        <time>2024-04-19T12:27:49Z</time>
      </trkpt>
      <trkpt lat="42.89860079" lon="13.66044550">
        <ele>184.00000</ele>
        <time>2024-04-19T12:27:50Z</time>
      </trkpt>
      <trkpt lat="42.89859560" lon="13.66066318">
        <ele>184.00000</ele>
        <time>2024-04-19T12:27:51Z</time>
      </trkpt>
      <trkpt lat="42.89859166" lon="13.66083861">
        <ele>184.00000</ele>
        <time>2024-04-19T12:27:52Z</time>
      </trkpt>
      <trkpt lat="42.89858965" lon="13.66100750">
        <ele>184.00000</ele>
        <time>2024-04-19T12:27:53Z</time>
      </trkpt>
      <trkpt lat="42.89858671" lon="13.66117397">
        <ele>184.00000</ele>
        <time>2024-04-19T12:27:54Z</time>
      </trkpt>
      <trkpt lat="42.89858194" lon="13.66133901">
        <ele>184.00000</ele>
        <time>2024-04-19T12:27:55Z</time>
      </trkpt>
      <trkpt lat="42.89857640" lon="13.66149667">
        <ele>184.00000</ele>
        <time>2024-04-19T12:27:56Z</time>
      </trkpt>
      <trkpt lat="42.89857179" lon="13.66165559">
        <ele>184.00000</ele>
        <time>2024-04-19T12:27:57Z</time>
      </trkpt>
      <trkpt lat="42.89857028" lon="13.66178115">
        <ele>184.00000</ele>
        <time>2024-04-19T12:27:58Z</time>
      </trkpt>
      <trkpt lat="42.89856618" lon="13.66193580">
        <ele>183.00000</ele>
        <time>2024-04-19T12:27:59Z</time>
      </trkpt>
      <trkpt lat="42.89856048" lon="13.66211886">
        <ele>183.00000</ele>
        <time>2024-04-19T12:28:00Z</time>
      </trkpt>
      <trkpt lat="42.89855629" lon="13.66226521">
        <ele>183.00000</ele>
        <time>2024-04-19T12:28:01Z</time>
      </trkpt>
      <trkpt lat="42.89855369" lon="13.66240913">
        <ele>183.00000</ele>
        <time>2024-04-19T12:28:02Z</time>
      </trkpt>
      <trkpt lat="42.89854899" lon="13.66255036">
        <ele>183.00000</ele>
        <time>2024-04-19T12:28:03Z</time>
      </trkpt>
      <trkpt lat="42.89854086" lon="13.66268875">
        <ele>182.00000</ele>
        <time>2024-04-19T12:28:04Z</time>
      </trkpt>
      <trkpt lat="42.89852871" lon="13.66279679">
        <ele>182.00000</ele>
        <time>2024-04-19T12:28:05Z</time>
      </trkpt>
      <trkpt lat="42.89850046" lon="13.66295412">
        <ele>181.00000</ele>
        <time>2024-04-19T12:28:06Z</time>
      </trkpt>
      <trkpt lat="42.89846266" lon="13.66308052">
        <ele>181.00000</ele>
        <time>2024-04-19T12:28:07Z</time>
      </trkpt>
      <trkpt lat="42.89841472" lon="13.66320013">
        <ele>180.00000</ele>
        <time>2024-04-19T12:28:08Z</time>
      </trkpt>
      <trkpt lat="42.89837205" lon="13.66329425">
        <ele>180.00000</ele>
        <time>2024-04-19T12:28:09Z</time>
      </trkpt>
      <trkpt lat="42.89831631" lon="13.66340900">
        <ele>179.00000</ele>
        <time>2024-04-19T12:28:10Z</time>
      </trkpt>
      <trkpt lat="42.89824817" lon="13.66354311">
        <ele>178.00000</ele>
        <time>2024-04-19T12:28:11Z</time>
      </trkpt>
      <trkpt lat="42.89818983" lon="13.66365401">
        <ele>178.00000</ele>
        <time>2024-04-19T12:28:12Z</time>
      </trkpt>
      <trkpt lat="42.89814314" lon="13.66374269">
        <ele>177.00000</ele>
        <time>2024-04-19T12:28:13Z</time>
      </trkpt>
      <trkpt lat="42.89807416" lon="13.66387638">
        <ele>176.00000</ele>
        <time>2024-04-19T12:28:14Z</time>
      </trkpt>
      <trkpt lat="42.89802655" lon="13.66396523">
        <ele>175.00000</ele>
        <time>2024-04-19T12:28:15Z</time>
      </trkpt>
      <trkpt lat="42.89795220" lon="13.66409959">
        <ele>174.00000</ele>
        <time>2024-04-19T12:28:16Z</time>
      </trkpt>
      <trkpt lat="42.89788783" lon="13.66421165">
        <ele>173.00000</ele>
        <time>2024-04-19T12:28:17Z</time>
      </trkpt>
      <trkpt lat="42.89782245" lon="13.66432548">
        <ele>171.00000</ele>
        <time>2024-04-19T12:28:18Z</time>
      </trkpt>
      <trkpt lat="42.89775674" lon="13.66444224">
        <ele>170.00000</ele>
        <time>2024-04-19T12:28:19Z</time>
      </trkpt>
      <trkpt lat="42.89769211" lon="13.66456202">
        <ele>169.00000</ele>
        <time>2024-04-19T12:28:20Z</time>
      </trkpt>
      <trkpt lat="42.89762631" lon="13.66468381">
        <ele>169.00000</ele>
        <time>2024-04-19T12:28:21Z</time>
      </trkpt>
      <trkpt lat="42.89755876" lon="13.66481146">
        <ele>170.00000</ele>
        <time>2024-04-19T12:28:22Z</time>
      </trkpt>
      <trkpt lat="42.89749053" lon="13.66494264">
        <ele>170.00000</ele>
        <time>2024-04-19T12:28:23Z</time>
      </trkpt>
      <trkpt lat="42.89742138" lon="13.66507298">
        <ele>170.00000</ele>
        <time>2024-04-19T12:28:24Z</time>
      </trkpt>
      <trkpt lat="42.89735164" lon="13.66520424">
        <ele>171.00000</ele>
        <time>2024-04-19T12:28:25Z</time>
      </trkpt>
      <trkpt lat="42.89728031" lon="13.66533843">
        <ele>171.00000</ele>
        <time>2024-04-19T12:28:26Z</time>
      </trkpt>
      <trkpt lat="42.89720714" lon="13.66547355">
        <ele>170.00000</ele>
        <time>2024-04-19T12:28:27Z</time>
      </trkpt>
      <trkpt lat="42.89713279" lon="13.66560900">
        <ele>169.00000</ele>
        <time>2024-04-19T12:28:28Z</time>
      </trkpt>
      <trkpt lat="42.89705785" lon="13.66574781">
        <ele>168.00000</ele>
        <time>2024-04-19T12:28:29Z</time>
      </trkpt>
      <trkpt lat="42.89698569" lon="13.66588762">
        <ele>167.00000</ele>
        <time>2024-04-19T12:28:30Z</time>
      </trkpt>
      <trkpt lat="42.89691050" lon="13.66602885">
        <ele>166.00000</ele>
        <time>2024-04-19T12:28:31Z</time>
      </trkpt>
      <trkpt lat="42.89683557" lon="13.66617411">
        <ele>165.00000</ele>
        <time>2024-04-19T12:28:32Z</time>
      </trkpt>
      <trkpt lat="42.89676122" lon="13.66632356">
        <ele>164.00000</ele>
        <time>2024-04-19T12:28:33Z</time>
      </trkpt>
      <trkpt lat="42.89668603" lon="13.66647217">
        <ele>164.00000</ele>
        <time>2024-04-19T12:28:34Z</time>
      </trkpt>
      <trkpt lat="42.89660800" lon="13.66662212">
        <ele>162.00000</ele>
        <time>2024-04-19T12:28:35Z</time>
      </trkpt>
      <trkpt lat="42.89652694" lon="13.66677425">
        <ele>161.00000</ele>
        <time>2024-04-19T12:28:36Z</time>
      </trkpt>
      <trkpt lat="42.89644271" lon="13.66692739">
        <ele>159.00000</ele>
        <time>2024-04-19T12:28:37Z</time>
      </trkpt>
      <trkpt lat="42.89635780" lon="13.66707692">
        <ele>158.00000</ele>
        <time>2024-04-19T12:28:38Z</time>
      </trkpt>
      <trkpt lat="42.89627658" lon="13.66721388">
        <ele>155.00000</ele>
        <time>2024-04-19T12:28:39Z</time>
      </trkpt>
      <trkpt lat="42.89619418" lon="13.66733601">
        <ele>153.00000</ele>
        <time>2024-04-19T12:28:40Z</time>
      </trkpt>
      <trkpt lat="42.89610056" lon="13.66743341">
        <ele>151.00000</ele>
        <time>2024-04-19T12:28:41Z</time>
      </trkpt>
      <trkpt lat="42.89599503" lon="13.66750189">
        <ele>150.00000</ele>
        <time>2024-04-19T12:28:42Z</time>
      </trkpt>
      <trkpt lat="42.89587995" lon="13.66755017">
        <ele>150.00000</ele>
        <time>2024-04-19T12:28:43Z</time>
      </trkpt>
      <trkpt lat="42.89575933" lon="13.66757514">
        <ele>149.00000</ele>
        <time>2024-04-19T12:28:44Z</time>
      </trkpt>
      <trkpt lat="42.89563796" lon="13.66757590">
        <ele>148.00000</ele>
        <time>2024-04-19T12:28:45Z</time>
      </trkpt>
      <trkpt lat="42.89551475" lon="13.66755494">
        <ele>148.00000</ele>
        <time>2024-04-19T12:28:46Z</time>
      </trkpt>
      <trkpt lat="42.89539011" lon="13.66751949">
        <ele>148.00000</ele>
        <time>2024-04-19T12:28:47Z</time>
      </trkpt>
      <trkpt lat="42.89526463" lon="13.66747456">
        <ele>148.00000</ele>
        <time>2024-04-19T12:28:48Z</time>
      </trkpt>
      <trkpt lat="42.89513857" lon="13.66742025">
        <ele>151.00000</ele>
        <time>2024-04-19T12:28:49Z</time>
      </trkpt>
      <trkpt lat="42.89501401" lon="13.66736476">
        <ele>153.00000</ele>
        <time>2024-04-19T12:28:50Z</time>
      </trkpt>
      <trkpt lat="42.89488384" lon="13.66731413">
        <ele>154.00000</ele>
        <time>2024-04-19T12:28:51Z</time>
      </trkpt>
      <trkpt lat="42.89474889" lon="13.66727365">
        <ele>155.00000</ele>
        <time>2024-04-19T12:28:52Z</time>
      </trkpt>
      <trkpt lat="42.89460933" lon="13.66724339">
        <ele>154.00000</ele>
        <time>2024-04-19T12:28:53Z</time>
      </trkpt>
      <trkpt lat="42.89446575" lon="13.66722906">
        <ele>151.00000</ele>
        <time>2024-04-19T12:28:54Z</time>
      </trkpt>
      <trkpt lat="42.89431999" lon="13.66722486">
        <ele>150.00000</ele>
        <time>2024-04-19T12:28:55Z</time>
      </trkpt>
      <trkpt lat="42.89417247" lon="13.66722461">
        <ele>149.00000</ele>
        <time>2024-04-19T12:28:56Z</time>
      </trkpt>
      <trkpt lat="42.89402637" lon="13.66722453">
        <ele>147.00000</ele>
        <time>2024-04-19T12:28:57Z</time>
      </trkpt>
      <trkpt lat="42.89388505" lon="13.66722755">
        <ele>146.00000</ele>
        <time>2024-04-19T12:28:58Z</time>
      </trkpt>
      <trkpt lat="42.89374533" lon="13.66722587">
        <ele>146.00000</ele>
        <time>2024-04-19T12:28:59Z</time>
      </trkpt>
      <trkpt lat="42.89360895" lon="13.66721958">
        <ele>147.00000</ele>
        <time>2024-04-19T12:29:00Z</time>
      </trkpt>
      <trkpt lat="42.89347543" lon="13.66721103">
        <ele>147.00000</ele>
        <time>2024-04-19T12:29:01Z</time>
      </trkpt>
      <trkpt lat="42.89334517" lon="13.66720131">
        <ele>148.00000</ele>
        <time>2024-04-19T12:29:02Z</time>
      </trkpt>
      <trkpt lat="42.89321819" lon="13.66718681">
        <ele>147.00000</ele>
        <time>2024-04-19T12:29:03Z</time>
      </trkpt>
      <trkpt lat="42.89309682" lon="13.66716619">
        <ele>147.00000</ele>
        <time>2024-04-19T12:29:04Z</time>
      </trkpt>
      <trkpt lat="42.89297687" lon="13.66713509">
        <ele>146.00000</ele>
        <time>2024-04-19T12:29:05Z</time>
      </trkpt>
      <trkpt lat="42.89285869" lon="13.66710048">
        <ele>146.00000</ele>
        <time>2024-04-19T12:29:06Z</time>
      </trkpt>
      <trkpt lat="42.89273908" lon="13.66706578">
        <ele>145.00000</ele>
        <time>2024-04-19T12:29:07Z</time>
      </trkpt>
      <trkpt lat="42.89261737" lon="13.66703091">
        <ele>144.00000</ele>
        <time>2024-04-19T12:29:08Z</time>
      </trkpt>
      <trkpt lat="42.89249508" lon="13.66700065">
        <ele>144.00000</ele>
        <time>2024-04-19T12:29:09Z</time>
      </trkpt>
      <trkpt lat="42.89237346" lon="13.66697416">
        <ele>144.00000</ele>
        <time>2024-04-19T12:29:10Z</time>
      </trkpt>
      <trkpt lat="42.89224907" lon="13.66696067">
        <ele>145.00000</ele>
        <time>2024-04-19T12:29:11Z</time>
      </trkpt>
      <trkpt lat="42.89214882" lon="13.66696226">
        <ele>145.00000</ele>
        <time>2024-04-19T12:29:12Z</time>
      </trkpt>
      <trkpt lat="42.89199979" lon="13.66697902">
        <ele>145.00000</ele>
        <time>2024-04-19T12:29:13Z</time>
      </trkpt>
      <trkpt lat="42.89187524" lon="13.66701071">
        <ele>144.00000</ele>
        <time>2024-04-19T12:29:14Z</time>
      </trkpt>
      <trkpt lat="42.89175152" lon="13.66705748">
        <ele>142.00000</ele>
        <time>2024-04-19T12:29:15Z</time>
      </trkpt>
      <trkpt lat="42.89163208" lon="13.66711531">
        <ele>141.00000</ele>
        <time>2024-04-19T12:29:16Z</time>
      </trkpt>
      <trkpt lat="42.89153971" lon="13.66717273">
        <ele>141.00000</ele>
        <time>2024-04-19T12:29:17Z</time>
      </trkpt>
      <trkpt lat="42.89140870" lon="13.66726275">
        <ele>140.00000</ele>
        <time>2024-04-19T12:29:18Z</time>
      </trkpt>
      <trkpt lat="42.89129898" lon="13.66734146">
        <ele>139.00000</ele>
        <time>2024-04-19T12:29:19Z</time>
      </trkpt>
      <trkpt lat="42.89118859" lon="13.66742033">
        <ele>138.00000</ele>
        <time>2024-04-19T12:29:20Z</time>
      </trkpt>
      <trkpt lat="42.89107519" lon="13.66748948">
        <ele>136.00000</ele>
        <time>2024-04-19T12:29:21Z</time>
      </trkpt>
      <trkpt lat="42.89095918" lon="13.66755025">
        <ele>135.00000</ele>
        <time>2024-04-19T12:29:22Z</time>
      </trkpt>
      <trkpt lat="42.89083924" lon="13.66760339">
        <ele>133.00000</ele>
        <time>2024-04-19T12:29:23Z</time>
      </trkpt>
      <trkpt lat="42.89071359" lon="13.66764832">
        <ele>132.00000</ele>
        <time>2024-04-19T12:29:24Z</time>
      </trkpt>
      <trkpt lat="42.89058350" lon="13.66769081">
        <ele>130.00000</ele>
        <time>2024-04-19T12:29:25Z</time>
      </trkpt>
      <trkpt lat="42.89044948" lon="13.66773029">
        <ele>129.00000</ele>
        <time>2024-04-19T12:29:26Z</time>
      </trkpt>
      <trkpt lat="42.89034118" lon="13.66776315">
        <ele>129.00000</ele>
        <time>2024-04-19T12:29:27Z</time>
      </trkpt>
      <trkpt lat="42.89017992" lon="13.66781235">
        <ele>128.00000</ele>
        <time>2024-04-19T12:29:28Z</time>
      </trkpt>
      <trkpt lat="42.89004664" lon="13.66785183">
        <ele>128.00000</ele>
        <time>2024-04-19T12:29:29Z</time>
      </trkpt>
      <trkpt lat="42.88991672" lon="13.66788351">
        <ele>127.00000</ele>
        <time>2024-04-19T12:29:30Z</time>
      </trkpt>
      <trkpt lat="42.88978630" lon="13.66789810">
        <ele>126.00000</ele>
        <time>2024-04-19T12:29:31Z</time>
      </trkpt>
      <trkpt lat="42.88968119" lon="13.66789408">
        <ele>125.00000</ele>
        <time>2024-04-19T12:29:32Z</time>
      </trkpt>
      <trkpt lat="42.88952831" lon="13.66786407">
        <ele>125.00000</ele>
        <time>2024-04-19T12:29:33Z</time>
      </trkpt>
      <trkpt lat="42.88941029" lon="13.66780682">
        <ele>126.00000</ele>
        <time>2024-04-19T12:29:34Z</time>
      </trkpt>
      <trkpt lat="42.88930342" lon="13.66772660">
        <ele>126.00000</ele>
        <time>2024-04-19T12:29:35Z</time>
      </trkpt>
      <trkpt lat="42.88920041" lon="13.66764312">
        <ele>127.00000</ele>
        <time>2024-04-19T12:29:36Z</time>
      </trkpt>
      <trkpt lat="42.88909236" lon="13.66758026">
        <ele>127.00000</ele>
        <time>2024-04-19T12:29:37Z</time>
      </trkpt>
      <trkpt lat="42.88897904" lon="13.66754983">
        <ele>126.00000</ele>
        <time>2024-04-19T12:29:38Z</time>
      </trkpt>
      <trkpt lat="42.88886521" lon="13.66755628">
        <ele>124.00000</ele>
        <time>2024-04-19T12:29:39Z</time>
      </trkpt>
      <trkpt lat="42.88875700" lon="13.66759928">
        <ele>124.00000</ele>
        <time>2024-04-19T12:29:40Z</time>
      </trkpt>
      <trkpt lat="42.88865583" lon="13.66766357">
        <ele>123.00000</ele>
        <time>2024-04-19T12:29:41Z</time>
      </trkpt>
      <trkpt lat="42.88855584" lon="13.66772887">
        <ele>122.00000</ele>
        <time>2024-04-19T12:29:42Z</time>
      </trkpt>
      <trkpt lat="42.88844947" lon="13.66778092">
        <ele>121.00000</ele>
        <time>2024-04-19T12:29:43Z</time>
      </trkpt>
      <trkpt lat="42.88833783" lon="13.66782090">
        <ele>121.00000</ele>
        <time>2024-04-19T12:29:44Z</time>
      </trkpt>
      <trkpt lat="42.88822400" lon="13.66785770">
        <ele>121.00000</ele>
        <time>2024-04-19T12:29:45Z</time>
      </trkpt>
      <trkpt lat="42.88813129" lon="13.66788016">
        <ele>121.00000</ele>
        <time>2024-04-19T12:29:46Z</time>
      </trkpt>
      <trkpt lat="42.88801504" lon="13.66789634">
        <ele>121.00000</ele>
        <time>2024-04-19T12:29:47Z</time>
      </trkpt>
      <trkpt lat="42.88787514" lon="13.66789408">
        <ele>121.00000</ele>
        <time>2024-04-19T12:29:48Z</time>
      </trkpt>
      <trkpt lat="42.88775738" lon="13.66787111">
        <ele>122.00000</ele>
        <time>2024-04-19T12:29:49Z</time>
      </trkpt>
      <trkpt lat="42.88764204" lon="13.66784093">
        <ele>121.00000</ele>
        <time>2024-04-19T12:29:50Z</time>
      </trkpt>
      <trkpt lat="42.88752763" lon="13.66780975">
        <ele>120.00000</ele>
        <time>2024-04-19T12:29:51Z</time>
      </trkpt>
      <trkpt lat="42.88741447" lon="13.66777740">
        <ele>119.00000</ele>
        <time>2024-04-19T12:29:52Z</time>
      </trkpt>
      <trkpt lat="42.88730224" lon="13.66774337">
        <ele>118.00000</ele>
        <time>2024-04-19T12:29:53Z</time>
      </trkpt>
      <trkpt lat="42.88719210" lon="13.66770531">
        <ele>117.00000</ele>
        <time>2024-04-19T12:29:54Z</time>
      </trkpt>
      <trkpt lat="42.88708490" lon="13.66766232">
        <ele>116.00000</ele>
        <time>2024-04-19T12:29:55Z</time>
      </trkpt>
      <trkpt lat="42.88697912" lon="13.66761554">
        <ele>115.00000</ele>
        <time>2024-04-19T12:29:56Z</time>
      </trkpt>
      <trkpt lat="42.88687627" lon="13.66755972">
        <ele>116.00000</ele>
        <time>2024-04-19T12:29:57Z</time>
      </trkpt>
      <trkpt lat="42.88677619" lon="13.66749627">
        <ele>116.00000</ele>
        <time>2024-04-19T12:29:58Z</time>
      </trkpt>
      <trkpt lat="42.88667444" lon="13.66743517">
        <ele>117.00000</ele>
        <time>2024-04-19T12:29:59Z</time>
      </trkpt>
      <trkpt lat="42.88657276" lon="13.66737951">
        <ele>118.00000</ele>
        <time>2024-04-19T12:30:00Z</time>
      </trkpt>
      <trkpt lat="42.88647587" lon="13.66732344">
        <ele>119.00000</ele>
        <time>2024-04-19T12:30:01Z</time>
      </trkpt>
      <trkpt lat="42.88637688" lon="13.66725722">
        <ele>120.00000</ele>
        <time>2024-04-19T12:30:02Z</time>
      </trkpt>
      <trkpt lat="42.88626674" lon="13.66720181">
        <ele>120.00000</ele>
        <time>2024-04-19T12:30:03Z</time>
      </trkpt>
      <trkpt lat="42.88614981" lon="13.66716317">
        <ele>119.00000</ele>
        <time>2024-04-19T12:30:04Z</time>
      </trkpt>
      <trkpt lat="42.88602400" lon="13.66713266">
        <ele>119.00000</ele>
        <time>2024-04-19T12:30:05Z</time>
      </trkpt>
      <trkpt lat="42.88589056" lon="13.66710106">
        <ele>119.00000</ele>
        <time>2024-04-19T12:30:06Z</time>
      </trkpt>
      <trkpt lat="42.88575218" lon="13.66706988">
        <ele>119.00000</ele>
        <time>2024-04-19T12:30:07Z</time>
      </trkpt>
      <trkpt lat="42.88560952" lon="13.66704474">
        <ele>118.00000</ele>
        <time>2024-04-19T12:30:08Z</time>
      </trkpt>
      <trkpt lat="42.88546694" lon="13.66703007">
        <ele>116.00000</ele>
        <time>2024-04-19T12:30:09Z</time>
      </trkpt>
      <trkpt lat="42.88532596" lon="13.66702529">
        <ele>115.00000</ele>
        <time>2024-04-19T12:30:10Z</time>
      </trkpt>
      <trkpt lat="42.88518774" lon="13.66702957">
        <ele>113.00000</ele>
        <time>2024-04-19T12:30:11Z</time>
      </trkpt>
      <trkpt lat="42.88505363" lon="13.66702990">
        <ele>112.00000</ele>
        <time>2024-04-19T12:30:12Z</time>
      </trkpt>
      <trkpt lat="42.88492740" lon="13.66700140">
        <ele>110.00000</ele>
        <time>2024-04-19T12:30:13Z</time>
      </trkpt>
      <trkpt lat="42.88480955" lon="13.66691708">
        <ele>110.00000</ele>
        <time>2024-04-19T12:30:14Z</time>
      </trkpt>
      <trkpt lat="42.88468818" lon="13.66684039">
        <ele>110.00000</ele>
        <time>2024-04-19T12:30:15Z</time>
      </trkpt>
      <trkpt lat="42.88455809" lon="13.66679663">
        <ele>111.00000</ele>
        <time>2024-04-19T12:30:16Z</time>
      </trkpt>
      <trkpt lat="42.88442951" lon="13.66679403">
        <ele>112.00000</ele>
        <time>2024-04-19T12:30:17Z</time>
      </trkpt>
      <trkpt lat="42.88431258" lon="13.66682463">
        <ele>113.00000</ele>
        <time>2024-04-19T12:30:18Z</time>
      </trkpt>
      <trkpt lat="42.88420764" lon="13.66688313">
        <ele>114.00000</ele>
        <time>2024-04-19T12:30:19Z</time>
      </trkpt>
      <trkpt lat="42.88410681" lon="13.66695304">
        <ele>115.00000</ele>
        <time>2024-04-19T12:30:20Z</time>
      </trkpt>
      <trkpt lat="42.88400866" lon="13.66702445">
        <ele>116.00000</ele>
        <time>2024-04-19T12:30:21Z</time>
      </trkpt>
      <trkpt lat="42.88391402" lon="13.66709603">
        <ele>117.00000</ele>
        <time>2024-04-19T12:30:22Z</time>
      </trkpt>
      <trkpt lat="42.88382140" lon="13.66716896">
        <ele>118.00000</ele>
        <time>2024-04-19T12:30:23Z</time>
      </trkpt>
      <trkpt lat="42.88373046" lon="13.66724171">
        <ele>118.00000</ele>
        <time>2024-04-19T12:30:24Z</time>
      </trkpt>
      <trkpt lat="42.88364237" lon="13.66731279">
        <ele>118.00000</ele>
        <time>2024-04-19T12:30:25Z</time>
      </trkpt>
      <trkpt lat="42.88355570" lon="13.66738094">
        <ele>117.00000</ele>
        <time>2024-04-19T12:30:26Z</time>
      </trkpt>
      <trkpt lat="42.88347045" lon="13.66744841">
        <ele>116.00000</ele>
        <time>2024-04-19T12:30:27Z</time>
      </trkpt>
      <trkpt lat="42.88338596" lon="13.66751563">
        <ele>115.00000</ele>
        <time>2024-04-19T12:30:28Z</time>
      </trkpt>
      <trkpt lat="42.88330600" lon="13.66758554">
        <ele>115.00000</ele>
        <time>2024-04-19T12:30:29Z</time>
      </trkpt>
      <trkpt lat="42.88323014" lon="13.66765536">
        <ele>115.00000</ele>
        <time>2024-04-19T12:30:30Z</time>
      </trkpt>
      <trkpt lat="42.88315504" lon="13.66772493">
        <ele>115.00000</ele>
        <time>2024-04-19T12:30:31Z</time>
      </trkpt>
      <trkpt lat="42.88308229" lon="13.66779626">
        <ele>115.00000</ele>
        <time>2024-04-19T12:30:32Z</time>
      </trkpt>
      <trkpt lat="42.88301297" lon="13.66786742">
        <ele>115.00000</ele>
        <time>2024-04-19T12:30:33Z</time>
      </trkpt>
      <trkpt lat="42.88294684" lon="13.66793892">
        <ele>114.00000</ele>
        <time>2024-04-19T12:30:34Z</time>
      </trkpt>
      <trkpt lat="42.88287643" lon="13.66800237">
        <ele>114.00000</ele>
        <time>2024-04-19T12:30:35Z</time>
      </trkpt>
      <trkpt lat="42.88279890" lon="13.66806205">
        <ele>114.00000</ele>
        <time>2024-04-19T12:30:36Z</time>
      </trkpt>
      <trkpt lat="42.88271650" lon="13.66812223">
        <ele>114.00000</ele>
        <time>2024-04-19T12:30:37Z</time>
      </trkpt>
      <trkpt lat="42.88263117" lon="13.66817311">
        <ele>115.00000</ele>
        <time>2024-04-19T12:30:38Z</time>
      </trkpt>
      <trkpt lat="42.88254417" lon="13.66821904">
        <ele>115.00000</ele>
        <time>2024-04-19T12:30:39Z</time>
      </trkpt>
      <trkpt lat="42.88247653" lon="13.66825701">
        <ele>115.00000</ele>
        <time>2024-04-19T12:30:40Z</time>
      </trkpt>
      <trkpt lat="42.88237762" lon="13.66831066">
        <ele>114.00000</ele>
        <time>2024-04-19T12:30:41Z</time>
      </trkpt>
      <trkpt lat="42.88229866" lon="13.66835215">
        <ele>113.00000</ele>
        <time>2024-04-19T12:30:42Z</time>
      </trkpt>
      <trkpt lat="42.88221820" lon="13.66839615">
        <ele>113.00000</ele>
        <time>2024-04-19T12:30:43Z</time>
      </trkpt>
      <trkpt lat="42.88213404" lon="13.66843731">
        <ele>112.00000</ele>
        <time>2024-04-19T12:30:44Z</time>
      </trkpt>
      <trkpt lat="42.88204880" lon="13.66847922">
        <ele>112.00000</ele>
        <time>2024-04-19T12:30:45Z</time>
      </trkpt>
      <trkpt lat="42.88196230" lon="13.66852381">
        <ele>112.00000</ele>
        <time>2024-04-19T12:30:46Z</time>
      </trkpt>
      <trkpt lat="42.88187613" lon="13.66857091">
        <ele>111.00000</ele>
        <time>2024-04-19T12:30:47Z</time>
      </trkpt>
      <trkpt lat="42.88179047" lon="13.66861676">
        <ele>111.00000</ele>
        <time>2024-04-19T12:30:48Z</time>
      </trkpt>
      <trkpt lat="42.88170380" lon="13.66865398">
        <ele>111.00000</ele>
        <time>2024-04-19T12:30:49Z</time>
      </trkpt>
      <trkpt lat="42.88161680" lon="13.66869027">
        <ele>110.00000</ele>
        <time>2024-04-19T12:30:50Z</time>
      </trkpt>
      <trkpt lat="42.88152711" lon="13.66872590">
        <ele>110.00000</ele>
        <time>2024-04-19T12:30:51Z</time>
      </trkpt>
      <trkpt lat="42.88134053" lon="13.66877241">
        <ele>110.00000</ele>
        <time>2024-04-19T12:30:53Z</time>
      </trkpt>
      <trkpt lat="42.88124891" lon="13.66877946">
        <ele>110.00000</ele>
        <time>2024-04-19T12:30:54Z</time>
      </trkpt>
      <trkpt lat="42.88115571" lon="13.66877937">
        <ele>111.00000</ele>
        <time>2024-04-19T12:30:55Z</time>
      </trkpt>
      <trkpt lat="42.88106284" lon="13.66876646">
        <ele>112.00000</ele>
        <time>2024-04-19T12:30:56Z</time>
      </trkpt>
      <trkpt lat="42.88096971" lon="13.66875322">
        <ele>112.00000</ele>
        <time>2024-04-19T12:30:57Z</time>
      </trkpt>
      <trkpt lat="42.88087651" lon="13.66874308">
        <ele>113.00000</ele>
        <time>2024-04-19T12:30:58Z</time>
      </trkpt>
      <trkpt lat="42.88078380" lon="13.66873847">
        <ele>114.00000</ele>
        <time>2024-04-19T12:30:59Z</time>
      </trkpt>
      <trkpt lat="42.88069177" lon="13.66874660">
        <ele>115.00000</ele>
        <time>2024-04-19T12:31:00Z</time>
      </trkpt>
      <trkpt lat="42.88060200" lon="13.66876655">
        <ele>115.00000</ele>
        <time>2024-04-19T12:31:01Z</time>
      </trkpt>
      <trkpt lat="42.88051650" lon="13.66880318">
        <ele>115.00000</ele>
        <time>2024-04-19T12:31:02Z</time>
      </trkpt>
      <trkpt lat="42.88043486" lon="13.66885783">
        <ele>115.00000</ele>
        <time>2024-04-19T12:31:03Z</time>
      </trkpt>
      <trkpt lat="42.88035943" lon="13.66892790">
        <ele>114.00000</ele>
        <time>2024-04-19T12:31:04Z</time>
      </trkpt>
      <trkpt lat="42.88028994" lon="13.66900769">
        <ele>113.00000</ele>
        <time>2024-04-19T12:31:05Z</time>
      </trkpt>
      <trkpt lat="42.88022557" lon="13.66909420">
        <ele>112.00000</ele>
        <time>2024-04-19T12:31:06Z</time>
      </trkpt>
      <trkpt lat="42.88016555" lon="13.66918900">
        <ele>112.00000</ele>
        <time>2024-04-19T12:31:07Z</time>
      </trkpt>
      <trkpt lat="42.88010696" lon="13.66928497">
        <ele>111.00000</ele>
        <time>2024-04-19T12:31:08Z</time>
      </trkpt>
      <trkpt lat="42.88004678" lon="13.66937876">
        <ele>111.00000</ele>
        <time>2024-04-19T12:31:09Z</time>
      </trkpt>
      <trkpt lat="42.87998660" lon="13.66947339">
        <ele>111.00000</ele>
        <time>2024-04-19T12:31:10Z</time>
      </trkpt>
      <trkpt lat="42.87992684" lon="13.66956744">
        <ele>111.00000</ele>
        <time>2024-04-19T12:31:11Z</time>
      </trkpt>
      <trkpt lat="42.87986582" lon="13.66966157">
        <ele>111.00000</ele>
        <time>2024-04-19T12:31:12Z</time>
      </trkpt>
      <trkpt lat="42.87980773" lon="13.66975452">
        <ele>112.00000</ele>
        <time>2024-04-19T12:31:13Z</time>
      </trkpt>
      <trkpt lat="42.87974864" lon="13.66984697">
        <ele>113.00000</ele>
        <time>2024-04-19T12:31:14Z</time>
      </trkpt>
      <trkpt lat="42.87968661" lon="13.66993557">
        <ele>113.00000</ele>
        <time>2024-04-19T12:31:15Z</time>
      </trkpt>
      <trkpt lat="42.87962400" lon="13.67001855">
        <ele>114.00000</ele>
        <time>2024-04-19T12:31:16Z</time>
      </trkpt>
      <trkpt lat="42.87955879" lon="13.67009776">
        <ele>114.00000</ele>
        <time>2024-04-19T12:31:17Z</time>
      </trkpt>
      <trkpt lat="42.87949064" lon="13.67016943">
        <ele>115.00000</ele>
        <time>2024-04-19T12:31:18Z</time>
      </trkpt>
      <trkpt lat="42.87941931" lon="13.67023606">
        <ele>115.00000</ele>
        <time>2024-04-19T12:31:19Z</time>
      </trkpt>
      <trkpt lat="42.87934572" lon="13.67030211">
        <ele>115.00000</ele>
        <time>2024-04-19T12:31:20Z</time>
      </trkpt>
      <trkpt lat="42.87927196" lon="13.67036791">
        <ele>115.00000</ele>
        <time>2024-04-19T12:31:21Z</time>
      </trkpt>
      <trkpt lat="42.87919753" lon="13.67043203">
        <ele>115.00000</ele>
        <time>2024-04-19T12:31:22Z</time>
      </trkpt>
      <trkpt lat="42.87912519" lon="13.67049615">
        <ele>115.00000</ele>
        <time>2024-04-19T12:31:23Z</time>
      </trkpt>
      <trkpt lat="42.87905277" lon="13.67056019">
        <ele>116.00000</ele>
        <time>2024-04-19T12:31:24Z</time>
      </trkpt>
      <trkpt lat="42.87897985" lon="13.67062364">
        <ele>116.00000</ele>
        <time>2024-04-19T12:31:25Z</time>
      </trkpt>
      <trkpt lat="42.87890810" lon="13.67068684">
        <ele>116.00000</ele>
        <time>2024-04-19T12:31:26Z</time>
      </trkpt>
      <trkpt lat="42.87883778" lon="13.67075180">
        <ele>116.00000</ele>
        <time>2024-04-19T12:31:27Z</time>
      </trkpt>
      <trkpt lat="42.87876879" lon="13.67081433">
        <ele>116.00000</ele>
        <time>2024-04-19T12:31:28Z</time>
      </trkpt>
      <trkpt lat="42.87869897" lon="13.67087292">
        <ele>117.00000</ele>
        <time>2024-04-19T12:31:29Z</time>
      </trkpt>
      <trkpt lat="42.87862957" lon="13.67093461">
        <ele>117.00000</ele>
        <time>2024-04-19T12:31:30Z</time>
      </trkpt>
      <trkpt lat="42.87857433" lon="13.67098566">
        <ele>118.00000</ele>
        <time>2024-04-19T12:31:31Z</time>
      </trkpt>
      <trkpt lat="42.87848942" lon="13.67106386">
        <ele>118.00000</ele>
        <time>2024-04-19T12:31:32Z</time>
      </trkpt>
      <trkpt lat="42.87841918" lon="13.67112773">
        <ele>118.00000</ele>
        <time>2024-04-19T12:31:33Z</time>
      </trkpt>
      <trkpt lat="42.87834861" lon="13.67118925">
        <ele>117.00000</ele>
        <time>2024-04-19T12:31:34Z</time>
      </trkpt>
      <trkpt lat="42.87829195" lon="13.67123896">
        <ele>117.00000</ele>
        <time>2024-04-19T12:31:35Z</time>
      </trkpt>
      <trkpt lat="42.87822154" lon="13.67130685">
        <ele>117.00000</ele>
        <time>2024-04-19T12:31:36Z</time>
      </trkpt>
      <trkpt lat="42.87813663" lon="13.67139184">
        <ele>117.00000</ele>
        <time>2024-04-19T12:31:37Z</time>
      </trkpt>
      <trkpt lat="42.87806312" lon="13.67146007">
        <ele>117.00000</ele>
        <time>2024-04-19T12:31:38Z</time>
      </trkpt>
      <trkpt lat="42.87799171" lon="13.67152688">
        <ele>117.00000</ele>
        <time>2024-04-19T12:31:39Z</time>
      </trkpt>
      <trkpt lat="42.87792247" lon="13.67159812">
        <ele>117.00000</ele>
        <time>2024-04-19T12:31:40Z</time>
      </trkpt>
      <trkpt lat="42.87785676" lon="13.67167758">
        <ele>118.00000</ele>
        <time>2024-04-19T12:31:41Z</time>
      </trkpt>
      <trkpt lat="42.87779549" lon="13.67176651">
        <ele>119.00000</ele>
        <time>2024-04-19T12:31:42Z</time>
      </trkpt>
      <trkpt lat="42.87774058" lon="13.67186106">
        <ele>120.00000</ele>
        <time>2024-04-19T12:31:43Z</time>
      </trkpt>
      <trkpt lat="42.87769063" lon="13.67195963">
        <ele>120.00000</ele>
        <time>2024-04-19T12:31:44Z</time>
      </trkpt>
      <trkpt lat="42.87764143" lon="13.67206030">
        <ele>120.00000</ele>
        <time>2024-04-19T12:31:45Z</time>
      </trkpt>
      <trkpt lat="42.87760220" lon="13.67214261">
        <ele>120.00000</ele>
        <time>2024-04-19T12:31:46Z</time>
      </trkpt>
      <trkpt lat="42.87755191" lon="13.67224420">
        <ele>119.00000</ele>
        <time>2024-04-19T12:31:47Z</time>
      </trkpt>
      <trkpt lat="42.87748636" lon="13.67236155">
        <ele>118.00000</ele>
        <time>2024-04-19T12:31:48Z</time>
      </trkpt>
      <trkpt lat="42.87742794" lon="13.67245039">
        <ele>118.00000</ele>
        <time>2024-04-19T12:31:49Z</time>
      </trkpt>
      <trkpt lat="42.87736424" lon="13.67253103">
        <ele>117.00000</ele>
        <time>2024-04-19T12:31:50Z</time>
      </trkpt>
      <trkpt lat="42.87729727" lon="13.67261267">
        <ele>117.00000</ele>
        <time>2024-04-19T12:31:51Z</time>
      </trkpt>
      <trkpt lat="42.87724220" lon="13.67268123">
        <ele>117.00000</ele>
        <time>2024-04-19T12:31:52Z</time>
      </trkpt>
      <trkpt lat="42.87716031" lon="13.67278181">
        <ele>118.00000</ele>
        <time>2024-04-19T12:31:53Z</time>
      </trkpt>
      <trkpt lat="42.87703609" lon="13.67293797">
        <ele>119.00000</ele>
        <time>2024-04-19T12:31:55Z</time>
      </trkpt>
      <trkpt lat="42.87696526" lon="13.67302916">
        <ele>119.00000</ele>
        <time>2024-04-19T12:31:56Z</time>
      </trkpt>
      <trkpt lat="42.87688069" lon="13.67314148">
        <ele>119.00000</ele>
        <time>2024-04-19T12:31:57Z</time>
      </trkpt>
      <trkpt lat="42.87680885" lon="13.67323243">
        <ele>118.00000</ele>
        <time>2024-04-19T12:31:58Z</time>
      </trkpt>
      <trkpt lat="42.87673476" lon="13.67332094">
        <ele>117.00000</ele>
        <time>2024-04-19T12:31:59Z</time>
      </trkpt>
      <trkpt lat="42.87665898" lon="13.67341322">
        <ele>116.00000</ele>
        <time>2024-04-19T12:32:00Z</time>
      </trkpt>
      <trkpt lat="42.87659713" lon="13.67348849">
        <ele>116.00000</ele>
        <time>2024-04-19T12:32:01Z</time>
      </trkpt>
      <trkpt lat="42.87652043" lon="13.67358061">
        <ele>114.00000</ele>
        <time>2024-04-19T12:32:02Z</time>
      </trkpt>
      <trkpt lat="42.87642404" lon="13.67369729">
        <ele>113.00000</ele>
        <time>2024-04-19T12:32:03Z</time>
      </trkpt>
      <trkpt lat="42.87634206" lon="13.67379787">
        <ele>113.00000</ele>
        <time>2024-04-19T12:32:04Z</time>
      </trkpt>
      <trkpt lat="42.87627769" lon="13.67387800">
        <ele>113.00000</ele>
        <time>2024-04-19T12:32:05Z</time>
      </trkpt>
      <trkpt lat="42.87618071" lon="13.67399753">
        <ele>114.00000</ele>
        <time>2024-04-19T12:32:06Z</time>
      </trkpt>
      <trkpt lat="42.87609932" lon="13.67409459">
        <ele>114.00000</ele>
        <time>2024-04-19T12:32:07Z</time>
      </trkpt>
      <trkpt lat="42.87601819" lon="13.67419064">
        <ele>113.00000</ele>
        <time>2024-04-19T12:32:08Z</time>
      </trkpt>
      <trkpt lat="42.87593881" lon="13.67428888">
        <ele>113.00000</ele>
        <time>2024-04-19T12:32:09Z</time>
      </trkpt>
      <trkpt lat="42.87587502" lon="13.67436926">
        <ele>112.00000</ele>
        <time>2024-04-19T12:32:10Z</time>
      </trkpt>
      <trkpt lat="42.87579347" lon="13.67446993">
        <ele>111.00000</ele>
        <time>2024-04-19T12:32:11Z</time>
      </trkpt>
      <trkpt lat="42.87571057" lon="13.67457118">
        <ele>110.00000</ele>
        <time>2024-04-19T12:32:12Z</time>
      </trkpt>
      <trkpt lat="42.87561267" lon="13.67469448">
        <ele>109.00000</ele>
        <time>2024-04-19T12:32:13Z</time>
      </trkpt>
      <trkpt lat="42.87553145" lon="13.67479808">
        <ele>109.00000</ele>
        <time>2024-04-19T12:32:14Z</time>
      </trkpt>
      <trkpt lat="42.87545065" lon="13.67489933">
        <ele>109.00000</ele>
        <time>2024-04-19T12:32:15Z</time>
      </trkpt>
      <trkpt lat="42.87537119" lon="13.67499916">
        <ele>109.00000</ele>
        <time>2024-04-19T12:32:16Z</time>
      </trkpt>
      <trkpt lat="42.87529139" lon="13.67509572">
        <ele>109.00000</ele>
        <time>2024-04-19T12:32:17Z</time>
      </trkpt>
      <trkpt lat="42.87520699" lon="13.67518809">
        <ele>108.00000</ele>
        <time>2024-04-19T12:32:18Z</time>
      </trkpt>
      <trkpt lat="42.87511856" lon="13.67527283">
        <ele>108.00000</ele>
        <time>2024-04-19T12:32:19Z</time>
      </trkpt>
      <trkpt lat="42.87502518" lon="13.67534735">
        <ele>108.00000</ele>
        <time>2024-04-19T12:32:20Z</time>
      </trkpt>
      <trkpt lat="42.87492787" lon="13.67540845">
        <ele>108.00000</ele>
        <time>2024-04-19T12:32:21Z</time>
      </trkpt>
      <trkpt lat="42.87482192" lon="13.67545891">
        <ele>108.00000</ele>
        <time>2024-04-19T12:32:22Z</time>
      </trkpt>
      <trkpt lat="42.87471229" lon="13.67549152">
        <ele>108.00000</ele>
        <time>2024-04-19T12:32:23Z</time>
      </trkpt>
      <trkpt lat="42.87459880" lon="13.67551121">
        <ele>107.00000</ele>
        <time>2024-04-19T12:32:24Z</time>
      </trkpt>
      <trkpt lat="42.87448329" lon="13.67551784">
        <ele>106.00000</ele>
        <time>2024-04-19T12:32:25Z</time>
      </trkpt>
      <trkpt lat="42.87436746" lon="13.67551532">
        <ele>106.00000</ele>
        <time>2024-04-19T12:32:26Z</time>
      </trkpt>
      <trkpt lat="42.87425053" lon="13.67551214">
        <ele>105.00000</ele>
        <time>2024-04-19T12:32:27Z</time>
      </trkpt>
      <trkpt lat="42.87413259" lon="13.67550652">
        <ele>105.00000</ele>
        <time>2024-04-19T12:32:28Z</time>
      </trkpt>
      <trkpt lat="42.87401231" lon="13.67550350">
        <ele>104.00000</ele>
        <time>2024-04-19T12:32:29Z</time>
      </trkpt>
      <trkpt lat="42.87389187" lon="13.67549755">
        <ele>103.00000</ele>
        <time>2024-04-19T12:32:30Z</time>
      </trkpt>
      <trkpt lat="42.87377083" lon="13.67548833">
        <ele>103.00000</ele>
        <time>2024-04-19T12:32:31Z</time>
      </trkpt>
      <trkpt lat="42.87365030" lon="13.67546888">
        <ele>102.00000</ele>
        <time>2024-04-19T12:32:32Z</time>
      </trkpt>
      <trkpt lat="42.87353237" lon="13.67543477">
        <ele>101.00000</ele>
        <time>2024-04-19T12:32:33Z</time>
      </trkpt>
      <trkpt lat="42.87341653" lon="13.67538758">
        <ele>101.00000</ele>
        <time>2024-04-19T12:32:34Z</time>
      </trkpt>
      <trkpt lat="42.87330354" lon="13.67532614">
        <ele>100.00000</ele>
        <time>2024-04-19T12:32:35Z</time>
      </trkpt>
      <trkpt lat="42.87319290" lon="13.67525490">
        <ele>100.00000</ele>
        <time>2024-04-19T12:32:36Z</time>
      </trkpt>
      <trkpt lat="42.87308192" lon="13.67517879">
        <ele>99.000000</ele>
        <time>2024-04-19T12:32:37Z</time>
      </trkpt>
      <trkpt lat="42.87296919" lon="13.67510394">
        <ele>99.000000</ele>
        <time>2024-04-19T12:32:38Z</time>
      </trkpt>
      <trkpt lat="42.87285326" lon="13.67503537">
        <ele>99.000000</ele>
        <time>2024-04-19T12:32:39Z</time>
      </trkpt>
      <trkpt lat="42.87273366" lon="13.67498265">
        <ele>99.000000</ele>
        <time>2024-04-19T12:32:40Z</time>
      </trkpt>
      <trkpt lat="42.87261446" lon="13.67495038">
        <ele>100.00000</ele>
        <time>2024-04-19T12:32:41Z</time>
      </trkpt>
      <trkpt lat="42.87249536" lon="13.67494300">
        <ele>102.00000</ele>
        <time>2024-04-19T12:32:42Z</time>
      </trkpt>
      <trkpt lat="42.87237541" lon="13.67495591">
        <ele>102.00000</ele>
        <time>2024-04-19T12:32:43Z</time>
      </trkpt>
      <trkpt lat="42.87226175" lon="13.67497217">
        <ele>103.00000</ele>
        <time>2024-04-19T12:32:44Z</time>
      </trkpt>
      <trkpt lat="42.87214826" lon="13.67498894">
        <ele>103.00000</ele>
        <time>2024-04-19T12:32:45Z</time>
      </trkpt>
      <trkpt lat="42.87203670" lon="13.67500738">
        <ele>103.00000</ele>
        <time>2024-04-19T12:32:46Z</time>
      </trkpt>
      <trkpt lat="42.87192757" lon="13.67502984">
        <ele>103.00000</ele>
        <time>2024-04-19T12:32:47Z</time>
      </trkpt>
      <trkpt lat="42.87181869" lon="13.67505725">
        <ele>103.00000</ele>
        <time>2024-04-19T12:32:48Z</time>
      </trkpt>
      <trkpt lat="42.87170712" lon="13.67509832">
        <ele>104.00000</ele>
        <time>2024-04-19T12:32:49Z</time>
      </trkpt>
      <trkpt lat="42.87159464" lon="13.67516093">
        <ele>104.00000</ele>
        <time>2024-04-19T12:32:50Z</time>
      </trkpt>
      <trkpt lat="42.87148433" lon="13.67523008">
        <ele>105.00000</ele>
        <time>2024-04-19T12:32:51Z</time>
      </trkpt>
      <trkpt lat="42.87137520" lon="13.67530887">
        <ele>105.00000</ele>
        <time>2024-04-19T12:32:52Z</time>
      </trkpt>
      <trkpt lat="42.87126515" lon="13.67540149">
        <ele>106.00000</ele>
        <time>2024-04-19T12:32:53Z</time>
      </trkpt>
      <trkpt lat="42.87115450" lon="13.67549554">
        <ele>105.00000</ele>
        <time>2024-04-19T12:32:54Z</time>
      </trkpt>
      <trkpt lat="42.87104009" lon="13.67558246">
        <ele>105.00000</ele>
        <time>2024-04-19T12:32:55Z</time>
      </trkpt>
      <trkpt lat="42.87091990" lon="13.67565966">
        <ele>104.00000</ele>
        <time>2024-04-19T12:32:56Z</time>
      </trkpt>
      <trkpt lat="42.87079811" lon="13.67573887">
        <ele>104.00000</ele>
        <time>2024-04-19T12:32:57Z</time>
      </trkpt>
      <trkpt lat="42.87067766" lon="13.67582973">
        <ele>105.00000</ele>
        <time>2024-04-19T12:32:58Z</time>
      </trkpt>
      <trkpt lat="42.87055822" lon="13.67593123">
        <ele>106.00000</ele>
        <time>2024-04-19T12:32:59Z</time>
      </trkpt>
      <trkpt lat="42.87044070" lon="13.67603290">
        <ele>106.00000</ele>
        <time>2024-04-19T12:33:00Z</time>
      </trkpt>
      <trkpt lat="42.87032260" lon="13.67613659">
        <ele>107.00000</ele>
        <time>2024-04-19T12:33:01Z</time>
      </trkpt>
      <trkpt lat="42.87021012" lon="13.67625477">
        <ele>107.00000</ele>
        <time>2024-04-19T12:33:02Z</time>
      </trkpt>
      <trkpt lat="42.87011398" lon="13.67639626">
        <ele>107.00000</ele>
        <time>2024-04-19T12:33:03Z</time>
      </trkpt>
      <trkpt lat="42.87003862" lon="13.67655660">
        <ele>107.00000</ele>
        <time>2024-04-19T12:33:04Z</time>
      </trkpt>
      <trkpt lat="42.86998288" lon="13.67673053">
        <ele>107.00000</ele>
        <time>2024-04-19T12:33:05Z</time>
      </trkpt>
      <trkpt lat="42.86993536" lon="13.67691535">
        <ele>106.00000</ele>
        <time>2024-04-19T12:33:06Z</time>
      </trkpt>
      <trkpt lat="42.86989605" lon="13.67710579">
        <ele>105.00000</ele>
        <time>2024-04-19T12:33:07Z</time>
      </trkpt>
      <trkpt lat="42.86986160" lon="13.67729790">
        <ele>104.00000</ele>
        <time>2024-04-19T12:33:08Z</time>
      </trkpt>
      <trkpt lat="42.86982396" lon="13.67748130">
        <ele>103.00000</ele>
        <time>2024-04-19T12:33:09Z</time>
      </trkpt>
      <trkpt lat="42.86978373" lon="13.67765648">
        <ele>103.00000</ele>
        <time>2024-04-19T12:33:10Z</time>
      </trkpt>
      <trkpt lat="42.86974098" lon="13.67782412">
        <ele>103.00000</ele>
        <time>2024-04-19T12:33:11Z</time>
      </trkpt>
      <trkpt lat="42.86968893" lon="13.67798438">
        <ele>104.00000</ele>
        <time>2024-04-19T12:33:12Z</time>
      </trkpt>
      <trkpt lat="42.86962707" lon="13.67813718">
        <ele>103.00000</ele>
        <time>2024-04-19T12:33:13Z</time>
      </trkpt>
      <trkpt lat="42.86955540" lon="13.67828487">
        <ele>103.00000</ele>
        <time>2024-04-19T12:33:14Z</time>
      </trkpt>
      <trkpt lat="42.86947117" lon="13.67843088">
        <ele>103.00000</ele>
        <time>2024-04-19T12:33:15Z</time>
      </trkpt>
      <trkpt lat="42.86937788" lon="13.67857019">
        <ele>104.00000</ele>
        <time>2024-04-19T12:33:16Z</time>
      </trkpt>
      <trkpt lat="42.86927662" lon="13.67869776">
        <ele>105.00000</ele>
        <time>2024-04-19T12:33:17Z</time>
      </trkpt>
      <trkpt lat="42.86916623" lon="13.67881528">
        <ele>106.00000</ele>
        <time>2024-04-19T12:33:18Z</time>
      </trkpt>
      <trkpt lat="42.86904210" lon="13.67891527">
        <ele>107.00000</ele>
        <time>2024-04-19T12:33:19Z</time>
      </trkpt>
      <trkpt lat="42.86891369" lon="13.67899364">
        <ele>107.00000</ele>
        <time>2024-04-19T12:33:20Z</time>
      </trkpt>
      <trkpt lat="42.86878787" lon="13.67907034">
        <ele>107.00000</ele>
        <time>2024-04-19T12:33:21Z</time>
      </trkpt>
      <trkpt lat="42.86867254" lon="13.67916363">
        <ele>107.00000</ele>
        <time>2024-04-19T12:33:22Z</time>
      </trkpt>
      <trkpt lat="42.86857405" lon="13.67928315">
        <ele>107.00000</ele>
        <time>2024-04-19T12:33:23Z</time>
      </trkpt>
      <trkpt lat="42.86849325" lon="13.67942246">
        <ele>107.00000</ele>
        <time>2024-04-19T12:33:24Z</time>
      </trkpt>
      <trkpt lat="42.86843122" lon="13.67957870">
        <ele>107.00000</ele>
        <time>2024-04-19T12:33:25Z</time>
      </trkpt>
      <trkpt lat="42.86838755" lon="13.67974860">
        <ele>107.00000</ele>
        <time>2024-04-19T12:33:26Z</time>
      </trkpt>
      <trkpt lat="42.86835998" lon="13.67992320">
        <ele>105.00000</ele>
        <time>2024-04-19T12:33:27Z</time>
      </trkpt>
      <trkpt lat="42.86834112" lon="13.68009787">
        <ele>104.00000</ele>
        <time>2024-04-19T12:33:28Z</time>
      </trkpt>
      <trkpt lat="42.86832612" lon="13.68027364">
        <ele>105.00000</ele>
        <time>2024-04-19T12:33:29Z</time>
      </trkpt>
      <trkpt lat="42.86831178" lon="13.68045033">
        <ele>105.00000</ele>
        <time>2024-04-19T12:33:30Z</time>
      </trkpt>
      <trkpt lat="42.86829619" lon="13.68062853">
        <ele>105.00000</ele>
        <time>2024-04-19T12:33:31Z</time>
      </trkpt>
      <trkpt lat="42.86827758" lon="13.68080891">
        <ele>105.00000</ele>
        <time>2024-04-19T12:33:32Z</time>
      </trkpt>
      <trkpt lat="42.86825286" lon="13.68098753">
        <ele>103.00000</ele>
        <time>2024-04-19T12:33:33Z</time>
      </trkpt>
      <trkpt lat="42.86821413" lon="13.68115777">
        <ele>102.00000</ele>
        <time>2024-04-19T12:33:34Z</time>
      </trkpt>
      <trkpt lat="42.86813543" lon="13.68129934">
        <ele>101.00000</ele>
        <time>2024-04-19T12:33:35Z</time>
      </trkpt>
      <trkpt lat="42.86803183" lon="13.68139933">
        <ele>102.00000</ele>
        <time>2024-04-19T12:33:36Z</time>
      </trkpt>
      <trkpt lat="42.86791322" lon="13.68147972">
        <ele>101.00000</ele>
        <time>2024-04-19T12:33:37Z</time>
      </trkpt>
      <trkpt lat="42.86778481" lon="13.68154937">
        <ele>100.00000</ele>
        <time>2024-04-19T12:33:38Z</time>
      </trkpt>
      <trkpt lat="42.86765665" lon="13.68161894">
        <ele>99.000000</ele>
        <time>2024-04-19T12:33:39Z</time>
      </trkpt>
      <trkpt lat="42.86752950" lon="13.68169647">
        <ele>98.000000</ele>
        <time>2024-04-19T12:33:40Z</time>
      </trkpt>
      <trkpt lat="42.86740637" lon="13.68177987">
        <ele>97.000000</ele>
        <time>2024-04-19T12:33:41Z</time>
      </trkpt>
      <trkpt lat="42.86728743" lon="13.68186813">
        <ele>96.000000</ele>
        <time>2024-04-19T12:33:42Z</time>
      </trkpt>
      <trkpt lat="42.86717050" lon="13.68195430">
        <ele>96.000000</ele>
        <time>2024-04-19T12:33:43Z</time>
      </trkpt>
      <trkpt lat="42.86705399" lon="13.68203837">
        <ele>97.000000</ele>
        <time>2024-04-19T12:33:44Z</time>
      </trkpt>
      <trkpt lat="42.86693749" lon="13.68212755">
        <ele>97.000000</ele>
        <time>2024-04-19T12:33:45Z</time>
      </trkpt>
      <trkpt lat="42.86682290" lon="13.68221724">
        <ele>97.000000</ele>
        <time>2024-04-19T12:33:46Z</time>
      </trkpt>
      <trkpt lat="42.86670950" lon="13.68230366">
        <ele>98.000000</ele>
        <time>2024-04-19T12:33:47Z</time>
      </trkpt>
      <trkpt lat="42.86659928" lon="13.68239183">
        <ele>98.000000</ele>
        <time>2024-04-19T12:33:48Z</time>
      </trkpt>
      <trkpt lat="42.86648930" lon="13.68248697">
        <ele>97.000000</ele>
        <time>2024-04-19T12:33:49Z</time>
      </trkpt>
      <trkpt lat="42.86638210" lon="13.68258780">
        <ele>97.000000</ele>
        <time>2024-04-19T12:33:50Z</time>
      </trkpt>
      <trkpt lat="42.86628127" lon="13.68269467">
        <ele>97.000000</ele>
        <time>2024-04-19T12:33:51Z</time>
      </trkpt>
      <trkpt lat="42.86619057" lon="13.68280967">
        <ele>97.000000</ele>
        <time>2024-04-19T12:33:52Z</time>
      </trkpt>
      <trkpt lat="42.86610516" lon="13.68293037">
        <ele>97.000000</ele>
        <time>2024-04-19T12:33:53Z</time>
      </trkpt>
      <trkpt lat="42.86602268" lon="13.68305090">
        <ele>97.000000</ele>
        <time>2024-04-19T12:33:54Z</time>
      </trkpt>
      <trkpt lat="42.86594121" lon="13.68317001">
        <ele>98.000000</ele>
        <time>2024-04-19T12:33:55Z</time>
      </trkpt>
      <trkpt lat="42.86585756" lon="13.68328426">
        <ele>98.000000</ele>
        <time>2024-04-19T12:33:56Z</time>
      </trkpt>
      <trkpt lat="42.86577156" lon="13.68338878">
        <ele>98.000000</ele>
        <time>2024-04-19T12:33:57Z</time>
      </trkpt>
      <trkpt lat="42.86568012" lon="13.68348483">
        <ele>97.000000</ele>
        <time>2024-04-19T12:33:58Z</time>
      </trkpt>
      <trkpt lat="42.86558414" lon="13.68357553">
        <ele>96.000000</ele>
        <time>2024-04-19T12:33:59Z</time>
      </trkpt>
      <trkpt lat="42.86548649" lon="13.68366437">
        <ele>96.000000</ele>
        <time>2024-04-19T12:34:00Z</time>
      </trkpt>
      <trkpt lat="42.86538717" lon="13.68375264">
        <ele>96.000000</ele>
        <time>2024-04-19T12:34:01Z</time>
      </trkpt>
      <trkpt lat="42.86529019" lon="13.68384894">
        <ele>97.000000</ele>
        <time>2024-04-19T12:34:02Z</time>
      </trkpt>
      <trkpt lat="42.86520159" lon="13.68395900">
        <ele>99.000000</ele>
        <time>2024-04-19T12:34:03Z</time>
      </trkpt>
      <trkpt lat="42.86512624" lon="13.68408607">
        <ele>100.00000</ele>
        <time>2024-04-19T12:34:04Z</time>
      </trkpt>
      <trkpt lat="42.86506212" lon="13.68422630">
        <ele>100.00000</ele>
        <time>2024-04-19T12:34:05Z</time>
      </trkpt>
      <trkpt lat="42.86500730" lon="13.68437374">
        <ele>98.000000</ele>
        <time>2024-04-19T12:34:06Z</time>
      </trkpt>
      <trkpt lat="42.86496045" lon="13.68452729">
        <ele>97.000000</ele>
        <time>2024-04-19T12:34:07Z</time>
      </trkpt>
      <trkpt lat="42.86491594" lon="13.68468596">
        <ele>95.000000</ele>
        <time>2024-04-19T12:34:08Z</time>
      </trkpt>
      <trkpt lat="42.86486908" lon="13.68484706">
        <ele>95.000000</ele>
        <time>2024-04-19T12:34:09Z</time>
      </trkpt>
      <trkpt lat="42.86481418" lon="13.68500296">
        <ele>94.000000</ele>
        <time>2024-04-19T12:34:10Z</time>
      </trkpt>
      <trkpt lat="42.86474738" lon="13.68514671">
        <ele>95.000000</ele>
        <time>2024-04-19T12:34:11Z</time>
      </trkpt>
      <trkpt lat="42.86467060" lon="13.68527839">
        <ele>95.000000</ele>
        <time>2024-04-19T12:34:12Z</time>
      </trkpt>
      <trkpt lat="42.86459038" lon="13.68540069">
        <ele>96.000000</ele>
        <time>2024-04-19T12:34:13Z</time>
      </trkpt>
      <trkpt lat="42.86450673" lon="13.68551669">
        <ele>96.000000</ele>
        <time>2024-04-19T12:34:14Z</time>
      </trkpt>
      <trkpt lat="42.86442015" lon="13.68562792">
        <ele>95.000000</ele>
        <time>2024-04-19T12:34:15Z</time>
      </trkpt>
      <trkpt lat="42.86433164" lon="13.68573781">
        <ele>95.000000</ele>
        <time>2024-04-19T12:34:16Z</time>
      </trkpt>
      <trkpt lat="42.86424396" lon="13.68584426">
        <ele>95.000000</ele>
        <time>2024-04-19T12:34:17Z</time>
      </trkpt>
      <trkpt lat="42.86415955" lon="13.68594836">
        <ele>95.000000</ele>
        <time>2024-04-19T12:34:18Z</time>
      </trkpt>
      <trkpt lat="42.86407532" lon="13.68605380">
        <ele>96.000000</ele>
        <time>2024-04-19T12:34:19Z</time>
      </trkpt>
      <trkpt lat="42.86399275" lon="13.68615749">
        <ele>96.000000</ele>
        <time>2024-04-19T12:34:20Z</time>
      </trkpt>
      <trkpt lat="42.86390994" lon="13.68626008">
        <ele>96.000000</ele>
        <time>2024-04-19T12:34:21Z</time>
      </trkpt>
      <trkpt lat="42.86382487" lon="13.68636276">
        <ele>96.000000</ele>
        <time>2024-04-19T12:34:22Z</time>
      </trkpt>
      <trkpt lat="42.86374147" lon="13.68646435">
        <ele>96.000000</ele>
        <time>2024-04-19T12:34:23Z</time>
      </trkpt>
      <trkpt lat="42.86365890" lon="13.68656803">
        <ele>96.000000</ele>
        <time>2024-04-19T12:34:24Z</time>
      </trkpt>
      <trkpt lat="42.86357525" lon="13.68667582">
        <ele>95.000000</ele>
        <time>2024-04-19T12:34:25Z</time>
      </trkpt>
      <trkpt lat="42.86348959" lon="13.68678370">
        <ele>95.000000</ele>
        <time>2024-04-19T12:34:26Z</time>
      </trkpt>
      <trkpt lat="42.86340468" lon="13.68688856">
        <ele>95.000000</ele>
        <time>2024-04-19T12:34:27Z</time>
      </trkpt>
      <trkpt lat="42.86331784" lon="13.68699870">
        <ele>95.000000</ele>
        <time>2024-04-19T12:34:28Z</time>
      </trkpt>
      <trkpt lat="42.86322816" lon="13.68711143">
        <ele>96.000000</ele>
        <time>2024-04-19T12:34:29Z</time>
      </trkpt>
      <trkpt lat="42.86313663" lon="13.68722425">
        <ele>96.000000</ele>
        <time>2024-04-19T12:34:30Z</time>
      </trkpt>
      <trkpt lat="42.86304426" lon="13.68733422">
        <ele>96.000000</ele>
        <time>2024-04-19T12:34:31Z</time>
      </trkpt>
      <trkpt lat="42.86295323" lon="13.68744336">
        <ele>96.000000</ele>
        <time>2024-04-19T12:34:32Z</time>
      </trkpt>
      <trkpt lat="42.86286304" lon="13.68755458">
        <ele>95.000000</ele>
        <time>2024-04-19T12:34:33Z</time>
      </trkpt>
      <trkpt lat="42.86277243" lon="13.68766590">
        <ele>94.000000</ele>
        <time>2024-04-19T12:34:34Z</time>
      </trkpt>
      <trkpt lat="42.86268291" lon="13.68777779">
        <ele>93.000000</ele>
        <time>2024-04-19T12:34:35Z</time>
      </trkpt>
      <trkpt lat="42.86259440" lon="13.68788617">
        <ele>92.000000</ele>
        <time>2024-04-19T12:34:36Z</time>
      </trkpt>
      <trkpt lat="42.86250572" lon="13.68799556">
        <ele>91.000000</ele>
        <time>2024-04-19T12:34:37Z</time>
      </trkpt>
      <trkpt lat="42.86241847" lon="13.68810955">
        <ele>90.000000</ele>
        <time>2024-04-19T12:34:38Z</time>
      </trkpt>
      <trkpt lat="42.86233490" lon="13.68822757">
        <ele>90.000000</ele>
        <time>2024-04-19T12:34:39Z</time>
      </trkpt>
      <trkpt lat="42.86225770" lon="13.68835514">
        <ele>90.000000</ele>
        <time>2024-04-19T12:34:40Z</time>
      </trkpt>
      <trkpt lat="42.86219006" lon="13.68849126">
        <ele>89.000000</ele>
        <time>2024-04-19T12:34:41Z</time>
      </trkpt>
      <trkpt lat="42.86212954" lon="13.68863350">
        <ele>89.000000</ele>
        <time>2024-04-19T12:34:42Z</time>
      </trkpt>
      <trkpt lat="42.86207372" lon="13.68878086">
        <ele>88.000000</ele>
        <time>2024-04-19T12:34:43Z</time>
      </trkpt>
      <trkpt lat="42.86202452" lon="13.68893341">
        <ele>88.000000</ele>
        <time>2024-04-19T12:34:44Z</time>
      </trkpt>
      <trkpt lat="42.86198110" lon="13.68908671">
        <ele>87.000000</ele>
        <time>2024-04-19T12:34:45Z</time>
      </trkpt>
      <trkpt lat="42.86194816" lon="13.68920875">
        <ele>86.000000</ele>
        <time>2024-04-19T12:34:46Z</time>
      </trkpt>
      <trkpt lat="42.86190683" lon="13.68936239">
        <ele>86.000000</ele>
        <time>2024-04-19T12:34:47Z</time>
      </trkpt>
      <trkpt lat="42.86185286" lon="13.68954864">
        <ele>86.000000</ele>
        <time>2024-04-19T12:34:48Z</time>
      </trkpt>
      <trkpt lat="42.86180290" lon="13.68970295">
        <ele>87.000000</ele>
        <time>2024-04-19T12:34:49Z</time>
      </trkpt>
      <trkpt lat="42.86175286" lon="13.68985734">
        <ele>88.000000</ele>
        <time>2024-04-19T12:34:50Z</time>
      </trkpt>
      <trkpt lat="42.86170123" lon="13.69001191">
        <ele>90.000000</ele>
        <time>2024-04-19T12:34:51Z</time>
      </trkpt>
      <trkpt lat="42.86164750" lon="13.69016177">
        <ele>90.000000</ele>
        <time>2024-04-19T12:34:52Z</time>
      </trkpt>
      <trkpt lat="42.86158706" lon="13.69030477">
        <ele>90.000000</ele>
        <time>2024-04-19T12:34:53Z</time>
      </trkpt>
      <trkpt lat="42.86151934" lon="13.69044165">
        <ele>90.000000</ele>
        <time>2024-04-19T12:34:54Z</time>
      </trkpt>
      <trkpt lat="42.86144541" lon="13.69056997">
        <ele>89.000000</ele>
        <time>2024-04-19T12:34:55Z</time>
      </trkpt>
      <trkpt lat="42.86136310" lon="13.69068983">
        <ele>88.000000</ele>
        <time>2024-04-19T12:34:56Z</time>
      </trkpt>
      <trkpt lat="42.86127727" lon="13.69080517">
        <ele>88.000000</ele>
        <time>2024-04-19T12:34:57Z</time>
      </trkpt>
      <trkpt lat="42.86119035" lon="13.69091774">
        <ele>88.000000</ele>
        <time>2024-04-19T12:34:58Z</time>
      </trkpt>
      <trkpt lat="42.86110276" lon="13.69103148">
        <ele>88.000000</ele>
        <time>2024-04-19T12:34:59Z</time>
      </trkpt>
      <trkpt lat="42.86101827" lon="13.69114673">
        <ele>88.000000</ele>
        <time>2024-04-19T12:35:00Z</time>
      </trkpt>
      <trkpt lat="42.86094015" lon="13.69126978">
        <ele>89.000000</ele>
        <time>2024-04-19T12:35:01Z</time>
      </trkpt>
      <trkpt lat="42.86087075" lon="13.69139852">
        <ele>90.000000</ele>
        <time>2024-04-19T12:35:02Z</time>
      </trkpt>
      <trkpt lat="42.86080721" lon="13.69153792">
        <ele>91.000000</ele>
        <time>2024-04-19T12:35:03Z</time>
      </trkpt>
      <trkpt lat="42.86075357" lon="13.69168418">
        <ele>90.000000</ele>
        <time>2024-04-19T12:35:04Z</time>
      </trkpt>
      <trkpt lat="42.86071132" lon="13.69183480">
        <ele>90.000000</ele>
        <time>2024-04-19T12:35:05Z</time>
      </trkpt>
      <trkpt lat="42.86067805" lon="13.69198878">
        <ele>89.000000</ele>
        <time>2024-04-19T12:35:06Z</time>
      </trkpt>
      <trkpt lat="42.86064829" lon="13.69214493">
        <ele>87.000000</ele>
        <time>2024-04-19T12:35:07Z</time>
      </trkpt>
      <trkpt lat="42.86061845" lon="13.69229799">
        <ele>86.000000</ele>
        <time>2024-04-19T12:35:08Z</time>
      </trkpt>
      <trkpt lat="42.86057822" lon="13.69244668">
        <ele>84.000000</ele>
        <time>2024-04-19T12:35:09Z</time>
      </trkpt>
      <trkpt lat="42.86052139" lon="13.69258406">
        <ele>82.000000</ele>
        <time>2024-04-19T12:35:10Z</time>
      </trkpt>
      <trkpt lat="42.86044889" lon="13.69270761">
        <ele>80.000000</ele>
        <time>2024-04-19T12:35:11Z</time>
      </trkpt>
      <trkpt lat="42.86035987" lon="13.69280987">
        <ele>79.000000</ele>
        <time>2024-04-19T12:35:12Z</time>
      </trkpt>
      <trkpt lat="42.86025602" lon="13.69289092">
        <ele>79.000000</ele>
        <time>2024-04-19T12:35:13Z</time>
      </trkpt>
      <trkpt lat="42.86014370" lon="13.69295605">
        <ele>79.000000</ele>
        <time>2024-04-19T12:35:14Z</time>
      </trkpt>
      <trkpt lat="42.86002677" lon="13.69301221">
        <ele>79.000000</ele>
        <time>2024-04-19T12:35:15Z</time>
      </trkpt>
      <trkpt lat="42.85990716" lon="13.69306359">
        <ele>78.000000</ele>
        <time>2024-04-19T12:35:17Z</time>
      </trkpt>
      <trkpt lat="42.85978714" lon="13.69311246">
        <ele>78.000000</ele>
        <time>2024-04-19T12:35:18Z</time>
      </trkpt>
      <trkpt lat="42.85966761" lon="13.69316367">
        <ele>78.000000</ele>
        <time>2024-04-19T12:35:19Z</time>
      </trkpt>
      <trkpt lat="42.85954800" lon="13.69321446">
        <ele>78.000000</ele>
        <time>2024-04-19T12:35:20Z</time>
      </trkpt>
      <trkpt lat="42.85942856" lon="13.69326450">
        <ele>78.000000</ele>
        <time>2024-04-19T12:35:21Z</time>
      </trkpt>
      <trkpt lat="42.85933367" lon="13.69330289">
        <ele>78.000000</ele>
        <time>2024-04-19T12:35:22Z</time>
      </trkpt>
      <trkpt lat="42.85919269" lon="13.69335813">
        <ele>78.000000</ele>
        <time>2024-04-19T12:35:23Z</time>
      </trkpt>
      <trkpt lat="42.85907476" lon="13.69339803">
        <ele>79.000000</ele>
        <time>2024-04-19T12:35:24Z</time>
      </trkpt>
      <trkpt lat="42.85895733" lon="13.69343642">
        <ele>81.000000</ele>
        <time>2024-04-19T12:35:25Z</time>
      </trkpt>
      <trkpt lat="42.85883990" lon="13.69347481">
        <ele>82.000000</ele>
        <time>2024-04-19T12:35:26Z</time>
      </trkpt>
      <trkpt lat="42.85872347" lon="13.69351185">
        <ele>82.000000</ele>
        <time>2024-04-19T12:35:27Z</time>
      </trkpt>
      <trkpt lat="42.85863110" lon="13.69353918">
        <ele>83.000000</ele>
        <time>2024-04-19T12:35:28Z</time>
      </trkpt>
      <trkpt lat="42.85849481" lon="13.69357916">
        <ele>83.000000</ele>
        <time>2024-04-19T12:35:29Z</time>
      </trkpt>
      <trkpt lat="42.85838526" lon="13.69361227">
        <ele>83.000000</ele>
        <time>2024-04-19T12:35:30Z</time>
      </trkpt>
      <trkpt lat="42.85827797" lon="13.69364404">
        <ele>82.000000</ele>
        <time>2024-04-19T12:35:31Z</time>
      </trkpt>
      <trkpt lat="42.85819390" lon="13.69366818">
        <ele>82.000000</ele>
        <time>2024-04-19T12:35:32Z</time>
      </trkpt>
      <trkpt lat="42.85809240" lon="13.69369634">
        <ele>82.000000</ele>
        <time>2024-04-19T12:35:33Z</time>
      </trkpt>
      <trkpt lat="42.85797178" lon="13.69373087">
        <ele>82.000000</ele>
        <time>2024-04-19T12:35:34Z</time>
      </trkpt>
      <trkpt lat="42.85787480" lon="13.69376306">
        <ele>82.000000</ele>
        <time>2024-04-19T12:35:35Z</time>
      </trkpt>
      <trkpt lat="42.85778017" lon="13.69379173">
        <ele>82.000000</ele>
        <time>2024-04-19T12:35:36Z</time>
      </trkpt>
      <trkpt lat="42.85769116" lon="13.69381444">
        <ele>82.000000</ele>
        <time>2024-04-19T12:35:37Z</time>
      </trkpt>
      <trkpt lat="42.85761388" lon="13.69383397">
        <ele>82.000000</ele>
        <time>2024-04-19T12:35:38Z</time>
      </trkpt>
      <trkpt lat="42.85756350" lon="13.69384570">
        <ele>82.000000</ele>
        <time>2024-04-19T12:35:39Z</time>
      </trkpt>
      <trkpt lat="42.85750483" lon="13.69385912">
        <ele>82.000000</ele>
        <time>2024-04-19T12:35:40Z</time>
      </trkpt>
      <trkpt lat="42.85746954" lon="13.69387923">
        <ele>82.000000</ele>
        <time>2024-04-19T12:35:41Z</time>
      </trkpt>
      <trkpt lat="42.85744934" lon="13.69391242">
        <ele>82.000000</ele>
        <time>2024-04-19T12:35:42Z</time>
      </trkpt>
      <trkpt lat="42.85743484" lon="13.69396791">
        <ele>82.000000</ele>
        <time>2024-04-19T12:35:43Z</time>
      </trkpt>
      <trkpt lat="42.85743735" lon="13.69403061">
        <ele>82.000000</ele>
        <time>2024-04-19T12:35:44Z</time>
      </trkpt>
      <trkpt lat="42.85745873" lon="13.69411166">
        <ele>81.000000</ele>
        <time>2024-04-19T12:35:45Z</time>
      </trkpt>
      <trkpt lat="42.85748345" lon="13.69418266">
        <ele>81.000000</ele>
        <time>2024-04-19T12:35:46Z</time>
      </trkpt>
      <trkpt lat="42.85750290" lon="13.69424091">
        <ele>81.000000</ele>
        <time>2024-04-19T12:35:47Z</time>
      </trkpt>
      <trkpt lat="42.85752704" lon="13.69431476">
        <ele>81.000000</ele>
        <time>2024-04-19T12:35:48Z</time>
      </trkpt>
      <trkpt lat="42.85754942" lon="13.69439246">
        <ele>81.000000</ele>
        <time>2024-04-19T12:35:49Z</time>
      </trkpt>
      <trkpt lat="42.85757473" lon="13.69447477">
        <ele>81.000000</ele>
        <time>2024-04-19T12:35:50Z</time>
      </trkpt>
      <trkpt lat="42.85760826" lon="13.69457577">
        <ele>81.000000</ele>
        <time>2024-04-19T12:35:51Z</time>
      </trkpt>
      <trkpt lat="42.85763039" lon="13.69464006">
        <ele>81.000000</ele>
        <time>2024-04-19T12:35:52Z</time>
      </trkpt>
      <trkpt lat="42.85765813" lon="13.69471969">
        <ele>81.000000</ele>
        <time>2024-04-19T12:35:53Z</time>
      </trkpt>
      <trkpt lat="42.85768437" lon="13.69480066">
        <ele>82.000000</ele>
        <time>2024-04-19T12:35:54Z</time>
      </trkpt>
      <trkpt lat="42.85771706" lon="13.69490057">
        <ele>82.000000</ele>
        <time>2024-04-19T12:35:55Z</time>
      </trkpt>
      <trkpt lat="42.85774614" lon="13.69498522">
        <ele>82.000000</ele>
        <time>2024-04-19T12:35:56Z</time>
      </trkpt>
      <trkpt lat="42.85777539" lon="13.69507080">
        <ele>81.000000</ele>
        <time>2024-04-19T12:35:57Z</time>
      </trkpt>
      <trkpt lat="42.85783155" lon="13.69522646">
        <ele>80.000000</ele>
        <time>2024-04-19T12:35:59Z</time>
      </trkpt>
      <trkpt lat="42.85786022" lon="13.69531522">
        <ele>80.000000</ele>
        <time>2024-04-19T12:36:00Z</time>
      </trkpt>
      <trkpt lat="42.85789182" lon="13.69540533">
        <ele>78.000000</ele>
        <time>2024-04-19T12:36:01Z</time>
      </trkpt>
      <trkpt lat="42.85792627" lon="13.69550096">
        <ele>77.000000</ele>
        <time>2024-04-19T12:36:02Z</time>
      </trkpt>
      <trkpt lat="42.85796231" lon="13.69560188">
        <ele>77.000000</ele>
        <time>2024-04-19T12:36:03Z</time>
      </trkpt>
      <trkpt lat="42.85799860" lon="13.69570942">
        <ele>76.000000</ele>
        <time>2024-04-19T12:36:04Z</time>
      </trkpt>
      <trkpt lat="42.85803875" lon="13.69582308">
        <ele>75.000000</ele>
        <time>2024-04-19T12:36:05Z</time>
      </trkpt>
      <trkpt lat="42.85808117" lon="13.69594034">
        <ele>74.000000</ele>
        <time>2024-04-19T12:36:06Z</time>
      </trkpt>
      <trkpt lat="42.85812333" lon="13.69606113">
        <ele>73.000000</ele>
        <time>2024-04-19T12:36:07Z</time>
      </trkpt>
      <trkpt lat="42.85816616" lon="13.69618576">
        <ele>71.000000</ele>
        <time>2024-04-19T12:36:08Z</time>
      </trkpt>
      <trkpt lat="42.85820765" lon="13.69631376">
        <ele>70.000000</ele>
        <time>2024-04-19T12:36:09Z</time>
      </trkpt>
      <trkpt lat="42.85824369" lon="13.69644368">
        <ele>69.000000</ele>
        <time>2024-04-19T12:36:10Z</time>
      </trkpt>
      <trkpt lat="42.85827973" lon="13.69660293">
        <ele>68.000000</ele>
        <time>2024-04-19T12:36:11Z</time>
      </trkpt>
      <trkpt lat="42.85830320" lon="13.69670745">
        <ele>67.000000</ele>
        <time>2024-04-19T12:36:12Z</time>
      </trkpt>
      <trkpt lat="42.85833631" lon="13.69683410">
        <ele>68.000000</ele>
        <time>2024-04-19T12:36:13Z</time>
      </trkpt>
      <trkpt lat="42.85837110" lon="13.69695514">
        <ele>68.000000</ele>
        <time>2024-04-19T12:36:14Z</time>
      </trkpt>
      <trkpt lat="42.85840337" lon="13.69707047">
        <ele>69.000000</ele>
        <time>2024-04-19T12:36:15Z</time>
      </trkpt>
      <trkpt lat="42.85843438" lon="13.69717944">
        <ele>70.000000</ele>
        <time>2024-04-19T12:36:16Z</time>
      </trkpt>
      <trkpt lat="42.85845777" lon="13.69727893">
        <ele>71.000000</ele>
        <time>2024-04-19T12:36:17Z</time>
      </trkpt>
      <trkpt lat="42.85847973" lon="13.69737273">
        <ele>71.000000</ele>
        <time>2024-04-19T12:36:18Z</time>
      </trkpt>
      <trkpt lat="42.85850244" lon="13.69746501">
        <ele>70.000000</ele>
        <time>2024-04-19T12:36:19Z</time>
      </trkpt>
      <trkpt lat="42.85852164" lon="13.69755864">
        <ele>70.000000</ele>
        <time>2024-04-19T12:36:20Z</time>
      </trkpt>
      <trkpt lat="42.85852960" lon="13.69765293">
        <ele>70.000000</ele>
        <time>2024-04-19T12:36:21Z</time>
      </trkpt>
      <trkpt lat="42.85852692" lon="13.69775259">
        <ele>69.000000</ele>
        <time>2024-04-19T12:36:22Z</time>
      </trkpt>
      <trkpt lat="42.85852189" lon="13.69780020">
        <ele>69.000000</ele>
        <time>2024-04-19T12:36:23Z</time>
      </trkpt>
      <trkpt lat="42.85851518" lon="13.69785376">
        <ele>68.000000</ele>
        <time>2024-04-19T12:36:24Z</time>
      </trkpt>
      <trkpt lat="42.85850470" lon="13.69790984">
        <ele>68.000000</ele>
        <time>2024-04-19T12:36:25Z</time>
      </trkpt>
      <trkpt lat="42.85849113" lon="13.69797614">
        <ele>68.000000</ele>
        <time>2024-04-19T12:36:26Z</time>
      </trkpt>
      <trkpt lat="42.85847109" lon="13.69806163">
        <ele>67.000000</ele>
        <time>2024-04-19T12:36:27Z</time>
      </trkpt>
      <trkpt lat="42.85845316" lon="13.69812232">
        <ele>67.000000</ele>
        <time>2024-04-19T12:36:28Z</time>
      </trkpt>
      <trkpt lat="42.85842197" lon="13.69821175">
        <ele>66.000000</ele>
        <time>2024-04-19T12:36:29Z</time>
      </trkpt>
      <trkpt lat="42.85839431" lon="13.69827185">
        <ele>66.000000</ele>
        <time>2024-04-19T12:36:30Z</time>
      </trkpt>
      <trkpt lat="42.85835475" lon="13.69834729">
        <ele>66.000000</ele>
        <time>2024-04-19T12:36:31Z</time>
      </trkpt>
      <trkpt lat="42.85830019" lon="13.69843387">
        <ele>65.000000</ele>
        <time>2024-04-19T12:36:32Z</time>
      </trkpt>
      <trkpt lat="42.85825165" lon="13.69850520">
        <ele>64.000000</ele>
        <time>2024-04-19T12:36:33Z</time>
      </trkpt>
      <trkpt lat="42.85821251" lon="13.69856195">
        <ele>64.000000</ele>
        <time>2024-04-19T12:36:34Z</time>
      </trkpt>
      <trkpt lat="42.85815401" lon="13.69864736">
        <ele>63.000000</ele>
        <time>2024-04-19T12:36:35Z</time>
      </trkpt>
      <trkpt lat="42.85811411" lon="13.69870545">
        <ele>63.000000</ele>
        <time>2024-04-19T12:36:36Z</time>
      </trkpt>
      <trkpt lat="42.85805317" lon="13.69879430">
        <ele>64.000000</ele>
        <time>2024-04-19T12:36:37Z</time>
      </trkpt>
      <trkpt lat="42.85800204" lon="13.69886747">
        <ele>64.000000</ele>
        <time>2024-04-19T12:36:38Z</time>
      </trkpt>
      <trkpt lat="42.85795963" lon="13.69892505">
        <ele>65.000000</ele>
        <time>2024-04-19T12:36:39Z</time>
      </trkpt>
      <trkpt lat="42.85790330" lon="13.69899353">
        <ele>66.000000</ele>
        <time>2024-04-19T12:36:40Z</time>
      </trkpt>
      <trkpt lat="42.85784354" lon="13.69905665">
        <ele>66.000000</ele>
        <time>2024-04-19T12:36:41Z</time>
      </trkpt>
      <trkpt lat="42.85777112" lon="13.69912756">
        <ele>67.000000</ele>
        <time>2024-04-19T12:36:42Z</time>
      </trkpt>
      <trkpt lat="42.85771152" lon="13.69918900">
        <ele>67.000000</ele>
        <time>2024-04-19T12:36:43Z</time>
      </trkpt>
      <trkpt lat="42.85765260" lon="13.69925019">
        <ele>67.000000</ele>
        <time>2024-04-19T12:36:44Z</time>
      </trkpt>
      <trkpt lat="42.85759602" lon="13.69931263">
        <ele>67.000000</ele>
        <time>2024-04-19T12:36:45Z</time>
      </trkpt>
      <trkpt lat="42.85754179" lon="13.69938321">
        <ele>67.000000</ele>
        <time>2024-04-19T12:36:46Z</time>
      </trkpt>
      <trkpt lat="42.85743207" lon="13.69952654">
        <ele>65.000000</ele>
        <time>2024-04-19T12:36:48Z</time>
      </trkpt>
      <trkpt lat="42.85737273" lon="13.69959410">
        <ele>65.000000</ele>
        <time>2024-04-19T12:36:49Z</time>
      </trkpt>
      <trkpt lat="42.85732311" lon="13.69964732">
        <ele>64.000000</ele>
        <time>2024-04-19T12:36:50Z</time>
      </trkpt>
      <trkpt lat="42.85724440" lon="13.69972712">
        <ele>63.000000</ele>
        <time>2024-04-19T12:36:51Z</time>
      </trkpt>
      <trkpt lat="42.85717751" lon="13.69979241">
        <ele>62.000000</ele>
        <time>2024-04-19T12:36:52Z</time>
      </trkpt>
      <trkpt lat="42.85710928" lon="13.69985695">
        <ele>62.000000</ele>
        <time>2024-04-19T12:36:53Z</time>
      </trkpt>
      <trkpt lat="42.85703904" lon="13.69992149">
        <ele>62.000000</ele>
        <time>2024-04-19T12:36:54Z</time>
      </trkpt>
      <trkpt lat="42.85698121" lon="13.69997212">
        <ele>62.000000</ele>
        <time>2024-04-19T12:36:55Z</time>
      </trkpt>
      <trkpt lat="42.85690359" lon="13.70004136">
        <ele>62.000000</ele>
        <time>2024-04-19T12:36:56Z</time>
      </trkpt>
      <trkpt lat="42.85681030" lon="13.70013448">
        <ele>62.000000</ele>
        <time>2024-04-19T12:36:57Z</time>
      </trkpt>
      <trkpt lat="42.85673252" lon="13.70021645">
        <ele>62.000000</ele>
        <time>2024-04-19T12:36:58Z</time>
      </trkpt>
      <trkpt lat="42.85664820" lon="13.70029851">
        <ele>61.000000</ele>
        <time>2024-04-19T12:36:59Z</time>
      </trkpt>
      <trkpt lat="42.85657796" lon="13.70036146">
        <ele>61.000000</ele>
        <time>2024-04-19T12:37:00Z</time>
      </trkpt>
      <trkpt lat="42.85647310" lon="13.70044712">
        <ele>60.000000</ele>
        <time>2024-04-19T12:37:01Z</time>
      </trkpt>
      <trkpt lat="42.85640445" lon="13.70049993">
        <ele>60.000000</ele>
        <time>2024-04-19T12:37:02Z</time>
      </trkpt>
      <trkpt lat="42.85630756" lon="13.70057855">
        <ele>59.000000</ele>
        <time>2024-04-19T12:37:03Z</time>
      </trkpt>
      <trkpt lat="42.85623111" lon="13.70063991">
        <ele>59.000000</ele>
        <time>2024-04-19T12:37:04Z</time>
      </trkpt>
      <trkpt lat="42.85617051" lon="13.70068576">
        <ele>59.000000</ele>
        <time>2024-04-19T12:37:05Z</time>
      </trkpt>
      <trkpt lat="42.85609491" lon="13.70073982">
        <ele>60.000000</ele>
        <time>2024-04-19T12:37:06Z</time>
      </trkpt>
      <trkpt lat="42.85601964" lon="13.70079397">
        <ele>60.000000</ele>
        <time>2024-04-19T12:37:07Z</time>
      </trkpt>
      <trkpt lat="42.85593079" lon="13.70085767">
        <ele>60.000000</ele>
        <time>2024-04-19T12:37:08Z</time>
      </trkpt>
      <trkpt lat="42.85585560" lon="13.70090721">
        <ele>60.000000</ele>
        <time>2024-04-19T12:37:09Z</time>
      </trkpt>
      <trkpt lat="42.85577866" lon="13.70095205">
        <ele>60.000000</ele>
        <time>2024-04-19T12:37:10Z</time>
      </trkpt>
      <trkpt lat="42.85570180" lon="13.70099371">
        <ele>60.000000</ele>
        <time>2024-04-19T12:37:11Z</time>
      </trkpt>
      <trkpt lat="42.85562485" lon="13.70103369">
        <ele>60.000000</ele>
        <time>2024-04-19T12:37:12Z</time>
      </trkpt>
      <trkpt lat="42.85554782" lon="13.70107241">
        <ele>60.000000</ele>
        <time>2024-04-19T12:37:13Z</time>
      </trkpt>
      <trkpt lat="42.85546995" lon="13.70110779">
        <ele>60.000000</ele>
        <time>2024-04-19T12:37:14Z</time>
      </trkpt>
      <trkpt lat="42.85539183" lon="13.70113997">
        <ele>60.000000</ele>
        <time>2024-04-19T12:37:15Z</time>
      </trkpt>
      <trkpt lat="42.85531313" lon="13.70116797">
        <ele>60.000000</ele>
        <time>2024-04-19T12:37:16Z</time>
      </trkpt>
      <trkpt lat="42.85523140" lon="13.70119127">
        <ele>60.000000</ele>
        <time>2024-04-19T12:37:17Z</time>
      </trkpt>
      <trkpt lat="42.85514800" lon="13.70121130">
        <ele>60.000000</ele>
        <time>2024-04-19T12:37:18Z</time>
      </trkpt>
      <trkpt lat="42.85506561" lon="13.70123016">
        <ele>60.000000</ele>
        <time>2024-04-19T12:37:19Z</time>
      </trkpt>
      <trkpt lat="42.85498137" lon="13.70124827">
        <ele>59.000000</ele>
        <time>2024-04-19T12:37:20Z</time>
      </trkpt>
      <trkpt lat="42.85489730" lon="13.70126578">
        <ele>59.000000</ele>
        <time>2024-04-19T12:37:21Z</time>
      </trkpt>
      <trkpt lat="42.85481382" lon="13.70128406">
        <ele>58.000000</ele>
        <time>2024-04-19T12:37:22Z</time>
      </trkpt>
      <trkpt lat="42.85472916" lon="13.70129722">
        <ele>58.000000</ele>
        <time>2024-04-19T12:37:23Z</time>
      </trkpt>
      <trkpt lat="42.85464467" lon="13.70130568">
        <ele>58.000000</ele>
        <time>2024-04-19T12:37:24Z</time>
      </trkpt>
      <trkpt lat="42.85455926" lon="13.70131867">
        <ele>58.000000</ele>
        <time>2024-04-19T12:37:25Z</time>
      </trkpt>
      <trkpt lat="42.85449304" lon="13.70133594">
        <ele>58.000000</ele>
        <time>2024-04-19T12:37:26Z</time>
      </trkpt>
      <trkpt lat="42.85439313" lon="13.70136712">
        <ele>58.000000</ele>
        <time>2024-04-19T12:37:27Z</time>
      </trkpt>
      <trkpt lat="42.85430990" lon="13.70139260">
        <ele>58.000000</ele>
        <time>2024-04-19T12:37:28Z</time>
      </trkpt>
      <trkpt lat="42.85422599" lon="13.70141775">
        <ele>58.000000</ele>
        <time>2024-04-19T12:37:29Z</time>
      </trkpt>
      <trkpt lat="42.85414301" lon="13.70144382">
        <ele>58.000000</ele>
        <time>2024-04-19T12:37:30Z</time>
      </trkpt>
      <trkpt lat="42.85406087" lon="13.70146930">
        <ele>58.000000</ele>
        <time>2024-04-19T12:37:31Z</time>
      </trkpt>
      <trkpt lat="42.85399532" lon="13.70148983">
        <ele>58.000000</ele>
        <time>2024-04-19T12:37:32Z</time>
      </trkpt>
      <trkpt lat="42.85389826" lon="13.70150886">
        <ele>58.000000</ele>
        <time>2024-04-19T12:37:33Z</time>
      </trkpt>
      <trkpt lat="42.85381763" lon="13.70150777">
        <ele>59.000000</ele>
        <time>2024-04-19T12:37:34Z</time>
      </trkpt>
      <trkpt lat="42.85374102" lon="13.70148866">
        <ele>59.000000</ele>
        <time>2024-04-19T12:37:35Z</time>
      </trkpt>
      <trkpt lat="42.85366793" lon="13.70145890">
        <ele>59.000000</ele>
        <time>2024-04-19T12:37:36Z</time>
      </trkpt>
      <trkpt lat="42.85354865" lon="13.70138749">
        <ele>58.000000</ele>
        <time>2024-04-19T12:37:38Z</time>
      </trkpt>
      <trkpt lat="42.85348612" lon="13.70132102">
        <ele>58.000000</ele>
        <time>2024-04-19T12:37:39Z</time>
      </trkpt>
      <trkpt lat="42.85345469" lon="13.70124768">
        <ele>58.000000</ele>
        <time>2024-04-19T12:37:40Z</time>
      </trkpt>
      <trkpt lat="42.85343776" lon="13.70115816">
        <ele>58.000000</ele>
        <time>2024-04-19T12:37:41Z</time>
      </trkpt>
      <trkpt lat="42.85343172" lon="13.70107887">
        <ele>58.000000</ele>
        <time>2024-04-19T12:37:42Z</time>
      </trkpt>
      <trkpt lat="42.85342619" lon="13.70097627">
        <ele>58.000000</ele>
        <time>2024-04-19T12:37:43Z</time>
      </trkpt>
      <trkpt lat="42.85341563" lon="13.70085063">
        <ele>58.000000</ele>
        <time>2024-04-19T12:37:44Z</time>
      </trkpt>
      <trkpt lat="42.85340272" lon="13.70074426">
        <ele>58.000000</ele>
        <time>2024-04-19T12:37:45Z</time>
      </trkpt>
      <trkpt lat="42.85338998" lon="13.70063622">
        <ele>58.000000</ele>
        <time>2024-04-19T12:37:46Z</time>
      </trkpt>
      <trkpt lat="42.85337992" lon="13.70052784">
        <ele>57.000000</ele>
        <time>2024-04-19T12:37:47Z</time>
      </trkpt>
      <trkpt lat="42.85336802" lon="13.70041829">
        <ele>57.000000</ele>
        <time>2024-04-19T12:37:48Z</time>
      </trkpt>
      <trkpt lat="42.85335293" lon="13.70030715">
        <ele>57.000000</ele>
        <time>2024-04-19T12:37:49Z</time>
      </trkpt>
      <trkpt lat="42.85333684" lon="13.70019558">
        <ele>57.000000</ele>
        <time>2024-04-19T12:37:50Z</time>
      </trkpt>
      <trkpt lat="42.85332108" lon="13.70008067">
        <ele>57.000000</ele>
        <time>2024-04-19T12:37:51Z</time>
      </trkpt>
      <trkpt lat="42.85330491" lon="13.69996433">
        <ele>57.000000</ele>
        <time>2024-04-19T12:37:52Z</time>
      </trkpt>
      <trkpt lat="42.85328714" lon="13.69984765">
        <ele>57.000000</ele>
        <time>2024-04-19T12:37:53Z</time>
      </trkpt>
      <trkpt lat="42.85326970" lon="13.69972938">
        <ele>57.000000</ele>
        <time>2024-04-19T12:37:54Z</time>
      </trkpt>
      <trkpt lat="42.85325394" lon="13.69961011">
        <ele>57.000000</ele>
        <time>2024-04-19T12:37:55Z</time>
      </trkpt>
      <trkpt lat="42.85324120" lon="13.69949100">
        <ele>57.000000</ele>
        <time>2024-04-19T12:37:56Z</time>
      </trkpt>
      <trkpt lat="42.85322838" lon="13.69937122">
        <ele>57.000000</ele>
        <time>2024-04-19T12:37:57Z</time>
      </trkpt>
      <trkpt lat="42.85321488" lon="13.69925052">
        <ele>57.000000</ele>
        <time>2024-04-19T12:37:58Z</time>
      </trkpt>
      <trkpt lat="42.85320047" lon="13.69912999">
        <ele>58.000000</ele>
        <time>2024-04-19T12:37:59Z</time>
      </trkpt>
      <trkpt lat="42.85318412" lon="13.69900787">
        <ele>58.000000</ele>
        <time>2024-04-19T12:38:00Z</time>
      </trkpt>
      <trkpt lat="42.85316786" lon="13.69888457">
        <ele>58.000000</ele>
        <time>2024-04-19T12:38:01Z</time>
      </trkpt>
      <trkpt lat="42.85315034" lon="13.69875817">
        <ele>58.000000</ele>
        <time>2024-04-19T12:38:02Z</time>
      </trkpt>
      <trkpt lat="42.85313702" lon="13.69865574">
        <ele>58.000000</ele>
        <time>2024-04-19T12:38:03Z</time>
      </trkpt>
      <trkpt lat="42.85311900" lon="13.69852859">
        <ele>59.000000</ele>
        <time>2024-04-19T12:38:04Z</time>
      </trkpt>
      <trkpt lat="42.85309821" lon="13.69837897">
        <ele>59.000000</ele>
        <time>2024-04-19T12:38:05Z</time>
      </trkpt>
      <trkpt lat="42.85308153" lon="13.69825450">
        <ele>59.000000</ele>
        <time>2024-04-19T12:38:06Z</time>
      </trkpt>
      <trkpt lat="42.85306493" lon="13.69813011">
        <ele>59.000000</ele>
        <time>2024-04-19T12:38:07Z</time>
      </trkpt>
      <trkpt lat="42.85304859" lon="13.69800740">
        <ele>60.000000</ele>
        <time>2024-04-19T12:38:08Z</time>
      </trkpt>
      <trkpt lat="42.85303224" lon="13.69788645">
        <ele>60.000000</ele>
        <time>2024-04-19T12:38:09Z</time>
      </trkpt>
      <trkpt lat="42.85301464" lon="13.69776408">
        <ele>60.000000</ele>
        <time>2024-04-19T12:38:10Z</time>
      </trkpt>
      <trkpt lat="42.85299746" lon="13.69764044">
        <ele>60.000000</ele>
        <time>2024-04-19T12:38:11Z</time>
      </trkpt>
      <trkpt lat="42.85298204" lon="13.69751639">
        <ele>60.000000</ele>
        <time>2024-04-19T12:38:12Z</time>
      </trkpt>
      <trkpt lat="42.85296712" lon="13.69739251">
        <ele>60.000000</ele>
        <time>2024-04-19T12:38:13Z</time>
      </trkpt>
      <trkpt lat="42.85295136" lon="13.69727072">
        <ele>60.000000</ele>
        <time>2024-04-19T12:38:14Z</time>
      </trkpt>
      <trkpt lat="42.85293292" lon="13.69715069">
        <ele>60.000000</ele>
        <time>2024-04-19T12:38:15Z</time>
      </trkpt>
      <trkpt lat="42.85291590" lon="13.69703443">
        <ele>60.000000</ele>
        <time>2024-04-19T12:38:16Z</time>
      </trkpt>
      <trkpt lat="42.85290408" lon="13.69691994">
        <ele>60.000000</ele>
        <time>2024-04-19T12:38:17Z</time>
      </trkpt>
      <trkpt lat="42.85289428" lon="13.69680946">
        <ele>60.000000</ele>
        <time>2024-04-19T12:38:18Z</time>
      </trkpt>
      <trkpt lat="42.85287969" lon="13.69670234">
        <ele>60.000000</ele>
        <time>2024-04-19T12:38:19Z</time>
      </trkpt>
      <trkpt lat="42.85286502" lon="13.69659740">
        <ele>60.000000</ele>
        <time>2024-04-19T12:38:20Z</time>
      </trkpt>
      <trkpt lat="42.85284910" lon="13.69649497">
        <ele>60.000000</ele>
        <time>2024-04-19T12:38:21Z</time>
      </trkpt>
      <trkpt lat="42.85283518" lon="13.69639422">
        <ele>60.000000</ele>
        <time>2024-04-19T12:38:22Z</time>
      </trkpt>
      <trkpt lat="42.85282119" lon="13.69629339">
        <ele>60.000000</ele>
        <time>2024-04-19T12:38:23Z</time>
      </trkpt>
      <trkpt lat="42.85280954" lon="13.69621217">
        <ele>60.000000</ele>
        <time>2024-04-19T12:38:24Z</time>
      </trkpt>
      <trkpt lat="42.85279353" lon="13.69609197">
        <ele>60.000000</ele>
        <time>2024-04-19T12:38:25Z</time>
      </trkpt>
      <trkpt lat="42.85277970" lon="13.69599055">
        <ele>60.000000</ele>
        <time>2024-04-19T12:38:26Z</time>
      </trkpt>
      <trkpt lat="42.85276704" lon="13.69588946">
        <ele>59.000000</ele>
        <time>2024-04-19T12:38:27Z</time>
      </trkpt>
      <trkpt lat="42.85275539" lon="13.69578829">
        <ele>60.000000</ele>
        <time>2024-04-19T12:38:28Z</time>
      </trkpt>
      <trkpt lat="42.85274072" lon="13.69568277">
        <ele>60.000000</ele>
        <time>2024-04-19T12:38:29Z</time>
      </trkpt>
      <trkpt lat="42.85272513" lon="13.69557690">
        <ele>61.000000</ele>
        <time>2024-04-19T12:38:30Z</time>
      </trkpt>
      <trkpt lat="42.85270937" lon="13.69547272">
        <ele>61.000000</ele>
        <time>2024-04-19T12:38:31Z</time>
      </trkpt>
      <trkpt lat="42.85269512" lon="13.69536886">
        <ele>61.000000</ele>
        <time>2024-04-19T12:38:32Z</time>
      </trkpt>
      <trkpt lat="42.85268163" lon="13.69526359">
        <ele>61.000000</ele>
        <time>2024-04-19T12:38:33Z</time>
      </trkpt>
      <trkpt lat="42.85266763" lon="13.69515865">
        <ele>61.000000</ele>
        <time>2024-04-19T12:38:34Z</time>
      </trkpt>
      <trkpt lat="42.85265455" lon="13.69505538">
        <ele>61.000000</ele>
        <time>2024-04-19T12:38:35Z</time>
      </trkpt>
      <trkpt lat="42.85264148" lon="13.69495220">
        <ele>62.000000</ele>
        <time>2024-04-19T12:38:36Z</time>
      </trkpt>
      <trkpt lat="42.85262765" lon="13.69484751">
        <ele>61.000000</ele>
        <time>2024-04-19T12:38:37Z</time>
      </trkpt>
      <trkpt lat="42.85261516" lon="13.69474844">
        <ele>61.000000</ele>
        <time>2024-04-19T12:38:38Z</time>
      </trkpt>
      <trkpt lat="42.85260175" lon="13.69464358">
        <ele>61.000000</ele>
        <time>2024-04-19T12:38:39Z</time>
      </trkpt>
      <trkpt lat="42.85259094" lon="13.69454124">
        <ele>61.000000</ele>
        <time>2024-04-19T12:38:40Z</time>
      </trkpt>
      <trkpt lat="42.85257677" lon="13.69443805">
        <ele>61.000000</ele>
        <time>2024-04-19T12:38:41Z</time>
      </trkpt>
      <trkpt lat="42.85256311" lon="13.69433546">
        <ele>61.000000</ele>
        <time>2024-04-19T12:38:42Z</time>
      </trkpt>
      <trkpt lat="42.85255037" lon="13.69423454">
        <ele>61.000000</ele>
        <time>2024-04-19T12:38:43Z</time>
      </trkpt>
      <trkpt lat="42.85253830" lon="13.69413346">
        <ele>61.000000</ele>
        <time>2024-04-19T12:38:44Z</time>
      </trkpt>
      <trkpt lat="42.85252388" lon="13.69403044">
        <ele>61.000000</ele>
        <time>2024-04-19T12:38:45Z</time>
      </trkpt>
      <trkpt lat="42.85250863" lon="13.69392734">
        <ele>61.000000</ele>
        <time>2024-04-19T12:38:46Z</time>
      </trkpt>
      <trkpt lat="42.85249463" lon="13.69382567">
        <ele>60.000000</ele>
        <time>2024-04-19T12:38:47Z</time>
      </trkpt>
      <trkpt lat="42.85248197" lon="13.69372534">
        <ele>60.000000</ele>
        <time>2024-04-19T12:38:48Z</time>
      </trkpt>
      <trkpt lat="42.85247107" lon="13.69362727">
        <ele>60.000000</ele>
        <time>2024-04-19T12:38:49Z</time>
      </trkpt>
      <trkpt lat="42.85245900" lon="13.69353080">
        <ele>60.000000</ele>
        <time>2024-04-19T12:38:50Z</time>
      </trkpt>
      <trkpt lat="42.85244685" lon="13.69343558">
        <ele>60.000000</ele>
        <time>2024-04-19T12:38:51Z</time>
      </trkpt>
      <trkpt lat="42.85243654" lon="13.69334162">
        <ele>60.000000</ele>
        <time>2024-04-19T12:38:52Z</time>
      </trkpt>
      <trkpt lat="42.85242824" lon="13.69325084">
        <ele>60.000000</ele>
        <time>2024-04-19T12:38:53Z</time>
      </trkpt>
      <trkpt lat="42.85241877" lon="13.69316250">
        <ele>60.000000</ele>
        <time>2024-04-19T12:38:54Z</time>
      </trkpt>
      <trkpt lat="42.85240788" lon="13.69307423">
        <ele>60.000000</ele>
        <time>2024-04-19T12:38:55Z</time>
      </trkpt>
      <trkpt lat="42.85239455" lon="13.69298723">
        <ele>60.000000</ele>
        <time>2024-04-19T12:38:56Z</time>
      </trkpt>
      <trkpt lat="42.85238315" lon="13.69290232">
        <ele>60.000000</ele>
        <time>2024-04-19T12:38:57Z</time>
      </trkpt>
      <trkpt lat="42.85237058" lon="13.69281708">
        <ele>60.000000</ele>
        <time>2024-04-19T12:38:58Z</time>
      </trkpt>
      <trkpt lat="42.85235976" lon="13.69273024">
        <ele>61.000000</ele>
        <time>2024-04-19T12:38:59Z</time>
      </trkpt>
      <trkpt lat="42.85234845" lon="13.69264441">
        <ele>61.000000</ele>
        <time>2024-04-19T12:39:00Z</time>
      </trkpt>
      <trkpt lat="42.85233789" lon="13.69256009">
        <ele>61.000000</ele>
        <time>2024-04-19T12:39:01Z</time>
      </trkpt>
      <trkpt lat="42.85232691" lon="13.69247694">
        <ele>61.000000</ele>
        <time>2024-04-19T12:39:02Z</time>
      </trkpt>
      <trkpt lat="42.85231450" lon="13.69239128">
        <ele>61.000000</ele>
        <time>2024-04-19T12:39:03Z</time>
      </trkpt>
      <trkpt lat="42.85230335" lon="13.69230293">
        <ele>61.000000</ele>
        <time>2024-04-19T12:39:04Z</time>
      </trkpt>
      <trkpt lat="42.85229371" lon="13.69221459">
        <ele>61.000000</ele>
        <time>2024-04-19T12:39:05Z</time>
      </trkpt>
      <trkpt lat="42.85228357" lon="13.69212582">
        <ele>61.000000</ele>
        <time>2024-04-19T12:39:06Z</time>
      </trkpt>
      <trkpt lat="42.85227083" lon="13.69203731">
        <ele>61.000000</ele>
        <time>2024-04-19T12:39:07Z</time>
      </trkpt>
      <trkpt lat="42.85225675" lon="13.69194662">
        <ele>61.000000</ele>
        <time>2024-04-19T12:39:08Z</time>
      </trkpt>
      <trkpt lat="42.85224501" lon="13.69185266">
        <ele>61.000000</ele>
        <time>2024-04-19T12:39:09Z</time>
      </trkpt>
      <trkpt lat="42.85223311" lon="13.69175802">
        <ele>61.000000</ele>
        <time>2024-04-19T12:39:10Z</time>
      </trkpt>
      <trkpt lat="42.85221987" lon="13.69166348">
        <ele>62.000000</ele>
        <time>2024-04-19T12:39:11Z</time>
      </trkpt>
      <trkpt lat="42.85220679" lon="13.69156918">
        <ele>62.000000</ele>
        <time>2024-04-19T12:39:12Z</time>
      </trkpt>
      <trkpt lat="42.85219338" lon="13.69147438">
        <ele>63.000000</ele>
        <time>2024-04-19T12:39:13Z</time>
      </trkpt>
      <trkpt lat="42.85218525" lon="13.69138428">
        <ele>64.000000</ele>
        <time>2024-04-19T12:39:14Z</time>
      </trkpt>
      <trkpt lat="42.85217318" lon="13.69128780">
        <ele>64.000000</ele>
        <time>2024-04-19T12:39:15Z</time>
      </trkpt>
      <trkpt lat="42.85216078" lon="13.69119233">
        <ele>64.000000</ele>
        <time>2024-04-19T12:39:16Z</time>
      </trkpt>
      <trkpt lat="42.85214569" lon="13.69109795">
        <ele>65.000000</ele>
        <time>2024-04-19T12:39:17Z</time>
      </trkpt>
      <trkpt lat="42.85213362" lon="13.69100432">
        <ele>65.000000</ele>
        <time>2024-04-19T12:39:18Z</time>
      </trkpt>
      <trkpt lat="42.85212046" lon="13.69090978">
        <ele>65.000000</ele>
        <time>2024-04-19T12:39:19Z</time>
      </trkpt>
      <trkpt lat="42.85210655" lon="13.69081623">
        <ele>64.000000</ele>
        <time>2024-04-19T12:39:20Z</time>
      </trkpt>
      <trkpt lat="42.85209322" lon="13.69072521">
        <ele>64.000000</ele>
        <time>2024-04-19T12:39:21Z</time>
      </trkpt>
      <trkpt lat="42.85208199" lon="13.69063887">
        <ele>64.000000</ele>
        <time>2024-04-19T12:39:22Z</time>
      </trkpt>
      <trkpt lat="42.85206925" lon="13.69054751">
        <ele>63.000000</ele>
        <time>2024-04-19T12:39:23Z</time>
      </trkpt>
      <trkpt lat="42.85205592" lon="13.69045254">
        <ele>63.000000</ele>
        <time>2024-04-19T12:39:24Z</time>
      </trkpt>
      <trkpt lat="42.85204309" lon="13.69035598">
        <ele>63.000000</ele>
        <time>2024-04-19T12:39:25Z</time>
      </trkpt>
      <trkpt lat="42.85203144" lon="13.69025850">
        <ele>62.000000</ele>
        <time>2024-04-19T12:39:26Z</time>
      </trkpt>
      <trkpt lat="42.85201963" lon="13.69016278">
        <ele>62.000000</ele>
        <time>2024-04-19T12:39:27Z</time>
      </trkpt>
      <trkpt lat="42.85200663" lon="13.69006731">
        <ele>62.000000</ele>
        <time>2024-04-19T12:39:28Z</time>
      </trkpt>
      <trkpt lat="42.85199356" lon="13.68997243">
        <ele>62.000000</ele>
        <time>2024-04-19T12:39:29Z</time>
      </trkpt>
      <trkpt lat="42.85198199" lon="13.68987721">
        <ele>62.000000</ele>
        <time>2024-04-19T12:39:30Z</time>
      </trkpt>
      <trkpt lat="42.85197051" lon="13.68978182">
        <ele>62.000000</ele>
        <time>2024-04-19T12:39:31Z</time>
      </trkpt>
      <trkpt lat="42.85195768" lon="13.68968593">
        <ele>62.000000</ele>
        <time>2024-04-19T12:39:32Z</time>
      </trkpt>
      <trkpt lat="42.85194637" lon="13.68959105">
        <ele>62.000000</ele>
        <time>2024-04-19T12:39:33Z</time>
      </trkpt>
      <trkpt lat="42.85193421" lon="13.68949843">
        <ele>62.000000</ele>
        <time>2024-04-19T12:39:34Z</time>
      </trkpt>
      <trkpt lat="42.85192348" lon="13.68940715">
        <ele>62.000000</ele>
        <time>2024-04-19T12:39:35Z</time>
      </trkpt>
      <trkpt lat="42.85191167" lon="13.68931244">
        <ele>62.000000</ele>
        <time>2024-04-19T12:39:36Z</time>
      </trkpt>
      <trkpt lat="42.85189733" lon="13.68921722">
        <ele>62.000000</ele>
        <time>2024-04-19T12:39:37Z</time>
      </trkpt>
      <trkpt lat="42.85188501" lon="13.68912200">
        <ele>62.000000</ele>
        <time>2024-04-19T12:39:38Z</time>
      </trkpt>
      <trkpt lat="42.85187294" lon="13.68902653">
        <ele>62.000000</ele>
        <time>2024-04-19T12:39:39Z</time>
      </trkpt>
      <trkpt lat="42.85185903" lon="13.68893022">
        <ele>62.000000</ele>
        <time>2024-04-19T12:39:40Z</time>
      </trkpt>
      <trkpt lat="42.85184511" lon="13.68883324">
        <ele>62.000000</ele>
        <time>2024-04-19T12:39:41Z</time>
      </trkpt>
      <trkpt lat="42.85182894" lon="13.68871866">
        <ele>62.000000</ele>
        <time>2024-04-19T12:39:42Z</time>
      </trkpt>
      <trkpt lat="42.85181854" lon="13.68864222">
        <ele>62.000000</ele>
        <time>2024-04-19T12:39:43Z</time>
      </trkpt>
      <trkpt lat="42.85180723" lon="13.68854641">
        <ele>62.000000</ele>
        <time>2024-04-19T12:39:44Z</time>
      </trkpt>
      <trkpt lat="42.85179600" lon="13.68845094">
        <ele>62.000000</ele>
        <time>2024-04-19T12:39:45Z</time>
      </trkpt>
      <trkpt lat="42.85178426" lon="13.68835464">
        <ele>62.000000</ele>
        <time>2024-04-19T12:39:46Z</time>
      </trkpt>
      <trkpt lat="42.85177160" lon="13.68825615">
        <ele>63.000000</ele>
        <time>2024-04-19T12:39:47Z</time>
      </trkpt>
      <trkpt lat="42.85175828" lon="13.68815607">
        <ele>63.000000</ele>
        <time>2024-04-19T12:39:48Z</time>
      </trkpt>
      <trkpt lat="42.85174495" lon="13.68805423">
        <ele>63.000000</ele>
        <time>2024-04-19T12:39:49Z</time>
      </trkpt>
      <trkpt lat="42.85173263" lon="13.68795381">
        <ele>63.000000</ele>
        <time>2024-04-19T12:39:50Z</time>
      </trkpt>
      <trkpt lat="42.85171796" lon="13.68785273">
        <ele>63.000000</ele>
        <time>2024-04-19T12:39:51Z</time>
      </trkpt>
      <trkpt lat="42.85170329" lon="13.68775173">
        <ele>63.000000</ele>
        <time>2024-04-19T12:39:52Z</time>
      </trkpt>
      <trkpt lat="42.85168779" lon="13.68765039">
        <ele>63.000000</ele>
        <time>2024-04-19T12:39:53Z</time>
      </trkpt>
      <trkpt lat="42.85167555" lon="13.68755157">
        <ele>63.000000</ele>
        <time>2024-04-19T12:39:54Z</time>
      </trkpt>
      <trkpt lat="42.85166398" lon="13.68744906">
        <ele>63.000000</ele>
        <time>2024-04-19T12:39:55Z</time>
      </trkpt>
      <trkpt lat="42.85165233" lon="13.68734596">
        <ele>63.000000</ele>
        <time>2024-04-19T12:39:56Z</time>
      </trkpt>
      <trkpt lat="42.85163858" lon="13.68724420">
        <ele>63.000000</ele>
        <time>2024-04-19T12:39:57Z</time>
      </trkpt>
      <trkpt lat="42.85162450" lon="13.68714370">
        <ele>63.000000</ele>
        <time>2024-04-19T12:39:58Z</time>
      </trkpt>
      <trkpt lat="42.85161025" lon="13.68704253">
        <ele>64.000000</ele>
        <time>2024-04-19T12:39:59Z</time>
      </trkpt>
      <trkpt lat="42.85159634" lon="13.68694296">
        <ele>65.000000</ele>
        <time>2024-04-19T12:40:00Z</time>
      </trkpt>
      <trkpt lat="42.85158301" lon="13.68684187">
        <ele>65.000000</ele>
        <time>2024-04-19T12:40:01Z</time>
      </trkpt>
      <trkpt lat="42.85156792" lon="13.68673969">
        <ele>66.000000</ele>
        <time>2024-04-19T12:40:02Z</time>
      </trkpt>
      <trkpt lat="42.85155351" lon="13.68663920">
        <ele>67.000000</ele>
        <time>2024-04-19T12:40:03Z</time>
      </trkpt>
      <trkpt lat="42.85153985" lon="13.68653736">
        <ele>67.000000</ele>
        <time>2024-04-19T12:40:04Z</time>
      </trkpt>
      <trkpt lat="42.85152752" lon="13.68643200">
        <ele>67.000000</ele>
        <time>2024-04-19T12:40:05Z</time>
      </trkpt>
      <trkpt lat="42.85151453" lon="13.68632764">
        <ele>67.000000</ele>
        <time>2024-04-19T12:40:06Z</time>
      </trkpt>
      <trkpt lat="42.85149986" lon="13.68622597">
        <ele>67.000000</ele>
        <time>2024-04-19T12:40:07Z</time>
      </trkpt>
      <trkpt lat="42.85148981" lon="13.68612430">
        <ele>66.000000</ele>
        <time>2024-04-19T12:40:08Z</time>
      </trkpt>
      <trkpt lat="42.85147891" lon="13.68602413">
        <ele>66.000000</ele>
        <time>2024-04-19T12:40:09Z</time>
      </trkpt>
      <trkpt lat="42.85146282" lon="13.68590268">
        <ele>65.000000</ele>
        <time>2024-04-19T12:40:10Z</time>
      </trkpt>
      <trkpt lat="42.85144999" lon="13.68581970">
        <ele>65.000000</ele>
        <time>2024-04-19T12:40:11Z</time>
      </trkpt>
      <trkpt lat="42.85143591" lon="13.68571543">
        <ele>64.000000</ele>
        <time>2024-04-19T12:40:12Z</time>
      </trkpt>
      <trkpt lat="42.85142342" lon="13.68561082">
        <ele>63.000000</ele>
        <time>2024-04-19T12:40:13Z</time>
      </trkpt>
      <trkpt lat="42.85141076" lon="13.68550663">
        <ele>63.000000</ele>
        <time>2024-04-19T12:40:14Z</time>
      </trkpt>
      <trkpt lat="42.85139861" lon="13.68540328">
        <ele>63.000000</ele>
        <time>2024-04-19T12:40:15Z</time>
      </trkpt>
      <trkpt lat="42.85138545" lon="13.68530027">
        <ele>63.000000</ele>
        <time>2024-04-19T12:40:16Z</time>
      </trkpt>
      <trkpt lat="42.85137187" lon="13.68519650">
        <ele>63.000000</ele>
        <time>2024-04-19T12:40:17Z</time>
      </trkpt>
      <trkpt lat="42.85135846" lon="13.68509408">
        <ele>63.000000</ele>
        <time>2024-04-19T12:40:18Z</time>
      </trkpt>
      <trkpt lat="42.85134413" lon="13.68499333">
        <ele>63.000000</ele>
        <time>2024-04-19T12:40:19Z</time>
      </trkpt>
      <trkpt lat="42.85133063" lon="13.68488964">
        <ele>63.000000</ele>
        <time>2024-04-19T12:40:20Z</time>
      </trkpt>
      <trkpt lat="42.85131680" lon="13.68478671">
        <ele>63.000000</ele>
        <time>2024-04-19T12:40:21Z</time>
      </trkpt>
      <trkpt lat="42.85130130" lon="13.68468345">
        <ele>63.000000</ele>
        <time>2024-04-19T12:40:22Z</time>
      </trkpt>
      <trkpt lat="42.85128613" lon="13.68457884">
        <ele>63.000000</ele>
        <time>2024-04-19T12:40:23Z</time>
      </trkpt>
      <trkpt lat="42.85127221" lon="13.68447625">
        <ele>63.000000</ele>
        <time>2024-04-19T12:40:24Z</time>
      </trkpt>
      <trkpt lat="42.85125779" lon="13.68437323">
        <ele>63.000000</ele>
        <time>2024-04-19T12:40:25Z</time>
      </trkpt>
      <trkpt lat="42.85124463" lon="13.68427047">
        <ele>64.000000</ele>
        <time>2024-04-19T12:40:26Z</time>
      </trkpt>
      <trkpt lat="42.85122921" lon="13.68416536">
        <ele>64.000000</ele>
        <time>2024-04-19T12:40:27Z</time>
      </trkpt>
      <trkpt lat="42.85121538" lon="13.68406075">
        <ele>64.000000</ele>
        <time>2024-04-19T12:40:28Z</time>
      </trkpt>
      <trkpt lat="42.85120314" lon="13.68395648">
        <ele>64.000000</ele>
        <time>2024-04-19T12:40:29Z</time>
      </trkpt>
      <trkpt lat="42.85118965" lon="13.68385280">
        <ele>65.000000</ele>
        <time>2024-04-19T12:40:30Z</time>
      </trkpt>
      <trkpt lat="42.85117691" lon="13.68374794">
        <ele>65.000000</ele>
        <time>2024-04-19T12:40:31Z</time>
      </trkpt>
      <trkpt lat="42.85116434" lon="13.68364350">
        <ele>65.000000</ele>
        <time>2024-04-19T12:40:32Z</time>
      </trkpt>
      <trkpt lat="42.85115143" lon="13.68353781">
        <ele>65.000000</ele>
        <time>2024-04-19T12:40:33Z</time>
      </trkpt>
      <trkpt lat="42.85113735" lon="13.68343144">
        <ele>65.000000</ele>
        <time>2024-04-19T12:40:34Z</time>
      </trkpt>
      <trkpt lat="42.85112360" lon="13.68332399">
        <ele>66.000000</ele>
        <time>2024-04-19T12:40:35Z</time>
      </trkpt>
      <trkpt lat="42.85110851" lon="13.68321661">
        <ele>65.000000</ele>
        <time>2024-04-19T12:40:36Z</time>
      </trkpt>
      <trkpt lat="42.85109259" lon="13.68310974">
        <ele>65.000000</ele>
        <time>2024-04-19T12:40:37Z</time>
      </trkpt>
      <trkpt lat="42.85107700" lon="13.68300195">
        <ele>66.000000</ele>
        <time>2024-04-19T12:40:38Z</time>
      </trkpt>
      <trkpt lat="42.85106275" lon="13.68289567">
        <ele>66.000000</ele>
        <time>2024-04-19T12:40:39Z</time>
      </trkpt>
      <trkpt lat="42.85104967" lon="13.68278997">
        <ele>66.000000</ele>
        <time>2024-04-19T12:40:40Z</time>
      </trkpt>
      <trkpt lat="42.85103810" lon="13.68268327">
        <ele>66.000000</ele>
        <time>2024-04-19T12:40:41Z</time>
      </trkpt>
      <trkpt lat="42.85102679" lon="13.68257632">
        <ele>65.000000</ele>
        <time>2024-04-19T12:40:42Z</time>
      </trkpt>
      <trkpt lat="42.85101262" lon="13.68246610">
        <ele>65.000000</ele>
        <time>2024-04-19T12:40:43Z</time>
      </trkpt>
      <trkpt lat="42.85099670" lon="13.68235646">
        <ele>64.000000</ele>
        <time>2024-04-19T12:40:44Z</time>
      </trkpt>
      <trkpt lat="42.85098035" lon="13.68224674">
        <ele>64.000000</ele>
        <time>2024-04-19T12:40:45Z</time>
      </trkpt>
      <trkpt lat="42.85096510" lon="13.68213736">
        <ele>64.000000</ele>
        <time>2024-04-19T12:40:46Z</time>
      </trkpt>
      <trkpt lat="42.85095068" lon="13.68202714">
        <ele>64.000000</ele>
        <time>2024-04-19T12:40:47Z</time>
      </trkpt>
      <trkpt lat="42.85093685" lon="13.68191700">
        <ele>65.000000</ele>
        <time>2024-04-19T12:40:48Z</time>
      </trkpt>
      <trkpt lat="42.85092269" lon="13.68180770">
        <ele>65.000000</ele>
        <time>2024-04-19T12:40:49Z</time>
      </trkpt>
      <trkpt lat="42.85090877" lon="13.68169723">
        <ele>66.000000</ele>
        <time>2024-04-19T12:40:50Z</time>
      </trkpt>
      <trkpt lat="42.85089536" lon="13.68158843">
        <ele>66.000000</ele>
        <time>2024-04-19T12:40:51Z</time>
      </trkpt>
      <trkpt lat="42.85087985" lon="13.68147854">
        <ele>66.000000</ele>
        <time>2024-04-19T12:40:52Z</time>
      </trkpt>
      <trkpt lat="42.85086602" lon="13.68136866">
        <ele>67.000000</ele>
        <time>2024-04-19T12:40:53Z</time>
      </trkpt>
      <trkpt lat="42.85085069" lon="13.68125936">
        <ele>67.000000</ele>
        <time>2024-04-19T12:40:54Z</time>
      </trkpt>
      <trkpt lat="42.85083618" lon="13.68114955">
        <ele>67.000000</ele>
        <time>2024-04-19T12:40:55Z</time>
      </trkpt>
      <trkpt lat="42.85082210" lon="13.68104025">
        <ele>67.000000</ele>
        <time>2024-04-19T12:40:56Z</time>
      </trkpt>
      <trkpt lat="42.85080760" lon="13.68093271">
        <ele>67.000000</ele>
        <time>2024-04-19T12:40:57Z</time>
      </trkpt>
      <trkpt lat="42.85079277" lon="13.68082341">
        <ele>67.000000</ele>
        <time>2024-04-19T12:40:58Z</time>
      </trkpt>
      <trkpt lat="42.85077860" lon="13.68071478">
        <ele>67.000000</ele>
        <time>2024-04-19T12:40:59Z</time>
      </trkpt>
      <trkpt lat="42.85076410" lon="13.68060758">
        <ele>67.000000</ele>
        <time>2024-04-19T12:41:00Z</time>
      </trkpt>
      <trkpt lat="42.85074935" lon="13.68049803">
        <ele>68.000000</ele>
        <time>2024-04-19T12:41:01Z</time>
      </trkpt>
      <trkpt lat="42.85073434" lon="13.68038646">
        <ele>68.000000</ele>
        <time>2024-04-19T12:41:02Z</time>
      </trkpt>
      <trkpt lat="42.85072010" lon="13.68027641">
        <ele>69.000000</ele>
        <time>2024-04-19T12:41:03Z</time>
      </trkpt>
      <trkpt lat="42.85070626" lon="13.68016728">
        <ele>69.000000</ele>
        <time>2024-04-19T12:41:04Z</time>
      </trkpt>
      <trkpt lat="42.85069252" lon="13.68005814">
        <ele>69.000000</ele>
        <time>2024-04-19T12:41:05Z</time>
      </trkpt>
      <trkpt lat="42.85067919" lon="13.67994843">
        <ele>69.000000</ele>
        <time>2024-04-19T12:41:06Z</time>
      </trkpt>
      <trkpt lat="42.85066528" lon="13.67983946">
        <ele>69.000000</ele>
        <time>2024-04-19T12:41:07Z</time>
      </trkpt>
      <trkpt lat="42.85064969" lon="13.67972840">
        <ele>69.000000</ele>
        <time>2024-04-19T12:41:08Z</time>
      </trkpt>
      <trkpt lat="42.85063452" lon="13.67961826">
        <ele>69.000000</ele>
        <time>2024-04-19T12:41:09Z</time>
      </trkpt>
      <trkpt lat="42.85062110" lon="13.67950871">
        <ele>68.000000</ele>
        <time>2024-04-19T12:41:10Z</time>
      </trkpt>
      <trkpt lat="42.85060694" lon="13.67939857">
        <ele>68.000000</ele>
        <time>2024-04-19T12:41:11Z</time>
      </trkpt>
      <trkpt lat="42.85059043" lon="13.67928919">
        <ele>67.000000</ele>
        <time>2024-04-19T12:41:12Z</time>
      </trkpt>
      <trkpt lat="42.85057484" lon="13.67917989">
        <ele>66.000000</ele>
        <time>2024-04-19T12:41:13Z</time>
      </trkpt>
      <trkpt lat="42.85055992" lon="13.67906950">
        <ele>65.000000</ele>
        <time>2024-04-19T12:41:14Z</time>
      </trkpt>
      <trkpt lat="42.85054525" lon="13.67895836">
        <ele>64.000000</ele>
        <time>2024-04-19T12:41:15Z</time>
      </trkpt>
      <trkpt lat="42.85053041" lon="13.67884914">
        <ele>64.000000</ele>
        <time>2024-04-19T12:41:16Z</time>
      </trkpt>
      <trkpt lat="42.85051482" lon="13.67873925">
        <ele>65.000000</ele>
        <time>2024-04-19T12:41:17Z</time>
      </trkpt>
      <trkpt lat="42.85050066" lon="13.67863020">
        <ele>65.000000</ele>
        <time>2024-04-19T12:41:18Z</time>
      </trkpt>
      <trkpt lat="42.85048666" lon="13.67851973">
        <ele>66.000000</ele>
        <time>2024-04-19T12:41:19Z</time>
      </trkpt>
      <trkpt lat="42.85047300" lon="13.67841152">
        <ele>66.000000</ele>
        <time>2024-04-19T12:41:20Z</time>
      </trkpt>
      <trkpt lat="42.85045950" lon="13.67830289">
        <ele>67.000000</ele>
        <time>2024-04-19T12:41:21Z</time>
      </trkpt>
      <trkpt lat="42.85044550" lon="13.67819686">
        <ele>67.000000</ele>
        <time>2024-04-19T12:41:22Z</time>
      </trkpt>
      <trkpt lat="42.85043092" lon="13.67808940">
        <ele>67.000000</ele>
        <time>2024-04-19T12:41:23Z</time>
      </trkpt>
      <trkpt lat="42.85041642" lon="13.67798262">
        <ele>67.000000</ele>
        <time>2024-04-19T12:41:24Z</time>
      </trkpt>
      <trkpt lat="42.85040242" lon="13.67787659">
        <ele>67.000000</ele>
        <time>2024-04-19T12:41:25Z</time>
      </trkpt>
      <trkpt lat="42.85038767" lon="13.67776880">
        <ele>67.000000</ele>
        <time>2024-04-19T12:41:26Z</time>
      </trkpt>
      <trkpt lat="42.85037233" lon="13.67766008">
        <ele>67.000000</ele>
        <time>2024-04-19T12:41:27Z</time>
      </trkpt>
      <trkpt lat="42.85035389" lon="13.67753092">
        <ele>68.000000</ele>
        <time>2024-04-19T12:41:28Z</time>
      </trkpt>
      <trkpt lat="42.85033863" lon="13.67744358">
        <ele>68.000000</ele>
        <time>2024-04-19T12:41:29Z</time>
      </trkpt>
      <trkpt lat="42.85032254" lon="13.67733327">
        <ele>68.000000</ele>
        <time>2024-04-19T12:41:30Z</time>
      </trkpt>
      <trkpt lat="42.85030662" lon="13.67722431">
        <ele>69.000000</ele>
        <time>2024-04-19T12:41:31Z</time>
      </trkpt>
      <trkpt lat="42.85028876" lon="13.67711065">
        <ele>69.000000</ele>
        <time>2024-04-19T12:41:32Z</time>
      </trkpt>
      <trkpt lat="42.85027359" lon="13.67699741">
        <ele>70.000000</ele>
        <time>2024-04-19T12:41:33Z</time>
      </trkpt>
      <trkpt lat="42.85025909" lon="13.67688501">
        <ele>70.000000</ele>
        <time>2024-04-19T12:41:34Z</time>
      </trkpt>
      <trkpt lat="42.85024442" lon="13.67677303">
        <ele>70.000000</ele>
        <time>2024-04-19T12:41:35Z</time>
      </trkpt>
      <trkpt lat="42.85022959" lon="13.67666096">
        <ele>69.000000</ele>
        <time>2024-04-19T12:41:36Z</time>
      </trkpt>
      <trkpt lat="42.85021215" lon="13.67655183">
        <ele>69.000000</ele>
        <time>2024-04-19T12:41:37Z</time>
      </trkpt>
      <trkpt lat="42.85019782" lon="13.67643808">
        <ele>68.000000</ele>
        <time>2024-04-19T12:41:38Z</time>
      </trkpt>
      <trkpt lat="42.85018240" lon="13.67632443">
        <ele>68.000000</ele>
        <time>2024-04-19T12:41:39Z</time>
      </trkpt>
      <trkpt lat="42.85016672" lon="13.67621202">
        <ele>68.000000</ele>
        <time>2024-04-19T12:41:40Z</time>
      </trkpt>
      <trkpt lat="42.85015205" lon="13.67609761">
        <ele>67.000000</ele>
        <time>2024-04-19T12:41:41Z</time>
      </trkpt>
      <trkpt lat="42.85013764" lon="13.67598337">
        <ele>67.000000</ele>
        <time>2024-04-19T12:41:42Z</time>
      </trkpt>
      <trkpt lat="42.85012389" lon="13.67586862">
        <ele>67.000000</ele>
        <time>2024-04-19T12:41:43Z</time>
      </trkpt>
      <trkpt lat="42.85010998" lon="13.67575471">
        <ele>67.000000</ele>
        <time>2024-04-19T12:41:44Z</time>
      </trkpt>
      <trkpt lat="42.85009388" lon="13.67564231">
        <ele>67.000000</ele>
        <time>2024-04-19T12:41:45Z</time>
      </trkpt>
      <trkpt lat="42.85007796" lon="13.67553032">
        <ele>67.000000</ele>
        <time>2024-04-19T12:41:46Z</time>
      </trkpt>
      <trkpt lat="42.85006471" lon="13.67541901">
        <ele>67.000000</ele>
        <time>2024-04-19T12:41:47Z</time>
      </trkpt>
      <trkpt lat="42.85005164" lon="13.67530829">
        <ele>67.000000</ele>
        <time>2024-04-19T12:41:48Z</time>
      </trkpt>
      <trkpt lat="42.85003714" lon="13.67519848">
        <ele>68.000000</ele>
        <time>2024-04-19T12:41:49Z</time>
      </trkpt>
      <trkpt lat="42.85002289" lon="13.67508944">
        <ele>68.000000</ele>
        <time>2024-04-19T12:41:50Z</time>
      </trkpt>
      <trkpt lat="42.85000503" lon="13.67495675">
        <ele>68.000000</ele>
        <time>2024-04-19T12:41:51Z</time>
      </trkpt>
      <trkpt lat="42.84999389" lon="13.67486857">
        <ele>68.000000</ele>
        <time>2024-04-19T12:41:52Z</time>
      </trkpt>
      <trkpt lat="42.84997913" lon="13.67475726">
        <ele>68.000000</ele>
        <time>2024-04-19T12:41:53Z</time>
      </trkpt>
      <trkpt lat="42.84996673" lon="13.67464696">
        <ele>69.000000</ele>
        <time>2024-04-19T12:41:54Z</time>
      </trkpt>
      <trkpt lat="42.84995240" lon="13.67453313">
        <ele>69.000000</ele>
        <time>2024-04-19T12:41:55Z</time>
      </trkpt>
      <trkpt lat="42.84993773" lon="13.67441872">
        <ele>69.000000</ele>
        <time>2024-04-19T12:41:56Z</time>
      </trkpt>
      <trkpt lat="42.84992247" lon="13.67430330">
        <ele>69.000000</ele>
        <time>2024-04-19T12:41:57Z</time>
      </trkpt>
      <trkpt lat="42.84990387" lon="13.67418872">
        <ele>69.000000</ele>
        <time>2024-04-19T12:41:58Z</time>
      </trkpt>
      <trkpt lat="42.84988383" lon="13.67407439">
        <ele>68.000000</ele>
        <time>2024-04-19T12:41:59Z</time>
      </trkpt>
      <trkpt lat="42.84986849" lon="13.67396115">
        <ele>68.000000</ele>
        <time>2024-04-19T12:42:00Z</time>
      </trkpt>
      <trkpt lat="42.84985450" lon="13.67384674">
        <ele>68.000000</ele>
        <time>2024-04-19T12:42:01Z</time>
      </trkpt>
      <trkpt lat="42.84983857" lon="13.67373098">
        <ele>68.000000</ele>
        <time>2024-04-19T12:42:02Z</time>
      </trkpt>
      <trkpt lat="42.84982332" lon="13.67361422">
        <ele>68.000000</ele>
        <time>2024-04-19T12:42:03Z</time>
      </trkpt>
      <trkpt lat="42.84980772" lon="13.67349763">
        <ele>69.000000</ele>
        <time>2024-04-19T12:42:04Z</time>
      </trkpt>
      <trkpt lat="42.84979264" lon="13.67338171">
        <ele>69.000000</ele>
        <time>2024-04-19T12:42:05Z</time>
      </trkpt>
      <trkpt lat="42.84977839" lon="13.67326721">
        <ele>70.000000</ele>
        <time>2024-04-19T12:42:06Z</time>
      </trkpt>
      <trkpt lat="42.84976481" lon="13.67314970">
        <ele>70.000000</ele>
        <time>2024-04-19T12:42:07Z</time>
      </trkpt>
      <trkpt lat="42.84975165" lon="13.67303319">
        <ele>71.000000</ele>
        <time>2024-04-19T12:42:08Z</time>
      </trkpt>
      <trkpt lat="42.84973832" lon="13.67291869">
        <ele>71.000000</ele>
        <time>2024-04-19T12:42:09Z</time>
      </trkpt>
      <trkpt lat="42.84972843" lon="13.67280201">
        <ele>71.000000</ele>
        <time>2024-04-19T12:42:10Z</time>
      </trkpt>
      <trkpt lat="42.84972055" lon="13.67268542">
        <ele>72.000000</ele>
        <time>2024-04-19T12:42:11Z</time>
      </trkpt>
      <trkpt lat="42.84971217" lon="13.67257143">
        <ele>72.000000</ele>
        <time>2024-04-19T12:42:12Z</time>
      </trkpt>
      <trkpt lat="42.84970438" lon="13.67245743">
        <ele>71.000000</ele>
        <time>2024-04-19T12:42:13Z</time>
      </trkpt>
      <trkpt lat="42.84970027" lon="13.67231871">
        <ele>71.000000</ele>
        <time>2024-04-19T12:42:14Z</time>
      </trkpt>
      <trkpt lat="42.84970010" lon="13.67222710">
        <ele>71.000000</ele>
        <time>2024-04-19T12:42:15Z</time>
      </trkpt>
      <trkpt lat="42.84969708" lon="13.67211210">
        <ele>71.000000</ele>
        <time>2024-04-19T12:42:16Z</time>
      </trkpt>
      <trkpt lat="42.84969465" lon="13.67200121">
        <ele>71.000000</ele>
        <time>2024-04-19T12:42:17Z</time>
      </trkpt>
      <trkpt lat="42.84969398" lon="13.67189199">
        <ele>71.000000</ele>
        <time>2024-04-19T12:42:18Z</time>
      </trkpt>
      <trkpt lat="42.84969381" lon="13.67178118">
        <ele>71.000000</ele>
        <time>2024-04-19T12:42:19Z</time>
      </trkpt>
      <trkpt lat="42.84969583" lon="13.67167088">
        <ele>71.000000</ele>
        <time>2024-04-19T12:42:20Z</time>
      </trkpt>
      <trkpt lat="42.84969675" lon="13.67156384">
        <ele>72.000000</ele>
        <time>2024-04-19T12:42:21Z</time>
      </trkpt>
      <trkpt lat="42.84969834" lon="13.67145890">
        <ele>72.000000</ele>
        <time>2024-04-19T12:42:22Z</time>
      </trkpt>
      <trkpt lat="42.84970211" lon="13.67135572">
        <ele>73.000000</ele>
        <time>2024-04-19T12:42:23Z</time>
      </trkpt>
      <trkpt lat="42.84970706" lon="13.67125505">
        <ele>73.000000</ele>
        <time>2024-04-19T12:42:24Z</time>
      </trkpt>
      <trkpt lat="42.84971142" lon="13.67115757">
        <ele>74.000000</ele>
        <time>2024-04-19T12:42:25Z</time>
      </trkpt>
      <trkpt lat="42.84971443" lon="13.67106336">
        <ele>75.000000</ele>
        <time>2024-04-19T12:42:26Z</time>
      </trkpt>
      <trkpt lat="42.84971661" lon="13.67096998">
        <ele>75.000000</ele>
        <time>2024-04-19T12:42:27Z</time>
      </trkpt>
      <trkpt lat="42.84971971" lon="13.67087560">
        <ele>75.000000</ele>
        <time>2024-04-19T12:42:28Z</time>
      </trkpt>
      <trkpt lat="42.84972349" lon="13.67078432">
        <ele>76.000000</ele>
        <time>2024-04-19T12:42:29Z</time>
      </trkpt>
      <trkpt lat="42.84972902" lon="13.67069489">
        <ele>77.000000</ele>
        <time>2024-04-19T12:42:30Z</time>
      </trkpt>
      <trkpt lat="42.84973556" lon="13.67060621">
        <ele>77.000000</ele>
        <time>2024-04-19T12:42:31Z</time>
      </trkpt>
      <trkpt lat="42.84974193" lon="13.67051878">
        <ele>78.000000</ele>
        <time>2024-04-19T12:42:32Z</time>
      </trkpt>
      <trkpt lat="42.84974964" lon="13.67043421">
        <ele>78.000000</ele>
        <time>2024-04-19T12:42:33Z</time>
      </trkpt>
      <trkpt lat="42.84975224" lon="13.67034897">
        <ele>78.000000</ele>
        <time>2024-04-19T12:42:34Z</time>
      </trkpt>
      <trkpt lat="42.84975115" lon="13.67026330">
        <ele>78.000000</ele>
        <time>2024-04-19T12:42:35Z</time>
      </trkpt>
      <trkpt lat="42.84974939" lon="13.67017705">
        <ele>78.000000</ele>
        <time>2024-04-19T12:42:36Z</time>
      </trkpt>
      <trkpt lat="42.84974503" lon="13.67008871">
        <ele>78.000000</ele>
        <time>2024-04-19T12:42:37Z</time>
      </trkpt>
      <trkpt lat="42.84973992" lon="13.67000162">
        <ele>78.000000</ele>
        <time>2024-04-19T12:42:38Z</time>
      </trkpt>
      <trkpt lat="42.84973044" lon="13.66991562">
        <ele>78.000000</ele>
        <time>2024-04-19T12:42:39Z</time>
      </trkpt>
      <trkpt lat="42.84971921" lon="13.66983180">
        <ele>78.000000</ele>
        <time>2024-04-19T12:42:40Z</time>
      </trkpt>
      <trkpt lat="42.84970454" lon="13.66974807">
        <ele>78.000000</ele>
        <time>2024-04-19T12:42:41Z</time>
      </trkpt>
      <trkpt lat="42.84968309" lon="13.66966408">
        <ele>77.000000</ele>
        <time>2024-04-19T12:42:42Z</time>
      </trkpt>
      <trkpt lat="42.84965828" lon="13.66958219">
        <ele>77.000000</ele>
        <time>2024-04-19T12:42:43Z</time>
      </trkpt>
      <trkpt lat="42.84963120" lon="13.66949837">
        <ele>76.000000</ele>
        <time>2024-04-19T12:42:44Z</time>
      </trkpt>
      <trkpt lat="42.84959977" lon="13.66941472">
        <ele>76.000000</ele>
        <time>2024-04-19T12:42:45Z</time>
      </trkpt>
      <trkpt lat="42.84956482" lon="13.66933459">
        <ele>76.000000</ele>
        <time>2024-04-19T12:42:46Z</time>
      </trkpt>
      <trkpt lat="42.84952819" lon="13.66925748">
        <ele>76.000000</ele>
        <time>2024-04-19T12:42:47Z</time>
      </trkpt>
      <trkpt lat="42.84948913" lon="13.66918195">
        <ele>76.000000</ele>
        <time>2024-04-19T12:42:48Z</time>
      </trkpt>
      <trkpt lat="42.84944948" lon="13.66910425">
        <ele>75.000000</ele>
        <time>2024-04-19T12:42:49Z</time>
      </trkpt>
      <trkpt lat="42.84940984" lon="13.66902253">
        <ele>75.000000</ele>
        <time>2024-04-19T12:42:50Z</time>
      </trkpt>
      <trkpt lat="42.84937078" lon="13.66894047">
        <ele>75.000000</ele>
        <time>2024-04-19T12:42:51Z</time>
      </trkpt>
      <trkpt lat="42.84933046" lon="13.66886001">
        <ele>75.000000</ele>
        <time>2024-04-19T12:42:52Z</time>
      </trkpt>
      <trkpt lat="42.84929140" lon="13.66877987">
        <ele>75.000000</ele>
        <time>2024-04-19T12:42:53Z</time>
      </trkpt>
      <trkpt lat="42.84925268" lon="13.66869949">
        <ele>75.000000</ele>
        <time>2024-04-19T12:42:54Z</time>
      </trkpt>
      <trkpt lat="42.84921219" lon="13.66861877">
        <ele>75.000000</ele>
        <time>2024-04-19T12:42:55Z</time>
      </trkpt>
      <trkpt lat="42.84917213" lon="13.66853873">
        <ele>74.000000</ele>
        <time>2024-04-19T12:42:56Z</time>
      </trkpt>
      <trkpt lat="42.84913131" lon="13.66845793">
        <ele>74.000000</ele>
        <time>2024-04-19T12:42:57Z</time>
      </trkpt>
      <trkpt lat="42.84909090" lon="13.66837645">
        <ele>73.000000</ele>
        <time>2024-04-19T12:42:58Z</time>
      </trkpt>
      <trkpt lat="42.84904950" lon="13.66829381">
        <ele>73.000000</ele>
        <time>2024-04-19T12:42:59Z</time>
      </trkpt>
      <trkpt lat="42.84900072" lon="13.66819465">
        <ele>72.000000</ele>
        <time>2024-04-19T12:43:00Z</time>
      </trkpt>
      <trkpt lat="42.84896861" lon="13.66812768">
        <ele>72.000000</ele>
        <time>2024-04-19T12:43:01Z</time>
      </trkpt>
      <trkpt lat="42.84892838" lon="13.66804302">
        <ele>72.000000</ele>
        <time>2024-04-19T12:43:02Z</time>
      </trkpt>
      <trkpt lat="42.84888538" lon="13.66795912">
        <ele>72.000000</ele>
        <time>2024-04-19T12:43:03Z</time>
      </trkpt>
      <trkpt lat="42.84884179" lon="13.66787580">
        <ele>73.000000</ele>
        <time>2024-04-19T12:43:04Z</time>
      </trkpt>
      <trkpt lat="42.84879972" lon="13.66779156">
        <ele>73.000000</ele>
        <time>2024-04-19T12:43:05Z</time>
      </trkpt>
      <trkpt lat="42.84875839" lon="13.66770666">
        <ele>74.000000</ele>
        <time>2024-04-19T12:43:06Z</time>
      </trkpt>
      <trkpt lat="42.84871573" lon="13.66762317">
        <ele>74.000000</ele>
        <time>2024-04-19T12:43:07Z</time>
      </trkpt>
      <trkpt lat="42.84867198" lon="13.66753776">
        <ele>75.000000</ele>
        <time>2024-04-19T12:43:08Z</time>
      </trkpt>
      <trkpt lat="42.84862831" lon="13.66745227">
        <ele>75.000000</ele>
        <time>2024-04-19T12:43:09Z</time>
      </trkpt>
      <trkpt lat="42.84858631" lon="13.66736669">
        <ele>75.000000</ele>
        <time>2024-04-19T12:43:10Z</time>
      </trkpt>
      <trkpt lat="42.84854440" lon="13.66728069">
        <ele>74.000000</ele>
        <time>2024-04-19T12:43:11Z</time>
      </trkpt>
      <trkpt lat="42.84850090" lon="13.66719318">
        <ele>74.000000</ele>
        <time>2024-04-19T12:43:12Z</time>
      </trkpt>
      <trkpt lat="42.84845732" lon="13.66710676">
        <ele>74.000000</ele>
        <time>2024-04-19T12:43:13Z</time>
      </trkpt>
      <trkpt lat="42.84841172" lon="13.66702160">
        <ele>73.000000</ele>
        <time>2024-04-19T12:43:14Z</time>
      </trkpt>
      <trkpt lat="42.84836486" lon="13.66693485">
        <ele>73.000000</ele>
        <time>2024-04-19T12:43:15Z</time>
      </trkpt>
      <trkpt lat="42.84831893" lon="13.66684969">
        <ele>73.000000</ele>
        <time>2024-04-19T12:43:16Z</time>
      </trkpt>
      <trkpt lat="42.84827283" lon="13.66676034">
        <ele>73.000000</ele>
        <time>2024-04-19T12:43:17Z</time>
      </trkpt>
      <trkpt lat="42.84822665" lon="13.66667082">
        <ele>73.000000</ele>
        <time>2024-04-19T12:43:18Z</time>
      </trkpt>
      <trkpt lat="42.84818122" lon="13.66658030">
        <ele>73.000000</ele>
        <time>2024-04-19T12:43:19Z</time>
      </trkpt>
      <trkpt lat="42.84813486" lon="13.66648902">
        <ele>74.000000</ele>
        <time>2024-04-19T12:43:20Z</time>
      </trkpt>
      <trkpt lat="42.84808910" lon="13.66639816">
        <ele>74.000000</ele>
        <time>2024-04-19T12:43:21Z</time>
      </trkpt>
      <trkpt lat="42.84804468" lon="13.66630587">
        <ele>75.000000</ele>
        <time>2024-04-19T12:43:22Z</time>
      </trkpt>
      <trkpt lat="42.84799857" lon="13.66621342">
        <ele>75.000000</ele>
        <time>2024-04-19T12:43:23Z</time>
      </trkpt>
      <trkpt lat="42.84795071" lon="13.66611837">
        <ele>75.000000</ele>
        <time>2024-04-19T12:43:24Z</time>
      </trkpt>
      <trkpt lat="42.84790285" lon="13.66602072">
        <ele>74.000000</ele>
        <time>2024-04-19T12:43:25Z</time>
      </trkpt>
      <trkpt lat="42.84785483" lon="13.66592072">
        <ele>74.000000</ele>
        <time>2024-04-19T12:43:26Z</time>
      </trkpt>
      <trkpt lat="42.84780579" lon="13.66582115">
        <ele>73.000000</ele>
        <time>2024-04-19T12:43:27Z</time>
      </trkpt>
      <trkpt lat="42.84775483" lon="13.66572040">
        <ele>72.000000</ele>
        <time>2024-04-19T12:43:28Z</time>
      </trkpt>
      <trkpt lat="42.84770403" lon="13.66561830">
        <ele>72.000000</ele>
        <time>2024-04-19T12:43:29Z</time>
      </trkpt>
      <trkpt lat="42.84765425" lon="13.66551470">
        <ele>73.000000</ele>
        <time>2024-04-19T12:43:30Z</time>
      </trkpt>
      <trkpt lat="42.84760228" lon="13.66540876">
        <ele>73.000000</ele>
        <time>2024-04-19T12:43:31Z</time>
      </trkpt>
      <trkpt lat="42.84754947" lon="13.66530323">
        <ele>73.000000</ele>
        <time>2024-04-19T12:43:32Z</time>
      </trkpt>
      <trkpt lat="42.84749725" lon="13.66519820">
        <ele>74.000000</ele>
        <time>2024-04-19T12:43:33Z</time>
      </trkpt>
      <trkpt lat="42.84744445" lon="13.66508890">
        <ele>75.000000</ele>
        <time>2024-04-19T12:43:34Z</time>
      </trkpt>
      <trkpt lat="42.84739080" lon="13.66497541">
        <ele>76.000000</ele>
        <time>2024-04-19T12:43:35Z</time>
      </trkpt>
      <trkpt lat="42.84733900" lon="13.66485748">
        <ele>76.000000</ele>
        <time>2024-04-19T12:43:36Z</time>
      </trkpt>
      <trkpt lat="42.84728075" lon="13.66471071">
        <ele>76.000000</ele>
        <time>2024-04-19T12:43:37Z</time>
      </trkpt>
      <trkpt lat="42.84724337" lon="13.66460954">
        <ele>76.000000</ele>
        <time>2024-04-19T12:43:38Z</time>
      </trkpt>
      <trkpt lat="42.84719978" lon="13.66447996">
        <ele>76.000000</ele>
        <time>2024-04-19T12:43:39Z</time>
      </trkpt>
      <trkpt lat="42.84715879" lon="13.66434593">
        <ele>76.000000</ele>
        <time>2024-04-19T12:43:40Z</time>
      </trkpt>
      <trkpt lat="42.84711998" lon="13.66420989">
        <ele>76.000000</ele>
        <time>2024-04-19T12:43:41Z</time>
      </trkpt>
      <trkpt lat="42.84708092" lon="13.66406832">
        <ele>75.000000</ele>
        <time>2024-04-19T12:43:42Z</time>
      </trkpt>
      <trkpt lat="42.84704522" lon="13.66392374">
        <ele>75.000000</ele>
        <time>2024-04-19T12:43:43Z</time>
      </trkpt>
      <trkpt lat="42.84701680" lon="13.66377781">
        <ele>74.000000</ele>
        <time>2024-04-19T12:43:44Z</time>
      </trkpt>
      <trkpt lat="42.84699434" lon="13.66363213">
        <ele>74.000000</ele>
        <time>2024-04-19T12:43:45Z</time>
      </trkpt>
      <trkpt lat="42.84697405" lon="13.66348922">
        <ele>74.000000</ele>
        <time>2024-04-19T12:43:46Z</time>
      </trkpt>
      <trkpt lat="42.84695595" lon="13.66334790">
        <ele>74.000000</ele>
        <time>2024-04-19T12:43:47Z</time>
      </trkpt>
      <trkpt lat="42.84693868" lon="13.66320968">
        <ele>74.000000</ele>
        <time>2024-04-19T12:43:48Z</time>
      </trkpt>
      <trkpt lat="42.84692309" lon="13.66307607">
        <ele>74.000000</ele>
        <time>2024-04-19T12:43:49Z</time>
      </trkpt>
      <trkpt lat="42.84690574" lon="13.66294180">
        <ele>75.000000</ele>
        <time>2024-04-19T12:43:50Z</time>
      </trkpt>
      <trkpt lat="42.84688479" lon="13.66278279">
        <ele>75.000000</ele>
        <time>2024-04-19T12:43:51Z</time>
      </trkpt>
      <trkpt lat="42.84687138" lon="13.66267802">
        <ele>76.000000</ele>
        <time>2024-04-19T12:43:52Z</time>
      </trkpt>
      <trkpt lat="42.84685604" lon="13.66254877">
        <ele>77.000000</ele>
        <time>2024-04-19T12:43:53Z</time>
      </trkpt>
      <trkpt lat="42.84684363" lon="13.66242078">
        <ele>77.000000</ele>
        <time>2024-04-19T12:43:54Z</time>
      </trkpt>
      <trkpt lat="42.84683332" lon="13.66229488">
        <ele>78.000000</ele>
        <time>2024-04-19T12:43:55Z</time>
      </trkpt>
      <trkpt lat="42.84682586" lon="13.66217066">
        <ele>78.000000</ele>
        <time>2024-04-19T12:43:56Z</time>
      </trkpt>
      <trkpt lat="42.84681865" lon="13.66204879">
        <ele>78.000000</ele>
        <time>2024-04-19T12:43:57Z</time>
      </trkpt>
      <trkpt lat="42.84681220" lon="13.66192943">
        <ele>79.000000</ele>
        <time>2024-04-19T12:43:58Z</time>
      </trkpt>
      <trkpt lat="42.84680734" lon="13.66181141">
        <ele>79.000000</ele>
        <time>2024-04-19T12:43:59Z</time>
      </trkpt>
      <trkpt lat="42.84680248" lon="13.66169767">
        <ele>78.000000</ele>
        <time>2024-04-19T12:44:00Z</time>
      </trkpt>
      <trkpt lat="42.84679678" lon="13.66158242">
        <ele>78.000000</ele>
        <time>2024-04-19T12:44:01Z</time>
      </trkpt>
      <trkpt lat="42.84679116" lon="13.66146784">
        <ele>77.000000</ele>
        <time>2024-04-19T12:44:02Z</time>
      </trkpt>
      <trkpt lat="42.84678412" lon="13.66135083">
        <ele>77.000000</ele>
        <time>2024-04-19T12:44:03Z</time>
      </trkpt>
      <trkpt lat="42.84677892" lon="13.66123524">
        <ele>76.000000</ele>
        <time>2024-04-19T12:44:04Z</time>
      </trkpt>
      <trkpt lat="42.84677247" lon="13.66109434">
        <ele>75.000000</ele>
        <time>2024-04-19T12:44:05Z</time>
      </trkpt>
      <trkpt lat="42.84676870" lon="13.66100021">
        <ele>74.000000</ele>
        <time>2024-04-19T12:44:06Z</time>
      </trkpt>
      <trkpt lat="42.84676325" lon="13.66088320">
        <ele>73.000000</ele>
        <time>2024-04-19T12:44:07Z</time>
      </trkpt>
      <trkpt lat="42.84675847" lon="13.66076946">
        <ele>73.000000</ele>
        <time>2024-04-19T12:44:08Z</time>
      </trkpt>
      <trkpt lat="42.84675495" lon="13.66065303">
        <ele>73.000000</ele>
        <time>2024-04-19T12:44:09Z</time>
      </trkpt>
      <trkpt lat="42.84675235" lon="13.66053870">
        <ele>73.000000</ele>
        <time>2024-04-19T12:44:10Z</time>
      </trkpt>
      <trkpt lat="42.84674774" lon="13.66042580">
        <ele>74.000000</ele>
        <time>2024-04-19T12:44:11Z</time>
      </trkpt>
      <trkpt lat="42.84674238" lon="13.66031340">
        <ele>75.000000</ele>
        <time>2024-04-19T12:44:12Z</time>
      </trkpt>
      <trkpt lat="42.84673517" lon="13.66020075">
        <ele>75.000000</ele>
        <time>2024-04-19T12:44:13Z</time>
      </trkpt>
      <trkpt lat="42.84672805" lon="13.66008893">
        <ele>76.000000</ele>
        <time>2024-04-19T12:44:14Z</time>
      </trkpt>
      <trkpt lat="42.84672293" lon="13.65997821">
        <ele>77.000000</ele>
        <time>2024-04-19T12:44:15Z</time>
      </trkpt>
      <trkpt lat="42.84671807" lon="13.65986773">
        <ele>77.000000</ele>
        <time>2024-04-19T12:44:16Z</time>
      </trkpt>
      <trkpt lat="42.84671355" lon="13.65975701">
        <ele>77.000000</ele>
        <time>2024-04-19T12:44:17Z</time>
      </trkpt>
      <trkpt lat="42.84670935" lon="13.65964829">
        <ele>78.000000</ele>
        <time>2024-04-19T12:44:18Z</time>
      </trkpt>
      <trkpt lat="42.84670558" lon="13.65954000">
        <ele>78.000000</ele>
        <time>2024-04-19T12:44:19Z</time>
      </trkpt>
      <trkpt lat="42.84670223" lon="13.65943062">
        <ele>78.000000</ele>
        <time>2024-04-19T12:44:20Z</time>
      </trkpt>
      <trkpt lat="42.84670013" lon="13.65931972">
        <ele>78.000000</ele>
        <time>2024-04-19T12:44:21Z</time>
      </trkpt>
      <trkpt lat="42.84669728" lon="13.65921051">
        <ele>78.000000</ele>
        <time>2024-04-19T12:44:22Z</time>
      </trkpt>
      <trkpt lat="42.84669284" lon="13.65910079">
        <ele>78.000000</ele>
        <time>2024-04-19T12:44:23Z</time>
      </trkpt>
      <trkpt lat="42.84668974" lon="13.65899233">
        <ele>78.000000</ele>
        <time>2024-04-19T12:44:24Z</time>
      </trkpt>
      <trkpt lat="42.84668639" lon="13.65888445">
        <ele>77.000000</ele>
        <time>2024-04-19T12:44:25Z</time>
      </trkpt>
      <trkpt lat="42.84668404" lon="13.65877959">
        <ele>77.000000</ele>
        <time>2024-04-19T12:44:26Z</time>
      </trkpt>
      <trkpt lat="42.84668010" lon="13.65867147">
        <ele>77.000000</ele>
        <time>2024-04-19T12:44:27Z</time>
      </trkpt>
      <trkpt lat="42.84667457" lon="13.65856275">
        <ele>77.000000</ele>
        <time>2024-04-19T12:44:28Z</time>
      </trkpt>
      <trkpt lat="42.84666853" lon="13.65845563">
        <ele>77.000000</ele>
        <time>2024-04-19T12:44:29Z</time>
      </trkpt>
      <trkpt lat="42.84666325" lon="13.65834818">
        <ele>77.000000</ele>
        <time>2024-04-19T12:44:30Z</time>
      </trkpt>
      <trkpt lat="42.84665797" lon="13.65824089">
        <ele>77.000000</ele>
        <time>2024-04-19T12:44:31Z</time>
      </trkpt>
      <trkpt lat="42.84665009" lon="13.65813469">
        <ele>77.000000</ele>
        <time>2024-04-19T12:44:32Z</time>
      </trkpt>
      <trkpt lat="42.84664247" lon="13.65802966">
        <ele>78.000000</ele>
        <time>2024-04-19T12:44:33Z</time>
      </trkpt>
      <trkpt lat="42.84663752" lon="13.65792330">
        <ele>78.000000</ele>
        <time>2024-04-19T12:44:34Z</time>
      </trkpt>
      <trkpt lat="42.84663124" lon="13.65781660">
        <ele>79.000000</ele>
        <time>2024-04-19T12:44:35Z</time>
      </trkpt>
      <trkpt lat="42.84662218" lon="13.65771031">
        <ele>79.000000</ele>
        <time>2024-04-19T12:44:36Z</time>
      </trkpt>
      <trkpt lat="42.84661372" lon="13.65760420">
        <ele>79.000000</ele>
        <time>2024-04-19T12:44:37Z</time>
      </trkpt>
      <trkpt lat="42.84660793" lon="13.65749984">
        <ele>79.000000</ele>
        <time>2024-04-19T12:44:38Z</time>
      </trkpt>
      <trkpt lat="42.84660031" lon="13.65739515">
        <ele>78.000000</ele>
        <time>2024-04-19T12:44:39Z</time>
      </trkpt>
      <trkpt lat="42.84659343" lon="13.65729172">
        <ele>78.000000</ele>
        <time>2024-04-19T12:44:40Z</time>
      </trkpt>
      <trkpt lat="42.84658907" lon="13.65719131">
        <ele>78.000000</ele>
        <time>2024-04-19T12:44:41Z</time>
      </trkpt>
      <trkpt lat="42.84658589" lon="13.65708771">
        <ele>77.000000</ele>
        <time>2024-04-19T12:44:42Z</time>
      </trkpt>
      <trkpt lat="42.84658480" lon="13.65698277">
        <ele>77.000000</ele>
        <time>2024-04-19T12:44:43Z</time>
      </trkpt>
      <trkpt lat="42.84658413" lon="13.65687606">
        <ele>77.000000</ele>
        <time>2024-04-19T12:44:44Z</time>
      </trkpt>
      <trkpt lat="42.84658262" lon="13.65676869">
        <ele>77.000000</ele>
        <time>2024-04-19T12:44:45Z</time>
      </trkpt>
      <trkpt lat="42.84657776" lon="13.65666115">
        <ele>77.000000</ele>
        <time>2024-04-19T12:44:46Z</time>
      </trkpt>
      <trkpt lat="42.84657323" lon="13.65655395">
        <ele>78.000000</ele>
        <time>2024-04-19T12:44:47Z</time>
      </trkpt>
      <trkpt lat="42.84657005" lon="13.65644733">
        <ele>79.000000</ele>
        <time>2024-04-19T12:44:48Z</time>
      </trkpt>
      <trkpt lat="42.84656552" lon="13.65634012">
        <ele>80.000000</ele>
        <time>2024-04-19T12:44:49Z</time>
      </trkpt>
      <trkpt lat="42.84655789" lon="13.65623150">
        <ele>81.000000</ele>
        <time>2024-04-19T12:44:50Z</time>
      </trkpt>
      <trkpt lat="42.84655152" lon="13.65612488">
        <ele>82.000000</ele>
        <time>2024-04-19T12:44:51Z</time>
      </trkpt>
      <trkpt lat="42.84654507" lon="13.65601859">
        <ele>82.000000</ele>
        <time>2024-04-19T12:44:52Z</time>
      </trkpt>
      <trkpt lat="42.84653870" lon="13.65591365">
        <ele>82.000000</ele>
        <time>2024-04-19T12:44:53Z</time>
      </trkpt>
      <trkpt lat="42.84653216" lon="13.65580905">
        <ele>82.000000</ele>
        <time>2024-04-19T12:44:54Z</time>
      </trkpt>
      <trkpt lat="42.84652445" lon="13.65570461">
        <ele>82.000000</ele>
        <time>2024-04-19T12:44:55Z</time>
      </trkpt>
      <trkpt lat="42.84651917" lon="13.65560118">
        <ele>81.000000</ele>
        <time>2024-04-19T12:44:56Z</time>
      </trkpt>
      <trkpt lat="42.84651288" lon="13.65549825">
        <ele>81.000000</ele>
        <time>2024-04-19T12:44:57Z</time>
      </trkpt>
      <trkpt lat="42.84650551" lon="13.65539741">
        <ele>81.000000</ele>
        <time>2024-04-19T12:44:58Z</time>
      </trkpt>
      <trkpt lat="42.84649805" lon="13.65529666">
        <ele>80.000000</ele>
        <time>2024-04-19T12:44:59Z</time>
      </trkpt>
      <trkpt lat="42.84649000" lon="13.65519750">
        <ele>80.000000</ele>
        <time>2024-04-19T12:45:00Z</time>
      </trkpt>
      <trkpt lat="42.84647969" lon="13.65509801">
        <ele>80.000000</ele>
        <time>2024-04-19T12:45:01Z</time>
      </trkpt>
      <trkpt lat="42.84646921" lon="13.65500153">
        <ele>80.000000</ele>
        <time>2024-04-19T12:45:02Z</time>
      </trkpt>
      <trkpt lat="42.84645874" lon="13.65490397">
        <ele>80.000000</ele>
        <time>2024-04-19T12:45:03Z</time>
      </trkpt>
      <trkpt lat="42.84644884" lon="13.65480481">
        <ele>80.000000</ele>
        <time>2024-04-19T12:45:04Z</time>
      </trkpt>
      <trkpt lat="42.84643937" lon="13.65470574">
        <ele>79.000000</ele>
        <time>2024-04-19T12:45:05Z</time>
      </trkpt>
      <trkpt lat="42.84642990" lon="13.65460851">
        <ele>79.000000</ele>
        <time>2024-04-19T12:45:06Z</time>
      </trkpt>
      <trkpt lat="42.84642001" lon="13.65451228">
        <ele>79.000000</ele>
        <time>2024-04-19T12:45:07Z</time>
      </trkpt>
      <trkpt lat="42.84640886" lon="13.65441556">
        <ele>79.000000</ele>
        <time>2024-04-19T12:45:08Z</time>
      </trkpt>
      <trkpt lat="42.84639897" lon="13.65431950">
        <ele>79.000000</ele>
        <time>2024-04-19T12:45:09Z</time>
      </trkpt>
      <trkpt lat="42.84638833" lon="13.65422252">
        <ele>79.000000</ele>
        <time>2024-04-19T12:45:10Z</time>
      </trkpt>
      <trkpt lat="42.84637684" lon="13.65412621">
        <ele>80.000000</ele>
        <time>2024-04-19T12:45:11Z</time>
      </trkpt>
      <trkpt lat="42.84636754" lon="13.65403099">
        <ele>80.000000</ele>
        <time>2024-04-19T12:45:12Z</time>
      </trkpt>
      <trkpt lat="42.84635799" lon="13.65393578">
        <ele>80.000000</ele>
        <time>2024-04-19T12:45:13Z</time>
      </trkpt>
      <trkpt lat="42.84634851" lon="13.65384022">
        <ele>81.000000</ele>
        <time>2024-04-19T12:45:14Z</time>
      </trkpt>
      <trkpt lat="42.84633980" lon="13.65374718">
        <ele>81.000000</ele>
        <time>2024-04-19T12:45:15Z</time>
      </trkpt>
      <trkpt lat="42.84633141" lon="13.65365331">
        <ele>81.000000</ele>
        <time>2024-04-19T12:45:16Z</time>
      </trkpt>
      <trkpt lat="42.84632278" lon="13.65355943">
        <ele>81.000000</ele>
        <time>2024-04-19T12:45:17Z</time>
      </trkpt>
      <trkpt lat="42.84631239" lon="13.65346362">
        <ele>81.000000</ele>
        <time>2024-04-19T12:45:18Z</time>
      </trkpt>
      <trkpt lat="42.84630174" lon="13.65336740">
        <ele>81.000000</ele>
        <time>2024-04-19T12:45:19Z</time>
      </trkpt>
      <trkpt lat="42.84629152" lon="13.65327176">
        <ele>81.000000</ele>
        <time>2024-04-19T12:45:20Z</time>
      </trkpt>
      <trkpt lat="42.84628154" lon="13.65317638">
        <ele>81.000000</ele>
        <time>2024-04-19T12:45:21Z</time>
      </trkpt>
      <trkpt lat="42.84627132" lon="13.65308275">
        <ele>81.000000</ele>
        <time>2024-04-19T12:45:22Z</time>
      </trkpt>
      <trkpt lat="42.84626134" lon="13.65298912">
        <ele>81.000000</ele>
        <time>2024-04-19T12:45:23Z</time>
      </trkpt>
      <trkpt lat="42.84625128" lon="13.65289701">
        <ele>80.000000</ele>
        <time>2024-04-19T12:45:24Z</time>
      </trkpt>
      <trkpt lat="42.84624215" lon="13.65280447">
        <ele>80.000000</ele>
        <time>2024-04-19T12:45:25Z</time>
      </trkpt>
      <trkpt lat="42.84623335" lon="13.65271051">
        <ele>80.000000</ele>
        <time>2024-04-19T12:45:26Z</time>
      </trkpt>
      <trkpt lat="42.84622161" lon="13.65261512">
        <ele>80.000000</ele>
        <time>2024-04-19T12:45:27Z</time>
      </trkpt>
      <trkpt lat="42.84621004" lon="13.65252242">
        <ele>80.000000</ele>
        <time>2024-04-19T12:45:28Z</time>
      </trkpt>
      <trkpt lat="42.84619948" lon="13.65242871">
        <ele>80.000000</ele>
        <time>2024-04-19T12:45:29Z</time>
      </trkpt>
      <trkpt lat="42.84618892" lon="13.65233508">
        <ele>79.000000</ele>
        <time>2024-04-19T12:45:30Z</time>
      </trkpt>
      <trkpt lat="42.84617979" lon="13.65224121">
        <ele>79.000000</ele>
        <time>2024-04-19T12:45:31Z</time>
      </trkpt>
      <trkpt lat="42.84616872" lon="13.65214716">
        <ele>79.000000</ele>
        <time>2024-04-19T12:45:32Z</time>
      </trkpt>
      <trkpt lat="42.84615665" lon="13.65203711">
        <ele>79.000000</ele>
        <time>2024-04-19T12:45:33Z</time>
      </trkpt>
      <trkpt lat="42.84614861" lon="13.65196201">
        <ele>79.000000</ele>
        <time>2024-04-19T12:45:34Z</time>
      </trkpt>
      <trkpt lat="42.84613880" lon="13.65186888">
        <ele>79.000000</ele>
        <time>2024-04-19T12:45:35Z</time>
      </trkpt>
      <trkpt lat="42.84612790" lon="13.65177500">
        <ele>79.000000</ele>
        <time>2024-04-19T12:45:36Z</time>
      </trkpt>
      <trkpt lat="42.84611843" lon="13.65168054">
        <ele>79.000000</ele>
        <time>2024-04-19T12:45:37Z</time>
      </trkpt>
      <trkpt lat="42.84610938" lon="13.65158583">
        <ele>79.000000</ele>
        <time>2024-04-19T12:45:38Z</time>
      </trkpt>
      <trkpt lat="42.84609991" lon="13.65148918">
        <ele>79.000000</ele>
        <time>2024-04-19T12:45:39Z</time>
      </trkpt>
      <trkpt lat="42.84609111" lon="13.65139405">
        <ele>80.000000</ele>
        <time>2024-04-19T12:45:40Z</time>
      </trkpt>
      <trkpt lat="42.84608172" lon="13.65129698">
        <ele>80.000000</ele>
        <time>2024-04-19T12:45:41Z</time>
      </trkpt>
      <trkpt lat="42.84607124" lon="13.65120059">
        <ele>81.000000</ele>
        <time>2024-04-19T12:45:42Z</time>
      </trkpt>
      <trkpt lat="42.84606051" lon="13.65110579">
        <ele>82.000000</ele>
        <time>2024-04-19T12:45:43Z</time>
      </trkpt>
      <trkpt lat="42.84604987" lon="13.65101058">
        <ele>83.000000</ele>
        <time>2024-04-19T12:45:44Z</time>
      </trkpt>
      <trkpt lat="42.84603889" lon="13.65091402">
        <ele>84.000000</ele>
        <time>2024-04-19T12:45:45Z</time>
      </trkpt>
      <trkpt lat="42.84602908" lon="13.65081704">
        <ele>85.000000</ele>
        <time>2024-04-19T12:45:46Z</time>
      </trkpt>
      <trkpt lat="42.84601969" lon="13.65072106">
        <ele>85.000000</ele>
        <time>2024-04-19T12:45:47Z</time>
      </trkpt>
      <trkpt lat="42.84600771" lon="13.65062358">
        <ele>86.000000</ele>
        <time>2024-04-19T12:45:48Z</time>
      </trkpt>
      <trkpt lat="42.84599840" lon="13.65052660">
        <ele>86.000000</ele>
        <time>2024-04-19T12:45:49Z</time>
      </trkpt>
      <trkpt lat="42.84598927" lon="13.65043013">
        <ele>87.000000</ele>
        <time>2024-04-19T12:45:50Z</time>
      </trkpt>
      <trkpt lat="42.84597770" lon="13.65033374">
        <ele>88.000000</ele>
        <time>2024-04-19T12:45:51Z</time>
      </trkpt>
      <trkpt lat="42.84596663" lon="13.65023718">
        <ele>89.000000</ele>
        <time>2024-04-19T12:45:52Z</time>
      </trkpt>
      <trkpt lat="42.84595716" lon="13.65014196">
        <ele>89.000000</ele>
        <time>2024-04-19T12:45:53Z</time>
      </trkpt>
      <trkpt lat="42.84594761" lon="13.65004674">
        <ele>89.000000</ele>
        <time>2024-04-19T12:45:54Z</time>
      </trkpt>
      <trkpt lat="42.84593612" lon="13.64994926">
        <ele>89.000000</ele>
        <time>2024-04-19T12:45:55Z</time>
      </trkpt>
      <trkpt lat="42.84592607" lon="13.64985236">
        <ele>89.000000</ele>
        <time>2024-04-19T12:45:56Z</time>
      </trkpt>
      <trkpt lat="42.84591576" lon="13.64975572">
        <ele>89.000000</ele>
        <time>2024-04-19T12:45:57Z</time>
      </trkpt>
      <trkpt lat="42.84590545" lon="13.64965924">
        <ele>89.000000</ele>
        <time>2024-04-19T12:45:58Z</time>
      </trkpt>
      <trkpt lat="42.84589371" lon="13.64956453">
        <ele>89.000000</ele>
        <time>2024-04-19T12:45:59Z</time>
      </trkpt>
      <trkpt lat="42.84588206" lon="13.64946780">
        <ele>89.000000</ele>
        <time>2024-04-19T12:46:00Z</time>
      </trkpt>
      <trkpt lat="42.84587225" lon="13.64936923">
        <ele>89.000000</ele>
        <time>2024-04-19T12:46:01Z</time>
      </trkpt>
      <trkpt lat="42.84586312" lon="13.64927200">
        <ele>90.000000</ele>
        <time>2024-04-19T12:46:02Z</time>
      </trkpt>
      <trkpt lat="42.84585407" lon="13.64917553">
        <ele>90.000000</ele>
        <time>2024-04-19T12:46:03Z</time>
      </trkpt>
      <trkpt lat="42.84584459" lon="13.64907888">
        <ele>91.000000</ele>
        <time>2024-04-19T12:46:04Z</time>
      </trkpt>
      <trkpt lat="42.84583454" lon="13.64898224">
        <ele>90.000000</ele>
        <time>2024-04-19T12:46:05Z</time>
      </trkpt>
      <trkpt lat="42.84582473" lon="13.64888492">
        <ele>90.000000</ele>
        <time>2024-04-19T12:46:06Z</time>
      </trkpt>
      <trkpt lat="42.84581475" lon="13.64878719">
        <ele>90.000000</ele>
        <time>2024-04-19T12:46:07Z</time>
      </trkpt>
      <trkpt lat="42.84580352" lon="13.64868845">
        <ele>90.000000</ele>
        <time>2024-04-19T12:46:08Z</time>
      </trkpt>
      <trkpt lat="42.84579330" lon="13.64859231">
        <ele>90.000000</ele>
        <time>2024-04-19T12:46:09Z</time>
      </trkpt>
      <trkpt lat="42.84578240" lon="13.64849743">
        <ele>90.000000</ele>
        <time>2024-04-19T12:46:10Z</time>
      </trkpt>
      <trkpt lat="42.84577092" lon="13.64840523">
        <ele>90.000000</ele>
        <time>2024-04-19T12:46:11Z</time>
      </trkpt>
      <trkpt lat="42.84576010" lon="13.64831118">
        <ele>89.000000</ele>
        <time>2024-04-19T12:46:12Z</time>
      </trkpt>
      <trkpt lat="42.84575013" lon="13.64821563">
        <ele>89.000000</ele>
        <time>2024-04-19T12:46:13Z</time>
      </trkpt>
      <trkpt lat="42.84573982" lon="13.64812251">
        <ele>89.000000</ele>
        <time>2024-04-19T12:46:14Z</time>
      </trkpt>
      <trkpt lat="42.84573068" lon="13.64802980">
        <ele>89.000000</ele>
        <time>2024-04-19T12:46:15Z</time>
      </trkpt>
      <trkpt lat="42.84572063" lon="13.64793500">
        <ele>89.000000</ele>
        <time>2024-04-19T12:46:16Z</time>
      </trkpt>
      <trkpt lat="42.84570990" lon="13.64783987">
        <ele>89.000000</ele>
        <time>2024-04-19T12:46:17Z</time>
      </trkpt>
      <trkpt lat="42.84569900" lon="13.64774616">
        <ele>90.000000</ele>
        <time>2024-04-19T12:46:18Z</time>
      </trkpt>
      <trkpt lat="42.84568743" lon="13.64765119">
        <ele>90.000000</ele>
        <time>2024-04-19T12:46:19Z</time>
      </trkpt>
      <trkpt lat="42.84567997" lon="13.64755849">
        <ele>91.000000</ele>
        <time>2024-04-19T12:46:20Z</time>
      </trkpt>
      <trkpt lat="42.84567008" lon="13.64746428">
        <ele>91.000000</ele>
        <time>2024-04-19T12:46:21Z</time>
      </trkpt>
      <trkpt lat="42.84565927" lon="13.64737031">
        <ele>92.000000</ele>
        <time>2024-04-19T12:46:22Z</time>
      </trkpt>
      <trkpt lat="42.84564988" lon="13.64727987">
        <ele>92.000000</ele>
        <time>2024-04-19T12:46:23Z</time>
      </trkpt>
      <trkpt lat="42.84564142" lon="13.64718809">
        <ele>92.000000</ele>
        <time>2024-04-19T12:46:24Z</time>
      </trkpt>
      <trkpt lat="42.84563203" lon="13.64709639">
        <ele>92.000000</ele>
        <time>2024-04-19T12:46:25Z</time>
      </trkpt>
      <trkpt lat="42.84562272" lon="13.64700729">
        <ele>93.000000</ele>
        <time>2024-04-19T12:46:26Z</time>
      </trkpt>
      <trkpt lat="42.84561250" lon="13.64692213">
        <ele>93.000000</ele>
        <time>2024-04-19T12:46:27Z</time>
      </trkpt>
      <trkpt lat="42.84560143" lon="13.64683806">
        <ele>92.000000</ele>
        <time>2024-04-19T12:46:28Z</time>
      </trkpt>
      <trkpt lat="42.84559188" lon="13.64675190">
        <ele>92.000000</ele>
        <time>2024-04-19T12:46:29Z</time>
      </trkpt>
      <trkpt lat="42.84558526" lon="13.64666649">
        <ele>92.000000</ele>
        <time>2024-04-19T12:46:30Z</time>
      </trkpt>
      <trkpt lat="42.84558014" lon="13.64658275">
        <ele>91.000000</ele>
        <time>2024-04-19T12:46:31Z</time>
      </trkpt>
      <trkpt lat="42.84557696" lon="13.64649902">
        <ele>91.000000</ele>
        <time>2024-04-19T12:46:32Z</time>
      </trkpt>
      <trkpt lat="42.84557252" lon="13.64641469">
        <ele>91.000000</ele>
        <time>2024-04-19T12:46:33Z</time>
      </trkpt>
      <trkpt lat="42.84556573" lon="13.64633171">
        <ele>90.000000</ele>
        <time>2024-04-19T12:46:34Z</time>
      </trkpt>
      <trkpt lat="42.84555877" lon="13.64625586">
        <ele>90.000000</ele>
        <time>2024-04-19T12:46:35Z</time>
      </trkpt>
      <trkpt lat="42.84554771" lon="13.64617397">
        <ele>90.000000</ele>
        <time>2024-04-19T12:46:36Z</time>
      </trkpt>
      <trkpt lat="42.84553547" lon="13.64607489">
        <ele>90.000000</ele>
        <time>2024-04-19T12:46:37Z</time>
      </trkpt>
      <trkpt lat="42.84553010" lon="13.64600834">
        <ele>90.000000</ele>
        <time>2024-04-19T12:46:38Z</time>
      </trkpt>
      <trkpt lat="42.84552340" lon="13.64592720">
        <ele>91.000000</ele>
        <time>2024-04-19T12:46:39Z</time>
      </trkpt>
      <trkpt lat="42.84551720" lon="13.64584757">
        <ele>91.000000</ele>
        <time>2024-04-19T12:46:40Z</time>
      </trkpt>
      <trkpt lat="42.84551116" lon="13.64576694">
        <ele>91.000000</ele>
        <time>2024-04-19T12:46:41Z</time>
      </trkpt>
      <trkpt lat="42.84550521" lon="13.64568497">
        <ele>92.000000</ele>
        <time>2024-04-19T12:46:42Z</time>
      </trkpt>
      <trkpt lat="42.84549775" lon="13.64560031">
        <ele>92.000000</ele>
        <time>2024-04-19T12:46:43Z</time>
      </trkpt>
      <trkpt lat="42.84548811" lon="13.64551649">
        <ele>93.000000</ele>
        <time>2024-04-19T12:46:44Z</time>
      </trkpt>
      <trkpt lat="42.84547688" lon="13.64543518">
        <ele>93.000000</ele>
        <time>2024-04-19T12:46:45Z</time>
      </trkpt>
      <trkpt lat="42.84546481" lon="13.64535606">
        <ele>94.000000</ele>
        <time>2024-04-19T12:46:46Z</time>
      </trkpt>
      <trkpt lat="42.84545240" lon="13.64527693">
        <ele>94.000000</ele>
        <time>2024-04-19T12:46:47Z</time>
      </trkpt>
      <trkpt lat="42.84544176" lon="13.64519521">
        <ele>94.000000</ele>
        <time>2024-04-19T12:46:48Z</time>
      </trkpt>
      <trkpt lat="42.84543254" lon="13.64511265">
        <ele>95.000000</ele>
        <time>2024-04-19T12:46:49Z</time>
      </trkpt>
      <trkpt lat="42.84542516" lon="13.64502958">
        <ele>95.000000</ele>
        <time>2024-04-19T12:46:50Z</time>
      </trkpt>
      <trkpt lat="42.84542055" lon="13.64494719">
        <ele>95.000000</ele>
        <time>2024-04-19T12:46:51Z</time>
      </trkpt>
      <trkpt lat="42.84541561" lon="13.64486463">
        <ele>96.000000</ele>
        <time>2024-04-19T12:46:52Z</time>
      </trkpt>
      <trkpt lat="42.84540815" lon="13.64478349">
        <ele>96.000000</ele>
        <time>2024-04-19T12:46:53Z</time>
      </trkpt>
      <trkpt lat="42.84539809" lon="13.64470177">
        <ele>96.000000</ele>
        <time>2024-04-19T12:46:54Z</time>
      </trkpt>
      <trkpt lat="42.84538552" lon="13.64462122">
        <ele>97.000000</ele>
        <time>2024-04-19T12:46:55Z</time>
      </trkpt>
      <trkpt lat="42.84537361" lon="13.64454586">
        <ele>97.000000</ele>
        <time>2024-04-19T12:46:56Z</time>
      </trkpt>
      <trkpt lat="42.84536113" lon="13.64446741">
        <ele>98.000000</ele>
        <time>2024-04-19T12:46:57Z</time>
      </trkpt>
      <trkpt lat="42.84534981" lon="13.64438401">
        <ele>98.000000</ele>
        <time>2024-04-19T12:46:58Z</time>
      </trkpt>
      <trkpt lat="42.84534118" lon="13.64429868">
        <ele>98.000000</ele>
        <time>2024-04-19T12:46:59Z</time>
      </trkpt>
      <trkpt lat="42.84533564" lon="13.64421654">
        <ele>99.000000</ele>
        <time>2024-04-19T12:47:00Z</time>
      </trkpt>
      <trkpt lat="42.84532684" lon="13.64412887">
        <ele>99.000000</ele>
        <time>2024-04-19T12:47:01Z</time>
      </trkpt>
      <trkpt lat="42.84531637" lon="13.64404253">
        <ele>99.000000</ele>
        <time>2024-04-19T12:47:02Z</time>
      </trkpt>
      <trkpt lat="42.84530580" lon="13.64395896">
        <ele>99.000000</ele>
        <time>2024-04-19T12:47:03Z</time>
      </trkpt>
      <trkpt lat="42.84529600" lon="13.64387825">
        <ele>100.00000</ele>
        <time>2024-04-19T12:47:04Z</time>
      </trkpt>
      <trkpt lat="42.84528619" lon="13.64379493">
        <ele>100.00000</ele>
        <time>2024-04-19T12:47:05Z</time>
      </trkpt>
      <trkpt lat="42.84527756" lon="13.64370918">
        <ele>101.00000</ele>
        <time>2024-04-19T12:47:06Z</time>
      </trkpt>
      <trkpt lat="42.84526951" lon="13.64362369">
        <ele>101.00000</ele>
        <time>2024-04-19T12:47:07Z</time>
      </trkpt>
      <trkpt lat="42.84526197" lon="13.64353886">
        <ele>102.00000</ele>
        <time>2024-04-19T12:47:08Z</time>
      </trkpt>
      <trkpt lat="42.84525191" lon="13.64345354">
        <ele>103.00000</ele>
        <time>2024-04-19T12:47:09Z</time>
      </trkpt>
      <trkpt lat="42.84524252" lon="13.64336829">
        <ele>103.00000</ele>
        <time>2024-04-19T12:47:10Z</time>
      </trkpt>
      <trkpt lat="42.84523230" lon="13.64328347">
        <ele>104.00000</ele>
        <time>2024-04-19T12:47:11Z</time>
      </trkpt>
      <trkpt lat="42.84522224" lon="13.64319856">
        <ele>104.00000</ele>
        <time>2024-04-19T12:47:12Z</time>
      </trkpt>
      <trkpt lat="42.84521461" lon="13.64311331">
        <ele>105.00000</ele>
        <time>2024-04-19T12:47:13Z</time>
      </trkpt>
      <trkpt lat="42.84521033" lon="13.64303042">
        <ele>105.00000</ele>
        <time>2024-04-19T12:47:14Z</time>
      </trkpt>
      <trkpt lat="42.84520690" lon="13.64294526">
        <ele>106.00000</ele>
        <time>2024-04-19T12:47:15Z</time>
      </trkpt>
      <trkpt lat="42.84520019" lon="13.64285700">
        <ele>106.00000</ele>
        <time>2024-04-19T12:47:16Z</time>
      </trkpt>
      <trkpt lat="42.84519148" lon="13.64276940">
        <ele>107.00000</ele>
        <time>2024-04-19T12:47:17Z</time>
      </trkpt>
      <trkpt lat="42.84517899" lon="13.64268265">
        <ele>107.00000</ele>
        <time>2024-04-19T12:47:18Z</time>
      </trkpt>
      <trkpt lat="42.84516767" lon="13.64259582">
        <ele>107.00000</ele>
        <time>2024-04-19T12:47:19Z</time>
      </trkpt>
      <trkpt lat="42.84515954" lon="13.64250697">
        <ele>108.00000</ele>
        <time>2024-04-19T12:47:20Z</time>
      </trkpt>
      <trkpt lat="42.84515552" lon="13.64241787">
        <ele>108.00000</ele>
        <time>2024-04-19T12:47:21Z</time>
      </trkpt>
      <trkpt lat="42.84515057" lon="13.64232952">
        <ele>108.00000</ele>
        <time>2024-04-19T12:47:22Z</time>
      </trkpt>
      <trkpt lat="42.84514135" lon="13.64224160">
        <ele>108.00000</ele>
        <time>2024-04-19T12:47:23Z</time>
      </trkpt>
      <trkpt lat="42.84513004" lon="13.64215736">
        <ele>107.00000</ele>
        <time>2024-04-19T12:47:24Z</time>
      </trkpt>
      <trkpt lat="42.84511813" lon="13.64207094">
        <ele>107.00000</ele>
        <time>2024-04-19T12:47:25Z</time>
      </trkpt>
      <trkpt lat="42.84510866" lon="13.64198151">
        <ele>107.00000</ele>
        <time>2024-04-19T12:47:26Z</time>
      </trkpt>
      <trkpt lat="42.84510078" lon="13.64188889">
        <ele>107.00000</ele>
        <time>2024-04-19T12:47:27Z</time>
      </trkpt>
      <trkpt lat="42.84509039" lon="13.64177506">
        <ele>107.00000</ele>
        <time>2024-04-19T12:47:28Z</time>
      </trkpt>
      <trkpt lat="42.84508100" lon="13.64169887">
        <ele>107.00000</ele>
        <time>2024-04-19T12:47:29Z</time>
      </trkpt>
      <trkpt lat="42.84507069" lon="13.64160507">
        <ele>106.00000</ele>
        <time>2024-04-19T12:47:30Z</time>
      </trkpt>
      <trkpt lat="42.84506105" lon="13.64151421">
        <ele>106.00000</ele>
        <time>2024-04-19T12:47:31Z</time>
      </trkpt>
      <trkpt lat="42.84504999" lon="13.64142059">
        <ele>106.00000</ele>
        <time>2024-04-19T12:47:32Z</time>
      </trkpt>
      <trkpt lat="42.84503951" lon="13.64132537">
        <ele>106.00000</ele>
        <time>2024-04-19T12:47:33Z</time>
      </trkpt>
      <trkpt lat="42.84503063" lon="13.64122948">
        <ele>106.00000</ele>
        <time>2024-04-19T12:47:34Z</time>
      </trkpt>
      <trkpt lat="42.84502199" lon="13.64113007">
        <ele>106.00000</ele>
        <time>2024-04-19T12:47:35Z</time>
      </trkpt>
      <trkpt lat="42.84501126" lon="13.64103041">
        <ele>106.00000</ele>
        <time>2024-04-19T12:47:36Z</time>
      </trkpt>
      <trkpt lat="42.84500179" lon="13.64092874">
        <ele>106.00000</ele>
        <time>2024-04-19T12:47:37Z</time>
      </trkpt>
      <trkpt lat="42.84499534" lon="13.64082698">
        <ele>105.00000</ele>
        <time>2024-04-19T12:47:38Z</time>
      </trkpt>
      <trkpt lat="42.84499073" lon="13.64072648">
        <ele>105.00000</ele>
        <time>2024-04-19T12:47:39Z</time>
      </trkpt>
      <trkpt lat="42.84498612" lon="13.64062665">
        <ele>105.00000</ele>
        <time>2024-04-19T12:47:40Z</time>
      </trkpt>
      <trkpt lat="42.84498218" lon="13.64052725">
        <ele>105.00000</ele>
        <time>2024-04-19T12:47:41Z</time>
      </trkpt>
      <trkpt lat="42.84497925" lon="13.64042608">
        <ele>105.00000</ele>
        <time>2024-04-19T12:47:42Z</time>
      </trkpt>
      <trkpt lat="42.84497707" lon="13.64032273">
        <ele>105.00000</ele>
        <time>2024-04-19T12:47:43Z</time>
      </trkpt>
      <trkpt lat="42.84497514" lon="13.64021879">
        <ele>105.00000</ele>
        <time>2024-04-19T12:47:44Z</time>
      </trkpt>
      <trkpt lat="42.84497321" lon="13.64011351">
        <ele>105.00000</ele>
        <time>2024-04-19T12:47:45Z</time>
      </trkpt>
      <trkpt lat="42.84497522" lon="13.64001017">
        <ele>105.00000</ele>
        <time>2024-04-19T12:47:46Z</time>
      </trkpt>
      <trkpt lat="42.84497799" lon="13.63990816">
        <ele>105.00000</ele>
        <time>2024-04-19T12:47:47Z</time>
      </trkpt>
      <trkpt lat="42.84498210" lon="13.63980556">
        <ele>105.00000</ele>
        <time>2024-04-19T12:47:48Z</time>
      </trkpt>
      <trkpt lat="42.84498738" lon="13.63970004">
        <ele>105.00000</ele>
        <time>2024-04-19T12:47:49Z</time>
      </trkpt>
      <trkpt lat="42.84499375" lon="13.63959467">
        <ele>105.00000</ele>
        <time>2024-04-19T12:47:50Z</time>
      </trkpt>
      <trkpt lat="42.84500137" lon="13.63948831">
        <ele>104.00000</ele>
        <time>2024-04-19T12:47:51Z</time>
      </trkpt>
      <trkpt lat="42.84500900" lon="13.63938127">
        <ele>104.00000</ele>
        <time>2024-04-19T12:47:52Z</time>
      </trkpt>
      <trkpt lat="42.84501596" lon="13.63927532">
        <ele>104.00000</ele>
        <time>2024-04-19T12:47:53Z</time>
      </trkpt>
      <trkpt lat="42.84502199" lon="13.63916602">
        <ele>104.00000</ele>
        <time>2024-04-19T12:47:54Z</time>
      </trkpt>
      <trkpt lat="42.84502820" lon="13.63905756">
        <ele>104.00000</ele>
        <time>2024-04-19T12:47:55Z</time>
      </trkpt>
      <trkpt lat="42.84503406" lon="13.63892563">
        <ele>104.00000</ele>
        <time>2024-04-19T12:47:56Z</time>
      </trkpt>
      <trkpt lat="42.84503708" lon="13.63883636">
        <ele>104.00000</ele>
        <time>2024-04-19T12:47:57Z</time>
      </trkpt>
      <trkpt lat="42.84504161" lon="13.63872463">
        <ele>104.00000</ele>
        <time>2024-04-19T12:47:58Z</time>
      </trkpt>
      <trkpt lat="42.84504865" lon="13.63861558">
        <ele>104.00000</ele>
        <time>2024-04-19T12:47:59Z</time>
      </trkpt>
      <trkpt lat="42.84505678" lon="13.63850972">
        <ele>104.00000</ele>
        <time>2024-04-19T12:48:00Z</time>
      </trkpt>
      <trkpt lat="42.84506415" lon="13.63840000">
        <ele>104.00000</ele>
        <time>2024-04-19T12:48:01Z</time>
      </trkpt>
      <trkpt lat="42.84506969" lon="13.63828768">
        <ele>104.00000</ele>
        <time>2024-04-19T12:48:02Z</time>
      </trkpt>
      <trkpt lat="42.84507606" lon="13.63817545">
        <ele>104.00000</ele>
        <time>2024-04-19T12:48:03Z</time>
      </trkpt>
      <trkpt lat="42.84508167" lon="13.63806380">
        <ele>104.00000</ele>
        <time>2024-04-19T12:48:04Z</time>
      </trkpt>
      <trkpt lat="42.84508720" lon="13.63795341">
        <ele>104.00000</ele>
        <time>2024-04-19T12:48:05Z</time>
      </trkpt>
      <trkpt lat="42.84509190" lon="13.63784261">
        <ele>104.00000</ele>
        <time>2024-04-19T12:48:06Z</time>
      </trkpt>
      <trkpt lat="42.84509735" lon="13.63773180">
        <ele>104.00000</ele>
        <time>2024-04-19T12:48:07Z</time>
      </trkpt>
      <trkpt lat="42.84510338" lon="13.63762057">
        <ele>104.00000</ele>
        <time>2024-04-19T12:48:08Z</time>
      </trkpt>
      <trkpt lat="42.84510958" lon="13.63750867">
        <ele>104.00000</ele>
        <time>2024-04-19T12:48:09Z</time>
      </trkpt>
      <trkpt lat="42.84511587" lon="13.63737448">
        <ele>104.00000</ele>
        <time>2024-04-19T12:48:10Z</time>
      </trkpt>
      <trkpt lat="42.84511956" lon="13.63728521">
        <ele>104.00000</ele>
        <time>2024-04-19T12:48:11Z</time>
      </trkpt>
      <trkpt lat="42.84512350" lon="13.63717566">
        <ele>104.00000</ele>
        <time>2024-04-19T12:48:12Z</time>
      </trkpt>
      <trkpt lat="42.84512794" lon="13.63706502">
        <ele>104.00000</ele>
        <time>2024-04-19T12:48:13Z</time>
      </trkpt>
      <trkpt lat="42.84513180" lon="13.63695605">
        <ele>104.00000</ele>
        <time>2024-04-19T12:48:14Z</time>
      </trkpt>
      <trkpt lat="42.84513439" lon="13.63684633">
        <ele>104.00000</ele>
        <time>2024-04-19T12:48:15Z</time>
      </trkpt>
      <trkpt lat="42.84513817" lon="13.63673628">
        <ele>104.00000</ele>
        <time>2024-04-19T12:48:16Z</time>
      </trkpt>
      <trkpt lat="42.84514429" lon="13.63662648">
        <ele>105.00000</ele>
        <time>2024-04-19T12:48:17Z</time>
      </trkpt>
      <trkpt lat="42.84515057" lon="13.63651759">
        <ele>105.00000</ele>
        <time>2024-04-19T12:48:18Z</time>
      </trkpt>
      <trkpt lat="42.84515434" lon="13.63640871">
        <ele>105.00000</ele>
        <time>2024-04-19T12:48:19Z</time>
      </trkpt>
      <trkpt lat="42.84515837" lon="13.63629983">
        <ele>105.00000</ele>
        <time>2024-04-19T12:48:20Z</time>
      </trkpt>
      <trkpt lat="42.84516432" lon="13.63619212">
        <ele>106.00000</ele>
        <time>2024-04-19T12:48:21Z</time>
      </trkpt>
      <trkpt lat="42.84517119" lon="13.63608375">
        <ele>107.00000</ele>
        <time>2024-04-19T12:48:22Z</time>
      </trkpt>
      <trkpt lat="42.84517798" lon="13.63597436">
        <ele>107.00000</ele>
        <time>2024-04-19T12:48:23Z</time>
      </trkpt>
      <trkpt lat="42.84518552" lon="13.63584545">
        <ele>107.00000</ele>
        <time>2024-04-19T12:48:24Z</time>
      </trkpt>
      <trkpt lat="42.84519072" lon="13.63576062">
        <ele>107.00000</ele>
        <time>2024-04-19T12:48:25Z</time>
      </trkpt>
      <trkpt lat="42.84519743" lon="13.63565443">
        <ele>107.00000</ele>
        <time>2024-04-19T12:48:26Z</time>
      </trkpt>
      <trkpt lat="42.84520044" lon="13.63554596">
        <ele>107.00000</ele>
        <time>2024-04-19T12:48:27Z</time>
      </trkpt>
      <trkpt lat="42.84520413" lon="13.63543943">
        <ele>106.00000</ele>
        <time>2024-04-19T12:48:28Z</time>
      </trkpt>
      <trkpt lat="42.84521025" lon="13.63533415">
        <ele>106.00000</ele>
        <time>2024-04-19T12:48:29Z</time>
      </trkpt>
      <trkpt lat="42.84521411" lon="13.63522821">
        <ele>106.00000</ele>
        <time>2024-04-19T12:48:30Z</time>
      </trkpt>
      <trkpt lat="42.84521570" lon="13.63512293">
        <ele>106.00000</ele>
        <time>2024-04-19T12:48:31Z</time>
      </trkpt>
      <trkpt lat="42.84521821" lon="13.63502017">
        <ele>106.00000</ele>
        <time>2024-04-19T12:48:32Z</time>
      </trkpt>
      <trkpt lat="42.84521880" lon="13.63491640">
        <ele>106.00000</ele>
        <time>2024-04-19T12:48:33Z</time>
      </trkpt>
      <trkpt lat="42.84521738" lon="13.63481448">
        <ele>107.00000</ele>
        <time>2024-04-19T12:48:34Z</time>
      </trkpt>
      <trkpt lat="42.84521352" lon="13.63471037">
        <ele>107.00000</ele>
        <time>2024-04-19T12:48:35Z</time>
      </trkpt>
      <trkpt lat="42.84521201" lon="13.63461147">
        <ele>107.00000</ele>
        <time>2024-04-19T12:48:36Z</time>
      </trkpt>
      <trkpt lat="42.84520849" lon="13.63450971">
        <ele>107.00000</ele>
        <time>2024-04-19T12:48:37Z</time>
      </trkpt>
      <trkpt lat="42.84520195" lon="13.63440653">
        <ele>107.00000</ele>
        <time>2024-04-19T12:48:38Z</time>
      </trkpt>
      <trkpt lat="42.84519374" lon="13.63430209">
        <ele>107.00000</ele>
        <time>2024-04-19T12:48:39Z</time>
      </trkpt>
      <trkpt lat="42.84518402" lon="13.63419732">
        <ele>106.00000</ele>
        <time>2024-04-19T12:48:40Z</time>
      </trkpt>
      <trkpt lat="42.84517304" lon="13.63409338">
        <ele>106.00000</ele>
        <time>2024-04-19T12:48:41Z</time>
      </trkpt>
      <trkpt lat="42.84515988" lon="13.63398852">
        <ele>106.00000</ele>
        <time>2024-04-19T12:48:42Z</time>
      </trkpt>
      <trkpt lat="42.84514613" lon="13.63388610">
        <ele>105.00000</ele>
        <time>2024-04-19T12:48:43Z</time>
      </trkpt>
      <trkpt lat="42.84513255" lon="13.63378543">
        <ele>105.00000</ele>
        <time>2024-04-19T12:48:44Z</time>
      </trkpt>
      <trkpt lat="42.84511755" lon="13.63368208">
        <ele>105.00000</ele>
        <time>2024-04-19T12:48:45Z</time>
      </trkpt>
      <trkpt lat="42.84510070" lon="13.63357823">
        <ele>105.00000</ele>
        <time>2024-04-19T12:48:46Z</time>
      </trkpt>
      <trkpt lat="42.84508595" lon="13.63347371">
        <ele>105.00000</ele>
        <time>2024-04-19T12:48:47Z</time>
      </trkpt>
      <trkpt lat="42.84506835" lon="13.63337103">
        <ele>104.00000</ele>
        <time>2024-04-19T12:48:48Z</time>
      </trkpt>
      <trkpt lat="42.84504991" lon="13.63326592">
        <ele>104.00000</ele>
        <time>2024-04-19T12:48:49Z</time>
      </trkpt>
      <trkpt lat="42.84503264" lon="13.63316131">
        <ele>104.00000</ele>
        <time>2024-04-19T12:48:50Z</time>
      </trkpt>
      <trkpt lat="42.84501479" lon="13.63305830">
        <ele>104.00000</ele>
        <time>2024-04-19T12:48:51Z</time>
      </trkpt>
      <trkpt lat="42.84499257" lon="13.63293391">
        <ele>105.00000</ele>
        <time>2024-04-19T12:48:52Z</time>
      </trkpt>
      <trkpt lat="42.84497799" lon="13.63285034">
        <ele>105.00000</ele>
        <time>2024-04-19T12:48:53Z</time>
      </trkpt>
      <trkpt lat="42.84496005" lon="13.63274599">
        <ele>106.00000</ele>
        <time>2024-04-19T12:48:54Z</time>
      </trkpt>
      <trkpt lat="42.84494010" lon="13.63264046">
        <ele>106.00000</ele>
        <time>2024-04-19T12:48:55Z</time>
      </trkpt>
      <trkpt lat="42.84491999" lon="13.63253636">
        <ele>107.00000</ele>
        <time>2024-04-19T12:48:56Z</time>
      </trkpt>
      <trkpt lat="42.84490222" lon="13.63243510">
        <ele>107.00000</ele>
        <time>2024-04-19T12:48:57Z</time>
      </trkpt>
      <trkpt lat="42.84488302" lon="13.63233326">
        <ele>107.00000</ele>
        <time>2024-04-19T12:48:58Z</time>
      </trkpt>
      <trkpt lat="42.84486500" lon="13.63223184">
        <ele>107.00000</ele>
        <time>2024-04-19T12:48:59Z</time>
      </trkpt>
      <trkpt lat="42.84484690" lon="13.63213034">
        <ele>108.00000</ele>
        <time>2024-04-19T12:49:00Z</time>
      </trkpt>
      <trkpt lat="42.84482988" lon="13.63202959">
        <ele>108.00000</ele>
        <time>2024-04-19T12:49:01Z</time>
      </trkpt>
      <trkpt lat="42.84481320" lon="13.63192666">
        <ele>109.00000</ele>
        <time>2024-04-19T12:49:02Z</time>
      </trkpt>
      <trkpt lat="42.84479577" lon="13.63182432">
        <ele>109.00000</ele>
        <time>2024-04-19T12:49:03Z</time>
      </trkpt>
      <trkpt lat="42.84477783" lon="13.63172206">
        <ele>109.00000</ele>
        <time>2024-04-19T12:49:04Z</time>
      </trkpt>
      <trkpt lat="42.84475939" lon="13.63161896">
        <ele>109.00000</ele>
        <time>2024-04-19T12:49:05Z</time>
      </trkpt>
      <trkpt lat="42.84474162" lon="13.63151544">
        <ele>109.00000</ele>
        <time>2024-04-19T12:49:06Z</time>
      </trkpt>
      <trkpt lat="42.84472745" lon="13.63141285">
        <ele>109.00000</ele>
        <time>2024-04-19T12:49:07Z</time>
      </trkpt>
      <trkpt lat="42.84471270" lon="13.63130916">
        <ele>109.00000</ele>
        <time>2024-04-19T12:49:08Z</time>
      </trkpt>
      <trkpt lat="42.84469611" lon="13.63120338">
        <ele>109.00000</ele>
        <time>2024-04-19T12:49:09Z</time>
      </trkpt>
      <trkpt lat="42.84467834" lon="13.63109660">
        <ele>109.00000</ele>
        <time>2024-04-19T12:49:10Z</time>
      </trkpt>
      <trkpt lat="42.84465830" lon="13.63098931">
        <ele>109.00000</ele>
        <time>2024-04-19T12:49:11Z</time>
      </trkpt>
      <trkpt lat="42.84463919" lon="13.63088428">
        <ele>109.00000</ele>
        <time>2024-04-19T12:49:12Z</time>
      </trkpt>
      <trkpt lat="42.84462058" lon="13.63077976">
        <ele>109.00000</ele>
        <time>2024-04-19T12:49:13Z</time>
      </trkpt>
      <trkpt lat="42.84460231" lon="13.63067767">
        <ele>109.00000</ele>
        <time>2024-04-19T12:49:14Z</time>
      </trkpt>
      <trkpt lat="42.84458412" lon="13.63057566">
        <ele>109.00000</ele>
        <time>2024-04-19T12:49:15Z</time>
      </trkpt>
      <trkpt lat="42.84456585" lon="13.63047324">
        <ele>109.00000</ele>
        <time>2024-04-19T12:49:16Z</time>
      </trkpt>
      <trkpt lat="42.84454666" lon="13.63036888">
        <ele>109.00000</ele>
        <time>2024-04-19T12:49:17Z</time>
      </trkpt>
      <trkpt lat="42.84452931" lon="13.63026268">
        <ele>109.00000</ele>
        <time>2024-04-19T12:49:18Z</time>
      </trkpt>
      <trkpt lat="42.84451061" lon="13.63015539">
        <ele>109.00000</ele>
        <time>2024-04-19T12:49:19Z</time>
      </trkpt>
      <trkpt lat="42.84449117" lon="13.63005045">
        <ele>109.00000</ele>
        <time>2024-04-19T12:49:20Z</time>
      </trkpt>
      <trkpt lat="42.84447331" lon="13.62994677">
        <ele>108.00000</ele>
        <time>2024-04-19T12:49:21Z</time>
      </trkpt>
      <trkpt lat="42.84445655" lon="13.62984526">
        <ele>108.00000</ele>
        <time>2024-04-19T12:49:22Z</time>
      </trkpt>
      <trkpt lat="42.84444046" lon="13.62974577">
        <ele>108.00000</ele>
        <time>2024-04-19T12:49:23Z</time>
      </trkpt>
      <trkpt lat="42.84442202" lon="13.62964385">
        <ele>107.00000</ele>
        <time>2024-04-19T12:49:24Z</time>
      </trkpt>
      <trkpt lat="42.84440534" lon="13.62954318">
        <ele>107.00000</ele>
        <time>2024-04-19T12:49:25Z</time>
      </trkpt>
      <trkpt lat="42.84438849" lon="13.62944134">
        <ele>107.00000</ele>
        <time>2024-04-19T12:49:26Z</time>
      </trkpt>
      <trkpt lat="42.84437357" lon="13.62933992">
        <ele>107.00000</ele>
        <time>2024-04-19T12:49:27Z</time>
      </trkpt>
      <trkpt lat="42.84435890" lon="13.62923766">
        <ele>108.00000</ele>
        <time>2024-04-19T12:49:28Z</time>
      </trkpt>
      <trkpt lat="42.84434448" lon="13.62913683">
        <ele>109.00000</ele>
        <time>2024-04-19T12:49:29Z</time>
      </trkpt>
      <trkpt lat="42.84432940" lon="13.62903499">
        <ele>110.00000</ele>
        <time>2024-04-19T12:49:30Z</time>
      </trkpt>
      <trkpt lat="42.84431439" lon="13.62893289">
        <ele>112.00000</ele>
        <time>2024-04-19T12:49:31Z</time>
      </trkpt>
      <trkpt lat="42.84430123" lon="13.62882887">
        <ele>112.00000</ele>
        <time>2024-04-19T12:49:32Z</time>
      </trkpt>
      <trkpt lat="42.84428874" lon="13.62872561">
        <ele>113.00000</ele>
        <time>2024-04-19T12:49:33Z</time>
      </trkpt>
      <trkpt lat="42.84427726" lon="13.62862276">
        <ele>113.00000</ele>
        <time>2024-04-19T12:49:34Z</time>
      </trkpt>
      <trkpt lat="42.84426561" lon="13.62851891">
        <ele>113.00000</ele>
        <time>2024-04-19T12:49:35Z</time>
      </trkpt>
      <trkpt lat="42.84425538" lon="13.62841665">
        <ele>113.00000</ele>
        <time>2024-04-19T12:49:36Z</time>
      </trkpt>
      <trkpt lat="42.84424625" lon="13.62831238">
        <ele>112.00000</ele>
        <time>2024-04-19T12:49:37Z</time>
      </trkpt>
      <trkpt lat="42.84423669" lon="13.62821029">
        <ele>112.00000</ele>
        <time>2024-04-19T12:49:38Z</time>
      </trkpt>
      <trkpt lat="42.84422638" lon="13.62810803">
        <ele>111.00000</ele>
        <time>2024-04-19T12:49:39Z</time>
      </trkpt>
      <trkpt lat="42.84421641" lon="13.62800611">
        <ele>111.00000</ele>
        <time>2024-04-19T12:49:40Z</time>
      </trkpt>
      <trkpt lat="42.84420669" lon="13.62790334">
        <ele>111.00000</ele>
        <time>2024-04-19T12:49:41Z</time>
      </trkpt>
      <trkpt lat="42.84419839" lon="13.62780083">
        <ele>112.00000</ele>
        <time>2024-04-19T12:49:42Z</time>
      </trkpt>
      <trkpt lat="42.84418942" lon="13.62769665">
        <ele>112.00000</ele>
        <time>2024-04-19T12:49:43Z</time>
      </trkpt>
      <trkpt lat="42.84418188" lon="13.62759288">
        <ele>112.00000</ele>
        <time>2024-04-19T12:49:44Z</time>
      </trkpt>
      <trkpt lat="42.84417618" lon="13.62748794">
        <ele>112.00000</ele>
        <time>2024-04-19T12:49:45Z</time>
      </trkpt>
      <trkpt lat="42.84417131" lon="13.62738191">
        <ele>112.00000</ele>
        <time>2024-04-19T12:49:46Z</time>
      </trkpt>
      <trkpt lat="42.84416478" lon="13.62727747">
        <ele>112.00000</ele>
        <time>2024-04-19T12:49:47Z</time>
      </trkpt>
      <trkpt lat="42.84415782" lon="13.62717152">
        <ele>111.00000</ele>
        <time>2024-04-19T12:49:48Z</time>
      </trkpt>
      <trkpt lat="42.84415095" lon="13.62706515">
        <ele>111.00000</ele>
        <time>2024-04-19T12:49:49Z</time>
      </trkpt>
      <trkpt lat="42.84414323" lon="13.62695619">
        <ele>111.00000</ele>
        <time>2024-04-19T12:49:50Z</time>
      </trkpt>
      <trkpt lat="42.84413661" lon="13.62684756">
        <ele>110.00000</ele>
        <time>2024-04-19T12:49:51Z</time>
      </trkpt>
      <trkpt lat="42.84413008" lon="13.62674027">
        <ele>110.00000</ele>
        <time>2024-04-19T12:49:52Z</time>
      </trkpt>
      <trkpt lat="42.84412454" lon="13.62661488">
        <ele>109.00000</ele>
        <time>2024-04-19T12:49:53Z</time>
      </trkpt>
      <trkpt lat="42.84412178" lon="13.62653156">
        <ele>109.00000</ele>
        <time>2024-04-19T12:49:54Z</time>
      </trkpt>
      <trkpt lat="42.84411658" lon="13.62642394">
        <ele>109.00000</ele>
        <time>2024-04-19T12:49:55Z</time>
      </trkpt>
      <trkpt lat="42.84411155" lon="13.62631883">
        <ele>109.00000</ele>
        <time>2024-04-19T12:49:56Z</time>
      </trkpt>
      <trkpt lat="42.84410552" lon="13.62620986">
        <ele>109.00000</ele>
        <time>2024-04-19T12:49:57Z</time>
      </trkpt>
      <trkpt lat="42.84410091" lon="13.62610082">
        <ele>109.00000</ele>
        <time>2024-04-19T12:49:58Z</time>
      </trkpt>
      <trkpt lat="42.84409521" lon="13.62599093">
        <ele>109.00000</ele>
        <time>2024-04-19T12:49:59Z</time>
      </trkpt>
      <trkpt lat="42.84408842" lon="13.62588230">
        <ele>110.00000</ele>
        <time>2024-04-19T12:50:00Z</time>
      </trkpt>
      <trkpt lat="42.84408004" lon="13.62577627">
        <ele>110.00000</ele>
        <time>2024-04-19T12:50:01Z</time>
      </trkpt>
      <trkpt lat="42.84407014" lon="13.62567300">
        <ele>111.00000</ele>
        <time>2024-04-19T12:50:02Z</time>
      </trkpt>
      <trkpt lat="42.84406168" lon="13.62556982">
        <ele>111.00000</ele>
        <time>2024-04-19T12:50:03Z</time>
      </trkpt>
      <trkpt lat="42.84405430" lon="13.62546823">
        <ele>111.00000</ele>
        <time>2024-04-19T12:50:04Z</time>
      </trkpt>
      <trkpt lat="42.84404986" lon="13.62536774">
        <ele>112.00000</ele>
        <time>2024-04-19T12:50:05Z</time>
      </trkpt>
      <trkpt lat="42.84404785" lon="13.62526581">
        <ele>112.00000</ele>
        <time>2024-04-19T12:50:06Z</time>
      </trkpt>
      <trkpt lat="42.84405162" lon="13.62514721">
        <ele>112.00000</ele>
        <time>2024-04-19T12:50:07Z</time>
      </trkpt>
      <trkpt lat="42.84406352" lon="13.62506766">
        <ele>113.00000</ele>
        <time>2024-04-19T12:50:08Z</time>
      </trkpt>
      <trkpt lat="42.84409068" lon="13.62497429">
        <ele>113.00000</ele>
        <time>2024-04-19T12:50:09Z</time>
      </trkpt>
      <trkpt lat="42.84412530" lon="13.62489223">
        <ele>114.00000</ele>
        <time>2024-04-19T12:50:10Z</time>
      </trkpt>
      <trkpt lat="42.84416637" lon="13.62481839">
        <ele>114.00000</ele>
        <time>2024-04-19T12:50:11Z</time>
      </trkpt>
      <trkpt lat="42.84420903" lon="13.62474823">
        <ele>114.00000</ele>
        <time>2024-04-19T12:50:12Z</time>
      </trkpt>
      <trkpt lat="42.84424725" lon="13.62467958">
        <ele>114.00000</ele>
        <time>2024-04-19T12:50:13Z</time>
      </trkpt>
      <trkpt lat="42.84428506" lon="13.62461202">
        <ele>114.00000</ele>
        <time>2024-04-19T12:50:14Z</time>
      </trkpt>
      <trkpt lat="42.84431573" lon="13.62454337">
        <ele>114.00000</ele>
        <time>2024-04-19T12:50:15Z</time>
      </trkpt>
      <trkpt lat="42.84433149" lon="13.62446811">
        <ele>114.00000</ele>
        <time>2024-04-19T12:50:16Z</time>
      </trkpt>
      <trkpt lat="42.84432956" lon="13.62439082">
        <ele>114.00000</ele>
        <time>2024-04-19T12:50:17Z</time>
      </trkpt>
      <trkpt lat="42.84431230" lon="13.62431271">
        <ele>115.00000</ele>
        <time>2024-04-19T12:50:18Z</time>
      </trkpt>
      <trkpt lat="42.84428237" lon="13.62423911">
        <ele>115.00000</ele>
        <time>2024-04-19T12:50:19Z</time>
      </trkpt>
      <trkpt lat="42.84423854" lon="13.62417977">
        <ele>115.00000</ele>
        <time>2024-04-19T12:50:20Z</time>
      </trkpt>
      <trkpt lat="42.84418791" lon="13.62412872">
        <ele>115.00000</ele>
        <time>2024-04-19T12:50:21Z</time>
      </trkpt>
      <trkpt lat="42.84413955" lon="13.62407181">
        <ele>115.00000</ele>
        <time>2024-04-19T12:50:22Z</time>
      </trkpt>
      <trkpt lat="42.84410082" lon="13.62400023">
        <ele>115.00000</ele>
        <time>2024-04-19T12:50:23Z</time>
      </trkpt>
      <trkpt lat="42.84407727" lon="13.62392077">
        <ele>115.00000</ele>
        <time>2024-04-19T12:50:24Z</time>
      </trkpt>
      <trkpt lat="42.84406696" lon="13.62383586">
        <ele>115.00000</ele>
        <time>2024-04-19T12:50:25Z</time>
      </trkpt>
      <trkpt lat="42.84406713" lon="13.62374693">
        <ele>116.00000</ele>
        <time>2024-04-19T12:50:26Z</time>
      </trkpt>
      <trkpt lat="42.84407291" lon="13.62365984">
        <ele>116.00000</ele>
        <time>2024-04-19T12:50:27Z</time>
      </trkpt>
      <trkpt lat="42.84408188" lon="13.62357149">
        <ele>117.00000</ele>
        <time>2024-04-19T12:50:28Z</time>
      </trkpt>
      <trkpt lat="42.84409395" lon="13.62348214">
        <ele>117.00000</ele>
        <time>2024-04-19T12:50:29Z</time>
      </trkpt>
      <trkpt lat="42.84410652" lon="13.62339195">
        <ele>117.00000</ele>
        <time>2024-04-19T12:50:30Z</time>
      </trkpt>
      <trkpt lat="42.84412010" lon="13.62330185">
        <ele>116.00000</ele>
        <time>2024-04-19T12:50:31Z</time>
      </trkpt>
      <trkpt lat="42.84413251" lon="13.62321015">
        <ele>116.00000</ele>
        <time>2024-04-19T12:50:32Z</time>
      </trkpt>
      <trkpt lat="42.84414248" lon="13.62311778">
        <ele>116.00000</ele>
        <time>2024-04-19T12:50:33Z</time>
      </trkpt>
      <trkpt lat="42.84415220" lon="13.62302499">
        <ele>116.00000</ele>
        <time>2024-04-19T12:50:34Z</time>
      </trkpt>
      <trkpt lat="42.84416520" lon="13.62293380">
        <ele>116.00000</ele>
        <time>2024-04-19T12:50:35Z</time>
      </trkpt>
      <trkpt lat="42.84417861" lon="13.62284051">
        <ele>117.00000</ele>
        <time>2024-04-19T12:50:36Z</time>
      </trkpt>
      <trkpt lat="42.84419252" lon="13.62274697">
        <ele>117.00000</ele>
        <time>2024-04-19T12:50:37Z</time>
      </trkpt>
      <trkpt lat="42.84420660" lon="13.62265284">
        <ele>117.00000</ele>
        <time>2024-04-19T12:50:38Z</time>
      </trkpt>
      <trkpt lat="42.84422152" lon="13.62255971">
        <ele>117.00000</ele>
        <time>2024-04-19T12:50:39Z</time>
      </trkpt>
      <trkpt lat="42.84423619" lon="13.62246709">
        <ele>117.00000</ele>
        <time>2024-04-19T12:50:40Z</time>
      </trkpt>
      <trkpt lat="42.84424876" lon="13.62236928">
        <ele>117.00000</ele>
        <time>2024-04-19T12:50:41Z</time>
      </trkpt>
      <trkpt lat="42.84425958" lon="13.62227213">
        <ele>117.00000</ele>
        <time>2024-04-19T12:50:42Z</time>
      </trkpt>
      <trkpt lat="42.84426796" lon="13.62217616">
        <ele>116.00000</ele>
        <time>2024-04-19T12:50:43Z</time>
      </trkpt>
      <trkpt lat="42.84427659" lon="13.62208178">
        <ele>116.00000</ele>
        <time>2024-04-19T12:50:44Z</time>
      </trkpt>
      <trkpt lat="42.84428606" lon="13.62198597">
        <ele>116.00000</ele>
        <time>2024-04-19T12:50:45Z</time>
      </trkpt>
      <trkpt lat="42.84429939" lon="13.62188765">
        <ele>116.00000</ele>
        <time>2024-04-19T12:50:46Z</time>
      </trkpt>
      <trkpt lat="42.84431557" lon="13.62178900">
        <ele>116.00000</ele>
        <time>2024-04-19T12:50:47Z</time>
      </trkpt>
      <trkpt lat="42.84433124" lon="13.62169118">
        <ele>116.00000</ele>
        <time>2024-04-19T12:50:48Z</time>
      </trkpt>
      <trkpt lat="42.84434809" lon="13.62159035">
        <ele>116.00000</ele>
        <time>2024-04-19T12:50:49Z</time>
      </trkpt>
      <trkpt lat="42.84436611" lon="13.62148683">
        <ele>117.00000</ele>
        <time>2024-04-19T12:50:50Z</time>
      </trkpt>
      <trkpt lat="42.84438497" lon="13.62138289">
        <ele>117.00000</ele>
        <time>2024-04-19T12:50:51Z</time>
      </trkpt>
      <trkpt lat="42.84440391" lon="13.62127779">
        <ele>117.00000</ele>
        <time>2024-04-19T12:50:52Z</time>
      </trkpt>
      <trkpt lat="42.84442478" lon="13.62117242">
        <ele>117.00000</ele>
        <time>2024-04-19T12:50:53Z</time>
      </trkpt>
      <trkpt lat="42.84444666" lon="13.62106648">
        <ele>118.00000</ele>
        <time>2024-04-19T12:50:54Z</time>
      </trkpt>
      <trkpt lat="42.84447063" lon="13.62096154">
        <ele>118.00000</ele>
        <time>2024-04-19T12:50:55Z</time>
      </trkpt>
      <trkpt lat="42.84449536" lon="13.62085576">
        <ele>118.00000</ele>
        <time>2024-04-19T12:50:56Z</time>
      </trkpt>
      <trkpt lat="42.84451950" lon="13.62074512">
        <ele>118.00000</ele>
        <time>2024-04-19T12:50:57Z</time>
      </trkpt>
      <trkpt lat="42.84454079" lon="13.62063422">
        <ele>119.00000</ele>
        <time>2024-04-19T12:50:58Z</time>
      </trkpt>
      <trkpt lat="42.84456484" lon="13.62052450">
        <ele>119.00000</ele>
        <time>2024-04-19T12:50:59Z</time>
      </trkpt>
      <trkpt lat="42.84459209" lon="13.62041478">
        <ele>119.00000</ele>
        <time>2024-04-19T12:51:00Z</time>
      </trkpt>
      <trkpt lat="42.84461874" lon="13.62030456">
        <ele>119.00000</ele>
        <time>2024-04-19T12:51:01Z</time>
      </trkpt>
      <trkpt lat="42.84464648" lon="13.62019468">
        <ele>118.00000</ele>
        <time>2024-04-19T12:51:02Z</time>
      </trkpt>
      <trkpt lat="42.84467540" lon="13.62008395">
        <ele>118.00000</ele>
        <time>2024-04-19T12:51:03Z</time>
      </trkpt>
      <trkpt lat="42.84470960" lon="13.61995328">
        <ele>117.00000</ele>
        <time>2024-04-19T12:51:04Z</time>
      </trkpt>
      <trkpt lat="42.84473466" lon="13.61987004">
        <ele>117.00000</ele>
        <time>2024-04-19T12:51:05Z</time>
      </trkpt>
      <trkpt lat="42.84476836" lon="13.61976871">
        <ele>117.00000</ele>
        <time>2024-04-19T12:51:06Z</time>
      </trkpt>
      <trkpt lat="42.84480624" lon="13.61967047">
        <ele>116.00000</ele>
        <time>2024-04-19T12:51:07Z</time>
      </trkpt>
      <trkpt lat="42.84485025" lon="13.61957835">
        <ele>116.00000</ele>
        <time>2024-04-19T12:51:08Z</time>
      </trkpt>
      <trkpt lat="42.84489811" lon="13.61949387">
        <ele>115.00000</ele>
        <time>2024-04-19T12:51:09Z</time>
      </trkpt>
      <trkpt lat="42.84494262" lon="13.61941013">
        <ele>115.00000</ele>
        <time>2024-04-19T12:51:10Z</time>
      </trkpt>
      <trkpt lat="42.84497187" lon="13.61932095">
        <ele>115.00000</ele>
        <time>2024-04-19T12:51:11Z</time>
      </trkpt>
      <trkpt lat="42.84497044" lon="13.61922430">
        <ele>115.00000</ele>
        <time>2024-04-19T12:51:12Z</time>
      </trkpt>
      <trkpt lat="42.84494832" lon="13.61914040">
        <ele>115.00000</ele>
        <time>2024-04-19T12:51:13Z</time>
      </trkpt>
      <trkpt lat="42.84490515" lon="13.61907997">
        <ele>114.00000</ele>
        <time>2024-04-19T12:51:14Z</time>
      </trkpt>
      <trkpt lat="42.84483843" lon="13.61905205">
        <ele>114.00000</ele>
        <time>2024-04-19T12:51:15Z</time>
      </trkpt>
      <trkpt lat="42.84476467" lon="13.61907645">
        <ele>115.00000</ele>
        <time>2024-04-19T12:51:16Z</time>
      </trkpt>
      <trkpt lat="42.84470357" lon="13.61914023">
        <ele>115.00000</ele>
        <time>2024-04-19T12:51:17Z</time>
      </trkpt>
      <trkpt lat="42.84465637" lon="13.61924333">
        <ele>116.00000</ele>
        <time>2024-04-19T12:51:18Z</time>
      </trkpt>
      <trkpt lat="42.84464757" lon="13.61932187">
        <ele>116.00000</ele>
        <time>2024-04-19T12:51:19Z</time>
      </trkpt>
      <trkpt lat="42.84465218" lon="13.61942505">
        <ele>116.00000</ele>
        <time>2024-04-19T12:51:20Z</time>
      </trkpt>
      <trkpt lat="42.84466400" lon="13.61952865">
        <ele>117.00000</ele>
        <time>2024-04-19T12:51:21Z</time>
      </trkpt>
      <trkpt lat="42.84467163" lon="13.61963326">
        <ele>117.00000</ele>
        <time>2024-04-19T12:51:22Z</time>
      </trkpt>
      <trkpt lat="42.84466568" lon="13.61974029">
        <ele>117.00000</ele>
        <time>2024-04-19T12:51:23Z</time>
      </trkpt>
      <trkpt lat="42.84464439" lon="13.61984607">
        <ele>117.00000</ele>
        <time>2024-04-19T12:51:24Z</time>
      </trkpt>
      <trkpt lat="42.84461715" lon="13.61994741">
        <ele>117.00000</ele>
        <time>2024-04-19T12:51:25Z</time>
      </trkpt>
      <trkpt lat="42.84458949" lon="13.62004917">
        <ele>117.00000</ele>
        <time>2024-04-19T12:51:26Z</time>
      </trkpt>
      <trkpt lat="42.84456501" lon="13.62014682">
        <ele>118.00000</ele>
        <time>2024-04-19T12:51:27Z</time>
      </trkpt>
      <trkpt lat="42.84454138" lon="13.62024648">
        <ele>118.00000</ele>
        <time>2024-04-19T12:51:28Z</time>
      </trkpt>
      <trkpt lat="42.84451606" lon="13.62034798">
        <ele>118.00000</ele>
        <time>2024-04-19T12:51:29Z</time>
      </trkpt>
      <trkpt lat="42.84448966" lon="13.62044982">
        <ele>118.00000</ele>
        <time>2024-04-19T12:51:30Z</time>
      </trkpt>
      <trkpt lat="42.84446284" lon="13.62055082">
        <ele>119.00000</ele>
        <time>2024-04-19T12:51:31Z</time>
      </trkpt>
      <trkpt lat="42.84443794" lon="13.62065032">
        <ele>118.00000</ele>
        <time>2024-04-19T12:51:32Z</time>
      </trkpt>
      <trkpt lat="42.84441464" lon="13.62074570">
        <ele>118.00000</ele>
        <time>2024-04-19T12:51:33Z</time>
      </trkpt>
      <trkpt lat="42.84439084" lon="13.62084587">
        <ele>118.00000</ele>
        <time>2024-04-19T12:51:34Z</time>
      </trkpt>
      <trkpt lat="42.84436795" lon="13.62094393">
        <ele>118.00000</ele>
        <time>2024-04-19T12:51:35Z</time>
      </trkpt>
      <trkpt lat="42.84434842" lon="13.62104200">
        <ele>118.00000</ele>
        <time>2024-04-19T12:51:36Z</time>
      </trkpt>
      <trkpt lat="42.84433015" lon="13.62113638">
        <ele>118.00000</ele>
        <time>2024-04-19T12:51:37Z</time>
      </trkpt>
      <trkpt lat="42.84430920" lon="13.62123353">
        <ele>118.00000</ele>
        <time>2024-04-19T12:51:38Z</time>
      </trkpt>
      <trkpt lat="42.84429277" lon="13.62132908">
        <ele>118.00000</ele>
        <time>2024-04-19T12:51:39Z</time>
      </trkpt>
      <trkpt lat="42.84427634" lon="13.62142690">
        <ele>118.00000</ele>
        <time>2024-04-19T12:51:40Z</time>
      </trkpt>
      <trkpt lat="42.84426016" lon="13.62152245">
        <ele>117.00000</ele>
        <time>2024-04-19T12:51:41Z</time>
      </trkpt>
      <trkpt lat="42.84424541" lon="13.62162052">
        <ele>117.00000</ele>
        <time>2024-04-19T12:51:42Z</time>
      </trkpt>
      <trkpt lat="42.84423057" lon="13.62171934">
        <ele>117.00000</ele>
        <time>2024-04-19T12:51:43Z</time>
      </trkpt>
      <trkpt lat="42.84421674" lon="13.62181674">
        <ele>117.00000</ele>
        <time>2024-04-19T12:51:44Z</time>
      </trkpt>
      <trkpt lat="42.84420166" lon="13.62191171">
        <ele>116.00000</ele>
        <time>2024-04-19T12:51:45Z</time>
      </trkpt>
      <trkpt lat="42.84418573" lon="13.62200542">
        <ele>116.00000</ele>
        <time>2024-04-19T12:51:46Z</time>
      </trkpt>
      <trkpt lat="42.84417148" lon="13.62209812">
        <ele>116.00000</ele>
        <time>2024-04-19T12:51:47Z</time>
      </trkpt>
      <trkpt lat="42.84415883" lon="13.62219594">
        <ele>117.00000</ele>
        <time>2024-04-19T12:51:48Z</time>
      </trkpt>
      <trkpt lat="42.84414659" lon="13.62229384">
        <ele>117.00000</ele>
        <time>2024-04-19T12:51:49Z</time>
      </trkpt>
      <trkpt lat="42.84413460" lon="13.62239426">
        <ele>117.00000</ele>
        <time>2024-04-19T12:51:50Z</time>
      </trkpt>
      <trkpt lat="42.84412329" lon="13.62249400">
        <ele>117.00000</ele>
        <time>2024-04-19T12:51:51Z</time>
      </trkpt>
      <trkpt lat="42.84411130" lon="13.62259894">
        <ele>117.00000</ele>
        <time>2024-04-19T12:51:52Z</time>
      </trkpt>
      <trkpt lat="42.84409797" lon="13.62270506">
        <ele>117.00000</ele>
        <time>2024-04-19T12:51:53Z</time>
      </trkpt>
      <trkpt lat="42.84408481" lon="13.62280983">
        <ele>116.00000</ele>
        <time>2024-04-19T12:51:54Z</time>
      </trkpt>
      <trkpt lat="42.84407115" lon="13.62291494">
        <ele>116.00000</ele>
        <time>2024-04-19T12:51:55Z</time>
      </trkpt>
      <trkpt lat="42.84405724" lon="13.62301980">
        <ele>116.00000</ele>
        <time>2024-04-19T12:51:56Z</time>
      </trkpt>
      <trkpt lat="42.84404492" lon="13.62312532">
        <ele>116.00000</ele>
        <time>2024-04-19T12:51:57Z</time>
      </trkpt>
      <trkpt lat="42.84403318" lon="13.62322742">
        <ele>116.00000</ele>
        <time>2024-04-19T12:51:58Z</time>
      </trkpt>
      <trkpt lat="42.84402010" lon="13.62332959">
        <ele>116.00000</ele>
        <time>2024-04-19T12:51:59Z</time>
      </trkpt>
      <trkpt lat="42.84400661" lon="13.62343261">
        <ele>116.00000</ele>
        <time>2024-04-19T12:52:00Z</time>
      </trkpt>
      <trkpt lat="42.84399328" lon="13.62353906">
        <ele>116.00000</ele>
        <time>2024-04-19T12:52:01Z</time>
      </trkpt>
      <trkpt lat="42.84397996" lon="13.62364877">
        <ele>116.00000</ele>
        <time>2024-04-19T12:52:02Z</time>
      </trkpt>
      <trkpt lat="42.84396856" lon="13.62375983">
        <ele>115.00000</ele>
        <time>2024-04-19T12:52:03Z</time>
      </trkpt>
      <trkpt lat="42.84395967" lon="13.62387333">
        <ele>114.00000</ele>
        <time>2024-04-19T12:52:04Z</time>
      </trkpt>
      <trkpt lat="42.84395313" lon="13.62398765">
        <ele>114.00000</ele>
        <time>2024-04-19T12:52:05Z</time>
      </trkpt>
      <trkpt lat="42.84394727" lon="13.62410333">
        <ele>113.00000</ele>
        <time>2024-04-19T12:52:06Z</time>
      </trkpt>
      <trkpt lat="42.84394257" lon="13.62422092">
        <ele>113.00000</ele>
        <time>2024-04-19T12:52:07Z</time>
      </trkpt>
      <trkpt lat="42.84393905" lon="13.62433928">
        <ele>113.00000</ele>
        <time>2024-04-19T12:52:08Z</time>
      </trkpt>
      <trkpt lat="42.84393562" lon="13.62445930">
        <ele>113.00000</ele>
        <time>2024-04-19T12:52:09Z</time>
      </trkpt>
      <trkpt lat="42.84393419" lon="13.62458017">
        <ele>113.00000</ele>
        <time>2024-04-19T12:52:10Z</time>
      </trkpt>
      <trkpt lat="42.84393603" lon="13.62470288">
        <ele>113.00000</ele>
        <time>2024-04-19T12:52:11Z</time>
      </trkpt>
      <trkpt lat="42.84393888" lon="13.62482585">
        <ele>113.00000</ele>
        <time>2024-04-19T12:52:12Z</time>
      </trkpt>
      <trkpt lat="42.84394375" lon="13.62494872">
        <ele>112.00000</ele>
        <time>2024-04-19T12:52:13Z</time>
      </trkpt>
      <trkpt lat="42.84395045" lon="13.62507127">
        <ele>112.00000</ele>
        <time>2024-04-19T12:52:14Z</time>
      </trkpt>
      <trkpt lat="42.84395632" lon="13.62519247">
        <ele>112.00000</ele>
        <time>2024-04-19T12:52:15Z</time>
      </trkpt>
      <trkpt lat="42.84396269" lon="13.62531568">
        <ele>112.00000</ele>
        <time>2024-04-19T12:52:16Z</time>
      </trkpt>
      <trkpt lat="42.84396830" lon="13.62544007">
        <ele>111.00000</ele>
        <time>2024-04-19T12:52:17Z</time>
      </trkpt>
      <trkpt lat="42.84397685" lon="13.62556446">
        <ele>111.00000</ele>
        <time>2024-04-19T12:52:18Z</time>
      </trkpt>
      <trkpt lat="42.84398624" lon="13.62568692">
        <ele>111.00000</ele>
        <time>2024-04-19T12:52:19Z</time>
      </trkpt>
      <trkpt lat="42.84399655" lon="13.62580871">
        <ele>110.00000</ele>
        <time>2024-04-19T12:52:20Z</time>
      </trkpt>
      <trkpt lat="42.84400527" lon="13.62592941">
        <ele>110.00000</ele>
        <time>2024-04-19T12:52:21Z</time>
      </trkpt>
      <trkpt lat="42.84401239" lon="13.62605245">
        <ele>110.00000</ele>
        <time>2024-04-19T12:52:22Z</time>
      </trkpt>
      <trkpt lat="42.84402002" lon="13.62617634">
        <ele>110.00000</ele>
        <time>2024-04-19T12:52:23Z</time>
      </trkpt>
      <trkpt lat="42.84402606" lon="13.62630064">
        <ele>110.00000</ele>
        <time>2024-04-19T12:52:24Z</time>
      </trkpt>
      <trkpt lat="42.84403276" lon="13.62642612">
        <ele>110.00000</ele>
        <time>2024-04-19T12:52:25Z</time>
      </trkpt>
      <trkpt lat="42.84404056" lon="13.62655143">
        <ele>110.00000</ele>
        <time>2024-04-19T12:52:26Z</time>
      </trkpt>
      <trkpt lat="42.84404961" lon="13.62667699">
        <ele>110.00000</ele>
        <time>2024-04-19T12:52:27Z</time>
      </trkpt>
      <trkpt lat="42.84405875" lon="13.62679903">
        <ele>110.00000</ele>
        <time>2024-04-19T12:52:28Z</time>
      </trkpt>
      <trkpt lat="42.84406579" lon="13.62692199">
        <ele>111.00000</ele>
        <time>2024-04-19T12:52:29Z</time>
      </trkpt>
      <trkpt lat="42.84407266" lon="13.62704437">
        <ele>111.00000</ele>
        <time>2024-04-19T12:52:30Z</time>
      </trkpt>
      <trkpt lat="42.84407895" lon="13.62716507">
        <ele>111.00000</ele>
        <time>2024-04-19T12:52:31Z</time>
      </trkpt>
      <trkpt lat="42.84408456" lon="13.62728401">
        <ele>112.00000</ele>
        <time>2024-04-19T12:52:32Z</time>
      </trkpt>
      <trkpt lat="42.84409286" lon="13.62740169">
        <ele>112.00000</ele>
        <time>2024-04-19T12:52:33Z</time>
      </trkpt>
      <trkpt lat="42.84410208" lon="13.62751903">
        <ele>111.00000</ele>
        <time>2024-04-19T12:52:34Z</time>
      </trkpt>
      <trkpt lat="42.84410895" lon="13.62763546">
        <ele>111.00000</ele>
        <time>2024-04-19T12:52:35Z</time>
      </trkpt>
      <trkpt lat="42.84411817" lon="13.62775130">
        <ele>111.00000</ele>
        <time>2024-04-19T12:52:36Z</time>
      </trkpt>
      <trkpt lat="42.84412882" lon="13.62786722">
        <ele>111.00000</ele>
        <time>2024-04-19T12:52:37Z</time>
      </trkpt>
      <trkpt lat="42.84413930" lon="13.62798306">
        <ele>110.00000</ele>
        <time>2024-04-19T12:52:38Z</time>
      </trkpt>
      <trkpt lat="42.84414818" lon="13.62809965">
        <ele>110.00000</ele>
        <time>2024-04-19T12:52:39Z</time>
      </trkpt>
      <trkpt lat="42.84415715" lon="13.62821599">
        <ele>111.00000</ele>
        <time>2024-04-19T12:52:40Z</time>
      </trkpt>
      <trkpt lat="42.84416587" lon="13.62833216">
        <ele>111.00000</ele>
        <time>2024-04-19T12:52:41Z</time>
      </trkpt>
      <trkpt lat="42.84417584" lon="13.62844758">
        <ele>112.00000</ele>
        <time>2024-04-19T12:52:42Z</time>
      </trkpt>
      <trkpt lat="42.84418816" lon="13.62856183">
        <ele>112.00000</ele>
        <time>2024-04-19T12:52:43Z</time>
      </trkpt>
      <trkpt lat="42.84420099" lon="13.62867624">
        <ele>112.00000</ele>
        <time>2024-04-19T12:52:44Z</time>
      </trkpt>
      <trkpt lat="42.84421213" lon="13.62879292">
        <ele>112.00000</ele>
        <time>2024-04-19T12:52:45Z</time>
      </trkpt>
      <trkpt lat="42.84422546" lon="13.62890951">
        <ele>112.00000</ele>
        <time>2024-04-19T12:52:46Z</time>
      </trkpt>
      <trkpt lat="42.84424055" lon="13.62902526">
        <ele>111.00000</ele>
        <time>2024-04-19T12:52:47Z</time>
      </trkpt>
      <trkpt lat="42.84425656" lon="13.62914085">
        <ele>109.00000</ele>
        <time>2024-04-19T12:52:48Z</time>
      </trkpt>
      <trkpt lat="42.84427215" lon="13.62925761">
        <ele>108.00000</ele>
        <time>2024-04-19T12:52:49Z</time>
      </trkpt>
      <trkpt lat="42.84428942" lon="13.62937261">
        <ele>107.00000</ele>
        <time>2024-04-19T12:52:50Z</time>
      </trkpt>
      <trkpt lat="42.84430878" lon="13.62948937">
        <ele>107.00000</ele>
        <time>2024-04-19T12:52:51Z</time>
      </trkpt>
      <trkpt lat="42.84432940" lon="13.62960638">
        <ele>107.00000</ele>
        <time>2024-04-19T12:52:52Z</time>
      </trkpt>
      <trkpt lat="42.84434893" lon="13.62972507">
        <ele>107.00000</ele>
        <time>2024-04-19T12:52:53Z</time>
      </trkpt>
      <trkpt lat="42.84436888" lon="13.62984367">
        <ele>107.00000</ele>
        <time>2024-04-19T12:52:54Z</time>
      </trkpt>
      <trkpt lat="42.84438882" lon="13.62996052">
        <ele>108.00000</ele>
        <time>2024-04-19T12:52:55Z</time>
      </trkpt>
      <trkpt lat="42.84440861" lon="13.63007660">
        <ele>108.00000</ele>
        <time>2024-04-19T12:52:56Z</time>
      </trkpt>
      <trkpt lat="42.84442604" lon="13.63019345">
        <ele>108.00000</ele>
        <time>2024-04-19T12:52:57Z</time>
      </trkpt>
      <trkpt lat="42.84444557" lon="13.63030803">
        <ele>108.00000</ele>
        <time>2024-04-19T12:52:58Z</time>
      </trkpt>
      <trkpt lat="42.84446636" lon="13.63042253">
        <ele>109.00000</ele>
        <time>2024-04-19T12:52:59Z</time>
      </trkpt>
      <trkpt lat="42.84448748" lon="13.63053560">
        <ele>109.00000</ele>
        <time>2024-04-19T12:53:00Z</time>
      </trkpt>
      <trkpt lat="42.84450793" lon="13.63064724">
        <ele>108.00000</ele>
        <time>2024-04-19T12:53:01Z</time>
      </trkpt>
      <trkpt lat="42.84452587" lon="13.63075948">
        <ele>108.00000</ele>
        <time>2024-04-19T12:53:02Z</time>
      </trkpt>
      <trkpt lat="42.84454682" lon="13.63087012">
        <ele>108.00000</ele>
        <time>2024-04-19T12:53:03Z</time>
      </trkpt>
      <trkpt lat="42.84456761" lon="13.63098286">
        <ele>108.00000</ele>
        <time>2024-04-19T12:53:04Z</time>
      </trkpt>
      <trkpt lat="42.84458840" lon="13.63109526">
        <ele>109.00000</ele>
        <time>2024-04-19T12:53:05Z</time>
      </trkpt>
      <trkpt lat="42.84461044" lon="13.63120665">
        <ele>109.00000</ele>
        <time>2024-04-19T12:53:06Z</time>
      </trkpt>
      <trkpt lat="42.84463115" lon="13.63132014">
        <ele>109.00000</ele>
        <time>2024-04-19T12:53:07Z</time>
      </trkpt>
      <trkpt lat="42.84465068" lon="13.63143389">
        <ele>109.00000</ele>
        <time>2024-04-19T12:53:08Z</time>
      </trkpt>
      <trkpt lat="42.84466912" lon="13.63154679">
        <ele>109.00000</ele>
        <time>2024-04-19T12:53:09Z</time>
      </trkpt>
      <trkpt lat="42.84468781" lon="13.63165961">
        <ele>109.00000</ele>
        <time>2024-04-19T12:53:10Z</time>
      </trkpt>
      <trkpt lat="42.84470750" lon="13.63177184">
        <ele>109.00000</ele>
        <time>2024-04-19T12:53:11Z</time>
      </trkpt>
      <trkpt lat="42.84472687" lon="13.63188374">
        <ele>109.00000</ele>
        <time>2024-04-19T12:53:12Z</time>
      </trkpt>
      <trkpt lat="42.84474581" lon="13.63199522">
        <ele>109.00000</ele>
        <time>2024-04-19T12:53:13Z</time>
      </trkpt>
      <trkpt lat="42.84476425" lon="13.63210796">
        <ele>109.00000</ele>
        <time>2024-04-19T12:53:14Z</time>
      </trkpt>
      <trkpt lat="42.84478269" lon="13.63222002">
        <ele>108.00000</ele>
        <time>2024-04-19T12:53:15Z</time>
      </trkpt>
      <trkpt lat="42.84480230" lon="13.63233000">
        <ele>108.00000</ele>
        <time>2024-04-19T12:53:16Z</time>
      </trkpt>
      <trkpt lat="42.84482192" lon="13.63244147">
        <ele>107.00000</ele>
        <time>2024-04-19T12:53:17Z</time>
      </trkpt>
      <trkpt lat="42.84484094" lon="13.63255212">
        <ele>107.00000</ele>
        <time>2024-04-19T12:53:18Z</time>
      </trkpt>
      <trkpt lat="42.84486006" lon="13.63266309">
        <ele>106.00000</ele>
        <time>2024-04-19T12:53:19Z</time>
      </trkpt>
      <trkpt lat="42.84487908" lon="13.63277507">
        <ele>106.00000</ele>
        <time>2024-04-19T12:53:20Z</time>
      </trkpt>
      <trkpt lat="42.84489811" lon="13.63288588">
        <ele>106.00000</ele>
        <time>2024-04-19T12:53:21Z</time>
      </trkpt>
      <trkpt lat="42.84491672" lon="13.63299795">
        <ele>105.00000</ele>
        <time>2024-04-19T12:53:22Z</time>
      </trkpt>
      <trkpt lat="42.84493717" lon="13.63310742">
        <ele>105.00000</ele>
        <time>2024-04-19T12:53:23Z</time>
      </trkpt>
      <trkpt lat="42.84495703" lon="13.63321806">
        <ele>105.00000</ele>
        <time>2024-04-19T12:53:24Z</time>
      </trkpt>
      <trkpt lat="42.84497640" lon="13.63332694">
        <ele>105.00000</ele>
        <time>2024-04-19T12:53:25Z</time>
      </trkpt>
      <trkpt lat="42.84499559" lon="13.63343565">
        <ele>105.00000</ele>
        <time>2024-04-19T12:53:26Z</time>
      </trkpt>
      <trkpt lat="42.84501286" lon="13.63354646">
        <ele>105.00000</ele>
        <time>2024-04-19T12:53:27Z</time>
      </trkpt>
      <trkpt lat="42.84503029" lon="13.63365895">
        <ele>105.00000</ele>
        <time>2024-04-19T12:53:28Z</time>
      </trkpt>
      <trkpt lat="42.84504655" lon="13.63376992">
        <ele>106.00000</ele>
        <time>2024-04-19T12:53:29Z</time>
      </trkpt>
      <trkpt lat="42.84506407" lon="13.63387847">
        <ele>106.00000</ele>
        <time>2024-04-19T12:53:30Z</time>
      </trkpt>
      <trkpt lat="42.84507731" lon="13.63398961">
        <ele>106.00000</ele>
        <time>2024-04-19T12:53:31Z</time>
      </trkpt>
      <trkpt lat="42.84508938" lon="13.63410118">
        <ele>107.00000</ele>
        <time>2024-04-19T12:53:32Z</time>
      </trkpt>
      <trkpt lat="42.84510087" lon="13.63421374">
        <ele>107.00000</ele>
        <time>2024-04-19T12:53:33Z</time>
      </trkpt>
      <trkpt lat="42.84511067" lon="13.63432724">
        <ele>107.00000</ele>
        <time>2024-04-19T12:53:34Z</time>
      </trkpt>
      <trkpt lat="42.84512006" lon="13.63444223">
        <ele>108.00000</ele>
        <time>2024-04-19T12:53:35Z</time>
      </trkpt>
      <trkpt lat="42.84512585" lon="13.63455547">
        <ele>108.00000</ele>
        <time>2024-04-19T12:53:36Z</time>
      </trkpt>
      <trkpt lat="42.84513104" lon="13.63466813">
        <ele>108.00000</ele>
        <time>2024-04-19T12:53:37Z</time>
      </trkpt>
      <trkpt lat="42.84513439" lon="13.63477952">
        <ele>107.00000</ele>
        <time>2024-04-19T12:53:38Z</time>
      </trkpt>
      <trkpt lat="42.84513666" lon="13.63489285">
        <ele>107.00000</ele>
        <time>2024-04-19T12:53:39Z</time>
      </trkpt>
      <trkpt lat="42.84513884" lon="13.63500759">
        <ele>107.00000</ele>
        <time>2024-04-19T12:53:40Z</time>
      </trkpt>
      <trkpt lat="42.84513900" lon="13.63512285">
        <ele>107.00000</ele>
        <time>2024-04-19T12:53:41Z</time>
      </trkpt>
      <trkpt lat="42.84513733" lon="13.63523868">
        <ele>107.00000</ele>
        <time>2024-04-19T12:53:42Z</time>
      </trkpt>
      <trkpt lat="42.84513289" lon="13.63535561">
        <ele>107.00000</ele>
        <time>2024-04-19T12:53:43Z</time>
      </trkpt>
      <trkpt lat="42.84512660" lon="13.63547438">
        <ele>107.00000</ele>
        <time>2024-04-19T12:53:44Z</time>
      </trkpt>
      <trkpt lat="42.84512191" lon="13.63559533">
        <ele>107.00000</ele>
        <time>2024-04-19T12:53:45Z</time>
      </trkpt>
      <trkpt lat="42.84511537" lon="13.63571846">
        <ele>107.00000</ele>
        <time>2024-04-19T12:53:46Z</time>
      </trkpt>
      <trkpt lat="42.84510984" lon="13.63583992">
        <ele>107.00000</ele>
        <time>2024-04-19T12:53:47Z</time>
      </trkpt>
      <trkpt lat="42.84510313" lon="13.63596112">
        <ele>107.00000</ele>
        <time>2024-04-19T12:53:48Z</time>
      </trkpt>
      <trkpt lat="42.84509584" lon="13.63608123">
        <ele>107.00000</ele>
        <time>2024-04-19T12:53:49Z</time>
      </trkpt>
      <trkpt lat="42.84508863" lon="13.63619891">
        <ele>106.00000</ele>
        <time>2024-04-19T12:53:50Z</time>
      </trkpt>
      <trkpt lat="42.84508209" lon="13.63631526">
        <ele>106.00000</ele>
        <time>2024-04-19T12:53:51Z</time>
      </trkpt>
      <trkpt lat="42.84507622" lon="13.63643009">
        <ele>105.00000</ele>
        <time>2024-04-19T12:53:52Z</time>
      </trkpt>
      <trkpt lat="42.84507153" lon="13.63654408">
        <ele>105.00000</ele>
        <time>2024-04-19T12:53:53Z</time>
      </trkpt>
      <trkpt lat="42.84506633" lon="13.63665623">
        <ele>105.00000</ele>
        <time>2024-04-19T12:53:54Z</time>
      </trkpt>
      <trkpt lat="42.84505971" lon="13.63676930">
        <ele>104.00000</ele>
        <time>2024-04-19T12:53:55Z</time>
      </trkpt>
      <trkpt lat="42.84505208" lon="13.63688087">
        <ele>104.00000</ele>
        <time>2024-04-19T12:53:56Z</time>
      </trkpt>
      <trkpt lat="42.84504546" lon="13.63699167">
        <ele>104.00000</ele>
        <time>2024-04-19T12:53:57Z</time>
      </trkpt>
      <trkpt lat="42.84504119" lon="13.63710240">
        <ele>104.00000</ele>
        <time>2024-04-19T12:53:58Z</time>
      </trkpt>
      <trkpt lat="42.84503616" lon="13.63721514">
        <ele>104.00000</ele>
        <time>2024-04-19T12:53:59Z</time>
      </trkpt>
      <trkpt lat="42.84503004" lon="13.63732762">
        <ele>104.00000</ele>
        <time>2024-04-19T12:54:00Z</time>
      </trkpt>
      <trkpt lat="42.84502233" lon="13.63743935">
        <ele>104.00000</ele>
        <time>2024-04-19T12:54:01Z</time>
      </trkpt>
      <trkpt lat="42.84501504" lon="13.63755024">
        <ele>104.00000</ele>
        <time>2024-04-19T12:54:02Z</time>
      </trkpt>
      <trkpt lat="42.84500900" lon="13.63766189">
        <ele>104.00000</ele>
        <time>2024-04-19T12:54:03Z</time>
      </trkpt>
      <trkpt lat="42.84500238" lon="13.63777362">
        <ele>104.00000</ele>
        <time>2024-04-19T12:54:04Z</time>
      </trkpt>
      <trkpt lat="42.84499500" lon="13.63788242">
        <ele>104.00000</ele>
        <time>2024-04-19T12:54:05Z</time>
      </trkpt>
      <trkpt lat="42.84498838" lon="13.63799298">
        <ele>104.00000</ele>
        <time>2024-04-19T12:54:06Z</time>
      </trkpt>
      <trkpt lat="42.84498293" lon="13.63810454">
        <ele>104.00000</ele>
        <time>2024-04-19T12:54:07Z</time>
      </trkpt>
      <trkpt lat="42.84497824" lon="13.63821526">
        <ele>104.00000</ele>
        <time>2024-04-19T12:54:08Z</time>
      </trkpt>
      <trkpt lat="42.84497153" lon="13.63832431">
        <ele>104.00000</ele>
        <time>2024-04-19T12:54:09Z</time>
      </trkpt>
      <trkpt lat="42.84496542" lon="13.63843345">
        <ele>104.00000</ele>
        <time>2024-04-19T12:54:10Z</time>
      </trkpt>
      <trkpt lat="42.84495963" lon="13.63854140">
        <ele>104.00000</ele>
        <time>2024-04-19T12:54:11Z</time>
      </trkpt>
      <trkpt lat="42.84495586" lon="13.63864928">
        <ele>104.00000</ele>
        <time>2024-04-19T12:54:12Z</time>
      </trkpt>
      <trkpt lat="42.84494966" lon="13.63878104">
        <ele>104.00000</ele>
        <time>2024-04-19T12:54:13Z</time>
      </trkpt>
      <trkpt lat="42.84494429" lon="13.63886998">
        <ele>104.00000</ele>
        <time>2024-04-19T12:54:14Z</time>
      </trkpt>
      <trkpt lat="42.84493851" lon="13.63897844">
        <ele>104.00000</ele>
        <time>2024-04-19T12:54:15Z</time>
      </trkpt>
      <trkpt lat="42.84493256" lon="13.63908648">
        <ele>104.00000</ele>
        <time>2024-04-19T12:54:16Z</time>
      </trkpt>
      <trkpt lat="42.84492795" lon="13.63919352">
        <ele>104.00000</ele>
        <time>2024-04-19T12:54:17Z</time>
      </trkpt>
      <trkpt lat="42.84492468" lon="13.63929879">
        <ele>104.00000</ele>
        <time>2024-04-19T12:54:18Z</time>
      </trkpt>
      <trkpt lat="42.84492124" lon="13.63940290">
        <ele>104.00000</ele>
        <time>2024-04-19T12:54:19Z</time>
      </trkpt>
      <trkpt lat="42.84491638" lon="13.63950558">
        <ele>104.00000</ele>
        <time>2024-04-19T12:54:20Z</time>
      </trkpt>
      <trkpt lat="42.84490892" lon="13.63960825">
        <ele>105.00000</ele>
        <time>2024-04-19T12:54:21Z</time>
      </trkpt>
      <trkpt lat="42.84490121" lon="13.63971085">
        <ele>105.00000</ele>
        <time>2024-04-19T12:54:22Z</time>
      </trkpt>
      <trkpt lat="42.84489626" lon="13.63981277">
        <ele>105.00000</ele>
        <time>2024-04-19T12:54:23Z</time>
      </trkpt>
      <trkpt lat="42.84489124" lon="13.63991587">
        <ele>105.00000</ele>
        <time>2024-04-19T12:54:24Z</time>
      </trkpt>
      <trkpt lat="42.84488696" lon="13.64001880">
        <ele>105.00000</ele>
        <time>2024-04-19T12:54:25Z</time>
      </trkpt>
      <trkpt lat="42.84488461" lon="13.64011947">
        <ele>105.00000</ele>
        <time>2024-04-19T12:54:26Z</time>
      </trkpt>
      <trkpt lat="42.84488378" lon="13.64023916">
        <ele>105.00000</ele>
        <time>2024-04-19T12:54:27Z</time>
      </trkpt>
      <trkpt lat="42.84488420" lon="13.64031812">
        <ele>105.00000</ele>
        <time>2024-04-19T12:54:28Z</time>
      </trkpt>
      <trkpt lat="42.84488587" lon="13.64041736">
        <ele>105.00000</ele>
        <time>2024-04-19T12:54:29Z</time>
      </trkpt>
      <trkpt lat="42.84488763" lon="13.64051526">
        <ele>105.00000</ele>
        <time>2024-04-19T12:54:30Z</time>
      </trkpt>
      <trkpt lat="42.84489048" lon="13.64061350">
        <ele>105.00000</ele>
        <time>2024-04-19T12:54:31Z</time>
      </trkpt>
      <trkpt lat="42.84489526" lon="13.64071031">
        <ele>105.00000</ele>
        <time>2024-04-19T12:54:32Z</time>
      </trkpt>
      <trkpt lat="42.84490146" lon="13.64080611">
        <ele>105.00000</ele>
        <time>2024-04-19T12:54:33Z</time>
      </trkpt>
      <trkpt lat="42.84490842" lon="13.64089898">
        <ele>105.00000</ele>
        <time>2024-04-19T12:54:34Z</time>
      </trkpt>
      <trkpt lat="42.84491730" lon="13.64098833">
        <ele>105.00000</ele>
        <time>2024-04-19T12:54:35Z</time>
      </trkpt>
      <trkpt lat="42.84492543" lon="13.64107634">
        <ele>105.00000</ele>
        <time>2024-04-19T12:54:36Z</time>
      </trkpt>
      <trkpt lat="42.84493273" lon="13.64116377">
        <ele>105.00000</ele>
        <time>2024-04-19T12:54:37Z</time>
      </trkpt>
      <trkpt lat="42.84494270" lon="13.64125002">
        <ele>105.00000</ele>
        <time>2024-04-19T12:54:38Z</time>
      </trkpt>
      <trkpt lat="42.84495050" lon="13.64133493">
        <ele>105.00000</ele>
        <time>2024-04-19T12:54:39Z</time>
      </trkpt>
      <trkpt lat="42.84495938" lon="13.64141791">
        <ele>105.00000</ele>
        <time>2024-04-19T12:54:40Z</time>
      </trkpt>
      <trkpt lat="42.84497464" lon="13.64151455">
        <ele>106.00000</ele>
        <time>2024-04-19T12:54:41Z</time>
      </trkpt>
      <trkpt lat="42.84498679" lon="13.64157574">
        <ele>106.00000</ele>
        <time>2024-04-19T12:54:42Z</time>
      </trkpt>
      <trkpt lat="42.84500322" lon="13.64165025">
        <ele>106.00000</ele>
        <time>2024-04-19T12:54:43Z</time>
      </trkpt>
      <trkpt lat="42.84502333" lon="13.64172007">
        <ele>107.00000</ele>
        <time>2024-04-19T12:54:44Z</time>
      </trkpt>
      <trkpt lat="42.84504488" lon="13.64178277">
        <ele>107.00000</ele>
        <time>2024-04-19T12:54:45Z</time>
      </trkpt>
      <trkpt lat="42.84507136" lon="13.64183549">
        <ele>107.00000</ele>
        <time>2024-04-19T12:54:46Z</time>
      </trkpt>
      <trkpt lat="42.84510439" lon="13.64186458">
        <ele>107.00000</ele>
        <time>2024-04-19T12:54:47Z</time>
      </trkpt>
      <trkpt lat="42.84513766" lon="13.64186684">
        <ele>107.00000</ele>
        <time>2024-04-19T12:54:48Z</time>
      </trkpt>
      <trkpt lat="42.84516675" lon="13.64185108">
        <ele>107.00000</ele>
        <time>2024-04-19T12:54:49Z</time>
      </trkpt>
      <trkpt lat="42.84518770" lon="13.64183013">
        <ele>107.00000</ele>
        <time>2024-04-19T12:54:50Z</time>
      </trkpt>
      <trkpt lat="42.84519826" lon="13.64181311">
        <ele>107.00000</ele>
        <time>2024-04-19T12:54:51Z</time>
      </trkpt>
      <trkpt lat="42.84520153" lon="13.64180699">
        <ele>107.00000</ele>
        <time>2024-04-19T12:54:52Z</time>
      </trkpt>
      <trkpt lat="42.84525241" lon="13.64181630">
        <ele>107.00000</ele>
        <time>2024-04-19T12:55:13Z</time>
      </trkpt>
      <trkpt lat="42.84527085" lon="13.64182024">
        <ele>107.00000</ele>
        <time>2024-04-19T12:55:14Z</time>
      </trkpt>
      <trkpt lat="42.84529591" lon="13.64182627">
        <ele>107.00000</ele>
        <time>2024-04-19T12:55:15Z</time>
      </trkpt>
      <trkpt lat="42.84532500" lon="13.64182091">
        <ele>107.00000</ele>
        <time>2024-04-19T12:55:16Z</time>
      </trkpt>
      <trkpt lat="42.84535065" lon="13.64180305">
        <ele>107.00000</ele>
        <time>2024-04-19T12:55:17Z</time>
      </trkpt>
      <trkpt lat="42.84537286" lon="13.64178202">
        <ele>107.00000</ele>
        <time>2024-04-19T12:55:18Z</time>
      </trkpt>
      <trkpt lat="42.84539055" lon="13.64176500">
        <ele>106.00000</ele>
        <time>2024-04-19T12:55:19Z</time>
      </trkpt>
      <trkpt lat="42.84540764" lon="13.64175503">
        <ele>106.00000</ele>
        <time>2024-04-19T12:55:20Z</time>
      </trkpt>
      <trkpt lat="42.84542793" lon="13.64175268">
        <ele>106.00000</ele>
        <time>2024-04-19T12:55:21Z</time>
      </trkpt>
      <trkpt lat="42.84544754" lon="13.64174522">
        <ele>106.00000</ele>
        <time>2024-04-19T12:55:22Z</time>
      </trkpt>
      <trkpt lat="42.84546825" lon="13.64173818">
        <ele>106.00000</ele>
        <time>2024-04-19T12:55:23Z</time>
      </trkpt>
      <trkpt lat="42.84548895" lon="13.64173240">
        <ele>106.00000</ele>
        <time>2024-04-19T12:55:24Z</time>
      </trkpt>
      <trkpt lat="42.84550546" lon="13.64172410">
        <ele>106.00000</ele>
        <time>2024-04-19T12:55:25Z</time>
      </trkpt>
      <trkpt lat="42.84552231" lon="13.64171706">
        <ele>106.00000</ele>
        <time>2024-04-19T12:55:26Z</time>
      </trkpt>
      <trkpt lat="42.84554167" lon="13.64171404">
        <ele>106.00000</ele>
        <time>2024-04-19T12:55:27Z</time>
      </trkpt>
      <trkpt lat="42.84555877" lon="13.64171236">
        <ele>106.00000</ele>
        <time>2024-04-19T12:55:28Z</time>
      </trkpt>
      <trkpt lat="42.84557595" lon="13.64171219">
        <ele>106.00000</ele>
        <time>2024-04-19T12:55:29Z</time>
      </trkpt>
      <trkpt lat="42.84559087" lon="13.64171219">
        <ele>106.00000</ele>
        <time>2024-04-19T12:55:30Z</time>
      </trkpt>
      <trkpt lat="42.84560596" lon="13.64171069">
        <ele>105.00000</ele>
        <time>2024-04-19T12:55:31Z</time>
      </trkpt>
      <trkpt lat="42.84562499" lon="13.64170189">
        <ele>105.00000</ele>
        <time>2024-04-19T12:55:32Z</time>
      </trkpt>
      <trkpt lat="42.84564125" lon="13.64169375">
        <ele>105.00000</ele>
        <time>2024-04-19T12:55:33Z</time>
      </trkpt>
    </trkseg>
  </trk>
</gpx>

